﻿<?xml version="1.0" encoding="utf-8"?><gpx creator="Garmin Desktop App" version="1.1" xsi:schemaLocation="http://www.topografix.com/GPX/1/1 http://www.topografix.com/GPX/1/1/gpx.xsd http://www.garmin.com/xmlschemas/WaypointExtension/v1 http://www8.garmin.com/xmlschemas/WaypointExtensionv1.xsd http://www.garmin.com/xmlschemas/TrackPointExtension/v1 http://www.garmin.com/xmlschemas/TrackPointExtensionv1.xsd http://www.garmin.com/xmlschemas/GpxExtensions/v3 http://www8.garmin.com/xmlschemas/GpxExtensionsv3.xsd http://www.garmin.com/xmlschemas/ActivityExtension/v1 http://www8.garmin.com/xmlschemas/ActivityExtensionv1.xsd http://www.garmin.com/xmlschemas/AdventuresExtensions/v1 http://www8.garmin.com/xmlschemas/AdventuresExtensionv1.xsd http://www.garmin.com/xmlschemas/PressureExtension/v1 http://www.garmin.com/xmlschemas/PressureExtensionv1.xsd http://www.garmin.com/xmlschemas/TripExtensions/v1 http://www.garmin.com/xmlschemas/TripExtensionsv1.xsd http://www.garmin.com/xmlschemas/TripMetaDataExtensions/v1 http://www.garmin.com/xmlschemas/TripMetaDataExtensionsv1.xsd http://www.garmin.com/xmlschemas/ViaPointTransportationModeExtensions/v1 http://www.garmin.com/xmlschemas/ViaPointTransportationModeExtensionsv1.xsd http://www.garmin.com/xmlschemas/CreationTimeExtension/v1 http://www.garmin.com/xmlschemas/CreationTimeExtensionsv1.xsd http://www.garmin.com/xmlschemas/AccelerationExtension/v1 http://www.garmin.com/xmlschemas/AccelerationExtensionv1.xsd http://www.garmin.com/xmlschemas/PowerExtension/v1 http://www.garmin.com/xmlschemas/PowerExtensionv1.xsd http://www.garmin.com/xmlschemas/VideoExtension/v1 http://www.garmin.com/xmlschemas/VideoExtensionv1.xsd" xmlns="http://www.topografix.com/GPX/1/1" xmlns:xsi="http://www.w3.org/2001/XMLSchema-instance" xmlns:wptx1="http://www.garmin.com/xmlschemas/WaypointExtension/v1" xmlns:gpxtrx="http://www.garmin.com/xmlschemas/GpxExtensions/v3" xmlns:gpxtpx="http://www.garmin.com/xmlschemas/TrackPointExtension/v1" xmlns:gpxx="http://www.garmin.com/xmlschemas/GpxExtensions/v3" xmlns:trp="http://www.garmin.com/xmlschemas/TripExtensions/v1" xmlns:adv="http://www.garmin.com/xmlschemas/AdventuresExtensions/v1" xmlns:prs="http://www.garmin.com/xmlschemas/PressureExtension/v1" xmlns:tmd="http://www.garmin.com/xmlschemas/TripMetaDataExtensions/v1" xmlns:vptm="http://www.garmin.com/xmlschemas/ViaPointTransportationModeExtensions/v1" xmlns:ctx="http://www.garmin.com/xmlschemas/CreationTimeExtension/v1" xmlns:gpxacc="http://www.garmin.com/xmlschemas/AccelerationExtension/v1" xmlns:gpxpx="http://www.garmin.com/xmlschemas/PowerExtension/v1" xmlns:vidx1="http://www.garmin.com/xmlschemas/VideoExtension/v1">

  <metadata>
    <link href="http://www.garmin.com">
      <text>Garmin International</text>
    </link>
    <time>2017-06-21T20:24:17Z</time>
    <bounds maxlat="64.827800989151001" maxlon="11.622570985928178" minlat="62.839121958240867" minlon="6.91419898532331" />
  </metadata>

  <trk>
    <name>Track vom: 21 JUN 2017 08:01</name>
    <extensions>
      <gpxx:TrackExtension>
        <gpxx:DisplayColor>DarkGray</gpxx:DisplayColor>
      </gpxx:TrackExtension>
    </extensions>
    <trkseg>
      <trkpt lat="62.860965030267835" lon="7.170564020052552">
        <ele>133.28</ele>
        <time>2017-06-21T06:01:35Z</time>
      </trkpt>
      <trkpt lat="62.860986990854144" lon="7.170514985918999">
        <ele>125.59</ele>
        <time>2017-06-21T06:02:02Z</time>
      </trkpt>
      <trkpt lat="62.86097701638937" lon="7.170883035287261">
        <ele>125.11</ele>
        <time>2017-06-21T06:02:07Z</time>
      </trkpt>
      <trkpt lat="62.860985985025764" lon="7.170996023342013">
        <ele>125.11</ele>
        <time>2017-06-21T06:02:08Z</time>
      </trkpt>
      <trkpt lat="62.861111965030432" lon="7.17277399264276">
        <ele>118.86</ele>
        <time>2017-06-21T06:02:20Z</time>
      </trkpt>
      <trkpt lat="62.861080029979348" lon="7.174925040453672">
        <ele>110.69</ele>
        <time>2017-06-21T06:02:34Z</time>
      </trkpt>
      <trkpt lat="62.861024960875511" lon="7.175556030124426">
        <ele>109.25</ele>
        <time>2017-06-21T06:02:44Z</time>
      </trkpt>
      <trkpt lat="62.860965030267835" lon="7.17575803399086">
        <ele>108.29000000000001</ele>
        <time>2017-06-21T06:02:59Z</time>
      </trkpt>
      <trkpt lat="62.860954971984029" lon="7.175751999020577">
        <ele>107.31999999999999</ele>
        <time>2017-06-21T06:03:22Z</time>
      </trkpt>
      <trkpt lat="62.860907027497888" lon="7.175788963213563">
        <ele>106.84</ele>
        <time>2017-06-21T06:03:25Z</time>
      </trkpt>
      <trkpt lat="62.860853970050812" lon="7.175786029547453">
        <ele>106.36</ele>
        <time>2017-06-21T06:03:26Z</time>
      </trkpt>
      <trkpt lat="62.860795967280865" lon="7.17573800124228">
        <ele>105.40000000000001</ele>
        <time>2017-06-21T06:03:27Z</time>
      </trkpt>
      <trkpt lat="62.860737964510918" lon="7.175670024007559">
        <ele>104.44</ele>
        <time>2017-06-21T06:03:28Z</time>
      </trkpt>
      <trkpt lat="62.860678033903241" lon="7.175597017630935">
        <ele>103.95999999999999</ele>
        <time>2017-06-21T06:03:29Z</time>
      </trkpt>
      <trkpt lat="62.860396988689899" lon="7.175310021266341">
        <ele>98.670000000000002</ele>
        <time>2017-06-21T06:03:33Z</time>
      </trkpt>
      <trkpt lat="62.859383029863238" lon="7.174580041319132">
        <ele>86.659999999999997</ele>
        <time>2017-06-21T06:03:46Z</time>
      </trkpt>
      <trkpt lat="62.859078012406826" lon="7.174360016360879">
        <ele>84.25</ele>
        <time>2017-06-21T06:03:50Z</time>
      </trkpt>
      <trkpt lat="62.858433024957776" lon="7.17318001203239">
        <ele>82.329999999999998</ele>
        <time>2017-06-21T06:03:59Z</time>
      </trkpt>
      <trkpt lat="62.857585027813911" lon="7.170146014541388">
        <ele>79.930000000000007</ele>
        <time>2017-06-21T06:04:17Z</time>
      </trkpt>
      <trkpt lat="62.857198035344481" lon="7.169086961075664">
        <ele>74.640000000000001</ele>
        <time>2017-06-21T06:04:25Z</time>
      </trkpt>
      <trkpt lat="62.85713198594749" lon="7.169004986062646">
        <ele>73.680000000000007</ele>
        <time>2017-06-21T06:04:26Z</time>
      </trkpt>
      <trkpt lat="62.857056967914104" lon="7.168931979686022">
        <ele>72.719999999999999</ele>
        <time>2017-06-21T06:04:27Z</time>
      </trkpt>
      <trkpt lat="62.856979016214609" lon="7.168864002451301">
        <ele>71.760000000000005</ele>
        <time>2017-06-21T06:04:28Z</time>
      </trkpt>
      <trkpt lat="62.85689796321094" lon="7.168811028823257">
        <ele>70.790000000000006</ele>
        <time>2017-06-21T06:04:29Z</time>
      </trkpt>
      <trkpt lat="62.855171961709857" lon="7.167653990909457">
        <ele>54.450000000000003</ele>
        <time>2017-06-21T06:04:49Z</time>
      </trkpt>
      <trkpt lat="62.854090025648475" lon="7.166948989033699">
        <ele>43.880000000000003</ele>
        <time>2017-06-21T06:05:03Z</time>
      </trkpt>
      <trkpt lat="62.854006038978696" lon="7.166915964335203">
        <ele>43.399999999999999</ele>
        <time>2017-06-21T06:05:05Z</time>
      </trkpt>
      <trkpt lat="62.853962033987045" lon="7.166876988485456">
        <ele>43.399999999999999</ele>
        <time>2017-06-21T06:05:06Z</time>
      </trkpt>
      <trkpt lat="62.853925991803408" lon="7.16680197045207">
        <ele>43.399999999999999</ele>
        <time>2017-06-21T06:05:07Z</time>
      </trkpt>
      <trkpt lat="62.853902019560337" lon="7.166699962690473">
        <ele>43.399999999999999</ele>
        <time>2017-06-21T06:05:08Z</time>
      </trkpt>
      <trkpt lat="62.853891039267182" lon="7.166577000170946">
        <ele>43.399999999999999</ele>
        <time>2017-06-21T06:05:09Z</time>
      </trkpt>
      <trkpt lat="62.853879975154996" lon="7.166440961882472">
        <ele>43.399999999999999</ele>
        <time>2017-06-21T06:05:10Z</time>
      </trkpt>
      <trkpt lat="62.853738991543651" lon="7.163982968777418">
        <ele>42.920000000000002</ele>
        <time>2017-06-21T06:05:23Z</time>
      </trkpt>
      <trkpt lat="62.853562971577048" lon="7.160194013267756">
        <ele>43.399999999999999</ele>
        <time>2017-06-21T06:05:39Z</time>
      </trkpt>
      <trkpt lat="62.853383012115955" lon="7.155905999243259">
        <ele>42.920000000000002</ele>
        <time>2017-06-21T06:05:59Z</time>
      </trkpt>
      <trkpt lat="62.853390974923968" lon="7.155075017362833">
        <ele>42.920000000000002</ele>
        <time>2017-06-21T06:06:04Z</time>
      </trkpt>
      <trkpt lat="62.853381000459194" lon="7.154902014881373">
        <ele>43.399999999999999</ele>
        <time>2017-06-21T06:06:05Z</time>
      </trkpt>
      <trkpt lat="62.853374965488911" lon="7.152539994567633">
        <ele>42.920000000000002</ele>
        <time>2017-06-21T06:06:16Z</time>
      </trkpt>
      <trkpt lat="62.853700015693903" lon="7.147067030891776">
        <ele>40.990000000000002</ele>
        <time>2017-06-21T06:06:38Z</time>
      </trkpt>
      <trkpt lat="62.853888021782041" lon="7.141840998083353">
        <ele>40.030000000000001</ele>
        <time>2017-06-21T06:06:59Z</time>
      </trkpt>
      <trkpt lat="62.854250036180019" lon="7.137516019865871">
        <ele>41.950000000000003</ele>
        <time>2017-06-21T06:07:17Z</time>
      </trkpt>
      <trkpt lat="62.854146016761661" lon="7.134949984028935">
        <ele>40.509999999999998</ele>
        <time>2017-06-21T06:07:28Z</time>
      </trkpt>
      <trkpt lat="62.853810992091894" lon="7.133301012217999">
        <ele>40.990000000000002</ele>
        <time>2017-06-21T06:07:37Z</time>
      </trkpt>
      <trkpt lat="62.853742009028792" lon="7.133159022778273">
        <ele>40.990000000000002</ele>
        <time>2017-06-21T06:07:40Z</time>
      </trkpt>
      <trkpt lat="62.853704961016774" lon="7.133160028606653">
        <ele>40.990000000000002</ele>
        <time>2017-06-21T06:07:41Z</time>
      </trkpt>
      <trkpt lat="62.853667996823788" lon="7.13317503221333">
        <ele>40.509999999999998</ele>
        <time>2017-06-21T06:07:42Z</time>
      </trkpt>
      <trkpt lat="62.853630026802421" lon="7.133200010284782">
        <ele>39.549999999999997</ele>
        <time>2017-06-21T06:07:43Z</time>
      </trkpt>
      <trkpt lat="62.853591972962022" lon="7.133235968649387">
        <ele>39.07</ele>
        <time>2017-06-21T06:07:44Z</time>
      </trkpt>
      <trkpt lat="62.853559032082558" lon="7.133277961984277">
        <ele>38.590000000000003</ele>
        <time>2017-06-21T06:07:45Z</time>
      </trkpt>
      <trkpt lat="62.853330038487911" lon="7.133634025231004">
        <ele>36.189999999999998</ele>
        <time>2017-06-21T06:07:54Z</time>
      </trkpt>
      <trkpt lat="62.853372031822801" lon="7.133795041590929">
        <ele>35.710000000000001</ele>
        <time>2017-06-21T06:07:58Z</time>
      </trkpt>
      <trkpt lat="62.853429028764367" lon="7.133612986654043">
        <ele>36.189999999999998</ele>
        <time>2017-06-21T06:08:01Z</time>
      </trkpt>
    </trkseg>
  </trk>

  <trk>
    <name>Track vom: 21 JUN 2017 08:08</name>
    <extensions>
      <gpxx:TrackExtension>
        <gpxx:DisplayColor>DarkGray</gpxx:DisplayColor>
      </gpxx:TrackExtension>
    </extensions>
    <trkseg>
      <trkpt lat="62.853458030149341" lon="7.13351902551949">
        <ele>37.149999999999999</ele>
        <time>2017-06-21T06:08:02Z</time>
      </trkpt>
      <trkpt lat="62.853499017655849" lon="7.13343596085906">
        <ele>39.07</ele>
        <time>2017-06-21T06:08:03Z</time>
      </trkpt>
      <trkpt lat="62.853549979627132" lon="7.133379969745874">
        <ele>39.549999999999997</ele>
        <time>2017-06-21T06:08:04Z</time>
      </trkpt>
      <trkpt lat="62.853730022907257" lon="7.133242003619671">
        <ele>41.469999999999999</ele>
        <time>2017-06-21T06:08:12Z</time>
      </trkpt>
      <trkpt lat="62.853733040392399" lon="7.133235968649387">
        <ele>41.469999999999999</ele>
        <time>2017-06-21T06:08:19Z</time>
      </trkpt>
      <trkpt lat="62.853738991543651" lon="7.133193975314498">
        <ele>41.469999999999999</ele>
        <time>2017-06-21T06:08:20Z</time>
      </trkpt>
      <trkpt lat="62.853742009028792" lon="7.1331109944731">
        <ele>41.950000000000003</ele>
        <time>2017-06-21T06:08:21Z</time>
      </trkpt>
      <trkpt lat="62.853729017078876" lon="7.132989959791303">
        <ele>42.439999999999998</ele>
        <time>2017-06-21T06:08:22Z</time>
      </trkpt>
      <trkpt lat="62.853699009865522" lon="7.132845036685467">
        <ele>42.439999999999998</ele>
        <time>2017-06-21T06:08:23Z</time>
      </trkpt>
      <trkpt lat="62.853661961853504" lon="7.132683014497161">
        <ele>42.439999999999998</ele>
        <time>2017-06-21T06:08:24Z</time>
      </trkpt>
      <trkpt lat="62.853186037391424" lon="7.130544036626816">
        <ele>41.950000000000003</ele>
        <time>2017-06-21T06:08:34Z</time>
      </trkpt>
      <trkpt lat="62.852718997746706" lon="7.127909017726779">
        <ele>40.509999999999998</ele>
        <time>2017-06-21T06:08:45Z</time>
      </trkpt>
      <trkpt lat="62.852280037477612" lon="7.124654995277524">
        <ele>40.990000000000002</ele>
        <time>2017-06-21T06:08:58Z</time>
      </trkpt>
      <trkpt lat="62.852091025561094" lon="7.121689980849624">
        <ele>45.799999999999997</ele>
        <time>2017-06-21T06:09:09Z</time>
      </trkpt>
      <trkpt lat="62.852004021406174" lon="7.120982967317104">
        <ele>46.759999999999998</ele>
        <time>2017-06-21T06:09:15Z</time>
      </trkpt>
      <trkpt lat="62.851887010037899" lon="7.120768977329135">
        <ele>47.719999999999999</ele>
        <time>2017-06-21T06:09:23Z</time>
      </trkpt>
    </trkseg>
  </trk>

  <trk>
    <name>Track vom: 21 JUN 2017 08:21</name>
    <extensions>
      <gpxx:TrackExtension>
        <gpxx:DisplayColor>DarkGray</gpxx:DisplayColor>
      </gpxx:TrackExtension>
    </extensions>
    <trkseg>
      <trkpt lat="62.852038973942399" lon="7.12084298953414">
        <ele>84.730000000000004</ele>
        <time>2017-06-21T06:21:14Z</time>
      </trkpt>
      <trkpt lat="62.852036962285638" lon="7.120848018676043">
        <ele>84.25</ele>
        <time>2017-06-21T06:22:39Z</time>
      </trkpt>
      <trkpt lat="62.852038973942399" lon="7.120847012847662">
        <ele>84.730000000000004</ele>
        <time>2017-06-21T06:24:23Z</time>
      </trkpt>
      <trkpt lat="62.85203997977078" lon="7.120858998969197">
        <ele>83.769999999999996</ele>
        <time>2017-06-21T06:25:06Z</time>
      </trkpt>
      <trkpt lat="62.852035034447908" lon="7.120926976203919">
        <ele>82.810000000000002</ele>
        <time>2017-06-21T06:25:09Z</time>
      </trkpt>
      <trkpt lat="62.852111980319023" lon="7.121347999200225">
        <ele>79.930000000000007</ele>
        <time>2017-06-21T06:25:18Z</time>
      </trkpt>
      <trkpt lat="62.85212597809732" lon="7.12148898281157">
        <ele>78.969999999999999</ele>
        <time>2017-06-21T06:25:19Z</time>
      </trkpt>
      <trkpt lat="62.852134024724364" lon="7.121647987514734">
        <ele>77.040000000000006</ele>
        <time>2017-06-21T06:25:20Z</time>
      </trkpt>
      <trkpt lat="62.852236032485962" lon="7.123912023380399">
        <ele>64.549999999999997</ele>
        <time>2017-06-21T06:25:30Z</time>
      </trkpt>
      <trkpt lat="62.852517999708652" lon="7.126947026699781">
        <ele>57.340000000000003</ele>
        <time>2017-06-21T06:25:42Z</time>
      </trkpt>
      <trkpt lat="62.853344036266208" lon="7.131512984633446">
        <ele>51.090000000000003</ele>
        <time>2017-06-21T06:26:01Z</time>
      </trkpt>
      <trkpt lat="62.854067981243134" lon="7.134674973785877">
        <ele>47.240000000000002</ele>
        <time>2017-06-21T06:26:16Z</time>
      </trkpt>
      <trkpt lat="62.854216005653143" lon="7.136714039370418">
        <ele>45.799999999999997</ele>
        <time>2017-06-21T06:26:25Z</time>
      </trkpt>
      <trkpt lat="62.854176023975015" lon="7.137528005987406">
        <ele>45.799999999999997</ele>
        <time>2017-06-21T06:26:33Z</time>
      </trkpt>
      <trkpt lat="62.854182980954647" lon="7.137549966573715">
        <ele>45.799999999999997</ele>
        <time>2017-06-21T06:26:44Z</time>
      </trkpt>
      <trkpt lat="62.854196978732944" lon="7.137532029300928">
        <ele>45.799999999999997</ele>
        <time>2017-06-21T06:26:49Z</time>
      </trkpt>
      <trkpt lat="62.854218017309904" lon="7.137478971853852">
        <ele>46.280000000000001</ele>
        <time>2017-06-21T06:26:50Z</time>
      </trkpt>
      <trkpt lat="62.854235032573342" lon="7.137381993234158">
        <ele>46.280000000000001</ele>
        <time>2017-06-21T06:26:51Z</time>
      </trkpt>
      <trkpt lat="62.854242995381355" lon="7.137246038764715">
        <ele>46.280000000000001</ele>
        <time>2017-06-21T06:26:52Z</time>
      </trkpt>
      <trkpt lat="62.854248024523258" lon="7.137079993262887">
        <ele>46.759999999999998</ele>
        <time>2017-06-21T06:26:53Z</time>
      </trkpt>
      <trkpt lat="62.854179963469505" lon="7.135180989280343">
        <ele>45.799999999999997</ele>
        <time>2017-06-21T06:27:01Z</time>
      </trkpt>
      <trkpt lat="62.853681994602084" lon="7.132722996175289">
        <ele>44.840000000000003</ele>
        <time>2017-06-21T06:27:11Z</time>
      </trkpt>
      <trkpt lat="62.852865010499954" lon="7.128849970176816">
        <ele>41.950000000000003</ele>
        <time>2017-06-21T06:27:24Z</time>
      </trkpt>
      <trkpt lat="62.852215999737382" lon="7.123963991180062">
        <ele>41.950000000000003</ele>
        <time>2017-06-21T06:27:39Z</time>
      </trkpt>
      <trkpt lat="62.851879969239235" lon="7.11983498185873">
        <ele>47.719999999999999</ele>
        <time>2017-06-21T06:27:51Z</time>
      </trkpt>
      <trkpt lat="62.851302959024906" lon="7.11491396650672">
        <ele>45.32</ele>
        <time>2017-06-21T06:28:05Z</time>
      </trkpt>
      <trkpt lat="62.850599968805909" lon="7.110409028828144">
        <ele>39.549999999999997</ele>
        <time>2017-06-21T06:28:17Z</time>
      </trkpt>
      <trkpt lat="62.849349975585937" lon="7.103488007560372">
        <ele>38.590000000000003</ele>
        <time>2017-06-21T06:28:36Z</time>
      </trkpt>
      <trkpt lat="62.848139964044094" lon="7.097998028621078">
        <ele>40.030000000000001</ele>
        <time>2017-06-21T06:28:53Z</time>
      </trkpt>
      <trkpt lat="62.847663033753633" lon="7.093993993476033">
        <ele>43.880000000000003</ele>
        <time>2017-06-21T06:29:05Z</time>
      </trkpt>
      <trkpt lat="62.846944034099579" lon="7.08657500334084">
        <ele>41.469999999999999</ele>
        <time>2017-06-21T06:29:25Z</time>
      </trkpt>
      <trkpt lat="62.846352020278573" lon="7.083000037819147">
        <ele>39.07</ele>
        <time>2017-06-21T06:29:35Z</time>
      </trkpt>
      <trkpt lat="62.845193976536393" lon="7.079480979591608">
        <ele>44.840000000000003</ele>
        <time>2017-06-21T06:29:47Z</time>
      </trkpt>
      <trkpt lat="62.843407038599253" lon="7.074228962883353">
        <ele>40.990000000000002</ele>
        <time>2017-06-21T06:30:04Z</time>
      </trkpt>
      <trkpt lat="62.842274978756905" lon="7.070886008441448">
        <ele>43.880000000000003</ele>
        <time>2017-06-21T06:30:15Z</time>
      </trkpt>
      <trkpt lat="62.841196982190013" lon="7.066983981058002">
        <ele>47.240000000000002</ele>
        <time>2017-06-21T06:30:27Z</time>
      </trkpt>
      <trkpt lat="62.840522993355989" lon="7.060182988643646">
        <ele>42.439999999999998</ele>
        <time>2017-06-21T06:30:45Z</time>
      </trkpt>
      <trkpt lat="62.83975001424551" lon="7.05223903991282">
        <ele>40.509999999999998</ele>
        <time>2017-06-21T06:31:06Z</time>
      </trkpt>
      <trkpt lat="62.839121958240867" lon="7.045892011374235">
        <ele>30.899999999999999</ele>
        <time>2017-06-21T06:31:22Z</time>
      </trkpt>
      <trkpt lat="62.83914802595973" lon="7.044357033446431">
        <ele>28.5</ele>
        <time>2017-06-21T06:31:26Z</time>
      </trkpt>
      <trkpt lat="62.839192030951381" lon="7.043974986299872">
        <ele>28.5</ele>
        <time>2017-06-21T06:31:27Z</time>
      </trkpt>
      <trkpt lat="62.839248022064567" lon="7.043598974123597">
        <ele>27.530000000000001</ele>
        <time>2017-06-21T06:31:28Z</time>
      </trkpt>
      <trkpt lat="62.839318010956049" lon="7.043224973604083">
        <ele>26.57</ele>
        <time>2017-06-21T06:31:29Z</time>
      </trkpt>
      <trkpt lat="62.839396968483925" lon="7.042861031368375">
        <ele>25.129999999999999</ele>
        <time>2017-06-21T06:31:30Z</time>
      </trkpt>
      <trkpt lat="62.840430038049817" lon="7.038528006523848">
        <ele>11.67</ele>
        <time>2017-06-21T06:31:43Z</time>
      </trkpt>
      <trkpt lat="62.841496970504522" lon="7.034488013014197">
        <ele>6.39</ele>
        <time>2017-06-21T06:31:57Z</time>
      </trkpt>
      <trkpt lat="62.842117985710502" lon="7.032407959923148">
        <ele>11.67</ele>
        <time>2017-06-21T06:32:06Z</time>
      </trkpt>
      <trkpt lat="62.843389017507434" lon="7.028578016906977">
        <ele>15.52</ele>
        <time>2017-06-21T06:32:24Z</time>
      </trkpt>
      <trkpt lat="62.844558963552117" lon="7.026862995699048">
        <ele>21.77</ele>
        <time>2017-06-21T06:32:35Z</time>
      </trkpt>
      <trkpt lat="62.846083967015147" lon="7.025058958679438">
        <ele>18.399999999999999</ele>
        <time>2017-06-21T06:32:47Z</time>
      </trkpt>
      <trkpt lat="62.848814036697149" lon="7.021970981732011">
        <ele>14.08</ele>
        <time>2017-06-21T06:33:06Z</time>
      </trkpt>
      <trkpt lat="62.851134985685349" lon="7.019352978095412">
        <ele>8.310000000000001</ele>
        <time>2017-06-21T06:33:21Z</time>
      </trkpt>
      <trkpt lat="62.853509997949004" lon="7.016631960868835">
        <ele>15.52</ele>
        <time>2017-06-21T06:33:35Z</time>
      </trkpt>
      <trkpt lat="62.855824995785952" lon="7.014444032683969">
        <ele>21.289999999999999</ele>
        <time>2017-06-21T06:33:48Z</time>
      </trkpt>
      <trkpt lat="62.857412025332451" lon="7.01414898969233">
        <ele>24.170000000000002</ele>
        <time>2017-06-21T06:33:56Z</time>
      </trkpt>
      <trkpt lat="62.860756991431117" lon="7.014090986922383">
        <ele>22.73</ele>
        <time>2017-06-21T06:34:13Z</time>
      </trkpt>
      <trkpt lat="62.863775985315442" lon="7.014054022729397">
        <ele>31.379999999999999</ele>
        <time>2017-06-21T06:34:29Z</time>
      </trkpt>
      <trkpt lat="62.866981979459524" lon="7.014003982767463">
        <ele>41.469999999999999</ele>
        <time>2017-06-21T06:34:46Z</time>
      </trkpt>
      <trkpt lat="62.870142962783575" lon="7.013836009427905">
        <ele>40.990000000000002</ele>
        <time>2017-06-21T06:35:03Z</time>
      </trkpt>
      <trkpt lat="62.871678024530411" lon="7.012788020074368">
        <ele>36.670000000000002</ele>
        <time>2017-06-21T06:35:11Z</time>
      </trkpt>
      <trkpt lat="62.872950984165072" lon="7.010745014995337">
        <ele>28.02</ele>
        <time>2017-06-21T06:35:19Z</time>
      </trkpt>
      <trkpt lat="62.874773964285851" lon="7.007047003135085">
        <ele>21.77</ele>
        <time>2017-06-21T06:35:32Z</time>
      </trkpt>
      <trkpt lat="62.87567401304841" lon="7.003740007057786">
        <ele>13.6</ele>
        <time>2017-06-21T06:35:41Z</time>
      </trkpt>
      <trkpt lat="62.876249011605978" lon="6.999861029908061">
        <ele>13.6</ele>
        <time>2017-06-21T06:35:51Z</time>
      </trkpt>
      <trkpt lat="62.87642695941031" lon="6.995333964005113">
        <ele>9.75</ele>
        <time>2017-06-21T06:36:02Z</time>
      </trkpt>
      <trkpt lat="62.876584958285093" lon="6.98718499392271">
        <ele>17.920000000000002</ele>
        <time>2017-06-21T06:36:22Z</time>
      </trkpt>
      <trkpt lat="62.876939009875059" lon="6.983410036191344">
        <ele>18.879999999999999</ele>
        <time>2017-06-21T06:36:31Z</time>
      </trkpt>
      <trkpt lat="62.878106022253633" lon="6.978130023926497">
        <ele>11.67</ele>
        <time>2017-06-21T06:36:44Z</time>
      </trkpt>
      <trkpt lat="62.879216037690639" lon="6.974267978221178">
        <ele>12.630000000000001</ele>
        <time>2017-06-21T06:36:55Z</time>
      </trkpt>
      <trkpt lat="62.879371019080281" lon="6.974021969363093">
        <ele>12.15</ele>
        <time>2017-06-21T06:36:56Z</time>
      </trkpt>
      <trkpt lat="62.879534969106317" lon="6.973792975768447">
        <ele>11.67</ele>
        <time>2017-06-21T06:36:57Z</time>
      </trkpt>
      <trkpt lat="62.881535980850458" lon="6.971869999542832">
        <ele>10.23</ele>
        <time>2017-06-21T06:37:08Z</time>
      </trkpt>
      <trkpt lat="62.88306500762701" lon="6.971282009035349">
        <ele>7.83</ele>
        <time>2017-06-21T06:37:16Z</time>
      </trkpt>
      <trkpt lat="62.884411979466677" lon="6.971882991492748">
        <ele>7.35</ele>
        <time>2017-06-21T06:37:23Z</time>
      </trkpt>
      <trkpt lat="62.885548984631896" lon="6.973539004102349">
        <ele>7.35</ele>
        <time>2017-06-21T06:37:30Z</time>
      </trkpt>
      <trkpt lat="62.887186976149678" lon="6.977469027042389">
        <ele>8.310000000000001</ele>
        <time>2017-06-21T06:37:42Z</time>
      </trkpt>
      <trkpt lat="62.888722037896514" lon="6.980446027591825">
        <ele>5.91</ele>
        <time>2017-06-21T06:37:52Z</time>
      </trkpt>
      <trkpt lat="62.890818016603589" lon="6.983367037028074">
        <ele>5.91</ele>
        <time>2017-06-21T06:38:05Z</time>
      </trkpt>
      <trkpt lat="62.890986995771527" lon="6.983481030911207">
        <ele>5.91</ele>
        <time>2017-06-21T06:38:06Z</time>
      </trkpt>
      <trkpt lat="62.891158992424607" lon="6.983550013974309">
        <ele>6.39</ele>
        <time>2017-06-21T06:38:07Z</time>
      </trkpt>
      <trkpt lat="62.891331994906068" lon="6.983579015359283">
        <ele>5.91</ele>
        <time>2017-06-21T06:38:08Z</time>
      </trkpt>
      <trkpt lat="62.891503991559148" lon="6.983575997874141">
        <ele>6.39</ele>
        <time>2017-06-21T06:38:09Z</time>
      </trkpt>
      <trkpt lat="62.891671964898705" lon="6.983544984832406">
        <ele>6.39</ele>
        <time>2017-06-21T06:38:10Z</time>
      </trkpt>
      <trkpt lat="62.89182904176414" lon="6.983476001769304">
        <ele>6.39</ele>
        <time>2017-06-21T06:38:11Z</time>
      </trkpt>
      <trkpt lat="62.891977988183498" lon="6.98338002897799">
        <ele>6.87</ele>
        <time>2017-06-21T06:38:12Z</time>
      </trkpt>
      <trkpt lat="62.892117965966463" lon="6.983255976811051">
        <ele>6.87</ele>
        <time>2017-06-21T06:38:13Z</time>
      </trkpt>
      <trkpt lat="62.892248975113034" lon="6.983119016513228">
        <ele>7.35</ele>
        <time>2017-06-21T06:38:14Z</time>
      </trkpt>
      <trkpt lat="62.892373027279973" lon="6.982959005981684">
        <ele>7.35</ele>
        <time>2017-06-21T06:38:15Z</time>
      </trkpt>
      <trkpt lat="62.892490038648248" lon="6.98277804069221">
        <ele>7.35</ele>
        <time>2017-06-21T06:38:16Z</time>
      </trkpt>
      <trkpt lat="62.892601015046239" lon="6.982582993805409">
        <ele>7.83</ele>
        <time>2017-06-21T06:38:17Z</time>
      </trkpt>
      <trkpt lat="62.892707968130708" lon="6.982363974675536">
        <ele>7.83</ele>
        <time>2017-06-21T06:38:18Z</time>
      </trkpt>
      <trkpt lat="62.892806958407164" lon="6.982126012444496">
        <ele>7.83</ele>
        <time>2017-06-21T06:38:19Z</time>
      </trkpt>
      <trkpt lat="62.892897985875607" lon="6.981868017464876">
        <ele>7.83</ele>
        <time>2017-06-21T06:38:20Z</time>
      </trkpt>
      <trkpt lat="62.892983984202147" lon="6.98159895837307">
        <ele>7.83</ele>
        <time>2017-06-21T06:38:21Z</time>
      </trkpt>
      <trkpt lat="62.893063025549054" lon="6.981321014463902">
        <ele>7.83</ele>
        <time>2017-06-21T06:38:22Z</time>
      </trkpt>
      <trkpt lat="62.89400196634233" lon="6.978788003325462">
        <ele>3.5</ele>
        <time>2017-06-21T06:38:32Z</time>
      </trkpt>
      <trkpt lat="62.894139010459185" lon="6.978623969480395">
        <ele>3.5</ele>
        <time>2017-06-21T06:38:33Z</time>
      </trkpt>
      <trkpt lat="62.894284017384052" lon="6.978481980040669">
        <ele>3.5</ele>
        <time>2017-06-21T06:38:34Z</time>
      </trkpt>
      <trkpt lat="62.894432041794062" lon="6.978368991985917">
        <ele>3.5</ele>
        <time>2017-06-21T06:38:35Z</time>
      </trkpt>
      <trkpt lat="62.894590040668845" lon="6.978261033073068">
        <ele>5.42</ele>
        <time>2017-06-21T06:38:36Z</time>
      </trkpt>
      <trkpt lat="62.894738987088203" lon="6.978196995332837">
        <ele>4.46</ele>
        <time>2017-06-21T06:38:37Z</time>
      </trkpt>
      <trkpt lat="62.894893968477845" lon="6.978150978684425">
        <ele>4.46</ele>
        <time>2017-06-21T06:38:38Z</time>
      </trkpt>
      <trkpt lat="62.896870002150536" lon="6.977188987657428">
        <ele>3.98</ele>
        <time>2017-06-21T06:38:51Z</time>
      </trkpt>
      <trkpt lat="62.89788999594748" lon="6.975553007796407">
        <ele>4.46</ele>
        <time>2017-06-21T06:38:58Z</time>
      </trkpt>
      <trkpt lat="62.898887023329735" lon="6.973032988607884">
        <ele>6.39</ele>
        <time>2017-06-21T06:39:08Z</time>
      </trkpt>
      <trkpt lat="62.900433987379074" lon="6.96892099454999">
        <ele>5.42</ele>
        <time>2017-06-21T06:39:24Z</time>
      </trkpt>
      <trkpt lat="62.901013009250164" lon="6.966041978448629">
        <ele>4.46</ele>
        <time>2017-06-21T06:39:33Z</time>
      </trkpt>
      <trkpt lat="62.901614997535944" lon="6.963176960125566">
        <ele>6.87</ele>
        <time>2017-06-21T06:39:43Z</time>
      </trkpt>
      <trkpt lat="62.902555027976632" lon="6.959951017051935">
        <ele>10.23</ele>
        <time>2017-06-21T06:39:54Z</time>
      </trkpt>
      <trkpt lat="62.902696011587977" lon="6.95764197036624">
        <ele>14.56</ele>
        <time>2017-06-21T06:40:00Z</time>
      </trkpt>
      <trkpt lat="62.902399962767959" lon="6.954415021464229">
        <ele>22.25</ele>
        <time>2017-06-21T06:40:09Z</time>
      </trkpt>
      <trkpt lat="62.902441034093499" lon="6.952175963670015">
        <ele>24.649999999999999</ele>
        <time>2017-06-21T06:40:15Z</time>
      </trkpt>
      <trkpt lat="62.902491996064782" lon="6.951814033091068">
        <ele>24.649999999999999</ele>
        <time>2017-06-21T06:40:16Z</time>
      </trkpt>
      <trkpt lat="62.902553016319871" lon="6.951456964015961">
        <ele>25.129999999999999</ele>
        <time>2017-06-21T06:40:17Z</time>
      </trkpt>
      <trkpt lat="62.903328007087111" lon="6.948484992608428">
        <ele>20.809999999999999</ele>
        <time>2017-06-21T06:40:26Z</time>
      </trkpt>
      <trkpt lat="62.903802003711462" lon="6.945896996185184">
        <ele>15.52</ele>
        <time>2017-06-21T06:40:32Z</time>
      </trkpt>
      <trkpt lat="62.904276000335813" lon="6.941329026594758">
        <ele>13.6</ele>
        <time>2017-06-21T06:40:42Z</time>
      </trkpt>
      <trkpt lat="62.904449002817273" lon="6.937619028612971">
        <ele>14.08</ele>
        <time>2017-06-21T06:40:51Z</time>
      </trkpt>
      <trkpt lat="62.904501976445317" lon="6.932645039632917">
        <ele>12.15</ele>
        <time>2017-06-21T06:41:03Z</time>
      </trkpt>
      <trkpt lat="62.904906990006566" lon="6.927552027627826">
        <ele>11.19</ele>
        <time>2017-06-21T06:41:16Z</time>
      </trkpt>
      <trkpt lat="62.905307980254292" lon="6.924021989107132">
        <ele>9.27</ele>
        <time>2017-06-21T06:41:27Z</time>
      </trkpt>
      <trkpt lat="62.905634958297014" lon="6.921187983825803">
        <ele>7.35</ele>
        <time>2017-06-21T06:41:38Z</time>
      </trkpt>
      <trkpt lat="62.905650967732072" lon="6.920935017988086">
        <ele>7.83</ele>
        <time>2017-06-21T06:41:40Z</time>
      </trkpt>
      <trkpt lat="62.905631018802524" lon="6.920833010226488">
        <ele>7.83</ele>
        <time>2017-06-21T06:41:41Z</time>
      </trkpt>
      <trkpt lat="62.90560101158917" lon="6.920745000243187">
        <ele>7.35</ele>
        <time>2017-06-21T06:41:42Z</time>
      </trkpt>
      <trkpt lat="62.905574021860957" lon="6.920657996088266">
        <ele>6.87</ele>
        <time>2017-06-21T06:41:43Z</time>
      </trkpt>
      <trkpt lat="62.905563963577151" lon="6.920550037175417">
        <ele>6.87</ele>
        <time>2017-06-21T06:41:44Z</time>
      </trkpt>
      <trkpt lat="62.905569998547435" lon="6.920424979180098">
        <ele>6.39</ele>
        <time>2017-06-21T06:41:45Z</time>
      </trkpt>
      <trkpt lat="62.90558097884059" lon="6.920295981690288">
        <ele>6.39</ele>
        <time>2017-06-21T06:41:46Z</time>
      </trkpt>
      <trkpt lat="62.905590031296015" lon="6.920061958953738">
        <ele>6.39</ele>
        <time>2017-06-21T06:41:48Z</time>
      </trkpt>
      <trkpt lat="62.905609980225563" lon="6.919744033366442">
        <ele>6.87</ele>
        <time>2017-06-21T06:41:55Z</time>
      </trkpt>
      <trkpt lat="62.905622972175479" lon="6.919713020324707">
        <ele>7.35</ele>
        <time>2017-06-21T06:42:53Z</time>
      </trkpt>
      <trkpt lat="62.905612997710705" lon="6.919706985354424">
        <ele>6.87</ele>
        <time>2017-06-21T06:48:08Z</time>
      </trkpt>
      <trkpt lat="62.905604029074311" lon="6.919702040031552">
        <ele>8.789999999999999</ele>
        <time>2017-06-21T06:49:04Z</time>
      </trkpt>
      <trkpt lat="62.905603023245931" lon="6.919703967869282">
        <ele>8.789999999999999</ele>
        <time>2017-06-21T06:50:20Z</time>
      </trkpt>
      <trkpt lat="62.905698996037245" lon="6.919470028951764">
        <ele>8.310000000000001</ele>
        <time>2017-06-21T06:50:24Z</time>
      </trkpt>
      <trkpt lat="62.905740989372134" lon="6.919399034231901">
        <ele>7.83</ele>
        <time>2017-06-21T06:50:25Z</time>
      </trkpt>
      <trkpt lat="62.905784994363785" lon="6.919345976784825">
        <ele>7.83</ele>
        <time>2017-06-21T06:50:26Z</time>
      </trkpt>
      <trkpt lat="62.905823970213532" lon="6.919313035905361">
        <ele>7.83</ele>
        <time>2017-06-21T06:50:27Z</time>
      </trkpt>
      <trkpt lat="62.905853977426887" lon="6.919293003156781">
        <ele>7.83</ele>
        <time>2017-06-21T06:50:28Z</time>
      </trkpt>
      <trkpt lat="62.905923966318369" lon="6.919255033135414">
        <ele>8.310000000000001</ele>
        <time>2017-06-21T06:50:30Z</time>
      </trkpt>
      <trkpt lat="62.905998984351754" lon="6.91909896209836">
        <ele>8.789999999999999</ele>
        <time>2017-06-21T06:50:32Z</time>
      </trkpt>
      <trkpt lat="62.906356975436211" lon="6.917532971128821">
        <ele>9.75</ele>
        <time>2017-06-21T06:50:42Z</time>
      </trkpt>
      <trkpt lat="62.906650006771088" lon="6.916184993460774">
        <ele>7.83</ele>
        <time>2017-06-21T06:50:51Z</time>
      </trkpt>
      <trkpt lat="62.906959969550371" lon="6.91480197943747">
        <ele>4.46</ele>
        <time>2017-06-21T06:51:02Z</time>
      </trkpt>
      <trkpt lat="62.907100031152368" lon="6.914281966164708">
        <ele>4.94</ele>
        <time>2017-06-21T06:51:06Z</time>
      </trkpt>
      <trkpt lat="62.907141018658876" lon="6.91421901807189">
        <ele>4.94</ele>
        <time>2017-06-21T06:51:07Z</time>
      </trkpt>
      <trkpt lat="62.907189968973398" lon="6.91419898532331">
        <ele>4.94</ele>
        <time>2017-06-21T06:51:08Z</time>
      </trkpt>
      <trkpt lat="62.907230034470558" lon="6.914209965616465">
        <ele>4.94</ele>
        <time>2017-06-21T06:51:09Z</time>
      </trkpt>
      <trkpt lat="62.907269010320306" lon="6.914277020841837">
        <ele>4.94</ele>
        <time>2017-06-21T06:51:10Z</time>
      </trkpt>
      <trkpt lat="62.907303962856531" lon="6.914375005289912">
        <ele>5.91</ele>
        <time>2017-06-21T06:51:11Z</time>
      </trkpt>
      <trkpt lat="62.907329024747014" lon="6.914494028314948">
        <ele>6.39</ele>
        <time>2017-06-21T06:51:12Z</time>
      </trkpt>
      <trkpt lat="62.907349979504943" lon="6.914633000269532">
        <ele>6.87</ele>
        <time>2017-06-21T06:51:13Z</time>
      </trkpt>
      <trkpt lat="62.907368000596762" lon="6.914785970002413">
        <ele>7.35</ele>
        <time>2017-06-21T06:51:14Z</time>
      </trkpt>
      <trkpt lat="62.907747030258179" lon="6.916655972599983">
        <ele>9.27</ele>
        <time>2017-06-21T06:51:24Z</time>
      </trkpt>
      <trkpt lat="62.90861003100872" lon="6.91898999735713">
        <ele>11.19</ele>
        <time>2017-06-21T06:51:37Z</time>
      </trkpt>
      <trkpt lat="62.90977000258863" lon="6.921121012419462">
        <ele>10.710000000000001</ele>
        <time>2017-06-21T06:51:48Z</time>
      </trkpt>
      <trkpt lat="62.911856006830931" lon="6.924989009276032">
        <ele>14.08</ele>
        <time>2017-06-21T06:52:05Z</time>
      </trkpt>
      <trkpt lat="62.912984965369105" lon="6.927102003246546">
        <ele>15.039999999999999</ele>
        <time>2017-06-21T06:52:14Z</time>
      </trkpt>
      <trkpt lat="62.913426021113992" lon="6.927925022318959">
        <ele>14.56</ele>
        <time>2017-06-21T06:52:22Z</time>
      </trkpt>
      <trkpt lat="62.913664989173412" lon="6.928362976759672">
        <ele>14.56</ele>
        <time>2017-06-21T06:52:31Z</time>
      </trkpt>
      <trkpt lat="62.91421802714467" lon="6.929361009970307">
        <ele>11.67</ele>
        <time>2017-06-21T06:52:40Z</time>
      </trkpt>
      <trkpt lat="62.915015984326601" lon="6.930368011817336">
        <ele>10.710000000000001</ele>
        <time>2017-06-21T06:52:48Z</time>
      </trkpt>
      <trkpt lat="62.915319995954633" lon="6.930637992918491">
        <ele>11.19</ele>
        <time>2017-06-21T06:52:54Z</time>
      </trkpt>
      <trkpt lat="62.915340028703213" lon="6.930621983483434">
        <ele>11.19</ele>
        <time>2017-06-21T06:52:55Z</time>
      </trkpt>
      <trkpt lat="62.915329970419407" lon="6.93050698377192">
        <ele>11.67</ele>
        <time>2017-06-21T06:53:00Z</time>
      </trkpt>
      <trkpt lat="62.915237015113235" lon="6.930492985993624">
        <ele>11.67</ele>
        <time>2017-06-21T06:53:04Z</time>
      </trkpt>
      <trkpt lat="62.915179012343287" lon="6.930455015972257">
        <ele>11.19</ele>
        <time>2017-06-21T06:53:05Z</time>
      </trkpt>
      <trkpt lat="62.914508040994406" lon="6.929738027974963">
        <ele>10.23</ele>
        <time>2017-06-21T06:53:12Z</time>
      </trkpt>
      <trkpt lat="62.913456028327346" lon="6.927897026762366">
        <ele>15.52</ele>
        <time>2017-06-21T06:53:22Z</time>
      </trkpt>
      <trkpt lat="62.912497976794839" lon="6.926107993349433">
        <ele>16</ele>
        <time>2017-06-21T06:53:34Z</time>
      </trkpt>
      <trkpt lat="62.911819964647293" lon="6.924873003736138">
        <ele>15.52</ele>
        <time>2017-06-21T06:53:46Z</time>
      </trkpt>
      <trkpt lat="62.911013038828969" lon="6.923399968072772">
        <ele>14.56</ele>
        <time>2017-06-21T06:53:56Z</time>
      </trkpt>
      <trkpt lat="62.910305019468069" lon="6.922100018709898">
        <ele>13.119999999999999</ele>
        <time>2017-06-21T06:54:06Z</time>
      </trkpt>
      <trkpt lat="62.910203011706471" lon="6.921789972111583">
        <ele>13.119999999999999</ele>
        <time>2017-06-21T06:54:13Z</time>
      </trkpt>
      <trkpt lat="62.910193037241697" lon="6.921770023182035">
        <ele>13.119999999999999</ele>
        <time>2017-06-21T06:54:14Z</time>
      </trkpt>
      <trkpt lat="62.910189013928175" lon="6.921776980161667">
        <ele>13.6</ele>
        <time>2017-06-21T06:54:27Z</time>
      </trkpt>
      <trkpt lat="62.910197982564569" lon="6.921919975429773">
        <ele>13.6</ele>
        <time>2017-06-21T06:54:30Z</time>
      </trkpt>
      <trkpt lat="62.910235030576587" lon="6.922014020383358">
        <ele>14.08</ele>
        <time>2017-06-21T06:54:31Z</time>
      </trkpt>
      <trkpt lat="62.910292027518153" lon="6.922118039801717">
        <ele>14.08</ele>
        <time>2017-06-21T06:54:32Z</time>
      </trkpt>
      <trkpt lat="62.91090801358223" lon="6.923266025260091">
        <ele>15.039999999999999</ele>
        <time>2017-06-21T06:54:39Z</time>
      </trkpt>
      <trkpt lat="62.912194970995188" lon="6.925647994503379">
        <ele>16.960000000000001</ele>
        <time>2017-06-21T06:54:52Z</time>
      </trkpt>
      <trkpt lat="62.912494037300348" lon="6.926196003332734">
        <ele>16.960000000000001</ele>
        <time>2017-06-21T06:54:59Z</time>
      </trkpt>
      <trkpt lat="62.912543993443251" lon="6.926305973902345">
        <ele>16.48</ele>
        <time>2017-06-21T06:55:09Z</time>
      </trkpt>
      <trkpt lat="62.912579029798508" lon="6.926354002207518">
        <ele>16.48</ele>
        <time>2017-06-21T06:56:15Z</time>
      </trkpt>
      <trkpt lat="62.913045985624194" lon="6.927213985472918">
        <ele>16.48</ele>
        <time>2017-06-21T06:56:22Z</time>
      </trkpt>
      <trkpt lat="62.914188019931316" lon="6.92930200137198">
        <ele>13.6</ele>
        <time>2017-06-21T06:56:33Z</time>
      </trkpt>
      <trkpt lat="62.915357965976" lon="6.930723991245031">
        <ele>13.119999999999999</ele>
        <time>2017-06-21T06:56:41Z</time>
      </trkpt>
      <trkpt lat="62.915627025067806" lon="6.931091034784913">
        <ele>13.6</ele>
        <time>2017-06-21T06:56:43Z</time>
      </trkpt>
      <trkpt lat="62.91574202477932" lon="6.931319022551179">
        <ele>13.6</ele>
        <time>2017-06-21T06:56:44Z</time>
      </trkpt>
      <trkpt lat="62.915843026712537" lon="6.931581040844321">
        <ele>13.6</ele>
        <time>2017-06-21T06:56:45Z</time>
      </trkpt>
      <trkpt lat="62.916899984702468" lon="6.934799021109939">
        <ele>13.119999999999999</ele>
        <time>2017-06-21T06:56:55Z</time>
      </trkpt>
      <trkpt lat="62.919056983664632" lon="6.941385017707944">
        <ele>8.789999999999999</ele>
        <time>2017-06-21T06:57:14Z</time>
      </trkpt>
      <trkpt lat="62.919869022443891" lon="6.943756006658077">
        <ele>7.35</ele>
        <time>2017-06-21T06:57:22Z</time>
      </trkpt>
      <trkpt lat="62.919977987185121" lon="6.943959016352892">
        <ele>6.87</ele>
        <time>2017-06-21T06:57:23Z</time>
      </trkpt>
      <trkpt lat="62.920100027695298" lon="6.944135958328843">
        <ele>6.87</ele>
        <time>2017-06-21T06:57:24Z</time>
      </trkpt>
      <trkpt lat="62.921429984271526" lon="6.945982994511724">
        <ele>7.35</ele>
        <time>2017-06-21T06:57:34Z</time>
      </trkpt>
      <trkpt lat="62.922117970883846" lon="6.948061035946012">
        <ele>7.35</ele>
        <time>2017-06-21T06:57:41Z</time>
      </trkpt>
      <trkpt lat="62.923079039901495" lon="6.953898025676608">
        <ele>15.039999999999999</ele>
        <time>2017-06-21T06:57:58Z</time>
      </trkpt>
      <trkpt lat="62.924359040334821" lon="6.96065098978579">
        <ele>16</ele>
        <time>2017-06-21T06:58:18Z</time>
      </trkpt>
      <trkpt lat="62.925781030207872" lon="6.964660976082087">
        <ele>17.920000000000002</ele>
        <time>2017-06-21T06:58:32Z</time>
      </trkpt>
      <trkpt lat="62.928262995555997" lon="6.971601024270058">
        <ele>16</ele>
        <time>2017-06-21T06:58:56Z</time>
      </trkpt>
      <trkpt lat="62.929919008165598" lon="6.976642990484834">
        <ele>12.630000000000001</ele>
        <time>2017-06-21T06:59:12Z</time>
      </trkpt>
      <trkpt lat="62.931223986670375" lon="6.982002966105938">
        <ele>7.35</ele>
        <time>2017-06-21T06:59:28Z</time>
      </trkpt>
      <trkpt lat="62.932168962433934" lon="6.983536016196013">
        <ele>13.119999999999999</ele>
        <time>2017-06-21T06:59:35Z</time>
      </trkpt>
      <trkpt lat="62.933838972821832" lon="6.986012030392885">
        <ele>11.67</ele>
        <time>2017-06-21T06:59:47Z</time>
      </trkpt>
      <trkpt lat="62.934808004647493" lon="6.989339981228113">
        <ele>6.87</ele>
        <time>2017-06-21T06:59:57Z</time>
      </trkpt>
      <trkpt lat="62.93658304028213" lon="6.995488023385406">
        <ele>4.46</ele>
        <time>2017-06-21T07:00:15Z</time>
      </trkpt>
      <trkpt lat="62.936702985316515" lon="6.995738977566361">
        <ele>4.46</ele>
        <time>2017-06-21T07:00:16Z</time>
      </trkpt>
      <trkpt lat="62.936831982806325" lon="6.995953973382711">
        <ele>4.94</ele>
        <time>2017-06-21T07:00:17Z</time>
      </trkpt>
      <trkpt lat="62.93697196058929" lon="6.996126975864172">
        <ele>4.94</ele>
        <time>2017-06-21T07:00:18Z</time>
      </trkpt>
      <trkpt lat="62.937116967514157" lon="6.996257985010743">
        <ele>5.42</ele>
        <time>2017-06-21T07:00:19Z</time>
      </trkpt>
      <trkpt lat="62.937267003580928" lon="6.996344989165664">
        <ele>5.42</ele>
        <time>2017-06-21T07:00:20Z</time>
      </trkpt>
      <trkpt lat="62.93742299079895" lon="6.996382959187031">
        <ele>5.91</ele>
        <time>2017-06-21T07:00:21Z</time>
      </trkpt>
      <trkpt lat="62.937588030472398" lon="6.996391005814076">
        <ele>5.91</ele>
        <time>2017-06-21T07:00:22Z</time>
      </trkpt>
      <trkpt lat="62.937756003811955" lon="6.996382037177682">
        <ele>6.39</ele>
        <time>2017-06-21T07:00:23Z</time>
      </trkpt>
      <trkpt lat="62.938911030068994" lon="6.996532995253801">
        <ele>7.83</ele>
        <time>2017-06-21T07:00:30Z</time>
      </trkpt>
      <trkpt lat="62.939065005630255" lon="6.996649000793695">
        <ele>7.35</ele>
        <time>2017-06-21T07:00:31Z</time>
      </trkpt>
      <trkpt lat="62.939208000898361" lon="6.996797025203705">
        <ele>6.87</ele>
        <time>2017-06-21T07:00:32Z</time>
      </trkpt>
      <trkpt lat="62.939344961196184" lon="6.996970027685165">
        <ele>6.39</ele>
        <time>2017-06-21T07:00:33Z</time>
      </trkpt>
      <trkpt lat="62.939475970342755" lon="6.9971720315516">
        <ele>6.39</ele>
        <time>2017-06-21T07:00:34Z</time>
      </trkpt>
      <trkpt lat="62.939598010852933" lon="6.997402030974627">
        <ele>6.39</ele>
        <time>2017-06-21T07:00:35Z</time>
      </trkpt>
      <trkpt lat="62.939714016392827" lon="6.997643010690808">
        <ele>6.39</ele>
        <time>2017-06-21T07:00:36Z</time>
      </trkpt>
      <trkpt lat="62.941041961312294" lon="7.001012032851577">
        <ele>5.42</ele>
        <time>2017-06-21T07:00:48Z</time>
      </trkpt>
      <trkpt lat="62.941793985664845" lon="7.003739001229405">
        <ele>6.87</ele>
        <time>2017-06-21T07:00:59Z</time>
      </trkpt>
      <trkpt lat="62.94236596673727" lon="7.005827017128468">
        <ele>14.56</ele>
        <time>2017-06-21T07:01:06Z</time>
      </trkpt>
      <trkpt lat="62.943396018818021" lon="7.008376037701964">
        <ele>19.84</ele>
        <time>2017-06-21T07:01:15Z</time>
      </trkpt>
      <trkpt lat="62.943900022655725" lon="7.010852973908186">
        <ele>18.399999999999999</ele>
        <time>2017-06-21T07:01:23Z</time>
      </trkpt>
      <trkpt lat="62.944743996486068" lon="7.015508031472564">
        <ele>12.630000000000001</ele>
        <time>2017-06-21T07:01:40Z</time>
      </trkpt>
      <trkpt lat="62.945053959265351" lon="7.016465999186039">
        <ele>8.789999999999999</ele>
        <time>2017-06-21T07:01:44Z</time>
      </trkpt>
      <trkpt lat="62.945155967026949" lon="7.016676971688867">
        <ele>7.35</ele>
        <time>2017-06-21T07:01:45Z</time>
      </trkpt>
      <trkpt lat="62.946291966363788" lon="7.018847968429327">
        <ele>2.06</ele>
        <time>2017-06-21T07:01:56Z</time>
      </trkpt>
      <trkpt lat="62.946696979925036" lon="7.020927015691996">
        <ele>3.02</ele>
        <time>2017-06-21T07:02:03Z</time>
      </trkpt>
      <trkpt lat="62.947276001796126" lon="7.0261350274086">
        <ele>3.5</ele>
        <time>2017-06-21T07:02:18Z</time>
      </trkpt>
      <trkpt lat="62.947787968441844" lon="7.029392989352346">
        <ele>3.98</ele>
        <time>2017-06-21T07:02:29Z</time>
      </trkpt>
      <trkpt lat="62.948677036911249" lon="7.033675974234939">
        <ele>4.94</ele>
        <time>2017-06-21T07:02:42Z</time>
      </trkpt>
      <trkpt lat="62.949469964951277" lon="7.035071980208159">
        <ele>4.94</ele>
        <time>2017-06-21T07:02:48Z</time>
      </trkpt>
      <trkpt lat="62.951351031661034" lon="7.036678958684206">
        <ele>8.789999999999999</ele>
        <time>2017-06-21T07:03:00Z</time>
      </trkpt>
      <trkpt lat="62.954131979495287" lon="7.039020024240017">
        <ele>7.35</ele>
        <time>2017-06-21T07:03:17Z</time>
      </trkpt>
      <trkpt lat="62.956140032038093" lon="7.040997985750437">
        <ele>3.98</ele>
        <time>2017-06-21T07:03:29Z</time>
      </trkpt>
      <trkpt lat="62.95791800133884" lon="7.044242033734918">
        <ele>4.94</ele>
        <time>2017-06-21T07:03:41Z</time>
      </trkpt>
      <trkpt lat="62.959382990375161" lon="7.046908987686038">
        <ele>5.91</ele>
        <time>2017-06-21T07:03:51Z</time>
      </trkpt>
      <trkpt lat="62.962578004226089" lon="7.052814960479736">
        <ele>7.83</ele>
        <time>2017-06-21T07:04:12Z</time>
      </trkpt>
      <trkpt lat="62.963601015508175" lon="7.055494990199804">
        <ele>10.710000000000001</ele>
        <time>2017-06-21T07:04:21Z</time>
      </trkpt>
      <trkpt lat="62.964552026242018" lon="7.060109982267022">
        <ele>6.39</ele>
        <time>2017-06-21T07:04:33Z</time>
      </trkpt>
      <trkpt lat="62.966080969199538" lon="7.067695017904043">
        <ele>9.27</ele>
        <time>2017-06-21T07:04:53Z</time>
      </trkpt>
      <trkpt lat="62.966318009421229" lon="7.069338038563728">
        <ele>8.789999999999999</ele>
        <time>2017-06-21T07:04:58Z</time>
      </trkpt>
      <trkpt lat="62.966325972229242" lon="7.069671973586083">
        <ele>8.789999999999999</ele>
        <time>2017-06-21T07:04:59Z</time>
      </trkpt>
      <trkpt lat="62.966314991936088" lon="7.070023007690907">
        <ele>8.310000000000001</ele>
        <time>2017-06-21T07:05:00Z</time>
      </trkpt>
      <trkpt lat="62.966295965015888" lon="7.070385022088885">
        <ele>8.310000000000001</ele>
        <time>2017-06-21T07:05:01Z</time>
      </trkpt>
      <trkpt lat="62.966266963630915" lon="7.070747036486864">
        <ele>8.310000000000001</ele>
        <time>2017-06-21T07:05:02Z</time>
      </trkpt>
      <trkpt lat="62.965785004198551" lon="7.075308971107006">
        <ele>10.23</ele>
        <time>2017-06-21T07:05:14Z</time>
      </trkpt>
      <trkpt lat="62.964717987924814" lon="7.079600002616644">
        <ele>9.75</ele>
        <time>2017-06-21T07:05:26Z</time>
      </trkpt>
      <trkpt lat="62.963757002726197" lon="7.081435974687338">
        <ele>9.75</ele>
        <time>2017-06-21T07:05:33Z</time>
      </trkpt>
      <trkpt lat="62.962668025866151" lon="7.083493983373046">
        <ele>5.42</ele>
        <time>2017-06-21T07:05:41Z</time>
      </trkpt>
      <trkpt lat="62.960702972486615" lon="7.085583005100489">
        <ele>5.42</ele>
        <time>2017-06-21T07:05:53Z</time>
      </trkpt>
      <trkpt lat="62.958362996578217" lon="7.088009985163808">
        <ele>12.15</ele>
        <time>2017-06-21T07:06:08Z</time>
      </trkpt>
      <trkpt lat="62.95684696175158" lon="7.089400039985776">
        <ele>5.42</ele>
        <time>2017-06-21T07:06:18Z</time>
      </trkpt>
      <trkpt lat="62.955178963020444" lon="7.090392038226128">
        <ele>6.87</ele>
        <time>2017-06-21T07:06:29Z</time>
      </trkpt>
      <trkpt lat="62.954422999173403" lon="7.092075040563941">
        <ele>8.310000000000001</ele>
        <time>2017-06-21T07:06:36Z</time>
      </trkpt>
      <trkpt lat="62.953941961750388" lon="7.093889974057674">
        <ele>12.15</ele>
        <time>2017-06-21T07:06:43Z</time>
      </trkpt>
      <trkpt lat="62.953916983678937" lon="7.094106981530786">
        <ele>13.119999999999999</ele>
        <time>2017-06-21T07:06:44Z</time>
      </trkpt>
      <trkpt lat="62.953912038356066" lon="7.094327006489039">
        <ele>14.08</ele>
        <time>2017-06-21T07:06:45Z</time>
      </trkpt>
      <trkpt lat="62.953915977850556" lon="7.094538984820247">
        <ele>14.56</ele>
        <time>2017-06-21T07:06:46Z</time>
      </trkpt>
      <trkpt lat="62.953927963972092" lon="7.094744006171823">
        <ele>14.56</ele>
        <time>2017-06-21T07:06:47Z</time>
      </trkpt>
      <trkpt lat="62.953946990892291" lon="7.094920026138425">
        <ele>14.56</ele>
        <time>2017-06-21T07:06:48Z</time>
      </trkpt>
      <trkpt lat="62.953969035297632" lon="7.09506000392139">
        <ele>15.039999999999999</ele>
        <time>2017-06-21T07:06:49Z</time>
      </trkpt>
      <trkpt lat="62.953999964520335" lon="7.095175003632903">
        <ele>15.039999999999999</ele>
        <time>2017-06-21T07:06:50Z</time>
      </trkpt>
      <trkpt lat="62.954053021967411" lon="7.09527499973774">
        <ele>15.039999999999999</ele>
        <time>2017-06-21T07:06:51Z</time>
      </trkpt>
      <trkpt lat="62.954115970060229" lon="7.095350017771125">
        <ele>15.039999999999999</ele>
        <time>2017-06-21T07:06:52Z</time>
      </trkpt>
      <trkpt lat="62.954195011407137" lon="7.095408020541072">
        <ele>15.039999999999999</ele>
        <time>2017-06-21T07:06:53Z</time>
      </trkpt>
      <trkpt lat="62.954283021390438" lon="7.095465017482638">
        <ele>15.039999999999999</ele>
        <time>2017-06-21T07:06:54Z</time>
      </trkpt>
      <trkpt lat="62.955003026872873" lon="7.095988970249891">
        <ele>12.15</ele>
        <time>2017-06-21T07:07:01Z</time>
      </trkpt>
      <trkpt lat="62.955095982179046" lon="7.096136994659901">
        <ele>11.67</ele>
        <time>2017-06-21T07:07:02Z</time>
      </trkpt>
      <trkpt lat="62.955183992162347" lon="7.096311002969742">
        <ele>11.19</ele>
        <time>2017-06-21T07:07:03Z</time>
      </trkpt>
      <trkpt lat="62.955687996000051" lon="7.097472986206412">
        <ele>11.67</ele>
        <time>2017-06-21T07:07:09Z</time>
      </trkpt>
      <trkpt lat="62.955753961578012" lon="7.097696028649807">
        <ele>11.67</ele>
        <time>2017-06-21T07:07:10Z</time>
      </trkpt>
      <trkpt lat="62.955807019025087" lon="7.097940025851131">
        <ele>12.15</ele>
        <time>2017-06-21T07:07:11Z</time>
      </trkpt>
      <trkpt lat="62.956365002319217" lon="7.100961031392217">
        <ele>14.08</ele>
        <time>2017-06-21T07:07:22Z</time>
      </trkpt>
      <trkpt lat="62.956641018390656" lon="7.103648018091917">
        <ele>15.52</ele>
        <time>2017-06-21T07:07:31Z</time>
      </trkpt>
      <trkpt lat="62.956684017553926" lon="7.104686032980681">
        <ele>16.48</ele>
        <time>2017-06-21T07:07:35Z</time>
      </trkpt>
      <trkpt lat="62.956705978140235" lon="7.104907985776663">
        <ele>16.48</ele>
        <time>2017-06-21T07:07:36Z</time>
      </trkpt>
      <trkpt lat="62.956746965646744" lon="7.105123987421393">
        <ele>16.48</ele>
        <time>2017-06-21T07:07:37Z</time>
      </trkpt>
      <trkpt lat="62.956803040578961" lon="7.105337977409363">
        <ele>16.48</ele>
        <time>2017-06-21T07:07:38Z</time>
      </trkpt>
      <trkpt lat="62.956870011985302" lon="7.1055450104177">
        <ele>16.48</ele>
        <time>2017-06-21T07:07:39Z</time>
      </trkpt>
      <trkpt lat="62.956945030018687" lon="7.105753971263766">
        <ele>16.48</ele>
        <time>2017-06-21T07:07:40Z</time>
      </trkpt>
      <trkpt lat="62.957530003041029" lon="7.108130995184183">
        <ele>18.399999999999999</ele>
        <time>2017-06-21T07:07:50Z</time>
      </trkpt>
      <trkpt lat="62.958000982180238" lon="7.111165998503566">
        <ele>15.039999999999999</ele>
        <time>2017-06-21T07:08:02Z</time>
      </trkpt>
      <trkpt lat="62.958169961348176" lon="7.111901007592678">
        <ele>16</ele>
        <time>2017-06-21T07:08:05Z</time>
      </trkpt>
      <trkpt lat="62.958254031836987" lon="7.112102005630732">
        <ele>16.48</ele>
        <time>2017-06-21T07:08:06Z</time>
      </trkpt>
      <trkpt lat="62.958350004628301" lon="7.112263021990657">
        <ele>16.960000000000001</ele>
        <time>2017-06-21T07:08:07Z</time>
      </trkpt>
      <trkpt lat="62.958456035703421" lon="7.112411968410015">
        <ele>16.960000000000001</ele>
        <time>2017-06-21T07:08:08Z</time>
      </trkpt>
      <trkpt lat="62.958559971302748" lon="7.112541971728206">
        <ele>17.440000000000001</ele>
        <time>2017-06-21T07:08:09Z</time>
      </trkpt>
      <trkpt lat="62.959733018651605" lon="7.114524962380529">
        <ele>20.32</ele>
        <time>2017-06-21T07:08:22Z</time>
      </trkpt>
      <trkpt lat="62.960732979699969" lon="7.116794027388096">
        <ele>23.690000000000001</ele>
        <time>2017-06-21T07:08:35Z</time>
      </trkpt>
      <trkpt lat="62.96189496293664" lon="7.119413036853075">
        <ele>26.09</ele>
        <time>2017-06-21T07:08:49Z</time>
      </trkpt>
      <trkpt lat="62.962985029444098" lon="7.122370004653931">
        <ele>25.129999999999999</ele>
        <time>2017-06-21T07:09:01Z</time>
      </trkpt>
      <trkpt lat="62.964378017932177" lon="7.126371022313833">
        <ele>25.609999999999999</ele>
        <time>2017-06-21T07:09:15Z</time>
      </trkpt>
      <trkpt lat="62.964981012046337" lon="7.129698973149061">
        <ele>25.609999999999999</ele>
        <time>2017-06-21T07:09:24Z</time>
      </trkpt>
      <trkpt lat="62.965891035273671" lon="7.135756993666291">
        <ele>26.57</ele>
        <time>2017-06-21T07:09:40Z</time>
      </trkpt>
      <trkpt lat="62.966392021626234" lon="7.140586981549859">
        <ele>27.530000000000001</ele>
        <time>2017-06-21T07:09:53Z</time>
      </trkpt>
      <trkpt lat="62.966918991878629" lon="7.143315961584449">
        <ele>28.5</ele>
        <time>2017-06-21T07:10:02Z</time>
      </trkpt>
      <trkpt lat="62.96823201701045" lon="7.148402016609907">
        <ele>18.399999999999999</ele>
        <time>2017-06-21T07:10:18Z</time>
      </trkpt>
      <trkpt lat="62.969901021569967" lon="7.1555429790169">
        <ele>16.960000000000001</ele>
        <time>2017-06-21T07:10:40Z</time>
      </trkpt>
      <trkpt lat="62.970653967931867" lon="7.157436031848192">
        <ele>16</ele>
        <time>2017-06-21T07:10:47Z</time>
      </trkpt>
      <trkpt lat="62.971975039690733" lon="7.160124024376273">
        <ele>15.52</ele>
        <time>2017-06-21T07:10:59Z</time>
      </trkpt>
      <trkpt lat="62.972437972202897" lon="7.16084604151547">
        <ele>14.56</ele>
        <time>2017-06-21T07:11:03Z</time>
      </trkpt>
      <trkpt lat="62.972573004662991" lon="7.160941008478403">
        <ele>15.039999999999999</ele>
        <time>2017-06-21T07:11:04Z</time>
      </trkpt>
      <trkpt lat="62.972712982445955" lon="7.161007979884744">
        <ele>15.039999999999999</ele>
        <time>2017-06-21T07:11:05Z</time>
      </trkpt>
      <trkpt lat="62.973716966807842" lon="7.161373011767864">
        <ele>13.119999999999999</ele>
        <time>2017-06-21T07:11:13Z</time>
      </trkpt>
      <trkpt lat="62.973857028409839" lon="7.161440989002585">
        <ele>13.119999999999999</ele>
        <time>2017-06-21T07:11:15Z</time>
      </trkpt>
      <trkpt lat="62.973913019523025" lon="7.161503015086055">
        <ele>13.6</ele>
        <time>2017-06-21T07:11:16Z</time>
      </trkpt>
      <trkpt lat="62.973957024514675" lon="7.161569986492395">
        <ele>13.6</ele>
        <time>2017-06-21T07:11:17Z</time>
      </trkpt>
      <trkpt lat="62.974089039489627" lon="7.161702001467347">
        <ele>14.08</ele>
        <time>2017-06-21T07:11:20Z</time>
      </trkpt>
      <trkpt lat="62.974153999239206" lon="7.16170703060925">
        <ele>14.56</ele>
        <time>2017-06-21T07:11:21Z</time>
      </trkpt>
      <trkpt lat="62.974230023100972" lon="7.161694960668683">
        <ele>15.52</ele>
        <time>2017-06-21T07:11:22Z</time>
      </trkpt>
      <trkpt lat="62.975092018023133" lon="7.161524975672364">
        <ele>17.440000000000001</ele>
        <time>2017-06-21T07:11:30Z</time>
      </trkpt>
      <trkpt lat="62.976531023159623" lon="7.161013009026647">
        <ele>19.359999999999999</ele>
        <time>2017-06-21T07:11:40Z</time>
      </trkpt>
      <trkpt lat="62.979111978784204" lon="7.160127963870764">
        <ele>16.960000000000001</ele>
        <time>2017-06-21T07:11:58Z</time>
      </trkpt>
      <trkpt lat="62.981217009946704" lon="7.159854965284467">
        <ele>16</ele>
        <time>2017-06-21T07:12:12Z</time>
      </trkpt>
      <trkpt lat="62.982675964012742" lon="7.160036014392972">
        <ele>18.879999999999999</ele>
        <time>2017-06-21T07:12:23Z</time>
      </trkpt>
      <trkpt lat="62.98449500463903" lon="7.161194980144501">
        <ele>18.399999999999999</ele>
        <time>2017-06-21T07:12:36Z</time>
      </trkpt>
      <trkpt lat="62.985879024490714" lon="7.162648988887668">
        <ele>16.48</ele>
        <time>2017-06-21T07:12:45Z</time>
      </trkpt>
      <trkpt lat="62.987305959686637" lon="7.164727030321956">
        <ele>15.52</ele>
        <time>2017-06-21T07:12:53Z</time>
      </trkpt>
      <trkpt lat="62.988806990906596" lon="7.168061016127467">
        <ele>16</ele>
        <time>2017-06-21T07:13:03Z</time>
      </trkpt>
      <trkpt lat="62.989883981645107" lon="7.171834968030453">
        <ele>16.960000000000001</ele>
        <time>2017-06-21T07:13:13Z</time>
      </trkpt>
      <trkpt lat="62.990571968257427" lon="7.17606196179986">
        <ele>17.440000000000001</ele>
        <time>2017-06-21T07:13:23Z</time>
      </trkpt>
      <trkpt lat="62.990809008479118" lon="7.18052800744772">
        <ele>17.440000000000001</ele>
        <time>2017-06-21T07:13:33Z</time>
      </trkpt>
      <trkpt lat="62.990888971835375" lon="7.186259971931577">
        <ele>17.440000000000001</ele>
        <time>2017-06-21T07:13:46Z</time>
      </trkpt>
      <trkpt lat="62.991449972614646" lon="7.191903004422784">
        <ele>16.48</ele>
        <time>2017-06-21T07:13:59Z</time>
      </trkpt>
      <trkpt lat="62.991256015375257" lon="7.195438994094729">
        <ele>16.960000000000001</ele>
        <time>2017-06-21T07:14:07Z</time>
      </trkpt>
      <trkpt lat="62.990501979365945" lon="7.198639959096909">
        <ele>15.039999999999999</ele>
        <time>2017-06-21T07:14:15Z</time>
      </trkpt>
      <trkpt lat="62.989176968112588" lon="7.203533984720707">
        <ele>15.52</ele>
        <time>2017-06-21T07:14:28Z</time>
      </trkpt>
      <trkpt lat="62.988544972613454" lon="7.207427965477109">
        <ele>19.359999999999999</ele>
        <time>2017-06-21T07:14:38Z</time>
      </trkpt>
      <trkpt lat="62.988345986232162" lon="7.210774021223187">
        <ele>17.920000000000002</ele>
        <time>2017-06-21T07:14:47Z</time>
      </trkpt>
      <trkpt lat="62.988182958215475" lon="7.214219989255071">
        <ele>16.48</ele>
        <time>2017-06-21T07:14:56Z</time>
      </trkpt>
      <trkpt lat="62.987989000976086" lon="7.219809964299202">
        <ele>18.879999999999999</ele>
        <time>2017-06-21T07:15:09Z</time>
      </trkpt>
      <trkpt lat="62.987829996272922" lon="7.225863039493561">
        <ele>16</ele>
        <time>2017-06-21T07:15:24Z</time>
      </trkpt>
      <trkpt lat="62.988187987357378" lon="7.228670977056027">
        <ele>16.960000000000001</ele>
        <time>2017-06-21T07:15:31Z</time>
      </trkpt>
      <trkpt lat="62.989006983116269" lon="7.233421001583338">
        <ele>22.73</ele>
        <time>2017-06-21T07:15:44Z</time>
      </trkpt>
      <trkpt lat="62.989526996389031" lon="7.237579012289643">
        <ele>28.02</ele>
        <time>2017-06-21T07:15:55Z</time>
      </trkpt>
      <trkpt lat="62.990325037389994" lon="7.244306998327375">
        <ele>32.340000000000003</ele>
        <time>2017-06-21T07:16:13Z</time>
      </trkpt>
      <trkpt lat="62.990399971604347" lon="7.244626013562083">
        <ele>32.340000000000003</ele>
        <time>2017-06-21T07:16:14Z</time>
      </trkpt>
      <trkpt lat="62.990487981587648" lon="7.244916027411819">
        <ele>32.340000000000003</ele>
        <time>2017-06-21T07:16:15Z</time>
      </trkpt>
      <trkpt lat="62.990589989349246" lon="7.24517703987658">
        <ele>32.340000000000003</ele>
        <time>2017-06-21T07:16:16Z</time>
      </trkpt>
      <trkpt lat="62.990707000717521" lon="7.245416007936001">
        <ele>31.859999999999999</ele>
        <time>2017-06-21T07:16:17Z</time>
      </trkpt>
      <trkpt lat="62.99083499237895" lon="7.245648019015789">
        <ele>31.379999999999999</ele>
        <time>2017-06-21T07:16:18Z</time>
      </trkpt>
      <trkpt lat="62.991788014769554" lon="7.247877018526197">
        <ele>28.02</ele>
        <time>2017-06-21T07:16:25Z</time>
      </trkpt>
      <trkpt lat="62.992874979972839" lon="7.250705994665623">
        <ele>28.02</ele>
        <time>2017-06-21T07:16:32Z</time>
      </trkpt>
      <trkpt lat="62.99489501863718" lon="7.255929009988904">
        <ele>27.050000000000001</ele>
        <time>2017-06-21T07:16:48Z</time>
      </trkpt>
      <trkpt lat="62.995907971635461" lon="7.259622998535633">
        <ele>26.09</ele>
        <time>2017-06-21T07:16:58Z</time>
      </trkpt>
      <trkpt lat="62.996257999911904" lon="7.262512994930148">
        <ele>21.77</ele>
        <time>2017-06-21T07:17:05Z</time>
      </trkpt>
      <trkpt lat="62.996365036815405" lon="7.263318998739123">
        <ele>21.289999999999999</ele>
        <time>2017-06-21T07:17:07Z</time>
      </trkpt>
      <trkpt lat="62.996449023485184" lon="7.26372099481523">
        <ele>21.289999999999999</ele>
        <time>2017-06-21T07:17:08Z</time>
      </trkpt>
      <trkpt lat="62.997418977320194" lon="7.267560996115208">
        <ele>18.399999999999999</ele>
        <time>2017-06-21T07:17:17Z</time>
      </trkpt>
      <trkpt lat="62.99816002137959" lon="7.271644994616509">
        <ele>19.359999999999999</ele>
        <time>2017-06-21T07:17:27Z</time>
      </trkpt>
      <trkpt lat="62.998758992180228" lon="7.276932969689369">
        <ele>22.25</ele>
        <time>2017-06-21T07:17:40Z</time>
      </trkpt>
      <trkpt lat="62.999203987419605" lon="7.282255981117487">
        <ele>17.920000000000002</ele>
        <time>2017-06-21T07:17:53Z</time>
      </trkpt>
      <trkpt lat="62.999962968751788" lon="7.286371998488903">
        <ele>10.23</ele>
        <time>2017-06-21T07:18:04Z</time>
      </trkpt>
      <trkpt lat="63.001243975013494" lon="7.292755991220474">
        <ele>9.27</ele>
        <time>2017-06-21T07:18:21Z</time>
      </trkpt>
      <trkpt lat="63.001740016043186" lon="7.293934989720583">
        <ele>6.87</ele>
        <time>2017-06-21T07:18:25Z</time>
      </trkpt>
      <trkpt lat="63.001890974119306" lon="7.294157026335597">
        <ele>5.91</ele>
        <time>2017-06-21T07:18:26Z</time>
      </trkpt>
      <trkpt lat="63.002051990479231" lon="7.294338997453451">
        <ele>5.42</ele>
        <time>2017-06-21T07:18:27Z</time>
      </trkpt>
      <trkpt lat="63.002217030152678" lon="7.294494984671474">
        <ele>5.42</ele>
        <time>2017-06-21T07:18:28Z</time>
      </trkpt>
      <trkpt lat="63.002389026805758" lon="7.29461501352489">
        <ele>4.94</ele>
        <time>2017-06-21T07:18:29Z</time>
      </trkpt>
      <trkpt lat="63.00256596878171" lon="7.294712997972965">
        <ele>4.46</ele>
        <time>2017-06-21T07:18:30Z</time>
      </trkpt>
      <trkpt lat="63.002746012061834" lon="7.294772006571293">
        <ele>4.46</ele>
        <time>2017-06-21T07:18:31Z</time>
      </trkpt>
      <trkpt lat="63.002927983179688" lon="7.294802013784647">
        <ele>4.46</ele>
        <time>2017-06-21T07:18:32Z</time>
      </trkpt>
      <trkpt lat="63.003109032288194" lon="7.294790027663112">
        <ele>4.46</ele>
        <time>2017-06-21T07:18:33Z</time>
      </trkpt>
      <trkpt lat="63.003289997577667" lon="7.2947440110147">
        <ele>3.98</ele>
        <time>2017-06-21T07:18:34Z</time>
      </trkpt>
      <trkpt lat="63.003469035029411" lon="7.294674022123218">
        <ele>3.98</ele>
        <time>2017-06-21T07:18:35Z</time>
      </trkpt>
      <trkpt lat="63.003644971176982" lon="7.294582994654775">
        <ele>3.98</ele>
        <time>2017-06-21T07:18:36Z</time>
      </trkpt>
      <trkpt lat="63.005527965724468" lon="7.293619997799397">
        <ele>6.39</ele>
        <time>2017-06-21T07:18:47Z</time>
      </trkpt>
      <trkpt lat="63.005699962377548" lon="7.29364799335599">
        <ele>6.87</ele>
        <time>2017-06-21T07:18:48Z</time>
      </trkpt>
      <trkpt lat="63.005868019536138" lon="7.293713036924601">
        <ele>7.83</ele>
        <time>2017-06-21T07:18:49Z</time>
      </trkpt>
      <trkpt lat="63.006032975390553" lon="7.293823007494211">
        <ele>8.789999999999999</ele>
        <time>2017-06-21T07:18:50Z</time>
      </trkpt>
      <trkpt lat="63.006190974265337" lon="7.293961979448795">
        <ele>9.75</ele>
        <time>2017-06-21T07:18:51Z</time>
      </trkpt>
      <trkpt lat="63.006340004503727" lon="7.294139005243778">
        <ele>10.23</ele>
        <time>2017-06-21T07:18:52Z</time>
      </trkpt>
      <trkpt lat="63.006479982286692" lon="7.294346038252115">
        <ele>10.710000000000001</ele>
        <time>2017-06-21T07:18:53Z</time>
      </trkpt>
      <trkpt lat="63.006611997261643" lon="7.294579977169633">
        <ele>11.67</ele>
        <time>2017-06-21T07:18:54Z</time>
      </trkpt>
      <trkpt lat="63.00673303194344" lon="7.294841995462775">
        <ele>12.630000000000001</ele>
        <time>2017-06-21T07:18:55Z</time>
      </trkpt>
      <trkpt lat="63.006845014169812" lon="7.29513100348413">
        <ele>13.119999999999999</ele>
        <time>2017-06-21T07:18:56Z</time>
      </trkpt>
      <trkpt lat="63.006944004446268" lon="7.295443983748555">
        <ele>13.6</ele>
        <time>2017-06-21T07:18:57Z</time>
      </trkpt>
      <trkpt lat="63.007030002772808" lon="7.295781020075083">
        <ele>14.08</ele>
        <time>2017-06-21T07:18:58Z</time>
      </trkpt>
      <trkpt lat="63.007100997492671" lon="7.296104980632663">
        <ele>14.08</ele>
        <time>2017-06-21T07:18:59Z</time>
      </trkpt>
      <trkpt lat="63.007156988605857" lon="7.296419972553849">
        <ele>14.08</ele>
        <time>2017-06-21T07:19:00Z</time>
      </trkpt>
      <trkpt lat="63.007207028567791" lon="7.296725995838642">
        <ele>14.08</ele>
        <time>2017-06-21T07:19:01Z</time>
      </trkpt>
      <trkpt lat="63.007383970543742" lon="7.297970959916711">
        <ele>12.630000000000001</ele>
        <time>2017-06-21T07:19:07Z</time>
      </trkpt>
      <trkpt lat="63.007383970543742" lon="7.298071961849928">
        <ele>12.15</ele>
        <time>2017-06-21T07:19:13Z</time>
      </trkpt>
      <trkpt lat="63.007477009668946" lon="7.298608990386128">
        <ele>11.67</ele>
        <time>2017-06-21T07:19:28Z</time>
      </trkpt>
      <trkpt lat="63.007780015468597" lon="7.300633974373341">
        <ele>9.75</ele>
        <time>2017-06-21T07:19:35Z</time>
      </trkpt>
      <trkpt lat="63.008340010419488" lon="7.30436802841723">
        <ele>5.91</ele>
        <time>2017-06-21T07:19:44Z</time>
      </trkpt>
      <trkpt lat="63.009094968438148" lon="7.306996006518602">
        <ele>14.08</ele>
        <time>2017-06-21T07:19:51Z</time>
      </trkpt>
      <trkpt lat="63.010315038263798" lon="7.310228990390897">
        <ele>3.02</ele>
        <time>2017-06-21T07:20:01Z</time>
      </trkpt>
      <trkpt lat="63.010483011603355" lon="7.311018984764814">
        <ele>3.5</ele>
        <time>2017-06-21T07:20:03Z</time>
      </trkpt>
      <trkpt lat="63.01053699105978" lon="7.311432966962457">
        <ele>3.5</ele>
        <time>2017-06-21T07:20:04Z</time>
      </trkpt>
      <trkpt lat="63.010574039071798" lon="7.311864970251918">
        <ele>4.46</ele>
        <time>2017-06-21T07:20:05Z</time>
      </trkpt>
      <trkpt lat="63.010588036850095" lon="7.31229898519814">
        <ele>4.46</ele>
        <time>2017-06-21T07:20:06Z</time>
      </trkpt>
      <trkpt lat="63.010590970516205" lon="7.312744986265898">
        <ele>4.94</ele>
        <time>2017-06-21T07:20:07Z</time>
      </trkpt>
      <trkpt lat="63.010584013536572" lon="7.313200039789081">
        <ele>5.42</ele>
        <time>2017-06-21T07:20:08Z</time>
      </trkpt>
      <trkpt lat="63.010618966072798" lon="7.316247029229999">
        <ele>3.98</ele>
        <time>2017-06-21T07:20:15Z</time>
      </trkpt>
      <trkpt lat="63.010681997984648" lon="7.316671991720796">
        <ele>3.5</ele>
        <time>2017-06-21T07:20:16Z</time>
      </trkpt>
      <trkpt lat="63.010760033503175" lon="7.31708899140358">
        <ele>3.02</ele>
        <time>2017-06-21T07:20:17Z</time>
      </trkpt>
      <trkpt lat="63.011843981221318" lon="7.321222024038434">
        <ele>2.06</ele>
        <time>2017-06-21T07:20:27Z</time>
      </trkpt>
      <trkpt lat="63.012455021962523" lon="7.324778968468308">
        <ele>3.5</ele>
        <time>2017-06-21T07:20:35Z</time>
      </trkpt>
      <trkpt lat="63.012960031628609" lon="7.32897100970149">
        <ele>3.98</ele>
        <time>2017-06-21T07:20:45Z</time>
      </trkpt>
      <trkpt lat="63.013281980529428" lon="7.330515962094069">
        <ele>4.46</ele>
        <time>2017-06-21T07:20:50Z</time>
      </trkpt>
      <trkpt lat="63.013335037976503" lon="7.330663986504078">
        <ele>3.98</ele>
        <time>2017-06-21T07:20:51Z</time>
      </trkpt>
      <trkpt lat="63.013381976634264" lon="7.330767000094056">
        <ele>4.46</ele>
        <time>2017-06-21T07:20:52Z</time>
      </trkpt>
      <trkpt lat="63.01345900632441" lon="7.330921981483698">
        <ele>4.46</ele>
        <time>2017-06-21T07:20:54Z</time>
      </trkpt>
      <trkpt lat="63.013479961082339" lon="7.330998005345464">
        <ele>4.94</ele>
        <time>2017-06-21T07:20:55Z</time>
      </trkpt>
      <trkpt lat="63.013493036851287" lon="7.331070005893707">
        <ele>4.46</ele>
        <time>2017-06-21T07:20:56Z</time>
      </trkpt>
      <trkpt lat="63.013507034629583" lon="7.331121973693371">
        <ele>4.46</ele>
        <time>2017-06-21T07:21:05Z</time>
      </trkpt>
      <trkpt lat="63.014216981828213" lon="7.333565969020128">
        <ele>3.5</ele>
        <time>2017-06-21T07:23:29Z</time>
      </trkpt>
      <trkpt lat="63.014957020059228" lon="7.336499970406294">
        <ele>3.02</ele>
        <time>2017-06-21T07:23:40Z</time>
      </trkpt>
      <trkpt lat="63.015131028369069" lon="7.339008003473282">
        <ele>7.83</ele>
        <time>2017-06-21T07:23:48Z</time>
      </trkpt>
      <trkpt lat="63.015176961198449" lon="7.340294038876891">
        <ele>10.23</ele>
        <time>2017-06-21T07:23:55Z</time>
      </trkpt>
      <trkpt lat="63.015217026695609" lon="7.340597966685891">
        <ele>11.67</ele>
        <time>2017-06-21T07:24:04Z</time>
      </trkpt>
      <trkpt lat="63.015302019193769" lon="7.341034999117255">
        <ele>11.19</ele>
        <time>2017-06-21T07:24:40Z</time>
      </trkpt>
      <trkpt lat="63.015755983069539" lon="7.342679025605321">
        <ele>7.83</ele>
        <time>2017-06-21T07:24:48Z</time>
      </trkpt>
      <trkpt lat="63.016714034602046" lon="7.345774965360761">
        <ele>9.75</ele>
        <time>2017-06-21T07:25:02Z</time>
      </trkpt>
      <trkpt lat="63.01682903431356" lon="7.347668018192053">
        <ele>6.87</ele>
        <time>2017-06-21T07:25:09Z</time>
      </trkpt>
      <trkpt lat="63.016804978251457" lon="7.348002959042788">
        <ele>6.39</ele>
        <time>2017-06-21T07:25:10Z</time>
      </trkpt>
      <trkpt lat="63.016759967431426" lon="7.348346030339599">
        <ele>9.75</ele>
        <time>2017-06-21T07:25:11Z</time>
      </trkpt>
      <trkpt lat="63.01648797467351" lon="7.350537981837988">
        <ele>15.52</ele>
        <time>2017-06-21T07:25:17Z</time>
      </trkpt>
      <trkpt lat="63.016478000208735" lon="7.350918017327786">
        <ele>16.48</ele>
        <time>2017-06-21T07:25:18Z</time>
      </trkpt>
      <trkpt lat="63.016481017693877" lon="7.351306015625596">
        <ele>17.920000000000002</ele>
        <time>2017-06-21T07:25:19Z</time>
      </trkpt>
      <trkpt lat="63.016816964372993" lon="7.355123972520232">
        <ele>29.460000000000001</ele>
        <time>2017-06-21T07:25:29Z</time>
      </trkpt>
      <trkpt lat="63.017611987888813" lon="7.358934972435236">
        <ele>15.52</ele>
        <time>2017-06-21T07:25:40Z</time>
      </trkpt>
      <trkpt lat="63.017975008115172" lon="7.362096961587668">
        <ele>6.39</ele>
        <time>2017-06-21T07:25:48Z</time>
      </trkpt>
      <trkpt lat="63.01842100918293" lon="7.366171991452575">
        <ele>7.83</ele>
        <time>2017-06-21T07:25:58Z</time>
      </trkpt>
      <trkpt lat="63.019333966076374" lon="7.369045978412032">
        <ele>6.39</ele>
        <time>2017-06-21T07:26:06Z</time>
      </trkpt>
      <trkpt lat="63.020383967086673" lon="7.37200696952641">
        <ele>8.789999999999999</ele>
        <time>2017-06-21T07:26:15Z</time>
      </trkpt>
      <trkpt lat="63.020618995651603" lon="7.372690010815859">
        <ele>10.710000000000001</ele>
        <time>2017-06-21T07:26:17Z</time>
      </trkpt>
      <trkpt lat="63.021804029121995" lon="7.375050019472837">
        <ele>9.27</ele>
        <time>2017-06-21T07:26:25Z</time>
      </trkpt>
      <trkpt lat="63.021922968327999" lon="7.375384038314223">
        <ele>9.27</ele>
        <time>2017-06-21T07:26:26Z</time>
      </trkpt>
      <trkpt lat="63.022027993574739" lon="7.375749992206693">
        <ele>9.27</ele>
        <time>2017-06-21T07:26:27Z</time>
      </trkpt>
      <trkpt lat="63.022113991901278" lon="7.376143019646406">
        <ele>8.789999999999999</ele>
        <time>2017-06-21T07:26:28Z</time>
      </trkpt>
      <trkpt lat="63.02218004129827" lon="7.376552978530526">
        <ele>8.789999999999999</ele>
        <time>2017-06-21T07:26:29Z</time>
      </trkpt>
      <trkpt lat="63.022223962470889" lon="7.376992022618651">
        <ele>8.310000000000001</ele>
        <time>2017-06-21T07:26:30Z</time>
      </trkpt>
      <trkpt lat="63.022242989391088" lon="7.37744296900928">
        <ele>7.35</ele>
        <time>2017-06-21T07:26:31Z</time>
      </trkpt>
      <trkpt lat="63.02224500104785" lon="7.377901040017605">
        <ele>7.35</ele>
        <time>2017-06-21T07:26:32Z</time>
      </trkpt>
      <trkpt lat="63.022223962470889" lon="7.378355003893375">
        <ele>7.83</ele>
        <time>2017-06-21T07:26:33Z</time>
      </trkpt>
      <trkpt lat="63.022181969136" lon="7.378806034103036">
        <ele>7.35</ele>
        <time>2017-06-21T07:26:34Z</time>
      </trkpt>
      <trkpt lat="63.022114997729659" lon="7.379244994372129">
        <ele>7.35</ele>
        <time>2017-06-21T07:26:35Z</time>
      </trkpt>
      <trkpt lat="63.022027993574739" lon="7.379660988226533">
        <ele>6.87</ele>
        <time>2017-06-21T07:26:36Z</time>
      </trkpt>
      <trkpt lat="63.021922968327999" lon="7.380058960989118">
        <ele>6.87</ele>
        <time>2017-06-21T07:26:37Z</time>
      </trkpt>
      <trkpt lat="63.021804029121995" lon="7.380428016185761">
        <ele>6.39</ele>
        <time>2017-06-21T07:26:38Z</time>
      </trkpt>
      <trkpt lat="63.021673019975424" lon="7.380777960643172">
        <ele>5.42</ele>
        <time>2017-06-21T07:26:39Z</time>
      </trkpt>
      <trkpt lat="63.019751971587539" lon="7.385621024295688">
        <ele>8.310000000000001</ele>
        <time>2017-06-21T07:26:54Z</time>
      </trkpt>
      <trkpt lat="63.018278013914824" lon="7.389403022825718">
        <ele>5.91</ele>
        <time>2017-06-21T07:27:06Z</time>
      </trkpt>
      <trkpt lat="63.017290960997343" lon="7.392012979835272">
        <ele>7.35</ele>
        <time>2017-06-21T07:27:14Z</time>
      </trkpt>
      <trkpt lat="63.01599302329123" lon="7.396371988579631">
        <ele>10.23</ele>
        <time>2017-06-21T07:27:25Z</time>
      </trkpt>
      <trkpt lat="63.015597984194756" lon="7.397306989878416">
        <ele>9.27</ele>
        <time>2017-06-21T07:27:28Z</time>
      </trkpt>
      <trkpt lat="63.014472965151072" lon="7.398907011374831">
        <ele>7.83</ele>
        <time>2017-06-21T07:27:35Z</time>
      </trkpt>
      <trkpt lat="63.014203989878297" lon="7.399452002719045">
        <ele>8.789999999999999</ele>
        <time>2017-06-21T07:27:37Z</time>
      </trkpt>
      <trkpt lat="63.014089995995164" lon="7.399775041267276">
        <ele>8.789999999999999</ele>
        <time>2017-06-21T07:27:38Z</time>
      </trkpt>
      <trkpt lat="63.013991005718708" lon="7.400124985724688">
        <ele>8.789999999999999</ele>
        <time>2017-06-21T07:27:39Z</time>
      </trkpt>
      <trkpt lat="63.01390903070569" lon="7.400507032871246">
        <ele>8.310000000000001</ele>
        <time>2017-06-21T07:27:40Z</time>
      </trkpt>
      <trkpt lat="63.01384599879384" lon="7.400911962613463">
        <ele>8.310000000000001</ele>
        <time>2017-06-21T07:27:41Z</time>
      </trkpt>
      <trkpt lat="63.01380199380219" lon="7.401342038065195">
        <ele>7.83</ele>
        <time>2017-06-21T07:27:42Z</time>
      </trkpt>
      <trkpt lat="63.01378296688199" lon="7.401789966970682">
        <ele>7.35</ele>
        <time>2017-06-21T07:27:43Z</time>
      </trkpt>
      <trkpt lat="63.013784978538752" lon="7.402246026322246">
        <ele>6.87</ele>
        <time>2017-06-21T07:27:44Z</time>
      </trkpt>
      <trkpt lat="63.013808028772473" lon="7.4027060251683">
        <ele>6.87</ele>
        <time>2017-06-21T07:27:45Z</time>
      </trkpt>
      <trkpt lat="63.013848010450602" lon="7.403160994872451">
        <ele>6.87</ele>
        <time>2017-06-21T07:27:46Z</time>
      </trkpt>
      <trkpt lat="63.013900984078646" lon="7.403601966798306">
        <ele>6.87</ele>
        <time>2017-06-21T07:27:47Z</time>
      </trkpt>
      <trkpt lat="63.01399502903223" lon="7.406794968992472">
        <ele>8.310000000000001</ele>
        <time>2017-06-21T07:27:54Z</time>
      </trkpt>
      <trkpt lat="63.014069963246584" lon="7.410578979179263">
        <ele>5.42</ele>
        <time>2017-06-21T07:28:02Z</time>
      </trkpt>
      <trkpt lat="63.013793025165796" lon="7.413699980825186">
        <ele>6.87</ele>
        <time>2017-06-21T07:28:09Z</time>
      </trkpt>
      <trkpt lat="63.012688038870692" lon="7.419406967237592">
        <ele>6.87</ele>
        <time>2017-06-21T07:28:23Z</time>
      </trkpt>
      <trkpt lat="63.011470986530185" lon="7.425554003566504">
        <ele>12.630000000000001</ele>
        <time>2017-06-21T07:28:39Z</time>
      </trkpt>
      <trkpt lat="63.01055702380836" lon="7.428015014156699">
        <ele>13.119999999999999</ele>
        <time>2017-06-21T07:28:48Z</time>
      </trkpt>
      <trkpt lat="63.009455977007747" lon="7.430642992258072">
        <ele>16</ele>
        <time>2017-06-21T07:28:59Z</time>
      </trkpt>
      <trkpt lat="63.00918297842145" lon="7.431265013292432">
        <ele>16</ele>
        <time>2017-06-21T07:29:05Z</time>
      </trkpt>
      <trkpt lat="63.009180966764688" lon="7.43134698830545">
        <ele>15.52</ele>
        <time>2017-06-21T07:29:06Z</time>
      </trkpt>
      <trkpt lat="63.009196976199746" lon="7.431459976360202">
        <ele>15.52</ele>
        <time>2017-06-21T07:29:07Z</time>
      </trkpt>
      <trkpt lat="63.009235030040145" lon="7.431596014648676">
        <ele>15.52</ele>
        <time>2017-06-21T07:29:08Z</time>
      </trkpt>
      <trkpt lat="63.009687988087535" lon="7.433012975379825">
        <ele>15.52</ele>
        <time>2017-06-21T07:29:15Z</time>
      </trkpt>
      <trkpt lat="63.010447975248098" lon="7.435307018458843">
        <ele>15.039999999999999</ele>
        <time>2017-06-21T07:29:23Z</time>
      </trkpt>
      <trkpt lat="63.011518009006977" lon="7.438636980950832">
        <ele>17.440000000000001</ele>
        <time>2017-06-21T07:29:33Z</time>
      </trkpt>
      <trkpt lat="63.01322003826499" lon="7.443963009864092">
        <ele>24.649999999999999</ele>
        <time>2017-06-21T07:29:50Z</time>
      </trkpt>
      <trkpt lat="63.01476800814271" lon="7.448766008019447">
        <ele>25.609999999999999</ele>
        <time>2017-06-21T07:30:06Z</time>
      </trkpt>
      <trkpt lat="63.015230018645525" lon="7.450586976483464">
        <ele>18.879999999999999</ele>
        <time>2017-06-21T07:30:12Z</time>
      </trkpt>
      <trkpt lat="63.015272011980414" lon="7.450928958132863">
        <ele>17.920000000000002</ele>
        <time>2017-06-21T07:30:13Z</time>
      </trkpt>
      <trkpt lat="63.01530503667891" lon="7.451277980580926">
        <ele>16.960000000000001</ele>
        <time>2017-06-21T07:30:14Z</time>
      </trkpt>
      <trkpt lat="63.015555990859866" lon="7.456810036674142">
        <ele>19.359999999999999</ele>
        <time>2017-06-21T07:30:29Z</time>
      </trkpt>
      <trkpt lat="63.01582396030426" lon="7.462706035003066">
        <ele>27.530000000000001</ele>
        <time>2017-06-21T07:30:45Z</time>
      </trkpt>
      <trkpt lat="63.016042979434133" lon="7.468755003064871">
        <ele>32.340000000000003</ele>
        <time>2017-06-21T07:31:03Z</time>
      </trkpt>
      <trkpt lat="63.015956981107593" lon="7.473107976838946">
        <ele>36.189999999999998</ele>
        <time>2017-06-21T07:31:14Z</time>
      </trkpt>
      <trkpt lat="63.01571499556303" lon="7.482500988990068">
        <ele>45.799999999999997</ele>
        <time>2017-06-21T07:31:35Z</time>
      </trkpt>
      <trkpt lat="63.015937032178044" lon="7.485108012333512">
        <ele>46.280000000000001</ele>
        <time>2017-06-21T07:31:42Z</time>
      </trkpt>
      <trkpt lat="63.016596017405391" lon="7.487583020702004">
        <ele>46.280000000000001</ele>
        <time>2017-06-21T07:31:49Z</time>
      </trkpt>
      <trkpt lat="63.018071986734867" lon="7.491669030860066">
        <ele>50.609999999999999</ele>
        <time>2017-06-21T07:32:00Z</time>
      </trkpt>
      <trkpt lat="63.018973041325808" lon="7.495205020532012">
        <ele>55.409999999999997</ele>
        <time>2017-06-21T07:32:09Z</time>
      </trkpt>
      <trkpt lat="63.020209958776832" lon="7.501147035509348">
        <ele>53.969999999999999</ele>
        <time>2017-06-21T07:32:23Z</time>
      </trkpt>
      <trkpt lat="63.020252035930753" lon="7.501597981899977">
        <ele>53.969999999999999</ele>
        <time>2017-06-21T07:32:24Z</time>
      </trkpt>
      <trkpt lat="63.020405005663633" lon="7.506733993068337">
        <ele>51.57</ele>
        <time>2017-06-21T07:32:35Z</time>
      </trkpt>
      <trkpt lat="63.020550012588501" lon="7.512305025011301">
        <ele>41.950000000000003</ele>
        <time>2017-06-21T07:32:48Z</time>
      </trkpt>
      <trkpt lat="63.020709017291665" lon="7.518295990303159">
        <ele>33.780000000000001</ele>
        <time>2017-06-21T07:33:03Z</time>
      </trkpt>
      <trkpt lat="63.02052897401154" lon="7.521766014397144">
        <ele>34.259999999999998</ele>
        <time>2017-06-21T07:33:11Z</time>
      </trkpt>
      <trkpt lat="63.019739985466003" lon="7.52605696208775">
        <ele>48.68</ele>
        <time>2017-06-21T07:33:22Z</time>
      </trkpt>
      <trkpt lat="63.019014028832316" lon="7.528277998790145">
        <ele>57.82</ele>
        <time>2017-06-21T07:33:29Z</time>
      </trkpt>
      <trkpt lat="63.017519032582641" lon="7.530471961945295">
        <ele>53.009999999999998</ele>
        <time>2017-06-21T07:33:39Z</time>
      </trkpt>
      <trkpt lat="63.016432989388704" lon="7.532795006409288">
        <ele>46.759999999999998</ele>
        <time>2017-06-21T07:33:47Z</time>
      </trkpt>
      <trkpt lat="63.014280013740063" lon="7.538203010335565">
        <ele>47.240000000000002</ele>
        <time>2017-06-21T07:34:04Z</time>
      </trkpt>
      <trkpt lat="63.013498988002539" lon="7.541018994525075">
        <ele>43.880000000000003</ele>
        <time>2017-06-21T07:34:12Z</time>
      </trkpt>
      <trkpt lat="63.012187974527478" lon="7.548026014119387">
        <ele>45.32</ele>
        <time>2017-06-21T07:34:29Z</time>
      </trkpt>
      <trkpt lat="63.011192958801985" lon="7.554732039570808">
        <ele>43.399999999999999</ele>
        <time>2017-06-21T07:34:45Z</time>
      </trkpt>
      <trkpt lat="63.010542020201683" lon="7.557341996580362">
        <ele>36.189999999999998</ele>
        <time>2017-06-21T07:34:52Z</time>
      </trkpt>
      <trkpt lat="63.009291021153331" lon="7.561553986743093">
        <ele>23.690000000000001</ele>
        <time>2017-06-21T07:35:04Z</time>
      </trkpt>
      <trkpt lat="63.009242992848158" lon="7.56191398948431">
        <ele>22.25</ele>
        <time>2017-06-21T07:35:05Z</time>
      </trkpt>
      <trkpt lat="63.009214997291565" lon="7.562286984175444">
        <ele>20.809999999999999</ele>
        <time>2017-06-21T07:35:06Z</time>
      </trkpt>
      <trkpt lat="63.00920301117003" lon="7.562673976644874">
        <ele>19.359999999999999</ele>
        <time>2017-06-21T07:35:07Z</time>
      </trkpt>
      <trkpt lat="63.009197982028127" lon="7.563078990206122">
        <ele>17.920000000000002</ele>
        <time>2017-06-21T07:35:08Z</time>
      </trkpt>
      <trkpt lat="63.009221032261848" lon="7.568624038249254">
        <ele>3.98</ele>
        <time>2017-06-21T07:35:21Z</time>
      </trkpt>
      <trkpt lat="63.008973011747003" lon="7.57190203294158">
        <ele>5.91</ele>
        <time>2017-06-21T07:35:29Z</time>
      </trkpt>
      <trkpt lat="63.008546037599444" lon="7.574581978842616">
        <ele>8.789999999999999</ele>
        <time>2017-06-21T07:35:36Z</time>
      </trkpt>
      <trkpt lat="63.008529022336006" lon="7.574980035424233">
        <ele>9.75</ele>
        <time>2017-06-21T07:35:37Z</time>
      </trkpt>
      <trkpt lat="63.008526004850864" lon="7.575377002358437">
        <ele>9.75</ele>
        <time>2017-06-21T07:35:38Z</time>
      </trkpt>
      <trkpt lat="63.008536985144019" lon="7.575768018141389">
        <ele>10.23</ele>
        <time>2017-06-21T07:35:39Z</time>
      </trkpt>
      <trkpt lat="63.00856196321547" lon="7.576148975640535">
        <ele>10.710000000000001</ele>
        <time>2017-06-21T07:35:40Z</time>
      </trkpt>
      <trkpt lat="63.008595993742347" lon="7.576519958674908">
        <ele>11.19</ele>
        <time>2017-06-21T07:35:41Z</time>
      </trkpt>
      <trkpt lat="63.008636981248856" lon="7.576883984729648">
        <ele>11.19</ele>
        <time>2017-06-21T07:35:42Z</time>
      </trkpt>
      <trkpt lat="63.009170992299914" lon="7.580463979393244">
        <ele>22.73</ele>
        <time>2017-06-21T07:35:53Z</time>
      </trkpt>
      <trkpt lat="63.00986903719604" lon="7.582766991108656">
        <ele>27.530000000000001</ele>
        <time>2017-06-21T07:36:01Z</time>
      </trkpt>
      <trkpt lat="63.010311014950275" lon="7.583709033206105">
        <ele>29.460000000000001</ele>
        <time>2017-06-21T07:36:05Z</time>
      </trkpt>
      <trkpt lat="63.010440012440085" lon="7.583879018202424">
        <ele>29.940000000000001</ele>
        <time>2017-06-21T07:36:06Z</time>
      </trkpt>
      <trkpt lat="63.011101009324193" lon="7.584771020337939">
        <ele>29.940000000000001</ele>
        <time>2017-06-21T07:36:11Z</time>
      </trkpt>
      <trkpt lat="63.011219026520848" lon="7.585024992004037">
        <ele>29.940000000000001</ele>
        <time>2017-06-21T07:36:12Z</time>
      </trkpt>
      <trkpt lat="63.011325979605317" lon="7.585307965055108">
        <ele>29.940000000000001</ele>
        <time>2017-06-21T07:36:13Z</time>
      </trkpt>
      <trkpt lat="63.012505983933806" lon="7.588502978906035">
        <ele>21.289999999999999</ele>
        <time>2017-06-21T07:36:24Z</time>
      </trkpt>
      <trkpt lat="63.013427993282676" lon="7.590383961796761">
        <ele>11.67</ele>
        <time>2017-06-21T07:36:31Z</time>
      </trkpt>
      <trkpt lat="63.013569982722402" lon="7.590582026168704">
        <ele>11.67</ele>
        <time>2017-06-21T07:36:32Z</time>
      </trkpt>
      <trkpt lat="63.013718007132411" lon="7.59074698202312">
        <ele>11.67</ele>
        <time>2017-06-21T07:36:33Z</time>
      </trkpt>
      <trkpt lat="63.013872988522053" lon="7.590872962027788">
        <ele>11.67</ele>
        <time>2017-06-21T07:36:34Z</time>
      </trkpt>
      <trkpt lat="63.01403702236712" lon="7.590944040566683">
        <ele>11.19</ele>
        <time>2017-06-21T07:36:35Z</time>
      </trkpt>
      <trkpt lat="63.014203989878297" lon="7.59096197783947">
        <ele>11.19</ele>
        <time>2017-06-21T07:36:36Z</time>
      </trkpt>
      <trkpt lat="63.014368023723364" lon="7.590949991717935">
        <ele>10.710000000000001</ele>
        <time>2017-06-21T07:36:37Z</time>
      </trkpt>
      <trkpt lat="63.014534991234541" lon="7.590862987563014">
        <ele>10.710000000000001</ele>
        <time>2017-06-21T07:36:38Z</time>
      </trkpt>
      <trkpt lat="63.014702964574099" lon="7.590730972588062">
        <ele>11.19</ele>
        <time>2017-06-21T07:36:39Z</time>
      </trkpt>
      <trkpt lat="63.014865992590785" lon="7.590578002855182">
        <ele>11.19</ele>
        <time>2017-06-21T07:36:40Z</time>
      </trkpt>
      <trkpt lat="63.016411028802395" lon="7.589424988254905">
        <ele>5.91</ele>
        <time>2017-06-21T07:36:49Z</time>
      </trkpt>
      <trkpt lat="63.018276002258062" lon="7.588268034160137">
        <ele>8.789999999999999</ele>
        <time>2017-06-21T07:37:00Z</time>
      </trkpt>
      <trkpt lat="63.019166998565197" lon="7.587774004787207">
        <ele>10.23</ele>
        <time>2017-06-21T07:37:06Z</time>
      </trkpt>
      <trkpt lat="63.019304964691401" lon="7.587774004787207">
        <ele>11.19</ele>
        <time>2017-06-21T07:37:07Z</time>
      </trkpt>
      <trkpt lat="63.019441002979875" lon="7.587837958708406">
        <ele>11.67</ele>
        <time>2017-06-21T07:37:08Z</time>
      </trkpt>
      <trkpt lat="63.019573017954826" lon="7.58795497007668">
        <ele>12.15</ele>
        <time>2017-06-21T07:37:09Z</time>
      </trkpt>
      <trkpt lat="63.019695980474353" lon="7.588120009750128">
        <ele>13.119999999999999</ele>
        <time>2017-06-21T07:37:10Z</time>
      </trkpt>
      <trkpt lat="63.019810980185866" lon="7.588325031101704">
        <ele>13.6</ele>
        <time>2017-06-21T07:37:11Z</time>
      </trkpt>
      <trkpt lat="63.019906030967832" lon="7.588582020252943">
        <ele>13.6</ele>
        <time>2017-06-21T07:37:12Z</time>
      </trkpt>
      <trkpt lat="63.019998986274004" lon="7.588863987475634">
        <ele>14.08</ele>
        <time>2017-06-21T07:37:13Z</time>
      </trkpt>
      <trkpt lat="63.02087196148932" lon="7.592291012406349">
        <ele>23.210000000000001</ele>
        <time>2017-06-21T07:37:23Z</time>
      </trkpt>
      <trkpt lat="63.021659022197127" lon="7.596448017284274">
        <ele>22.73</ele>
        <time>2017-06-21T07:37:34Z</time>
      </trkpt>
      <trkpt lat="63.021758012473583" lon="7.596764015033841">
        <ele>22.25</ele>
        <time>2017-06-21T07:37:35Z</time>
      </trkpt>
      <trkpt lat="63.021871000528336" lon="7.597059980034828">
        <ele>21.289999999999999</ele>
        <time>2017-06-21T07:37:36Z</time>
      </trkpt>
      <trkpt lat="63.022001003846526" lon="7.597334990277886">
        <ele>21.289999999999999</ele>
        <time>2017-06-21T07:37:37Z</time>
      </trkpt>
      <trkpt lat="63.022140981629491" lon="7.597573036327958">
        <ele>21.289999999999999</ele>
        <time>2017-06-21T07:37:38Z</time>
      </trkpt>
      <trkpt lat="63.0222890060395" lon="7.597775040194392">
        <ele>20.809999999999999</ele>
        <time>2017-06-21T07:37:39Z</time>
      </trkpt>
      <trkpt lat="63.022449016571045" lon="7.597931027412415">
        <ele>20.809999999999999</ele>
        <time>2017-06-21T07:37:40Z</time>
      </trkpt>
      <trkpt lat="63.022617995738983" lon="7.598043009638786">
        <ele>20.809999999999999</ele>
        <time>2017-06-21T07:37:41Z</time>
      </trkpt>
      <trkpt lat="63.022797033190727" lon="7.598122972995043">
        <ele>21.289999999999999</ele>
        <time>2017-06-21T07:37:42Z</time>
      </trkpt>
      <trkpt lat="63.022982021793723" lon="7.598174018785358">
        <ele>21.289999999999999</ele>
        <time>2017-06-21T07:37:43Z</time>
      </trkpt>
      <trkpt lat="63.02316902205348" lon="7.598198996856809">
        <ele>21.289999999999999</ele>
        <time>2017-06-21T07:37:44Z</time>
      </trkpt>
      <trkpt lat="63.023359961807728" lon="7.598183993250132">
        <ele>20.809999999999999</ele>
        <time>2017-06-21T07:37:45Z</time>
      </trkpt>
      <trkpt lat="63.023548973724246" lon="7.598140994086862">
        <ele>20.809999999999999</ele>
        <time>2017-06-21T07:37:46Z</time>
      </trkpt>
      <trkpt lat="63.023738991469145" lon="7.598079973831773">
        <ele>20.809999999999999</ele>
        <time>2017-06-21T07:37:47Z</time>
      </trkpt>
      <trkpt lat="63.027041964232922" lon="7.596869962289929">
        <ele>30.899999999999999</ele>
        <time>2017-06-21T07:38:04Z</time>
      </trkpt>
      <trkpt lat="63.027908988296986" lon="7.596611967310309">
        <ele>33.780000000000001</ele>
        <time>2017-06-21T07:38:09Z</time>
      </trkpt>
      <trkpt lat="63.028066987171769" lon="7.59665303863585">
        <ele>34.740000000000002</ele>
        <time>2017-06-21T07:38:10Z</time>
      </trkpt>
      <trkpt lat="63.028223980218172" lon="7.596753034740686">
        <ele>36.189999999999998</ele>
        <time>2017-06-21T07:38:11Z</time>
      </trkpt>
      <trkpt lat="63.028367981314659" lon="7.596904998645186">
        <ele>37.149999999999999</ele>
        <time>2017-06-21T07:38:12Z</time>
      </trkpt>
      <trkpt lat="63.028502007946372" lon="7.597118988633156">
        <ele>38.590000000000003</ele>
        <time>2017-06-21T07:38:13Z</time>
      </trkpt>
      <trkpt lat="63.028624970465899" lon="7.597378995269537">
        <ele>40.030000000000001</ele>
        <time>2017-06-21T07:38:14Z</time>
      </trkpt>
      <trkpt lat="63.028742987662554" lon="7.597674038261175">
        <ele>40.990000000000002</ele>
        <time>2017-06-21T07:38:15Z</time>
      </trkpt>
      <trkpt lat="63.028856981545687" lon="7.597989030182362">
        <ele>42.439999999999998</ele>
        <time>2017-06-21T07:38:16Z</time>
      </trkpt>
      <trkpt lat="63.030189033597708" lon="7.601528037339449">
        <ele>43.399999999999999</ele>
        <time>2017-06-21T07:38:27Z</time>
      </trkpt>
      <trkpt lat="63.030339991673827" lon="7.601752001792193">
        <ele>43.399999999999999</ele>
        <time>2017-06-21T07:38:28Z</time>
      </trkpt>
      <trkpt lat="63.030502013862133" lon="7.601929027587175">
        <ele>43.880000000000003</ele>
        <time>2017-06-21T07:38:29Z</time>
      </trkpt>
      <trkpt lat="63.031266024336219" lon="7.602708963677287">
        <ele>46.280000000000001</ele>
        <time>2017-06-21T07:38:34Z</time>
      </trkpt>
      <trkpt lat="63.031387981027365" lon="7.602939968928695">
        <ele>46.280000000000001</ele>
        <time>2017-06-21T07:38:35Z</time>
      </trkpt>
      <trkpt lat="63.031492000445724" lon="7.603216990828514">
        <ele>46.280000000000001</ele>
        <time>2017-06-21T07:38:36Z</time>
      </trkpt>
      <trkpt lat="63.031581016257405" lon="7.603539023548365">
        <ele>45.799999999999997</ele>
        <time>2017-06-21T07:38:37Z</time>
      </trkpt>
      <trkpt lat="63.031661985442042" lon="7.603877987712622">
        <ele>45.799999999999997</ele>
        <time>2017-06-21T07:38:38Z</time>
      </trkpt>
      <trkpt lat="63.032145034521818" lon="7.605541963130236">
        <ele>42.920000000000002</ele>
        <time>2017-06-21T07:38:43Z</time>
      </trkpt>
      <trkpt lat="63.032277971506119" lon="7.605826025828719">
        <ele>42.439999999999998</ele>
        <time>2017-06-21T07:38:44Z</time>
      </trkpt>
      <trkpt lat="63.032421972602606" lon="7.606090977787972">
        <ele>41.469999999999999</ele>
        <time>2017-06-21T07:38:45Z</time>
      </trkpt>
      <trkpt lat="63.034155014902353" lon="7.608577972277999">
        <ele>43.399999999999999</ele>
        <time>2017-06-21T07:38:56Z</time>
      </trkpt>
      <trkpt lat="63.034332040697336" lon="7.608735971152782">
        <ele>42.439999999999998</ele>
        <time>2017-06-21T07:38:57Z</time>
      </trkpt>
      <trkpt lat="63.034509988501668" lon="7.608834961429238">
        <ele>40.990000000000002</ele>
        <time>2017-06-21T07:38:58Z</time>
      </trkpt>
      <trkpt lat="63.03468500263989" lon="7.60885801166296">
        <ele>40.509999999999998</ele>
        <time>2017-06-21T07:38:59Z</time>
      </trkpt>
      <trkpt lat="63.034851970151067" lon="7.608807971701026">
        <ele>39.549999999999997</ele>
        <time>2017-06-21T07:39:00Z</time>
      </trkpt>
      <trkpt lat="63.035024972632527" lon="7.608715016394854">
        <ele>39.07</ele>
        <time>2017-06-21T07:39:01Z</time>
      </trkpt>
      <trkpt lat="63.035707008093596" lon="7.608423996716738">
        <ele>36.670000000000002</ele>
        <time>2017-06-21T07:39:05Z</time>
      </trkpt>
      <trkpt lat="63.035883028060198" lon="7.608431037515402">
        <ele>36.189999999999998</ele>
        <time>2017-06-21T07:39:06Z</time>
      </trkpt>
      <trkpt lat="63.03606198169291" lon="7.608481999486685">
        <ele>35.710000000000001</ele>
        <time>2017-06-21T07:39:07Z</time>
      </trkpt>
      <trkpt lat="63.036235990002751" lon="7.608589958399534">
        <ele>35.710000000000001</ele>
        <time>2017-06-21T07:39:08Z</time>
      </trkpt>
      <trkpt lat="63.03640304133296" lon="7.608747035264969">
        <ele>35.710000000000001</ele>
        <time>2017-06-21T07:39:09Z</time>
      </trkpt>
      <trkpt lat="63.036560034379363" lon="7.608949039131403">
        <ele>35.229999999999997</ele>
        <time>2017-06-21T07:39:10Z</time>
      </trkpt>
      <trkpt lat="63.036701017990708" lon="7.609198987483978">
        <ele>35.710000000000001</ele>
        <time>2017-06-21T07:39:11Z</time>
      </trkpt>
      <trkpt lat="63.036821968853474" lon="7.609485983848572">
        <ele>36.189999999999998</ele>
        <time>2017-06-21T07:39:12Z</time>
      </trkpt>
      <trkpt lat="63.036925988271832" lon="7.609808016568422">
        <ele>36.670000000000002</ele>
        <time>2017-06-21T07:39:13Z</time>
      </trkpt>
      <trkpt lat="63.037020033225417" lon="7.610140023753047">
        <ele>37.149999999999999</ele>
        <time>2017-06-21T07:39:14Z</time>
      </trkpt>
      <trkpt lat="63.037213990464807" lon="7.610722985118628">
        <ele>38.109999999999999</ele>
        <time>2017-06-21T07:39:16Z</time>
      </trkpt>
      <trkpt lat="63.037323961034417" lon="7.6109420042485">
        <ele>37.149999999999999</ele>
        <time>2017-06-21T07:39:17Z</time>
      </trkpt>
      <trkpt lat="63.037447007372975" lon="7.611107965931296">
        <ele>37.149999999999999</ele>
        <time>2017-06-21T07:39:18Z</time>
      </trkpt>
      <trkpt lat="63.037585979327559" lon="7.611235035583377">
        <ele>37.149999999999999</ele>
        <time>2017-06-21T07:39:19Z</time>
      </trkpt>
      <trkpt lat="63.037740960717201" lon="7.611320028081536">
        <ele>37.149999999999999</ele>
        <time>2017-06-21T07:39:20Z</time>
      </trkpt>
      <trkpt lat="63.037910023704171" lon="7.611368978396058">
        <ele>36.670000000000002</ele>
        <time>2017-06-21T07:39:21Z</time>
      </trkpt>
      <trkpt lat="63.038084032014012" lon="7.611411977559328">
        <ele>36.189999999999998</ele>
        <time>2017-06-21T07:39:22Z</time>
      </trkpt>
      <trkpt lat="63.038266003131866" lon="7.611484983935952">
        <ele>35.229999999999997</ele>
        <time>2017-06-21T07:39:23Z</time>
      </trkpt>
      <trkpt lat="63.03844403475523" lon="7.611614987254143">
        <ele>34.740000000000002</ele>
        <time>2017-06-21T07:39:24Z</time>
      </trkpt>
      <trkpt lat="63.03861896507442" lon="7.611796036362648">
        <ele>34.259999999999998</ele>
        <time>2017-06-21T07:39:25Z</time>
      </trkpt>
      <trkpt lat="63.039423041045666" lon="7.613000012934208">
        <ele>35.229999999999997</ele>
        <time>2017-06-21T07:39:30Z</time>
      </trkpt>
      <trkpt lat="63.039556983858347" lon="7.613311987370253">
        <ele>34.740000000000002</ele>
        <time>2017-06-21T07:39:31Z</time>
      </trkpt>
      <trkpt lat="63.039667960256338" lon="7.613652963191271">
        <ele>34.740000000000002</ele>
        <time>2017-06-21T07:39:32Z</time>
      </trkpt>
      <trkpt lat="63.039754964411259" lon="7.614028975367546">
        <ele>34.740000000000002</ele>
        <time>2017-06-21T07:39:33Z</time>
      </trkpt>
      <trkpt lat="63.03982101380825" lon="7.614429965615273">
        <ele>34.740000000000002</ele>
        <time>2017-06-21T07:39:34Z</time>
      </trkpt>
      <trkpt lat="63.039872981607914" lon="7.614844031631947">
        <ele>34.740000000000002</ele>
        <time>2017-06-21T07:39:35Z</time>
      </trkpt>
      <trkpt lat="63.039921009913087" lon="7.615248039364815">
        <ele>34.740000000000002</ele>
        <time>2017-06-21T07:39:36Z</time>
      </trkpt>
      <trkpt lat="63.040041960775852" lon="7.616026969626546">
        <ele>34.259999999999998</ele>
        <time>2017-06-21T07:39:38Z</time>
      </trkpt>
      <trkpt lat="63.040127037093043" lon="7.616387978196144">
        <ele>34.740000000000002</ele>
        <time>2017-06-21T07:39:39Z</time>
      </trkpt>
      <trkpt lat="63.040225021541119" lon="7.616737000644207">
        <ele>34.740000000000002</ele>
        <time>2017-06-21T07:39:40Z</time>
      </trkpt>
      <trkpt lat="63.040333986282349" lon="7.617068002000451">
        <ele>34.740000000000002</ele>
        <time>2017-06-21T07:39:41Z</time>
      </trkpt>
      <trkpt lat="63.040447980165482" lon="7.617376958951354">
        <ele>34.740000000000002</ele>
        <time>2017-06-21T07:39:42Z</time>
      </trkpt>
      <trkpt lat="63.040687032043934" lon="7.617890015244484">
        <ele>34.740000000000002</ele>
        <time>2017-06-21T07:39:44Z</time>
      </trkpt>
      <trkpt lat="63.040820974856615" lon="7.618066035211086">
        <ele>35.229999999999997</ele>
        <time>2017-06-21T07:39:45Z</time>
      </trkpt>
      <trkpt lat="63.040972016751766" lon="7.618190003558993">
        <ele>35.710000000000001</ele>
        <time>2017-06-21T07:39:46Z</time>
      </trkpt>
      <trkpt lat="63.042068034410477" lon="7.618873966857791">
        <ele>38.590000000000003</ele>
        <time>2017-06-21T07:39:53Z</time>
      </trkpt>
      <trkpt lat="63.042201977223158" lon="7.618899028748274">
        <ele>39.549999999999997</ele>
        <time>2017-06-21T07:39:54Z</time>
      </trkpt>
      <trkpt lat="63.04233499802649" lon="7.618852006271482">
        <ele>40.030000000000001</ele>
        <time>2017-06-21T07:39:55Z</time>
      </trkpt>
      <trkpt lat="63.042457038536668" lon="7.618731977418065">
        <ele>40.990000000000002</ele>
        <time>2017-06-21T07:39:56Z</time>
      </trkpt>
      <trkpt lat="63.042562985792756" lon="7.618536008521915">
        <ele>41.469999999999999</ele>
        <time>2017-06-21T07:39:57Z</time>
      </trkpt>
      <trkpt lat="63.042652001604438" lon="7.618306009098887">
        <ele>41.950000000000003</ele>
        <time>2017-06-21T07:39:58Z</time>
      </trkpt>
      <trkpt lat="63.042730037122965" lon="7.618057988584042">
        <ele>42.439999999999998</ele>
        <time>2017-06-21T07:39:59Z</time>
      </trkpt>
      <trkpt lat="63.042820980772376" lon="7.617816003039479">
        <ele>42.920000000000002</ele>
        <time>2017-06-21T07:40:00Z</time>
      </trkpt>
      <trkpt lat="63.042927011847496" lon="7.617595978081226">
        <ele>43.399999999999999</ele>
        <time>2017-06-21T07:40:01Z</time>
      </trkpt>
      <trkpt lat="63.043051986023784" lon="7.617411995306611">
        <ele>44.359999999999999</ele>
        <time>2017-06-21T07:40:02Z</time>
      </trkpt>
      <trkpt lat="63.043185006827116" lon="7.617253996431828">
        <ele>45.32</ele>
        <time>2017-06-21T07:40:03Z</time>
      </trkpt>
      <trkpt lat="63.043310986831784" lon="7.617089962586761">
        <ele>44.840000000000003</ele>
        <time>2017-06-21T07:40:04Z</time>
      </trkpt>
      <trkpt lat="63.043419029563665" lon="7.616877984255552">
        <ele>44.359999999999999</ele>
        <time>2017-06-21T07:40:05Z</time>
      </trkpt>
      <trkpt lat="63.043512990698218" lon="7.616642033681274">
        <ele>45.32</ele>
        <time>2017-06-21T07:40:06Z</time>
      </trkpt>
      <trkpt lat="63.043596977367997" lon="7.616411028429866">
        <ele>46.280000000000001</ele>
        <time>2017-06-21T07:40:07Z</time>
      </trkpt>
      <trkpt lat="63.04368800483644" lon="7.616212964057922">
        <ele>46.759999999999998</ele>
        <time>2017-06-21T07:40:08Z</time>
      </trkpt>
      <trkpt lat="63.043789006769657" lon="7.6160569768399">
        <ele>47.240000000000002</ele>
        <time>2017-06-21T07:40:09Z</time>
      </trkpt>
      <trkpt lat="63.043899983167648" lon="7.615955974906683">
        <ele>47.719999999999999</ele>
        <time>2017-06-21T07:40:10Z</time>
      </trkpt>
      <trkpt lat="63.044019006192684" lon="7.615939965471625">
        <ele>48.200000000000003</ele>
        <time>2017-06-21T07:40:11Z</time>
      </trkpt>
      <trkpt lat="63.044144986197352" lon="7.616011966019869">
        <ele>48.68</ele>
        <time>2017-06-21T07:40:12Z</time>
      </trkpt>
      <trkpt lat="63.044269038364291" lon="7.61616300791502">
        <ele>49.159999999999997</ele>
        <time>2017-06-21T07:40:13Z</time>
      </trkpt>
      <trkpt lat="63.044386971741915" lon="7.616351014003158">
        <ele>50.130000000000003</ele>
        <time>2017-06-21T07:40:14Z</time>
      </trkpt>
      <trkpt lat="63.044498031958938" lon="7.616594005376101">
        <ele>50.130000000000003</ele>
        <time>2017-06-21T07:40:15Z</time>
      </trkpt>
      <trkpt lat="63.044605990871787" lon="7.616876978427172">
        <ele>50.130000000000003</ele>
        <time>2017-06-21T07:40:16Z</time>
      </trkpt>
      <trkpt lat="63.044709004461765" lon="7.617181995883584">
        <ele>50.130000000000003</ele>
        <time>2017-06-21T07:40:17Z</time>
      </trkpt>
      <trkpt lat="63.045031959190965" lon="7.61807600967586">
        <ele>46.280000000000001</ele>
        <time>2017-06-21T07:40:20Z</time>
      </trkpt>
      <trkpt lat="63.045156011357903" lon="7.618317995220423">
        <ele>45.799999999999997</ele>
        <time>2017-06-21T07:40:21Z</time>
      </trkpt>
      <trkpt lat="63.045290959998965" lon="7.618541959673166">
        <ele>45.799999999999997</ele>
        <time>2017-06-21T07:40:22Z</time>
      </trkpt>
      <trkpt lat="63.046195032075047" lon="7.619914999231696">
        <ele>40.990000000000002</ele>
        <time>2017-06-21T07:40:29Z</time>
      </trkpt>
      <trkpt lat="63.046326041221619" lon="7.620028993114829">
        <ele>39.549999999999997</ele>
        <time>2017-06-21T07:40:30Z</time>
      </trkpt>
      <trkpt lat="63.046463001519442" lon="7.620070986449719">
        <ele>39.07</ele>
        <time>2017-06-21T07:40:31Z</time>
      </trkpt>
      <trkpt lat="63.046603985130787" lon="7.620037039741874">
        <ele>38.590000000000003</ele>
        <time>2017-06-21T07:40:32Z</time>
      </trkpt>
      <trkpt lat="63.046731976792216" lon="7.619939977303147">
        <ele>38.590000000000003</ele>
        <time>2017-06-21T07:40:33Z</time>
      </trkpt>
      <trkpt lat="63.046843037009239" lon="7.619777033105493">
        <ele>38.590000000000003</ele>
        <time>2017-06-21T07:40:34Z</time>
      </trkpt>
      <trkpt lat="63.046948984265327" lon="7.619599001482129">
        <ele>38.590000000000003</ele>
        <time>2017-06-21T07:40:35Z</time>
      </trkpt>
      <trkpt lat="63.047065995633602" lon="7.619415018707514">
        <ele>38.590000000000003</ele>
        <time>2017-06-21T07:40:36Z</time>
      </trkpt>
      <trkpt lat="63.047192981466651" lon="7.619275962933898">
        <ele>38.590000000000003</ele>
        <time>2017-06-21T07:40:37Z</time>
      </trkpt>
      <trkpt lat="63.04734000004828" lon="7.619184013456106">
        <ele>38.590000000000003</ele>
        <time>2017-06-21T07:40:38Z</time>
      </trkpt>
      <trkpt lat="63.047494981437922" lon="7.619129028171301">
        <ele>40.030000000000001</ele>
        <time>2017-06-21T07:40:39Z</time>
      </trkpt>
      <trkpt lat="63.047652980312705" lon="7.619116958230734">
        <ele>40.030000000000001</ele>
        <time>2017-06-21T07:40:40Z</time>
      </trkpt>
      <trkpt lat="63.047817014157772" lon="7.619117964059115">
        <ele>40.030000000000001</ele>
        <time>2017-06-21T07:40:41Z</time>
      </trkpt>
      <trkpt lat="63.048456972464919" lon="7.619244027882814">
        <ele>41.469999999999999</ele>
        <time>2017-06-21T07:40:45Z</time>
      </trkpt>
      <trkpt lat="63.048583958297968" lon="7.619374031201005">
        <ele>41.469999999999999</ele>
        <time>2017-06-21T07:40:46Z</time>
      </trkpt>
      <trkpt lat="63.048690995201468" lon="7.619562959298492">
        <ele>40.990000000000002</ele>
        <time>2017-06-21T07:40:47Z</time>
      </trkpt>
      <trkpt lat="63.048781016841531" lon="7.619809973984957">
        <ele>40.990000000000002</ele>
        <time>2017-06-21T07:40:48Z</time>
      </trkpt>
      <trkpt lat="63.048860980197787" lon="7.620107028633356">
        <ele>38.109999999999999</ele>
        <time>2017-06-21T07:40:49Z</time>
      </trkpt>
      <trkpt lat="63.048945972695947" lon="7.620386984199286">
        <ele>37.149999999999999</ele>
        <time>2017-06-21T07:40:50Z</time>
      </trkpt>
      <trkpt lat="63.049044962972403" lon="7.620640033856034">
        <ele>36.189999999999998</ele>
        <time>2017-06-21T07:40:51Z</time>
      </trkpt>
      <trkpt lat="63.049162980169058" lon="7.620838014408946">
        <ele>34.740000000000002</ele>
        <time>2017-06-21T07:40:52Z</time>
      </trkpt>
      <trkpt lat="63.049293989315629" lon="7.620973968878388">
        <ele>33.299999999999997</ele>
        <time>2017-06-21T07:40:53Z</time>
      </trkpt>
      <trkpt lat="63.049434972926974" lon="7.621078994125128">
        <ele>32.340000000000003</ele>
        <time>2017-06-21T07:40:54Z</time>
      </trkpt>
      <trkpt lat="63.049578974023461" lon="7.621177984401584">
        <ele>31.379999999999999</ele>
        <time>2017-06-21T07:40:55Z</time>
      </trkpt>
      <trkpt lat="63.049720041453838" lon="7.621290972456336">
        <ele>30.420000000000002</ele>
        <time>2017-06-21T07:40:56Z</time>
      </trkpt>
      <trkpt lat="63.0498549900949" lon="7.621445031836629">
        <ele>28.98</ele>
        <time>2017-06-21T07:40:57Z</time>
      </trkpt>
      <trkpt lat="63.04998398758471" lon="7.621654998511076">
        <ele>27.530000000000001</ele>
        <time>2017-06-21T07:40:58Z</time>
      </trkpt>
      <trkpt lat="63.050102004781365" lon="7.621888015419245">
        <ele>26.57</ele>
        <time>2017-06-21T07:40:59Z</time>
      </trkpt>
      <trkpt lat="63.050209963694215" lon="7.622132012620568">
        <ele>25.129999999999999</ele>
        <time>2017-06-21T07:41:00Z</time>
      </trkpt>
      <trkpt lat="63.050509029999375" lon="7.622837014496326">
        <ele>20.809999999999999</ele>
        <time>2017-06-21T07:41:03Z</time>
      </trkpt>
      <trkpt lat="63.050625035539269" lon="7.622999036684632">
        <ele>20.32</ele>
        <time>2017-06-21T07:41:04Z</time>
      </trkpt>
      <trkpt lat="63.050754033029079" lon="7.623111018911004">
        <ele>19.84</ele>
        <time>2017-06-21T07:41:05Z</time>
      </trkpt>
      <trkpt lat="63.051022002473474" lon="7.623336995020509">
        <ele>17.920000000000002</ele>
        <time>2017-06-21T07:41:07Z</time>
      </trkpt>
      <trkpt lat="63.051137002184987" lon="7.62353396974504">
        <ele>16.960000000000001</ele>
        <time>2017-06-21T07:41:08Z</time>
      </trkpt>
      <trkpt lat="63.051225012168288" lon="7.623779978603125">
        <ele>15.52</ele>
        <time>2017-06-21T07:41:09Z</time>
      </trkpt>
      <trkpt lat="63.051301036030054" lon="7.624073009938002">
        <ele>14.08</ele>
        <time>2017-06-21T07:41:10Z</time>
      </trkpt>
      <trkpt lat="63.051370019093156" lon="7.62439101934433">
        <ele>12.630000000000001</ele>
        <time>2017-06-21T07:41:11Z</time>
      </trkpt>
      <trkpt lat="63.051534974947572" lon="7.625404978170991">
        <ele>9.27</ele>
        <time>2017-06-21T07:41:14Z</time>
      </trkpt>
      <trkpt lat="63.051560036838055" lon="7.625761041417718">
        <ele>8.310000000000001</ele>
        <time>2017-06-21T07:41:15Z</time>
      </trkpt>
      <trkpt lat="63.051558025181293" lon="7.626118026673794">
        <ele>5.91</ele>
        <time>2017-06-21T07:41:16Z</time>
      </trkpt>
      <trkpt lat="63.051544027402997" lon="7.626479035243392">
        <ele>6.39</ele>
        <time>2017-06-21T07:41:17Z</time>
      </trkpt>
      <trkpt lat="63.051516031846404" lon="7.626849012449384">
        <ele>4.46</ele>
        <time>2017-06-21T07:41:18Z</time>
      </trkpt>
      <trkpt lat="63.051513014361262" lon="7.629034006968141">
        <ele>3.98</ele>
        <time>2017-06-21T07:41:25Z</time>
      </trkpt>
      <trkpt lat="63.052048031240702" lon="7.633298970758915">
        <ele>3.02</ele>
        <time>2017-06-21T07:41:40Z</time>
      </trkpt>
      <trkpt lat="63.052101004868746" lon="7.633537016808987">
        <ele>3.02</ele>
        <time>2017-06-21T07:41:41Z</time>
      </trkpt>
      <trkpt lat="63.052164958789945" lon="7.633747989311814">
        <ele>2.54</ele>
        <time>2017-06-21T07:41:42Z</time>
      </trkpt>
      <trkpt lat="63.052244000136852" lon="7.633943958207965">
        <ele>2.54</ele>
        <time>2017-06-21T07:41:43Z</time>
      </trkpt>
      <trkpt lat="63.052339972928166" lon="7.634105980396271">
        <ele>2.54</ele>
        <time>2017-06-21T07:41:44Z</time>
      </trkpt>
      <trkpt lat="63.052444998174906" lon="7.634202037006617">
        <ele>2.54</ele>
        <time>2017-06-21T07:41:45Z</time>
      </trkpt>
      <trkpt lat="63.05256200954318" lon="7.63423103839159">
        <ele>2.54</ele>
        <time>2017-06-21T07:41:46Z</time>
      </trkpt>
      <trkpt lat="63.052681032568216" lon="7.634204970672727">
        <ele>3.02</ele>
        <time>2017-06-21T07:41:47Z</time>
      </trkpt>
      <trkpt lat="63.052800977602601" lon="7.634128024801612">
        <ele>3.5</ele>
        <time>2017-06-21T07:41:48Z</time>
      </trkpt>
      <trkpt lat="63.052917988970876" lon="7.634027022868395">
        <ele>3.98</ele>
        <time>2017-06-21T07:41:49Z</time>
      </trkpt>
      <trkpt lat="63.05337899364531" lon="7.633512038737536">
        <ele>7.83</ele>
        <time>2017-06-21T07:41:53Z</time>
      </trkpt>
      <trkpt lat="63.05348401889205" lon="7.633324032649398">
        <ele>9.27</ele>
        <time>2017-06-21T07:41:54Z</time>
      </trkpt>
      <trkpt lat="63.053576974198222" lon="7.633113982155919">
        <ele>10.23</ele>
        <time>2017-06-21T07:41:55Z</time>
      </trkpt>
      <trkpt lat="63.053655009716749" lon="7.632887000218034">
        <ele>11.19</ele>
        <time>2017-06-21T07:41:56Z</time>
      </trkpt>
      <trkpt lat="63.053714018315077" lon="7.632667981088162">
        <ele>11.67</ele>
        <time>2017-06-21T07:41:57Z</time>
      </trkpt>
      <trkpt lat="63.053755005821586" lon="7.632462959736586">
        <ele>12.15</ele>
        <time>2017-06-21T07:41:58Z</time>
      </trkpt>
      <trkpt lat="63.05378501303494" lon="7.632270008325577">
        <ele>12.630000000000001</ele>
        <time>2017-06-21T07:41:59Z</time>
      </trkpt>
      <trkpt lat="63.053804961964488" lon="7.632082002237439">
        <ele>13.119999999999999</ele>
        <time>2017-06-21T07:42:00Z</time>
      </trkpt>
      <trkpt lat="63.053818037733436" lon="7.631906988099217">
        <ele>13.6</ele>
        <time>2017-06-21T07:42:01Z</time>
      </trkpt>
      <trkpt lat="63.053900012746453" lon="7.631582021713257">
        <ele>15.52</ele>
        <time>2017-06-21T07:42:04Z</time>
      </trkpt>
      <trkpt lat="63.053949968889356" lon="7.631555031985045">
        <ele>16</ele>
        <time>2017-06-21T07:42:05Z</time>
      </trkpt>
      <trkpt lat="63.054004032164812" lon="7.631587972864509">
        <ele>16</ele>
        <time>2017-06-21T07:42:06Z</time>
      </trkpt>
      <trkpt lat="63.054049964994192" lon="7.631669025868177">
        <ele>16.48</ele>
        <time>2017-06-21T07:42:07Z</time>
      </trkpt>
      <trkpt lat="63.054089024662971" lon="7.63178201392293">
        <ele>16.960000000000001</ele>
        <time>2017-06-21T07:42:08Z</time>
      </trkpt>
      <trkpt lat="63.054120959714055" lon="7.631917968392372">
        <ele>17.440000000000001</ele>
        <time>2017-06-21T07:42:09Z</time>
      </trkpt>
      <trkpt lat="63.054154990240932" lon="7.632074039429426">
        <ele>17.920000000000002</ele>
        <time>2017-06-21T07:42:10Z</time>
      </trkpt>
      <trkpt lat="63.054186003282666" lon="7.632248969748616">
        <ele>18.399999999999999</ele>
        <time>2017-06-21T07:42:11Z</time>
      </trkpt>
      <trkpt lat="63.05421601049602" lon="7.632439993321896">
        <ele>19.359999999999999</ele>
        <time>2017-06-21T07:42:12Z</time>
      </trkpt>
      <trkpt lat="63.054350037127733" lon="7.633067965507507">
        <ele>22.73</ele>
        <time>2017-06-21T07:42:15Z</time>
      </trkpt>
      <trkpt lat="63.054414996877313" lon="7.633258989080787">
        <ele>22.25</ele>
        <time>2017-06-21T07:42:16Z</time>
      </trkpt>
      <trkpt lat="63.054482974112034" lon="7.633446995168924">
        <ele>23.210000000000001</ele>
        <time>2017-06-21T07:42:17Z</time>
      </trkpt>
      <trkpt lat="63.054562015458941" lon="7.633610023185611">
        <ele>23.210000000000001</ele>
        <time>2017-06-21T07:42:18Z</time>
      </trkpt>
      <trkpt lat="63.054656982421875" lon="7.633745977655053">
        <ele>25.129999999999999</ele>
        <time>2017-06-21T07:42:19Z</time>
      </trkpt>
      <trkpt lat="63.054758990183473" lon="7.633847985416651">
        <ele>26.09</ele>
        <time>2017-06-21T07:42:20Z</time>
      </trkpt>
      <trkpt lat="63.054868960753083" lon="7.633918980136514">
        <ele>26.57</ele>
        <time>2017-06-21T07:42:21Z</time>
      </trkpt>
      <trkpt lat="63.0549889896065" lon="7.633955022320151">
        <ele>27.050000000000001</ele>
        <time>2017-06-21T07:42:22Z</time>
      </trkpt>
      <trkpt lat="63.055113041773438" lon="7.633963990956545">
        <ele>27.530000000000001</ele>
        <time>2017-06-21T07:42:23Z</time>
      </trkpt>
      <trkpt lat="63.055242039263248" lon="7.633969020098448">
        <ele>28.02</ele>
        <time>2017-06-21T07:42:24Z</time>
      </trkpt>
      <trkpt lat="63.05537598207593" lon="7.634000033140183">
        <ele>28.5</ele>
        <time>2017-06-21T07:42:25Z</time>
      </trkpt>
      <trkpt lat="63.055514032021165" lon="7.634073039516807">
        <ele>29.460000000000001</ele>
        <time>2017-06-21T07:42:26Z</time>
      </trkpt>
      <trkpt lat="63.055650992318988" lon="7.634201031178236">
        <ele>30.420000000000002</ele>
        <time>2017-06-21T07:42:27Z</time>
      </trkpt>
      <trkpt lat="63.05578401312232" lon="7.63436196371913">
        <ele>30.899999999999999</ele>
        <time>2017-06-21T07:42:28Z</time>
      </trkpt>
      <trkpt lat="63.05591200478375" lon="7.634552987292409">
        <ele>31.859999999999999</ele>
        <time>2017-06-21T07:42:29Z</time>
      </trkpt>
      <trkpt lat="63.056033039465547" lon="7.634773012250662">
        <ele>32.82</ele>
        <time>2017-06-21T07:42:30Z</time>
      </trkpt>
      <trkpt lat="63.05614803917706" lon="7.635025978088379">
        <ele>33.780000000000001</ele>
        <time>2017-06-21T07:42:31Z</time>
      </trkpt>
      <trkpt lat="63.056252980604768" lon="7.63530601747334">
        <ele>35.229999999999997</ele>
        <time>2017-06-21T07:42:32Z</time>
      </trkpt>
      <trkpt lat="63.056345013901591" lon="7.63560701161623">
        <ele>35.710000000000001</ele>
        <time>2017-06-21T07:42:33Z</time>
      </trkpt>
      <trkpt lat="63.056431012228131" lon="7.635915968567133">
        <ele>36.670000000000002</ele>
        <time>2017-06-21T07:42:34Z</time>
      </trkpt>
      <trkpt lat="63.056682972237468" lon="7.636774023994803">
        <ele>38.590000000000003</ele>
        <time>2017-06-21T07:42:37Z</time>
      </trkpt>
      <trkpt lat="63.056784979999065" lon="7.637021960690618">
        <ele>39.07</ele>
        <time>2017-06-21T07:42:38Z</time>
      </trkpt>
      <trkpt lat="63.056896962225437" lon="7.637237040325999">
        <ele>39.549999999999997</ele>
        <time>2017-06-21T07:42:39Z</time>
      </trkpt>
      <trkpt lat="63.057013973593712" lon="7.637426974251866">
        <ele>40.990000000000002</ele>
        <time>2017-06-21T07:42:40Z</time>
      </trkpt>
      <trkpt lat="63.057132996618748" lon="7.637580027803779">
        <ele>41.950000000000003</ele>
        <time>2017-06-21T07:42:41Z</time>
      </trkpt>
      <trkpt lat="63.057247996330261" lon="7.637723023071885">
        <ele>42.920000000000002</ele>
        <time>2017-06-21T07:42:42Z</time>
      </trkpt>
      <trkpt lat="63.058655988425016" lon="7.638997994363308">
        <ele>46.759999999999998</ele>
        <time>2017-06-21T07:42:53Z</time>
      </trkpt>
      <trkpt lat="63.060738975182176" lon="7.640464995056391">
        <ele>48.68</ele>
        <time>2017-06-21T07:43:07Z</time>
      </trkpt>
      <trkpt lat="63.062427006661892" lon="7.642558040097356">
        <ele>46.280000000000001</ele>
        <time>2017-06-21T07:43:20Z</time>
      </trkpt>
      <trkpt lat="63.062564972788095" lon="7.642640015110374">
        <ele>45.32</ele>
        <time>2017-06-21T07:43:21Z</time>
      </trkpt>
      <trkpt lat="63.062710985541344" lon="7.642695000395179">
        <ele>44.359999999999999</ele>
        <time>2017-06-21T07:43:22Z</time>
      </trkpt>
      <trkpt lat="63.064499013125896" lon="7.642989959567785">
        <ele>34.740000000000002</ele>
        <time>2017-06-21T07:43:34Z</time>
      </trkpt>
      <trkpt lat="63.06586098857224" lon="7.643782971426845">
        <ele>28.5</ele>
        <time>2017-06-21T07:43:43Z</time>
      </trkpt>
      <trkpt lat="63.067568968981504" lon="7.644943026825786">
        <ele>34.740000000000002</ele>
        <time>2017-06-21T07:43:56Z</time>
      </trkpt>
      <trkpt lat="63.069522036239505" lon="7.646128982305527">
        <ele>32.82</ele>
        <time>2017-06-21T07:44:10Z</time>
      </trkpt>
      <trkpt lat="63.070530965924263" lon="7.645778032019734">
        <ele>28.98</ele>
        <time>2017-06-21T07:44:17Z</time>
      </trkpt>
      <trkpt lat="63.071981035172939" lon="7.644095029681921">
        <ele>27.530000000000001</ele>
        <time>2017-06-21T07:44:28Z</time>
      </trkpt>
      <trkpt lat="63.072122018784285" lon="7.644027974456549">
        <ele>27.530000000000001</ele>
        <time>2017-06-21T07:44:29Z</time>
      </trkpt>
      <trkpt lat="63.072261996567249" lon="7.644023029133678">
        <ele>27.050000000000001</ele>
        <time>2017-06-21T07:44:30Z</time>
      </trkpt>
      <trkpt lat="63.072404991835356" lon="7.644076002761722">
        <ele>26.57</ele>
        <time>2017-06-21T07:44:31Z</time>
      </trkpt>
      <trkpt lat="63.072537006810308" lon="7.64418002218008">
        <ele>26.09</ele>
        <time>2017-06-21T07:44:32Z</time>
      </trkpt>
      <trkpt lat="63.072657035663724" lon="7.644325029104948">
        <ele>25.129999999999999</ele>
        <time>2017-06-21T07:44:33Z</time>
      </trkpt>
      <trkpt lat="63.072764994576573" lon="7.644510017707944">
        <ele>24.170000000000002</ele>
        <time>2017-06-21T07:44:34Z</time>
      </trkpt>
      <trkpt lat="63.072861973196268" lon="7.644725013524294">
        <ele>23.690000000000001</ele>
        <time>2017-06-21T07:44:35Z</time>
      </trkpt>
      <trkpt lat="63.072955012321472" lon="7.644965993240476">
        <ele>24.649999999999999</ele>
        <time>2017-06-21T07:44:36Z</time>
      </trkpt>
      <trkpt lat="63.073034975677729" lon="7.645235974341631">
        <ele>23.210000000000001</ele>
        <time>2017-06-21T07:44:37Z</time>
      </trkpt>
      <trkpt lat="63.073893031105399" lon="7.647649040445685">
        <ele>15.52</ele>
        <time>2017-06-21T07:44:47Z</time>
      </trkpt>
      <trkpt lat="63.074681013822556" lon="7.649444025009871">
        <ele>14.08</ele>
        <time>2017-06-21T07:44:54Z</time>
      </trkpt>
      <trkpt lat="63.075865041464567" lon="7.652116008102894">
        <ele>21.289999999999999</ele>
        <time>2017-06-21T07:45:05Z</time>
      </trkpt>
      <trkpt lat="63.076991988345981" lon="7.654071003198624">
        <ele>25.129999999999999</ele>
        <time>2017-06-21T07:45:15Z</time>
      </trkpt>
      <trkpt lat="63.077494986355305" lon="7.654770975932479">
        <ele>26.09</ele>
        <time>2017-06-21T07:45:19Z</time>
      </trkpt>
      <trkpt lat="63.077604034915566" lon="7.654989995062351">
        <ele>26.09</ele>
        <time>2017-06-21T07:45:20Z</time>
      </trkpt>
      <trkpt lat="63.077701013535261" lon="7.655232986435294">
        <ele>26.57</ele>
        <time>2017-06-21T07:45:21Z</time>
      </trkpt>
      <trkpt lat="63.07778500020504" lon="7.655498022213578">
        <ele>26.57</ele>
        <time>2017-06-21T07:45:22Z</time>
      </trkpt>
      <trkpt lat="63.077863035723567" lon="7.655777977779508">
        <ele>27.050000000000001</ele>
        <time>2017-06-21T07:45:23Z</time>
      </trkpt>
      <trkpt lat="63.07793403044343" lon="7.656072014942765">
        <ele>27.050000000000001</ele>
        <time>2017-06-21T07:45:24Z</time>
      </trkpt>
      <trkpt lat="63.077996978536248" lon="7.656377032399178">
        <ele>26.57</ele>
        <time>2017-06-21T07:45:25Z</time>
      </trkpt>
      <trkpt lat="63.078209040686488" lon="7.657208014279604">
        <ele>27.050000000000001</ele>
        <time>2017-06-21T07:45:28Z</time>
      </trkpt>
      <trkpt lat="63.078298978507519" lon="7.657451005652547">
        <ele>27.530000000000001</ele>
        <time>2017-06-21T07:45:29Z</time>
      </trkpt>
      <trkpt lat="63.078404003754258" lon="7.657657032832503">
        <ele>27.530000000000001</ele>
        <time>2017-06-21T07:45:30Z</time>
      </trkpt>
      <trkpt lat="63.078520009294152" lon="7.657837998121977">
        <ele>27.530000000000001</ele>
        <time>2017-06-21T07:45:31Z</time>
      </trkpt>
      <trkpt lat="63.078650012612343" lon="7.657992979511619">
        <ele>28.98</ele>
        <time>2017-06-21T07:45:32Z</time>
      </trkpt>
      <trkpt lat="63.078789990395308" lon="7.658126000314951">
        <ele>29.460000000000001</ele>
        <time>2017-06-21T07:45:33Z</time>
      </trkpt>
      <trkpt lat="63.080773986876011" lon="7.659940011799336">
        <ele>32.82</ele>
        <time>2017-06-21T07:45:48Z</time>
      </trkpt>
      <trkpt lat="63.083147993311286" lon="7.662104973569512">
        <ele>28.02</ele>
        <time>2017-06-21T07:46:06Z</time>
      </trkpt>
      <trkpt lat="63.08328403159976" lon="7.662154007703066">
        <ele>28.02</ele>
        <time>2017-06-21T07:46:07Z</time>
      </trkpt>
      <trkpt lat="63.083404982462525" lon="7.662165993824601">
        <ele>28.02</ele>
        <time>2017-06-21T07:46:08Z</time>
      </trkpt>
      <trkpt lat="63.083544038236141" lon="7.662144033238292">
        <ele>28.02</ele>
        <time>2017-06-21T07:46:10Z</time>
      </trkpt>
      <trkpt lat="63.084249040111899" lon="7.661963989958167">
        <ele>31.859999999999999</ele>
        <time>2017-06-21T07:46:22Z</time>
      </trkpt>
      <trkpt lat="63.084442997351289" lon="7.661914033815265">
        <ele>33.299999999999997</ele>
        <time>2017-06-21T07:46:26Z</time>
      </trkpt>
      <trkpt lat="63.084560008719563" lon="7.661911016330123">
        <ele>33.299999999999997</ele>
        <time>2017-06-21T07:46:28Z</time>
      </trkpt>
      <trkpt lat="63.084627985954285" lon="7.661859970539808">
        <ele>33.299999999999997</ele>
        <time>2017-06-21T07:46:29Z</time>
      </trkpt>
      <trkpt lat="63.084699986502528" lon="7.661749999970198">
        <ele>33.780000000000001</ele>
        <time>2017-06-21T07:46:30Z</time>
      </trkpt>
      <trkpt lat="63.085427032783628" lon="7.660521967336536">
        <ele>37.149999999999999</ele>
        <time>2017-06-21T07:46:37Z</time>
      </trkpt>
      <trkpt lat="63.086170004680753" lon="7.65821099281311">
        <ele>41.950000000000003</ele>
        <time>2017-06-21T07:46:45Z</time>
      </trkpt>
      <trkpt lat="63.086435040459037" lon="7.655493998900056">
        <ele>40.509999999999998</ele>
        <time>2017-06-21T07:46:52Z</time>
      </trkpt>
      <trkpt lat="63.086833013221622" lon="7.651178995147348">
        <ele>32.82</ele>
        <time>2017-06-21T07:47:03Z</time>
      </trkpt>
      <trkpt lat="63.087683022022247" lon="7.647174960002303">
        <ele>31.859999999999999</ele>
        <time>2017-06-21T07:47:14Z</time>
      </trkpt>
      <trkpt lat="63.088683988898993" lon="7.643769979476929">
        <ele>39.07</ele>
        <time>2017-06-21T07:47:25Z</time>
      </trkpt>
      <trkpt lat="63.089712029322982" lon="7.639569975435734">
        <ele>34.740000000000002</ele>
        <time>2017-06-21T07:47:37Z</time>
      </trkpt>
      <trkpt lat="63.090506969019771" lon="7.637845985591412">
        <ele>28.5</ele>
        <time>2017-06-21T07:47:43Z</time>
      </trkpt>
      <trkpt lat="63.091685967519879" lon="7.636787015944719">
        <ele>25.129999999999999</ele>
        <time>2017-06-21T07:47:50Z</time>
      </trkpt>
      <trkpt lat="63.093563010916114" lon="7.63524197973311">
        <ele>22.25</ele>
        <time>2017-06-21T07:48:01Z</time>
      </trkpt>
      <trkpt lat="63.094825996086001" lon="7.633231999352574">
        <ele>16</ele>
        <time>2017-06-21T07:48:10Z</time>
      </trkpt>
      <trkpt lat="63.095736019313335" lon="7.630960000678897">
        <ele>11.19</ele>
        <time>2017-06-21T07:48:17Z</time>
      </trkpt>
      <trkpt lat="63.096771016716957" lon="7.628931999206543">
        <ele>14.08</ele>
        <time>2017-06-21T07:48:23Z</time>
      </trkpt>
      <trkpt lat="63.097868040204048" lon="7.628119960427284">
        <ele>20.809999999999999</ele>
        <time>2017-06-21T07:48:29Z</time>
      </trkpt>
      <trkpt lat="63.100063009187579" lon="7.627275986596942">
        <ele>28.98</ele>
        <time>2017-06-21T07:48:41Z</time>
      </trkpt>
      <trkpt lat="63.102240040898323" lon="7.627101978287101">
        <ele>29.460000000000001</ele>
        <time>2017-06-21T07:48:54Z</time>
      </trkpt>
      <trkpt lat="63.103670999407768" lon="7.627601958811283">
        <ele>30.420000000000002</ele>
        <time>2017-06-21T07:49:03Z</time>
      </trkpt>
      <trkpt lat="63.104486977681518" lon="7.628082996234298">
        <ele>32.82</ele>
        <time>2017-06-21T07:49:13Z</time>
      </trkpt>
      <trkpt lat="63.104871036484838" lon="7.628378039225936">
        <ele>31.859999999999999</ele>
        <time>2017-06-21T07:49:24Z</time>
      </trkpt>
      <trkpt lat="63.104871036484838" lon="7.628384996205568">
        <ele>31.379999999999999</ele>
        <time>2017-06-21T07:49:57Z</time>
      </trkpt>
      <trkpt lat="63.105058958753943" lon="7.628593035042286">
        <ele>32.340000000000003</ele>
        <time>2017-06-21T07:50:41Z</time>
      </trkpt>
      <trkpt lat="63.105911985039711" lon="7.629420999437571">
        <ele>30.899999999999999</ele>
        <time>2017-06-21T07:50:51Z</time>
      </trkpt>
      <trkpt lat="63.10700498521328" lon="7.630646014586091">
        <ele>23.690000000000001</ele>
        <time>2017-06-21T07:51:00Z</time>
      </trkpt>
      <trkpt lat="63.108430998399854" lon="7.63242700137198">
        <ele>11.19</ele>
        <time>2017-06-21T07:51:09Z</time>
      </trkpt>
      <trkpt lat="63.125285999849439" lon="7.725669974461198">
        <ele>-30.620000000000001</ele>
        <time>2017-06-21T07:55:30Z</time>
      </trkpt>
      <trkpt lat="63.12535397708416" lon="7.725878013297916">
        <ele>-12.359999999999999</ele>
        <time>2017-06-21T07:55:31Z</time>
      </trkpt>
      <trkpt lat="63.125315001234412" lon="7.726055039092898">
        <ele>-11.4</ele>
        <time>2017-06-21T07:55:32Z</time>
      </trkpt>
      <trkpt lat="63.125293962657452" lon="7.726200968027115">
        <ele>-9.960000000000001</ele>
        <time>2017-06-21T07:55:33Z</time>
      </trkpt>
      <trkpt lat="63.125295974314213" lon="7.726333988830447">
        <ele>-7.55</ele>
        <time>2017-06-21T07:55:34Z</time>
      </trkpt>
      <trkpt lat="63.125281976535916" lon="7.726710001006723">
        <ele>-1.3</ele>
        <time>2017-06-21T07:55:37Z</time>
      </trkpt>
      <trkpt lat="63.125263033434749" lon="7.726845033466816">
        <ele>2.54</ele>
        <time>2017-06-21T07:55:38Z</time>
      </trkpt>
      <trkpt lat="63.125218022614717" lon="7.726970007643104">
        <ele>3.5</ele>
        <time>2017-06-21T07:55:39Z</time>
      </trkpt>
      <trkpt lat="63.125162031501532" lon="7.727071009576321">
        <ele>5.42</ele>
        <time>2017-06-21T07:55:40Z</time>
      </trkpt>
      <trkpt lat="63.125078966841102" lon="7.727142004296184">
        <ele>6.39</ele>
        <time>2017-06-21T07:55:41Z</time>
      </trkpt>
      <trkpt lat="63.124986011534929" lon="7.72717796266079">
        <ele>6.87</ele>
        <time>2017-06-21T07:55:42Z</time>
      </trkpt>
      <trkpt lat="63.124884003773332" lon="7.727192966267467">
        <ele>6.39</ele>
        <time>2017-06-21T07:55:43Z</time>
      </trkpt>
      <trkpt lat="63.124784007668495" lon="7.727185003459454">
        <ele>6.39</ele>
        <time>2017-06-21T07:55:44Z</time>
      </trkpt>
      <trkpt lat="63.123667035251856" lon="7.727345013990998">
        <ele>16.960000000000001</ele>
        <time>2017-06-21T07:55:54Z</time>
      </trkpt>
      <trkpt lat="63.123176023364067" lon="7.727618012577295">
        <ele>17.920000000000002</ele>
        <time>2017-06-21T07:56:01Z</time>
      </trkpt>
      <trkpt lat="63.123120032250881" lon="7.727659000083804">
        <ele>17.920000000000002</ele>
        <time>2017-06-21T07:56:02Z</time>
      </trkpt>
      <trkpt lat="63.123073009774089" lon="7.727736029773951">
        <ele>17.440000000000001</ele>
        <time>2017-06-21T07:56:03Z</time>
      </trkpt>
      <trkpt lat="63.123046020045877" lon="7.727849017828703">
        <ele>17.440000000000001</ele>
        <time>2017-06-21T07:56:04Z</time>
      </trkpt>
      <trkpt lat="63.123047025874257" lon="7.727967035025358">
        <ele>17.440000000000001</ele>
        <time>2017-06-21T07:56:05Z</time>
      </trkpt>
      <trkpt lat="63.123076027259231" lon="7.728084968402982">
        <ele>17.440000000000001</ele>
        <time>2017-06-21T07:56:06Z</time>
      </trkpt>
      <trkpt lat="63.123121038079262" lon="7.728193011134863">
        <ele>17.440000000000001</ele>
        <time>2017-06-21T07:56:07Z</time>
      </trkpt>
      <trkpt lat="63.123167976737022" lon="7.728319996967912">
        <ele>17.920000000000002</ele>
        <time>2017-06-21T07:56:08Z</time>
      </trkpt>
      <trkpt lat="63.123232014477253" lon="7.728704977780581">
        <ele>17.920000000000002</ele>
        <time>2017-06-21T07:56:10Z</time>
      </trkpt>
      <trkpt lat="63.123233020305634" lon="7.728934977203608">
        <ele>18.399999999999999</ele>
        <time>2017-06-21T07:56:11Z</time>
      </trkpt>
      <trkpt lat="63.123164037242532" lon="7.73072300478816">
        <ele>25.129999999999999</ele>
        <time>2017-06-21T07:56:21Z</time>
      </trkpt>
      <trkpt lat="63.123131012544036" lon="7.731248969212174">
        <ele>26.09</ele>
        <time>2017-06-21T07:56:24Z</time>
      </trkpt>
      <trkpt lat="63.123137969523668" lon="7.731394981965423">
        <ele>26.09</ele>
        <time>2017-06-21T07:56:25Z</time>
      </trkpt>
      <trkpt lat="63.123148027807474" lon="7.731534037739039">
        <ele>26.57</ele>
        <time>2017-06-21T07:56:26Z</time>
      </trkpt>
      <trkpt lat="63.123164037242532" lon="7.731647025793791">
        <ele>26.57</ele>
        <time>2017-06-21T07:56:27Z</time>
      </trkpt>
      <trkpt lat="63.123179962858558" lon="7.731736041605473">
        <ele>26.57</ele>
        <time>2017-06-21T07:56:28Z</time>
      </trkpt>
      <trkpt lat="63.123235031962395" lon="7.731959000229836">
        <ele>26.57</ele>
        <time>2017-06-21T07:56:38Z</time>
      </trkpt>
      <trkpt lat="63.123206030577421" lon="7.73239703848958">
        <ele>28.02</ele>
        <time>2017-06-21T07:56:46Z</time>
      </trkpt>
      <trkpt lat="63.123148027807474" lon="7.732359990477562">
        <ele>27.530000000000001</ele>
        <time>2017-06-21T07:56:50Z</time>
      </trkpt>
      <trkpt lat="63.123112991452217" lon="7.732274997979403">
        <ele>28.02</ele>
        <time>2017-06-21T07:56:51Z</time>
      </trkpt>
      <trkpt lat="63.123078960925341" lon="7.732149017974734">
        <ele>28.02</ele>
        <time>2017-06-21T07:56:52Z</time>
      </trkpt>
      <trkpt lat="63.123046020045877" lon="7.731999987736344">
        <ele>28.02</ele>
        <time>2017-06-21T07:56:53Z</time>
      </trkpt>
      <trkpt lat="63.123023975640535" lon="7.731830002740026">
        <ele>27.530000000000001</ele>
        <time>2017-06-21T07:56:54Z</time>
      </trkpt>
      <trkpt lat="63.123009977862239" lon="7.731648031622171">
        <ele>27.530000000000001</ele>
        <time>2017-06-21T07:56:55Z</time>
      </trkpt>
      <trkpt lat="63.123000003397465" lon="7.731458013877273">
        <ele>27.530000000000001</ele>
        <time>2017-06-21T07:56:56Z</time>
      </trkpt>
      <trkpt lat="63.122966978698969" lon="7.730265017598867">
        <ele>25.609999999999999</ele>
        <time>2017-06-21T07:57:05Z</time>
      </trkpt>
      <trkpt lat="63.123134030029178" lon="7.729893028736115">
        <ele>24.649999999999999</ele>
        <time>2017-06-21T07:57:15Z</time>
      </trkpt>
      <trkpt lat="63.123133024200797" lon="7.729898979887366">
        <ele>24.649999999999999</ele>
        <time>2017-06-21T07:59:31Z</time>
      </trkpt>
      <trkpt lat="63.123136963695288" lon="7.729903003200889">
        <ele>24.649999999999999</ele>
        <time>2017-06-21T08:01:18Z</time>
      </trkpt>
      <trkpt lat="63.123136963695288" lon="7.729894034564495">
        <ele>24.649999999999999</ele>
        <time>2017-06-21T08:01:20Z</time>
      </trkpt>
      <trkpt lat="63.123131012544036" lon="7.729837037622929">
        <ele>24.649999999999999</ele>
        <time>2017-06-21T08:01:21Z</time>
      </trkpt>
      <trkpt lat="63.123021963983774" lon="7.729129018262029">
        <ele>24.649999999999999</ele>
        <time>2017-06-21T08:01:29Z</time>
      </trkpt>
      <trkpt lat="63.123006960377097" lon="7.728989040479064">
        <ele>24.649999999999999</ele>
        <time>2017-06-21T08:01:40Z</time>
      </trkpt>
      <trkpt lat="63.122983993962407" lon="7.729042014107108">
        <ele>25.609999999999999</ele>
        <time>2017-06-21T08:02:28Z</time>
      </trkpt>
      <trkpt lat="63.122988017275929" lon="7.729087024927139">
        <ele>25.609999999999999</ele>
        <time>2017-06-21T08:03:33Z</time>
      </trkpt>
      <trkpt lat="63.122992962598801" lon="7.729109991341829">
        <ele>25.129999999999999</ele>
        <time>2017-06-21T08:04:31Z</time>
      </trkpt>
      <trkpt lat="63.12298902310431" lon="7.729104962199926">
        <ele>24.649999999999999</ele>
        <time>2017-06-21T08:06:05Z</time>
      </trkpt>
      <trkpt lat="63.122994974255562" lon="7.728942018002272">
        <ele>41.950000000000003</ele>
        <time>2017-06-21T08:36:44Z</time>
      </trkpt>
      <trkpt lat="63.122926997020841" lon="7.728484030812979">
        <ele>36.670000000000002</ele>
        <time>2017-06-21T08:36:55Z</time>
      </trkpt>
      <trkpt lat="63.122893972322345" lon="7.728412030264735">
        <ele>35.710000000000001</ele>
        <time>2017-06-21T08:36:56Z</time>
      </trkpt>
      <trkpt lat="63.122861031442881" lon="7.72838001139462">
        <ele>35.710000000000001</ele>
        <time>2017-06-21T08:36:57Z</time>
      </trkpt>
      <trkpt lat="63.122837981209159" lon="7.728368025273085">
        <ele>34.740000000000002</ele>
        <time>2017-06-21T08:36:58Z</time>
      </trkpt>
      <trkpt lat="63.122802022844553" lon="7.72842301055789">
        <ele>34.259999999999998</ele>
        <time>2017-06-21T08:37:01Z</time>
      </trkpt>
      <trkpt lat="63.122787019237876" lon="7.728472966700792">
        <ele>34.259999999999998</ele>
        <time>2017-06-21T08:37:02Z</time>
      </trkpt>
      <trkpt lat="63.12277696095407" lon="7.728563994169235">
        <ele>33.780000000000001</ele>
        <time>2017-06-21T08:37:03Z</time>
      </trkpt>
      <trkpt lat="63.122786013409495" lon="7.728675976395607">
        <ele>33.299999999999997</ele>
        <time>2017-06-21T08:37:04Z</time>
      </trkpt>
      <trkpt lat="63.122800011187792" lon="7.728822994977236">
        <ele>33.299999999999997</ele>
        <time>2017-06-21T08:37:05Z</time>
      </trkpt>
      <trkpt lat="63.122977958992124" lon="7.730811014771462">
        <ele>35.710000000000001</ele>
        <time>2017-06-21T08:37:14Z</time>
      </trkpt>
      <trkpt lat="63.123030010610819" lon="7.731880964711309">
        <ele>36.189999999999998</ele>
        <time>2017-06-21T08:37:19Z</time>
      </trkpt>
      <trkpt lat="63.123065968975425" lon="7.732279021292925">
        <ele>36.670000000000002</ele>
        <time>2017-06-21T08:37:21Z</time>
      </trkpt>
      <trkpt lat="63.123078960925341" lon="7.732496028766036">
        <ele>37.149999999999999</ele>
        <time>2017-06-21T08:37:22Z</time>
      </trkpt>
      <trkpt lat="63.123127995058894" lon="7.734555965289474">
        <ele>39.07</ele>
        <time>2017-06-21T08:37:30Z</time>
      </trkpt>
      <trkpt lat="63.122823983430862" lon="7.737163994461298">
        <ele>42.439999999999998</ele>
        <time>2017-06-21T08:37:42Z</time>
      </trkpt>
      <trkpt lat="63.122458029538393" lon="7.739229965955019">
        <ele>44.840000000000003</ele>
        <time>2017-06-21T08:37:53Z</time>
      </trkpt>
      <trkpt lat="63.121754033491015" lon="7.742300005629659">
        <ele>45.32</ele>
        <time>2017-06-21T08:38:07Z</time>
      </trkpt>
      <trkpt lat="63.121015001088381" lon="7.745487978681922">
        <ele>53.969999999999999</ele>
        <time>2017-06-21T08:38:21Z</time>
      </trkpt>
      <trkpt lat="63.120941994711757" lon="7.745698029175401">
        <ele>53.969999999999999</ele>
        <time>2017-06-21T08:38:22Z</time>
      </trkpt>
      <trkpt lat="63.120777038857341" lon="7.746102958917618">
        <ele>53.490000000000002</ele>
        <time>2017-06-21T08:38:24Z</time>
      </trkpt>
      <trkpt lat="63.120586015284061" lon="7.746477965265513">
        <ele>52.049999999999997</ele>
        <time>2017-06-21T08:38:26Z</time>
      </trkpt>
      <trkpt lat="63.120475960895419" lon="7.74664199911058">
        <ele>51.090000000000003</ele>
        <time>2017-06-21T08:38:27Z</time>
      </trkpt>
      <trkpt lat="63.120360961183906" lon="7.746798992156982">
        <ele>50.130000000000003</ele>
        <time>2017-06-21T08:38:28Z</time>
      </trkpt>
      <trkpt lat="63.119281036779284" lon="7.747799037024379">
        <ele>41.950000000000003</ele>
        <time>2017-06-21T08:38:37Z</time>
      </trkpt>
      <trkpt lat="63.117437018081546" lon="7.749689994379878">
        <ele>31.379999999999999</ele>
        <time>2017-06-21T08:38:52Z</time>
      </trkpt>
      <trkpt lat="63.115421002730727" lon="7.752000968903303">
        <ele>43.399999999999999</ele>
        <time>2017-06-21T08:39:09Z</time>
      </trkpt>
      <trkpt lat="63.113874960690737" lon="7.753786984831095">
        <ele>47.240000000000002</ele>
        <time>2017-06-21T08:39:23Z</time>
      </trkpt>
      <trkpt lat="63.113115979358554" lon="7.754616038873792">
        <ele>42.439999999999998</ele>
        <time>2017-06-21T08:39:33Z</time>
      </trkpt>
      <trkpt lat="63.112908024340868" lon="7.754874033853412">
        <ele>41.950000000000003</ele>
        <time>2017-06-21T08:39:37Z</time>
      </trkpt>
      <trkpt lat="63.112880028784275" lon="7.754970006644726">
        <ele>41.950000000000003</ele>
        <time>2017-06-21T08:39:38Z</time>
      </trkpt>
      <trkpt lat="63.11287097632885" lon="7.75506597943604">
        <ele>41.469999999999999</ele>
        <time>2017-06-21T08:39:39Z</time>
      </trkpt>
      <trkpt lat="63.11289100907743" lon="7.75517201051116">
        <ele>41.950000000000003</ele>
        <time>2017-06-21T08:39:40Z</time>
      </trkpt>
      <trkpt lat="63.112925961613655" lon="7.755288016051054">
        <ele>41.950000000000003</ele>
        <time>2017-06-21T08:39:41Z</time>
      </trkpt>
      <trkpt lat="63.112969966605306" lon="7.755410978570581">
        <ele>41.950000000000003</ele>
        <time>2017-06-21T08:39:42Z</time>
      </trkpt>
      <trkpt lat="63.11366599984467" lon="7.757058022543788">
        <ele>34.740000000000002</ele>
        <time>2017-06-21T08:39:53Z</time>
      </trkpt>
      <trkpt lat="63.114250972867012" lon="7.759415013715625">
        <ele>29.940000000000001</ele>
        <time>2017-06-21T08:40:04Z</time>
      </trkpt>
      <trkpt lat="63.114511985331774" lon="7.761878035962582">
        <ele>21.289999999999999</ele>
        <time>2017-06-21T08:40:15Z</time>
      </trkpt>
      <trkpt lat="63.114470997825265" lon="7.7637870144099">
        <ele>17.440000000000001</ele>
        <time>2017-06-21T08:40:23Z</time>
      </trkpt>
      <trkpt lat="63.114434033632278" lon="7.763999998569489">
        <ele>17.920000000000002</ele>
        <time>2017-06-21T08:40:24Z</time>
      </trkpt>
      <trkpt lat="63.114378964528441" lon="7.764192027971149">
        <ele>17.440000000000001</ele>
        <time>2017-06-21T08:40:25Z</time>
      </trkpt>
      <trkpt lat="63.114320961758494" lon="7.764378022402525">
        <ele>17.440000000000001</ele>
        <time>2017-06-21T08:40:26Z</time>
      </trkpt>
      <trkpt lat="63.114258013665676" lon="7.764554964378476">
        <ele>17.440000000000001</ele>
        <time>2017-06-21T08:40:27Z</time>
      </trkpt>
      <trkpt lat="63.113488974049687" lon="7.766486993059516">
        <ele>23.690000000000001</ele>
        <time>2017-06-21T08:40:38Z</time>
      </trkpt>
      <trkpt lat="63.113390989601612" lon="7.766619008034468">
        <ele>24.170000000000002</ele>
        <time>2017-06-21T08:40:39Z</time>
      </trkpt>
      <trkpt lat="63.113291999325156" lon="7.766735013574362">
        <ele>24.170000000000002</ele>
        <time>2017-06-21T08:40:40Z</time>
      </trkpt>
      <trkpt lat="63.113184962421656" lon="7.766831992194057">
        <ele>24.649999999999999</ele>
        <time>2017-06-21T08:40:41Z</time>
      </trkpt>
      <trkpt lat="63.113067029044032" lon="7.7669039927423">
        <ele>25.129999999999999</ele>
        <time>2017-06-21T08:40:42Z</time>
      </trkpt>
      <trkpt lat="63.112949011847377" lon="7.766960989683867">
        <ele>25.129999999999999</ele>
        <time>2017-06-21T08:40:43Z</time>
      </trkpt>
      <trkpt lat="63.111487962305546" lon="7.767640007659793">
        <ele>31.859999999999999</ele>
        <time>2017-06-21T08:40:55Z</time>
      </trkpt>
      <trkpt lat="63.110831994563341" lon="7.76797603815794">
        <ele>30.420000000000002</ele>
        <time>2017-06-21T08:41:00Z</time>
      </trkpt>
      <trkpt lat="63.110601995140314" lon="7.768231015652418">
        <ele>30.899999999999999</ele>
        <time>2017-06-21T08:41:02Z</time>
      </trkpt>
      <trkpt lat="63.110501999035478" lon="7.768399994820356">
        <ele>30.899999999999999</ele>
        <time>2017-06-21T08:41:03Z</time>
      </trkpt>
      <trkpt lat="63.110412983223796" lon="7.768606022000313">
        <ele>31.379999999999999</ele>
        <time>2017-06-21T08:41:04Z</time>
      </trkpt>
      <trkpt lat="63.11033695936203" lon="7.768824035301805">
        <ele>31.859999999999999</ele>
        <time>2017-06-21T08:41:05Z</time>
      </trkpt>
      <trkpt lat="63.110273005440831" lon="7.769045988097787">
        <ele>32.340000000000003</ele>
        <time>2017-06-21T08:41:06Z</time>
      </trkpt>
      <trkpt lat="63.110219025984406" lon="7.769259978085756">
        <ele>32.340000000000003</ele>
        <time>2017-06-21T08:41:07Z</time>
      </trkpt>
      <trkpt lat="63.110179966315627" lon="7.769472962245345">
        <ele>32.340000000000003</ele>
        <time>2017-06-21T08:41:08Z</time>
      </trkpt>
      <trkpt lat="63.110150964930654" lon="7.769692987203598">
        <ele>32.340000000000003</ele>
        <time>2017-06-21T08:41:09Z</time>
      </trkpt>
      <trkpt lat="63.110134033486247" lon="7.769908988848329">
        <ele>32.340000000000003</ele>
        <time>2017-06-21T08:41:10Z</time>
      </trkpt>
      <trkpt lat="63.110124981030822" lon="7.770114010199904">
        <ele>32.340000000000003</ele>
        <time>2017-06-21T08:41:11Z</time>
      </trkpt>
      <trkpt lat="63.11011902987957" lon="7.770329006016254">
        <ele>32.82</ele>
        <time>2017-06-21T08:41:12Z</time>
      </trkpt>
      <trkpt lat="63.110118024051189" lon="7.770535033196211">
        <ele>32.340000000000003</ele>
        <time>2017-06-21T08:41:13Z</time>
      </trkpt>
      <trkpt lat="63.110158005729318" lon="7.773109031841159">
        <ele>30.899999999999999</ele>
        <time>2017-06-21T08:41:26Z</time>
      </trkpt>
      <trkpt lat="63.110155994072556" lon="7.776710987091065">
        <ele>35.710000000000001</ele>
        <time>2017-06-21T08:41:41Z</time>
      </trkpt>
      <trkpt lat="63.110138978809118" lon="7.779075019061565">
        <ele>35.710000000000001</ele>
        <time>2017-06-21T08:41:52Z</time>
      </trkpt>
      <trkpt lat="63.110109977424145" lon="7.782225022092462">
        <ele>39.07</ele>
        <time>2017-06-21T08:42:07Z</time>
      </trkpt>
      <trkpt lat="63.110047029331326" lon="7.782948967069387">
        <ele>37.630000000000003</ele>
        <time>2017-06-21T08:42:12Z</time>
      </trkpt>
      <trkpt lat="63.110019033774734" lon="7.783061033114791">
        <ele>38.109999999999999</ele>
        <time>2017-06-21T08:42:13Z</time>
      </trkpt>
      <trkpt lat="63.109981985762715" lon="7.783171003684402">
        <ele>38.109999999999999</ele>
        <time>2017-06-21T08:42:14Z</time>
      </trkpt>
      <trkpt lat="63.109931023791432" lon="7.783273011445999">
        <ele>38.109999999999999</ele>
        <time>2017-06-21T08:42:15Z</time>
      </trkpt>
      <trkpt lat="63.109879978001118" lon="7.783389016985893">
        <ele>38.109999999999999</ele>
        <time>2017-06-21T08:42:16Z</time>
      </trkpt>
      <trkpt lat="63.109809989109635" lon="7.783676013350487">
        <ele>38.590000000000003</ele>
        <time>2017-06-21T08:42:18Z</time>
      </trkpt>
      <trkpt lat="63.109805965796113" lon="7.783843986690044">
        <ele>38.590000000000003</ele>
        <time>2017-06-21T08:42:19Z</time>
      </trkpt>
      <trkpt lat="63.109807977452874" lon="7.784558963030577">
        <ele>37.630000000000003</ele>
        <time>2017-06-21T08:42:23Z</time>
      </trkpt>
      <trkpt lat="63.109793979674578" lon="7.78471302241087">
        <ele>37.630000000000003</ele>
        <time>2017-06-21T08:42:24Z</time>
      </trkpt>
      <trkpt lat="63.109764978289604" lon="7.784848976880312">
        <ele>37.149999999999999</ele>
        <time>2017-06-21T08:42:25Z</time>
      </trkpt>
      <trkpt lat="63.109721979126334" lon="7.784948972985148">
        <ele>37.149999999999999</ele>
        <time>2017-06-21T08:42:26Z</time>
      </trkpt>
      <trkpt lat="63.109664982184768" lon="7.785010999068618">
        <ele>37.149999999999999</ele>
        <time>2017-06-21T08:42:27Z</time>
      </trkpt>
      <trkpt lat="63.109600022435188" lon="7.785032037645578">
        <ele>37.149999999999999</ele>
        <time>2017-06-21T08:42:28Z</time>
      </trkpt>
      <trkpt lat="63.109536990523338" lon="7.785035977140069">
        <ele>37.149999999999999</ele>
        <time>2017-06-21T08:42:29Z</time>
      </trkpt>
      <trkpt lat="63.108939025551081" lon="7.784903962165117">
        <ele>39.07</ele>
        <time>2017-06-21T08:42:40Z</time>
      </trkpt>
      <trkpt lat="63.108813967555761" lon="7.784870015457273">
        <ele>39.07</ele>
        <time>2017-06-21T08:42:49Z</time>
      </trkpt>
      <trkpt lat="63.108425969257951" lon="7.784761972725391">
        <ele>38.590000000000003</ele>
        <time>2017-06-21T08:42:55Z</time>
      </trkpt>
      <trkpt lat="63.108325973153114" lon="7.784705981612206">
        <ele>38.590000000000003</ele>
        <time>2017-06-21T08:42:57Z</time>
      </trkpt>
      <trkpt lat="63.108291020616889" lon="7.784698018804193">
        <ele>38.590000000000003</ele>
        <time>2017-06-21T08:42:58Z</time>
      </trkpt>
      <trkpt lat="63.108264030888677" lon="7.784710004925728">
        <ele>38.590000000000003</ele>
        <time>2017-06-21T08:42:59Z</time>
      </trkpt>
      <trkpt lat="63.108235029503703" lon="7.784730959683657">
        <ele>38.590000000000003</ele>
        <time>2017-06-21T08:43:00Z</time>
      </trkpt>
      <trkpt lat="63.10820602811873" lon="7.784793991595507">
        <ele>38.590000000000003</ele>
        <time>2017-06-21T08:43:01Z</time>
      </trkpt>
      <trkpt lat="63.108184989541769" lon="7.784912008792162">
        <ele>38.590000000000003</ele>
        <time>2017-06-21T08:43:02Z</time>
      </trkpt>
      <trkpt lat="63.108168980106711" lon="7.78505701571703">
        <ele>39.549999999999997</ele>
        <time>2017-06-21T08:43:03Z</time>
      </trkpt>
      <trkpt lat="63.108149031177163" lon="7.785228006541729">
        <ele>40.030000000000001</ele>
        <time>2017-06-21T08:43:04Z</time>
      </trkpt>
      <trkpt lat="63.107904028147459" lon="7.787584997713566">
        <ele>46.759999999999998</ele>
        <time>2017-06-21T08:43:14Z</time>
      </trkpt>
      <trkpt lat="63.10797200538218" lon="7.79002103023231">
        <ele>48.68</ele>
        <time>2017-06-21T08:43:23Z</time>
      </trkpt>
      <trkpt lat="63.108156993985176" lon="7.79128703288734">
        <ele>51.090000000000003</ele>
        <time>2017-06-21T08:43:29Z</time>
      </trkpt>
      <trkpt lat="63.108159005641937" lon="7.79141703620553">
        <ele>51.57</ele>
        <time>2017-06-21T08:43:30Z</time>
      </trkpt>
      <trkpt lat="63.108145007863641" lon="7.791522983461618">
        <ele>52.049999999999997</ele>
        <time>2017-06-21T08:43:31Z</time>
      </trkpt>
      <trkpt lat="63.108115000650287" lon="7.791598001495004">
        <ele>52.049999999999997</ele>
        <time>2017-06-21T08:43:32Z</time>
      </trkpt>
      <trkpt lat="63.108069989830256" lon="7.791641000658274">
        <ele>52.530000000000001</ele>
        <time>2017-06-21T08:43:33Z</time>
      </trkpt>
      <trkpt lat="63.108010981231928" lon="7.791667990386486">
        <ele>52.530000000000001</ele>
        <time>2017-06-21T08:43:34Z</time>
      </trkpt>
      <trkpt lat="63.107940992340446" lon="7.791690034791827">
        <ele>52.530000000000001</ele>
        <time>2017-06-21T08:43:35Z</time>
      </trkpt>
      <trkpt lat="63.107860023155808" lon="7.791703026741743">
        <ele>52.530000000000001</ele>
        <time>2017-06-21T08:43:36Z</time>
      </trkpt>
      <trkpt lat="63.10700599104166" lon="7.79171702452004">
        <ele>51.57</ele>
        <time>2017-06-21T08:43:46Z</time>
      </trkpt>
      <trkpt lat="63.106934996321797" lon="7.791715012863278">
        <ele>52.049999999999997</ele>
        <time>2017-06-21T08:43:47Z</time>
      </trkpt>
      <trkpt lat="63.106805998831987" lon="7.791314022615552">
        <ele>52.049999999999997</ele>
        <time>2017-06-21T08:43:52Z</time>
      </trkpt>
      <trkpt lat="63.106798036023974" lon="7.790944967418909">
        <ele>52.530000000000001</ele>
        <time>2017-06-21T08:43:56Z</time>
      </trkpt>
      <trkpt lat="63.106692004948854" lon="7.790852012112737">
        <ele>54.450000000000003</ele>
        <time>2017-06-21T08:44:07Z</time>
      </trkpt>
      <trkpt lat="63.106753025203943" lon="7.790855029597879">
        <ele>62.619999999999997</ele>
        <time>2017-06-21T08:56:58Z</time>
      </trkpt>
      <trkpt lat="63.106743972748518" lon="7.790969023481011">
        <ele>69.349999999999994</ele>
        <time>2017-06-21T08:57:48Z</time>
      </trkpt>
      <trkpt lat="63.106744978576899" lon="7.790986960753799">
        <ele>68.870000000000005</ele>
        <time>2017-06-21T08:57:49Z</time>
      </trkpt>
      <trkpt lat="63.106741961091757" lon="7.79107597656548">
        <ele>67.430000000000007</ele>
        <time>2017-06-21T08:57:51Z</time>
      </trkpt>
      <trkpt lat="63.106749001890421" lon="7.79143899679184">
        <ele>67.430000000000007</ele>
        <time>2017-06-21T08:57:54Z</time>
      </trkpt>
      <trkpt lat="63.106905994936824" lon="7.791776033118367">
        <ele>67.909999999999997</ele>
        <time>2017-06-21T08:57:58Z</time>
      </trkpt>
      <trkpt lat="63.107835967093706" lon="7.791732028126717">
        <ele>68.870000000000005</ele>
        <time>2017-06-21T08:58:08Z</time>
      </trkpt>
      <trkpt lat="63.107911990955472" lon="7.791723981499672">
        <ele>68.390000000000001</ele>
        <time>2017-06-21T08:58:09Z</time>
      </trkpt>
      <trkpt lat="63.10814299620688" lon="7.791662039235234">
        <ele>67.909999999999997</ele>
        <time>2017-06-21T08:58:13Z</time>
      </trkpt>
      <trkpt lat="63.108188007026911" lon="7.791691040620208">
        <ele>66.950000000000003</ele>
        <time>2017-06-21T08:58:14Z</time>
      </trkpt>
      <trkpt lat="63.108219020068645" lon="7.791746025905013">
        <ele>63.100000000000001</ele>
        <time>2017-06-21T08:58:15Z</time>
      </trkpt>
      <trkpt lat="63.108243998140097" lon="7.791806040331721">
        <ele>61.18</ele>
        <time>2017-06-21T08:58:16Z</time>
      </trkpt>
      <trkpt lat="63.108261013403535" lon="7.791878040879965">
        <ele>59.259999999999998</ele>
        <time>2017-06-21T08:58:17Z</time>
      </trkpt>
      <trkpt lat="63.10827299952507" lon="7.791961021721363">
        <ele>57.340000000000003</ele>
        <time>2017-06-21T08:58:18Z</time>
      </trkpt>
      <trkpt lat="63.108281968161464" lon="7.792093036696315">
        <ele>57.340000000000003</ele>
        <time>2017-06-21T08:58:19Z</time>
      </trkpt>
      <trkpt lat="63.108282973989844" lon="7.792246006429195">
        <ele>57.340000000000003</ele>
        <time>2017-06-21T08:58:20Z</time>
      </trkpt>
      <trkpt lat="63.108278028666973" lon="7.79240501113236">
        <ele>57.340000000000003</ele>
        <time>2017-06-21T08:58:21Z</time>
      </trkpt>
      <trkpt lat="63.108265958726406" lon="7.792580025270581">
        <ele>57.340000000000003</ele>
        <time>2017-06-21T08:58:22Z</time>
      </trkpt>
      <trkpt lat="63.108249027282" lon="7.792744981124997">
        <ele>57.82</ele>
        <time>2017-06-21T08:58:23Z</time>
      </trkpt>
      <trkpt lat="63.10820703394711" lon="7.793010016903281">
        <ele>57.340000000000003</ele>
        <time>2017-06-21T08:58:25Z</time>
      </trkpt>
      <trkpt lat="63.108184989541769" lon="7.793118981644511">
        <ele>57.340000000000003</ele>
        <time>2017-06-21T08:58:26Z</time>
      </trkpt>
      <trkpt lat="63.107988014817238" lon="7.793903024867177">
        <ele>56.369999999999997</ele>
        <time>2017-06-21T08:58:37Z</time>
      </trkpt>
      <trkpt lat="63.107659025117755" lon="7.794796032831073">
        <ele>53.490000000000002</ele>
        <time>2017-06-21T08:58:45Z</time>
      </trkpt>
      <trkpt lat="63.107443023473024" lon="7.795513020828366">
        <ele>51.57</ele>
        <time>2017-06-21T08:58:51Z</time>
      </trkpt>
      <trkpt lat="63.107365993782878" lon="7.79580001719296">
        <ele>50.609999999999999</ele>
        <time>2017-06-21T08:58:54Z</time>
      </trkpt>
      <trkpt lat="63.107308996841311" lon="7.79629597440362">
        <ele>52.049999999999997</ele>
        <time>2017-06-21T08:59:02Z</time>
      </trkpt>
      <trkpt lat="63.107442017644644" lon="7.796843983232975">
        <ele>49.159999999999997</ele>
        <time>2017-06-21T08:59:16Z</time>
      </trkpt>
      <trkpt lat="63.107398012652993" lon="7.796843983232975">
        <ele>48.68</ele>
        <time>2017-06-21T08:59:33Z</time>
      </trkpt>
      <trkpt lat="63.107322994619608" lon="7.796162031590939">
        <ele>49.649999999999999</ele>
        <time>2017-06-21T08:59:42Z</time>
      </trkpt>
      <trkpt lat="63.107388960197568" lon="7.795721981674433">
        <ele>48.200000000000003</ele>
        <time>2017-06-21T08:59:46Z</time>
      </trkpt>
      <trkpt lat="63.107919031754136" lon="7.794064963236451">
        <ele>47.719999999999999</ele>
        <time>2017-06-21T09:00:01Z</time>
      </trkpt>
      <trkpt lat="63.108094967901707" lon="7.793449983000755">
        <ele>49.159999999999997</ele>
        <time>2017-06-21T09:00:09Z</time>
      </trkpt>
      <trkpt lat="63.10825196094811" lon="7.792671974748373">
        <ele>49.649999999999999</ele>
        <time>2017-06-21T09:00:17Z</time>
      </trkpt>
      <trkpt lat="63.108263025060296" lon="7.792545994743705">
        <ele>49.649999999999999</ele>
        <time>2017-06-21T09:00:18Z</time>
      </trkpt>
      <trkpt lat="63.108385987579823" lon="7.792091025039554">
        <ele>49.649999999999999</ele>
        <time>2017-06-21T09:00:26Z</time>
      </trkpt>
      <trkpt lat="63.108409959822893" lon="7.792116003111005">
        <ele>49.649999999999999</ele>
        <time>2017-06-21T09:00:27Z</time>
      </trkpt>
      <trkpt lat="63.108441978693008" lon="7.792142992839217">
        <ele>49.649999999999999</ele>
        <time>2017-06-21T09:00:28Z</time>
      </trkpt>
      <trkpt lat="63.108480032533407" lon="7.79219102114439">
        <ele>50.130000000000003</ele>
        <time>2017-06-21T09:00:29Z</time>
      </trkpt>
      <trkpt lat="63.108510039746761" lon="7.792247012257576">
        <ele>50.609999999999999</ele>
        <time>2017-06-21T09:00:30Z</time>
      </trkpt>
      <trkpt lat="63.108539041131735" lon="7.792313983663917">
        <ele>50.609999999999999</ele>
        <time>2017-06-21T09:00:31Z</time>
      </trkpt>
      <trkpt lat="63.108570976182818" lon="7.792395958676934">
        <ele>50.609999999999999</ele>
        <time>2017-06-21T09:00:32Z</time>
      </trkpt>
      <trkpt lat="63.108798963949084" lon="7.79324596747756">
        <ele>51.090000000000003</ele>
        <time>2017-06-21T09:00:38Z</time>
      </trkpt>
      <trkpt lat="63.108826037496328" lon="7.793429028242827">
        <ele>51.57</ele>
        <time>2017-06-21T09:00:39Z</time>
      </trkpt>
      <trkpt lat="63.108886973932385" lon="7.794339973479509">
        <ele>54.450000000000003</ele>
        <time>2017-06-21T09:00:46Z</time>
      </trkpt>
      <trkpt lat="63.10889502055943" lon="7.794382972642779">
        <ele>54.450000000000003</ele>
        <time>2017-06-21T09:00:47Z</time>
      </trkpt>
      <trkpt lat="63.108936008065939" lon="7.794151967391372">
        <ele>54.93</ele>
        <time>2017-06-21T09:00:53Z</time>
      </trkpt>
      <trkpt lat="63.108925027772784" lon="7.794037973508239">
        <ele>55.890000000000001</ele>
        <time>2017-06-21T09:00:54Z</time>
      </trkpt>
      <trkpt lat="63.108665021136403" lon="7.79272897168994">
        <ele>53.009999999999998</ele>
        <time>2017-06-21T09:01:02Z</time>
      </trkpt>
      <trkpt lat="63.108251038938761" lon="7.791464980691671">
        <ele>51.57</ele>
        <time>2017-06-21T09:01:11Z</time>
      </trkpt>
      <trkpt lat="63.108214996755123" lon="7.791272029280663">
        <ele>51.090000000000003</ele>
        <time>2017-06-21T09:01:12Z</time>
      </trkpt>
      <trkpt lat="63.107921965420246" lon="7.788911014795303">
        <ele>45.799999999999997</ele>
        <time>2017-06-21T09:01:22Z</time>
      </trkpt>
      <trkpt lat="63.107914002612233" lon="7.788666011765599">
        <ele>45.799999999999997</ele>
        <time>2017-06-21T09:01:23Z</time>
      </trkpt>
      <trkpt lat="63.107912996783853" lon="7.78841002844274">
        <ele>45.799999999999997</ele>
        <time>2017-06-21T09:01:24Z</time>
      </trkpt>
      <trkpt lat="63.107918025925756" lon="7.788152033463121">
        <ele>45.799999999999997</ele>
        <time>2017-06-21T09:01:25Z</time>
      </trkpt>
      <trkpt lat="63.107932023704052" lon="7.787885991856456">
        <ele>45.32</ele>
        <time>2017-06-21T09:01:26Z</time>
      </trkpt>
      <trkpt lat="63.107954990118742" lon="7.787613999098539">
        <ele>44.840000000000003</ele>
        <time>2017-06-21T09:01:27Z</time>
      </trkpt>
      <trkpt lat="63.108169985935092" lon="7.785312999039888">
        <ele>36.189999999999998</ele>
        <time>2017-06-21T09:01:37Z</time>
      </trkpt>
      <trkpt lat="63.108204016461968" lon="7.785022985190153">
        <ele>34.740000000000002</ele>
        <time>2017-06-21T09:01:39Z</time>
      </trkpt>
      <trkpt lat="63.108227988705039" lon="7.78490899130702">
        <ele>33.780000000000001</ele>
        <time>2017-06-21T09:01:40Z</time>
      </trkpt>
      <trkpt lat="63.108264030888677" lon="7.784804971888661">
        <ele>33.780000000000001</ele>
        <time>2017-06-21T09:01:41Z</time>
      </trkpt>
      <trkpt lat="63.10831599868834" lon="7.78473598882556">
        <ele>33.780000000000001</ele>
        <time>2017-06-21T09:01:42Z</time>
      </trkpt>
      <trkpt lat="63.108383975923061" lon="7.784719979390502">
        <ele>33.780000000000001</ele>
        <time>2017-06-21T09:01:43Z</time>
      </trkpt>
      <trkpt lat="63.108463017269969" lon="7.78473598882556">
        <ele>33.780000000000001</ele>
        <time>2017-06-21T09:01:44Z</time>
      </trkpt>
      <trkpt lat="63.108545998111367" lon="7.784769013524056">
        <ele>33.780000000000001</ele>
        <time>2017-06-21T09:01:45Z</time>
      </trkpt>
      <trkpt lat="63.109670011326671" lon="7.785005969926715">
        <ele>33.299999999999997</ele>
        <time>2017-06-21T09:01:58Z</time>
      </trkpt>
      <trkpt lat="63.109737988561392" lon="7.784969005733728">
        <ele>33.299999999999997</ele>
        <time>2017-06-21T09:01:59Z</time>
      </trkpt>
      <trkpt lat="63.109794985502958" lon="7.784877978265286">
        <ele>33.299999999999997</ele>
        <time>2017-06-21T09:02:00Z</time>
      </trkpt>
      <trkpt lat="63.109833961352706" lon="7.78473598882556">
        <ele>33.299999999999997</ele>
        <time>2017-06-21T09:02:01Z</time>
      </trkpt>
      <trkpt lat="63.109850976616144" lon="7.784567009657621">
        <ele>33.780000000000001</ele>
        <time>2017-06-21T09:02:02Z</time>
      </trkpt>
      <trkpt lat="63.109852988272905" lon="7.784387972205877">
        <ele>33.780000000000001</ele>
        <time>2017-06-21T09:02:03Z</time>
      </trkpt>
      <trkpt lat="63.109850976616144" lon="7.784201977774501">
        <ele>34.259999999999998</ele>
        <time>2017-06-21T09:02:04Z</time>
      </trkpt>
      <trkpt lat="63.109862040728331" lon="7.783707026392222">
        <ele>34.740000000000002</ele>
        <time>2017-06-21T09:02:07Z</time>
      </trkpt>
      <trkpt lat="63.109881989657879" lon="7.783599989488721">
        <ele>34.740000000000002</ele>
        <time>2017-06-21T09:02:08Z</time>
      </trkpt>
      <trkpt lat="63.109907973557711" lon="7.783513991162181">
        <ele>34.740000000000002</ele>
        <time>2017-06-21T09:02:09Z</time>
      </trkpt>
      <trkpt lat="63.109937980771065" lon="7.783459005877376">
        <ele>34.740000000000002</ele>
        <time>2017-06-21T09:02:10Z</time>
      </trkpt>
      <trkpt lat="63.109968993812799" lon="7.783420030027628">
        <ele>34.740000000000002</ele>
        <time>2017-06-21T09:02:11Z</time>
      </trkpt>
      <trkpt lat="63.110000006854534" lon="7.783407038077712">
        <ele>34.740000000000002</ele>
        <time>2017-06-21T09:02:12Z</time>
      </trkpt>
      <trkpt lat="63.110036971047521" lon="7.783422963693738">
        <ele>34.740000000000002</ele>
        <time>2017-06-21T09:02:13Z</time>
      </trkpt>
      <trkpt lat="63.110064966604114" lon="7.783508040010929">
        <ele>33.780000000000001</ele>
        <time>2017-06-21T09:02:14Z</time>
      </trkpt>
      <trkpt lat="63.110094973817468" lon="7.783646006137133">
        <ele>33.780000000000001</ele>
        <time>2017-06-21T09:02:15Z</time>
      </trkpt>
      <trkpt lat="63.110110983252525" lon="7.7838100399822">
        <ele>33.299999999999997</ele>
        <time>2017-06-21T09:02:16Z</time>
      </trkpt>
      <trkpt lat="63.11011902987957" lon="7.783999973908067">
        <ele>32.82</ele>
        <time>2017-06-21T09:02:17Z</time>
      </trkpt>
      <trkpt lat="63.110122969374061" lon="7.784213963896036">
        <ele>32.340000000000003</ele>
        <time>2017-06-21T09:02:18Z</time>
      </trkpt>
      <trkpt lat="63.110122969374061" lon="7.784452009946108">
        <ele>31.859999999999999</ele>
        <time>2017-06-21T09:02:19Z</time>
      </trkpt>
      <trkpt lat="63.110081981867552" lon="7.788081960752606">
        <ele>37.149999999999999</ele>
        <time>2017-06-21T09:02:32Z</time>
      </trkpt>
      <trkpt lat="63.110061027109623" lon="7.792291017249227">
        <ele>43.399999999999999</ele>
        <time>2017-06-21T09:02:45Z</time>
      </trkpt>
      <trkpt lat="63.109744023531675" lon="7.794816987589002">
        <ele>46.280000000000001</ele>
        <time>2017-06-21T09:02:52Z</time>
      </trkpt>
      <trkpt lat="63.109203977510333" lon="7.797299958765507">
        <ele>49.649999999999999</ele>
        <time>2017-06-21T09:03:01Z</time>
      </trkpt>
      <trkpt lat="63.108731992542744" lon="7.80031300149858">
        <ele>46.759999999999998</ele>
        <time>2017-06-21T09:03:12Z</time>
      </trkpt>
      <trkpt lat="63.108499981462955" lon="7.802683990448713">
        <ele>40.990000000000002</ele>
        <time>2017-06-21T09:03:21Z</time>
      </trkpt>
      <trkpt lat="63.108306024223566" lon="7.804863033816218">
        <ele>34.259999999999998</ele>
        <time>2017-06-21T09:03:28Z</time>
      </trkpt>
      <trkpt lat="63.107797997072339" lon="7.807960985228419">
        <ele>28.98</ele>
        <time>2017-06-21T09:03:39Z</time>
      </trkpt>
      <trkpt lat="63.107031974941492" lon="7.810941003262997">
        <ele>24.649999999999999</ele>
        <time>2017-06-21T09:03:49Z</time>
      </trkpt>
      <trkpt lat="63.10685696080327" lon="7.813384998589754">
        <ele>21.77</ele>
        <time>2017-06-21T09:03:56Z</time>
      </trkpt>
      <trkpt lat="63.107126019895077" lon="7.816811017692089">
        <ele>17.920000000000002</ele>
        <time>2017-06-21T09:04:06Z</time>
      </trkpt>
      <trkpt lat="63.107089977711439" lon="7.818825021386147">
        <ele>18.399999999999999</ele>
        <time>2017-06-21T09:04:12Z</time>
      </trkpt>
      <trkpt lat="63.107043039053679" lon="7.819130038842559">
        <ele>18.879999999999999</ele>
        <time>2017-06-21T09:04:13Z</time>
      </trkpt>
      <trkpt lat="63.10698595829308" lon="7.819419968873262">
        <ele>19.359999999999999</ele>
        <time>2017-06-21T09:04:14Z</time>
      </trkpt>
      <trkpt lat="63.10691999271512" lon="7.819694979116321">
        <ele>20.32</ele>
        <time>2017-06-21T09:04:15Z</time>
      </trkpt>
      <trkpt lat="63.106850003823638" lon="7.819959009066224">
        <ele>20.809999999999999</ele>
        <time>2017-06-21T09:04:16Z</time>
      </trkpt>
      <trkpt lat="63.106770040467381" lon="7.820209041237831">
        <ele>20.809999999999999</ele>
        <time>2017-06-21T09:04:17Z</time>
      </trkpt>
      <trkpt lat="63.106678007170558" lon="7.820439962670207">
        <ele>21.289999999999999</ele>
        <time>2017-06-21T09:04:18Z</time>
      </trkpt>
      <trkpt lat="63.106581028550863" lon="7.820669962093234">
        <ele>21.77</ele>
        <time>2017-06-21T09:04:19Z</time>
      </trkpt>
      <trkpt lat="63.106473991647363" lon="7.820879006758332">
        <ele>21.77</ele>
        <time>2017-06-21T09:04:20Z</time>
      </trkpt>
      <trkpt lat="63.10635999776423" lon="7.821070030331612">
        <ele>22.25</ele>
        <time>2017-06-21T09:04:21Z</time>
      </trkpt>
      <trkpt lat="63.106235023587942" lon="7.821243032813072">
        <ele>22.25</ele>
        <time>2017-06-21T09:04:22Z</time>
      </trkpt>
      <trkpt lat="63.106097979471087" lon="7.821392985060811">
        <ele>22.25</ele>
        <time>2017-06-21T09:04:23Z</time>
      </trkpt>
      <trkpt lat="63.105951966717839" lon="7.821535980328918">
        <ele>21.77</ele>
        <time>2017-06-21T09:04:24Z</time>
      </trkpt>
      <trkpt lat="63.10580100864172" lon="7.821651985868812">
        <ele>21.289999999999999</ele>
        <time>2017-06-21T09:04:25Z</time>
      </trkpt>
      <trkpt lat="63.105639992281795" lon="7.82173303887248">
        <ele>20.809999999999999</ele>
        <time>2017-06-21T09:04:26Z</time>
      </trkpt>
      <trkpt lat="63.105474030598998" lon="7.821781989187002">
        <ele>19.84</ele>
        <time>2017-06-21T09:04:27Z</time>
      </trkpt>
      <trkpt lat="63.105303961783648" lon="7.821813002228737">
        <ele>19.359999999999999</ele>
        <time>2017-06-21T09:04:28Z</time>
      </trkpt>
      <trkpt lat="63.105141017585993" lon="7.821806967258453">
        <ele>18.399999999999999</ele>
        <time>2017-06-21T09:04:29Z</time>
      </trkpt>
      <trkpt lat="63.104976983740926" lon="7.821782995015383">
        <ele>17.440000000000001</ele>
        <time>2017-06-21T09:04:30Z</time>
      </trkpt>
      <trkpt lat="63.103186022490263" lon="7.821041028946638">
        <ele>7.35</ele>
        <time>2017-06-21T09:04:41Z</time>
      </trkpt>
      <trkpt lat="63.10075200162828" lon="7.819532034918666">
        <ele>25.129999999999999</ele>
        <time>2017-06-21T09:04:56Z</time>
      </trkpt>
      <trkpt lat="63.099636035040021" lon="7.818894004449248">
        <ele>36.189999999999998</ele>
        <time>2017-06-21T09:05:03Z</time>
      </trkpt>
      <trkpt lat="63.099490022286773" lon="7.818891992792487">
        <ele>37.630000000000003</ele>
        <time>2017-06-21T09:05:04Z</time>
      </trkpt>
      <trkpt lat="63.099339986220002" lon="7.818920994177461">
        <ele>39.07</ele>
        <time>2017-06-21T09:05:05Z</time>
      </trkpt>
      <trkpt lat="63.099192967638373" lon="7.818991988897324">
        <ele>40.990000000000002</ele>
        <time>2017-06-21T09:05:06Z</time>
      </trkpt>
      <trkpt lat="63.099045027047396" lon="7.819109000265598">
        <ele>42.439999999999998</ele>
        <time>2017-06-21T09:05:07Z</time>
      </trkpt>
      <trkpt lat="63.098904965445399" lon="7.819259958341718">
        <ele>44.359999999999999</ele>
        <time>2017-06-21T09:05:08Z</time>
      </trkpt>
      <trkpt lat="63.098775967955589" lon="7.819432960823178">
        <ele>45.799999999999997</ele>
        <time>2017-06-21T09:05:09Z</time>
      </trkpt>
      <trkpt lat="63.098661974072456" lon="7.819610992446542">
        <ele>47.240000000000002</ele>
        <time>2017-06-21T09:05:10Z</time>
      </trkpt>
      <trkpt lat="63.098572958260775" lon="7.819785000756383">
        <ele>48.200000000000003</ele>
        <time>2017-06-21T09:05:11Z</time>
      </trkpt>
      <trkpt lat="63.09849701821804" lon="7.819932019338012">
        <ele>48.68</ele>
        <time>2017-06-21T09:05:12Z</time>
      </trkpt>
      <trkpt lat="63.098430968821049" lon="7.820050958544016">
        <ele>49.159999999999997</ele>
        <time>2017-06-21T09:05:13Z</time>
      </trkpt>
      <trkpt lat="63.098353017121553" lon="7.820113990455866">
        <ele>49.649999999999999</ele>
        <time>2017-06-21T09:05:14Z</time>
      </trkpt>
      <trkpt lat="63.098261989653111" lon="7.820125976577401">
        <ele>49.649999999999999</ele>
        <time>2017-06-21T09:05:15Z</time>
      </trkpt>
      <trkpt lat="63.098161993548274" lon="7.820075014606118">
        <ele>50.130000000000003</ele>
        <time>2017-06-21T09:05:16Z</time>
      </trkpt>
      <trkpt lat="63.098057974129915" lon="7.819975018501282">
        <ele>50.609999999999999</ele>
        <time>2017-06-21T09:05:17Z</time>
      </trkpt>
      <trkpt lat="63.097950015217066" lon="7.819838980212808">
        <ele>51.57</ele>
        <time>2017-06-21T09:05:18Z</time>
      </trkpt>
      <trkpt lat="63.097839038819075" lon="7.819687016308308">
        <ele>52.049999999999997</ele>
        <time>2017-06-21T09:05:19Z</time>
      </trkpt>
      <trkpt lat="63.096640007570386" lon="7.818013988435268">
        <ele>54.450000000000003</ele>
        <time>2017-06-21T09:05:30Z</time>
      </trkpt>
      <trkpt lat="63.095383979380131" lon="7.816297961398959">
        <ele>55.409999999999997</ele>
        <time>2017-06-21T09:05:42Z</time>
      </trkpt>
      <trkpt lat="63.094094004482031" lon="7.814563997089863">
        <ele>53.490000000000002</ele>
        <time>2017-06-21T09:05:54Z</time>
      </trkpt>
      <trkpt lat="63.093031011521816" lon="7.812610007822514">
        <ele>51.090000000000003</ele>
        <time>2017-06-21T09:06:05Z</time>
      </trkpt>
      <trkpt lat="63.092063991352916" lon="7.810233989730477">
        <ele>47.719999999999999</ele>
        <time>2017-06-21T09:06:16Z</time>
      </trkpt>
      <trkpt lat="63.090259032323956" lon="7.807271992787719">
        <ele>42.920000000000002</ele>
        <time>2017-06-21T09:06:32Z</time>
      </trkpt>
      <trkpt lat="63.088260032236576" lon="7.803866006433964">
        <ele>44.840000000000003</ele>
        <time>2017-06-21T09:06:48Z</time>
      </trkpt>
      <trkpt lat="63.086776016280055" lon="7.800509976223111">
        <ele>38.109999999999999</ele>
        <time>2017-06-21T09:07:00Z</time>
      </trkpt>
      <trkpt lat="63.085671029984951" lon="7.797989035025239">
        <ele>40.509999999999998</ele>
        <time>2017-06-21T09:07:11Z</time>
      </trkpt>
      <trkpt lat="63.084669979289174" lon="7.795705972239375">
        <ele>38.590000000000003</ele>
        <time>2017-06-21T09:07:20Z</time>
      </trkpt>
      <trkpt lat="63.083759034052491" lon="7.793646035715938">
        <ele>38.109999999999999</ele>
        <time>2017-06-21T09:07:29Z</time>
      </trkpt>
      <trkpt lat="63.083599023520947" lon="7.793281003832817">
        <ele>38.590000000000003</ele>
        <time>2017-06-21T09:07:33Z</time>
      </trkpt>
      <trkpt lat="63.083578990772367" lon="7.793218977749348">
        <ele>39.07</ele>
        <time>2017-06-21T09:07:34Z</time>
      </trkpt>
      <trkpt lat="63.083572033792734" lon="7.793160974979401">
        <ele>38.590000000000003</ele>
        <time>2017-06-21T09:07:35Z</time>
      </trkpt>
      <trkpt lat="63.083574967458844" lon="7.793111018836498">
        <ele>38.590000000000003</ele>
        <time>2017-06-21T09:07:36Z</time>
      </trkpt>
      <trkpt lat="63.08358795940876" lon="7.793060978874564">
        <ele>38.590000000000003</ele>
        <time>2017-06-21T09:07:37Z</time>
      </trkpt>
      <trkpt lat="63.083687033504248" lon="7.793161980807781">
        <ele>37.149999999999999</ele>
        <time>2017-06-21T09:07:42Z</time>
      </trkpt>
      <trkpt lat="63.083716034889221" lon="7.79324496164918">
        <ele>37.149999999999999</ele>
        <time>2017-06-21T09:07:43Z</time>
      </trkpt>
      <trkpt lat="63.083778982982039" lon="7.793422993272543">
        <ele>37.630000000000003</ele>
        <time>2017-06-21T09:07:45Z</time>
      </trkpt>
      <trkpt lat="63.083985010161996" lon="7.793905036523938">
        <ele>38.109999999999999</ele>
        <time>2017-06-21T09:07:57Z</time>
      </trkpt>
      <trkpt lat="63.083986015990376" lon="7.793950969353318">
        <ele>38.590000000000003</ele>
        <time>2017-06-21T09:09:27Z</time>
      </trkpt>
      <trkpt lat="63.083988027647138" lon="7.793918028473854">
        <ele>39.07</ele>
        <time>2017-06-21T09:09:45Z</time>
      </trkpt>
      <trkpt lat="63.083973024040461" lon="7.793905036523938">
        <ele>39.549999999999997</ele>
        <time>2017-06-21T09:09:49Z</time>
      </trkpt>
      <trkpt lat="63.083733972162008" lon="7.793246973305941">
        <ele>40.030000000000001</ele>
        <time>2017-06-21T09:09:56Z</time>
      </trkpt>
      <trkpt lat="63.083653002977371" lon="7.793103978037834">
        <ele>40.509999999999998</ele>
        <time>2017-06-21T09:09:59Z</time>
      </trkpt>
      <trkpt lat="63.083599023520947" lon="7.793143037706614">
        <ele>40.990000000000002</ele>
        <time>2017-06-21T09:10:02Z</time>
      </trkpt>
      <trkpt lat="63.083527022972703" lon="7.793088974431157">
        <ele>42.439999999999998</ele>
        <time>2017-06-21T09:10:04Z</time>
      </trkpt>
      <trkpt lat="63.083490980789065" lon="7.792972968891263">
        <ele>42.920000000000002</ele>
        <time>2017-06-21T09:10:05Z</time>
      </trkpt>
      <trkpt lat="63.083085967227817" lon="7.791263982653618">
        <ele>48.200000000000003</ele>
        <time>2017-06-21T09:10:13Z</time>
      </trkpt>
      <trkpt lat="63.08231801725924" lon="7.787921028211713">
        <ele>53.490000000000002</ele>
        <time>2017-06-21T09:10:24Z</time>
      </trkpt>
      <trkpt lat="63.081364994868636" lon="7.784705981612206">
        <ele>59.740000000000002</ele>
        <time>2017-06-21T09:10:33Z</time>
      </trkpt>
      <trkpt lat="63.079249989241362" lon="7.778992038220167">
        <ele>69.829999999999998</ele>
        <time>2017-06-21T09:10:49Z</time>
      </trkpt>
      <trkpt lat="63.077935036271811" lon="7.775590997189283">
        <ele>72.719999999999999</ele>
        <time>2017-06-21T09:11:00Z</time>
      </trkpt>
      <trkpt lat="63.076531989499927" lon="7.771902037784457">
        <ele>75.120000000000005</ele>
        <time>2017-06-21T09:11:12Z</time>
      </trkpt>
      <trkpt lat="63.076381031423807" lon="7.771643958985806">
        <ele>74.640000000000001</ele>
        <time>2017-06-21T09:11:13Z</time>
      </trkpt>
      <trkpt lat="63.076219009235501" lon="7.771418988704681">
        <ele>74.159999999999997</ele>
        <time>2017-06-21T09:11:14Z</time>
      </trkpt>
      <trkpt lat="63.07604399509728" lon="7.771234000101686">
        <ele>74.159999999999997</ele>
        <time>2017-06-21T09:11:15Z</time>
      </trkpt>
      <trkpt lat="63.075863029807806" lon="7.771099973469973">
        <ele>74.640000000000001</ele>
        <time>2017-06-21T09:11:16Z</time>
      </trkpt>
      <trkpt lat="63.075675023719668" lon="7.771012969315052">
        <ele>74.640000000000001</ele>
        <time>2017-06-21T09:11:17Z</time>
      </trkpt>
      <trkpt lat="63.075481988489628" lon="7.770988997071981">
        <ele>74.159999999999997</ele>
        <time>2017-06-21T09:11:18Z</time>
      </trkpt>
      <trkpt lat="63.07529398240149" lon="7.7710070181638">
        <ele>74.640000000000001</ele>
        <time>2017-06-21T09:11:19Z</time>
      </trkpt>
      <trkpt lat="63.075104970484972" lon="7.771053034812212">
        <ele>74.640000000000001</ele>
        <time>2017-06-21T09:11:20Z</time>
      </trkpt>
      <trkpt lat="63.074918976053596" lon="7.771105002611876">
        <ele>75.120000000000005</ele>
        <time>2017-06-21T09:11:21Z</time>
      </trkpt>
      <trkpt lat="63.071904005482793" lon="7.772116027772427">
        <ele>79.930000000000007</ele>
        <time>2017-06-21T09:11:37Z</time>
      </trkpt>
      <trkpt lat="63.070311024785042" lon="7.77337096631527">
        <ele>77.519999999999996</ele>
        <time>2017-06-21T09:11:45Z</time>
      </trkpt>
      <trkpt lat="63.067391021177173" lon="7.776158032938838">
        <ele>78</ele>
        <time>2017-06-21T09:12:00Z</time>
      </trkpt>
      <trkpt lat="63.064336990937591" lon="7.778863040730357">
        <ele>78</ele>
        <time>2017-06-21T09:12:14Z</time>
      </trkpt>
      <trkpt lat="63.064114032313228" lon="7.77893696911633">
        <ele>78.480000000000004</ele>
        <time>2017-06-21T09:12:15Z</time>
      </trkpt>
      <trkpt lat="63.063890989869833" lon="7.778963958844543">
        <ele>79.930000000000007</ele>
        <time>2017-06-21T09:12:16Z</time>
      </trkpt>
      <trkpt lat="63.061642963439226" lon="7.778877038508654">
        <ele>84.730000000000004</ele>
        <time>2017-06-21T09:12:26Z</time>
      </trkpt>
      <trkpt lat="63.061416987329721" lon="7.7789989951998">
        <ele>84.730000000000004</ele>
        <time>2017-06-21T09:12:27Z</time>
      </trkpt>
      <trkpt lat="63.061197968199849" lon="7.779164034873247">
        <ele>84.25</ele>
        <time>2017-06-21T09:12:28Z</time>
      </trkpt>
      <trkpt lat="63.060985989868641" lon="7.779378024861217">
        <ele>83.769999999999996</ele>
        <time>2017-06-21T09:12:29Z</time>
      </trkpt>
      <trkpt lat="63.060787003487349" lon="7.77964398264885">
        <ele>83.769999999999996</ele>
        <time>2017-06-21T09:12:30Z</time>
      </trkpt>
      <trkpt lat="63.060593968257308" lon="7.779953023418784">
        <ele>82.810000000000002</ele>
        <time>2017-06-21T09:12:31Z</time>
      </trkpt>
      <trkpt lat="63.060405040159822" lon="7.78028997592628">
        <ele>81.849999999999994</ele>
        <time>2017-06-21T09:12:32Z</time>
      </trkpt>
      <trkpt lat="63.058523973450065" lon="7.783448025584221">
        <ele>77.519999999999996</ele>
        <time>2017-06-21T09:12:42Z</time>
      </trkpt>
      <trkpt lat="63.057210026308894" lon="7.784414039924741">
        <ele>79.930000000000007</ele>
        <time>2017-06-21T09:12:48Z</time>
      </trkpt>
      <trkpt lat="63.055540015920997" lon="7.784232990816236">
        <ele>83.290000000000006</ele>
        <time>2017-06-21T09:12:55Z</time>
      </trkpt>
      <trkpt lat="63.052890999242663" lon="7.783950017765164">
        <ele>88.099999999999994</ele>
        <time>2017-06-21T09:13:06Z</time>
      </trkpt>
      <trkpt lat="63.050761995837092" lon="7.784039033576846">
        <ele>87.140000000000001</ele>
        <time>2017-06-21T09:13:16Z</time>
      </trkpt>
      <trkpt lat="63.048394024372101" lon="7.784097036346793">
        <ele>94.349999999999994</ele>
        <time>2017-06-21T09:13:29Z</time>
      </trkpt>
      <trkpt lat="63.045590026304126" lon="7.784267021343112">
        <ele>103.95999999999999</ele>
        <time>2017-06-21T09:13:43Z</time>
      </trkpt>
      <trkpt lat="63.045393973588943" lon="7.784347990527749">
        <ele>104.92</ele>
        <time>2017-06-21T09:13:44Z</time>
      </trkpt>
      <trkpt lat="63.045204039663076" lon="7.784470031037927">
        <ele>104.92</ele>
        <time>2017-06-21T09:13:45Z</time>
      </trkpt>
      <trkpt lat="63.045021984726191" lon="7.784618977457285">
        <ele>104.92</ele>
        <time>2017-06-21T09:13:46Z</time>
      </trkpt>
      <trkpt lat="63.04282701574266" lon="7.786963982507587">
        <ele>99.629999999999995</ele>
        <time>2017-06-21T09:13:58Z</time>
      </trkpt>
      <trkpt lat="63.041249960660934" lon="7.788116997107863">
        <ele>89.540000000000006</ele>
        <time>2017-06-21T09:14:06Z</time>
      </trkpt>
      <trkpt lat="63.039868958294392" lon="7.788007026538253">
        <ele>84.25</ele>
        <time>2017-06-21T09:14:13Z</time>
      </trkpt>
      <trkpt lat="63.03709102794528" lon="7.786924000829458">
        <ele>76.560000000000002</ele>
        <time>2017-06-21T09:14:28Z</time>
      </trkpt>
      <trkpt lat="63.034634040668607" lon="7.786537008360028">
        <ele>69.829999999999998</ele>
        <time>2017-06-21T09:14:41Z</time>
      </trkpt>
      <trkpt lat="63.033129991963506" lon="7.785709965974093">
        <ele>65.510000000000005</ele>
        <time>2017-06-21T09:14:49Z</time>
      </trkpt>
      <trkpt lat="63.031969014555216" lon="7.784043978899717">
        <ele>60.219999999999999</ele>
        <time>2017-06-21T09:14:56Z</time>
      </trkpt>
      <trkpt lat="63.030981039628386" lon="7.781326984986663">
        <ele>51.57</ele>
        <time>2017-06-21T09:15:04Z</time>
      </trkpt>
      <trkpt lat="63.030233038589358" lon="7.777572982013226">
        <ele>40.990000000000002</ele>
        <time>2017-06-21T09:15:13Z</time>
      </trkpt>
      <trkpt lat="63.029709002003074" lon="7.774127013981342">
        <ele>34.259999999999998</ele>
        <time>2017-06-21T09:15:22Z</time>
      </trkpt>
      <trkpt lat="63.029309017583728" lon="7.771239029243588">
        <ele>28.02</ele>
        <time>2017-06-21T09:15:31Z</time>
      </trkpt>
      <trkpt lat="63.028580965474248" lon="7.767470022663474">
        <ele>17.440000000000001</ele>
        <time>2017-06-21T09:15:41Z</time>
      </trkpt>
      <trkpt lat="63.027760963886976" lon="7.765770005062223">
        <ele>8.789999999999999</ele>
        <time>2017-06-21T09:15:47Z</time>
      </trkpt>
      <trkpt lat="63.026666035875678" lon="7.765020998194814">
        <ele>4.46</ele>
        <time>2017-06-21T09:15:53Z</time>
      </trkpt>
      <trkpt lat="63.025418976321816" lon="7.765416959300637">
        <ele>1.58</ele>
        <time>2017-06-21T09:15:59Z</time>
      </trkpt>
      <trkpt lat="63.024417003616691" lon="7.766878008842468">
        <ele>1.58</ele>
        <time>2017-06-21T09:16:05Z</time>
      </trkpt>
      <trkpt lat="63.023431962355971" lon="7.769650993868709">
        <ele>2.06</ele>
        <time>2017-06-21T09:16:14Z</time>
      </trkpt>
      <trkpt lat="62.981469975784421" lon="7.79505000449717">
        <ele>9.27</ele>
        <time>2017-06-21T09:19:57Z</time>
      </trkpt>
      <trkpt lat="62.980335988104343" lon="7.794567039236426">
        <ele>9.75</ele>
        <time>2017-06-21T09:20:04Z</time>
      </trkpt>
      <trkpt lat="62.978691039606929" lon="7.794204019010067">
        <ele>5.91</ele>
        <time>2017-06-21T09:20:15Z</time>
      </trkpt>
      <trkpt lat="62.977650007233024" lon="7.79292200691998">
        <ele>5.91</ele>
        <time>2017-06-21T09:20:22Z</time>
      </trkpt>
      <trkpt lat="62.976902006193995" lon="7.790807001292706">
        <ele>8.789999999999999</ele>
        <time>2017-06-21T09:20:29Z</time>
      </trkpt>
      <trkpt lat="62.976237991824746" lon="7.788552017882466">
        <ele>13.119999999999999</ele>
        <time>2017-06-21T09:20:38Z</time>
      </trkpt>
      <trkpt lat="62.976148976013064" lon="7.788214981555939">
        <ele>14.08</ele>
        <time>2017-06-21T09:20:40Z</time>
      </trkpt>
      <trkpt lat="62.976123997941613" lon="7.788019012659788">
        <ele>14.08</ele>
        <time>2017-06-21T09:20:41Z</time>
      </trkpt>
      <trkpt lat="62.976111005991697" lon="7.787816002964973">
        <ele>14.08</ele>
        <time>2017-06-21T09:20:42Z</time>
      </trkpt>
      <trkpt lat="62.976060966029763" lon="7.78746304102242">
        <ele>14.08</ele>
        <time>2017-06-21T09:20:44Z</time>
      </trkpt>
      <trkpt lat="62.976005980744958" lon="7.787348963320255">
        <ele>14.08</ele>
        <time>2017-06-21T09:20:45Z</time>
      </trkpt>
      <trkpt lat="62.975934986025095" lon="7.787295989692211">
        <ele>14.56</ele>
        <time>2017-06-21T09:20:46Z</time>
      </trkpt>
      <trkpt lat="62.975858962163329" lon="7.787308981642127">
        <ele>14.56</ele>
        <time>2017-06-21T09:20:47Z</time>
      </trkpt>
      <trkpt lat="62.975791990756989" lon="7.787391962483525">
        <ele>15.039999999999999</ele>
        <time>2017-06-21T09:20:48Z</time>
      </trkpt>
      <trkpt lat="62.975734993815422" lon="7.787515008822084">
        <ele>14.08</ele>
        <time>2017-06-21T09:20:49Z</time>
      </trkpt>
      <trkpt lat="62.975682020187378" lon="7.787644006311894">
        <ele>14.08</ele>
        <time>2017-06-21T09:20:50Z</time>
      </trkpt>
      <trkpt lat="62.975566014647484" lon="7.787878029048443">
        <ele>14.08</ele>
        <time>2017-06-21T09:20:52Z</time>
      </trkpt>
      <trkpt lat="62.975502982735634" lon="7.787960004061461">
        <ele>14.08</ele>
        <time>2017-06-21T09:20:53Z</time>
      </trkpt>
      <trkpt lat="62.975440034642816" lon="7.78802203014493">
        <ele>14.08</ele>
        <time>2017-06-21T09:20:54Z</time>
      </trkpt>
      <trkpt lat="62.974560018628836" lon="7.788786040619016">
        <ele>15.52</ele>
        <time>2017-06-21T09:21:04Z</time>
      </trkpt>
      <trkpt lat="62.973798019811511" lon="7.79025899246335">
        <ele>21.289999999999999</ele>
        <time>2017-06-21T09:21:12Z</time>
      </trkpt>
      <trkpt lat="62.973068039864302" lon="7.792830979451537">
        <ele>31.859999999999999</ele>
        <time>2017-06-21T09:21:21Z</time>
      </trkpt>
      <trkpt lat="62.972081992775202" lon="7.794870967045426">
        <ele>41.950000000000003</ele>
        <time>2017-06-21T09:21:29Z</time>
      </trkpt>
      <trkpt lat="62.971307002007961" lon="7.796817999333143">
        <ele>51.090000000000003</ele>
        <time>2017-06-21T09:21:37Z</time>
      </trkpt>
      <trkpt lat="62.971252016723156" lon="7.797106001526117">
        <ele>52.049999999999997</ele>
        <time>2017-06-21T09:21:38Z</time>
      </trkpt>
      <trkpt lat="62.971206000074744" lon="7.79741101898253">
        <ele>53.009999999999998</ele>
        <time>2017-06-21T09:21:39Z</time>
      </trkpt>
      <trkpt lat="62.971173981204629" lon="7.797719975933433">
        <ele>53.969999999999999</ele>
        <time>2017-06-21T09:21:40Z</time>
      </trkpt>
      <trkpt lat="62.971151014789939" lon="7.798037985339761">
        <ele>54.450000000000003</ele>
        <time>2017-06-21T09:21:41Z</time>
      </trkpt>
      <trkpt lat="62.971138022840023" lon="7.79835800640285">
        <ele>55.409999999999997</ele>
        <time>2017-06-21T09:21:42Z</time>
      </trkpt>
      <trkpt lat="62.971138022840023" lon="7.798684984445572">
        <ele>55.890000000000001</ele>
        <time>2017-06-21T09:21:43Z</time>
      </trkpt>
      <trkpt lat="62.971149003133178" lon="7.799021014943719">
        <ele>56.369999999999997</ele>
        <time>2017-06-21T09:21:44Z</time>
      </trkpt>
      <trkpt lat="62.971172975376248" lon="7.799359979107976">
        <ele>56.859999999999999</ele>
        <time>2017-06-21T09:21:45Z</time>
      </trkpt>
      <trkpt lat="62.971408003941178" lon="7.801959039643407">
        <ele>59.740000000000002</ele>
        <time>2017-06-21T09:21:51Z</time>
      </trkpt>
      <trkpt lat="62.971686031669378" lon="7.806202964857221">
        <ele>64.069999999999993</ele>
        <time>2017-06-21T09:21:59Z</time>
      </trkpt>
      <trkpt lat="62.971664993092418" lon="7.806717026978731">
        <ele>64.549999999999997</ele>
        <time>2017-06-21T09:22:00Z</time>
      </trkpt>
      <trkpt lat="62.971622999757528" lon="7.807216001674533">
        <ele>65.030000000000001</ele>
        <time>2017-06-21T09:22:01Z</time>
      </trkpt>
      <trkpt lat="62.971558962017298" lon="7.807697961106896">
        <ele>65.510000000000005</ele>
        <time>2017-06-21T09:22:02Z</time>
      </trkpt>
      <trkpt lat="62.971471035853028" lon="7.808158965781331">
        <ele>65.989999999999995</ele>
        <time>2017-06-21T09:22:03Z</time>
      </trkpt>
      <trkpt lat="62.971363998949528" lon="7.808592980727553">
        <ele>66.469999999999999</ele>
        <time>2017-06-21T09:22:04Z</time>
      </trkpt>
      <trkpt lat="62.97123801894486" lon="7.809009980410337">
        <ele>66.950000000000003</ele>
        <time>2017-06-21T09:22:05Z</time>
      </trkpt>
      <trkpt lat="62.971097035333514" lon="7.809404013678432">
        <ele>67.430000000000007</ele>
        <time>2017-06-21T09:22:06Z</time>
      </trkpt>
      <trkpt lat="62.97093995846808" lon="7.809784971177578">
        <ele>67.909999999999997</ele>
        <time>2017-06-21T09:22:07Z</time>
      </trkpt>
      <trkpt lat="62.970019038766623" lon="7.812677985057235">
        <ele>69.349999999999994</ele>
        <time>2017-06-21T09:22:14Z</time>
      </trkpt>
      <trkpt lat="62.96979901380837" lon="7.815646016970277">
        <ele>66.950000000000003</ele>
        <time>2017-06-21T09:22:20Z</time>
      </trkpt>
      <trkpt lat="62.970011997967958" lon="7.820396963506937">
        <ele>63.100000000000001</ele>
        <time>2017-06-21T09:22:29Z</time>
      </trkpt>
      <trkpt lat="62.970626978203654" lon="7.824366968125105">
        <ele>60.219999999999999</ele>
        <time>2017-06-21T09:22:37Z</time>
      </trkpt>
      <trkpt lat="62.971762977540493" lon="7.828606031835079">
        <ele>57.82</ele>
        <time>2017-06-21T09:22:47Z</time>
      </trkpt>
      <trkpt lat="62.972855977714062" lon="7.833579014986754">
        <ele>55.409999999999997</ele>
        <time>2017-06-21T09:22:58Z</time>
      </trkpt>
      <trkpt lat="62.974201021715999" lon="7.841883972287178">
        <ele>45.799999999999997</ele>
        <time>2017-06-21T09:23:15Z</time>
      </trkpt>
      <trkpt lat="62.975782016292214" lon="7.85187897272408">
        <ele>35.229999999999997</ele>
        <time>2017-06-21T09:23:35Z</time>
      </trkpt>
      <trkpt lat="62.976263975724578" lon="7.857246994972229">
        <ele>27.050000000000001</ele>
        <time>2017-06-21T09:23:46Z</time>
      </trkpt>
      <trkpt lat="62.976745013147593" lon="7.86101097241044">
        <ele>23.210000000000001</ele>
        <time>2017-06-21T09:23:54Z</time>
      </trkpt>
      <trkpt lat="62.977722007781267" lon="7.863770965486765">
        <ele>21.77</ele>
        <time>2017-06-21T09:24:01Z</time>
      </trkpt>
      <trkpt lat="62.980045974254608" lon="7.869041003286839">
        <ele>13.6</ele>
        <time>2017-06-21T09:24:15Z</time>
      </trkpt>
      <trkpt lat="62.980623990297318" lon="7.869729995727539">
        <ele>12.630000000000001</ele>
        <time>2017-06-21T09:24:18Z</time>
      </trkpt>
      <trkpt lat="62.98082398250699" lon="7.869872990995646">
        <ele>12.630000000000001</ele>
        <time>2017-06-21T09:24:19Z</time>
      </trkpt>
      <trkpt lat="62.981025986373425" lon="7.869980027899146">
        <ele>12.15</ele>
        <time>2017-06-21T09:24:20Z</time>
      </trkpt>
      <trkpt lat="62.981225978583097" lon="7.870025038719177">
        <ele>11.67</ele>
        <time>2017-06-21T09:24:21Z</time>
      </trkpt>
      <trkpt lat="62.98142597079277" lon="7.869977010414004">
        <ele>11.67</ele>
        <time>2017-06-21T09:24:22Z</time>
      </trkpt>
      <trkpt lat="62.981624035164714" lon="7.869908027350903">
        <ele>11.67</ele>
        <time>2017-06-21T09:24:23Z</time>
      </trkpt>
      <trkpt lat="62.98292800784111" lon="7.869405029341579">
        <ele>12.15</ele>
        <time>2017-06-21T09:24:30Z</time>
      </trkpt>
      <trkpt lat="62.98311903141439" lon="7.869435036554933">
        <ele>11.67</ele>
        <time>2017-06-21T09:24:31Z</time>
      </trkpt>
      <trkpt lat="62.983312988653779" lon="7.86951600573957">
        <ele>12.15</ele>
        <time>2017-06-21T09:24:32Z</time>
      </trkpt>
      <trkpt lat="62.983500994741917" lon="7.869626982137561">
        <ele>12.15</ele>
        <time>2017-06-21T09:24:33Z</time>
      </trkpt>
      <trkpt lat="62.983687995001674" lon="7.86977500654757">
        <ele>12.15</ele>
        <time>2017-06-21T09:24:34Z</time>
      </trkpt>
      <trkpt lat="62.983870971947908" lon="7.869936022907496">
        <ele>12.15</ele>
        <time>2017-06-21T09:24:35Z</time>
      </trkpt>
      <trkpt lat="62.985911965370178" lon="7.872392004355788">
        <ele>11.67</ele>
        <time>2017-06-21T09:24:46Z</time>
      </trkpt>
      <trkpt lat="62.987767970189452" lon="7.875880971550942">
        <ele>10.710000000000001</ele>
        <time>2017-06-21T09:24:57Z</time>
      </trkpt>
      <trkpt lat="62.989055011421442" lon="7.879454009234905">
        <ele>10.710000000000001</ele>
        <time>2017-06-21T09:25:07Z</time>
      </trkpt>
      <trkpt lat="62.989972997456789" lon="7.882353980094194">
        <ele>9.27</ele>
        <time>2017-06-21T09:25:16Z</time>
      </trkpt>
      <trkpt lat="62.990955021232367" lon="7.88350498303771">
        <ele>9.27</ele>
        <time>2017-06-21T09:25:22Z</time>
      </trkpt>
      <trkpt lat="62.992119016125798" lon="7.885078014805913">
        <ele>10.23</ele>
        <time>2017-06-21T09:25:29Z</time>
      </trkpt>
      <trkpt lat="62.992379022762179" lon="7.885791985318065">
        <ele>9.75</ele>
        <time>2017-06-21T09:25:31Z</time>
      </trkpt>
      <trkpt lat="62.992484970018268" lon="7.886192975565791">
        <ele>9.27</ele>
        <time>2017-06-21T09:25:32Z</time>
      </trkpt>
      <trkpt lat="62.992582032456994" lon="7.886622967198491">
        <ele>8.310000000000001</ele>
        <time>2017-06-21T09:25:33Z</time>
      </trkpt>
      <trkpt lat="62.992661995813251" lon="7.88707097992301">
        <ele>7.35</ele>
        <time>2017-06-21T09:25:34Z</time>
      </trkpt>
      <trkpt lat="62.992729973047972" lon="7.887527039274573">
        <ele>6.87</ele>
        <time>2017-06-21T09:25:35Z</time>
      </trkpt>
      <trkpt lat="62.993368003517389" lon="7.893596962094307">
        <ele>5.91</ele>
        <time>2017-06-21T09:25:48Z</time>
      </trkpt>
      <trkpt lat="62.993159964680672" lon="7.896977970376611">
        <ele>5.42</ele>
        <time>2017-06-21T09:25:55Z</time>
      </trkpt>
      <trkpt lat="62.992037963122129" lon="7.904222030192614">
        <ele>3.98</ele>
        <time>2017-06-21T09:26:10Z</time>
      </trkpt>
      <trkpt lat="62.992065958678722" lon="7.907153014093638">
        <ele>5.42</ele>
        <time>2017-06-21T09:26:16Z</time>
      </trkpt>
      <trkpt lat="62.992209037765861" lon="7.908122967928648">
        <ele>5.42</ele>
        <time>2017-06-21T09:26:18Z</time>
      </trkpt>
      <trkpt lat="62.992311967536807" lon="7.908581038936973">
        <ele>4.94</ele>
        <time>2017-06-21T09:26:19Z</time>
      </trkpt>
      <trkpt lat="62.993380995467305" lon="7.912654979154468">
        <ele>4.94</ele>
        <time>2017-06-21T09:26:28Z</time>
      </trkpt>
      <trkpt lat="62.994040986523032" lon="7.917017005383968">
        <ele>5.91</ele>
        <time>2017-06-21T09:26:37Z</time>
      </trkpt>
      <trkpt lat="62.99470298923552" lon="7.920767990872264">
        <ele>5.91</ele>
        <time>2017-06-21T09:26:45Z</time>
      </trkpt>
      <trkpt lat="62.995931021869183" lon="7.925559002906084">
        <ele>5.42</ele>
        <time>2017-06-21T09:26:56Z</time>
      </trkpt>
      <trkpt lat="62.997058974578977" lon="7.932960977777839">
        <ele>5.91</ele>
        <time>2017-06-21T09:27:12Z</time>
      </trkpt>
      <trkpt lat="62.998106963932514" lon="7.937851985916495">
        <ele>17.440000000000001</ele>
        <time>2017-06-21T09:27:23Z</time>
      </trkpt>
      <trkpt lat="62.999788038432598" lon="7.944860011339188">
        <ele>38.109999999999999</ele>
        <time>2017-06-21T09:27:39Z</time>
      </trkpt>
      <trkpt lat="63.001094022765756" lon="7.947982018813491">
        <ele>47.240000000000002</ele>
        <time>2017-06-21T09:27:48Z</time>
      </trkpt>
      <trkpt lat="63.002928989008069" lon="7.950887018814683">
        <ele>48.200000000000003</ele>
        <time>2017-06-21T09:27:58Z</time>
      </trkpt>
      <trkpt lat="63.004237990826368" lon="7.953548021614552">
        <ele>43.880000000000003</ele>
        <time>2017-06-21T09:28:06Z</time>
      </trkpt>
      <trkpt lat="63.005597032606602" lon="7.957962015643716">
        <ele>37.630000000000003</ele>
        <time>2017-06-21T09:28:17Z</time>
      </trkpt>
      <trkpt lat="63.00688499584794" lon="7.961078993976116">
        <ele>31.379999999999999</ele>
        <time>2017-06-21T09:28:26Z</time>
      </trkpt>
      <trkpt lat="63.008803026750684" lon="7.963601024821401">
        <ele>21.77</ele>
        <time>2017-06-21T09:28:37Z</time>
      </trkpt>
      <trkpt lat="63.009924022480845" lon="7.965849973261356">
        <ele>14.56</ele>
        <time>2017-06-21T09:28:45Z</time>
      </trkpt>
      <trkpt lat="63.010733965784311" lon="7.968846000730991">
        <ele>7.83</ele>
        <time>2017-06-21T09:28:53Z</time>
      </trkpt>
      <trkpt lat="63.011225983500481" lon="7.972630010917783">
        <ele>6.39</ele>
        <time>2017-06-21T09:29:02Z</time>
      </trkpt>
      <trkpt lat="63.011990999802947" lon="7.978408997878432">
        <ele>5.91</ele>
        <time>2017-06-21T09:29:16Z</time>
      </trkpt>
      <trkpt lat="63.012720979750156" lon="7.98179604113102">
        <ele>6.39</ele>
        <time>2017-06-21T09:29:25Z</time>
      </trkpt>
      <trkpt lat="63.012745035812259" lon="7.982212034985423">
        <ele>6.87</ele>
        <time>2017-06-21T09:29:26Z</time>
      </trkpt>
      <trkpt lat="63.012755010277033" lon="7.982641020789743">
        <ele>6.87</ele>
        <time>2017-06-21T09:29:27Z</time>
      </trkpt>
      <trkpt lat="63.012747969478369" lon="7.983052991330624">
        <ele>7.35</ele>
        <time>2017-06-21T09:29:28Z</time>
      </trkpt>
      <trkpt lat="63.012733971700072" lon="7.983470996841788">
        <ele>8.310000000000001</ele>
        <time>2017-06-21T09:29:29Z</time>
      </trkpt>
      <trkpt lat="63.012703964486718" lon="7.983880033716559">
        <ele>9.27</ele>
        <time>2017-06-21T09:29:30Z</time>
      </trkpt>
      <trkpt lat="63.012662976980209" lon="7.984284041449428">
        <ele>10.23</ele>
        <time>2017-06-21T09:29:31Z</time>
      </trkpt>
      <trkpt lat="63.012043973430991" lon="7.990429988130927">
        <ele>12.15</ele>
        <time>2017-06-21T09:29:46Z</time>
      </trkpt>
      <trkpt lat="63.012270033359528" lon="7.994379037991166">
        <ele>14.56</ele>
        <time>2017-06-21T09:29:55Z</time>
      </trkpt>
      <trkpt lat="63.012199038639665" lon="7.997916033491492">
        <ele>23.210000000000001</ele>
        <time>2017-06-21T09:30:03Z</time>
      </trkpt>
      <trkpt lat="63.011823026463389" lon="8.00036103464663">
        <ele>29.460000000000001</ele>
        <time>2017-06-21T09:30:10Z</time>
      </trkpt>
      <trkpt lat="63.011707020923495" lon="8.000964028760791">
        <ele>31.379999999999999</ele>
        <time>2017-06-21T09:30:13Z</time>
      </trkpt>
      <trkpt lat="63.011700985953212" lon="8.001103000715375">
        <ele>31.379999999999999</ele>
        <time>2017-06-21T09:30:14Z</time>
      </trkpt>
      <trkpt lat="63.011721018701792" lon="8.001226969063282">
        <ele>31.859999999999999</ele>
        <time>2017-06-21T09:30:15Z</time>
      </trkpt>
      <trkpt lat="63.011768041178584" lon="8.00132897682488">
        <ele>31.859999999999999</ele>
        <time>2017-06-21T09:30:16Z</time>
      </trkpt>
      <trkpt lat="63.011838030070066" lon="8.001395026221871">
        <ele>31.859999999999999</ele>
        <time>2017-06-21T09:30:17Z</time>
      </trkpt>
      <trkpt lat="63.011931991204619" lon="8.001439031213522">
        <ele>31.859999999999999</ele>
        <time>2017-06-21T09:30:18Z</time>
      </trkpt>
      <trkpt lat="63.012035004794598" lon="8.001480018720031">
        <ele>31.859999999999999</ele>
        <time>2017-06-21T09:30:19Z</time>
      </trkpt>
      <trkpt lat="63.013052986934781" lon="8.002055017277598">
        <ele>27.050000000000001</ele>
        <time>2017-06-21T09:30:26Z</time>
      </trkpt>
      <trkpt lat="63.014030987396836" lon="8.003024971112609">
        <ele>23.210000000000001</ele>
        <time>2017-06-21T09:30:32Z</time>
      </trkpt>
      <trkpt lat="63.0142090190202" lon="8.003105018287897">
        <ele>22.73</ele>
        <time>2017-06-21T09:30:33Z</time>
      </trkpt>
      <trkpt lat="63.014390990138054" lon="8.003156986087561">
        <ele>21.77</ele>
        <time>2017-06-21T09:30:34Z</time>
      </trkpt>
      <trkpt lat="63.01457698456943" lon="8.003181964159012">
        <ele>21.289999999999999</ele>
        <time>2017-06-21T09:30:35Z</time>
      </trkpt>
      <trkpt lat="63.014765996485949" lon="8.003185987472534">
        <ele>20.32</ele>
        <time>2017-06-21T09:30:36Z</time>
      </trkpt>
      <trkpt lat="63.015322973951697" lon="8.003205014392734">
        <ele>18.879999999999999</ele>
        <time>2017-06-21T09:30:39Z</time>
      </trkpt>
      <trkpt lat="63.015506034716964" lon="8.003280032426119">
        <ele>18.879999999999999</ele>
        <time>2017-06-21T09:30:40Z</time>
      </trkpt>
      <trkpt lat="63.015684988349676" lon="8.003380028530955">
        <ele>18.399999999999999</ele>
        <time>2017-06-21T09:30:41Z</time>
      </trkpt>
      <trkpt lat="63.015862014144659" lon="8.003523023799062">
        <ele>17.920000000000002</ele>
        <time>2017-06-21T09:30:42Z</time>
      </trkpt>
      <trkpt lat="63.016039039939642" lon="8.003700971603394">
        <ele>17.920000000000002</ele>
        <time>2017-06-21T09:30:43Z</time>
      </trkpt>
      <trkpt lat="63.016211036592722" lon="8.003915967419744">
        <ele>17.920000000000002</ele>
        <time>2017-06-21T09:30:44Z</time>
      </trkpt>
      <trkpt lat="63.016370041295886" lon="8.004163987934589">
        <ele>17.920000000000002</ele>
        <time>2017-06-21T09:30:45Z</time>
      </trkpt>
      <trkpt lat="63.016523011028767" lon="8.004432041198015">
        <ele>17.920000000000002</ele>
        <time>2017-06-21T09:30:46Z</time>
      </trkpt>
      <trkpt lat="63.017236981540918" lon="8.006007000803947">
        <ele>18.879999999999999</ele>
        <time>2017-06-21T09:30:51Z</time>
      </trkpt>
      <trkpt lat="63.017352987080812" lon="8.006362980231643">
        <ele>19.359999999999999</ele>
        <time>2017-06-21T09:30:52Z</time>
      </trkpt>
      <trkpt lat="63.017837963998318" lon="8.007898963987827">
        <ele>21.77</ele>
        <time>2017-06-21T09:30:57Z</time>
      </trkpt>
      <trkpt lat="63.017949024215341" lon="8.008144972845912">
        <ele>22.73</ele>
        <time>2017-06-21T09:30:58Z</time>
      </trkpt>
      <trkpt lat="63.018068969249725" lon="8.008372960612178">
        <ele>23.210000000000001</ele>
        <time>2017-06-21T09:30:59Z</time>
      </trkpt>
      <trkpt lat="63.018195033073425" lon="8.008589968085289">
        <ele>23.690000000000001</ele>
        <time>2017-06-21T09:31:00Z</time>
      </trkpt>
      <trkpt lat="63.018325036391616" lon="8.008785014972091">
        <ele>24.649999999999999</ele>
        <time>2017-06-21T09:31:01Z</time>
      </trkpt>
      <trkpt lat="63.0184640083462" lon="8.008964974433184">
        <ele>25.129999999999999</ele>
        <time>2017-06-21T09:31:02Z</time>
      </trkpt>
      <trkpt lat="63.019005982205272" lon="8.009743988513947">
        <ele>28.02</ele>
        <time>2017-06-21T09:31:06Z</time>
      </trkpt>
      <trkpt lat="63.019118970260024" lon="8.009998966008425">
        <ele>28.98</ele>
        <time>2017-06-21T09:31:07Z</time>
      </trkpt>
      <trkpt lat="63.019226007163525" lon="8.010275987908244">
        <ele>29.460000000000001</ele>
        <time>2017-06-21T09:31:08Z</time>
      </trkpt>
      <trkpt lat="63.019482996314764" lon="8.011151980608702">
        <ele>31.379999999999999</ele>
        <time>2017-06-21T09:31:11Z</time>
      </trkpt>
      <trkpt lat="63.019540999084711" lon="8.011450963094831">
        <ele>31.859999999999999</ele>
        <time>2017-06-21T09:31:12Z</time>
      </trkpt>
      <trkpt lat="63.019664967432618" lon="8.012060998007655">
        <ele>33.299999999999997</ele>
        <time>2017-06-21T09:31:14Z</time>
      </trkpt>
      <trkpt lat="63.019747026264668" lon="8.012337014079094">
        <ele>33.780000000000001</ele>
        <time>2017-06-21T09:31:15Z</time>
      </trkpt>
      <trkpt lat="63.019850961863995" lon="8.01258503459394">
        <ele>34.259999999999998</ele>
        <time>2017-06-21T09:31:16Z</time>
      </trkpt>
      <trkpt lat="63.019973002374172" lon="8.012787038460374">
        <ele>34.740000000000002</ele>
        <time>2017-06-21T09:31:17Z</time>
      </trkpt>
      <trkpt lat="63.020105017349124" lon="8.012961968779564">
        <ele>35.229999999999997</ele>
        <time>2017-06-21T09:31:18Z</time>
      </trkpt>
      <trkpt lat="63.020250024273992" lon="8.013121979311109">
        <ele>35.710000000000001</ele>
        <time>2017-06-21T09:31:19Z</time>
      </trkpt>
      <trkpt lat="63.020711028948426" lon="8.013550965115428">
        <ele>38.109999999999999</ele>
        <time>2017-06-21T09:31:22Z</time>
      </trkpt>
      <trkpt lat="63.020876990631223" lon="8.013627994805574">
        <ele>39.07</ele>
        <time>2017-06-21T09:31:23Z</time>
      </trkpt>
      <trkpt lat="63.0210439581424" lon="8.013671999797225">
        <ele>39.549999999999997</ele>
        <time>2017-06-21T09:31:24Z</time>
      </trkpt>
      <trkpt lat="63.02121696062386" lon="8.013688009232283">
        <ele>41.950000000000003</ele>
        <time>2017-06-21T09:31:25Z</time>
      </trkpt>
      <trkpt lat="63.02138501778245" lon="8.013712987303734">
        <ele>42.920000000000002</ele>
        <time>2017-06-21T09:31:26Z</time>
      </trkpt>
      <trkpt lat="63.021561037749052" lon="8.013786999508739">
        <ele>43.880000000000003</ele>
        <time>2017-06-21T09:31:27Z</time>
      </trkpt>
      <trkpt lat="63.021723981946707" lon="8.013908034190536">
        <ele>42.920000000000002</ele>
        <time>2017-06-21T09:31:28Z</time>
      </trkpt>
      <trkpt lat="63.021890027448535" lon="8.0140670388937">
        <ele>42.920000000000002</ele>
        <time>2017-06-21T09:31:29Z</time>
      </trkpt>
      <trkpt lat="63.023616028949618" lon="8.01624096930027">
        <ele>49.159999999999997</ele>
        <time>2017-06-21T09:31:39Z</time>
      </trkpt>
      <trkpt lat="63.025467004626989" lon="8.019450986757875">
        <ele>42.439999999999998</ele>
        <time>2017-06-21T09:31:50Z</time>
      </trkpt>
      <trkpt lat="63.025933038443327" lon="8.020479027181864">
        <ele>40.990000000000002</ele>
        <time>2017-06-21T09:31:53Z</time>
      </trkpt>
      <trkpt lat="63.026052983477712" lon="8.020871970802546">
        <ele>40.509999999999998</ele>
        <time>2017-06-21T09:31:54Z</time>
      </trkpt>
      <trkpt lat="63.026158008724451" lon="8.021278996020556">
        <ele>39.549999999999997</ele>
        <time>2017-06-21T09:31:55Z</time>
      </trkpt>
      <trkpt lat="63.026450034230947" lon="8.022420024499297">
        <ele>38.109999999999999</ele>
        <time>2017-06-21T09:31:58Z</time>
      </trkpt>
      <trkpt lat="63.026568973436952" lon="8.022698974236846">
        <ele>38.109999999999999</ele>
        <time>2017-06-21T09:31:59Z</time>
      </trkpt>
      <trkpt lat="63.02669201977551" lon="8.022906007245183">
        <ele>37.630000000000003</ele>
        <time>2017-06-21T09:32:00Z</time>
      </trkpt>
      <trkpt lat="63.026828980073333" lon="8.023058976978064">
        <ele>37.630000000000003</ele>
        <time>2017-06-21T09:32:01Z</time>
      </trkpt>
      <trkpt lat="63.026980021968484" lon="8.02320197224617">
        <ele>37.149999999999999</ele>
        <time>2017-06-21T09:32:02Z</time>
      </trkpt>
      <trkpt lat="63.027817038819194" lon="8.023927006870508">
        <ele>35.229999999999997</ele>
        <time>2017-06-21T09:32:07Z</time>
      </trkpt>
      <trkpt lat="63.027994986623526" lon="8.023996995761991">
        <ele>34.259999999999998</ele>
        <time>2017-06-21T09:32:08Z</time>
      </trkpt>
      <trkpt lat="63.028178969398141" lon="8.024005964398384">
        <ele>33.780000000000001</ele>
        <time>2017-06-21T09:32:09Z</time>
      </trkpt>
      <trkpt lat="63.028359012678266" lon="8.023961959406734">
        <ele>33.299999999999997</ele>
        <time>2017-06-21T09:32:10Z</time>
      </trkpt>
      <trkpt lat="63.028536960482597" lon="8.023890964686871">
        <ele>32.340000000000003</ele>
        <time>2017-06-21T09:32:11Z</time>
      </trkpt>
      <trkpt lat="63.028886988759041" lon="8.02380396053195">
        <ele>31.379999999999999</ele>
        <time>2017-06-21T09:32:13Z</time>
      </trkpt>
      <trkpt lat="63.029054962098598" lon="8.023850983008742">
        <ele>30.899999999999999</ele>
        <time>2017-06-21T09:32:14Z</time>
      </trkpt>
      <trkpt lat="63.029212038964033" lon="8.023976041004062">
        <ele>30.420000000000002</ele>
        <time>2017-06-21T09:32:15Z</time>
      </trkpt>
      <trkpt lat="63.029360985383391" lon="8.024163041263819">
        <ele>29.460000000000001</ele>
        <time>2017-06-21T09:32:16Z</time>
      </trkpt>
      <trkpt lat="63.029494006186724" lon="8.024404020980001">
        <ele>28.5</ele>
        <time>2017-06-21T09:32:17Z</time>
      </trkpt>
      <trkpt lat="63.029620992019773" lon="8.024700991809368">
        <ele>27.530000000000001</ele>
        <time>2017-06-21T09:32:18Z</time>
      </trkpt>
      <trkpt lat="63.029753006994724" lon="8.025022018700838">
        <ele>28.5</ele>
        <time>2017-06-21T09:32:19Z</time>
      </trkpt>
      <trkpt lat="63.031239034608006" lon="8.028924968093634">
        <ele>26.09</ele>
        <time>2017-06-21T09:32:30Z</time>
      </trkpt>
      <trkpt lat="63.03221401758492" lon="8.030692962929606">
        <ele>26.09</ele>
        <time>2017-06-21T09:32:37Z</time>
      </trkpt>
      <trkpt lat="63.033543974161148" lon="8.032344030216336">
        <ele>29.940000000000001</ele>
        <time>2017-06-21T09:32:47Z</time>
      </trkpt>
      <trkpt lat="63.03449003957212" lon="8.032892039045692">
        <ele>29.460000000000001</ele>
        <time>2017-06-21T09:32:53Z</time>
      </trkpt>
      <trkpt lat="63.034633034840226" lon="8.03306202404201">
        <ele>29.940000000000001</ele>
        <time>2017-06-21T09:32:54Z</time>
      </trkpt>
      <trkpt lat="63.034759014844894" lon="8.033285988494754">
        <ele>29.940000000000001</ele>
        <time>2017-06-21T09:32:55Z</time>
      </trkpt>
      <trkpt lat="63.034864962100983" lon="8.033547000959516">
        <ele>30.420000000000002</ele>
        <time>2017-06-21T09:32:56Z</time>
      </trkpt>
      <trkpt lat="63.034945009276271" lon="8.033854030072689">
        <ele>30.420000000000002</ele>
        <time>2017-06-21T09:32:57Z</time>
      </trkpt>
      <trkpt lat="63.034997982904315" lon="8.034189976751804">
        <ele>30.420000000000002</ele>
        <time>2017-06-21T09:32:58Z</time>
      </trkpt>
      <trkpt lat="63.035035030916333" lon="8.034547967836261">
        <ele>30.899999999999999</ele>
        <time>2017-06-21T09:32:59Z</time>
      </trkpt>
      <trkpt lat="63.035051040351391" lon="8.034924985840917">
        <ele>31.379999999999999</ele>
        <time>2017-06-21T09:33:00Z</time>
      </trkpt>
      <trkpt lat="63.03505196236074" lon="8.035313989967108">
        <ele>31.859999999999999</ele>
        <time>2017-06-21T09:33:01Z</time>
      </trkpt>
      <trkpt lat="63.035038970410824" lon="8.035714980214834">
        <ele>32.340000000000003</ele>
        <time>2017-06-21T09:33:02Z</time>
      </trkpt>
      <trkpt lat="63.035190012305975" lon="8.039435036480427">
        <ele>38.109999999999999</ele>
        <time>2017-06-21T09:33:11Z</time>
      </trkpt>
      <trkpt lat="63.035240974277258" lon="8.03980995900929">
        <ele>38.590000000000003</ele>
        <time>2017-06-21T09:33:12Z</time>
      </trkpt>
      <trkpt lat="63.035315992310643" lon="8.040154036134481">
        <ele>38.590000000000003</ele>
        <time>2017-06-21T09:33:13Z</time>
      </trkpt>
      <trkpt lat="63.035408025607467" lon="8.040473973378539">
        <ele>38.590000000000003</ele>
        <time>2017-06-21T09:33:14Z</time>
      </trkpt>
      <trkpt lat="63.035511961206794" lon="8.040750995278359">
        <ele>38.109999999999999</ele>
        <time>2017-06-21T09:33:15Z</time>
      </trkpt>
      <trkpt lat="63.035636013373733" lon="8.040986023843288">
        <ele>37.149999999999999</ele>
        <time>2017-06-21T09:33:16Z</time>
      </trkpt>
      <trkpt lat="63.035776996985078" lon="8.041181992739439">
        <ele>36.670000000000002</ele>
        <time>2017-06-21T09:33:17Z</time>
      </trkpt>
      <trkpt lat="63.035930972546339" lon="8.041353989392519">
        <ele>35.710000000000001</ele>
        <time>2017-06-21T09:33:18Z</time>
      </trkpt>
      <trkpt lat="63.036095006391406" lon="8.041515005752444">
        <ele>34.740000000000002</ele>
        <time>2017-06-21T09:33:19Z</time>
      </trkpt>
      <trkpt lat="63.037611963227391" lon="8.043339997529984">
        <ele>27.530000000000001</ele>
        <time>2017-06-21T09:33:28Z</time>
      </trkpt>
      <trkpt lat="63.037794018164277" lon="8.043477963656187">
        <ele>27.050000000000001</ele>
        <time>2017-06-21T09:33:29Z</time>
      </trkpt>
      <trkpt lat="63.038332974538207" lon="8.043862022459507">
        <ele>26.09</ele>
        <time>2017-06-21T09:33:32Z</time>
      </trkpt>
      <trkpt lat="63.038492985069752" lon="8.04406201466918">
        <ele>26.09</ele>
        <time>2017-06-21T09:33:33Z</time>
      </trkpt>
      <trkpt lat="63.038642015308142" lon="8.044296959415078">
        <ele>25.609999999999999</ele>
        <time>2017-06-21T09:33:34Z</time>
      </trkpt>
      <trkpt lat="63.038778975605965" lon="8.044563001021743">
        <ele>26.09</ele>
        <time>2017-06-21T09:33:35Z</time>
      </trkpt>
      <trkpt lat="63.038907973095775" lon="8.044857038185">
        <ele>25.609999999999999</ele>
        <time>2017-06-21T09:33:36Z</time>
      </trkpt>
      <trkpt lat="63.039161022752523" lon="8.045405969023705">
        <ele>25.609999999999999</ele>
        <time>2017-06-21T09:33:38Z</time>
      </trkpt>
      <trkpt lat="63.040118990465999" lon="8.04685696028173">
        <ele>24.170000000000002</ele>
        <time>2017-06-21T09:33:45Z</time>
      </trkpt>
      <trkpt lat="63.040261985734105" lon="8.046967014670372">
        <ele>24.170000000000002</ele>
        <time>2017-06-21T09:33:46Z</time>
      </trkpt>
      <trkpt lat="63.040415961295366" lon="8.047024011611939">
        <ele>24.170000000000002</ele>
        <time>2017-06-21T09:33:47Z</time>
      </trkpt>
      <trkpt lat="63.040573038160801" lon="8.047035997733474">
        <ele>23.690000000000001</ele>
        <time>2017-06-21T09:33:48Z</time>
      </trkpt>
      <trkpt lat="63.040734976530075" lon="8.046988975256681">
        <ele>23.210000000000001</ele>
        <time>2017-06-21T09:33:49Z</time>
      </trkpt>
      <trkpt lat="63.040900016203523" lon="8.046912029385567">
        <ele>22.73</ele>
        <time>2017-06-21T09:33:50Z</time>
      </trkpt>
      <trkpt lat="63.041422041133046" lon="8.046721005812287">
        <ele>21.77</ele>
        <time>2017-06-21T09:33:53Z</time>
      </trkpt>
      <trkpt lat="63.041599988937378" lon="8.046737015247345">
        <ele>21.289999999999999</ele>
        <time>2017-06-21T09:33:54Z</time>
      </trkpt>
      <trkpt lat="63.041778020560741" lon="8.046807004138827">
        <ele>21.289999999999999</ele>
        <time>2017-06-21T09:33:55Z</time>
      </trkpt>
      <trkpt lat="63.041952028870583" lon="8.046925021335483">
        <ele>20.809999999999999</ele>
        <time>2017-06-21T09:33:56Z</time>
      </trkpt>
      <trkpt lat="63.042122013866901" lon="8.04709198884666">
        <ele>20.32</ele>
        <time>2017-06-21T09:33:57Z</time>
      </trkpt>
      <trkpt lat="63.042281018570065" lon="8.047313019633293">
        <ele>20.32</ele>
        <time>2017-06-21T09:33:58Z</time>
      </trkpt>
      <trkpt lat="63.042428037151694" lon="8.047579983249307">
        <ele>20.809999999999999</ele>
        <time>2017-06-21T09:33:59Z</time>
      </trkpt>
      <trkpt lat="63.042550999671221" lon="8.047891035676003">
        <ele>20.809999999999999</ele>
        <time>2017-06-21T09:34:00Z</time>
      </trkpt>
      <trkpt lat="63.042650995776057" lon="8.048240980133414">
        <ele>19.84</ele>
        <time>2017-06-21T09:34:01Z</time>
      </trkpt>
      <trkpt lat="63.042731964960694" lon="8.048612968996167">
        <ele>19.84</ele>
        <time>2017-06-21T09:34:02Z</time>
      </trkpt>
      <trkpt lat="63.042798014357686" lon="8.049013037234545">
        <ele>19.84</ele>
        <time>2017-06-21T09:34:03Z</time>
      </trkpt>
      <trkpt lat="63.042835984379053" lon="8.049427019432187">
        <ele>19.359999999999999</ele>
        <time>2017-06-21T09:34:04Z</time>
      </trkpt>
      <trkpt lat="63.042855011299253" lon="8.049848964437842">
        <ele>19.359999999999999</ele>
        <time>2017-06-21T09:34:05Z</time>
      </trkpt>
      <trkpt lat="63.042861968278885" lon="8.050282979384065">
        <ele>19.359999999999999</ele>
        <time>2017-06-21T09:34:06Z</time>
      </trkpt>
      <trkpt lat="63.042879989370704" lon="8.051619976758957">
        <ele>19.84</ele>
        <time>2017-06-21T09:34:09Z</time>
      </trkpt>
      <trkpt lat="63.04291401989758" lon="8.052059020847082">
        <ele>19.359999999999999</ele>
        <time>2017-06-21T09:34:10Z</time>
      </trkpt>
      <trkpt lat="63.042967999354005" lon="8.052488006651402">
        <ele>19.359999999999999</ele>
        <time>2017-06-21T09:34:11Z</time>
      </trkpt>
      <trkpt lat="63.043507039546967" lon="8.057003002613783">
        <ele>16.960000000000001</ele>
        <time>2017-06-21T09:34:22Z</time>
      </trkpt>
      <trkpt lat="63.04355800151825" lon="8.058617021888495">
        <ele>16.48</ele>
        <time>2017-06-21T09:34:26Z</time>
      </trkpt>
      <trkpt lat="63.043614998459816" lon="8.058966966345906">
        <ele>16</ele>
        <time>2017-06-21T09:34:27Z</time>
      </trkpt>
      <trkpt lat="63.043692028149962" lon="8.059281958267093">
        <ele>16</ele>
        <time>2017-06-21T09:34:28Z</time>
      </trkpt>
      <trkpt lat="63.043790012598038" lon="8.059556968510151">
        <ele>16</ele>
        <time>2017-06-21T09:34:29Z</time>
      </trkpt>
      <trkpt lat="63.043910963460803" lon="8.059805994853377">
        <ele>15.52</ele>
        <time>2017-06-21T09:34:30Z</time>
      </trkpt>
      <trkpt lat="63.044037027284503" lon="8.060029037296772">
        <ele>15.52</ele>
        <time>2017-06-21T09:34:31Z</time>
      </trkpt>
      <trkpt lat="63.044169964268804" lon="8.060243027284741">
        <ele>15.52</ele>
        <time>2017-06-21T09:34:32Z</time>
      </trkpt>
      <trkpt lat="63.044413039460778" lon="8.060731021687388">
        <ele>15.039999999999999</ele>
        <time>2017-06-21T09:34:34Z</time>
      </trkpt>
      <trkpt lat="63.044519992545247" lon="8.061022041365504">
        <ele>15.039999999999999</ele>
        <time>2017-06-21T09:34:35Z</time>
      </trkpt>
      <trkpt lat="63.044614959508181" lon="8.061338039115071">
        <ele>15.039999999999999</ele>
        <time>2017-06-21T09:34:36Z</time>
      </trkpt>
      <trkpt lat="63.044689977541566" lon="8.06168002076447">
        <ele>14.56</ele>
        <time>2017-06-21T09:34:37Z</time>
      </trkpt>
      <trkpt lat="63.044744962826371" lon="8.062043963000178">
        <ele>14.56</ele>
        <time>2017-06-21T09:34:38Z</time>
      </trkpt>
      <trkpt lat="63.044785028323531" lon="8.062422992661595">
        <ele>14.08</ele>
        <time>2017-06-21T09:34:39Z</time>
      </trkpt>
      <trkpt lat="63.044813023880124" lon="8.062819037586451">
        <ele>13.6</ele>
        <time>2017-06-21T09:34:40Z</time>
      </trkpt>
      <trkpt lat="63.044831966981292" lon="8.063226984813809">
        <ele>13.6</ele>
        <time>2017-06-21T09:34:41Z</time>
      </trkpt>
      <trkpt lat="63.045046040788293" lon="8.067076038569212">
        <ele>13.6</ele>
        <time>2017-06-21T09:34:50Z</time>
      </trkpt>
      <trkpt lat="63.045805022120476" lon="8.071051994338632">
        <ele>11.19</ele>
        <time>2017-06-21T09:35:00Z</time>
      </trkpt>
      <trkpt lat="63.047209996730089" lon="8.075218973681331">
        <ele>9.27</ele>
        <time>2017-06-21T09:35:12Z</time>
      </trkpt>
      <trkpt lat="63.048570966348052" lon="8.079179003834724">
        <ele>15.52</ele>
        <time>2017-06-21T09:35:23Z</time>
      </trkpt>
      <trkpt lat="63.048790991306305" lon="8.081716038286686">
        <ele>17.920000000000002</ele>
        <time>2017-06-21T09:35:29Z</time>
      </trkpt>
      <trkpt lat="63.048837007954717" lon="8.082061037421227">
        <ele>18.399999999999999</ele>
        <time>2017-06-21T09:35:30Z</time>
      </trkpt>
      <trkpt lat="63.048906996846199" lon="8.082363037392497">
        <ele>18.879999999999999</ele>
        <time>2017-06-21T09:35:31Z</time>
      </trkpt>
      <trkpt lat="63.049001041799784" lon="8.082630001008511">
        <ele>18.879999999999999</ele>
        <time>2017-06-21T09:35:32Z</time>
      </trkpt>
      <trkpt lat="63.049106989055872" lon="8.082890007644892">
        <ele>19.359999999999999</ele>
        <time>2017-06-21T09:35:33Z</time>
      </trkpt>
      <trkpt lat="63.04921000264585" lon="8.083181027323008">
        <ele>19.359999999999999</ele>
        <time>2017-06-21T09:35:34Z</time>
      </trkpt>
      <trkpt lat="63.04929600097239" lon="8.083504987880588">
        <ele>19.84</ele>
        <time>2017-06-21T09:35:35Z</time>
      </trkpt>
      <trkpt lat="63.049369007349014" lon="8.083864990621805">
        <ele>20.32</ele>
        <time>2017-06-21T09:35:36Z</time>
      </trkpt>
      <trkpt lat="63.049430027604103" lon="8.084257012233138">
        <ele>21.289999999999999</ele>
        <time>2017-06-21T09:35:37Z</time>
      </trkpt>
      <trkpt lat="63.049486018717289" lon="8.084663031622767">
        <ele>21.77</ele>
        <time>2017-06-21T09:35:38Z</time>
      </trkpt>
      <trkpt lat="63.049619039520621" lon="8.085921993479133">
        <ele>22.73</ele>
        <time>2017-06-21T09:35:41Z</time>
      </trkpt>
      <trkpt lat="63.049628008157015" lon="8.086359025910497">
        <ele>23.210000000000001</ele>
        <time>2017-06-21T09:35:42Z</time>
      </trkpt>
      <trkpt lat="63.04978902451694" lon="8.089406015351415">
        <ele>27.050000000000001</ele>
        <time>2017-06-21T09:35:49Z</time>
      </trkpt>
      <trkpt lat="63.049862030893564" lon="8.089795019477606">
        <ele>28.02</ele>
        <time>2017-06-21T09:35:50Z</time>
      </trkpt>
      <trkpt lat="63.049950040876865" lon="8.090174971148372">
        <ele>28.5</ele>
        <time>2017-06-21T09:35:51Z</time>
      </trkpt>
      <trkpt lat="63.050699969753623" lon="8.092690967023373">
        <ele>30.420000000000002</ele>
        <time>2017-06-21T09:35:59Z</time>
      </trkpt>
      <trkpt lat="63.050758978351951" lon="8.093016017228365">
        <ele>30.420000000000002</ele>
        <time>2017-06-21T09:36:00Z</time>
      </trkpt>
      <trkpt lat="63.050795020535588" lon="8.093367973342538">
        <ele>30.899999999999999</ele>
        <time>2017-06-21T09:36:01Z</time>
      </trkpt>
      <trkpt lat="63.050808012485504" lon="8.093747003003955">
        <ele>30.899999999999999</ele>
        <time>2017-06-21T09:36:02Z</time>
      </trkpt>
      <trkpt lat="63.050809018313885" lon="8.094141036272049">
        <ele>31.379999999999999</ele>
        <time>2017-06-21T09:36:03Z</time>
      </trkpt>
      <trkpt lat="63.050895016640425" lon="8.09756001457572">
        <ele>31.859999999999999</ele>
        <time>2017-06-21T09:36:11Z</time>
      </trkpt>
      <trkpt lat="63.05101596750319" lon="8.099138997495174">
        <ele>31.859999999999999</ele>
        <time>2017-06-21T09:36:15Z</time>
      </trkpt>
      <trkpt lat="63.051006998866796" lon="8.09953797608614">
        <ele>31.379999999999999</ele>
        <time>2017-06-21T09:36:16Z</time>
      </trkpt>
      <trkpt lat="63.050977997481823" lon="8.099935026839376">
        <ele>31.379999999999999</ele>
        <time>2017-06-21T09:36:17Z</time>
      </trkpt>
      <trkpt lat="63.050921000540257" lon="8.100320007652044">
        <ele>31.379999999999999</ele>
        <time>2017-06-21T09:36:18Z</time>
      </trkpt>
      <trkpt lat="63.050841959193349" lon="8.100695013999939">
        <ele>31.859999999999999</ele>
        <time>2017-06-21T09:36:19Z</time>
      </trkpt>
      <trkpt lat="63.050742968916893" lon="8.101058034226298">
        <ele>31.859999999999999</ele>
        <time>2017-06-21T09:36:20Z</time>
      </trkpt>
      <trkpt lat="63.050644984468818" lon="8.101425999775529">
        <ele>31.859999999999999</ele>
        <time>2017-06-21T09:36:21Z</time>
      </trkpt>
      <trkpt lat="63.050556974485517" lon="8.101802011951804">
        <ele>31.859999999999999</ele>
        <time>2017-06-21T09:36:22Z</time>
      </trkpt>
      <trkpt lat="63.050486985594034" lon="8.102182969450951">
        <ele>31.379999999999999</ele>
        <time>2017-06-21T09:36:23Z</time>
      </trkpt>
      <trkpt lat="63.050438035279512" lon="8.102538026869297">
        <ele>31.379999999999999</ele>
        <time>2017-06-21T09:36:24Z</time>
      </trkpt>
      <trkpt lat="63.05041297338903" lon="8.102871039882302">
        <ele>31.379999999999999</ele>
        <time>2017-06-21T09:36:25Z</time>
      </trkpt>
      <trkpt lat="63.050419008359313" lon="8.103185025975108">
        <ele>31.379999999999999</ele>
        <time>2017-06-21T09:36:26Z</time>
      </trkpt>
      <trkpt lat="63.050451027229428" lon="8.103502029553056">
        <ele>30.899999999999999</ele>
        <time>2017-06-21T09:36:27Z</time>
      </trkpt>
      <trkpt lat="63.050506012514234" lon="8.103821966797113">
        <ele>30.899999999999999</ele>
        <time>2017-06-21T09:36:28Z</time>
      </trkpt>
      <trkpt lat="63.050580024719238" lon="8.104154979810119">
        <ele>30.899999999999999</ele>
        <time>2017-06-21T09:36:29Z</time>
      </trkpt>
      <trkpt lat="63.050666023045778" lon="8.104491010308266">
        <ele>30.420000000000002</ele>
        <time>2017-06-21T09:36:30Z</time>
      </trkpt>
      <trkpt lat="63.051197016611695" lon="8.106831992045045">
        <ele>28.98</ele>
        <time>2017-06-21T09:36:36Z</time>
      </trkpt>
      <trkpt lat="63.051252001896501" lon="8.107271958142519">
        <ele>28.5</ele>
        <time>2017-06-21T09:36:37Z</time>
      </trkpt>
      <trkpt lat="63.051612004637718" lon="8.111197035759687">
        <ele>24.649999999999999</ele>
        <time>2017-06-21T09:36:46Z</time>
      </trkpt>
      <trkpt lat="63.051968989893794" lon="8.113378006964922">
        <ele>20.32</ele>
        <time>2017-06-21T09:36:52Z</time>
      </trkpt>
      <trkpt lat="63.051993967965245" lon="8.11373800970614">
        <ele>19.359999999999999</ele>
        <time>2017-06-21T09:36:53Z</time>
      </trkpt>
      <trkpt lat="63.051996985450387" lon="8.114099018275738">
        <ele>18.879999999999999</ele>
        <time>2017-06-21T09:36:54Z</time>
      </trkpt>
      <trkpt lat="63.051983993500471" lon="8.114473018795252">
        <ele>18.399999999999999</ele>
        <time>2017-06-21T09:36:55Z</time>
      </trkpt>
      <trkpt lat="63.051955997943878" lon="8.114846013486385">
        <ele>17.440000000000001</ele>
        <time>2017-06-21T09:36:56Z</time>
      </trkpt>
      <trkpt lat="63.05191601626575" lon="8.115210961550474">
        <ele>16.48</ele>
        <time>2017-06-21T09:36:57Z</time>
      </trkpt>
      <trkpt lat="63.051834963262081" lon="8.116215029731393">
        <ele>14.56</ele>
        <time>2017-06-21T09:37:00Z</time>
      </trkpt>
      <trkpt lat="63.051844015717506" lon="8.116532033309341">
        <ele>14.56</ele>
        <time>2017-06-21T09:37:01Z</time>
      </trkpt>
      <trkpt lat="63.051875028759241" lon="8.116846019402146">
        <ele>14.08</ele>
        <time>2017-06-21T09:37:02Z</time>
      </trkpt>
      <trkpt lat="63.05195901542902" lon="8.11777800321579">
        <ele>12.15</ele>
        <time>2017-06-21T09:37:05Z</time>
      </trkpt>
      <trkpt lat="63.05195901542902" lon="8.118101041764021">
        <ele>12.15</ele>
        <time>2017-06-21T09:37:06Z</time>
      </trkpt>
      <trkpt lat="63.051949040964246" lon="8.118427013978362">
        <ele>11.67</ele>
        <time>2017-06-21T09:37:07Z</time>
      </trkpt>
      <trkpt lat="63.051864970475435" lon="8.1213020067662">
        <ele>9.75</ele>
        <time>2017-06-21T09:37:17Z</time>
      </trkpt>
      <trkpt lat="63.051920961588621" lon="8.122058976441622">
        <ele>8.310000000000001</ele>
        <time>2017-06-21T09:37:20Z</time>
      </trkpt>
      <trkpt lat="63.051960021257401" lon="8.122288975864649">
        <ele>7.83</ele>
        <time>2017-06-21T09:37:21Z</time>
      </trkpt>
      <trkpt lat="63.052007965743542" lon="8.122506989166141">
        <ele>6.87</ele>
        <time>2017-06-21T09:37:22Z</time>
      </trkpt>
      <trkpt lat="63.052064040675759" lon="8.122708993032575">
        <ele>6.87</ele>
        <time>2017-06-21T09:37:23Z</time>
      </trkpt>
      <trkpt lat="63.052121959626675" lon="8.122899010777473">
        <ele>6.39</ele>
        <time>2017-06-21T09:37:24Z</time>
      </trkpt>
      <trkpt lat="63.052181974053383" lon="8.123066984117031">
        <ele>5.91</ele>
        <time>2017-06-21T09:37:25Z</time>
      </trkpt>
      <trkpt lat="63.052547005936503" lon="8.123941970989108">
        <ele>2.54</ele>
        <time>2017-06-21T09:37:34Z</time>
      </trkpt>
      <trkpt lat="63.05262797512114" lon="8.124057976529002">
        <ele>2.54</ele>
        <time>2017-06-21T09:37:44Z</time>
      </trkpt>
      <trkpt lat="63.052630992606282" lon="8.124058982357383">
        <ele>2.54</ele>
        <time>2017-06-21T09:40:21Z</time>
      </trkpt>
      <trkpt lat="63.052631998434663" lon="8.124063005670905">
        <ele>3.02</ele>
        <time>2017-06-21T09:42:17Z</time>
      </trkpt>
      <trkpt lat="63.052630992606282" lon="8.124063005670905">
        <ele>3.02</ele>
        <time>2017-06-21T09:43:23Z</time>
      </trkpt>
      <trkpt lat="63.052765019237995" lon="8.124257968738675">
        <ele>3.98</ele>
        <time>2017-06-21T09:44:28Z</time>
      </trkpt>
      <trkpt lat="63.053079005330801" lon="8.124735988676548">
        <ele>3.02</ele>
        <time>2017-06-21T09:44:34Z</time>
      </trkpt>
      <trkpt lat="63.053114963695407" lon="8.124808995053172">
        <ele>3.02</ele>
        <time>2017-06-21T09:44:35Z</time>
      </trkpt>
      <trkpt lat="63.053146982565522" lon="8.124882001429796">
        <ele>3.02</ele>
        <time>2017-06-21T09:44:36Z</time>
      </trkpt>
      <trkpt lat="63.053173972293735" lon="8.124961964786053">
        <ele>2.54</ele>
        <time>2017-06-21T09:44:37Z</time>
      </trkpt>
      <trkpt lat="63.053197022527456" lon="8.125032959505916">
        <ele>2.54</ele>
        <time>2017-06-21T09:44:38Z</time>
      </trkpt>
      <trkpt lat="63.053214037790895" lon="8.12510403804481">
        <ele>2.54</ele>
        <time>2017-06-21T09:44:39Z</time>
      </trkpt>
      <trkpt lat="63.05329299531877" lon="8.125425986945629">
        <ele>1.58</ele>
        <time>2017-06-21T09:44:46Z</time>
      </trkpt>
      <trkpt lat="63.05335502140224" lon="8.125966032966971">
        <ele>-50.329999999999998</ele>
        <time>2017-06-21T09:44:53Z</time>
      </trkpt>
      <trkpt lat="63.053339011967182" lon="8.126228973269463">
        <ele>-52.740000000000002</ele>
        <time>2017-06-21T09:45:10Z</time>
      </trkpt>
      <trkpt lat="63.053337000310421" lon="8.12637297436595">
        <ele>-49.850000000000001</ele>
        <time>2017-06-21T09:46:40Z</time>
      </trkpt>
      <trkpt lat="63.053347980603576" lon="8.126528961583972">
        <ele>-46.969999999999999</ele>
        <time>2017-06-21T09:48:19Z</time>
      </trkpt>
      <trkpt lat="63.053347980603576" lon="8.126682015135884">
        <ele>-46.009999999999998</ele>
        <time>2017-06-21T09:50:01Z</time>
      </trkpt>
      <trkpt lat="63.053362984210253" lon="8.126916959881783">
        <ele>-42.159999999999997</ele>
        <time>2017-06-21T09:51:02Z</time>
      </trkpt>
      <trkpt lat="63.05337899364531" lon="8.127086022868753">
        <ele>-38.799999999999997</ele>
        <time>2017-06-21T09:51:09Z</time>
      </trkpt>
      <trkpt lat="63.05357102304697" lon="8.128206012770534">
        <ele>-23.41</ele>
        <time>2017-06-21T09:51:38Z</time>
      </trkpt>
      <trkpt lat="63.053802028298378" lon="8.130315989255905">
        <ele>-13.32</ele>
        <time>2017-06-21T09:52:08Z</time>
      </trkpt>
      <trkpt lat="63.054002020508051" lon="8.134155990555883">
        <ele>-9</ele>
        <time>2017-06-21T09:52:51Z</time>
      </trkpt>
      <trkpt lat="63.054569978266954" lon="8.141145994886756">
        <ele>-1.3</ele>
        <time>2017-06-21T09:53:57Z</time>
      </trkpt>
      <trkpt lat="63.055702038109303" lon="8.149822019040585">
        <ele>-16.210000000000001</ele>
        <time>2017-06-21T09:55:25Z</time>
      </trkpt>
      <trkpt lat="63.05679596029222" lon="8.157606041058898">
        <ele>-15.720000000000001</ele>
        <time>2017-06-21T09:56:46Z</time>
      </trkpt>
      <trkpt lat="63.057988034561276" lon="8.166358005255461">
        <ele>-8.51</ele>
        <time>2017-06-21T09:58:18Z</time>
      </trkpt>
      <trkpt lat="63.058994030579925" lon="8.174070026725531">
        <ele>-8.51</ele>
        <time>2017-06-21T09:59:38Z</time>
      </trkpt>
      <trkpt lat="63.060135981068015" lon="8.180073983967304">
        <ele>-6.11</ele>
        <time>2017-06-21T10:00:44Z</time>
      </trkpt>
      <trkpt lat="63.060779040679336" lon="8.184157982468605">
        <ele>-4.67</ele>
        <time>2017-06-21T10:01:31Z</time>
      </trkpt>
      <trkpt lat="63.068257961422205" lon="8.22666697204113">
        <ele>-58.5</ele>
        <time>2017-06-21T10:11:20Z</time>
      </trkpt>
      <trkpt lat="63.068228038027883" lon="8.226610980927944">
        <ele>-54.659999999999997</ele>
        <time>2017-06-21T10:12:07Z</time>
      </trkpt>
      <trkpt lat="63.068244969472289" lon="8.226670995354652">
        <ele>-48.409999999999997</ele>
        <time>2017-06-21T10:12:44Z</time>
      </trkpt>
      <trkpt lat="63.068355023860931" lon="8.227852005511522">
        <ele>-22.93</ele>
        <time>2017-06-21T10:12:55Z</time>
      </trkpt>
      <trkpt lat="63.068389976397157" lon="8.228849032893777">
        <ele>-5.63</ele>
        <time>2017-06-21T10:13:03Z</time>
      </trkpt>
      <trkpt lat="63.068383019417524" lon="8.228933019563556">
        <ele>-5.15</ele>
        <time>2017-06-21T10:13:04Z</time>
      </trkpt>
      <trkpt lat="63.068382013589144" lon="8.229063022881746">
        <ele>-1.3</ele>
        <time>2017-06-21T10:13:13Z</time>
      </trkpt>
      <trkpt lat="63.068377990275621" lon="8.229276007041335">
        <ele>-0.34</ele>
        <time>2017-06-21T10:13:57Z</time>
      </trkpt>
      <trkpt lat="63.068175986409187" lon="8.230952974408865">
        <ele>3.02</ele>
        <time>2017-06-21T10:14:06Z</time>
      </trkpt>
      <trkpt lat="63.068078001961112" lon="8.231962993741036">
        <ele>4.94</ele>
        <time>2017-06-21T10:14:10Z</time>
      </trkpt>
      <trkpt lat="63.068079007789493" lon="8.232235992327333">
        <ele>4.94</ele>
        <time>2017-06-21T10:14:11Z</time>
      </trkpt>
      <trkpt lat="63.068091999739408" lon="8.232517037540674">
        <ele>5.42</ele>
        <time>2017-06-21T10:14:12Z</time>
      </trkpt>
      <trkpt lat="63.06811697781086" lon="8.232794981449843">
        <ele>6.39</ele>
        <time>2017-06-21T10:14:13Z</time>
      </trkpt>
      <trkpt lat="63.068156037479639" lon="8.233065968379378">
        <ele>6.87</ele>
        <time>2017-06-21T10:14:14Z</time>
      </trkpt>
      <trkpt lat="63.06820398196578" lon="8.233327986672521">
        <ele>7.83</ele>
        <time>2017-06-21T10:14:15Z</time>
      </trkpt>
      <trkpt lat="63.068257961422205" lon="8.23358497582376">
        <ele>8.310000000000001</ele>
        <time>2017-06-21T10:14:16Z</time>
      </trkpt>
      <trkpt lat="63.069101013243198" lon="8.237455990165472">
        <ele>21.77</ele>
        <time>2017-06-21T10:14:31Z</time>
      </trkpt>
      <trkpt lat="63.070188984274864" lon="8.242742037400603">
        <ele>31.859999999999999</ele>
        <time>2017-06-21T10:14:50Z</time>
      </trkpt>
      <trkpt lat="63.071430008858442" lon="8.248856971040368">
        <ele>45.799999999999997</ele>
        <time>2017-06-21T10:15:11Z</time>
      </trkpt>
      <trkpt lat="63.071862012147903" lon="8.251919969916344">
        <ele>48.68</ele>
        <time>2017-06-21T10:15:22Z</time>
      </trkpt>
      <trkpt lat="63.07204800657928" lon="8.255643965676427">
        <ele>46.759999999999998</ele>
        <time>2017-06-21T10:15:34Z</time>
      </trkpt>
      <trkpt lat="63.072226960211992" lon="8.259835001081228">
        <ele>36.670000000000002</ele>
        <time>2017-06-21T10:15:46Z</time>
      </trkpt>
      <trkpt lat="63.072439022362232" lon="8.265347024425864">
        <ele>29.940000000000001</ele>
        <time>2017-06-21T10:16:01Z</time>
      </trkpt>
      <trkpt lat="63.072397029027343" lon="8.269515009596944">
        <ele>22.25</ele>
        <time>2017-06-21T10:16:11Z</time>
      </trkpt>
      <trkpt lat="63.072151020169258" lon="8.27345903031528">
        <ele>16.48</ele>
        <time>2017-06-21T10:16:21Z</time>
      </trkpt>
      <trkpt lat="63.071824964135885" lon="8.279933966696262">
        <ele>12.630000000000001</ele>
        <time>2017-06-21T10:16:39Z</time>
      </trkpt>
      <trkpt lat="63.071685992181301" lon="8.283302988857031">
        <ele>17.920000000000002</ele>
        <time>2017-06-21T10:16:50Z</time>
      </trkpt>
      <trkpt lat="63.071907022967935" lon="8.285886961966753">
        <ele>16.960000000000001</ele>
        <time>2017-06-21T10:16:58Z</time>
      </trkpt>
      <trkpt lat="63.072404991835356" lon="8.29062600620091">
        <ele>20.32</ele>
        <time>2017-06-21T10:17:12Z</time>
      </trkpt>
      <trkpt lat="63.072764994576573" lon="8.294080020859838">
        <ele>15.039999999999999</ele>
        <time>2017-06-21T10:17:22Z</time>
      </trkpt>
      <trkpt lat="63.073178976774216" lon="8.298136023804545">
        <ele>11.19</ele>
        <time>2017-06-21T10:17:33Z</time>
      </trkpt>
      <trkpt lat="63.073260029777884" lon="8.298828033730388">
        <ele>10.710000000000001</ele>
        <time>2017-06-21T10:17:35Z</time>
      </trkpt>
      <trkpt lat="63.073320966213942" lon="8.299142019823194">
        <ele>11.19</ele>
        <time>2017-06-21T10:17:36Z</time>
      </trkpt>
      <trkpt lat="63.073403025045991" lon="8.299443013966084">
        <ele>11.19</ele>
        <time>2017-06-21T10:17:37Z</time>
      </trkpt>
      <trkpt lat="63.073497992008924" lon="8.299736967310309">
        <ele>11.67</ele>
        <time>2017-06-21T10:17:38Z</time>
      </trkpt>
      <trkpt lat="63.073599999770522" lon="8.300009965896606">
        <ele>12.15</ele>
        <time>2017-06-21T10:17:39Z</time>
      </trkpt>
      <trkpt lat="63.073957990854979" lon="8.301016967743635">
        <ele>14.56</ele>
        <time>2017-06-21T10:17:43Z</time>
      </trkpt>
      <trkpt lat="63.074014987796545" lon="8.301292983815074">
        <ele>15.52</ele>
        <time>2017-06-21T10:17:44Z</time>
      </trkpt>
      <trkpt lat="63.074052035808563" lon="8.301603030413389">
        <ele>16.48</ele>
        <time>2017-06-21T10:17:45Z</time>
      </trkpt>
      <trkpt lat="63.07406703941524" lon="8.301919028162956">
        <ele>17.440000000000001</ele>
        <time>2017-06-21T10:17:46Z</time>
      </trkpt>
      <trkpt lat="63.074059998616576" lon="8.302247012034059">
        <ele>18.399999999999999</ele>
        <time>2017-06-21T10:17:47Z</time>
      </trkpt>
      <trkpt lat="63.074032003059983" lon="8.302569966763258">
        <ele>19.359999999999999</ele>
        <time>2017-06-21T10:17:48Z</time>
      </trkpt>
      <trkpt lat="63.07398296892643" lon="8.302887976169586">
        <ele>19.84</ele>
        <time>2017-06-21T10:17:49Z</time>
      </trkpt>
      <trkpt lat="63.073924966156483" lon="8.30319500528276">
        <ele>20.809999999999999</ele>
        <time>2017-06-21T10:17:50Z</time>
      </trkpt>
      <trkpt lat="63.073864029720426" lon="8.30349599942565">
        <ele>21.77</ele>
        <time>2017-06-21T10:17:51Z</time>
      </trkpt>
      <trkpt lat="63.073748024180532" lon="8.30407502129674">
        <ele>22.73</ele>
        <time>2017-06-21T10:17:53Z</time>
      </trkpt>
      <trkpt lat="63.073709970340133" lon="8.304375009611249">
        <ele>23.210000000000001</ele>
        <time>2017-06-21T10:17:54Z</time>
      </trkpt>
      <trkpt lat="63.073691027238965" lon="8.304671980440617">
        <ele>24.170000000000002</ele>
        <time>2017-06-21T10:17:55Z</time>
      </trkpt>
      <trkpt lat="63.073693960905075" lon="8.304965011775494">
        <ele>24.649999999999999</ele>
        <time>2017-06-21T10:17:56Z</time>
      </trkpt>
      <trkpt lat="63.073719022795558" lon="8.305243039503694">
        <ele>25.609999999999999</ele>
        <time>2017-06-21T10:17:57Z</time>
      </trkpt>
      <trkpt lat="63.073761016130447" lon="8.305514026433229">
        <ele>26.57</ele>
        <time>2017-06-21T10:17:58Z</time>
      </trkpt>
      <trkpt lat="63.073822958394885" lon="8.305784007534385">
        <ele>27.530000000000001</ele>
        <time>2017-06-21T10:17:59Z</time>
      </trkpt>
      <trkpt lat="63.073898982256651" lon="8.306050971150398">
        <ele>28.02</ele>
        <time>2017-06-21T10:18:00Z</time>
      </trkpt>
      <trkpt lat="63.073981963098049" lon="8.306319024413824">
        <ele>28.98</ele>
        <time>2017-06-21T10:18:01Z</time>
      </trkpt>
      <trkpt lat="63.074719989672303" lon="8.308795038610697">
        <ele>29.940000000000001</ele>
        <time>2017-06-21T10:18:10Z</time>
      </trkpt>
      <trkpt lat="63.075165990740061" lon="8.311867006123066">
        <ele>30.420000000000002</ele>
        <time>2017-06-21T10:18:20Z</time>
      </trkpt>
      <trkpt lat="63.075371012091637" lon="8.315516989678145">
        <ele>21.289999999999999</ele>
        <time>2017-06-21T10:18:31Z</time>
      </trkpt>
      <trkpt lat="63.075840985402465" lon="8.318637991324067">
        <ele>13.6</ele>
        <time>2017-06-21T10:18:40Z</time>
      </trkpt>
      <trkpt lat="63.07664698921144" lon="8.322040038183332">
        <ele>5.91</ele>
        <time>2017-06-21T10:18:50Z</time>
      </trkpt>
      <trkpt lat="63.077501021325588" lon="8.324182033538818">
        <ele>9.75</ele>
        <time>2017-06-21T10:18:58Z</time>
      </trkpt>
      <trkpt lat="63.078682031482458" lon="8.327530017122626">
        <ele>15.52</ele>
        <time>2017-06-21T10:19:11Z</time>
      </trkpt>
      <trkpt lat="63.079043040052056" lon="8.329875022172928">
        <ele>20.32</ele>
        <time>2017-06-21T10:19:19Z</time>
      </trkpt>
      <trkpt lat="63.079637987539172" lon="8.332407027482987">
        <ele>25.129999999999999</ele>
        <time>2017-06-21T10:19:27Z</time>
      </trkpt>
      <trkpt lat="63.080783961340785" lon="8.336130017414689">
        <ele>25.129999999999999</ele>
        <time>2017-06-21T10:19:40Z</time>
      </trkpt>
      <trkpt lat="63.081134995445609" lon="8.33791796118021">
        <ele>22.73</ele>
        <time>2017-06-21T10:19:46Z</time>
      </trkpt>
      <trkpt lat="63.081214958801866" lon="8.338210992515087">
        <ele>22.25</ele>
        <time>2017-06-21T10:19:47Z</time>
      </trkpt>
      <trkpt lat="63.081310009583831" lon="8.338487008586526">
        <ele>21.77</ele>
        <time>2017-06-21T10:19:48Z</time>
      </trkpt>
      <trkpt lat="63.081416040658951" lon="8.338741986081004">
        <ele>21.77</ele>
        <time>2017-06-21T10:19:49Z</time>
      </trkpt>
      <trkpt lat="63.0815239995718" lon="8.338989000767469">
        <ele>22.25</ele>
        <time>2017-06-21T10:19:50Z</time>
      </trkpt>
      <trkpt lat="63.082981025800109" lon="8.341802973300219">
        <ele>11.67</ele>
        <time>2017-06-21T10:20:03Z</time>
      </trkpt>
      <trkpt lat="63.083319989964366" lon="8.342414014041424">
        <ele>11.19</ele>
        <time>2017-06-21T10:20:06Z</time>
      </trkpt>
      <trkpt lat="63.08341302908957" lon="8.342677960172296">
        <ele>11.19</ele>
        <time>2017-06-21T10:20:07Z</time>
      </trkpt>
      <trkpt lat="63.083487963303924" lon="8.342984989285469">
        <ele>11.19</ele>
        <time>2017-06-21T10:20:08Z</time>
      </trkpt>
      <trkpt lat="63.083547977730632" lon="8.343322025611997">
        <ele>10.710000000000001</ele>
        <time>2017-06-21T10:20:09Z</time>
      </trkpt>
      <trkpt lat="63.083600029349327" lon="8.343669958412647">
        <ele>10.710000000000001</ele>
        <time>2017-06-21T10:20:10Z</time>
      </trkpt>
      <trkpt lat="63.083651997148991" lon="8.344031972810626">
        <ele>11.19</ele>
        <time>2017-06-21T10:20:11Z</time>
      </trkpt>
      <trkpt lat="63.084007976576686" lon="8.347330000251532">
        <ele>9.27</ele>
        <time>2017-06-21T10:20:21Z</time>
      </trkpt>
      <trkpt lat="63.084071008488536" lon="8.347630994394422">
        <ele>8.789999999999999</ele>
        <time>2017-06-21T10:20:22Z</time>
      </trkpt>
      <trkpt lat="63.084152983501554" lon="8.347925031557679">
        <ele>7.83</ele>
        <time>2017-06-21T10:20:23Z</time>
      </trkpt>
      <trkpt lat="63.084246022626758" lon="8.34818403236568">
        <ele>7.83</ele>
        <time>2017-06-21T10:20:24Z</time>
      </trkpt>
      <trkpt lat="63.084353981539607" lon="8.348427023738623">
        <ele>7.83</ele>
        <time>2017-06-21T10:20:25Z</time>
      </trkpt>
      <trkpt lat="63.084474010393023" lon="8.348647970706224">
        <ele>7.83</ele>
        <time>2017-06-21T10:20:26Z</time>
      </trkpt>
      <trkpt lat="63.084602002054453" lon="8.348842011764646">
        <ele>8.310000000000001</ele>
        <time>2017-06-21T10:20:27Z</time>
      </trkpt>
      <trkpt lat="63.084732005372643" lon="8.349004033952951">
        <ele>8.789999999999999</ele>
        <time>2017-06-21T10:20:28Z</time>
      </trkpt>
      <trkpt lat="63.084868965670466" lon="8.349134037271142">
        <ele>8.789999999999999</ele>
        <time>2017-06-21T10:20:29Z</time>
      </trkpt>
      <trkpt lat="63.085010033100843" lon="8.349230010062456">
        <ele>8.789999999999999</ele>
        <time>2017-06-21T10:20:30Z</time>
      </trkpt>
      <trkpt lat="63.085156967863441" lon="8.349293963983655">
        <ele>9.27</ele>
        <time>2017-06-21T10:20:31Z</time>
      </trkpt>
      <trkpt lat="63.085299963131547" lon="8.349331011995673">
        <ele>10.23</ele>
        <time>2017-06-21T10:20:32Z</time>
      </trkpt>
      <trkpt lat="63.085443964228034" lon="8.349337968975306">
        <ele>10.710000000000001</ele>
        <time>2017-06-21T10:20:33Z</time>
      </trkpt>
      <trkpt lat="63.08558402583003" lon="8.34932598285377">
        <ele>11.19</ele>
        <time>2017-06-21T10:20:34Z</time>
      </trkpt>
      <trkpt lat="63.086134968325496" lon="8.349304022267461">
        <ele>15.52</ele>
        <time>2017-06-21T10:20:38Z</time>
      </trkpt>
      <trkpt lat="63.086281986907125" lon="8.349350038915873">
        <ele>16.48</ele>
        <time>2017-06-21T10:20:39Z</time>
      </trkpt>
      <trkpt lat="63.086430011317134" lon="8.349428996443749">
        <ele>17.920000000000002</ele>
        <time>2017-06-21T10:20:40Z</time>
      </trkpt>
      <trkpt lat="63.086579041555524" lon="8.349549025297165">
        <ele>18.879999999999999</ele>
        <time>2017-06-21T10:20:41Z</time>
      </trkpt>
      <trkpt lat="63.086722958832979" lon="8.349708030000329">
        <ele>20.809999999999999</ele>
        <time>2017-06-21T10:20:42Z</time>
      </trkpt>
      <trkpt lat="63.086862014606595" lon="8.34990500472486">
        <ele>22.73</ele>
        <time>2017-06-21T10:20:43Z</time>
      </trkpt>
      <trkpt lat="63.086990006268024" lon="8.350130980834365">
        <ele>24.170000000000002</ele>
        <time>2017-06-21T10:20:44Z</time>
      </trkpt>
      <trkpt lat="63.087105005979538" lon="8.35037799552083">
        <ele>25.129999999999999</ele>
        <time>2017-06-21T10:20:45Z</time>
      </trkpt>
      <trkpt lat="63.087203996255994" lon="8.350631967186928">
        <ele>27.050000000000001</ele>
        <time>2017-06-21T10:20:46Z</time>
      </trkpt>
      <trkpt lat="63.08728102594614" lon="8.350889040157199">
        <ele>28.5</ele>
        <time>2017-06-21T10:20:47Z</time>
      </trkpt>
      <trkpt lat="63.087344979867339" lon="8.351137982681394">
        <ele>29.460000000000001</ele>
        <time>2017-06-21T10:20:48Z</time>
      </trkpt>
      <trkpt lat="63.087406000122428" lon="8.35138700902462">
        <ele>30.420000000000002</ele>
        <time>2017-06-21T10:20:49Z</time>
      </trkpt>
      <trkpt lat="63.087936993688345" lon="8.353438982740045">
        <ele>37.630000000000003</ele>
        <time>2017-06-21T10:20:59Z</time>
      </trkpt>
      <trkpt lat="63.08816003613174" lon="8.354155970737338">
        <ele>39.549999999999997</ele>
        <time>2017-06-21T10:21:06Z</time>
      </trkpt>
      <trkpt lat="63.08820303529501" lon="8.354212967678905">
        <ele>39.549999999999997</ele>
        <time>2017-06-21T10:21:07Z</time>
      </trkpt>
      <trkpt lat="63.088261038064957" lon="8.354233000427485">
        <ele>40.030000000000001</ele>
        <time>2017-06-21T10:21:08Z</time>
      </trkpt>
      <trkpt lat="63.088329015299678" lon="8.354209028184414">
        <ele>40.509999999999998</ele>
        <time>2017-06-21T10:21:09Z</time>
      </trkpt>
      <trkpt lat="63.08839900419116" lon="8.354130992665887">
        <ele>40.030000000000001</ele>
        <time>2017-06-21T10:21:10Z</time>
      </trkpt>
      <trkpt lat="63.088472010567784" lon="8.354025967419148">
        <ele>40.030000000000001</ele>
        <time>2017-06-21T10:21:11Z</time>
      </trkpt>
      <trkpt lat="63.08854803442955" lon="8.353897975757718">
        <ele>40.509999999999998</ele>
        <time>2017-06-21T10:21:12Z</time>
      </trkpt>
      <trkpt lat="63.089345991611481" lon="8.352642031386495">
        <ele>41.950000000000003</ele>
        <time>2017-06-21T10:21:19Z</time>
      </trkpt>
      <trkpt lat="63.09041703119874" lon="8.351889001205564">
        <ele>50.609999999999999</ele>
        <time>2017-06-21T10:21:25Z</time>
      </trkpt>
      <trkpt lat="63.091657971963286" lon="8.351006973534823">
        <ele>56.859999999999999</ele>
        <time>2017-06-21T10:21:32Z</time>
      </trkpt>
      <trkpt lat="63.093073004856706" lon="8.349186005070806">
        <ele>58.299999999999997</ele>
        <time>2017-06-21T10:21:39Z</time>
      </trkpt>
      <trkpt lat="63.09417799115181" lon="8.348084958270192">
        <ele>60.700000000000003</ele>
        <time>2017-06-21T10:21:45Z</time>
      </trkpt>
      <trkpt lat="63.09435099363327" lon="8.34801496937871">
        <ele>60.219999999999999</ele>
        <time>2017-06-21T10:21:46Z</time>
      </trkpt>
      <trkpt lat="63.095242995768785" lon="8.347764015197754">
        <ele>56.859999999999999</ele>
        <time>2017-06-21T10:21:51Z</time>
      </trkpt>
      <trkpt lat="63.095406023785472" lon="8.347630994394422">
        <ele>56.369999999999997</ele>
        <time>2017-06-21T10:21:52Z</time>
      </trkpt>
      <trkpt lat="63.095558993518353" lon="8.347453968599439">
        <ele>55.890000000000001</ele>
        <time>2017-06-21T10:21:53Z</time>
      </trkpt>
      <trkpt lat="63.09570400044322" lon="8.347244001924992">
        <ele>55.409999999999997</ele>
        <time>2017-06-21T10:21:54Z</time>
      </trkpt>
      <trkpt lat="63.095840038731694" lon="8.347007967531681">
        <ele>54.93</ele>
        <time>2017-06-21T10:21:55Z</time>
      </trkpt>
      <trkpt lat="63.095968030393124" lon="8.346759025007486">
        <ele>54.450000000000003</ele>
        <time>2017-06-21T10:21:56Z</time>
      </trkpt>
      <trkpt lat="63.097112998366356" lon="8.345153974369168">
        <ele>50.609999999999999</ele>
        <time>2017-06-21T10:22:04Z</time>
      </trkpt>
      <trkpt lat="63.097395971417427" lon="8.344757007434964">
        <ele>49.649999999999999</ele>
        <time>2017-06-21T10:22:06Z</time>
      </trkpt>
      <trkpt lat="63.097517006099224" lon="8.344518961384893">
        <ele>49.159999999999997</ele>
        <time>2017-06-21T10:22:07Z</time>
      </trkpt>
      <trkpt lat="63.097630999982357" lon="8.344257026910782">
        <ele>48.68</ele>
        <time>2017-06-21T10:22:08Z</time>
      </trkpt>
      <trkpt lat="63.098168028518558" lon="8.342913994565606">
        <ele>47.719999999999999</ele>
        <time>2017-06-21T10:22:13Z</time>
      </trkpt>
      <trkpt lat="63.098302977159619" lon="8.342701010406017">
        <ele>47.719999999999999</ele>
        <time>2017-06-21T10:22:14Z</time>
      </trkpt>
      <trkpt lat="63.09845401905477" lon="8.342531025409699">
        <ele>48.200000000000003</ele>
        <time>2017-06-21T10:22:15Z</time>
      </trkpt>
      <trkpt lat="63.098606988787651" lon="8.342396998777986">
        <ele>47.719999999999999</ele>
        <time>2017-06-21T10:22:16Z</time>
      </trkpt>
      <trkpt lat="63.098758030682802" lon="8.342315023764968">
        <ele>47.240000000000002</ele>
        <time>2017-06-21T10:22:17Z</time>
      </trkpt>
      <trkpt lat="63.098911000415683" lon="8.342283004894853">
        <ele>47.240000000000002</ele>
        <time>2017-06-21T10:22:18Z</time>
      </trkpt>
      <trkpt lat="63.099070005118847" lon="8.342301025986671">
        <ele>46.759999999999998</ele>
        <time>2017-06-21T10:22:19Z</time>
      </trkpt>
      <trkpt lat="63.099225992336869" lon="8.3423410076648">
        <ele>46.759999999999998</ele>
        <time>2017-06-21T10:22:20Z</time>
      </trkpt>
      <trkpt lat="63.100072983652353" lon="8.342778040096164">
        <ele>46.280000000000001</ele>
        <time>2017-06-21T10:22:27Z</time>
      </trkpt>
      <trkpt lat="63.10017297975719" lon="8.342787008732557">
        <ele>46.280000000000001</ele>
        <time>2017-06-21T10:22:28Z</time>
      </trkpt>
      <trkpt lat="63.100263001397252" lon="8.342783991247416">
        <ele>46.280000000000001</ele>
        <time>2017-06-21T10:22:29Z</time>
      </trkpt>
      <trkpt lat="63.100341036915779" lon="8.342753984034061">
        <ele>46.280000000000001</ele>
        <time>2017-06-21T10:22:30Z</time>
      </trkpt>
      <trkpt lat="63.1004090141505" lon="8.342709979042411">
        <ele>46.280000000000001</ele>
        <time>2017-06-21T10:22:31Z</time>
      </trkpt>
      <trkpt lat="63.100471962243319" lon="8.342655999585986">
        <ele>46.280000000000001</ele>
        <time>2017-06-21T10:22:32Z</time>
      </trkpt>
      <trkpt lat="63.100533988326788" lon="8.342590034008026">
        <ele>46.280000000000001</ele>
        <time>2017-06-21T10:22:33Z</time>
      </trkpt>
      <trkpt lat="63.100595008581877" lon="8.342519039288163">
        <ele>46.759999999999998</ele>
        <time>2017-06-21T10:22:34Z</time>
      </trkpt>
      <trkpt lat="63.100759964436293" lon="8.342270012944937">
        <ele>47.240000000000002</ele>
        <time>2017-06-21T10:22:37Z</time>
      </trkpt>
      <trkpt lat="63.10094696469605" lon="8.341745976358652">
        <ele>47.240000000000002</ele>
        <time>2017-06-21T10:22:46Z</time>
      </trkpt>
      <trkpt lat="63.101126002147794" lon="8.340723970904946">
        <ele>46.280000000000001</ele>
        <time>2017-06-21T10:22:56Z</time>
      </trkpt>
      <trkpt lat="63.101237984374166" lon="8.338994029909372">
        <ele>48.200000000000003</ele>
        <time>2017-06-21T10:23:07Z</time>
      </trkpt>
      <trkpt lat="63.10126799158752" lon="8.338812980800867">
        <ele>48.68</ele>
        <time>2017-06-21T10:23:08Z</time>
      </trkpt>
      <trkpt lat="63.101305961608887" lon="8.33864601328969">
        <ele>48.68</ele>
        <time>2017-06-21T10:23:09Z</time>
      </trkpt>
      <trkpt lat="63.10135499574244" lon="8.338506035506725">
        <ele>49.159999999999997</ele>
        <time>2017-06-21T10:23:10Z</time>
      </trkpt>
      <trkpt lat="63.101406041532755" lon="8.33836697973311">
        <ele>49.159999999999997</ele>
        <time>2017-06-21T10:23:11Z</time>
      </trkpt>
      <trkpt lat="63.101467983797193" lon="8.338229013606906">
        <ele>49.649999999999999</ele>
        <time>2017-06-21T10:23:12Z</time>
      </trkpt>
      <trkpt lat="63.102159993723035" lon="8.336569983512163">
        <ele>53.969999999999999</ele>
        <time>2017-06-21T10:23:22Z</time>
      </trkpt>
      <trkpt lat="63.102893996983767" lon="8.33518898114562">
        <ele>51.090000000000003</ele>
        <time>2017-06-21T10:23:30Z</time>
      </trkpt>
      <trkpt lat="63.103021988645196" lon="8.33508001640439">
        <ele>50.130000000000003</ele>
        <time>2017-06-21T10:23:31Z</time>
      </trkpt>
      <trkpt lat="63.103154003620148" lon="8.334999969229102">
        <ele>48.68</ele>
        <time>2017-06-21T10:23:32Z</time>
      </trkpt>
      <trkpt lat="63.103277971968055" lon="8.33495101891458">
        <ele>48.200000000000003</ele>
        <time>2017-06-21T10:23:33Z</time>
      </trkpt>
      <trkpt lat="63.103394983336329" lon="8.335002986714244">
        <ele>46.280000000000001</ele>
        <time>2017-06-21T10:23:34Z</time>
      </trkpt>
      <trkpt lat="63.103508977219462" lon="8.335129972547293">
        <ele>45.32</ele>
        <time>2017-06-21T10:23:35Z</time>
      </trkpt>
      <trkpt lat="63.103609979152679" lon="8.335332982242107">
        <ele>45.32</ele>
        <time>2017-06-21T10:23:36Z</time>
      </trkpt>
      <trkpt lat="63.103693965822458" lon="8.335568010807037">
        <ele>44.359999999999999</ele>
        <time>2017-06-21T10:23:37Z</time>
      </trkpt>
      <trkpt lat="63.103772001340985" lon="8.335845032706857">
        <ele>43.880000000000003</ele>
        <time>2017-06-21T10:23:38Z</time>
      </trkpt>
      <trkpt lat="63.103845007717609" lon="8.336151978000999">
        <ele>42.920000000000002</ele>
        <time>2017-06-21T10:23:39Z</time>
      </trkpt>
      <trkpt lat="63.104223031550646" lon="8.337902035564184">
        <ele>37.149999999999999</ele>
        <time>2017-06-21T10:23:45Z</time>
      </trkpt>
      <trkpt lat="63.104305006563663" lon="8.338106973096728">
        <ele>36.670000000000002</ele>
        <time>2017-06-21T10:23:46Z</time>
      </trkpt>
      <trkpt lat="63.1044050026685" lon="8.338291039690375">
        <ele>37.149999999999999</ele>
        <time>2017-06-21T10:23:47Z</time>
      </trkpt>
      <trkpt lat="63.104517990723252" lon="8.338443003594875">
        <ele>36.670000000000002</ele>
        <time>2017-06-21T10:23:48Z</time>
      </trkpt>
      <trkpt lat="63.104646988213062" lon="8.338562026619911">
        <ele>36.670000000000002</ele>
        <time>2017-06-21T10:23:49Z</time>
      </trkpt>
      <trkpt lat="63.104779003188014" lon="8.338630003854632">
        <ele>36.670000000000002</ele>
        <time>2017-06-21T10:23:50Z</time>
      </trkpt>
      <trkpt lat="63.104924010112882" lon="8.33864601328969">
        <ele>37.630000000000003</ele>
        <time>2017-06-21T10:23:51Z</time>
      </trkpt>
      <trkpt lat="63.105069017037749" lon="8.338599996641278">
        <ele>38.109999999999999</ele>
        <time>2017-06-21T10:23:52Z</time>
      </trkpt>
      <trkpt lat="63.105204971507192" lon="8.338484996929765">
        <ele>38.590000000000003</ele>
        <time>2017-06-21T10:23:53Z</time>
      </trkpt>
      <trkpt lat="63.105331035330892" lon="8.338317023590207">
        <ele>38.590000000000003</ele>
        <time>2017-06-21T10:23:54Z</time>
      </trkpt>
      <trkpt lat="63.105443017557263" lon="8.33810898475349">
        <ele>38.590000000000003</ele>
        <time>2017-06-21T10:23:55Z</time>
      </trkpt>
      <trkpt lat="63.105542007833719" lon="8.337878985330463">
        <ele>38.109999999999999</ele>
        <time>2017-06-21T10:23:56Z</time>
      </trkpt>
      <trkpt lat="63.10563001781702" lon="8.33761302754283">
        <ele>37.630000000000003</ele>
        <time>2017-06-21T10:23:57Z</time>
      </trkpt>
      <trkpt lat="63.105711992830038" lon="8.337338017299771">
        <ele>37.630000000000003</ele>
        <time>2017-06-21T10:23:58Z</time>
      </trkpt>
      <trkpt lat="63.105788016691804" lon="8.337046997621656">
        <ele>37.149999999999999</ele>
        <time>2017-06-21T10:23:59Z</time>
      </trkpt>
      <trkpt lat="63.106323033571243" lon="8.334848005324602">
        <ele>33.299999999999997</ele>
        <time>2017-06-21T10:24:05Z</time>
      </trkpt>
      <trkpt lat="63.106779009103775" lon="8.332628980278969">
        <ele>27.530000000000001</ele>
        <time>2017-06-21T10:24:11Z</time>
      </trkpt>
      <trkpt lat="63.10687699355185" lon="8.332327986136079">
        <ele>26.57</ele>
        <time>2017-06-21T10:24:12Z</time>
      </trkpt>
      <trkpt lat="63.106992999091744" lon="8.332060016691685">
        <ele>26.09</ele>
        <time>2017-06-21T10:24:13Z</time>
      </trkpt>
      <trkpt lat="63.108178032562137" lon="8.329915003851056">
        <ele>21.77</ele>
        <time>2017-06-21T10:24:23Z</time>
      </trkpt>
      <trkpt lat="63.109298022463918" lon="8.328894004225731">
        <ele>23.210000000000001</ele>
        <time>2017-06-21T10:24:32Z</time>
      </trkpt>
      <trkpt lat="63.109860029071569" lon="8.32865696400404">
        <ele>24.649999999999999</ele>
        <time>2017-06-21T10:24:36Z</time>
      </trkpt>
      <trkpt lat="63.110672989860177" lon="8.328875983133912">
        <ele>22.73</ele>
        <time>2017-06-21T10:24:42Z</time>
      </trkpt>
      <trkpt lat="63.110809028148651" lon="8.328831978142262">
        <ele>22.73</ele>
        <time>2017-06-21T10:24:43Z</time>
      </trkpt>
      <trkpt lat="63.110937019810081" lon="8.328727958723903">
        <ele>22.25</ele>
        <time>2017-06-21T10:24:44Z</time>
      </trkpt>
      <trkpt lat="63.111043972894549" lon="8.328551016747952">
        <ele>22.25</ele>
        <time>2017-06-21T10:24:45Z</time>
      </trkpt>
      <trkpt lat="63.111136006191373" lon="8.328323028981686">
        <ele>22.73</ele>
        <time>2017-06-21T10:24:46Z</time>
      </trkpt>
      <trkpt lat="63.1112140417099" lon="8.328049024567008">
        <ele>23.210000000000001</ele>
        <time>2017-06-21T10:24:47Z</time>
      </trkpt>
      <trkpt lat="63.111289981752634" lon="8.327773008495569">
        <ele>24.170000000000002</ele>
        <time>2017-06-21T10:24:48Z</time>
      </trkpt>
      <trkpt lat="63.111456027254462" lon="8.327232962474227">
        <ele>25.129999999999999</ele>
        <time>2017-06-21T10:24:50Z</time>
      </trkpt>
      <trkpt lat="63.111544959247112" lon="8.327004974707961">
        <ele>25.609999999999999</ele>
        <time>2017-06-21T10:24:51Z</time>
      </trkpt>
      <trkpt lat="63.111637998372316" lon="8.326800959184766">
        <ele>26.09</ele>
        <time>2017-06-21T10:24:52Z</time>
      </trkpt>
      <trkpt lat="63.112748013809323" lon="8.325021984055638">
        <ele>28.5</ele>
        <time>2017-06-21T10:25:02Z</time>
      </trkpt>
      <trkpt lat="63.113528033718467" lon="8.32304896786809">
        <ele>28.5</ele>
        <time>2017-06-21T10:25:10Z</time>
      </trkpt>
      <trkpt lat="63.114258013665676" lon="8.321619015187025">
        <ele>28.5</ele>
        <time>2017-06-21T10:25:17Z</time>
      </trkpt>
      <trkpt lat="63.115747980773449" lon="8.319810032844544">
        <ele>29.460000000000001</ele>
        <time>2017-06-21T10:25:30Z</time>
      </trkpt>
      <trkpt lat="63.115850994363427" lon="8.319621020928025">
        <ele>30.420000000000002</ele>
        <time>2017-06-21T10:25:31Z</time>
      </trkpt>
      <trkpt lat="63.115944033488631" lon="8.319420022889972">
        <ele>31.379999999999999</ele>
        <time>2017-06-21T10:25:32Z</time>
      </trkpt>
      <trkpt lat="63.116022991016507" lon="8.319183988496661">
        <ele>31.859999999999999</ele>
        <time>2017-06-21T10:25:33Z</time>
      </trkpt>
      <trkpt lat="63.11609297990799" lon="8.318930016830564">
        <ele>32.340000000000003</ele>
        <time>2017-06-21T10:25:34Z</time>
      </trkpt>
      <trkpt lat="63.116148971021175" lon="8.318661963567138">
        <ele>31.379999999999999</ele>
        <time>2017-06-21T10:25:35Z</time>
      </trkpt>
      <trkpt lat="63.116189036518335" lon="8.318369016051292">
        <ele>31.379999999999999</ele>
        <time>2017-06-21T10:25:36Z</time>
      </trkpt>
      <trkpt lat="63.116216026246548" lon="8.318065004423261">
        <ele>31.379999999999999</ele>
        <time>2017-06-21T10:25:37Z</time>
      </trkpt>
      <trkpt lat="63.116234969347715" lon="8.317753029987216">
        <ele>31.379999999999999</ele>
        <time>2017-06-21T10:25:38Z</time>
      </trkpt>
      <trkpt lat="63.116244021803141" lon="8.317428985610604">
        <ele>32.340000000000003</ele>
        <time>2017-06-21T10:25:39Z</time>
      </trkpt>
      <trkpt lat="63.116295989602804" lon="8.316456014290452">
        <ele>35.229999999999997</ele>
        <time>2017-06-21T10:25:42Z</time>
      </trkpt>
      <trkpt lat="63.116333959624171" lon="8.31613196991384">
        <ele>35.710000000000001</ele>
        <time>2017-06-21T10:25:43Z</time>
      </trkpt>
      <trkpt lat="63.116389028728008" lon="8.315827958285809">
        <ele>36.189999999999998</ele>
        <time>2017-06-21T10:25:44Z</time>
      </trkpt>
      <trkpt lat="63.116454994305968" lon="8.315527969971299">
        <ele>36.189999999999998</ele>
        <time>2017-06-21T10:25:45Z</time>
      </trkpt>
      <trkpt lat="63.116529006510973" lon="8.315238961949945">
        <ele>37.149999999999999</ele>
        <time>2017-06-21T10:25:46Z</time>
      </trkpt>
      <trkpt lat="63.117049019783735" lon="8.312397999688983">
        <ele>42.920000000000002</ele>
        <time>2017-06-21T10:25:56Z</time>
      </trkpt>
      <trkpt lat="63.117465013638139" lon="8.310011001303792">
        <ele>48.68</ele>
        <time>2017-06-21T10:26:05Z</time>
      </trkpt>
      <trkpt lat="63.118007993325591" lon="8.308144016191363">
        <ele>54.450000000000003</ele>
        <time>2017-06-21T10:26:14Z</time>
      </trkpt>
      <trkpt lat="63.11809298582375" lon="8.307992974296212">
        <ele>54.93</ele>
        <time>2017-06-21T10:26:15Z</time>
      </trkpt>
      <trkpt lat="63.11817898415029" lon="8.307883003726602">
        <ele>55.890000000000001</ele>
        <time>2017-06-21T10:26:16Z</time>
      </trkpt>
      <trkpt lat="63.118267999961972" lon="8.3078140206635">
        <ele>56.369999999999997</ele>
        <time>2017-06-21T10:26:17Z</time>
      </trkpt>
      <trkpt lat="63.118355004116893" lon="8.307763980701566">
        <ele>57.340000000000003</ele>
        <time>2017-06-21T10:26:18Z</time>
      </trkpt>
      <trkpt lat="63.11843597330153" lon="8.307732967659831">
        <ele>57.82</ele>
        <time>2017-06-21T10:26:19Z</time>
      </trkpt>
      <trkpt lat="63.118508979678154" lon="8.307716958224773">
        <ele>57.82</ele>
        <time>2017-06-21T10:26:20Z</time>
      </trkpt>
      <trkpt lat="63.118575029075146" lon="8.307717964053154">
        <ele>58.780000000000001</ele>
        <time>2017-06-21T10:26:21Z</time>
      </trkpt>
      <trkpt lat="63.118637977167964" lon="8.307721987366676">
        <ele>59.259999999999998</ele>
        <time>2017-06-21T10:26:22Z</time>
      </trkpt>
      <trkpt lat="63.119085989892483" lon="8.307725004851818">
        <ele>62.140000000000001</ele>
        <time>2017-06-21T10:26:31Z</time>
      </trkpt>
      <trkpt lat="63.119320012629032" lon="8.307783007621765">
        <ele>63.579999999999998</ele>
        <time>2017-06-21T10:26:37Z</time>
      </trkpt>
      <trkpt lat="63.119377009570599" lon="8.30783698707819">
        <ele>64.069999999999993</ele>
        <time>2017-06-21T10:26:38Z</time>
      </trkpt>
      <trkpt lat="63.119436018168926" lon="8.30792399123311">
        <ele>64.549999999999997</ele>
        <time>2017-06-21T10:26:39Z</time>
      </trkpt>
      <trkpt lat="63.11948798596859" lon="8.308050977066159">
        <ele>65.030000000000001</ele>
        <time>2017-06-21T10:26:40Z</time>
      </trkpt>
      <trkpt lat="63.119521010667086" lon="8.308215010911226">
        <ele>65.989999999999995</ele>
        <time>2017-06-21T10:26:41Z</time>
      </trkpt>
      <trkpt lat="63.119534002617002" lon="8.3083959762007">
        <ele>66.950000000000003</ele>
        <time>2017-06-21T10:26:42Z</time>
      </trkpt>
      <trkpt lat="63.119529979303479" lon="8.308584988117218">
        <ele>67.430000000000007</ele>
        <time>2017-06-21T10:26:43Z</time>
      </trkpt>
      <trkpt lat="63.119514975696802" lon="8.308765031397343">
        <ele>68.390000000000001</ele>
        <time>2017-06-21T10:26:44Z</time>
      </trkpt>
      <trkpt lat="63.119493015110493" lon="8.308943985030055">
        <ele>68.870000000000005</ele>
        <time>2017-06-21T10:26:45Z</time>
      </trkpt>
      <trkpt lat="63.11946602538228" lon="8.309118999168277">
        <ele>69.349999999999994</ele>
        <time>2017-06-21T10:26:46Z</time>
      </trkpt>
      <trkpt lat="63.119282964617014" lon="8.31052104011178">
        <ele>73.200000000000003</ele>
        <time>2017-06-21T10:26:55Z</time>
      </trkpt>
      <trkpt lat="63.119279025122523" lon="8.310669986531138">
        <ele>73.680000000000007</ele>
        <time>2017-06-21T10:26:56Z</time>
      </trkpt>
      <trkpt lat="63.119279025122523" lon="8.310831002891064">
        <ele>74.159999999999997</ele>
        <time>2017-06-21T10:26:57Z</time>
      </trkpt>
      <trkpt lat="63.119284976273775" lon="8.311010040342808">
        <ele>74.640000000000001</ele>
        <time>2017-06-21T10:26:58Z</time>
      </trkpt>
      <trkpt lat="63.119298974052072" lon="8.31120802089572">
        <ele>75.120000000000005</ele>
        <time>2017-06-21T10:26:59Z</time>
      </trkpt>
      <trkpt lat="63.119318000972271" lon="8.311429973691702">
        <ele>75.599999999999994</ele>
        <time>2017-06-21T10:27:00Z</time>
      </trkpt>
      <trkpt lat="63.119610026478767" lon="8.313619997352362">
        <ele>81.849999999999994</ele>
        <time>2017-06-21T10:27:08Z</time>
      </trkpt>
      <trkpt lat="63.120229030027986" lon="8.318151002749801">
        <ele>92.420000000000002</ele>
        <time>2017-06-21T10:27:21Z</time>
      </trkpt>
      <trkpt lat="63.120998991653323" lon="8.324471963569522">
        <ele>103.95999999999999</ele>
        <time>2017-06-21T10:27:37Z</time>
      </trkpt>
      <trkpt lat="63.121703993529081" lon="8.330347007140517">
        <ele>106.84</ele>
        <time>2017-06-21T10:27:51Z</time>
      </trkpt>
      <trkpt lat="63.122542016208172" lon="8.337343968451023">
        <ele>110.20999999999999</ele>
        <time>2017-06-21T10:28:07Z</time>
      </trkpt>
      <trkpt lat="63.123335028067231" lon="8.343904986977577">
        <ele>115.5</ele>
        <time>2017-06-21T10:28:22Z</time>
      </trkpt>
      <trkpt lat="63.123792009428144" lon="8.34777700714767">
        <ele>108.77</ele>
        <time>2017-06-21T10:28:31Z</time>
      </trkpt>
      <trkpt lat="63.124654004350305" lon="8.355003967881203">
        <ele>101.08</ele>
        <time>2017-06-21T10:28:46Z</time>
      </trkpt>
      <trkpt lat="63.125929981470108" lon="8.365656025707722">
        <ele>86.659999999999997</ele>
        <time>2017-06-21T10:29:07Z</time>
      </trkpt>
      <trkpt lat="63.126647975295782" lon="8.371746987104416">
        <ele>79.930000000000007</ele>
        <time>2017-06-21T10:29:20Z</time>
      </trkpt>
      <trkpt lat="63.127317018806934" lon="8.374752989038825">
        <ele>73.680000000000007</ele>
        <time>2017-06-21T10:29:27Z</time>
      </trkpt>
      <trkpt lat="63.128583021461964" lon="8.378059985116124">
        <ele>69.349999999999994</ele>
        <time>2017-06-21T10:29:36Z</time>
      </trkpt>
      <trkpt lat="63.129824968054891" lon="8.381858998909593">
        <ele>57.82</ele>
        <time>2017-06-21T10:29:46Z</time>
      </trkpt>
      <trkpt lat="63.130879998207092" lon="8.385427007451654">
        <ele>52.049999999999997</ele>
        <time>2017-06-21T10:29:54Z</time>
      </trkpt>
      <trkpt lat="63.131938967853785" lon="8.388367965817452">
        <ele>42.920000000000002</ele>
        <time>2017-06-21T10:30:02Z</time>
      </trkpt>
      <trkpt lat="63.132055979222059" lon="8.388724029064179">
        <ele>42.439999999999998</ele>
        <time>2017-06-21T10:30:03Z</time>
      </trkpt>
      <trkpt lat="63.132982011884451" lon="8.392148958519101">
        <ele>35.710000000000001</ele>
        <time>2017-06-21T10:30:12Z</time>
      </trkpt>
      <trkpt lat="63.133944002911448" lon="8.39650503359735">
        <ele>27.050000000000001</ele>
        <time>2017-06-21T10:30:23Z</time>
      </trkpt>
      <trkpt lat="63.13414198346436" lon="8.398076975718141">
        <ele>27.530000000000001</ele>
        <time>2017-06-21T10:30:27Z</time>
      </trkpt>
      <trkpt lat="63.134154975414276" lon="8.39841996319592">
        <ele>27.530000000000001</ele>
        <time>2017-06-21T10:30:28Z</time>
      </trkpt>
      <trkpt lat="63.134149024263024" lon="8.398776026442647">
        <ele>26.09</ele>
        <time>2017-06-21T10:30:29Z</time>
      </trkpt>
      <trkpt lat="63.134115999564528" lon="8.399141980335116">
        <ele>25.609999999999999</ele>
        <time>2017-06-21T10:30:30Z</time>
      </trkpt>
      <trkpt lat="63.134051961824298" lon="8.399506006389856">
        <ele>24.649999999999999</ele>
        <time>2017-06-21T10:30:31Z</time>
      </trkpt>
      <trkpt lat="63.133976021781564" lon="8.399849999696016">
        <ele>24.649999999999999</ele>
        <time>2017-06-21T10:30:32Z</time>
      </trkpt>
      <trkpt lat="63.133879965171218" lon="8.400192987173796">
        <ele>23.210000000000001</ele>
        <time>2017-06-21T10:30:33Z</time>
      </trkpt>
      <trkpt lat="63.133761025965214" lon="8.400522982701659">
        <ele>21.77</ele>
        <time>2017-06-21T10:30:34Z</time>
      </trkpt>
      <trkpt lat="63.13356296159327" lon="8.401225972920656">
        <ele>21.77</ele>
        <time>2017-06-21T10:30:36Z</time>
      </trkpt>
      <trkpt lat="63.133491966873407" lon="8.401589998975396">
        <ele>21.77</ele>
        <time>2017-06-21T10:30:37Z</time>
      </trkpt>
      <trkpt lat="63.133441004902124" lon="8.40196299366653">
        <ele>22.73</ele>
        <time>2017-06-21T10:30:38Z</time>
      </trkpt>
      <trkpt lat="63.133407980203629" lon="8.40235099196434">
        <ele>23.690000000000001</ele>
        <time>2017-06-21T10:30:39Z</time>
      </trkpt>
      <trkpt lat="63.133400017395616" lon="8.402753993868828">
        <ele>24.649999999999999</ele>
        <time>2017-06-21T10:30:40Z</time>
      </trkpt>
      <trkpt lat="63.133402029052377" lon="8.403158001601696">
        <ele>25.609999999999999</ele>
        <time>2017-06-21T10:30:41Z</time>
      </trkpt>
      <trkpt lat="63.133519040420651" lon="8.405265966430306">
        <ele>26.57</ele>
        <time>2017-06-21T10:30:47Z</time>
      </trkpt>
      <trkpt lat="63.133572014048696" lon="8.405578024685383">
        <ele>26.09</ele>
        <time>2017-06-21T10:30:48Z</time>
      </trkpt>
      <trkpt lat="63.133647032082081" lon="8.405886981636286">
        <ele>26.09</ele>
        <time>2017-06-21T10:30:49Z</time>
      </trkpt>
      <trkpt lat="63.133736969903111" lon="8.406205996870995">
        <ele>26.09</ele>
        <time>2017-06-21T10:30:50Z</time>
      </trkpt>
      <trkpt lat="63.133849035948515" lon="8.406530041247606">
        <ele>26.09</ele>
        <time>2017-06-21T10:30:51Z</time>
      </trkpt>
      <trkpt lat="63.133975015953183" lon="8.406844027340412">
        <ele>26.09</ele>
        <time>2017-06-21T10:30:52Z</time>
      </trkpt>
      <trkpt lat="63.134115999564528" lon="8.407153990119696">
        <ele>26.09</ele>
        <time>2017-06-21T10:30:53Z</time>
      </trkpt>
      <trkpt lat="63.134268969297409" lon="8.407438974827528">
        <ele>26.09</ele>
        <time>2017-06-21T10:30:54Z</time>
      </trkpt>
      <trkpt lat="63.134429985657334" lon="8.407714990898967">
        <ele>26.09</ele>
        <time>2017-06-21T10:30:55Z</time>
      </trkpt>
      <trkpt lat="63.136205021291971" lon="8.410964990034699">
        <ele>28.5</ele>
        <time>2017-06-21T10:31:05Z</time>
      </trkpt>
      <trkpt lat="63.137400029227138" lon="8.413859009742737">
        <ele>33.299999999999997</ele>
        <time>2017-06-21T10:31:13Z</time>
      </trkpt>
      <trkpt lat="63.137486027553678" lon="8.414291013032198">
        <ele>33.299999999999997</ele>
        <time>2017-06-21T10:31:14Z</time>
      </trkpt>
      <trkpt lat="63.137559033930302" lon="8.414735002443194">
        <ele>33.780000000000001</ele>
        <time>2017-06-21T10:31:15Z</time>
      </trkpt>
      <trkpt lat="63.138120034709573" lon="8.418980017304421">
        <ele>26.09</ele>
        <time>2017-06-21T10:31:24Z</time>
      </trkpt>
      <trkpt lat="63.138739038258791" lon="8.421831037849188">
        <ele>27.530000000000001</ele>
        <time>2017-06-21T10:31:30Z</time>
      </trkpt>
      <trkpt lat="63.13946801237762" lon="8.424641992896795">
        <ele>28.98</ele>
        <time>2017-06-21T10:31:37Z</time>
      </trkpt>
      <trkpt lat="63.139521991834044" lon="8.425015993416309">
        <ele>29.460000000000001</ele>
        <time>2017-06-21T10:31:38Z</time>
      </trkpt>
      <trkpt lat="63.139549987390637" lon="8.425377001985908">
        <ele>29.460000000000001</ele>
        <time>2017-06-21T10:31:39Z</time>
      </trkpt>
      <trkpt lat="63.139549987390637" lon="8.425743961706758">
        <ele>29.460000000000001</ele>
        <time>2017-06-21T10:31:40Z</time>
      </trkpt>
      <trkpt lat="63.139526015147567" lon="8.426106981933117">
        <ele>29.460000000000001</ele>
        <time>2017-06-21T10:31:41Z</time>
      </trkpt>
      <trkpt lat="63.139475975185633" lon="8.426462961360812">
        <ele>28.98</ele>
        <time>2017-06-21T10:31:42Z</time>
      </trkpt>
      <trkpt lat="63.139400035142899" lon="8.426807038486004">
        <ele>27.530000000000001</ele>
        <time>2017-06-21T10:31:43Z</time>
      </trkpt>
      <trkpt lat="63.139314958825707" lon="8.427135022357106">
        <ele>26.57</ele>
        <time>2017-06-21T10:31:44Z</time>
      </trkpt>
      <trkpt lat="63.139213034883142" lon="8.427456971257925">
        <ele>25.129999999999999</ele>
        <time>2017-06-21T10:31:45Z</time>
      </trkpt>
      <trkpt lat="63.13910398632288" lon="8.427764000371099">
        <ele>24.649999999999999</ele>
        <time>2017-06-21T10:31:46Z</time>
      </trkpt>
      <trkpt lat="63.13856603577733" lon="8.42881802469492">
        <ele>20.32</ele>
        <time>2017-06-21T10:31:50Z</time>
      </trkpt>
      <trkpt lat="63.136423034593463" lon="8.431959981098771">
        <ele>5.42</ele>
        <time>2017-06-21T10:32:04Z</time>
      </trkpt>
      <trkpt lat="63.136101001873612" lon="8.432862963527441">
        <ele>3.02</ele>
        <time>2017-06-21T10:32:07Z</time>
      </trkpt>
      <trkpt lat="63.136019026860595" lon="8.433207040652633">
        <ele>2.54</ele>
        <time>2017-06-21T10:32:08Z</time>
      </trkpt>
      <trkpt lat="63.135964041575789" lon="8.433561008423567">
        <ele>2.54</ele>
        <time>2017-06-21T10:32:09Z</time>
      </trkpt>
      <trkpt lat="63.135920958593488" lon="8.433921011164784">
        <ele>2.54</ele>
        <time>2017-06-21T10:32:10Z</time>
      </trkpt>
      <trkpt lat="63.135892041027546" lon="8.434285037219524">
        <ele>3.02</ele>
        <time>2017-06-21T10:32:11Z</time>
      </trkpt>
      <trkpt lat="63.135620970278978" lon="8.438141969963908">
        <ele>14.08</ele>
        <time>2017-06-21T10:32:21Z</time>
      </trkpt>
      <trkpt lat="63.135406980291009" lon="8.44140999019146">
        <ele>12.15</ele>
        <time>2017-06-21T10:32:29Z</time>
      </trkpt>
      <trkpt lat="63.135360041633248" lon="8.444746993482113">
        <ele>18.879999999999999</ele>
        <time>2017-06-21T10:32:37Z</time>
      </trkpt>
      <trkpt lat="63.135747034102678" lon="8.447915017604828">
        <ele>28.5</ele>
        <time>2017-06-21T10:32:43Z</time>
      </trkpt>
      <trkpt lat="63.135834038257599" lon="8.448733007535338">
        <ele>30.899999999999999</ele>
        <time>2017-06-21T10:32:45Z</time>
      </trkpt>
      <trkpt lat="63.135852981358767" lon="8.449143972247839">
        <ele>32.340000000000003</ele>
        <time>2017-06-21T10:32:46Z</time>
      </trkpt>
      <trkpt lat="63.135848036035895" lon="8.449563989415765">
        <ele>33.780000000000001</ele>
        <time>2017-06-21T10:32:47Z</time>
      </trkpt>
      <trkpt lat="63.135820040479302" lon="8.449989035725594">
        <ele>35.229999999999997</ele>
        <time>2017-06-21T10:32:48Z</time>
      </trkpt>
      <trkpt lat="63.13577301800251" lon="8.450383991003037">
        <ele>36.670000000000002</ele>
        <time>2017-06-21T10:32:49Z</time>
      </trkpt>
      <trkpt lat="63.135718032717705" lon="8.450724966824055">
        <ele>37.149999999999999</ele>
        <time>2017-06-21T10:32:50Z</time>
      </trkpt>
      <trkpt lat="63.135653994977474" lon="8.451039958745241">
        <ele>37.149999999999999</ele>
        <time>2017-06-21T10:32:51Z</time>
      </trkpt>
      <trkpt lat="63.135578976944089" lon="8.451370960101485">
        <ele>37.149999999999999</ele>
        <time>2017-06-21T10:32:52Z</time>
      </trkpt>
      <trkpt lat="63.134798035025597" lon="8.454561028629541">
        <ele>28.5</ele>
        <time>2017-06-21T10:33:00Z</time>
      </trkpt>
      <trkpt lat="63.133722972124815" lon="8.458879971876741">
        <ele>17.920000000000002</ele>
        <time>2017-06-21T10:33:11Z</time>
      </trkpt>
      <trkpt lat="63.132950998842716" lon="8.462352007627487">
        <ele>7.83</ele>
        <time>2017-06-21T10:33:20Z</time>
      </trkpt>
      <trkpt lat="63.132533999159932" lon="8.465708959847689">
        <ele>3.02</ele>
        <time>2017-06-21T10:33:28Z</time>
      </trkpt>
      <trkpt lat="63.132560988888144" lon="8.46925500780344">
        <ele>0.14</ele>
        <time>2017-06-21T10:33:37Z</time>
      </trkpt>
      <trkpt lat="63.132801968604326" lon="8.471807967871428">
        <ele>-0.34</ele>
        <time>2017-06-21T10:33:45Z</time>
      </trkpt>
      <trkpt lat="63.133085025474429" lon="8.473548972979188">
        <ele>1.58</ele>
        <time>2017-06-21T10:33:55Z</time>
      </trkpt>
      <trkpt lat="63.133202958852053" lon="8.474113997071981">
        <ele>2.06</ele>
        <time>2017-06-21T10:34:05Z</time>
      </trkpt>
      <trkpt lat="63.133352994918823" lon="8.47466703504324">
        <ele>3.02</ele>
        <time>2017-06-21T10:34:47Z</time>
      </trkpt>
      <trkpt lat="63.133981972932816" lon="8.476619012653828">
        <ele>8.310000000000001</ele>
        <time>2017-06-21T10:34:56Z</time>
      </trkpt>
      <trkpt lat="63.135000038892031" lon="8.478680960834026">
        <ele>13.6</ele>
        <time>2017-06-21T10:35:04Z</time>
      </trkpt>
      <trkpt lat="63.136018021032214" lon="8.481355039402843">
        <ele>17.920000000000002</ele>
        <time>2017-06-21T10:35:13Z</time>
      </trkpt>
      <trkpt lat="63.136430997401476" lon="8.483733991160989">
        <ele>19.84</ele>
        <time>2017-06-21T10:35:20Z</time>
      </trkpt>
      <trkpt lat="63.137038014829159" lon="8.488454008474946">
        <ele>29.940000000000001</ele>
        <time>2017-06-21T10:35:33Z</time>
      </trkpt>
      <trkpt lat="63.137358035892248" lon="8.491305029019713">
        <ele>30.899999999999999</ele>
        <time>2017-06-21T10:35:42Z</time>
      </trkpt>
      <trkpt lat="63.137446967884898" lon="8.494226038455963">
        <ele>23.210000000000001</ele>
        <time>2017-06-21T10:35:51Z</time>
      </trkpt>
      <trkpt lat="63.137440010905266" lon="8.49484303034842">
        <ele>22.25</ele>
        <time>2017-06-21T10:35:53Z</time>
      </trkpt>
      <trkpt lat="63.137415032833815" lon="8.495118962600827">
        <ele>21.77</ele>
        <time>2017-06-21T10:35:54Z</time>
      </trkpt>
      <trkpt lat="63.137372033670545" lon="8.495373018085957">
        <ele>20.809999999999999</ele>
        <time>2017-06-21T10:35:55Z</time>
      </trkpt>
      <trkpt lat="63.137307995930314" lon="8.49559597671032">
        <ele>20.32</ele>
        <time>2017-06-21T10:35:56Z</time>
      </trkpt>
      <trkpt lat="63.137218980118632" lon="8.495777025818825">
        <ele>18.879999999999999</ele>
        <time>2017-06-21T10:35:57Z</time>
      </trkpt>
      <trkpt lat="63.137117978185415" lon="8.495923038572073">
        <ele>18.399999999999999</ele>
        <time>2017-06-21T10:35:58Z</time>
      </trkpt>
      <trkpt lat="63.137002978473902" lon="8.496015993878245">
        <ele>17.920000000000002</ele>
        <time>2017-06-21T10:35:59Z</time>
      </trkpt>
      <trkpt lat="63.136879010125995" lon="8.496030997484922">
        <ele>19.359999999999999</ele>
        <time>2017-06-21T10:36:00Z</time>
      </trkpt>
      <trkpt lat="63.136754035949707" lon="8.49600400775671">
        <ele>19.359999999999999</ele>
        <time>2017-06-21T10:36:01Z</time>
      </trkpt>
      <trkpt lat="63.13663300126791" lon="8.495923038572073">
        <ele>19.84</ele>
        <time>2017-06-21T10:36:02Z</time>
      </trkpt>
      <trkpt lat="63.13652697019279" lon="8.49576897919178">
        <ele>19.84</ele>
        <time>2017-06-21T10:36:03Z</time>
      </trkpt>
      <trkpt lat="63.136428985744715" lon="8.495581978932023">
        <ele>19.359999999999999</ele>
        <time>2017-06-21T10:36:04Z</time>
      </trkpt>
      <trkpt lat="63.136342987418175" lon="8.495350973680615">
        <ele>18.399999999999999</ele>
        <time>2017-06-21T10:36:05Z</time>
      </trkpt>
      <trkpt lat="63.136264029890299" lon="8.495106976479292">
        <ele>16.960000000000001</ele>
        <time>2017-06-21T10:36:06Z</time>
      </trkpt>
      <trkpt lat="63.136097984388471" lon="8.494596015661955">
        <ele>14.08</ele>
        <time>2017-06-21T10:36:08Z</time>
      </trkpt>
      <trkpt lat="63.135992037132382" lon="8.494399962946773">
        <ele>13.119999999999999</ele>
        <time>2017-06-21T10:36:09Z</time>
      </trkpt>
      <trkpt lat="63.135874019935727" lon="8.494234001263976">
        <ele>11.67</ele>
        <time>2017-06-21T10:36:10Z</time>
      </trkpt>
      <trkpt lat="63.135746028274298" lon="8.494124030694366">
        <ele>11.19</ele>
        <time>2017-06-21T10:36:11Z</time>
      </trkpt>
      <trkpt lat="63.135610995814204" lon="8.494066027924418">
        <ele>10.710000000000001</ele>
        <time>2017-06-21T10:36:12Z</time>
      </trkpt>
      <trkpt lat="63.135461965575814" lon="8.494085976853967">
        <ele>10.23</ele>
        <time>2017-06-21T10:36:13Z</time>
      </trkpt>
      <trkpt lat="63.135316958650947" lon="8.494131993502379">
        <ele>10.710000000000001</ele>
        <time>2017-06-21T10:36:14Z</time>
      </trkpt>
      <trkpt lat="63.135177986696362" lon="8.494214974343777">
        <ele>11.67</ele>
        <time>2017-06-21T10:36:15Z</time>
      </trkpt>
      <trkpt lat="63.13504102639854" lon="8.494353024289012">
        <ele>12.630000000000001</ele>
        <time>2017-06-21T10:36:16Z</time>
      </trkpt>
      <trkpt lat="63.13491496257484" lon="8.494529966264963">
        <ele>14.08</ele>
        <time>2017-06-21T10:36:17Z</time>
      </trkpt>
      <trkpt lat="63.134803986176848" lon="8.494752002879977">
        <ele>15.039999999999999</ele>
        <time>2017-06-21T10:36:18Z</time>
      </trkpt>
      <trkpt lat="63.134707007557154" lon="8.495002035051584">
        <ele>16</ele>
        <time>2017-06-21T10:36:19Z</time>
      </trkpt>
      <trkpt lat="63.134620003402233" lon="8.495276961475611">
        <ele>16.960000000000001</ele>
        <time>2017-06-21T10:36:20Z</time>
      </trkpt>
      <trkpt lat="63.134546997025609" lon="8.495558006688952">
        <ele>17.440000000000001</ele>
        <time>2017-06-21T10:36:21Z</time>
      </trkpt>
      <trkpt lat="63.134478013962507" lon="8.49585103802383">
        <ele>18.879999999999999</ele>
        <time>2017-06-21T10:36:22Z</time>
      </trkpt>
      <trkpt lat="63.133730012923479" lon="8.499179994687438">
        <ele>20.32</ele>
        <time>2017-06-21T10:36:32Z</time>
      </trkpt>
      <trkpt lat="63.133229026570916" lon="8.501328025013208">
        <ele>14.56</ele>
        <time>2017-06-21T10:36:39Z</time>
      </trkpt>
      <trkpt lat="63.133140010759234" lon="8.501562969759107">
        <ele>14.08</ele>
        <time>2017-06-21T10:36:40Z</time>
      </trkpt>
      <trkpt lat="63.133041020482779" lon="8.501777965575457">
        <ele>13.119999999999999</ele>
        <time>2017-06-21T10:36:41Z</time>
      </trkpt>
      <trkpt lat="63.13291696831584" lon="8.501963037997484">
        <ele>12.15</ele>
        <time>2017-06-21T10:36:42Z</time>
      </trkpt>
      <trkpt lat="63.132796017453074" lon="8.502131011337042">
        <ele>11.19</ele>
        <time>2017-06-21T10:36:43Z</time>
      </trkpt>
      <trkpt lat="63.132432997226715" lon="8.502598972991109">
        <ele>8.310000000000001</ele>
        <time>2017-06-21T10:36:46Z</time>
      </trkpt>
      <trkpt lat="63.132313974201679" lon="8.502803994342685">
        <ele>7.83</ele>
        <time>2017-06-21T10:36:47Z</time>
      </trkpt>
      <trkpt lat="63.132208026945591" lon="8.503041034564376">
        <ele>6.87</ele>
        <time>2017-06-21T10:36:48Z</time>
      </trkpt>
      <trkpt lat="63.132103001698852" lon="8.503298023715615">
        <ele>5.91</ele>
        <time>2017-06-21T10:36:49Z</time>
      </trkpt>
      <trkpt lat="63.132009962573647" lon="8.503553001210094">
        <ele>4.46</ele>
        <time>2017-06-21T10:36:50Z</time>
      </trkpt>
      <trkpt lat="63.131920024752617" lon="8.503830023109913">
        <ele>3.98</ele>
        <time>2017-06-21T10:36:51Z</time>
      </trkpt>
      <trkpt lat="63.131150985136628" lon="8.505885014310479">
        <ele>0.14</ele>
        <time>2017-06-21T10:36:59Z</time>
      </trkpt>
      <trkpt lat="63.130525024607778" lon="8.508158018812537">
        <ele>-1.3</ele>
        <time>2017-06-21T10:37:06Z</time>
      </trkpt>
      <trkpt lat="63.130314974114299" lon="8.511101994663477">
        <ele>0.62</ele>
        <time>2017-06-21T10:37:14Z</time>
      </trkpt>
      <trkpt lat="63.130072988569736" lon="8.514983989298344">
        <ele>2.06</ele>
        <time>2017-06-21T10:37:25Z</time>
      </trkpt>
      <trkpt lat="63.129986990243196" lon="8.517025988548994">
        <ele>2.06</ele>
        <time>2017-06-21T10:37:31Z</time>
      </trkpt>
      <trkpt lat="63.130008028820157" lon="8.517385991290212">
        <ele>2.06</ele>
        <time>2017-06-21T10:37:32Z</time>
      </trkpt>
      <trkpt lat="63.130042981356382" lon="8.517744988203049">
        <ele>2.54</ele>
        <time>2017-06-21T10:37:33Z</time>
      </trkpt>
      <trkpt lat="63.130096038803458" lon="8.518101973459125">
        <ele>2.54</ele>
        <time>2017-06-21T10:37:34Z</time>
      </trkpt>
      <trkpt lat="63.130163010209799" lon="8.518452001735568">
        <ele>2.54</ele>
        <time>2017-06-21T10:37:35Z</time>
      </trkpt>
      <trkpt lat="63.130244985222816" lon="8.518790965899825">
        <ele>2.54</ele>
        <time>2017-06-21T10:37:36Z</time>
      </trkpt>
      <trkpt lat="63.13033701851964" lon="8.51912297308445">
        <ele>3.02</ele>
        <time>2017-06-21T10:37:37Z</time>
      </trkpt>
      <trkpt lat="63.130441037937999" lon="8.519450034946203">
        <ele>2.54</ele>
        <time>2017-06-21T10:37:38Z</time>
      </trkpt>
      <trkpt lat="63.131635962054133" lon="8.522601965814829">
        <ele>-0.34</ele>
        <time>2017-06-21T10:37:48Z</time>
      </trkpt>
      <trkpt lat="63.131784992292523" lon="8.522851997986436">
        <ele>-0.34</ele>
        <time>2017-06-21T10:37:49Z</time>
      </trkpt>
      <trkpt lat="63.13194802030921" lon="8.523069005459547">
        <ele>-0.82</ele>
        <time>2017-06-21T10:37:50Z</time>
      </trkpt>
      <trkpt lat="63.13212102279067" lon="8.523252988234162">
        <ele>-0.34</ele>
        <time>2017-06-21T10:37:51Z</time>
      </trkpt>
      <trkpt lat="63.132303999736905" lon="8.523391038179398">
        <ele>-0.82</ele>
        <time>2017-06-21T10:37:52Z</time>
      </trkpt>
      <trkpt lat="63.132490999996662" lon="8.523488016799092">
        <ele>-0.82</ele>
        <time>2017-06-21T10:37:53Z</time>
      </trkpt>
      <trkpt lat="63.132681017741561" lon="8.523537972941995">
        <ele>-0.82</ele>
        <time>2017-06-21T10:37:54Z</time>
      </trkpt>
      <trkpt lat="63.13287396915257" lon="8.523538978770375">
        <ele>-0.34</ele>
        <time>2017-06-21T10:37:55Z</time>
      </trkpt>
      <trkpt lat="63.133063986897469" lon="8.523506037890911">
        <ele>0.14</ele>
        <time>2017-06-21T10:37:56Z</time>
      </trkpt>
      <trkpt lat="63.133254004642367" lon="8.523430014029145">
        <ele>0.62</ele>
        <time>2017-06-21T10:37:57Z</time>
      </trkpt>
      <trkpt lat="63.133437987416983" lon="8.52333202958107">
        <ele>1.1</ele>
        <time>2017-06-21T10:37:58Z</time>
      </trkpt>
      <trkpt lat="63.134555965662003" lon="8.522799024358392">
        <ele>1.1</ele>
        <time>2017-06-21T10:38:04Z</time>
      </trkpt>
      <trkpt lat="63.134751012548804" lon="8.522814027965069">
        <ele>1.1</ele>
        <time>2017-06-21T10:38:05Z</time>
      </trkpt>
      <trkpt lat="63.134949998930097" lon="8.522867001593113">
        <ele>1.1</ele>
        <time>2017-06-21T10:38:06Z</time>
      </trkpt>
      <trkpt lat="63.13514999113977" lon="8.52296800352633">
        <ele>1.1</ele>
        <time>2017-06-21T10:38:07Z</time>
      </trkpt>
      <trkpt lat="63.135350989177823" lon="8.523106975480914">
        <ele>0.62</ele>
        <time>2017-06-21T10:38:08Z</time>
      </trkpt>
      <trkpt lat="63.136620009317994" lon="8.524716971442103">
        <ele>3.02</ele>
        <time>2017-06-21T10:38:15Z</time>
      </trkpt>
      <trkpt lat="63.13787997700274" lon="8.527456009760499">
        <ele>4.94</ele>
        <time>2017-06-21T10:38:24Z</time>
      </trkpt>
      <trkpt lat="63.139780992642045" lon="8.531750980764628">
        <ele>3.98</ele>
        <time>2017-06-21T10:38:38Z</time>
      </trkpt>
      <trkpt lat="63.141201976686716" lon="8.53295898064971">
        <ele>0.62</ele>
        <time>2017-06-21T10:38:46Z</time>
      </trkpt>
      <trkpt lat="63.142279973253608" lon="8.534454982727766">
        <ele>1.58</ele>
        <time>2017-06-21T10:38:53Z</time>
      </trkpt>
      <trkpt lat="63.142875004559755" lon="8.536670990288258">
        <ele>5.42</ele>
        <time>2017-06-21T10:38:59Z</time>
      </trkpt>
      <trkpt lat="63.14327297732234" lon="8.540578968822956">
        <ele>12.15</ele>
        <time>2017-06-21T10:39:08Z</time>
      </trkpt>
      <trkpt lat="63.143964987248182" lon="8.544509997591376">
        <ele>16</ele>
        <time>2017-06-21T10:39:17Z</time>
      </trkpt>
      <trkpt lat="63.144171014428139" lon="8.547873990610242">
        <ele>18.879999999999999</ele>
        <time>2017-06-21T10:39:24Z</time>
      </trkpt>
      <trkpt lat="63.144246032461524" lon="8.548325020819902">
        <ele>18.879999999999999</ele>
        <time>2017-06-21T10:39:25Z</time>
      </trkpt>
      <trkpt lat="63.144333958625793" lon="8.548760041594505">
        <ele>19.359999999999999</ele>
        <time>2017-06-21T10:39:26Z</time>
      </trkpt>
      <trkpt lat="63.144444013014436" lon="8.549173017963767">
        <ele>19.359999999999999</ele>
        <time>2017-06-21T10:39:27Z</time>
      </trkpt>
      <trkpt lat="63.144568987190723" lon="8.549563027918339">
        <ele>18.879999999999999</ele>
        <time>2017-06-21T10:39:28Z</time>
      </trkpt>
      <trkpt lat="63.14471298828721" lon="8.549929987639189">
        <ele>19.359999999999999</ele>
        <time>2017-06-21T10:39:29Z</time>
      </trkpt>
      <trkpt lat="63.144866963848472" lon="8.550283033400774">
        <ele>18.879999999999999</ele>
        <time>2017-06-21T10:39:30Z</time>
      </trkpt>
      <trkpt lat="63.1452920101583" lon="8.55139103718102">
        <ele>18.879999999999999</ele>
        <time>2017-06-21T10:39:33Z</time>
      </trkpt>
      <trkpt lat="63.14539804123342" lon="8.551798984408379">
        <ele>18.879999999999999</ele>
        <time>2017-06-21T10:39:34Z</time>
      </trkpt>
      <trkpt lat="63.145479010418057" lon="8.552225958555937">
        <ele>19.359999999999999</ele>
        <time>2017-06-21T10:39:35Z</time>
      </trkpt>
      <trkpt lat="63.145538019016385" lon="8.552656034007669">
        <ele>19.84</ele>
        <time>2017-06-21T10:39:36Z</time>
      </trkpt>
      <trkpt lat="63.14557196572423" lon="8.55308803729713">
        <ele>19.84</ele>
        <time>2017-06-21T10:39:37Z</time>
      </trkpt>
      <trkpt lat="63.145582024008036" lon="8.553520040586591">
        <ele>20.32</ele>
        <time>2017-06-21T10:39:38Z</time>
      </trkpt>
      <trkpt lat="63.145570959895849" lon="8.55394802056253">
        <ele>20.809999999999999</ele>
        <time>2017-06-21T10:39:39Z</time>
      </trkpt>
      <trkpt lat="63.145536007359624" lon="8.55437801219523">
        <ele>21.77</ele>
        <time>2017-06-21T10:39:40Z</time>
      </trkpt>
      <trkpt lat="63.145480016246438" lon="8.554797023534775">
        <ele>22.25</ele>
        <time>2017-06-21T10:39:41Z</time>
      </trkpt>
      <trkpt lat="63.145409021526575" lon="8.555202959105372">
        <ele>22.73</ele>
        <time>2017-06-21T10:39:42Z</time>
      </trkpt>
      <trkpt lat="63.145322017371655" lon="8.555600009858608">
        <ele>23.210000000000001</ele>
        <time>2017-06-21T10:39:43Z</time>
      </trkpt>
      <trkpt lat="63.145224032923579" lon="8.555994965136051">
        <ele>23.210000000000001</ele>
        <time>2017-06-21T10:39:44Z</time>
      </trkpt>
      <trkpt lat="63.144262963905931" lon="8.56003001332283">
        <ele>19.84</ele>
        <time>2017-06-21T10:39:54Z</time>
      </trkpt>
      <trkpt lat="63.144218036904931" lon="8.560451036319137">
        <ele>19.359999999999999</ele>
        <time>2017-06-21T10:39:55Z</time>
      </trkpt>
      <trkpt lat="63.144192975014448" lon="8.560883039608598">
        <ele>19.359999999999999</ele>
        <time>2017-06-21T10:39:56Z</time>
      </trkpt>
      <trkpt lat="63.144192975014448" lon="8.561314959079027">
        <ele>18.879999999999999</ele>
        <time>2017-06-21T10:39:57Z</time>
      </trkpt>
      <trkpt lat="63.144209990277886" lon="8.561756014823914">
        <ele>18.879999999999999</ele>
        <time>2017-06-21T10:39:58Z</time>
      </trkpt>
      <trkpt lat="63.144251983612776" lon="8.562193969264627">
        <ele>18.399999999999999</ele>
        <time>2017-06-21T10:39:59Z</time>
      </trkpt>
      <trkpt lat="63.144317027181387" lon="8.562621027231216">
        <ele>17.920000000000002</ele>
        <time>2017-06-21T10:40:00Z</time>
      </trkpt>
      <trkpt lat="63.144402019679546" lon="8.563031991943717">
        <ele>17.440000000000001</ele>
        <time>2017-06-21T10:40:01Z</time>
      </trkpt>
      <trkpt lat="63.144503021612763" lon="8.563437005504966">
        <ele>16.48</ele>
        <time>2017-06-21T10:40:02Z</time>
      </trkpt>
      <trkpt lat="63.144613998010755" lon="8.563839001581073">
        <ele>16</ele>
        <time>2017-06-21T10:40:03Z</time>
      </trkpt>
      <trkpt lat="63.14565503038466" lon="8.567154966294766">
        <ele>8.789999999999999</ele>
        <time>2017-06-21T10:40:12Z</time>
      </trkpt>
      <trkpt lat="63.145813029259443" lon="8.567438023164868">
        <ele>7.83</ele>
        <time>2017-06-21T10:40:13Z</time>
      </trkpt>
      <trkpt lat="63.145983014255762" lon="8.567683026194572">
        <ele>7.35</ele>
        <time>2017-06-21T10:40:14Z</time>
      </trkpt>
      <trkpt lat="63.146165991201997" lon="8.5678939986974">
        <ele>6.87</ele>
        <time>2017-06-21T10:40:15Z</time>
      </trkpt>
      <trkpt lat="63.146353997290134" lon="8.568059038370848">
        <ele>6.87</ele>
        <time>2017-06-21T10:40:16Z</time>
      </trkpt>
      <trkpt lat="63.146549966186285" lon="8.568199016153812">
        <ele>6.39</ele>
        <time>2017-06-21T10:40:17Z</time>
      </trkpt>
      <trkpt lat="63.146749958395958" lon="8.568316027522087">
        <ele>5.91</ele>
        <time>2017-06-21T10:40:18Z</time>
      </trkpt>
      <trkpt lat="63.146955985575914" lon="8.568396996706724">
        <ele>5.91</ele>
        <time>2017-06-21T10:40:19Z</time>
      </trkpt>
      <trkpt lat="63.147165030241013" lon="8.568433960899711">
        <ele>5.42</ele>
        <time>2017-06-21T10:40:20Z</time>
      </trkpt>
      <trkpt lat="63.147372985258698" lon="8.568416023626924">
        <ele>5.91</ele>
        <time>2017-06-21T10:40:21Z</time>
      </trkpt>
      <trkpt lat="63.147574989125133" lon="8.568347962573171">
        <ele>5.42</ele>
        <time>2017-06-21T10:40:22Z</time>
      </trkpt>
      <trkpt lat="63.147774981334805" lon="8.568249978125095">
        <ele>5.91</ele>
        <time>2017-06-21T10:40:23Z</time>
      </trkpt>
      <trkpt lat="63.147972961887717" lon="8.568141013383865">
        <ele>6.39</ele>
        <time>2017-06-21T10:40:24Z</time>
      </trkpt>
      <trkpt lat="63.150353003293276" lon="8.566790018230677">
        <ele>20.32</ele>
        <time>2017-06-21T10:40:37Z</time>
      </trkpt>
      <trkpt lat="63.15051200799644" lon="8.566800998523831">
        <ele>21.289999999999999</ele>
        <time>2017-06-21T10:40:38Z</time>
      </trkpt>
      <trkpt lat="63.150667995214462" lon="8.566852966323495">
        <ele>22.25</ele>
        <time>2017-06-21T10:40:39Z</time>
      </trkpt>
      <trkpt lat="63.150819959118962" lon="8.566952962428331">
        <ele>23.210000000000001</ele>
        <time>2017-06-21T10:40:40Z</time>
      </trkpt>
      <trkpt lat="63.150955997407436" lon="8.567114984616637">
        <ele>24.170000000000002</ele>
        <time>2017-06-21T10:40:41Z</time>
      </trkpt>
      <trkpt lat="63.151081977412105" lon="8.56731103733182">
        <ele>24.649999999999999</ele>
        <time>2017-06-21T10:40:42Z</time>
      </trkpt>
      <trkpt lat="63.151204017922282" lon="8.567530978471041">
        <ele>25.129999999999999</ele>
        <time>2017-06-21T10:40:43Z</time>
      </trkpt>
      <trkpt lat="63.151471987366676" lon="8.567909002304077">
        <ele>26.57</ele>
        <time>2017-06-21T10:40:45Z</time>
      </trkpt>
      <trkpt lat="63.151625040918589" lon="8.568039005622268">
        <ele>27.050000000000001</ele>
        <time>2017-06-21T10:40:46Z</time>
      </trkpt>
      <trkpt lat="63.151786979287863" lon="8.56810798868537">
        <ele>27.530000000000001</ele>
        <time>2017-06-21T10:40:47Z</time>
      </trkpt>
      <trkpt lat="63.151955958455801" lon="8.56808896176517">
        <ele>28.98</ele>
        <time>2017-06-21T10:40:48Z</time>
      </trkpt>
      <trkpt lat="63.152117980644107" lon="8.568015033379197">
        <ele>29.940000000000001</ele>
        <time>2017-06-21T10:40:49Z</time>
      </trkpt>
      <trkpt lat="63.152260975912213" lon="8.567901039496064">
        <ele>30.420000000000002</ele>
        <time>2017-06-21T10:40:50Z</time>
      </trkpt>
      <trkpt lat="63.152385028079152" lon="8.567737005650997">
        <ele>31.379999999999999</ele>
        <time>2017-06-21T10:40:51Z</time>
      </trkpt>
      <trkpt lat="63.152500027790666" lon="8.567533995956183">
        <ele>31.859999999999999</ele>
        <time>2017-06-21T10:40:52Z</time>
      </trkpt>
      <trkpt lat="63.152612010017037" lon="8.56729201041162">
        <ele>32.340000000000003</ele>
        <time>2017-06-21T10:40:53Z</time>
      </trkpt>
      <trkpt lat="63.152717035263777" lon="8.567017000168562">
        <ele>33.299999999999997</ele>
        <time>2017-06-21T10:40:54Z</time>
      </trkpt>
      <trkpt lat="63.152818037196994" lon="8.56671198271215">
        <ele>33.780000000000001</ele>
        <time>2017-06-21T10:40:55Z</time>
      </trkpt>
      <trkpt lat="63.153828978538513" lon="8.563383026048541">
        <ele>43.880000000000003</ele>
        <time>2017-06-21T10:41:05Z</time>
      </trkpt>
      <trkpt lat="63.153946995735168" lon="8.563142968341708">
        <ele>44.840000000000003</ele>
        <time>2017-06-21T10:41:06Z</time>
      </trkpt>
      <trkpt lat="63.154082028195262" lon="8.562944987788796">
        <ele>45.32</ele>
        <time>2017-06-21T10:41:07Z</time>
      </trkpt>
      <trkpt lat="63.15423097461462" lon="8.562779026106">
        <ele>46.759999999999998</ele>
        <time>2017-06-21T10:41:08Z</time>
      </trkpt>
      <trkpt lat="63.154389979317784" lon="8.5626529622823">
        <ele>47.719999999999999</ele>
        <time>2017-06-21T10:41:09Z</time>
      </trkpt>
      <trkpt lat="63.154546972364187" lon="8.56254399754107">
        <ele>50.609999999999999</ele>
        <time>2017-06-21T10:41:10Z</time>
      </trkpt>
      <trkpt lat="63.154712012037635" lon="8.562493035569787">
        <ele>53.490000000000002</ele>
        <time>2017-06-21T10:41:11Z</time>
      </trkpt>
      <trkpt lat="63.154880991205573" lon="8.56245799921453">
        <ele>55.890000000000001</ele>
        <time>2017-06-21T10:41:12Z</time>
      </trkpt>
      <trkpt lat="63.155053993687034" lon="8.562445007264614">
        <ele>57.82</ele>
        <time>2017-06-21T10:41:13Z</time>
      </trkpt>
      <trkpt lat="63.156618978828192" lon="8.562476020306349">
        <ele>74.640000000000001</ele>
        <time>2017-06-21T10:41:22Z</time>
      </trkpt>
      <trkpt lat="63.156773960217834" lon="8.562402008101344">
        <ele>76.560000000000002</ele>
        <time>2017-06-21T10:41:23Z</time>
      </trkpt>
      <trkpt lat="63.156911004334688" lon="8.562273010611534">
        <ele>78</ele>
        <time>2017-06-21T10:41:24Z</time>
      </trkpt>
      <trkpt lat="63.157040001824498" lon="8.562080981209874">
        <ele>79.930000000000007</ele>
        <time>2017-06-21T10:41:25Z</time>
      </trkpt>
      <trkpt lat="63.157159024849534" lon="8.561849975958467">
        <ele>81.370000000000005</ele>
        <time>2017-06-21T10:41:26Z</time>
      </trkpt>
      <trkpt lat="63.157278969883919" lon="8.561588041484356">
        <ele>83.290000000000006</ele>
        <time>2017-06-21T10:41:27Z</time>
      </trkpt>
      <trkpt lat="63.157749027013779" lon="8.560453969985247">
        <ele>89.540000000000006</ele>
        <time>2017-06-21T10:41:31Z</time>
      </trkpt>
      <trkpt lat="63.157881963998079" lon="8.56022397056222">
        <ele>90.5</ele>
        <time>2017-06-21T10:41:32Z</time>
      </trkpt>
      <trkpt lat="63.158022025600076" lon="8.560034958645701">
        <ele>91.459999999999994</ele>
        <time>2017-06-21T10:41:33Z</time>
      </trkpt>
      <trkpt lat="63.158166026696563" lon="8.559889029711485">
        <ele>91.939999999999998</ele>
        <time>2017-06-21T10:41:34Z</time>
      </trkpt>
      <trkpt lat="63.158346991986036" lon="8.559823986142874">
        <ele>92.900000000000006</ele>
        <time>2017-06-21T10:41:35Z</time>
      </trkpt>
      <trkpt lat="63.158521000295877" lon="8.559808982536197">
        <ele>93.870000000000005</ele>
        <time>2017-06-21T10:41:36Z</time>
      </trkpt>
      <trkpt lat="63.158671036362648" lon="8.55990001000464">
        <ele>94.349999999999994</ele>
        <time>2017-06-21T10:41:37Z</time>
      </trkpt>
      <trkpt lat="63.15880699083209" lon="8.560144007205963">
        <ele>94.829999999999998</ele>
        <time>2017-06-21T10:41:38Z</time>
      </trkpt>
      <trkpt lat="63.158957026898861" lon="8.560340981930494">
        <ele>94.349999999999994</ele>
        <time>2017-06-21T10:41:39Z</time>
      </trkpt>
      <trkpt lat="63.159079989418387" lon="8.560572993010283">
        <ele>94.349999999999994</ele>
        <time>2017-06-21T10:41:40Z</time>
      </trkpt>
      <trkpt lat="63.159181997179985" lon="8.560856971889734">
        <ele>93.870000000000005</ele>
        <time>2017-06-21T10:41:41Z</time>
      </trkpt>
      <trkpt lat="63.159274030476809" lon="8.561197025701404">
        <ele>93.390000000000001</ele>
        <time>2017-06-21T10:41:42Z</time>
      </trkpt>
      <trkpt lat="63.15985900349915" lon="8.563279006630182">
        <ele>90.019999999999996</ele>
        <time>2017-06-21T10:41:47Z</time>
      </trkpt>
      <trkpt lat="63.160855025053024" lon="8.566495981067419">
        <ele>85.209999999999994</ele>
        <time>2017-06-21T10:41:53Z</time>
      </trkpt>
      <trkpt lat="63.161890022456646" lon="8.569839019328356">
        <ele>84.25</ele>
        <time>2017-06-21T10:42:00Z</time>
      </trkpt>
      <trkpt lat="63.162171989679337" lon="8.57051401399076">
        <ele>85.689999999999998</ele>
        <time>2017-06-21T10:42:02Z</time>
      </trkpt>
      <trkpt lat="63.162316996604204" lon="8.570791035890579">
        <ele>85.689999999999998</ele>
        <time>2017-06-21T10:42:03Z</time>
      </trkpt>
      <trkpt lat="63.163451990112662" lon="8.573184991255403">
        <ele>89.060000000000002</ele>
        <time>2017-06-21T10:42:11Z</time>
      </trkpt>
      <trkpt lat="63.164553036913276" lon="8.57623097486794">
        <ele>83.769999999999996</ele>
        <time>2017-06-21T10:42:19Z</time>
      </trkpt>
      <trkpt lat="63.164915973320603" lon="8.57728399336338">
        <ele>82.810000000000002</ele>
        <time>2017-06-21T10:42:22Z</time>
      </trkpt>
      <trkpt lat="63.165010018274188" lon="8.577675009146333">
        <ele>82.329999999999998</ele>
        <time>2017-06-21T10:42:23Z</time>
      </trkpt>
      <trkpt lat="63.165662968531251" lon="8.580429973080754">
        <ele>78.480000000000004</ele>
        <time>2017-06-21T10:42:30Z</time>
      </trkpt>
      <trkpt lat="63.165816022083163" lon="8.581166993826628">
        <ele>77.040000000000006</ele>
        <time>2017-06-21T10:42:32Z</time>
      </trkpt>
      <trkpt lat="63.166173007339239" lon="8.584498967975378">
        <ele>67.430000000000007</ele>
        <time>2017-06-21T10:42:39Z</time>
      </trkpt>
      <trkpt lat="63.166677011176944" lon="8.589051011949778">
        <ele>58.299999999999997</ele>
        <time>2017-06-21T10:42:47Z</time>
      </trkpt>
      <trkpt lat="63.167445966973901" lon="8.594549959525466">
        <ele>48.68</ele>
        <time>2017-06-21T10:42:58Z</time>
      </trkpt>
      <trkpt lat="63.167919041588902" lon="8.599220020696521">
        <ele>38.590000000000003</ele>
        <time>2017-06-21T10:43:07Z</time>
      </trkpt>
      <trkpt lat="63.168350039049983" lon="8.604018995538354">
        <ele>37.149999999999999</ele>
        <time>2017-06-21T10:43:17Z</time>
      </trkpt>
      <trkpt lat="63.168636029586196" lon="8.610795009881258">
        <ele>20.32</ele>
        <time>2017-06-21T10:43:31Z</time>
      </trkpt>
      <trkpt lat="63.169261990115047" lon="8.614643979817629">
        <ele>17.440000000000001</ele>
        <time>2017-06-21T10:43:39Z</time>
      </trkpt>
      <trkpt lat="63.169970009475946" lon="8.618249036371708">
        <ele>17.920000000000002</ele>
        <time>2017-06-21T10:43:47Z</time>
      </trkpt>
      <trkpt lat="63.17045196890831" lon="8.622260028496385">
        <ele>19.359999999999999</ele>
        <time>2017-06-21T10:43:56Z</time>
      </trkpt>
      <trkpt lat="63.171012969687581" lon="8.627861989662051">
        <ele>20.809999999999999</ele>
        <time>2017-06-21T10:44:08Z</time>
      </trkpt>
      <trkpt lat="63.171687964349985" lon="8.630963964387775">
        <ele>16.960000000000001</ele>
        <time>2017-06-21T10:44:15Z</time>
      </trkpt>
      <trkpt lat="63.172707036137581" lon="8.634542031213641">
        <ele>12.15</ele>
        <time>2017-06-21T10:44:24Z</time>
      </trkpt>
      <trkpt lat="63.17296402528882" lon="8.637594971805811">
        <ele>9.75</ele>
        <time>2017-06-21T10:44:30Z</time>
      </trkpt>
      <trkpt lat="63.172997971996665" lon="8.641731021925807">
        <ele>1.1</ele>
        <time>2017-06-21T10:44:38Z</time>
      </trkpt>
      <trkpt lat="63.17341698333621" lon="8.645544033497572">
        <ele>0.14</ele>
        <time>2017-06-21T10:44:45Z</time>
      </trkpt>
      <trkpt lat="63.174259029328823" lon="8.649891978129745">
        <ele>8.789999999999999</ele>
        <time>2017-06-21T10:44:54Z</time>
      </trkpt>
      <trkpt lat="63.175723012536764" lon="8.655034024268389">
        <ele>9.75</ele>
        <time>2017-06-21T10:45:06Z</time>
      </trkpt>
      <trkpt lat="63.175895009189844" lon="8.655407018959522">
        <ele>10.710000000000001</ele>
        <time>2017-06-21T10:45:07Z</time>
      </trkpt>
      <trkpt lat="63.177030002698302" lon="8.658079002052546">
        <ele>20.809999999999999</ele>
        <time>2017-06-21T10:45:14Z</time>
      </trkpt>
      <trkpt lat="63.177774986252189" lon="8.661928977817297">
        <ele>31.379999999999999</ele>
        <time>2017-06-21T10:45:22Z</time>
      </trkpt>
      <trkpt lat="63.177967015653849" lon="8.663925966247916">
        <ele>33.780000000000001</ele>
        <time>2017-06-21T10:45:26Z</time>
      </trkpt>
      <trkpt lat="63.178054019808769" lon="8.664399040862918">
        <ele>34.259999999999998</ele>
        <time>2017-06-21T10:45:27Z</time>
      </trkpt>
      <trkpt lat="63.178161978721619" lon="8.664859039708972">
        <ele>34.740000000000002</ele>
        <time>2017-06-21T10:45:28Z</time>
      </trkpt>
      <trkpt lat="63.178289970383048" lon="8.665297999978066">
        <ele>35.710000000000001</ele>
        <time>2017-06-21T10:45:29Z</time>
      </trkpt>
      <trkpt lat="63.178433971479535" lon="8.66571499966085">
        <ele>36.189999999999998</ele>
        <time>2017-06-21T10:45:30Z</time>
      </trkpt>
      <trkpt lat="63.178589958697557" lon="8.666108027100563">
        <ele>36.670000000000002</ele>
        <time>2017-06-21T10:45:31Z</time>
      </trkpt>
      <trkpt lat="63.178752986714244" lon="8.666480015963316">
        <ele>37.149999999999999</ele>
        <time>2017-06-21T10:45:32Z</time>
      </trkpt>
      <trkpt lat="63.179890997707844" lon="8.669580984860659">
        <ele>39.07</ele>
        <time>2017-06-21T10:45:40Z</time>
      </trkpt>
      <trkpt lat="63.180151004344225" lon="8.672175016254187">
        <ele>34.740000000000002</ele>
        <time>2017-06-21T10:45:45Z</time>
      </trkpt>
      <trkpt lat="63.180114040151238" lon="8.67607100866735">
        <ele>28.02</ele>
        <time>2017-06-21T10:45:52Z</time>
      </trkpt>
      <trkpt lat="63.18048301152885" lon="8.67914498783648">
        <ele>25.129999999999999</ele>
        <time>2017-06-21T10:45:58Z</time>
      </trkpt>
      <trkpt lat="63.180749975144863" lon="8.682801006361842">
        <ele>26.09</ele>
        <time>2017-06-21T10:46:05Z</time>
      </trkpt>
      <trkpt lat="63.181474003940821" lon="8.688190989196301">
        <ele>22.73</ele>
        <time>2017-06-21T10:46:15Z</time>
      </trkpt>
      <trkpt lat="63.181926961988211" lon="8.692776979878545">
        <ele>21.77</ele>
        <time>2017-06-21T10:46:24Z</time>
      </trkpt>
      <trkpt lat="63.182107005268335" lon="8.696431992575526">
        <ele>17.920000000000002</ele>
        <time>2017-06-21T10:46:31Z</time>
      </trkpt>
      <trkpt lat="63.182715028524399" lon="8.699238002300263">
        <ele>15.039999999999999</ele>
        <time>2017-06-21T10:46:37Z</time>
      </trkpt>
      <trkpt lat="63.183345012366772" lon="8.702288009226322">
        <ele>10.710000000000001</ele>
        <time>2017-06-21T10:46:44Z</time>
      </trkpt>
      <trkpt lat="63.183550033718348" lon="8.7056789919734">
        <ele>6.87</ele>
        <time>2017-06-21T10:46:50Z</time>
      </trkpt>
      <trkpt lat="63.183910958468914" lon="8.709148010239005">
        <ele>15.039999999999999</ele>
        <time>2017-06-21T10:46:56Z</time>
      </trkpt>
      <trkpt lat="63.184670023620129" lon="8.713701982051134">
        <ele>21.289999999999999</ele>
        <time>2017-06-21T10:47:05Z</time>
      </trkpt>
      <trkpt lat="63.185286009684205" lon="8.717572996392846">
        <ele>17.440000000000001</ele>
        <time>2017-06-21T10:47:13Z</time>
      </trkpt>
      <trkpt lat="63.18542598746717" lon="8.721843995153904">
        <ele>10.710000000000001</ele>
        <time>2017-06-21T10:47:21Z</time>
      </trkpt>
      <trkpt lat="63.185070008039474" lon="8.726828964427114">
        <ele>4.46</ele>
        <time>2017-06-21T10:47:30Z</time>
      </trkpt>
      <trkpt lat="63.184900023043156" lon="8.730327989906073">
        <ele>4.46</ele>
        <time>2017-06-21T10:47:36Z</time>
      </trkpt>
      <trkpt lat="63.184614032506943" lon="8.733443040400744">
        <ele>1.58</ele>
        <time>2017-06-21T10:47:42Z</time>
      </trkpt>
      <trkpt lat="63.184501966461539" lon="8.733914019539952">
        <ele>0.62</ele>
        <time>2017-06-21T10:47:43Z</time>
      </trkpt>
      <trkpt lat="63.184371963143349" lon="8.734371000900865">
        <ele>-0.82</ele>
        <time>2017-06-21T10:47:44Z</time>
      </trkpt>
      <trkpt lat="63.184228967875242" lon="8.734799986705184">
        <ele>-1.79</ele>
        <time>2017-06-21T10:47:45Z</time>
      </trkpt>
      <trkpt lat="63.18407298065722" lon="8.735217992216349">
        <ele>-2.27</ele>
        <time>2017-06-21T10:47:46Z</time>
      </trkpt>
      <trkpt lat="63.183910036459565" lon="8.735613031312823">
        <ele>-2.75</ele>
        <time>2017-06-21T10:47:47Z</time>
      </trkpt>
      <trkpt lat="63.181917993351817" lon="8.740767985582352">
        <ele>-2.27</ele>
        <time>2017-06-21T10:48:00Z</time>
      </trkpt>
      <trkpt lat="63.181679025292397" lon="8.743573995307088">
        <ele>-4.67</ele>
        <time>2017-06-21T10:48:06Z</time>
      </trkpt>
      <trkpt lat="63.182033998891711" lon="8.746434990316629">
        <ele>-0.82</ele>
        <time>2017-06-21T10:48:12Z</time>
      </trkpt>
      <trkpt lat="63.183152982965112" lon="8.751088036224246">
        <ele>11.19</ele>
        <time>2017-06-21T10:48:22Z</time>
      </trkpt>
      <trkpt lat="63.184060994535685" lon="8.756796028465033">
        <ele>15.039999999999999</ele>
        <time>2017-06-21T10:48:33Z</time>
      </trkpt>
      <trkpt lat="63.184143975377083" lon="8.760076034814119">
        <ele>12.15</ele>
        <time>2017-06-21T10:48:39Z</time>
      </trkpt>
      <trkpt lat="63.184128971770406" lon="8.76463201828301">
        <ele>7.35</ele>
        <time>2017-06-21T10:48:47Z</time>
      </trkpt>
      <trkpt lat="63.184554018080235" lon="8.767716977745295">
        <ele>8.310000000000001</ele>
        <time>2017-06-21T10:48:53Z</time>
      </trkpt>
      <trkpt lat="63.185067996382713" lon="8.772504972293973">
        <ele>5.42</ele>
        <time>2017-06-21T10:49:02Z</time>
      </trkpt>
      <trkpt lat="63.185305958613753" lon="8.777461024001241">
        <ele>-0.34</ele>
        <time>2017-06-21T10:49:11Z</time>
      </trkpt>
      <trkpt lat="63.18572798743844" lon="8.781096003949642">
        <ele>-3.71</ele>
        <time>2017-06-21T10:49:18Z</time>
      </trkpt>
      <trkpt lat="63.186718979850411" lon="8.784383973106742">
        <ele>-0.82</ele>
        <time>2017-06-21T10:49:25Z</time>
      </trkpt>
      <trkpt lat="63.18735801614821" lon="8.786665024235845">
        <ele>1.58</ele>
        <time>2017-06-21T10:49:30Z</time>
      </trkpt>
      <trkpt lat="63.187436973676085" lon="8.787158969789743">
        <ele>2.06</ele>
        <time>2017-06-21T10:49:31Z</time>
      </trkpt>
      <trkpt lat="63.187497993931174" lon="8.787674959748983">
        <ele>2.06</ele>
        <time>2017-06-21T10:49:32Z</time>
      </trkpt>
      <trkpt lat="63.187534958124161" lon="8.788205031305552">
        <ele>2.06</ele>
        <time>2017-06-21T10:49:33Z</time>
      </trkpt>
      <trkpt lat="63.187550967559218" lon="8.78874097019434">
        <ele>2.06</ele>
        <time>2017-06-21T10:49:34Z</time>
      </trkpt>
      <trkpt lat="63.187541998922825" lon="8.789284033700824">
        <ele>1.58</ele>
        <time>2017-06-21T10:49:35Z</time>
      </trkpt>
      <trkpt lat="63.187514003366232" lon="8.789834976196289">
        <ele>1.58</ele>
        <time>2017-06-21T10:49:36Z</time>
      </trkpt>
      <trkpt lat="63.187463963404298" lon="8.790378961712122">
        <ele>1.1</ele>
        <time>2017-06-21T10:49:37Z</time>
      </trkpt>
      <trkpt lat="63.187395986169577" lon="8.790918001905084">
        <ele>1.1</ele>
        <time>2017-06-21T10:49:38Z</time>
      </trkpt>
      <trkpt lat="63.187066996470094" lon="8.79488498903811">
        <ele>-0.34</ele>
        <time>2017-06-21T10:49:45Z</time>
      </trkpt>
      <trkpt lat="63.187138997018337" lon="8.801690004765987">
        <ele>3.5</ele>
        <time>2017-06-21T10:49:57Z</time>
      </trkpt>
      <trkpt lat="63.18772598169744" lon="8.805307969450951">
        <ele>10.23</ele>
        <time>2017-06-21T10:50:04Z</time>
      </trkpt>
      <trkpt lat="63.188846977427602" lon="8.808852005749941">
        <ele>21.77</ele>
        <time>2017-06-21T10:50:12Z</time>
      </trkpt>
      <trkpt lat="63.188957031816244" lon="8.809320973232389">
        <ele>23.210000000000001</ele>
        <time>2017-06-21T10:50:13Z</time>
      </trkpt>
      <trkpt lat="63.189041018486023" lon="8.809799998998642">
        <ele>24.649999999999999</ele>
        <time>2017-06-21T10:50:14Z</time>
      </trkpt>
      <trkpt lat="63.189101032912731" lon="8.810298973694444">
        <ele>25.609999999999999</ele>
        <time>2017-06-21T10:50:15Z</time>
      </trkpt>
      <trkpt lat="63.189135985448956" lon="8.810819992795587">
        <ele>26.57</ele>
        <time>2017-06-21T10:50:16Z</time>
      </trkpt>
      <trkpt lat="63.189146965742111" lon="8.811356015503407">
        <ele>27.530000000000001</ele>
        <time>2017-06-21T10:50:17Z</time>
      </trkpt>
      <trkpt lat="63.189133973792195" lon="8.811900001019239">
        <ele>28.02</ele>
        <time>2017-06-21T10:50:18Z</time>
      </trkpt>
      <trkpt lat="63.189090974628925" lon="8.812435017898679">
        <ele>28.5</ele>
        <time>2017-06-21T10:50:19Z</time>
      </trkpt>
      <trkpt lat="63.189020985737443" lon="8.812957964837551">
        <ele>28.5</ele>
        <time>2017-06-21T10:50:20Z</time>
      </trkpt>
      <trkpt lat="63.188929958269" lon="8.81346900947392">
        <ele>28.5</ele>
        <time>2017-06-21T10:50:21Z</time>
      </trkpt>
      <trkpt lat="63.188819987699389" lon="8.813974019140005">
        <ele>28.98</ele>
        <time>2017-06-21T10:50:22Z</time>
      </trkpt>
      <trkpt lat="63.188510024920106" lon="8.815516959875822">
        <ele>28.5</ele>
        <time>2017-06-21T10:50:25Z</time>
      </trkpt>
      <trkpt lat="63.188449004665017" lon="8.8160499650985">
        <ele>28.5</ele>
        <time>2017-06-21T10:50:26Z</time>
      </trkpt>
      <trkpt lat="63.18841396830976" lon="8.816586993634701">
        <ele>28.5</ele>
        <time>2017-06-21T10:50:27Z</time>
      </trkpt>
      <trkpt lat="63.188407011330128" lon="8.817136008292437">
        <ele>28.02</ele>
        <time>2017-06-21T10:50:28Z</time>
      </trkpt>
      <trkpt lat="63.188430983573198" lon="8.817667001858354">
        <ele>28.02</ele>
        <time>2017-06-21T10:50:29Z</time>
      </trkpt>
      <trkpt lat="63.188482029363513" lon="8.818190032616258">
        <ele>27.050000000000001</ele>
        <time>2017-06-21T10:50:30Z</time>
      </trkpt>
      <trkpt lat="63.188557969406247" lon="8.818709962069988">
        <ele>26.57</ele>
        <time>2017-06-21T10:50:31Z</time>
      </trkpt>
      <trkpt lat="63.188656959682703" lon="8.819201979786158">
        <ele>25.609999999999999</ele>
        <time>2017-06-21T10:50:32Z</time>
      </trkpt>
      <trkpt lat="63.188774976879358" lon="8.819676982238889">
        <ele>25.129999999999999</ele>
        <time>2017-06-21T10:50:33Z</time>
      </trkpt>
      <trkpt lat="63.188901962712407" lon="8.820146033540368">
        <ele>24.649999999999999</ele>
        <time>2017-06-21T10:50:34Z</time>
      </trkpt>
      <trkpt lat="63.190713040530682" lon="8.826178992167115">
        <ele>17.920000000000002</ele>
        <time>2017-06-21T10:50:47Z</time>
      </trkpt>
      <trkpt lat="63.191261971369386" lon="8.82921801880002">
        <ele>14.08</ele>
        <time>2017-06-21T10:50:53Z</time>
      </trkpt>
      <trkpt lat="63.191319974139333" lon="8.832589974626899">
        <ele>9.75</ele>
        <time>2017-06-21T10:50:59Z</time>
      </trkpt>
      <trkpt lat="63.190800966694951" lon="8.835859000682831">
        <ele>6.39</ele>
        <time>2017-06-21T10:51:05Z</time>
      </trkpt>
      <trkpt lat="63.189769992604852" lon="8.839144958183169">
        <ele>6.87</ele>
        <time>2017-06-21T10:51:12Z</time>
      </trkpt>
      <trkpt lat="63.189662033692002" lon="8.839644016698003">
        <ele>6.87</ele>
        <time>2017-06-21T10:51:13Z</time>
      </trkpt>
      <trkpt lat="63.189578969031572" lon="8.840169981122017">
        <ele>7.35</ele>
        <time>2017-06-21T10:51:14Z</time>
      </trkpt>
      <trkpt lat="63.189522977918386" lon="8.84071396663785">
        <ele>7.35</ele>
        <time>2017-06-21T10:51:15Z</time>
      </trkpt>
      <trkpt lat="63.189497999846935" lon="8.841259963810444">
        <ele>7.83</ele>
        <time>2017-06-21T10:51:16Z</time>
      </trkpt>
      <trkpt lat="63.189503028988838" lon="8.84180897846818">
        <ele>8.310000000000001</ele>
        <time>2017-06-21T10:51:17Z</time>
      </trkpt>
      <trkpt lat="63.189533036202192" lon="8.842356987297535">
        <ele>7.83</ele>
        <time>2017-06-21T10:51:18Z</time>
      </trkpt>
      <trkpt lat="63.189588021486998" lon="8.842898039147258">
        <ele>7.83</ele>
        <time>2017-06-21T10:51:19Z</time>
      </trkpt>
      <trkpt lat="63.189668990671635" lon="8.843431966379285">
        <ele>7.83</ele>
        <time>2017-06-21T10:51:20Z</time>
      </trkpt>
      <trkpt lat="63.189777033403516" lon="8.84393597021699">
        <ele>7.35</ele>
        <time>2017-06-21T10:51:21Z</time>
      </trkpt>
      <trkpt lat="63.189904019236565" lon="8.844416001811624">
        <ele>6.87</ele>
        <time>2017-06-21T10:51:22Z</time>
      </trkpt>
      <trkpt lat="63.190046008676291" lon="8.844885975122452">
        <ele>6.39</ele>
        <time>2017-06-21T10:51:23Z</time>
      </trkpt>
      <trkpt lat="63.190198978409171" lon="8.845340022817254">
        <ele>6.39</ele>
        <time>2017-06-21T10:51:24Z</time>
      </trkpt>
      <trkpt lat="63.191084023565054" lon="8.848808035254479">
        <ele>6.87</ele>
        <time>2017-06-21T10:51:31Z</time>
      </trkpt>
      <trkpt lat="63.19126901216805" lon="8.852230031043291">
        <ele>7.83</ele>
        <time>2017-06-21T10:51:37Z</time>
      </trkpt>
      <trkpt lat="63.191213021054864" lon="8.860037019476295">
        <ele>4.94</ele>
        <time>2017-06-21T10:51:51Z</time>
      </trkpt>
      <trkpt lat="63.191518960520625" lon="8.863090965896845">
        <ele>6.39</ele>
        <time>2017-06-21T10:51:57Z</time>
      </trkpt>
      <trkpt lat="63.192012989893556" lon="8.867060970515013">
        <ele>7.35</ele>
        <time>2017-06-21T10:52:05Z</time>
      </trkpt>
      <trkpt lat="63.192617995664477" lon="8.87055597268045">
        <ele>2.54</ele>
        <time>2017-06-21T10:52:12Z</time>
      </trkpt>
      <trkpt lat="63.193273963406682" lon="8.874344006180763">
        <ele>0.14</ele>
        <time>2017-06-21T10:52:20Z</time>
      </trkpt>
      <trkpt lat="63.1937410030514" lon="8.877668017521501">
        <ele>5.91</ele>
        <time>2017-06-21T10:52:29Z</time>
      </trkpt>
      <trkpt lat="63.194602997973561" lon="8.882550979033113">
        <ele>9.75</ele>
        <time>2017-06-21T10:52:43Z</time>
      </trkpt>
      <trkpt lat="63.195277992635965" lon="8.887629993259907">
        <ele>7.83</ele>
        <time>2017-06-21T10:52:56Z</time>
      </trkpt>
      <trkpt lat="63.195990035310388" lon="8.892137026414275">
        <ele>9.27</ele>
        <time>2017-06-21T10:53:06Z</time>
      </trkpt>
      <trkpt lat="63.196737030521035" lon="8.898010980337858">
        <ele>7.83</ele>
        <time>2017-06-21T10:53:18Z</time>
      </trkpt>
      <trkpt lat="63.196859993040562" lon="8.90293400734663">
        <ele>2.54</ele>
        <time>2017-06-21T10:53:28Z</time>
      </trkpt>
      <trkpt lat="63.196685984730721" lon="8.90656697563827">
        <ele>3.98</ele>
        <time>2017-06-21T10:53:35Z</time>
      </trkpt>
      <trkpt lat="63.196567967534065" lon="8.910717023536563">
        <ele>2.54</ele>
        <time>2017-06-21T10:53:43Z</time>
      </trkpt>
      <trkpt lat="63.196558998897672" lon="8.915140992030501">
        <ele>1.1</ele>
        <time>2017-06-21T10:53:52Z</time>
      </trkpt>
      <trkpt lat="63.196627981960773" lon="8.921290962025523">
        <ele>-3.71</ele>
        <time>2017-06-21T10:54:04Z</time>
      </trkpt>
      <trkpt lat="63.196967029944062" lon="8.92641800455749">
        <ele>-2.75</ele>
        <time>2017-06-21T10:54:14Z</time>
      </trkpt>
      <trkpt lat="63.196949008852243" lon="8.926913039758802">
        <ele>-2.75</ele>
        <time>2017-06-21T10:54:15Z</time>
      </trkpt>
      <trkpt lat="63.196910033002496" lon="8.927400028333068">
        <ele>-2.75</ele>
        <time>2017-06-21T10:54:16Z</time>
      </trkpt>
      <trkpt lat="63.19685404188931" lon="8.92787997610867">
        <ele>-3.23</ele>
        <time>2017-06-21T10:54:17Z</time>
      </trkpt>
      <trkpt lat="63.196517005562782" lon="8.931069038808346">
        <ele>-4.67</ele>
        <time>2017-06-21T10:54:24Z</time>
      </trkpt>
      <trkpt lat="63.196449028328061" lon="8.93148603849113">
        <ele>-4.67</ele>
        <time>2017-06-21T10:54:25Z</time>
      </trkpt>
      <trkpt lat="63.196064969524741" lon="8.934443006291986">
        <ele>-2.27</ele>
        <time>2017-06-21T10:54:32Z</time>
      </trkpt>
      <trkpt lat="63.19612598977983" lon="8.937280029058456">
        <ele>-0.82</ele>
        <time>2017-06-21T10:54:39Z</time>
      </trkpt>
      <trkpt lat="63.196612978354096" lon="8.939838018268347">
        <ele>1.1</ele>
        <time>2017-06-21T10:54:45Z</time>
      </trkpt>
      <trkpt lat="63.197745038196445" lon="8.942732037976384">
        <ele>12.630000000000001</ele>
        <time>2017-06-21T10:54:53Z</time>
      </trkpt>
      <trkpt lat="63.198419027030468" lon="8.944887025281787">
        <ele>15.52</ele>
        <time>2017-06-21T10:54:59Z</time>
      </trkpt>
      <trkpt lat="63.199170967563987" lon="8.948914026841521">
        <ele>16</ele>
        <time>2017-06-21T10:55:08Z</time>
      </trkpt>
      <trkpt lat="63.199461987242103" lon="8.952255975455046">
        <ele>15.52</ele>
        <time>2017-06-21T10:55:15Z</time>
      </trkpt>
      <trkpt lat="63.199452012777328" lon="8.952710023149848">
        <ele>15.039999999999999</ele>
        <time>2017-06-21T10:55:16Z</time>
      </trkpt>
      <trkpt lat="63.199418988078833" lon="8.953164992853999">
        <ele>14.08</ele>
        <time>2017-06-21T10:55:17Z</time>
      </trkpt>
      <trkpt lat="63.19937095977366" lon="8.95361996255815">
        <ele>13.119999999999999</ele>
        <time>2017-06-21T10:55:18Z</time>
      </trkpt>
      <trkpt lat="63.199310023337603" lon="8.954088008031249">
        <ele>11.67</ele>
        <time>2017-06-21T10:55:19Z</time>
      </trkpt>
      <trkpt lat="63.199092010036111" lon="8.955989023670554">
        <ele>9.27</ele>
        <time>2017-06-21T10:55:23Z</time>
      </trkpt>
      <trkpt lat="63.199077006429434" lon="8.95647500641644">
        <ele>9.27</ele>
        <time>2017-06-21T10:55:24Z</time>
      </trkpt>
      <trkpt lat="63.199079018086195" lon="8.956946991384029">
        <ele>8.789999999999999</ele>
        <time>2017-06-21T10:55:25Z</time>
      </trkpt>
      <trkpt lat="63.199095027521253" lon="8.957411013543606">
        <ele>7.83</ele>
        <time>2017-06-21T10:55:26Z</time>
      </trkpt>
      <trkpt lat="63.199137020856142" lon="8.957865983247757">
        <ele>7.35</ele>
        <time>2017-06-21T10:55:27Z</time>
      </trkpt>
      <trkpt lat="63.199203992262483" lon="8.958312990143895">
        <ele>6.87</ele>
        <time>2017-06-21T10:55:28Z</time>
      </trkpt>
      <trkpt lat="63.199289990589023" lon="8.958748010918498">
        <ele>6.39</ele>
        <time>2017-06-21T10:55:29Z</time>
      </trkpt>
      <trkpt lat="63.199389986693859" lon="8.95918202586472">
        <ele>5.91</ele>
        <time>2017-06-21T10:55:30Z</time>
      </trkpt>
      <trkpt lat="63.200473012402654" lon="8.963419999927282">
        <ele>6.87</ele>
        <time>2017-06-21T10:55:40Z</time>
      </trkpt>
      <trkpt lat="63.201273987069726" lon="8.967378018423915">
        <ele>1.58</ele>
        <time>2017-06-21T10:55:49Z</time>
      </trkpt>
      <trkpt lat="63.201512033119798" lon="8.970167012885213">
        <ele>-2.27</ele>
        <time>2017-06-21T10:55:56Z</time>
      </trkpt>
      <trkpt lat="63.201250014826655" lon="8.972885012626648">
        <ele>-6.59</ele>
        <time>2017-06-21T10:56:04Z</time>
      </trkpt>
      <trkpt lat="63.200752967968583" lon="8.976192008703947">
        <ele>-8.029999999999999</ele>
        <time>2017-06-21T10:56:13Z</time>
      </trkpt>
      <trkpt lat="63.200751040130854" lon="8.976592998951674">
        <ele>-7.55</ele>
        <time>2017-06-21T10:56:14Z</time>
      </trkpt>
      <trkpt lat="63.200765959918499" lon="8.9769939891994">
        <ele>-7.55</ele>
        <time>2017-06-21T10:56:15Z</time>
      </trkpt>
      <trkpt lat="63.200794961303473" lon="8.977390034124255">
        <ele>-7.07</ele>
        <time>2017-06-21T10:56:16Z</time>
      </trkpt>
      <trkpt lat="63.200834020972252" lon="8.977783983573318">
        <ele>-7.07</ele>
        <time>2017-06-21T10:56:17Z</time>
      </trkpt>
      <trkpt lat="63.200884982943535" lon="8.978168964385986">
        <ele>-7.07</ele>
        <time>2017-06-21T10:56:18Z</time>
      </trkpt>
      <trkpt lat="63.201371971517801" lon="8.981529017910361">
        <ele>-8.029999999999999</ele>
        <time>2017-06-21T10:56:28Z</time>
      </trkpt>
      <trkpt lat="63.201443972066045" lon="8.98180696181953">
        <ele>-8.029999999999999</ele>
        <time>2017-06-21T10:56:29Z</time>
      </trkpt>
      <trkpt lat="63.201537011191249" lon="8.982059005647898">
        <ele>-8.029999999999999</ele>
        <time>2017-06-21T10:56:30Z</time>
      </trkpt>
      <trkpt lat="63.201644970104098" lon="8.982274001464248">
        <ele>-8.029999999999999</ele>
        <time>2017-06-21T10:56:31Z</time>
      </trkpt>
      <trkpt lat="63.201758963987231" lon="8.982454966753721">
        <ele>-8.029999999999999</ele>
        <time>2017-06-21T10:56:32Z</time>
      </trkpt>
      <trkpt lat="63.20188301615417" lon="8.982617994770408">
        <ele>-8.029999999999999</ele>
        <time>2017-06-21T10:56:33Z</time>
      </trkpt>
      <trkpt lat="63.202008996158838" lon="8.982763001695275">
        <ele>-7.55</ele>
        <time>2017-06-21T10:56:34Z</time>
      </trkpt>
      <trkpt lat="63.203261001035571" lon="8.984158001840115">
        <ele>-6.11</ele>
        <time>2017-06-21T10:56:44Z</time>
      </trkpt>
      <trkpt lat="63.204388031736016" lon="8.986334027722478">
        <ele>-5.63</ele>
        <time>2017-06-21T10:56:55Z</time>
      </trkpt>
      <trkpt lat="63.205599971115589" lon="8.987660966813564">
        <ele>-2.27</ele>
        <time>2017-06-21T10:57:04Z</time>
      </trkpt>
      <trkpt lat="63.205970032140613" lon="8.988448027521372">
        <ele>-1.3</ele>
        <time>2017-06-21T10:57:07Z</time>
      </trkpt>
      <trkpt lat="63.206069022417068" lon="8.988756984472275">
        <ele>-1.3</ele>
        <time>2017-06-21T10:57:08Z</time>
      </trkpt>
      <trkpt lat="63.206145968288183" lon="8.989084968343377">
        <ele>-0.82</ele>
        <time>2017-06-21T10:57:09Z</time>
      </trkpt>
      <trkpt lat="63.206189973279834" lon="8.989430973306298">
        <ele>-0.34</ele>
        <time>2017-06-21T10:57:10Z</time>
      </trkpt>
      <trkpt lat="63.20620296522975" lon="8.989784019067884">
        <ele>0.14</ele>
        <time>2017-06-21T10:57:11Z</time>
      </trkpt>
      <trkpt lat="63.20617999881506" lon="8.990141004323959">
        <ele>0.62</ele>
        <time>2017-06-21T10:57:12Z</time>
      </trkpt>
      <trkpt lat="63.206132976338267" lon="8.990469994023442">
        <ele>1.1</ele>
        <time>2017-06-21T10:57:13Z</time>
      </trkpt>
      <trkpt lat="63.206066004931927" lon="8.990790015086532">
        <ele>2.06</ele>
        <time>2017-06-21T10:57:14Z</time>
      </trkpt>
      <trkpt lat="63.205997021868825" lon="8.991099977865815">
        <ele>2.54</ele>
        <time>2017-06-21T10:57:15Z</time>
      </trkpt>
      <trkpt lat="63.205584967508912" lon="8.99407496675849">
        <ele>13.119999999999999</ele>
        <time>2017-06-21T10:57:24Z</time>
      </trkpt>
      <trkpt lat="63.205494023859501" lon="8.996472023427486">
        <ele>23.690000000000001</ele>
        <time>2017-06-21T10:57:30Z</time>
      </trkpt>
      <trkpt lat="63.205511961132288" lon="8.996851975098252">
        <ele>25.129999999999999</ele>
        <time>2017-06-21T10:57:31Z</time>
      </trkpt>
      <trkpt lat="63.205554960295558" lon="8.997206026688218">
        <ele>27.050000000000001</ele>
        <time>2017-06-21T10:57:32Z</time>
      </trkpt>
      <trkpt lat="63.205624027177691" lon="8.997523030266166">
        <ele>28.5</ele>
        <time>2017-06-21T10:57:33Z</time>
      </trkpt>
      <trkpt lat="63.205710025504231" lon="8.997803991660476">
        <ele>29.460000000000001</ele>
        <time>2017-06-21T10:57:34Z</time>
      </trkpt>
      <trkpt lat="63.205821001902223" lon="8.99805000051856">
        <ele>30.420000000000002</ele>
        <time>2017-06-21T10:57:35Z</time>
      </trkpt>
      <trkpt lat="63.205943964421749" lon="8.998257033526897">
        <ele>30.899999999999999</ele>
        <time>2017-06-21T10:57:36Z</time>
      </trkpt>
      <trkpt lat="63.206078996881843" lon="8.998431963846088">
        <ele>31.859999999999999</ele>
        <time>2017-06-21T10:57:37Z</time>
      </trkpt>
      <trkpt lat="63.20622400380671" lon="8.99858602322638">
        <ele>32.82</ele>
        <time>2017-06-21T10:57:38Z</time>
      </trkpt>
      <trkpt lat="63.206792967393994" lon="8.999265041202307">
        <ele>37.630000000000003</ele>
        <time>2017-06-21T10:57:42Z</time>
      </trkpt>
      <trkpt lat="63.206914002075791" lon="8.999521024525166">
        <ele>39.07</ele>
        <time>2017-06-21T10:57:43Z</time>
      </trkpt>
      <trkpt lat="63.207007041200995" lon="8.999822018668056">
        <ele>40.030000000000001</ele>
        <time>2017-06-21T10:57:44Z</time>
      </trkpt>
      <trkpt lat="63.207077030092478" lon="9.000160982832313">
        <ele>40.509999999999998</ele>
        <time>2017-06-21T10:57:45Z</time>
      </trkpt>
      <trkpt lat="63.207127992063761" lon="9.000508999451995">
        <ele>41.469999999999999</ele>
        <time>2017-06-21T10:57:46Z</time>
      </trkpt>
      <trkpt lat="63.20716897957027" lon="9.000893980264664">
        <ele>41.950000000000003</ele>
        <time>2017-06-21T10:57:47Z</time>
      </trkpt>
      <trkpt lat="63.207502998411655" lon="9.004902960732579">
        <ele>48.68</ele>
        <time>2017-06-21T10:57:58Z</time>
      </trkpt>
      <trkpt lat="63.20762000977993" lon="9.006237024441361">
        <ele>52.530000000000001</ele>
        <time>2017-06-21T10:58:04Z</time>
      </trkpt>
      <trkpt lat="63.207616992294788" lon="9.006357975304127">
        <ele>52.530000000000001</ele>
        <time>2017-06-21T10:58:05Z</time>
      </trkpt>
      <trkpt lat="63.207591008394957" lon="9.006444979459047">
        <ele>53.009999999999998</ele>
        <time>2017-06-21T10:58:06Z</time>
      </trkpt>
      <trkpt lat="63.207559995353222" lon="9.006488984450698">
        <ele>53.009999999999998</ele>
        <time>2017-06-21T10:58:07Z</time>
      </trkpt>
      <trkpt lat="63.207524958997965" lon="9.006483033299446">
        <ele>53.490000000000002</ele>
        <time>2017-06-21T10:58:08Z</time>
      </trkpt>
      <trkpt lat="63.207499980926514" lon="9.006422013044357">
        <ele>53.490000000000002</ele>
        <time>2017-06-21T10:58:09Z</time>
      </trkpt>
      <trkpt lat="63.207481959834695" lon="9.006354035809636">
        <ele>53.490000000000002</ele>
        <time>2017-06-21T10:58:10Z</time>
      </trkpt>
      <trkpt lat="63.207477014511824" lon="9.006270971149206">
        <ele>53.490000000000002</ele>
        <time>2017-06-21T10:58:11Z</time>
      </trkpt>
      <trkpt lat="63.207485983148217" lon="9.006185978651047">
        <ele>53.969999999999999</ele>
        <time>2017-06-21T10:58:12Z</time>
      </trkpt>
      <trkpt lat="63.207475002855062" lon="9.005685998126864">
        <ele>53.009999999999998</ele>
        <time>2017-06-21T10:58:18Z</time>
      </trkpt>
      <trkpt lat="63.207456981763244" lon="9.005656996741891">
        <ele>53.009999999999998</ele>
        <time>2017-06-21T10:58:19Z</time>
      </trkpt>
      <trkpt lat="63.207433009520173" lon="9.005648028105497">
        <ele>53.490000000000002</ele>
        <time>2017-06-21T10:58:20Z</time>
      </trkpt>
      <trkpt lat="63.207418005913496" lon="9.005656996741891">
        <ele>53.490000000000002</ele>
        <time>2017-06-21T10:58:21Z</time>
      </trkpt>
      <trkpt lat="63.207397973164916" lon="9.0056979842484">
        <ele>53.969999999999999</ele>
        <time>2017-06-21T10:58:22Z</time>
      </trkpt>
      <trkpt lat="63.207370983436704" lon="9.005732014775276">
        <ele>54.450000000000003</ele>
        <time>2017-06-21T10:58:23Z</time>
      </trkpt>
      <trkpt lat="63.207360003143549" lon="9.00578498840332">
        <ele>53.969999999999999</ele>
        <time>2017-06-21T10:58:24Z</time>
      </trkpt>
      <trkpt lat="63.207357991486788" lon="9.005818013101816">
        <ele>54.450000000000003</ele>
        <time>2017-06-21T10:58:25Z</time>
      </trkpt>
      <trkpt lat="63.207366960123181" lon="9.005837040022016">
        <ele>53.969999999999999</ele>
        <time>2017-06-21T10:58:45Z</time>
      </trkpt>
      <trkpt lat="63.207371989265084" lon="9.005845002830029">
        <ele>55.409999999999997</ele>
        <time>2017-06-21T11:00:04Z</time>
      </trkpt>
      <trkpt lat="63.207376012578607" lon="9.005849026143551">
        <ele>55.890000000000001</ele>
        <time>2017-06-21T11:01:53Z</time>
      </trkpt>
      <trkpt lat="63.207375006750226" lon="9.005853971466422">
        <ele>56.369999999999997</ele>
        <time>2017-06-21T11:03:34Z</time>
      </trkpt>
      <trkpt lat="63.207375006750226" lon="9.005859000608325">
        <ele>56.859999999999999</ele>
        <time>2017-06-21T11:05:15Z</time>
      </trkpt>
      <trkpt lat="63.207353968173265" lon="9.005793035030365">
        <ele>56.369999999999997</ele>
        <time>2017-06-21T11:11:54Z</time>
      </trkpt>
      <trkpt lat="63.207374000921845" lon="9.00582698173821">
        <ele>59.740000000000002</ele>
        <time>2017-06-21T11:13:22Z</time>
      </trkpt>
      <trkpt lat="63.207375006750226" lon="9.005831005051732">
        <ele>59.740000000000002</ele>
        <time>2017-06-21T11:15:22Z</time>
      </trkpt>
      <trkpt lat="63.207376012578607" lon="9.005837040022016">
        <ele>59.740000000000002</ele>
        <time>2017-06-21T11:16:24Z</time>
      </trkpt>
      <trkpt lat="63.20749101229012" lon="9.0062540397048">
        <ele>60.219999999999999</ele>
        <time>2017-06-21T11:16:32Z</time>
      </trkpt>
      <trkpt lat="63.207655968144536" lon="9.006623011082411">
        <ele>61.18</ele>
        <time>2017-06-21T11:16:38Z</time>
      </trkpt>
      <trkpt lat="63.207678012549877" lon="9.006741028279066">
        <ele>61.659999999999997</ele>
        <time>2017-06-21T11:16:39Z</time>
      </trkpt>
      <trkpt lat="63.207694021984935" lon="9.006882011890411">
        <ele>62.140000000000001</ele>
        <time>2017-06-21T11:16:40Z</time>
      </trkpt>
      <trkpt lat="63.207719000056386" lon="9.00722399353981">
        <ele>63.100000000000001</ele>
        <time>2017-06-21T11:16:42Z</time>
      </trkpt>
      <trkpt lat="63.207914968952537" lon="9.009241014719009">
        <ele>65.030000000000001</ele>
        <time>2017-06-21T11:16:50Z</time>
      </trkpt>
      <trkpt lat="63.208385026082397" lon="9.012518003582954">
        <ele>63.579999999999998</ele>
        <time>2017-06-21T11:16:59Z</time>
      </trkpt>
      <trkpt lat="63.209052979946136" lon="9.015552001073957">
        <ele>59.259999999999998</ele>
        <time>2017-06-21T11:17:07Z</time>
      </trkpt>
      <trkpt lat="63.209567964076996" lon="9.016722030937672">
        <ele>56.859999999999999</ele>
        <time>2017-06-21T11:17:11Z</time>
      </trkpt>
      <trkpt lat="63.209723029285669" lon="9.016945995390415">
        <ele>55.890000000000001</ele>
        <time>2017-06-21T11:17:12Z</time>
      </trkpt>
      <trkpt lat="63.209883961826563" lon="9.017154034227133">
        <ele>55.409999999999997</ele>
        <time>2017-06-21T11:17:13Z</time>
      </trkpt>
      <trkpt lat="63.211240991950035" lon="9.018435962498188">
        <ele>53.009999999999998</ele>
        <time>2017-06-21T11:17:21Z</time>
      </trkpt>
      <trkpt lat="63.211628990247846" lon="9.018828989937902">
        <ele>52.049999999999997</ele>
        <time>2017-06-21T11:17:25Z</time>
      </trkpt>
      <trkpt lat="63.21168196387589" lon="9.018939966335893">
        <ele>51.57</ele>
        <time>2017-06-21T11:17:26Z</time>
      </trkpt>
      <trkpt lat="63.21172202937305" lon="9.019095031544566">
        <ele>51.57</ele>
        <time>2017-06-21T11:17:27Z</time>
      </trkpt>
      <trkpt lat="63.211741978302598" lon="9.019304998219013">
        <ele>51.57</ele>
        <time>2017-06-21T11:17:28Z</time>
      </trkpt>
      <trkpt lat="63.211748013272882" lon="9.019566010683775">
        <ele>51.57</ele>
        <time>2017-06-21T11:17:29Z</time>
      </trkpt>
      <trkpt lat="63.211743989959359" lon="9.019865998998284">
        <ele>51.57</ele>
        <time>2017-06-21T11:17:30Z</time>
      </trkpt>
      <trkpt lat="63.211590014398098" lon="9.022433962672949">
        <ele>51.090000000000003</ele>
        <time>2017-06-21T11:17:37Z</time>
      </trkpt>
      <trkpt lat="63.211052985861897" lon="9.027391020208597">
        <ele>53.490000000000002</ele>
        <time>2017-06-21T11:17:48Z</time>
      </trkpt>
      <trkpt lat="63.210158972069621" lon="9.035574020817876">
        <ele>57.340000000000003</ele>
        <time>2017-06-21T11:18:04Z</time>
      </trkpt>
      <trkpt lat="63.209259007126093" lon="9.044916993007064">
        <ele>65.030000000000001</ele>
        <time>2017-06-21T11:18:22Z</time>
      </trkpt>
      <trkpt lat="63.209362020716071" lon="9.049086989834905">
        <ele>68.390000000000001</ele>
        <time>2017-06-21T11:18:30Z</time>
      </trkpt>
      <trkpt lat="63.209500992670655" lon="9.051612038165331">
        <ele>70.790000000000006</ele>
        <time>2017-06-21T11:18:35Z</time>
      </trkpt>
      <trkpt lat="63.209480959922075" lon="9.05210698954761">
        <ele>71.269999999999996</ele>
        <time>2017-06-21T11:18:36Z</time>
      </trkpt>
      <trkpt lat="63.209367971867323" lon="9.056153018027544">
        <ele>69.349999999999994</ele>
        <time>2017-06-21T11:18:44Z</time>
      </trkpt>
      <trkpt lat="63.209328996017575" lon="9.060752000659704">
        <ele>74.640000000000001</ele>
        <time>2017-06-21T11:18:53Z</time>
      </trkpt>
      <trkpt lat="63.209019033238292" lon="9.069088976830244">
        <ele>83.769999999999996</ele>
        <time>2017-06-21T11:19:09Z</time>
      </trkpt>
      <trkpt lat="63.209095979109406" lon="9.073242964223027">
        <ele>94.349999999999994</ele>
        <time>2017-06-21T11:19:17Z</time>
      </trkpt>
      <trkpt lat="63.209049040451646" lon="9.078320972621441">
        <ele>109.25</ele>
        <time>2017-06-21T11:19:27Z</time>
      </trkpt>
      <trkpt lat="63.209713976830244" lon="9.081055987626314">
        <ele>117.42</ele>
        <time>2017-06-21T11:19:33Z</time>
      </trkpt>
      <trkpt lat="63.210701029747725" lon="9.084521988406777">
        <ele>125.11</ele>
        <time>2017-06-21T11:19:41Z</time>
      </trkpt>
      <trkpt lat="63.211039993911982" lon="9.088084967806935">
        <ele>128.94999999999999</ele>
        <time>2017-06-21T11:19:48Z</time>
      </trkpt>
      <trkpt lat="63.211705014109612" lon="9.09763203933835">
        <ele>141.44999999999999</ele>
        <time>2017-06-21T11:20:06Z</time>
      </trkpt>
      <trkpt lat="63.212607996538281" lon="9.103508004918695">
        <ele>155.87</ele>
        <time>2017-06-21T11:20:18Z</time>
      </trkpt>
      <trkpt lat="63.21337996982038" lon="9.105759970843792">
        <ele>161.16</ele>
        <time>2017-06-21T11:20:24Z</time>
      </trkpt>
      <trkpt lat="63.21367702446878" lon="9.106439994648099">
        <ele>162.12</ele>
        <time>2017-06-21T11:20:26Z</time>
      </trkpt>
      <trkpt lat="63.213800992816687" lon="9.10682899877429">
        <ele>163.08000000000001</ele>
        <time>2017-06-21T11:20:27Z</time>
      </trkpt>
      <trkpt lat="63.213910963386297" lon="9.107251027598977">
        <ele>163.56</ele>
        <time>2017-06-21T11:20:28Z</time>
      </trkpt>
      <trkpt lat="63.214850993826985" lon="9.1112129855901">
        <ele>174.13999999999999</ele>
        <time>2017-06-21T11:20:37Z</time>
      </trkpt>
      <trkpt lat="63.215728998184204" lon="9.11432895809412">
        <ele>170.77000000000001</ele>
        <time>2017-06-21T11:20:44Z</time>
      </trkpt>
      <trkpt lat="63.216395024210215" lon="9.115867037326098">
        <ele>167.88999999999999</ele>
        <time>2017-06-21T11:20:48Z</time>
      </trkpt>
      <trkpt lat="63.216510023921728" lon="9.116294011473656">
        <ele>168.37</ele>
        <time>2017-06-21T11:20:49Z</time>
      </trkpt>
      <trkpt lat="63.216588981449604" lon="9.116745963692665">
        <ele>168.84999999999999</ele>
        <time>2017-06-21T11:20:50Z</time>
      </trkpt>
      <trkpt lat="63.216628963127732" lon="9.117217026650906">
        <ele>170.28999999999999</ele>
        <time>2017-06-21T11:20:51Z</time>
      </trkpt>
      <trkpt lat="63.216627035290003" lon="9.117691023275256">
        <ele>171.25</ele>
        <time>2017-06-21T11:20:52Z</time>
      </trkpt>
      <trkpt lat="63.216584036126733" lon="9.118143981322646">
        <ele>172.21000000000001</ele>
        <time>2017-06-21T11:20:53Z</time>
      </trkpt>
      <trkpt lat="63.216497031971812" lon="9.118562992662191">
        <ele>173.66</ele>
        <time>2017-06-21T11:20:54Z</time>
      </trkpt>
      <trkpt lat="63.216383960098028" lon="9.118959959596396">
        <ele>174.62</ele>
        <time>2017-06-21T11:20:55Z</time>
      </trkpt>
      <trkpt lat="63.216239036992192" lon="9.119299007579684">
        <ele>175.58000000000001</ele>
        <time>2017-06-21T11:20:56Z</time>
      </trkpt>
      <trkpt lat="63.216068968176842" lon="9.11959296092391">
        <ele>176.53999999999999</ele>
        <time>2017-06-21T11:20:57Z</time>
      </trkpt>
      <trkpt lat="63.215884985402226" lon="9.119850033894181">
        <ele>177.97999999999999</ele>
        <time>2017-06-21T11:20:58Z</time>
      </trkpt>
      <trkpt lat="63.215682981535792" lon="9.120080033317208">
        <ele>179.41999999999999</ele>
        <time>2017-06-21T11:20:59Z</time>
      </trkpt>
      <trkpt lat="63.215143019333482" lon="9.120909003540874">
        <ele>182.31</ele>
        <time>2017-06-21T11:21:02Z</time>
      </trkpt>
      <trkpt lat="63.214991977438331" lon="9.12126699462533">
        <ele>183.27000000000001</ele>
        <time>2017-06-21T11:21:03Z</time>
      </trkpt>
      <trkpt lat="63.21485904045403" lon="9.121666979044676">
        <ele>184.71000000000001</ele>
        <time>2017-06-21T11:21:04Z</time>
      </trkpt>
      <trkpt lat="63.214739011600614" lon="9.122095964848995">
        <ele>185.66999999999999</ele>
        <time>2017-06-21T11:21:05Z</time>
      </trkpt>
      <trkpt lat="63.214640021324158" lon="9.122546995058656">
        <ele>187.11000000000001</ele>
        <time>2017-06-21T11:21:06Z</time>
      </trkpt>
      <trkpt lat="63.214571960270405" lon="9.123025014996529">
        <ele>188.56</ele>
        <time>2017-06-21T11:21:07Z</time>
      </trkpt>
      <trkpt lat="63.214539019390941" lon="9.123520972207189">
        <ele>189.52000000000001</ele>
        <time>2017-06-21T11:21:08Z</time>
      </trkpt>
      <trkpt lat="63.214532984420657" lon="9.124030005186796">
        <ele>190.47999999999999</ele>
        <time>2017-06-21T11:21:09Z</time>
      </trkpt>
      <trkpt lat="63.214552011340857" lon="9.124543983489275">
        <ele>191.44</ele>
        <time>2017-06-21T11:21:10Z</time>
      </trkpt>
      <trkpt lat="63.214586041867733" lon="9.125053016468883">
        <ele>192.40000000000001</ele>
        <time>2017-06-21T11:21:11Z</time>
      </trkpt>
      <trkpt lat="63.214637003839016" lon="9.125546962022781">
        <ele>193.36000000000001</ele>
        <time>2017-06-21T11:21:12Z</time>
      </trkpt>
      <trkpt lat="63.214709004387259" lon="9.126005033031106">
        <ele>194.31999999999999</ele>
        <time>2017-06-21T11:21:13Z</time>
      </trkpt>
      <trkpt lat="63.214782010763884" lon="9.126436030492187">
        <ele>194.80000000000001</ele>
        <time>2017-06-21T11:21:14Z</time>
      </trkpt>
      <trkpt lat="63.214831966906786" lon="9.126868033781648">
        <ele>195.28</ele>
        <time>2017-06-21T11:21:15Z</time>
      </trkpt>
      <trkpt lat="63.21483900770545" lon="9.127299031242728">
        <ele>195.77000000000001</ele>
        <time>2017-06-21T11:21:16Z</time>
      </trkpt>
      <trkpt lat="63.214804977178574" lon="9.127709995955229">
        <ele>196.25</ele>
        <time>2017-06-21T11:21:17Z</time>
      </trkpt>
      <trkpt lat="63.214734988287091" lon="9.128103023394942">
        <ele>197.21000000000001</ele>
        <time>2017-06-21T11:21:18Z</time>
      </trkpt>
      <trkpt lat="63.214619988575578" lon="9.128479035571218">
        <ele>198.16999999999999</ele>
        <time>2017-06-21T11:21:19Z</time>
      </trkpt>
      <trkpt lat="63.214486967772245" lon="9.128831997513771">
        <ele>198.65000000000001</ele>
        <time>2017-06-21T11:21:20Z</time>
      </trkpt>
      <trkpt lat="63.214340033009648" lon="9.129182025790215">
        <ele>201.05000000000001</ele>
        <time>2017-06-21T11:21:21Z</time>
      </trkpt>
      <trkpt lat="63.214185973629355" lon="9.12951797246933">
        <ele>202.49000000000001</ele>
        <time>2017-06-21T11:21:22Z</time>
      </trkpt>
      <trkpt lat="63.213065983727574" lon="9.132737964391708">
        <ele>208.25999999999999</ele>
        <time>2017-06-21T11:21:30Z</time>
      </trkpt>
      <trkpt lat="63.212617971003056" lon="9.135152036324143">
        <ele>203.46000000000001</ele>
        <time>2017-06-21T11:21:35Z</time>
      </trkpt>
      <trkpt lat="63.212585030123591" lon="9.135652016848326">
        <ele>202.49000000000001</ele>
        <time>2017-06-21T11:21:36Z</time>
      </trkpt>
      <trkpt lat="63.212578995153308" lon="9.136161971837282">
        <ele>201.05000000000001</ele>
        <time>2017-06-21T11:21:37Z</time>
      </trkpt>
      <trkpt lat="63.212592992931604" lon="9.136680979281664">
        <ele>199.61000000000001</ele>
        <time>2017-06-21T11:21:38Z</time>
      </trkpt>
      <trkpt lat="63.212631968781352" lon="9.137197975069284">
        <ele>198.16999999999999</ele>
        <time>2017-06-21T11:21:39Z</time>
      </trkpt>
      <trkpt lat="63.212695000693202" lon="9.137699967250228">
        <ele>196.72999999999999</ele>
        <time>2017-06-21T11:21:40Z</time>
      </trkpt>
      <trkpt lat="63.212765995413065" lon="9.138187039643526">
        <ele>194.80000000000001</ele>
        <time>2017-06-21T11:21:41Z</time>
      </trkpt>
      <trkpt lat="63.212892981246114" lon="9.139124974608421">
        <ele>191.44</ele>
        <time>2017-06-21T11:21:43Z</time>
      </trkpt>
      <trkpt lat="63.212925000116229" lon="9.13959201425314">
        <ele>190</ele>
        <time>2017-06-21T11:21:44Z</time>
      </trkpt>
      <trkpt lat="63.21292701177299" lon="9.140057964250445">
        <ele>188.56</ele>
        <time>2017-06-21T11:21:45Z</time>
      </trkpt>
      <trkpt lat="63.212889041751623" lon="9.140515029430389">
        <ele>187.59</ele>
        <time>2017-06-21T11:21:46Z</time>
      </trkpt>
      <trkpt lat="63.212810000404716" lon="9.140947032719851">
        <ele>187.11000000000001</ele>
        <time>2017-06-21T11:21:47Z</time>
      </trkpt>
      <trkpt lat="63.212703969329596" lon="9.141351040452719">
        <ele>186.63</ele>
        <time>2017-06-21T11:21:48Z</time>
      </trkpt>
      <trkpt lat="63.212573966011405" lon="9.141734009608626">
        <ele>186.63</ele>
        <time>2017-06-21T11:21:49Z</time>
      </trkpt>
      <trkpt lat="63.212431976571679" lon="9.142094012349844">
        <ele>187.11000000000001</ele>
        <time>2017-06-21T11:21:50Z</time>
      </trkpt>
      <trkpt lat="63.212284035980701" lon="9.142434988170862">
        <ele>187.59</ele>
        <time>2017-06-21T11:21:51Z</time>
      </trkpt>
      <trkpt lat="63.211060026660562" lon="9.145645005628467">
        <ele>187.59</ele>
        <time>2017-06-21T11:22:00Z</time>
      </trkpt>
      <trkpt lat="63.210870008915663" lon="9.146445980295539">
        <ele>187.11000000000001</ele>
        <time>2017-06-21T11:22:02Z</time>
      </trkpt>
      <trkpt lat="63.210802031680942" lon="9.146875971928239">
        <ele>186.63</ele>
        <time>2017-06-21T11:22:03Z</time>
      </trkpt>
      <trkpt lat="63.210755009204149" lon="9.147343011572957">
        <ele>186.63</ele>
        <time>2017-06-21T11:22:04Z</time>
      </trkpt>
      <trkpt lat="63.210728019475937" lon="9.147862019017339">
        <ele>186.63</ele>
        <time>2017-06-21T11:22:05Z</time>
      </trkpt>
      <trkpt lat="63.210707986727357" lon="9.148411033675075">
        <ele>186.63</ele>
        <time>2017-06-21T11:22:06Z</time>
      </trkpt>
      <trkpt lat="63.21058401837945" lon="9.153936970978975">
        <ele>190.47999999999999</ele>
        <time>2017-06-21T11:22:16Z</time>
      </trkpt>
      <trkpt lat="63.21011203341186" lon="9.15691195987165">
        <ele>196.25</ele>
        <time>2017-06-21T11:22:22Z</time>
      </trkpt>
      <trkpt lat="63.208642015233636" lon="9.163218000903726">
        <ele>205.38</ele>
        <time>2017-06-21T11:22:35Z</time>
      </trkpt>
      <trkpt lat="63.208329034969211" lon="9.166437992826104">
        <ele>208.25999999999999</ele>
        <time>2017-06-21T11:22:41Z</time>
      </trkpt>
      <trkpt lat="63.208341021090746" lon="9.171840967610478">
        <ele>218.36000000000001</ele>
        <time>2017-06-21T11:22:51Z</time>
      </trkpt>
      <trkpt lat="63.209086004644632" lon="9.176556039601564">
        <ele>220.28</ele>
        <time>2017-06-21T11:23:00Z</time>
      </trkpt>
      <trkpt lat="63.210298027843237" lon="9.180792002007365">
        <ele>214.50999999999999</ele>
        <time>2017-06-21T11:23:09Z</time>
      </trkpt>
      <trkpt lat="63.211524970829487" lon="9.182749008759856">
        <ele>215.94999999999999</ele>
        <time>2017-06-21T11:23:15Z</time>
      </trkpt>
      <trkpt lat="63.21260598488152" lon="9.18499200604856">
        <ele>221.72</ele>
        <time>2017-06-21T11:23:21Z</time>
      </trkpt>
      <trkpt lat="63.213940970599651" lon="9.18950499035418">
        <ele>229.88999999999999</ele>
        <time>2017-06-21T11:23:31Z</time>
      </trkpt>
      <trkpt lat="63.215773003175855" lon="9.195435019209981">
        <ele>225.56999999999999</ele>
        <time>2017-06-21T11:23:44Z</time>
      </trkpt>
      <trkpt lat="63.216432994231582" lon="9.197151968255639">
        <ele>225.56999999999999</ele>
        <time>2017-06-21T11:23:48Z</time>
      </trkpt>
      <trkpt lat="63.216555034741759" lon="9.197642980143428">
        <ele>225.56999999999999</ele>
        <time>2017-06-21T11:23:49Z</time>
      </trkpt>
      <trkpt lat="63.216657964512706" lon="9.198160981759429">
        <ele>226.05000000000001</ele>
        <time>2017-06-21T11:23:50Z</time>
      </trkpt>
      <trkpt lat="63.216742035001516" lon="9.198695998638868">
        <ele>226.53</ele>
        <time>2017-06-21T11:23:51Z</time>
      </trkpt>
      <trkpt lat="63.216810012236238" lon="9.199247024953365">
        <ele>226.53</ele>
        <time>2017-06-21T11:23:52Z</time>
      </trkpt>
      <trkpt lat="63.217527000233531" lon="9.203549958765507">
        <ele>229.41</ele>
        <time>2017-06-21T11:24:00Z</time>
      </trkpt>
      <trkpt lat="63.218007031828165" lon="9.207433965057135">
        <ele>233.25999999999999</ele>
        <time>2017-06-21T11:24:07Z</time>
      </trkpt>
      <trkpt lat="63.218527967110276" lon="9.211843013763428">
        <ele>237.58000000000001</ele>
        <time>2017-06-21T11:24:15Z</time>
      </trkpt>
      <trkpt lat="63.219446036964655" lon="9.217731971293688">
        <ele>246.22999999999999</ele>
        <time>2017-06-21T11:24:26Z</time>
      </trkpt>
      <trkpt lat="63.22046896442771" lon="9.226959021762013">
        <ele>267.38</ele>
        <time>2017-06-21T11:24:43Z</time>
      </trkpt>
      <trkpt lat="63.221454005688429" lon="9.23859796486795">
        <ele>276.51999999999998</ele>
        <time>2017-06-21T11:25:04Z</time>
      </trkpt>
      <trkpt lat="63.221959015354514" lon="9.24276502802968">
        <ele>275.06999999999999</ele>
        <time>2017-06-21T11:25:12Z</time>
      </trkpt>
      <trkpt lat="63.222083989530802" lon="9.243227960541844">
        <ele>274.58999999999997</ele>
        <time>2017-06-21T11:25:13Z</time>
      </trkpt>
      <trkpt lat="63.223151005804539" lon="9.247005013749003">
        <ele>272.19</ele>
        <time>2017-06-21T11:25:21Z</time>
      </trkpt>
      <trkpt lat="63.223673030734062" lon="9.250699002295733">
        <ele>273.63</ele>
        <time>2017-06-21T11:25:28Z</time>
      </trkpt>
      <trkpt lat="63.223766991868615" lon="9.25335799343884">
        <ele>274.58999999999997</ele>
        <time>2017-06-21T11:25:33Z</time>
      </trkpt>
      <trkpt lat="63.223744025453925" lon="9.253869038075209">
        <ele>274.58999999999997</ele>
        <time>2017-06-21T11:25:34Z</time>
      </trkpt>
      <trkpt lat="63.223697002977133" lon="9.254384022206068">
        <ele>275.06999999999999</ele>
        <time>2017-06-21T11:25:35Z</time>
      </trkpt>
      <trkpt lat="63.223631037399173" lon="9.254905041307211">
        <ele>275.56</ele>
        <time>2017-06-21T11:25:36Z</time>
      </trkpt>
      <trkpt lat="63.223547972738743" lon="9.255417007952929">
        <ele>275.56</ele>
        <time>2017-06-21T11:25:37Z</time>
      </trkpt>
      <trkpt lat="63.223445964977145" lon="9.255910031497479">
        <ele>276.04000000000002</ele>
        <time>2017-06-21T11:25:38Z</time>
      </trkpt>
      <trkpt lat="63.22332501411438" lon="9.256378998979926">
        <ele>277</ele>
        <time>2017-06-21T11:25:39Z</time>
      </trkpt>
      <trkpt lat="63.223186964169145" lon="9.256829023361206">
        <ele>277.95999999999998</ele>
        <time>2017-06-21T11:25:40Z</time>
      </trkpt>
      <trkpt lat="63.223037011921406" lon="9.257264966145158">
        <ele>277.95999999999998</ele>
        <time>2017-06-21T11:25:41Z</time>
      </trkpt>
      <trkpt lat="63.221637988463044" lon="9.260848984122276">
        <ele>279.88</ele>
        <time>2017-06-21T11:25:50Z</time>
      </trkpt>
      <trkpt lat="63.221541009843349" lon="9.261261960491538">
        <ele>279.39999999999998</ele>
        <time>2017-06-21T11:25:51Z</time>
      </trkpt>
      <trkpt lat="63.221454005688429" lon="9.261701004579663">
        <ele>278.92000000000002</ele>
        <time>2017-06-21T11:25:52Z</time>
      </trkpt>
      <trkpt lat="63.221380999311805" lon="9.262173995375633">
        <ele>278.92000000000002</ele>
        <time>2017-06-21T11:25:53Z</time>
      </trkpt>
      <trkpt lat="63.221325008198619" lon="9.262672970071435">
        <ele>278.44</ele>
        <time>2017-06-21T11:25:54Z</time>
      </trkpt>
      <trkpt lat="63.221283014863729" lon="9.263191977515817">
        <ele>278.44</ele>
        <time>2017-06-21T11:25:55Z</time>
      </trkpt>
      <trkpt lat="63.221258036792278" lon="9.263732023537159">
        <ele>278.44</ele>
        <time>2017-06-21T11:25:56Z</time>
      </trkpt>
      <trkpt lat="63.221249990165234" lon="9.264277014881373">
        <ele>278.92000000000002</ele>
        <time>2017-06-21T11:25:57Z</time>
      </trkpt>
      <trkpt lat="63.221258036792278" lon="9.264827035367489">
        <ele>278.92000000000002</ele>
        <time>2017-06-21T11:25:58Z</time>
      </trkpt>
      <trkpt lat="63.221282009035349" lon="9.265383007004857">
        <ele>279.88</ele>
        <time>2017-06-21T11:25:59Z</time>
      </trkpt>
      <trkpt lat="63.221315033733845" lon="9.265939984470606">
        <ele>280.36000000000001</ele>
        <time>2017-06-21T11:26:00Z</time>
      </trkpt>
      <trkpt lat="63.221976030617952" lon="9.27596197463572">
        <ele>273.63</ele>
        <time>2017-06-21T11:26:18Z</time>
      </trkpt>
      <trkpt lat="63.221967983990908" lon="9.277008036151528">
        <ele>274.11000000000001</ele>
        <time>2017-06-21T11:26:20Z</time>
      </trkpt>
      <trkpt lat="63.221930013969541" lon="9.27752897143364">
        <ele>275.06999999999999</ele>
        <time>2017-06-21T11:26:21Z</time>
      </trkpt>
      <trkpt lat="63.221684005111456" lon="9.281800976023078">
        <ele>280.36000000000001</ele>
        <time>2017-06-21T11:26:29Z</time>
      </trkpt>
      <trkpt lat="63.221729015931487" lon="9.282335992902517">
        <ele>280.36000000000001</ele>
        <time>2017-06-21T11:26:30Z</time>
      </trkpt>
      <trkpt lat="63.221795987337828" lon="9.282871009781957">
        <ele>280.36000000000001</ele>
        <time>2017-06-21T11:26:31Z</time>
      </trkpt>
      <trkpt lat="63.221882991492748" lon="9.283400997519493">
        <ele>280.36000000000001</ele>
        <time>2017-06-21T11:26:32Z</time>
      </trkpt>
      <trkpt lat="63.221982987597585" lon="9.283923022449017">
        <ele>280.36000000000001</ele>
        <time>2017-06-21T11:26:33Z</time>
      </trkpt>
      <trkpt lat="63.222911031916738" lon="9.288669023662806">
        <ele>281.31999999999999</ele>
        <time>2017-06-21T11:26:42Z</time>
      </trkpt>
      <trkpt lat="63.224502000957727" lon="9.29708001203835">
        <ele>274.58999999999997</ele>
        <time>2017-06-21T11:26:58Z</time>
      </trkpt>
      <trkpt lat="63.226212998852134" lon="9.306090977042913">
        <ele>274.58999999999997</ele>
        <time>2017-06-21T11:27:16Z</time>
      </trkpt>
      <trkpt lat="63.226780034601688" lon="9.310391983017325">
        <ele>274.58999999999997</ele>
        <time>2017-06-21T11:27:25Z</time>
      </trkpt>
      <trkpt lat="63.226962005719543" lon="9.31115297600627">
        <ele>274.11000000000001</ele>
        <time>2017-06-21T11:27:27Z</time>
      </trkpt>
      <trkpt lat="63.227081028744578" lon="9.311514990404248">
        <ele>274.11000000000001</ele>
        <time>2017-06-21T11:27:28Z</time>
      </trkpt>
      <trkpt lat="63.227218994870782" lon="9.311865018680692">
        <ele>274.11000000000001</ele>
        <time>2017-06-21T11:27:29Z</time>
      </trkpt>
      <trkpt lat="63.227974958717823" lon="9.313664026558399">
        <ele>273.63</ele>
        <time>2017-06-21T11:27:34Z</time>
      </trkpt>
      <trkpt lat="63.228091970086098" lon="9.314084965735674">
        <ele>273.63</ele>
        <time>2017-06-21T11:27:35Z</time>
      </trkpt>
      <trkpt lat="63.228190038353205" lon="9.314534990116954">
        <ele>273.63</ele>
        <time>2017-06-21T11:27:36Z</time>
      </trkpt>
      <trkpt lat="63.228266984224319" lon="9.315002029761672">
        <ele>273.63</ele>
        <time>2017-06-21T11:27:37Z</time>
      </trkpt>
      <trkpt lat="63.228325992822647" lon="9.315487006679177">
        <ele>274.11000000000001</ele>
        <time>2017-06-21T11:27:38Z</time>
      </trkpt>
      <trkpt lat="63.22837402112782" lon="9.315980030223727">
        <ele>274.58999999999997</ele>
        <time>2017-06-21T11:27:39Z</time>
      </trkpt>
      <trkpt lat="63.229047004133463" lon="9.321019984781742">
        <ele>280.36000000000001</ele>
        <time>2017-06-21T11:27:49Z</time>
      </trkpt>
      <trkpt lat="63.229671036824584" lon="9.326245011761785">
        <ele>283.73000000000002</ele>
        <time>2017-06-21T11:27:59Z</time>
      </trkpt>
      <trkpt lat="63.229696014896035" lon="9.332344019785523">
        <ele>276.51999999999998</ele>
        <time>2017-06-21T11:28:10Z</time>
      </trkpt>
      <trkpt lat="63.229457968845963" lon="9.336577970534563">
        <ele>280.36000000000001</ele>
        <time>2017-06-21T11:28:18Z</time>
      </trkpt>
      <trkpt lat="63.229716969653964" lon="9.34024496935308">
        <ele>282.76999999999998</ele>
        <time>2017-06-21T11:28:25Z</time>
      </trkpt>
      <trkpt lat="63.230027016252279" lon="9.343519024550915">
        <ele>287.56999999999999</ele>
        <time>2017-06-21T11:28:32Z</time>
      </trkpt>
      <trkpt lat="63.229997009038925" lon="9.347648033872247">
        <ele>291.42000000000002</ele>
        <time>2017-06-21T11:28:40Z</time>
      </trkpt>
      <trkpt lat="63.230080995708704" lon="9.354226989671588">
        <ele>311.12</ele>
        <time>2017-06-21T11:28:53Z</time>
      </trkpt>
      <trkpt lat="63.229735996574163" lon="9.357849983498454">
        <ele>313.05000000000001</ele>
        <time>2017-06-21T11:29:00Z</time>
      </trkpt>
      <trkpt lat="63.229133002460003" lon="9.363203002139926">
        <ele>314.49000000000001</ele>
        <time>2017-06-21T11:29:10Z</time>
      </trkpt>
      <trkpt lat="63.228972991928458" lon="9.368683006614447">
        <ele>317.85000000000002</ele>
        <time>2017-06-21T11:29:20Z</time>
      </trkpt>
      <trkpt lat="63.229034012183547" lon="9.37294595874846">
        <ele>322.18000000000001</ele>
        <time>2017-06-21T11:29:28Z</time>
      </trkpt>
      <trkpt lat="63.2286979816854" lon="9.377388032153249">
        <ele>330.82999999999998</ele>
        <time>2017-06-21T11:29:36Z</time>
      </trkpt>
      <trkpt lat="63.228001026436687" lon="9.384183995425701">
        <ele>344.76999999999998</ele>
        <time>2017-06-21T11:29:49Z</time>
      </trkpt>
      <trkpt lat="63.227999014779925" lon="9.384658997878432">
        <ele>345.73000000000002</ele>
        <time>2017-06-21T11:29:50Z</time>
      </trkpt>
      <trkpt lat="63.228022987022996" lon="9.385129977017641">
        <ele>346.20999999999998</ele>
        <time>2017-06-21T11:29:51Z</time>
      </trkpt>
      <trkpt lat="63.228069003671408" lon="9.385588970035315">
        <ele>346.69</ele>
        <time>2017-06-21T11:29:52Z</time>
      </trkpt>
      <trkpt lat="63.228133963420987" lon="9.38602901995182">
        <ele>347.17000000000002</ele>
        <time>2017-06-21T11:29:53Z</time>
      </trkpt>
      <trkpt lat="63.228214010596275" lon="9.386448031291366">
        <ele>347.64999999999998</ele>
        <time>2017-06-21T11:29:54Z</time>
      </trkpt>
      <trkpt lat="63.228308977559209" lon="9.386829994618893">
        <ele>347.17000000000002</ele>
        <time>2017-06-21T11:29:55Z</time>
      </trkpt>
      <trkpt lat="63.22841702029109" lon="9.387180022895336">
        <ele>347.17000000000002</ele>
        <time>2017-06-21T11:29:56Z</time>
      </trkpt>
      <trkpt lat="63.228538976982236" lon="9.387509012594819">
        <ele>347.17000000000002</ele>
        <time>2017-06-21T11:29:57Z</time>
      </trkpt>
      <trkpt lat="63.228681972250342" lon="9.387827022001147">
        <ele>347.17000000000002</ele>
        <time>2017-06-21T11:29:58Z</time>
      </trkpt>
      <trkpt lat="63.228829996660352" lon="9.388140002265573">
        <ele>346.20999999999998</ele>
        <time>2017-06-21T11:29:59Z</time>
      </trkpt>
      <trkpt lat="63.229672964662313" lon="9.390431027859449">
        <ele>342.85000000000002</ele>
        <time>2017-06-21T11:30:05Z</time>
      </trkpt>
      <trkpt lat="63.229767009615898" lon="9.390913993120194">
        <ele>343.32999999999998</ele>
        <time>2017-06-21T11:30:06Z</time>
      </trkpt>
      <trkpt lat="63.229841021820903" lon="9.391413973644376">
        <ele>343.81</ele>
        <time>2017-06-21T11:30:07Z</time>
      </trkpt>
      <trkpt lat="63.229892989620566" lon="9.391943961381912">
        <ele>344.76999999999998</ele>
        <time>2017-06-21T11:30:08Z</time>
      </trkpt>
      <trkpt lat="63.229928025975823" lon="9.392477972432971">
        <ele>345.73000000000002</ele>
        <time>2017-06-21T11:30:09Z</time>
      </trkpt>
      <trkpt lat="63.229947974905372" lon="9.393017012625933">
        <ele>347.17000000000002</ele>
        <time>2017-06-21T11:30:10Z</time>
      </trkpt>
      <trkpt lat="63.230100022628903" lon="9.399276031181216">
        <ele>343.81</ele>
        <time>2017-06-21T11:30:21Z</time>
      </trkpt>
      <trkpt lat="63.230405962094665" lon="9.405594980344176">
        <ele>331.79000000000002</ele>
        <time>2017-06-21T11:30:32Z</time>
      </trkpt>
      <trkpt lat="63.230563960969448" lon="9.410236040130258">
        <ele>329.38999999999999</ele>
        <time>2017-06-21T11:30:40Z</time>
      </trkpt>
      <trkpt lat="63.230446027591825" lon="9.419069979339838">
        <ele>327.47000000000003</ele>
        <time>2017-06-21T11:30:55Z</time>
      </trkpt>
      <trkpt lat="63.23041602037847" lon="9.424833962693811">
        <ele>333.70999999999998</ele>
        <time>2017-06-21T11:31:06Z</time>
      </trkpt>
      <trkpt lat="63.230664040893316" lon="9.430383034050465">
        <ele>342.85000000000002</ele>
        <time>2017-06-21T11:31:17Z</time>
      </trkpt>
      <trkpt lat="63.230886999517679" lon="9.438727973029017">
        <ele>347.64999999999998</ele>
        <time>2017-06-21T11:31:32Z</time>
      </trkpt>
      <trkpt lat="63.231432996690273" lon="9.444267991930246">
        <ele>344.76999999999998</ele>
        <time>2017-06-21T11:31:42Z</time>
      </trkpt>
      <trkpt lat="63.232121989130974" lon="9.448097012937069">
        <ele>349.10000000000002</ele>
        <time>2017-06-21T11:31:50Z</time>
      </trkpt>
      <trkpt lat="63.232695981860161" lon="9.450324000790715">
        <ele>349.10000000000002</ele>
        <time>2017-06-21T11:31:55Z</time>
      </trkpt>
      <trkpt lat="63.232761025428772" lon="9.450817024335265">
        <ele>348.62</ele>
        <time>2017-06-21T11:31:56Z</time>
      </trkpt>
      <trkpt lat="63.2328010071069" lon="9.45132102817297">
        <ele>348.62</ele>
        <time>2017-06-21T11:31:57Z</time>
      </trkpt>
      <trkpt lat="63.23282103985548" lon="9.451826959848404">
        <ele>348.62</ele>
        <time>2017-06-21T11:31:58Z</time>
      </trkpt>
      <trkpt lat="63.232816010713577" lon="9.45233297534287">
        <ele>348.62</ele>
        <time>2017-06-21T11:31:59Z</time>
      </trkpt>
      <trkpt lat="63.232786003500223" lon="9.452828010544181">
        <ele>349.10000000000002</ele>
        <time>2017-06-21T11:32:00Z</time>
      </trkpt>
      <trkpt lat="63.232733029872179" lon="9.453321034088731">
        <ele>349.10000000000002</ele>
        <time>2017-06-21T11:32:01Z</time>
      </trkpt>
      <trkpt lat="63.232661029323936" lon="9.453801987692714">
        <ele>349.57999999999998</ele>
        <time>2017-06-21T11:32:02Z</time>
      </trkpt>
      <trkpt lat="63.232574025169015" lon="9.454262992367148">
        <ele>350.06</ele>
        <time>2017-06-21T11:32:03Z</time>
      </trkpt>
      <trkpt lat="63.232477968558669" lon="9.454717040061951">
        <ele>350.54000000000002</ele>
        <time>2017-06-21T11:32:04Z</time>
      </trkpt>
      <trkpt lat="63.232231037691236" lon="9.456097958609462">
        <ele>352.45999999999998</ele>
        <time>2017-06-21T11:32:07Z</time>
      </trkpt>
      <trkpt lat="63.232179991900921" lon="9.456580001860857">
        <ele>352.94</ele>
        <time>2017-06-21T11:32:08Z</time>
      </trkpt>
      <trkpt lat="63.232149984687567" lon="9.457063972949982">
        <ele>353.42000000000002</ele>
        <time>2017-06-21T11:32:09Z</time>
      </trkpt>
      <trkpt lat="63.232143027707934" lon="9.457554984837771">
        <ele>353.89999999999998</ele>
        <time>2017-06-21T11:32:10Z</time>
      </trkpt>
      <trkpt lat="63.232160964980721" lon="9.458030993118882">
        <ele>354.86000000000001</ele>
        <time>2017-06-21T11:32:11Z</time>
      </trkpt>
      <trkpt lat="63.232201030477881" lon="9.458501972258091">
        <ele>354.86000000000001</ele>
        <time>2017-06-21T11:32:12Z</time>
      </trkpt>
      <trkpt lat="63.232259033247828" lon="9.458955014124513">
        <ele>354.86000000000001</ele>
        <time>2017-06-21T11:32:13Z</time>
      </trkpt>
      <trkpt lat="63.232334973290563" lon="9.459397997707129">
        <ele>354.86000000000001</ele>
        <time>2017-06-21T11:32:14Z</time>
      </trkpt>
      <trkpt lat="63.232428012415767" lon="9.459824971854687">
        <ele>354.38</ele>
        <time>2017-06-21T11:32:15Z</time>
      </trkpt>
      <trkpt lat="63.232537982985377" lon="9.460239037871361">
        <ele>353.89999999999998</ele>
        <time>2017-06-21T11:32:16Z</time>
      </trkpt>
      <trkpt lat="63.232661029323936" lon="9.460648996755481">
        <ele>352.94</ele>
        <time>2017-06-21T11:32:17Z</time>
      </trkpt>
      <trkpt lat="63.233298975974321" lon="9.463319974020124">
        <ele>351.01999999999998</ele>
        <time>2017-06-21T11:32:23Z</time>
      </trkpt>
      <trkpt lat="63.233348010107875" lon="9.463817020878196">
        <ele>351.98000000000002</ele>
        <time>2017-06-21T11:32:24Z</time>
      </trkpt>
      <trkpt lat="63.233382040634751" lon="9.464323958382011">
        <ele>352.94</ele>
        <time>2017-06-21T11:32:25Z</time>
      </trkpt>
      <trkpt lat="63.233471978455782" lon="9.467991963028908">
        <ele>358.23000000000002</ele>
        <time>2017-06-21T11:32:33Z</time>
      </trkpt>
      <trkpt lat="63.233451023697853" lon="9.468235960230231">
        <ele>358.23000000000002</ele>
        <time>2017-06-21T11:32:36Z</time>
      </trkpt>
      <trkpt lat="63.233426967635751" lon="9.468249035999179">
        <ele>358.23000000000002</ele>
        <time>2017-06-21T11:32:37Z</time>
      </trkpt>
      <trkpt lat="63.233396960422397" lon="9.468267979100347">
        <ele>358.23000000000002</ele>
        <time>2017-06-21T11:32:38Z</time>
      </trkpt>
      <trkpt lat="63.233301993459463" lon="9.468289017677307">
        <ele>357.26999999999998</ele>
        <time>2017-06-21T11:32:41Z</time>
      </trkpt>
      <trkpt lat="63.233247008174658" lon="9.468307960778475">
        <ele>356.31</ele>
        <time>2017-06-21T11:32:54Z</time>
      </trkpt>
      <trkpt lat="63.233247008174658" lon="9.468301003798842">
        <ele>356.31</ele>
        <time>2017-06-21T11:34:38Z</time>
      </trkpt>
      <trkpt lat="63.233247008174658" lon="9.468292035162449">
        <ele>356.31</ele>
        <time>2017-06-21T11:36:34Z</time>
      </trkpt>
      <trkpt lat="63.233248014003038" lon="9.468290023505688">
        <ele>356.79000000000002</ele>
        <time>2017-06-21T11:38:31Z</time>
      </trkpt>
      <trkpt lat="63.233246002346277" lon="9.468290023505688">
        <ele>356.79000000000002</ele>
        <time>2017-06-21T11:40:36Z</time>
      </trkpt>
      <trkpt lat="63.233244996517897" lon="9.468288011848927">
        <ele>356.79000000000002</ele>
        <time>2017-06-21T11:40:53Z</time>
      </trkpt>
      <trkpt lat="63.233373994007707" lon="9.468163037672639">
        <ele>357.26999999999998</ele>
        <time>2017-06-21T11:41:01Z</time>
      </trkpt>
      <trkpt lat="63.233433002606034" lon="9.468174017965794">
        <ele>357.75</ele>
        <time>2017-06-21T11:41:08Z</time>
      </trkpt>
      <trkpt lat="63.233462003991008" lon="9.468261022120714">
        <ele>357.75</ele>
        <time>2017-06-21T11:41:10Z</time>
      </trkpt>
      <trkpt lat="63.233480025082827" lon="9.468385996297002">
        <ele>358.23000000000002</ele>
        <time>2017-06-21T11:41:11Z</time>
      </trkpt>
      <trkpt lat="63.233489999547601" lon="9.468570984899998">
        <ele>358.23000000000002</ele>
        <time>2017-06-21T11:41:12Z</time>
      </trkpt>
      <trkpt lat="63.233469966799021" lon="9.470792021602392">
        <ele>359.19</ele>
        <time>2017-06-21T11:41:20Z</time>
      </trkpt>
      <trkpt lat="63.23342202231288" lon="9.474796978756785">
        <ele>360.63</ele>
        <time>2017-06-21T11:41:30Z</time>
      </trkpt>
      <trkpt lat="63.233790993690491" lon="9.47985403239727">
        <ele>356.79000000000002</ele>
        <time>2017-06-21T11:41:41Z</time>
      </trkpt>
      <trkpt lat="63.234752984717488" lon="9.485093979164958">
        <ele>350.06</ele>
        <time>2017-06-21T11:41:52Z</time>
      </trkpt>
      <trkpt lat="63.235770966857672" lon="9.489964032545686">
        <ele>344.29000000000002</ele>
        <time>2017-06-21T11:42:02Z</time>
      </trkpt>
      <trkpt lat="63.23668803088367" lon="9.493847033008933">
        <ele>336.60000000000002</ele>
        <time>2017-06-21T11:42:10Z</time>
      </trkpt>
      <trkpt lat="63.238504976034164" lon="9.498621029779315">
        <ele>325.54000000000002</ele>
        <time>2017-06-21T11:42:21Z</time>
      </trkpt>
      <trkpt lat="63.239326989278197" lon="9.501844039186835">
        <ele>326.99000000000001</ele>
        <time>2017-06-21T11:42:28Z</time>
      </trkpt>
      <trkpt lat="63.239621026441455" lon="9.504968980327249">
        <ele>329.38999999999999</ele>
        <time>2017-06-21T11:42:35Z</time>
      </trkpt>
      <trkpt lat="63.239432014524937" lon="9.508433975279331">
        <ele>331.79000000000002</ele>
        <time>2017-06-21T11:42:42Z</time>
      </trkpt>
      <trkpt lat="63.238809993490577" lon="9.511669976636767">
        <ele>336.12</ele>
        <time>2017-06-21T11:42:50Z</time>
      </trkpt>
      <trkpt lat="63.23793601244688" lon="9.515204038470984">
        <ele>336.60000000000002</ele>
        <time>2017-06-21T11:43:00Z</time>
      </trkpt>
      <trkpt lat="63.236870002001524" lon="9.518109960481525">
        <ele>337.07999999999998</ele>
        <time>2017-06-21T11:43:09Z</time>
      </trkpt>
      <trkpt lat="63.235786976292729" lon="9.520996017381549">
        <ele>338.04000000000002</ele>
        <time>2017-06-21T11:43:18Z</time>
      </trkpt>
      <trkpt lat="63.235088009387255" lon="9.524798970669508">
        <ele>336.60000000000002</ele>
        <time>2017-06-21T11:43:26Z</time>
      </trkpt>
      <trkpt lat="63.234233977273107" lon="9.528469992801547">
        <ele>334.19999999999999</ele>
        <time>2017-06-21T11:43:35Z</time>
      </trkpt>
      <trkpt lat="63.233919991180301" lon="9.531767014414072">
        <ele>333.23000000000002</ele>
        <time>2017-06-21T11:43:43Z</time>
      </trkpt>
      <trkpt lat="63.23329595848918" lon="9.535199990496039">
        <ele>334.68000000000001</ele>
        <time>2017-06-21T11:43:52Z</time>
      </trkpt>
      <trkpt lat="63.232989013195038" lon="9.538373965770006">
        <ele>336.60000000000002</ele>
        <time>2017-06-21T11:44:00Z</time>
      </trkpt>
      <trkpt lat="63.233166038990021" lon="9.541528997942805">
        <ele>337.07999999999998</ele>
        <time>2017-06-21T11:44:07Z</time>
      </trkpt>
      <trkpt lat="63.233663002029061" lon="9.546586973592639">
        <ele>334.19999999999999</ele>
        <time>2017-06-21T11:44:17Z</time>
      </trkpt>
      <trkpt lat="63.234468000009656" lon="9.550615986809135">
        <ele>327.47000000000003</ele>
        <time>2017-06-21T11:44:26Z</time>
      </trkpt>
      <trkpt lat="63.235709024593234" lon="9.554415000602603">
        <ele>325.54000000000002</ele>
        <time>2017-06-21T11:44:36Z</time>
      </trkpt>
      <trkpt lat="63.236764976754785" lon="9.556603012606502">
        <ele>326.01999999999998</ele>
        <time>2017-06-21T11:44:42Z</time>
      </trkpt>
      <trkpt lat="63.238616036251187" lon="9.559475993737578">
        <ele>329.87</ele>
        <time>2017-06-21T11:44:50Z</time>
      </trkpt>
      <trkpt lat="63.240588968619704" lon="9.561703987419605">
        <ele>335.16000000000003</ele>
        <time>2017-06-21T11:44:59Z</time>
      </trkpt>
      <trkpt lat="63.244364010170102" lon="9.56502397544682">
        <ele>334.19999999999999</ele>
        <time>2017-06-21T11:45:16Z</time>
      </trkpt>
      <trkpt lat="63.248693011701107" lon="9.568274980410934">
        <ele>333.70999999999998</ele>
        <time>2017-06-21T11:45:35Z</time>
      </trkpt>
      <trkpt lat="63.250188007950783" lon="9.570325026288629">
        <ele>332.75</ele>
        <time>2017-06-21T11:45:42Z</time>
      </trkpt>
      <trkpt lat="63.251383015885949" lon="9.573476035147905">
        <ele>329.38999999999999</ele>
        <time>2017-06-21T11:45:49Z</time>
      </trkpt>
      <trkpt lat="63.252820009365678" lon="9.576992997899652">
        <ele>323.62</ele>
        <time>2017-06-21T11:45:57Z</time>
      </trkpt>
      <trkpt lat="63.254231018945575" lon="9.578716987743974">
        <ele>316.41000000000003</ele>
        <time>2017-06-21T11:46:03Z</time>
      </trkpt>
      <trkpt lat="63.255974035710096" lon="9.580726968124509">
        <ele>307.75999999999999</ele>
        <time>2017-06-21T11:46:11Z</time>
      </trkpt>
      <trkpt lat="63.256975002586842" lon="9.583172975108028">
        <ele>303.43000000000001</ele>
        <time>2017-06-21T11:46:17Z</time>
      </trkpt>
      <trkpt lat="63.258126005530357" lon="9.587782016023994">
        <ele>300.55000000000001</ele>
        <time>2017-06-21T11:46:26Z</time>
      </trkpt>
      <trkpt lat="63.259365018457174" lon="9.592057960107923">
        <ele>295.25999999999999</ele>
        <time>2017-06-21T11:46:35Z</time>
      </trkpt>
      <trkpt lat="63.260702015832067" lon="9.594514025375247">
        <ele>289.49000000000001</ele>
        <time>2017-06-21T11:46:42Z</time>
      </trkpt>
      <trkpt lat="63.262405972927809" lon="9.595999969169498">
        <ele>282.27999999999997</ele>
        <time>2017-06-21T11:46:49Z</time>
      </trkpt>
      <trkpt lat="63.26425502076745" lon="9.59623902104795">
        <ele>273.63</ele>
        <time>2017-06-21T11:46:56Z</time>
      </trkpt>
      <trkpt lat="63.265998037531972" lon="9.595256997272372">
        <ele>263.54000000000002</ele>
        <time>2017-06-21T11:47:03Z</time>
      </trkpt>
      <trkpt lat="63.26795001514256" lon="9.594152010977268">
        <ele>250.56</ele>
        <time>2017-06-21T11:47:11Z</time>
      </trkpt>
      <trkpt lat="63.269450962543488" lon="9.594777971506119">
        <ele>240.47</ele>
        <time>2017-06-21T11:47:17Z</time>
      </trkpt>
      <trkpt lat="63.270744038745761" lon="9.596683010458946">
        <ele>231.33000000000001</ele>
        <time>2017-06-21T11:47:23Z</time>
      </trkpt>
      <trkpt lat="63.27366597019136" lon="9.601935027167201">
        <ele>207.30000000000001</ele>
        <time>2017-06-21T11:47:37Z</time>
      </trkpt>
      <trkpt lat="63.276003012433648" lon="9.604803984984756">
        <ele>190.96000000000001</ele>
        <time>2017-06-21T11:47:47Z</time>
      </trkpt>
      <trkpt lat="63.278676001355052" lon="9.606367964297533">
        <ele>177.02000000000001</ele>
        <time>2017-06-21T11:47:58Z</time>
      </trkpt>
      <trkpt lat="63.280800981447101" lon="9.608244001865387">
        <ele>170.28999999999999</ele>
        <time>2017-06-21T11:48:07Z</time>
      </trkpt>
      <trkpt lat="63.282490018755198" lon="9.610911039635539">
        <ele>165</ele>
        <time>2017-06-21T11:48:15Z</time>
      </trkpt>
      <trkpt lat="63.284513996914029" lon="9.615446990355849">
        <ele>159.24000000000001</ele>
        <time>2017-06-21T11:48:26Z</time>
      </trkpt>
      <trkpt lat="63.285973034799099" lon="9.620145969092846">
        <ele>157.31</ele>
        <time>2017-06-21T11:48:36Z</time>
      </trkpt>
      <trkpt lat="63.286520037800074" lon="9.623575005680323">
        <ele>159.24000000000001</ele>
        <time>2017-06-21T11:48:43Z</time>
      </trkpt>
      <trkpt lat="63.286564964801073" lon="9.627120969817042">
        <ele>164.52000000000001</ele>
        <time>2017-06-21T11:48:50Z</time>
      </trkpt>
      <trkpt lat="63.286264976486564" lon="9.631385011598468">
        <ele>169.33000000000001</ele>
        <time>2017-06-21T11:48:58Z</time>
      </trkpt>
      <trkpt lat="63.28550398349762" lon="9.637700021266937">
        <ele>165.96000000000001</ele>
        <time>2017-06-21T11:49:09Z</time>
      </trkpt>
      <trkpt lat="63.284379970282316" lon="9.643954010680318">
        <ele>159.72</ele>
        <time>2017-06-21T11:49:21Z</time>
      </trkpt>
      <trkpt lat="63.283144980669022" lon="9.649840034544468">
        <ele>161.63999999999999</ele>
        <time>2017-06-21T11:49:34Z</time>
      </trkpt>
      <trkpt lat="63.283499032258987" lon="9.673679005354643">
        <ele>163.56</ele>
        <time>2017-06-21T11:50:23Z</time>
      </trkpt>
      <trkpt lat="63.284310987219214" lon="9.678640002384782">
        <ele>154.91</ele>
        <time>2017-06-21T11:50:34Z</time>
      </trkpt>
      <trkpt lat="63.285112967714667" lon="9.68314896337688">
        <ele>154.91</ele>
        <time>2017-06-21T11:50:45Z</time>
      </trkpt>
      <trkpt lat="63.286023996770382" lon="9.686337020248175">
        <ele>152.99000000000001</ele>
        <time>2017-06-21T11:50:54Z</time>
      </trkpt>
      <trkpt lat="63.28634100034833" lon="9.689796986058354">
        <ele>154.91</ele>
        <time>2017-06-21T11:51:02Z</time>
      </trkpt>
      <trkpt lat="63.28700996004045" lon="9.695361983031035">
        <ele>154.43000000000001</ele>
        <time>2017-06-21T11:51:15Z</time>
      </trkpt>
      <trkpt lat="63.287895005196333" lon="9.70162502489984">
        <ele>159.24000000000001</ele>
        <time>2017-06-21T11:51:30Z</time>
      </trkpt>
      <trkpt lat="63.288590032607317" lon="9.705002009868622">
        <ele>155.87</ele>
        <time>2017-06-21T11:51:38Z</time>
      </trkpt>
      <trkpt lat="63.290212014690042" lon="9.7102390229702">
        <ele>155.87</ele>
        <time>2017-06-21T11:51:52Z</time>
      </trkpt>
      <trkpt lat="63.291596034541726" lon="9.713455997407436">
        <ele>154.91</ele>
        <time>2017-06-21T11:52:02Z</time>
      </trkpt>
      <trkpt lat="63.2929150108248" lon="9.716326966881752">
        <ele>152.50999999999999</ele>
        <time>2017-06-21T11:52:10Z</time>
      </trkpt>
      <trkpt lat="63.29454998485744" lon="9.720279034227133">
        <ele>150.09999999999999</ele>
        <time>2017-06-21T11:52:21Z</time>
      </trkpt>
      <trkpt lat="63.295035967603326" lon="9.723040033131838">
        <ele>141.44999999999999</ele>
        <time>2017-06-21T11:52:28Z</time>
      </trkpt>
      <trkpt lat="63.295610966160893" lon="9.726023990660906">
        <ele>128.47</ele>
        <time>2017-06-21T11:52:35Z</time>
      </trkpt>
      <trkpt lat="63.296532975509763" lon="9.729396030306816">
        <ele>114.05</ele>
        <time>2017-06-21T11:52:42Z</time>
      </trkpt>
      <trkpt lat="63.296903958544135" lon="9.730610987171531">
        <ele>108.77</ele>
        <time>2017-06-21T11:52:45Z</time>
      </trkpt>
      <trkpt lat="63.297001020982862" lon="9.731054976582527">
        <ele>106.84</ele>
        <time>2017-06-21T11:52:46Z</time>
      </trkpt>
      <trkpt lat="63.297079978510737" lon="9.731509024277329">
        <ele>104.92</ele>
        <time>2017-06-21T11:52:47Z</time>
      </trkpt>
      <trkpt lat="63.297576019540429" lon="9.734644023701549">
        <ele>92.420000000000002</ele>
        <time>2017-06-21T11:52:54Z</time>
      </trkpt>
      <trkpt lat="63.297697976231575" lon="9.735051970928907">
        <ele>90.5</ele>
        <time>2017-06-21T11:52:55Z</time>
      </trkpt>
      <trkpt lat="63.298745965585113" lon="9.738118993118405">
        <ele>76.560000000000002</ele>
        <time>2017-06-21T11:53:02Z</time>
      </trkpt>
      <trkpt lat="63.300975970923901" lon="9.744473984465003">
        <ele>63.100000000000001</ele>
        <time>2017-06-21T11:53:18Z</time>
      </trkpt>
      <trkpt lat="63.303345032036304" lon="9.751584017649293">
        <ele>62.140000000000001</ele>
        <time>2017-06-21T11:53:36Z</time>
      </trkpt>
      <trkpt lat="63.304128991439939" lon="9.755812017247081">
        <ele>58.780000000000001</ele>
        <time>2017-06-21T11:53:45Z</time>
      </trkpt>
      <trkpt lat="63.304166961461306" lon="9.759460994973779">
        <ele>60.700000000000003</ele>
        <time>2017-06-21T11:53:52Z</time>
      </trkpt>
      <trkpt lat="63.304246002808213" lon="9.762805961072445">
        <ele>58.299999999999997</ele>
        <time>2017-06-21T11:53:59Z</time>
      </trkpt>
      <trkpt lat="63.304931977763772" lon="9.765295973047614">
        <ele>48.68</ele>
        <time>2017-06-21T11:54:05Z</time>
      </trkpt>
      <trkpt lat="63.306596959009767" lon="9.769577030092478">
        <ele>37.630000000000003</ele>
        <time>2017-06-21T11:54:16Z</time>
      </trkpt>
      <trkpt lat="63.306684968993068" lon="9.770016996189952">
        <ele>37.149999999999999</ele>
        <time>2017-06-21T11:54:17Z</time>
      </trkpt>
      <trkpt lat="63.306754035875201" lon="9.770470038056374">
        <ele>36.189999999999998</ele>
        <time>2017-06-21T11:54:18Z</time>
      </trkpt>
      <trkpt lat="63.306798040866852" lon="9.770942023023963">
        <ele>35.229999999999997</ele>
        <time>2017-06-21T11:54:19Z</time>
      </trkpt>
      <trkpt lat="63.306818995624781" lon="9.771418031305075">
        <ele>34.259999999999998</ele>
        <time>2017-06-21T11:54:20Z</time>
      </trkpt>
      <trkpt lat="63.306815978139639" lon="9.771907031536102">
        <ele>33.299999999999997</ele>
        <time>2017-06-21T11:54:21Z</time>
      </trkpt>
      <trkpt lat="63.306783959269524" lon="9.77239603176713">
        <ele>32.82</ele>
        <time>2017-06-21T11:54:22Z</time>
      </trkpt>
      <trkpt lat="63.306732997298241" lon="9.772872962057591">
        <ele>32.82</ele>
        <time>2017-06-21T11:54:23Z</time>
      </trkpt>
      <trkpt lat="63.306665020063519" lon="9.77334201335907">
        <ele>32.82</ele>
        <time>2017-06-21T11:54:24Z</time>
      </trkpt>
      <trkpt lat="63.306586984544992" lon="9.773803018033505">
        <ele>33.299999999999997</ele>
        <time>2017-06-21T11:54:25Z</time>
      </trkpt>
      <trkpt lat="63.30621499568224" lon="9.776152968406677">
        <ele>35.229999999999997</ele>
        <time>2017-06-21T11:54:30Z</time>
      </trkpt>
      <trkpt lat="63.306188005954027" lon="9.776653032749891">
        <ele>35.710000000000001</ele>
        <time>2017-06-21T11:54:31Z</time>
      </trkpt>
      <trkpt lat="63.306184988468885" lon="9.777155024930835">
        <ele>36.189999999999998</ele>
        <time>2017-06-21T11:54:32Z</time>
      </trkpt>
      <trkpt lat="63.306203009560704" lon="9.777657017111778">
        <ele>36.670000000000002</ele>
        <time>2017-06-21T11:54:33Z</time>
      </trkpt>
      <trkpt lat="63.30623796209693" lon="9.778162026777864">
        <ele>36.670000000000002</ele>
        <time>2017-06-21T11:54:34Z</time>
      </trkpt>
      <trkpt lat="63.306283978745341" lon="9.778662007302046">
        <ele>36.670000000000002</ele>
        <time>2017-06-21T11:54:35Z</time>
      </trkpt>
      <trkpt lat="63.306335024535656" lon="9.779168022796512">
        <ele>36.189999999999998</ele>
        <time>2017-06-21T11:54:36Z</time>
      </trkpt>
      <trkpt lat="63.307104986160994" lon="9.784781970083714">
        <ele>30.899999999999999</ele>
        <time>2017-06-21T11:54:47Z</time>
      </trkpt>
      <trkpt lat="63.307649977505207" lon="9.789214991033077">
        <ele>29.460000000000001</ele>
        <time>2017-06-21T11:54:56Z</time>
      </trkpt>
      <trkpt lat="63.307839995250106" lon="9.792503966018558">
        <ele>22.25</ele>
        <time>2017-06-21T11:55:02Z</time>
      </trkpt>
      <trkpt lat="63.30791300162673" lon="9.793035965412855">
        <ele>21.289999999999999</ele>
        <time>2017-06-21T11:55:03Z</time>
      </trkpt>
      <trkpt lat="63.308108970522881" lon="9.794052019715309">
        <ele>20.809999999999999</ele>
        <time>2017-06-21T11:55:05Z</time>
      </trkpt>
      <trkpt lat="63.309088982641697" lon="9.798356965184212">
        <ele>23.210000000000001</ele>
        <time>2017-06-21T11:55:14Z</time>
      </trkpt>
      <trkpt lat="63.309530960395932" lon="9.802186992019415">
        <ele>19.84</ele>
        <time>2017-06-21T11:55:22Z</time>
      </trkpt>
      <trkpt lat="63.310056002810597" lon="9.805067013949156">
        <ele>19.84</ele>
        <time>2017-06-21T11:55:30Z</time>
      </trkpt>
      <trkpt lat="63.310152981430292" lon="9.808005038648844">
        <ele>16.960000000000001</ele>
        <time>2017-06-21T11:55:38Z</time>
      </trkpt>
      <trkpt lat="63.31014895811677" lon="9.811830958351493">
        <ele>14.56</ele>
        <time>2017-06-21T11:55:50Z</time>
      </trkpt>
      <trkpt lat="63.310200003907084" lon="9.812290035188198">
        <ele>14.08</ele>
        <time>2017-06-21T11:55:56Z</time>
      </trkpt>
      <trkpt lat="63.310266975313425" lon="9.812328005209565">
        <ele>14.08</ele>
        <time>2017-06-21T11:56:19Z</time>
      </trkpt>
      <trkpt lat="63.31034199334681" lon="9.812306966632605">
        <ele>13.6</ele>
        <time>2017-06-21T11:56:20Z</time>
      </trkpt>
      <trkpt lat="63.310433020815253" lon="9.812237983569503">
        <ele>13.119999999999999</ele>
        <time>2017-06-21T11:56:21Z</time>
      </trkpt>
      <trkpt lat="63.311377996578813" lon="9.811414964497089">
        <ele>9.75</ele>
        <time>2017-06-21T11:56:28Z</time>
      </trkpt>
      <trkpt lat="63.312992015853524" lon="9.8102539870888">
        <ele>7.35</ele>
        <time>2017-06-21T11:56:38Z</time>
      </trkpt>
      <trkpt lat="63.314843997359276" lon="9.810033962130547">
        <ele>7.83</ele>
        <time>2017-06-21T11:56:49Z</time>
      </trkpt>
      <trkpt lat="63.316769991070032" lon="9.810392037034035">
        <ele>7.83</ele>
        <time>2017-06-21T11:57:00Z</time>
      </trkpt>
      <trkpt lat="63.317929040640593" lon="9.81190899387002">
        <ele>14.08</ele>
        <time>2017-06-21T11:57:06Z</time>
      </trkpt>
      <trkpt lat="63.320637987926602" lon="9.816609984263778">
        <ele>17.920000000000002</ele>
        <time>2017-06-21T11:57:20Z</time>
      </trkpt>
      <trkpt lat="63.323183991014957" lon="9.821035964414477">
        <ele>14.08</ele>
        <time>2017-06-21T11:57:33Z</time>
      </trkpt>
      <trkpt lat="63.323681959882379" lon="9.82211496680975">
        <ele>10.23</ele>
        <time>2017-06-21T11:57:36Z</time>
      </trkpt>
      <trkpt lat="63.323823027312756" lon="9.82252299785614">
        <ele>9.27</ele>
        <time>2017-06-21T11:57:37Z</time>
      </trkpt>
      <trkpt lat="63.323936015367508" lon="9.82297201640904">
        <ele>9.27</ele>
        <time>2017-06-21T11:57:38Z</time>
      </trkpt>
      <trkpt lat="63.3240279648453" lon="9.82344500720501">
        <ele>9.27</ele>
        <time>2017-06-21T11:57:39Z</time>
      </trkpt>
      <trkpt lat="63.324109017848969" lon="9.823931995779276">
        <ele>8.789999999999999</ele>
        <time>2017-06-21T11:57:40Z</time>
      </trkpt>
      <trkpt lat="63.324515959247947" lon="9.826307008042932">
        <ele>4.46</ele>
        <time>2017-06-21T11:57:45Z</time>
      </trkpt>
      <trkpt lat="63.324633976444602" lon="9.826740017160773">
        <ele>3.5</ele>
        <time>2017-06-21T11:57:46Z</time>
      </trkpt>
      <trkpt lat="63.324769008904696" lon="9.827160034328699">
        <ele>2.54</ele>
        <time>2017-06-21T11:57:47Z</time>
      </trkpt>
      <trkpt lat="63.326072981581092" lon="9.831005986779928">
        <ele>2.06</ele>
        <time>2017-06-21T11:57:56Z</time>
      </trkpt>
      <trkpt lat="63.327131029218435" lon="9.835007004439831">
        <ele>2.06</ele>
        <time>2017-06-21T11:58:05Z</time>
      </trkpt>
      <trkpt lat="63.327477034181356" lon="9.836649019271135">
        <ele>3.02</ele>
        <time>2017-06-21T11:58:09Z</time>
      </trkpt>
      <trkpt lat="63.327601002529263" lon="9.837000975385308">
        <ele>3.02</ele>
        <time>2017-06-21T11:58:10Z</time>
      </trkpt>
      <trkpt lat="63.327751960605383" lon="9.837329965084791">
        <ele>3.02</ele>
        <time>2017-06-21T11:58:11Z</time>
      </trkpt>
      <trkpt lat="63.328268034383655" lon="9.838349036872387">
        <ele>2.54</ele>
        <time>2017-06-21T11:58:14Z</time>
      </trkpt>
      <trkpt lat="63.328750999644399" lon="9.83953800983727">
        <ele>2.54</ele>
        <time>2017-06-21T11:58:17Z</time>
      </trkpt>
      <trkpt lat="63.328933976590633" lon="9.839870017021895">
        <ele>2.54</ele>
        <time>2017-06-21T11:58:18Z</time>
      </trkpt>
      <trkpt lat="63.330151028931141" lon="9.842447033151984">
        <ele>2.06</ele>
        <time>2017-06-21T11:58:25Z</time>
      </trkpt>
      <trkpt lat="63.331543011590838" lon="9.84637102112174">
        <ele>0.62</ele>
        <time>2017-06-21T11:58:34Z</time>
      </trkpt>
      <trkpt lat="63.333709985017776" lon="9.850599020719528">
        <ele>-1.3</ele>
        <time>2017-06-21T11:58:46Z</time>
      </trkpt>
      <trkpt lat="63.334789993241429" lon="9.853264968842268">
        <ele>2.54</ele>
        <time>2017-06-21T11:58:53Z</time>
      </trkpt>
      <trkpt lat="63.33663996309042" lon="9.85874799080193">
        <ele>2.06</ele>
        <time>2017-06-21T11:59:06Z</time>
      </trkpt>
      <trkpt lat="63.336722021922469" lon="9.859229028224945">
        <ele>2.06</ele>
        <time>2017-06-21T11:59:07Z</time>
      </trkpt>
      <trkpt lat="63.337314035743475" lon="9.862588997930288">
        <ele>-1.79</ele>
        <time>2017-06-21T11:59:14Z</time>
      </trkpt>
      <trkpt lat="63.338379040360451" lon="9.865318983793259">
        <ele>-6.59</ele>
        <time>2017-06-21T11:59:21Z</time>
      </trkpt>
      <trkpt lat="63.339425018057227" lon="9.868766041472554">
        <ele>-8.51</ele>
        <time>2017-06-21T11:59:29Z</time>
      </trkpt>
      <trkpt lat="63.339957017451525" lon="9.871734995394945">
        <ele>-5.63</ele>
        <time>2017-06-21T11:59:35Z</time>
      </trkpt>
      <trkpt lat="63.340081991627812" lon="9.872179990634322">
        <ele>-5.63</ele>
        <time>2017-06-21T11:59:36Z</time>
      </trkpt>
      <trkpt lat="63.34022699855268" lon="9.8726059589535">
        <ele>-5.15</ele>
        <time>2017-06-21T11:59:37Z</time>
      </trkpt>
      <trkpt lat="63.340387009084225" lon="9.873011978343129">
        <ele>-5.15</ele>
        <time>2017-06-21T11:59:38Z</time>
      </trkpt>
      <trkpt lat="63.340565040707588" lon="9.873383967205882">
        <ele>-6.11</ele>
        <time>2017-06-21T11:59:39Z</time>
      </trkpt>
      <trkpt lat="63.340761009603739" lon="9.873728966340423">
        <ele>-6.59</ele>
        <time>2017-06-21T11:59:40Z</time>
      </trkpt>
      <trkpt lat="63.342175958678126" lon="9.876795988529921">
        <ele>-7.55</ele>
        <time>2017-06-21T11:59:48Z</time>
      </trkpt>
      <trkpt lat="63.34312797524035" lon="9.880531970411539">
        <ele>-4.67</ele>
        <time>2017-06-21T11:59:56Z</time>
      </trkpt>
      <trkpt lat="63.344272021204233" lon="9.883876014500856">
        <ele>-0.34</ele>
        <time>2017-06-21T12:00:04Z</time>
      </trkpt>
      <trkpt lat="63.345301989465952" lon="9.886092022061348">
        <ele>-1.3</ele>
        <time>2017-06-21T12:00:10Z</time>
      </trkpt>
      <trkpt lat="63.345409026369452" lon="9.886499969288707">
        <ele>-1.3</ele>
        <time>2017-06-21T12:00:11Z</time>
      </trkpt>
      <trkpt lat="63.345494018867612" lon="9.88691202364862">
        <ele>-2.27</ele>
        <time>2017-06-21T12:00:12Z</time>
      </trkpt>
      <trkpt lat="63.345549004152417" lon="9.887354001402855">
        <ele>-2.27</ele>
        <time>2017-06-21T12:00:13Z</time>
      </trkpt>
      <trkpt lat="63.345572976395488" lon="9.887812994420528">
        <ele>-1.3</ele>
        <time>2017-06-21T12:00:14Z</time>
      </trkpt>
      <trkpt lat="63.34557699970901" lon="9.888278022408485">
        <ele>-0.34</ele>
        <time>2017-06-21T12:00:15Z</time>
      </trkpt>
      <trkpt lat="63.345570964738727" lon="9.888755036517978">
        <ele>1.58</ele>
        <time>2017-06-21T12:00:16Z</time>
      </trkpt>
      <trkpt lat="63.345578005537391" lon="9.889229033142328">
        <ele>2.54</ele>
        <time>2017-06-21T12:00:17Z</time>
      </trkpt>
      <trkpt lat="63.345621004700661" lon="9.889691965654492">
        <ele>2.54</ele>
        <time>2017-06-21T12:00:18Z</time>
      </trkpt>
      <trkpt lat="63.345690993592143" lon="9.890147019177675">
        <ele>2.54</ele>
        <time>2017-06-21T12:00:19Z</time>
      </trkpt>
      <trkpt lat="63.345785038545728" lon="9.890591008588672">
        <ele>2.06</ele>
        <time>2017-06-21T12:00:20Z</time>
      </trkpt>
      <trkpt lat="63.345903977751732" lon="9.891018988564611">
        <ele>1.58</ele>
        <time>2017-06-21T12:00:21Z</time>
      </trkpt>
      <trkpt lat="63.346046973019838" lon="9.891434982419014">
        <ele>1.1</ele>
        <time>2017-06-21T12:00:22Z</time>
      </trkpt>
      <trkpt lat="63.346208995208144" lon="9.891829015687108">
        <ele>0.62</ele>
        <time>2017-06-21T12:00:23Z</time>
      </trkpt>
      <trkpt lat="63.347578011453152" lon="9.895655019208789">
        <ele>2.06</ele>
        <time>2017-06-21T12:00:32Z</time>
      </trkpt>
      <trkpt lat="63.34957399405539" lon="9.90132998675108">
        <ele>5.91</ele>
        <time>2017-06-21T12:00:46Z</time>
      </trkpt>
      <trkpt lat="63.350995983928442" lon="9.90491802804172">
        <ele>0.14</ele>
        <time>2017-06-21T12:00:55Z</time>
      </trkpt>
      <trkpt lat="63.353510973975062" lon="9.910878986120224">
        <ele>3.5</ele>
        <time>2017-06-21T12:01:10Z</time>
      </trkpt>
      <trkpt lat="63.35507201962173" lon="9.913367992267013">
        <ele>-2.75</ele>
        <time>2017-06-21T12:01:18Z</time>
      </trkpt>
      <trkpt lat="63.357670996338129" lon="9.917345959693193">
        <ele>-2.75</ele>
        <time>2017-06-21T12:01:31Z</time>
      </trkpt>
      <trkpt lat="63.359516020864248" lon="9.919770006090403">
        <ele>-8.029999999999999</ele>
        <time>2017-06-21T12:01:40Z</time>
      </trkpt>
      <trkpt lat="63.361809980124235" lon="9.922293964773417">
        <ele>-7.07</ele>
        <time>2017-06-21T12:01:51Z</time>
      </trkpt>
      <trkpt lat="63.362865010276437" lon="9.924945998936892">
        <ele>-6.11</ele>
        <time>2017-06-21T12:01:58Z</time>
      </trkpt>
      <trkpt lat="63.364135958254337" lon="9.926977017894387">
        <ele>-6.11</ele>
        <time>2017-06-21T12:02:05Z</time>
      </trkpt>
      <trkpt lat="63.365228958427906" lon="9.928299011662602">
        <ele>-7.55</ele>
        <time>2017-06-21T12:02:11Z</time>
      </trkpt>
      <trkpt lat="63.365433979779482" lon="9.928417028859258">
        <ele>-9</ele>
        <time>2017-06-21T12:02:12Z</time>
      </trkpt>
      <trkpt lat="63.366956971585751" lon="9.929101997986436">
        <ele>-10.44</ele>
        <time>2017-06-21T12:02:19Z</time>
      </trkpt>
      <trkpt lat="63.367161992937326" lon="9.929307019338012">
        <ele>-9.48</ele>
        <time>2017-06-21T12:02:20Z</time>
      </trkpt>
      <trkpt lat="63.367359973490238" lon="9.929549004882574">
        <ele>-9.48</ele>
        <time>2017-06-21T12:02:21Z</time>
      </trkpt>
      <trkpt lat="63.369303988292813" lon="9.93261200375855">
        <ele>-6.59</ele>
        <time>2017-06-21T12:02:31Z</time>
      </trkpt>
      <trkpt lat="63.371313968673348" lon="9.935009982436895">
        <ele>-5.63</ele>
        <time>2017-06-21T12:02:40Z</time>
      </trkpt>
      <trkpt lat="63.371741026639938" lon="9.935595961287618">
        <ele>-5.63</ele>
        <time>2017-06-21T12:02:42Z</time>
      </trkpt>
      <trkpt lat="63.371933978050947" lon="9.935954958200455">
        <ele>-5.63</ele>
        <time>2017-06-21T12:02:43Z</time>
      </trkpt>
      <trkpt lat="63.37210999801755" lon="9.936357038095594">
        <ele>-5.63</ele>
        <time>2017-06-21T12:02:44Z</time>
      </trkpt>
      <trkpt lat="63.372273026034236" lon="9.936793986707926">
        <ele>-5.63</ele>
        <time>2017-06-21T12:02:45Z</time>
      </trkpt>
      <trkpt lat="63.372425995767117" lon="9.937258008867502">
        <ele>-5.15</ele>
        <time>2017-06-21T12:02:46Z</time>
      </trkpt>
      <trkpt lat="63.373250020667911" lon="9.94036702439189">
        <ele>-6.11</ele>
        <time>2017-06-21T12:02:53Z</time>
      </trkpt>
      <trkpt lat="63.373348005115986" lon="9.940715963020921">
        <ele>-6.59</ele>
        <time>2017-06-21T12:02:54Z</time>
      </trkpt>
      <trkpt lat="63.373469039797783" lon="9.941037995740771">
        <ele>-6.59</ele>
        <time>2017-06-21T12:02:55Z</time>
      </trkpt>
      <trkpt lat="63.373612035065889" lon="9.941306971013546">
        <ele>-6.59</ele>
        <time>2017-06-21T12:02:56Z</time>
      </trkpt>
      <trkpt lat="63.373777996748686" lon="9.941517021507025">
        <ele>-6.59</ele>
        <time>2017-06-21T12:02:57Z</time>
      </trkpt>
      <trkpt lat="63.373961979523301" lon="9.941693963482976">
        <ele>-6.59</ele>
        <time>2017-06-21T12:02:58Z</time>
      </trkpt>
      <trkpt lat="63.374162977561355" lon="9.941837964579463">
        <ele>-6.59</ele>
        <time>2017-06-21T12:02:59Z</time>
      </trkpt>
      <trkpt lat="63.374804025515914" lon="9.942166032269597">
        <ele>-5.63</ele>
        <time>2017-06-21T12:03:02Z</time>
      </trkpt>
      <trkpt lat="63.375031007453799" lon="9.942193021997809">
        <ele>-5.15</ele>
        <time>2017-06-21T12:03:03Z</time>
      </trkpt>
      <trkpt lat="63.375986041501164" lon="9.942197967320681">
        <ele>-5.15</ele>
        <time>2017-06-21T12:03:07Z</time>
      </trkpt>
      <trkpt lat="63.376228027045727" lon="9.942268962040544">
        <ele>-4.19</ele>
        <time>2017-06-21T12:03:08Z</time>
      </trkpt>
      <trkpt lat="63.37647101841867" lon="9.942371975630522">
        <ele>-3.23</ele>
        <time>2017-06-21T12:03:09Z</time>
      </trkpt>
      <trkpt lat="63.378079002723098" lon="9.943096004426479">
        <ele>-1.79</ele>
        <time>2017-06-21T12:03:16Z</time>
      </trkpt>
      <trkpt lat="63.37829701602459" lon="9.943272024393082">
        <ele>-2.75</ele>
        <time>2017-06-21T12:03:17Z</time>
      </trkpt>
      <trkpt lat="63.379135960713029" lon="9.944054977968335">
        <ele>-3.71</ele>
        <time>2017-06-21T12:03:21Z</time>
      </trkpt>
      <trkpt lat="63.379340982064605" lon="9.944181041792035">
        <ele>-3.23</ele>
        <time>2017-06-21T12:03:22Z</time>
      </trkpt>
      <trkpt lat="63.379951016977429" lon="9.944637017324567">
        <ele>-3.71</ele>
        <time>2017-06-21T12:03:25Z</time>
      </trkpt>
      <trkpt lat="63.380128964781761" lon="9.944870034232736">
        <ele>-3.23</ele>
        <time>2017-06-21T12:03:26Z</time>
      </trkpt>
      <trkpt lat="63.380674961954355" lon="9.94556900113821">
        <ele>-1.79</ele>
        <time>2017-06-21T12:03:29Z</time>
      </trkpt>
      <trkpt lat="63.380867997184396" lon="9.945676038041711">
        <ele>-0.34</ele>
        <time>2017-06-21T12:03:30Z</time>
      </trkpt>
      <trkpt lat="63.381052985787392" lon="9.945704033598304">
        <ele>1.1</ele>
        <time>2017-06-21T12:03:31Z</time>
      </trkpt>
      <trkpt lat="63.381423968821764" lon="9.945733034983277">
        <ele>1.58</ele>
        <time>2017-06-21T12:03:33Z</time>
      </trkpt>
      <trkpt lat="63.381614992395043" lon="9.945832025259733">
        <ele>1.1</ele>
        <time>2017-06-21T12:03:34Z</time>
      </trkpt>
      <trkpt lat="63.381799980998039" lon="9.946010978892446">
        <ele>1.1</ele>
        <time>2017-06-21T12:03:35Z</time>
      </trkpt>
      <trkpt lat="63.381987987086177" lon="9.946242989972234">
        <ele>0.62</ele>
        <time>2017-06-21T12:03:36Z</time>
      </trkpt>
      <trkpt lat="63.382181022316217" lon="9.946510037407279">
        <ele>-0.34</ele>
        <time>2017-06-21T12:03:37Z</time>
      </trkpt>
      <trkpt lat="63.38403400965035" lon="9.948690002784133">
        <ele>1.58</ele>
        <time>2017-06-21T12:03:46Z</time>
      </trkpt>
      <trkpt lat="63.385322978720069" lon="9.949158970266581">
        <ele>7.35</ele>
        <time>2017-06-21T12:03:52Z</time>
      </trkpt>
      <trkpt lat="63.387487018480897" lon="9.949866989627481">
        <ele>11.67</ele>
        <time>2017-06-21T12:04:02Z</time>
      </trkpt>
      <trkpt lat="63.38972900994122" lon="9.950970970094204">
        <ele>16.48</ele>
        <time>2017-06-21T12:04:12Z</time>
      </trkpt>
      <trkpt lat="63.392861997708678" lon="9.952545007690787">
        <ele>16.48</ele>
        <time>2017-06-21T12:04:25Z</time>
      </trkpt>
      <trkpt lat="63.396869972348213" lon="9.954737965017557">
        <ele>16.960000000000001</ele>
        <time>2017-06-21T12:04:42Z</time>
      </trkpt>
      <trkpt lat="63.399598030373454" lon="9.95586097240448">
        <ele>14.56</ele>
        <time>2017-06-21T12:04:54Z</time>
      </trkpt>
      <trkpt lat="63.401593007147312" lon="9.957181960344315">
        <ele>16</ele>
        <time>2017-06-21T12:05:03Z</time>
      </trkpt>
      <trkpt lat="63.402992030605674" lon="9.95929503813386">
        <ele>17.440000000000001</ele>
        <time>2017-06-21T12:05:10Z</time>
      </trkpt>
      <trkpt lat="63.404201036319137" lon="9.960376974195242">
        <ele>18.879999999999999</ele>
        <time>2017-06-21T12:05:16Z</time>
      </trkpt>
      <trkpt lat="63.405579021200538" lon="9.960417039692402">
        <ele>25.129999999999999</ele>
        <time>2017-06-21T12:05:22Z</time>
      </trkpt>
      <trkpt lat="63.407121039927006" lon="9.959496036171913">
        <ele>31.379999999999999</ele>
        <time>2017-06-21T12:05:29Z</time>
      </trkpt>
      <trkpt lat="63.407560000196099" lon="9.959321022033691">
        <ele>32.82</ele>
        <time>2017-06-21T12:05:31Z</time>
      </trkpt>
      <trkpt lat="63.407773990184069" lon="9.959299983456731">
        <ele>33.299999999999997</ele>
        <time>2017-06-21T12:05:32Z</time>
      </trkpt>
      <trkpt lat="63.40799099765718" lon="9.95933803729713">
        <ele>33.780000000000001</ele>
        <time>2017-06-21T12:05:33Z</time>
      </trkpt>
      <trkpt lat="63.408208005130291" lon="9.95942403562367">
        <ele>35.229999999999997</ele>
        <time>2017-06-21T12:05:34Z</time>
      </trkpt>
      <trkpt lat="63.40839902870357" lon="9.959548003971577">
        <ele>37.149999999999999</ele>
        <time>2017-06-21T12:05:35Z</time>
      </trkpt>
      <trkpt lat="63.408812005072832" lon="9.9596849642694">
        <ele>40.509999999999998</ele>
        <time>2017-06-21T12:05:37Z</time>
      </trkpt>
      <trkpt lat="63.40902398340404" lon="9.959693010896444">
        <ele>41.950000000000003</ele>
        <time>2017-06-21T12:05:38Z</time>
      </trkpt>
      <trkpt lat="63.410494001582265" lon="9.959020027890801">
        <ele>51.090000000000003</ele>
        <time>2017-06-21T12:05:45Z</time>
      </trkpt>
      <trkpt lat="63.411344010382891" lon="9.958633035421372">
        <ele>54.93</ele>
        <time>2017-06-21T12:05:49Z</time>
      </trkpt>
      <trkpt lat="63.411562023684382" lon="9.958647033199668">
        <ele>56.859999999999999</ele>
        <time>2017-06-21T12:05:50Z</time>
      </trkpt>
      <trkpt lat="63.411777019500732" lon="9.958691960200667">
        <ele>58.299999999999997</ele>
        <time>2017-06-21T12:05:51Z</time>
      </trkpt>
      <trkpt lat="63.412398034706712" lon="9.958817018195987">
        <ele>62.140000000000001</ele>
        <time>2017-06-21T12:05:54Z</time>
      </trkpt>
      <trkpt lat="63.412587968632579" lon="9.958798997104168">
        <ele>63.100000000000001</ele>
        <time>2017-06-21T12:05:55Z</time>
      </trkpt>
      <trkpt lat="63.414027979597449" lon="9.958273032680154">
        <ele>69.349999999999994</ele>
        <time>2017-06-21T12:06:02Z</time>
      </trkpt>
      <trkpt lat="63.415099019184709" lon="9.95835199020803">
        <ele>78.480000000000004</ele>
        <time>2017-06-21T12:06:07Z</time>
      </trkpt>
      <trkpt lat="63.415313009172678" lon="9.958303039893508">
        <ele>79.930000000000007</ele>
        <time>2017-06-21T12:06:08Z</time>
      </trkpt>
      <trkpt lat="63.416104009374976" lon="9.957875981926918">
        <ele>87.620000000000005</ele>
        <time>2017-06-21T12:06:12Z</time>
      </trkpt>
      <trkpt lat="63.416277011856437" lon="9.957698034122586">
        <ele>89.060000000000002</ele>
        <time>2017-06-21T12:06:13Z</time>
      </trkpt>
      <trkpt lat="63.416439034044743" lon="9.957459988072515">
        <ele>90.019999999999996</ele>
        <time>2017-06-21T12:06:14Z</time>
      </trkpt>
      <trkpt lat="63.417518958449364" lon="9.954866040498018">
        <ele>102.04000000000001</ele>
        <time>2017-06-21T12:06:22Z</time>
      </trkpt>
      <trkpt lat="63.418320016935468" lon="9.951602965593338">
        <ele>111.17</ele>
        <time>2017-06-21T12:06:30Z</time>
      </trkpt>
      <trkpt lat="63.418462006375194" lon="9.9512820225209">
        <ele>112.13</ele>
        <time>2017-06-21T12:06:31Z</time>
      </trkpt>
      <trkpt lat="63.41862796805799" lon="9.950998965650797">
        <ele>114.53</ele>
        <time>2017-06-21T12:06:32Z</time>
      </trkpt>
      <trkpt lat="63.418805999681354" lon="9.950759997591376">
        <ele>116.94</ele>
        <time>2017-06-21T12:06:33Z</time>
      </trkpt>
      <trkpt lat="63.41899199411273" lon="9.950572997331619">
        <ele>117.42</ele>
        <time>2017-06-21T12:06:34Z</time>
      </trkpt>
      <trkpt lat="63.419189974665642" lon="9.950450034812093">
        <ele>116.94</ele>
        <time>2017-06-21T12:06:35Z</time>
      </trkpt>
      <trkpt lat="63.419393990188837" lon="9.950361019000411">
        <ele>116.45999999999999</ele>
        <time>2017-06-21T12:06:36Z</time>
      </trkpt>
      <trkpt lat="63.419604040682316" lon="9.950297987088561">
        <ele>115.98</ele>
        <time>2017-06-21T12:06:37Z</time>
      </trkpt>
      <trkpt lat="63.42210603877902" lon="9.94967102073133">
        <ele>125.11</ele>
        <time>2017-06-21T12:06:48Z</time>
      </trkpt>
      <trkpt lat="63.426161035895348" lon="9.948541978374124">
        <ele>135.68000000000001</ele>
        <time>2017-06-21T12:07:06Z</time>
      </trkpt>
      <trkpt lat="63.428075965493917" lon="9.947131974622607">
        <ele>134.72</ele>
        <time>2017-06-21T12:07:15Z</time>
      </trkpt>
      <trkpt lat="63.429899029433727" lon="9.946109969168901">
        <ele>133.75999999999999</ele>
        <time>2017-06-21T12:07:23Z</time>
      </trkpt>
      <trkpt lat="63.432391975075006" lon="9.946418004110456">
        <ele>116.94</ele>
        <time>2017-06-21T12:07:33Z</time>
      </trkpt>
      <trkpt lat="63.433757973834872" lon="9.945959011092782">
        <ele>114.05</ele>
        <time>2017-06-21T12:07:39Z</time>
      </trkpt>
      <trkpt lat="63.43396601267159" lon="9.945724988356233">
        <ele>111.65000000000001</ele>
        <time>2017-06-21T12:07:40Z</time>
      </trkpt>
      <trkpt lat="63.434174973517656" lon="9.945452995598316">
        <ele>110.20999999999999</ele>
        <time>2017-06-21T12:07:41Z</time>
      </trkpt>
      <trkpt lat="63.43437697738409" lon="9.945133980363607">
        <ele>108.77</ele>
        <time>2017-06-21T12:07:42Z</time>
      </trkpt>
      <trkpt lat="63.434563977643847" lon="9.944784035906196">
        <ele>107.81</ele>
        <time>2017-06-21T12:07:43Z</time>
      </trkpt>
      <trkpt lat="63.434734968468547" lon="9.944406012073159">
        <ele>107.31999999999999</ele>
        <time>2017-06-21T12:07:44Z</time>
      </trkpt>
      <trkpt lat="63.434885004535317" lon="9.944010972976685">
        <ele>106.84</ele>
        <time>2017-06-21T12:07:45Z</time>
      </trkpt>
      <trkpt lat="63.435029005631804" lon="9.943602019920945">
        <ele>106.84</ele>
        <time>2017-06-21T12:07:46Z</time>
      </trkpt>
      <trkpt lat="63.435158003121614" lon="9.943171022459865">
        <ele>106.36</ele>
        <time>2017-06-21T12:07:47Z</time>
      </trkpt>
      <trkpt lat="63.435264034196734" lon="9.942716974765062">
        <ele>105.40000000000001</ele>
        <time>2017-06-21T12:07:48Z</time>
      </trkpt>
      <trkpt lat="63.435361012816429" lon="9.942245995625854">
        <ele>104.44</ele>
        <time>2017-06-21T12:07:49Z</time>
      </trkpt>
      <trkpt lat="63.435440976172686" lon="9.941763030365109">
        <ele>103.95999999999999</ele>
        <time>2017-06-21T12:07:50Z</time>
      </trkpt>
      <trkpt lat="63.435509037226439" lon="9.941264977678657">
        <ele>103</ele>
        <time>2017-06-21T12:07:51Z</time>
      </trkpt>
      <trkpt lat="63.43555698171258" lon="9.940760973840952">
        <ele>102.52</ele>
        <time>2017-06-21T12:07:52Z</time>
      </trkpt>
      <trkpt lat="63.435589000582695" lon="9.940242972224951">
        <ele>101.56</ele>
        <time>2017-06-21T12:07:53Z</time>
      </trkpt>
      <trkpt lat="63.435605010017753" lon="9.939713990315795">
        <ele>101.08</ele>
        <time>2017-06-21T12:07:54Z</time>
      </trkpt>
      <trkpt lat="63.43574901111424" lon="9.931943966075778">
        <ele>95.790000000000006</ele>
        <time>2017-06-21T12:08:09Z</time>
      </trkpt>
      <trkpt lat="63.435638034716249" lon="9.924202021211386">
        <ele>96.75</ele>
        <time>2017-06-21T12:08:24Z</time>
      </trkpt>
      <trkpt lat="63.435668963938951" lon="9.920150963589549">
        <ele>97.709999999999994</ele>
        <time>2017-06-21T12:08:32Z</time>
      </trkpt>
      <trkpt lat="63.43572998419404" lon="9.919729018583894">
        <ele>97.709999999999994</ele>
        <time>2017-06-21T12:08:33Z</time>
      </trkpt>
      <trkpt lat="63.435812965035439" lon="9.919341020286083">
        <ele>97.709999999999994</ele>
        <time>2017-06-21T12:08:34Z</time>
      </trkpt>
      <trkpt lat="63.435915978625417" lon="9.918985040858388">
        <ele>97.709999999999994</ele>
        <time>2017-06-21T12:08:35Z</time>
      </trkpt>
      <trkpt lat="63.436052016913891" lon="9.918664013966918">
        <ele>97.230000000000004</ele>
        <time>2017-06-21T12:08:36Z</time>
      </trkpt>
      <trkpt lat="63.436209009960294" lon="9.918376011773944">
        <ele>95.790000000000006</ele>
        <time>2017-06-21T12:08:37Z</time>
      </trkpt>
      <trkpt lat="63.436384024098516" lon="9.91813100874424">
        <ele>94.349999999999994</ele>
        <time>2017-06-21T12:08:38Z</time>
      </trkpt>
      <trkpt lat="63.436583010479808" lon="9.917933028191328">
        <ele>92.900000000000006</ele>
        <time>2017-06-21T12:08:39Z</time>
      </trkpt>
      <trkpt lat="63.436799012124538" lon="9.917773017659783">
        <ele>91.939999999999998</ele>
        <time>2017-06-21T12:08:40Z</time>
      </trkpt>
      <trkpt lat="63.437029011547565" lon="9.917647959664464">
        <ele>90.5</ele>
        <time>2017-06-21T12:08:41Z</time>
      </trkpt>
      <trkpt lat="63.437264040112495" lon="9.917541006579995">
        <ele>90.019999999999996</ele>
        <time>2017-06-21T12:08:42Z</time>
      </trkpt>
      <trkpt lat="63.439611978828907" lon="9.916498968377709">
        <ele>87.140000000000001</ele>
        <time>2017-06-21T12:08:52Z</time>
      </trkpt>
      <trkpt lat="63.440317986533046" lon="9.916310962289572">
        <ele>84.25</ele>
        <time>2017-06-21T12:08:55Z</time>
      </trkpt>
      <trkpt lat="63.441249970346689" lon="9.916388997808099">
        <ele>84.25</ele>
        <time>2017-06-21T12:08:59Z</time>
      </trkpt>
      <trkpt lat="63.442752007395029" lon="9.91725099273026">
        <ele>86.659999999999997</ele>
        <time>2017-06-21T12:09:06Z</time>
      </trkpt>
      <trkpt lat="63.442916963249445" lon="9.917445033788681">
        <ele>87.140000000000001</ele>
        <time>2017-06-21T12:09:07Z</time>
      </trkpt>
      <trkpt lat="63.444382958114147" lon="9.919376978650689">
        <ele>90.5</ele>
        <time>2017-06-21T12:09:17Z</time>
      </trkpt>
      <trkpt lat="63.444554032757878" lon="9.91946498863399">
        <ele>91.939999999999998</ele>
        <time>2017-06-21T12:09:18Z</time>
      </trkpt>
      <trkpt lat="63.444705996662378" lon="9.919516034424305">
        <ele>92.420000000000002</ele>
        <time>2017-06-21T12:09:19Z</time>
      </trkpt>
      <trkpt lat="63.44486097805202" lon="9.919509999454022">
        <ele>92.420000000000002</ele>
        <time>2017-06-21T12:09:20Z</time>
      </trkpt>
      <trkpt lat="63.445013025775552" lon="9.919458031654358">
        <ele>93.390000000000001</ele>
        <time>2017-06-21T12:09:21Z</time>
      </trkpt>
      <trkpt lat="63.445171024650335" lon="9.919347977265716">
        <ele>94.349999999999994</ele>
        <time>2017-06-21T12:09:22Z</time>
      </trkpt>
      <trkpt lat="63.445316031575203" lon="9.919203976169229">
        <ele>94.829999999999998</ele>
        <time>2017-06-21T12:09:23Z</time>
      </trkpt>
      <trkpt lat="63.445450980216265" lon="9.919016975909472">
        <ele>95.790000000000006</ele>
        <time>2017-06-21T12:09:24Z</time>
      </trkpt>
      <trkpt lat="63.445576960220933" lon="9.918783036991954">
        <ele>96.75</ele>
        <time>2017-06-21T12:09:25Z</time>
      </trkpt>
      <trkpt lat="63.445696989074349" lon="9.918511966243386">
        <ele>97.230000000000004</ele>
        <time>2017-06-21T12:09:26Z</time>
      </trkpt>
      <trkpt lat="63.445814000442624" lon="9.91821700707078">
        <ele>97.230000000000004</ele>
        <time>2017-06-21T12:09:27Z</time>
      </trkpt>
      <trkpt lat="63.446629978716373" lon="9.915762031450868">
        <ele>102.04000000000001</ele>
        <time>2017-06-21T12:09:35Z</time>
      </trkpt>
      <trkpt lat="63.447404969483614" lon="9.91340596228838">
        <ele>96.75</ele>
        <time>2017-06-21T12:09:44Z</time>
      </trkpt>
      <trkpt lat="63.447998994961381" lon="9.911247035488486">
        <ele>88.099999999999994</ele>
        <time>2017-06-21T12:09:51Z</time>
      </trkpt>
      <trkpt lat="63.448108965530992" lon="9.910979988053441">
        <ele>87.140000000000001</ele>
        <time>2017-06-21T12:09:52Z</time>
      </trkpt>
      <trkpt lat="63.448237041011453" lon="9.910730039700866">
        <ele>86.180000000000007</ele>
        <time>2017-06-21T12:09:53Z</time>
      </trkpt>
      <trkpt lat="63.448376012966037" lon="9.910512026399374">
        <ele>85.209999999999994</ele>
        <time>2017-06-21T12:09:54Z</time>
      </trkpt>
      <trkpt lat="63.448523031547666" lon="9.910314967855811">
        <ele>84.730000000000004</ele>
        <time>2017-06-21T12:09:55Z</time>
      </trkpt>
      <trkpt lat="63.44980102032423" lon="9.908934971317649">
        <ele>79.930000000000007</ele>
        <time>2017-06-21T12:10:04Z</time>
      </trkpt>
      <trkpt lat="63.451017988845706" lon="9.907661005854607">
        <ele>74.159999999999997</ele>
        <time>2017-06-21T12:10:11Z</time>
      </trkpt>
      <trkpt lat="63.452128004282713" lon="9.90678702481091">
        <ele>67.909999999999997</ele>
        <time>2017-06-21T12:10:16Z</time>
      </trkpt>
      <trkpt lat="63.452343000099063" lon="9.906720975413919">
        <ele>66.950000000000003</ele>
        <time>2017-06-21T12:10:17Z</time>
      </trkpt>
      <trkpt lat="63.452556990087032" lon="9.906688034534454">
        <ele>65.989999999999995</ele>
        <time>2017-06-21T12:10:18Z</time>
      </trkpt>
      <trkpt lat="63.454006975516677" lon="9.90721601061523">
        <ele>60.700000000000003</ele>
        <time>2017-06-21T12:10:25Z</time>
      </trkpt>
      <trkpt lat="63.455864991992712" lon="9.908650992438197">
        <ele>47.240000000000002</ele>
        <time>2017-06-21T12:10:35Z</time>
      </trkpt>
      <trkpt lat="63.457827027887106" lon="9.910327037796378">
        <ele>32.340000000000003</ele>
        <time>2017-06-21T12:10:46Z</time>
      </trkpt>
      <trkpt lat="63.45869698561728" lon="9.91162003017962">
        <ele>22.73</ele>
        <time>2017-06-21T12:10:52Z</time>
      </trkpt>
      <trkpt lat="63.458817014470696" lon="9.911736035719514">
        <ele>21.289999999999999</ele>
        <time>2017-06-21T12:10:53Z</time>
      </trkpt>
      <trkpt lat="63.458942994475365" lon="9.911775011569262">
        <ele>19.359999999999999</ele>
        <time>2017-06-21T12:10:54Z</time>
      </trkpt>
      <trkpt lat="63.459078026935458" lon="9.911721032112837">
        <ele>18.399999999999999</ele>
        <time>2017-06-21T12:10:55Z</time>
      </trkpt>
      <trkpt lat="63.459201995283365" lon="9.911574013531208">
        <ele>16.48</ele>
        <time>2017-06-21T12:10:56Z</time>
      </trkpt>
      <trkpt lat="63.459309032186866" lon="9.91134200245142">
        <ele>15.52</ele>
        <time>2017-06-21T12:10:57Z</time>
      </trkpt>
      <trkpt lat="63.459399975836277" lon="9.911056011915207">
        <ele>14.56</ele>
        <time>2017-06-21T12:10:58Z</time>
      </trkpt>
      <trkpt lat="63.459479017183185" lon="9.910725010558963">
        <ele>13.6</ele>
        <time>2017-06-21T12:10:59Z</time>
      </trkpt>
      <trkpt lat="63.459552023559809" lon="9.910361990332604">
        <ele>12.630000000000001</ele>
        <time>2017-06-21T12:11:00Z</time>
      </trkpt>
      <trkpt lat="63.460084022954106" lon="9.907679026946425">
        <ele>5.42</ele>
        <time>2017-06-21T12:11:07Z</time>
      </trkpt>
      <trkpt lat="63.460182007402182" lon="9.907363029196858">
        <ele>4.94</ele>
        <time>2017-06-21T12:11:08Z</time>
      </trkpt>
      <trkpt lat="63.460294995456934" lon="9.907076032832265">
        <ele>4.46</ele>
        <time>2017-06-21T12:11:09Z</time>
      </trkpt>
      <trkpt lat="63.460423992946744" lon="9.90683002397418">
        <ele>4.46</ele>
        <time>2017-06-21T12:11:10Z</time>
      </trkpt>
      <trkpt lat="63.460562964901328" lon="9.906620979309082">
        <ele>4.46</ele>
        <time>2017-06-21T12:11:11Z</time>
      </trkpt>
      <trkpt lat="63.460710989311337" lon="9.90644495934248">
        <ele>4.46</ele>
        <time>2017-06-21T12:11:12Z</time>
      </trkpt>
      <trkpt lat="63.460863959044218" lon="9.906296012923122">
        <ele>4.94</ele>
        <time>2017-06-21T12:11:13Z</time>
      </trkpt>
      <trkpt lat="63.461026987060905" lon="9.90618696436286">
        <ele>5.91</ele>
        <time>2017-06-21T12:11:14Z</time>
      </trkpt>
      <trkpt lat="63.461197977885604" lon="9.90612200461328">
        <ele>6.87</ele>
        <time>2017-06-21T12:11:15Z</time>
      </trkpt>
      <trkpt lat="63.461376009508967" lon="9.906084034591913">
        <ele>8.310000000000001</ele>
        <time>2017-06-21T12:11:16Z</time>
      </trkpt>
      <trkpt lat="63.46155496314168" lon="9.90605796687305">
        <ele>9.75</ele>
        <time>2017-06-21T12:11:17Z</time>
      </trkpt>
      <trkpt lat="63.462566994130611" lon="9.9058429710567">
        <ele>14.08</ele>
        <time>2017-06-21T12:11:23Z</time>
      </trkpt>
      <trkpt lat="63.462706971913576" lon="9.905725037679076">
        <ele>14.56</ele>
        <time>2017-06-21T12:11:24Z</time>
      </trkpt>
      <trkpt lat="63.462836975231767" lon="9.905561003834009">
        <ele>15.039999999999999</ele>
        <time>2017-06-21T12:11:25Z</time>
      </trkpt>
      <trkpt lat="63.462953986600041" lon="9.905353970825672">
        <ele>15.039999999999999</ele>
        <time>2017-06-21T12:11:26Z</time>
      </trkpt>
      <trkpt lat="63.463048031553626" lon="9.905091030523181">
        <ele>15.039999999999999</ele>
        <time>2017-06-21T12:11:27Z</time>
      </trkpt>
      <trkpt lat="63.463121959939599" lon="9.904770003631711">
        <ele>15.039999999999999</ele>
        <time>2017-06-21T12:11:28Z</time>
      </trkpt>
      <trkpt lat="63.463177029043436" lon="9.9044010322541">
        <ele>16.48</ele>
        <time>2017-06-21T12:11:29Z</time>
      </trkpt>
      <trkpt lat="63.463213993236423" lon="9.904015967622399">
        <ele>16.960000000000001</ele>
        <time>2017-06-21T12:11:30Z</time>
      </trkpt>
      <trkpt lat="63.463308038190007" lon="9.903229996562004">
        <ele>18.399999999999999</ele>
        <time>2017-06-21T12:11:32Z</time>
      </trkpt>
      <trkpt lat="63.463380038738251" lon="9.902843004092574">
        <ele>19.84</ele>
        <time>2017-06-21T12:11:33Z</time>
      </trkpt>
      <trkpt lat="63.463472994044423" lon="9.902479983866215">
        <ele>20.809999999999999</ele>
        <time>2017-06-21T12:11:34Z</time>
      </trkpt>
      <trkpt lat="63.463581958785653" lon="9.902128027752042">
        <ele>22.25</ele>
        <time>2017-06-21T12:11:35Z</time>
      </trkpt>
      <trkpt lat="63.463697964325547" lon="9.901816975325346">
        <ele>23.210000000000001</ele>
        <time>2017-06-21T12:11:36Z</time>
      </trkpt>
      <trkpt lat="63.463828973472118" lon="9.901528973132372">
        <ele>24.170000000000002</ele>
        <time>2017-06-21T12:11:37Z</time>
      </trkpt>
      <trkpt lat="63.463974986225367" lon="9.901273995637894">
        <ele>24.649999999999999</ele>
        <time>2017-06-21T12:11:38Z</time>
      </trkpt>
      <trkpt lat="63.464129967615008" lon="9.901040978729725">
        <ele>25.129999999999999</ele>
        <time>2017-06-21T12:11:39Z</time>
      </trkpt>
      <trkpt lat="63.464290983974934" lon="9.900824977084994">
        <ele>25.129999999999999</ele>
        <time>2017-06-21T12:11:40Z</time>
      </trkpt>
      <trkpt lat="63.465732000768185" lon="9.899115990847349">
        <ele>34.259999999999998</ele>
        <time>2017-06-21T12:11:49Z</time>
      </trkpt>
      <trkpt lat="63.467679033055902" lon="9.896407965570688">
        <ele>46.759999999999998</ele>
        <time>2017-06-21T12:12:02Z</time>
      </trkpt>
      <trkpt lat="63.469209987670183" lon="9.894138984382153">
        <ele>39.07</ele>
        <time>2017-06-21T12:12:11Z</time>
      </trkpt>
      <trkpt lat="63.470344981178641" lon="9.89249998703599">
        <ele>39.549999999999997</ele>
        <time>2017-06-21T12:12:19Z</time>
      </trkpt>
      <trkpt lat="63.471880964934826" lon="9.890830982476473">
        <ele>44.840000000000003</ele>
        <time>2017-06-21T12:12:30Z</time>
      </trkpt>
      <trkpt lat="63.471989007666707" lon="9.890622021630406">
        <ele>44.359999999999999</ele>
        <time>2017-06-21T12:12:31Z</time>
      </trkpt>
      <trkpt lat="63.472078023478389" lon="9.890368971973658">
        <ele>43.399999999999999</ele>
        <time>2017-06-21T12:12:32Z</time>
      </trkpt>
      <trkpt lat="63.472143989056349" lon="9.890076024457812">
        <ele>41.950000000000003</ele>
        <time>2017-06-21T12:12:33Z</time>
      </trkpt>
      <trkpt lat="63.472198974341154" lon="9.88974804058671">
        <ele>40.509999999999998</ele>
        <time>2017-06-21T12:12:34Z</time>
      </trkpt>
      <trkpt lat="63.472244990989566" lon="9.889382002875209">
        <ele>38.590000000000003</ele>
        <time>2017-06-21T12:12:35Z</time>
      </trkpt>
      <trkpt lat="63.472814960405231" lon="9.885125001892448">
        <ele>20.809999999999999</ele>
        <time>2017-06-21T12:12:46Z</time>
      </trkpt>
      <trkpt lat="63.472902970388532" lon="9.884806992486119">
        <ele>19.359999999999999</ele>
        <time>2017-06-21T12:12:47Z</time>
      </trkpt>
      <trkpt lat="63.473015036433935" lon="9.884519996121526">
        <ele>18.879999999999999</ele>
        <time>2017-06-21T12:12:48Z</time>
      </trkpt>
      <trkpt lat="63.47315602004528" lon="9.884303994476795">
        <ele>18.399999999999999</ele>
        <time>2017-06-21T12:12:49Z</time>
      </trkpt>
      <trkpt lat="63.473304966464639" lon="9.884124035015702">
        <ele>17.440000000000001</ele>
        <time>2017-06-21T12:12:50Z</time>
      </trkpt>
      <trkpt lat="63.473745016381145" lon="9.883693037554622">
        <ele>16.48</ele>
        <time>2017-06-21T12:12:53Z</time>
      </trkpt>
      <trkpt lat="63.473869990557432" lon="9.883507965132594">
        <ele>16</ele>
        <time>2017-06-21T12:12:54Z</time>
      </trkpt>
      <trkpt lat="63.473988007754087" lon="9.883288023993373">
        <ele>16.48</ele>
        <time>2017-06-21T12:12:55Z</time>
      </trkpt>
      <trkpt lat="63.474090015515685" lon="9.883007984608412">
        <ele>16</ele>
        <time>2017-06-21T12:12:56Z</time>
      </trkpt>
      <trkpt lat="63.474193029105663" lon="9.882718976587057">
        <ele>15.52</ele>
        <time>2017-06-21T12:12:57Z</time>
      </trkpt>
      <trkpt lat="63.474281039088964" lon="9.882403984665871">
        <ele>13.6</ele>
        <time>2017-06-21T12:12:58Z</time>
      </trkpt>
      <trkpt lat="63.4755830001086" lon="9.87831998616457">
        <ele>11.19</ele>
        <time>2017-06-21T12:13:10Z</time>
      </trkpt>
      <trkpt lat="63.47695603966713" lon="9.875706005841494">
        <ele>11.67</ele>
        <time>2017-06-21T12:13:19Z</time>
      </trkpt>
      <trkpt lat="63.478581039234996" lon="9.873795015737414">
        <ele>15.039999999999999</ele>
        <time>2017-06-21T12:13:28Z</time>
      </trkpt>
      <trkpt lat="63.478903993964195" lon="9.873331999406219">
        <ele>14.56</ele>
        <time>2017-06-21T12:13:30Z</time>
      </trkpt>
      <trkpt lat="63.479037014767528" lon="9.873070986941457">
        <ele>14.56</ele>
        <time>2017-06-21T12:13:31Z</time>
      </trkpt>
      <trkpt lat="63.479153020307422" lon="9.872758006677032">
        <ele>15.039999999999999</ele>
        <time>2017-06-21T12:13:32Z</time>
      </trkpt>
      <trkpt lat="63.479248993098736" lon="9.872418036684394">
        <ele>15.039999999999999</ele>
        <time>2017-06-21T12:13:33Z</time>
      </trkpt>
      <trkpt lat="63.479341026395559" lon="9.872042024508119">
        <ele>15.52</ele>
        <time>2017-06-21T12:13:34Z</time>
      </trkpt>
      <trkpt lat="63.479420989751816" lon="9.871644973754883">
        <ele>15.039999999999999</ele>
        <time>2017-06-21T12:13:35Z</time>
      </trkpt>
      <trkpt lat="63.480048039928079" lon="9.869432989507914">
        <ele>11.19</ele>
        <time>2017-06-21T12:13:41Z</time>
      </trkpt>
      <trkpt lat="63.480644999071956" lon="9.867938999086618">
        <ele>8.789999999999999</ele>
        <time>2017-06-21T12:13:46Z</time>
      </trkpt>
      <trkpt lat="63.480791011825204" lon="9.867710005491972">
        <ele>8.310000000000001</ele>
        <time>2017-06-21T12:13:47Z</time>
      </trkpt>
      <trkpt lat="63.480959990993142" lon="9.867545971646905">
        <ele>8.310000000000001</ele>
        <time>2017-06-21T12:13:48Z</time>
      </trkpt>
      <trkpt lat="63.481146991252899" lon="9.867439018562436">
        <ele>8.310000000000001</ele>
        <time>2017-06-21T12:13:49Z</time>
      </trkpt>
      <trkpt lat="63.481347989290953" lon="9.867371041327715">
        <ele>9.27</ele>
        <time>2017-06-21T12:13:50Z</time>
      </trkpt>
      <trkpt lat="63.481553010642529" lon="9.867317983880639">
        <ele>9.75</ele>
        <time>2017-06-21T12:13:51Z</time>
      </trkpt>
      <trkpt lat="63.481961041688919" lon="9.86712503246963">
        <ele>11.19</ele>
        <time>2017-06-21T12:13:53Z</time>
      </trkpt>
      <trkpt lat="63.482152987271547" lon="9.866936020553112">
        <ele>11.19</ele>
        <time>2017-06-21T12:13:54Z</time>
      </trkpt>
      <trkpt lat="63.482334958389401" lon="9.866689005866647">
        <ele>11.67</ele>
        <time>2017-06-21T12:13:55Z</time>
      </trkpt>
      <trkpt lat="63.482496980577707" lon="9.866388011723757">
        <ele>12.15</ele>
        <time>2017-06-21T12:13:56Z</time>
      </trkpt>
      <trkpt lat="63.482636036351323" lon="9.866038989275694">
        <ele>12.15</ele>
        <time>2017-06-21T12:13:57Z</time>
      </trkpt>
      <trkpt lat="63.482743995264173" lon="9.865647973492742">
        <ele>13.119999999999999</ele>
        <time>2017-06-21T12:13:58Z</time>
      </trkpt>
      <trkpt lat="63.482829993590713" lon="9.865229967981577">
        <ele>13.6</ele>
        <time>2017-06-21T12:13:59Z</time>
      </trkpt>
      <trkpt lat="63.482890008017421" lon="9.8647849727422">
        <ele>14.08</ele>
        <time>2017-06-21T12:14:00Z</time>
      </trkpt>
      <trkpt lat="63.482935018837452" lon="9.864323968067765">
        <ele>14.56</ele>
        <time>2017-06-21T12:14:01Z</time>
      </trkpt>
      <trkpt lat="63.482965026050806" lon="9.863850977271795">
        <ele>15.039999999999999</ele>
        <time>2017-06-21T12:14:02Z</time>
      </trkpt>
      <trkpt lat="63.483312036842108" lon="9.858021028339863">
        <ele>12.630000000000001</ele>
        <time>2017-06-21T12:14:14Z</time>
      </trkpt>
      <trkpt lat="63.483522003516555" lon="9.85464203171432">
        <ele>11.19</ele>
        <time>2017-06-21T12:14:22Z</time>
      </trkpt>
      <trkpt lat="63.483891980722547" lon="9.848860027268529">
        <ele>4.94</ele>
        <time>2017-06-21T12:14:36Z</time>
      </trkpt>
      <trkpt lat="63.483960963785648" lon="9.848451996222138">
        <ele>3.98</ele>
        <time>2017-06-21T12:14:37Z</time>
      </trkpt>
      <trkpt lat="63.484054002910852" lon="9.848079001531005">
        <ele>3.02</ele>
        <time>2017-06-21T12:14:38Z</time>
      </trkpt>
      <trkpt lat="63.484171014279127" lon="9.847756968811154">
        <ele>2.06</ele>
        <time>2017-06-21T12:14:39Z</time>
      </trkpt>
      <trkpt lat="63.484315015375614" lon="9.847491011023521">
        <ele>3.02</ele>
        <time>2017-06-21T12:14:40Z</time>
      </trkpt>
      <trkpt lat="63.484477959573269" lon="9.847294958308339">
        <ele>3.98</ele>
        <time>2017-06-21T12:14:41Z</time>
      </trkpt>
      <trkpt lat="63.484653979539871" lon="9.847156992182136">
        <ele>4.94</ele>
        <time>2017-06-21T12:14:42Z</time>
      </trkpt>
      <trkpt lat="63.484841985628009" lon="9.847082979977131">
        <ele>7.83</ele>
        <time>2017-06-21T12:14:43Z</time>
      </trkpt>
      <trkpt lat="63.485030997544527" lon="9.847034029662609">
        <ele>9.75</ele>
        <time>2017-06-21T12:14:44Z</time>
      </trkpt>
      <trkpt lat="63.486935030668974" lon="9.846660029143095">
        <ele>15.039999999999999</ele>
        <time>2017-06-21T12:14:53Z</time>
      </trkpt>
      <trkpt lat="63.488915003836155" lon="9.846293991431594">
        <ele>13.6</ele>
        <time>2017-06-21T12:15:03Z</time>
      </trkpt>
      <trkpt lat="63.491960987448692" lon="9.845700971782208">
        <ele>16.48</ele>
        <time>2017-06-21T12:15:19Z</time>
      </trkpt>
      <trkpt lat="63.493623035028577" lon="9.844815004616976">
        <ele>20.32</ele>
        <time>2017-06-21T12:15:28Z</time>
      </trkpt>
      <trkpt lat="63.494707988575101" lon="9.843017002567649">
        <ele>27.530000000000001</ele>
        <time>2017-06-21T12:15:35Z</time>
      </trkpt>
      <trkpt lat="63.496826011687517" lon="9.838758995756507">
        <ele>27.050000000000001</ele>
        <time>2017-06-21T12:15:50Z</time>
      </trkpt>
      <trkpt lat="63.49917302839458" lon="9.834064962342382">
        <ele>16.48</ele>
        <time>2017-06-21T12:16:08Z</time>
      </trkpt>
      <trkpt lat="63.500987039878964" lon="9.830157989636064">
        <ele>5.42</ele>
        <time>2017-06-21T12:16:23Z</time>
      </trkpt>
      <trkpt lat="63.502209037542343" lon="9.828255968168378">
        <ele>3.98</ele>
        <time>2017-06-21T12:16:33Z</time>
      </trkpt>
      <trkpt lat="63.503280999138951" lon="9.827118963003159">
        <ele>4.46</ele>
        <time>2017-06-21T12:16:41Z</time>
      </trkpt>
      <trkpt lat="63.504229998216033" lon="9.826504988595843">
        <ele>5.42</ele>
        <time>2017-06-21T12:16:50Z</time>
      </trkpt>
      <trkpt lat="63.505719965323806" lon="9.825502010062337">
        <ele>18.399999999999999</ele>
        <time>2017-06-21T12:17:04Z</time>
      </trkpt>
      <trkpt lat="63.506729984655976" lon="9.824396017938852">
        <ele>27.050000000000001</ele>
        <time>2017-06-21T12:17:13Z</time>
      </trkpt>
      <trkpt lat="63.506836015731096" lon="9.824170041829348">
        <ele>27.050000000000001</ele>
        <time>2017-06-21T12:17:14Z</time>
      </trkpt>
      <trkpt lat="63.506937017664313" lon="9.823916992172599">
        <ele>26.57</ele>
        <time>2017-06-21T12:17:15Z</time>
      </trkpt>
      <trkpt lat="63.507031984627247" lon="9.823624966666102">
        <ele>26.09</ele>
        <time>2017-06-21T12:17:16Z</time>
      </trkpt>
      <trkpt lat="63.507119994610548" lon="9.823310980573297">
        <ele>25.129999999999999</ele>
        <time>2017-06-21T12:17:17Z</time>
      </trkpt>
      <trkpt lat="63.507201969623566" lon="9.82297201640904">
        <ele>24.649999999999999</ele>
        <time>2017-06-21T12:17:18Z</time>
      </trkpt>
      <trkpt lat="63.507800018414855" lon="9.820529026910663">
        <ele>24.170000000000002</ele>
        <time>2017-06-21T12:17:25Z</time>
      </trkpt>
      <trkpt lat="63.507927004247904" lon="9.820235995575786">
        <ele>25.609999999999999</ele>
        <time>2017-06-21T12:17:26Z</time>
      </trkpt>
      <trkpt lat="63.509478997439146" lon="9.817328983917832">
        <ele>27.530000000000001</ele>
        <time>2017-06-21T12:17:37Z</time>
      </trkpt>
      <trkpt lat="63.510664030909538" lon="9.816021993756294">
        <ele>23.690000000000001</ele>
        <time>2017-06-21T12:17:45Z</time>
      </trkpt>
      <trkpt lat="63.510795962065458" lon="9.815800962969661">
        <ele>23.210000000000001</ele>
        <time>2017-06-21T12:17:46Z</time>
      </trkpt>
      <trkpt lat="63.510914985090494" lon="9.815555037930608">
        <ele>22.73</ele>
        <time>2017-06-21T12:17:47Z</time>
      </trkpt>
      <trkpt lat="63.511025039479136" lon="9.81528103351593">
        <ele>21.77</ele>
        <time>2017-06-21T12:17:48Z</time>
      </trkpt>
      <trkpt lat="63.511126041412354" lon="9.814985990524292">
        <ele>21.289999999999999</ele>
        <time>2017-06-21T12:17:49Z</time>
      </trkpt>
      <trkpt lat="63.511215979233384" lon="9.814676027745009">
        <ele>19.84</ele>
        <time>2017-06-21T12:17:50Z</time>
      </trkpt>
      <trkpt lat="63.511295020580292" lon="9.814341003075242">
        <ele>18.399999999999999</ele>
        <time>2017-06-21T12:17:51Z</time>
      </trkpt>
      <trkpt lat="63.511370038613677" lon="9.813994998112321">
        <ele>16.960000000000001</ele>
        <time>2017-06-21T12:17:52Z</time>
      </trkpt>
      <trkpt lat="63.512202026322484" lon="9.810397988185287">
        <ele>15.039999999999999</ele>
        <time>2017-06-21T12:18:03Z</time>
      </trkpt>
      <trkpt lat="63.513234006240964" lon="9.808417009189725">
        <ele>12.15</ele>
        <time>2017-06-21T12:18:11Z</time>
      </trkpt>
      <trkpt lat="63.515006024390459" lon="9.805797999724746">
        <ele>7.35</ele>
        <time>2017-06-21T12:18:24Z</time>
      </trkpt>
      <trkpt lat="63.515300983563066" lon="9.805414024740458">
        <ele>5.91</ele>
        <time>2017-06-21T12:18:26Z</time>
      </trkpt>
      <trkpt lat="63.515463005751371" lon="9.805268011987209">
        <ele>5.42</ele>
        <time>2017-06-21T12:18:27Z</time>
      </trkpt>
      <trkpt lat="63.515638019889593" lon="9.805170027539134">
        <ele>5.91</ele>
        <time>2017-06-21T12:18:28Z</time>
      </trkpt>
      <trkpt lat="63.515814039856195" lon="9.805111018940806">
        <ele>6.39</ele>
        <time>2017-06-21T12:18:29Z</time>
      </trkpt>
      <trkpt lat="63.515995005145669" lon="9.805094003677368">
        <ele>6.87</ele>
        <time>2017-06-21T12:18:30Z</time>
      </trkpt>
      <trkpt lat="63.516175970435143" lon="9.80509702116251">
        <ele>7.83</ele>
        <time>2017-06-21T12:18:31Z</time>
      </trkpt>
      <trkpt lat="63.51747902110219" lon="9.805369013920426">
        <ele>6.87</ele>
        <time>2017-06-21T12:18:38Z</time>
      </trkpt>
      <trkpt lat="63.517637019976974" lon="9.805507985875011">
        <ele>6.87</ele>
        <time>2017-06-21T12:18:39Z</time>
      </trkpt>
      <trkpt lat="63.517784038558602" lon="9.805704960599542">
        <ele>6.87</ele>
        <time>2017-06-21T12:18:40Z</time>
      </trkpt>
      <trkpt lat="63.517914963886142" lon="9.805960021913052">
        <ele>7.35</ele>
        <time>2017-06-21T12:18:41Z</time>
      </trkpt>
      <trkpt lat="63.518033986911178" lon="9.806262021884322">
        <ele>6.87</ele>
        <time>2017-06-21T12:18:42Z</time>
      </trkpt>
      <trkpt lat="63.51814404129982" lon="9.806611966341734">
        <ele>6.39</ele>
        <time>2017-06-21T12:18:43Z</time>
      </trkpt>
      <trkpt lat="63.518247976899147" lon="9.80696702376008">
        <ele>6.39</ele>
        <time>2017-06-21T12:18:44Z</time>
      </trkpt>
      <trkpt lat="63.518556011840701" lon="9.807875035330653">
        <ele>6.87</ele>
        <time>2017-06-21T12:18:47Z</time>
      </trkpt>
      <trkpt lat="63.518671011552215" lon="9.8080850020051">
        <ele>6.87</ele>
        <time>2017-06-21T12:18:48Z</time>
      </trkpt>
      <trkpt lat="63.518804032355547" lon="9.808245012536645">
        <ele>6.87</ele>
        <time>2017-06-21T12:18:49Z</time>
      </trkpt>
      <trkpt lat="63.518949039280415" lon="9.808353977277875">
        <ele>6.87</ele>
        <time>2017-06-21T12:18:50Z</time>
      </trkpt>
      <trkpt lat="63.519107960164547" lon="9.808403011411429">
        <ele>6.39</ele>
        <time>2017-06-21T12:18:51Z</time>
      </trkpt>
      <trkpt lat="63.519276017323136" lon="9.808425977826119">
        <ele>5.91</ele>
        <time>2017-06-21T12:18:52Z</time>
      </trkpt>
      <trkpt lat="63.519440973177552" lon="9.808447016403079">
        <ele>5.42</ele>
        <time>2017-06-21T12:18:53Z</time>
      </trkpt>
      <trkpt lat="63.519611964002252" lon="9.808498984202743">
        <ele>4.94</ele>
        <time>2017-06-21T12:18:54Z</time>
      </trkpt>
      <trkpt lat="63.519783960655332" lon="9.808596968650818">
        <ele>4.94</ele>
        <time>2017-06-21T12:18:55Z</time>
      </trkpt>
      <trkpt lat="63.519958974793553" lon="9.808738958090544">
        <ele>4.94</ele>
        <time>2017-06-21T12:18:56Z</time>
      </trkpt>
      <trkpt lat="63.520134994760156" lon="9.808908021077514">
        <ele>4.94</ele>
        <time>2017-06-21T12:18:57Z</time>
      </trkpt>
      <trkpt lat="63.522521993145347" lon="9.811572041362524">
        <ele>5.42</ele>
        <time>2017-06-21T12:19:10Z</time>
      </trkpt>
      <trkpt lat="63.523508962243795" lon="9.813412958756089">
        <ele>7.83</ele>
        <time>2017-06-21T12:19:16Z</time>
      </trkpt>
      <trkpt lat="63.524328041821718" lon="9.815503992140293">
        <ele>11.19</ele>
        <time>2017-06-21T12:19:23Z</time>
      </trkpt>
      <trkpt lat="63.524691984057426" lon="9.816565979272127">
        <ele>10.710000000000001</ele>
        <time>2017-06-21T12:19:27Z</time>
      </trkpt>
      <trkpt lat="63.524753004312515" lon="9.816854987293482">
        <ele>10.710000000000001</ele>
        <time>2017-06-21T12:19:28Z</time>
      </trkpt>
      <trkpt lat="63.524783011525869" lon="9.817164028063417">
        <ele>9.75</ele>
        <time>2017-06-21T12:19:29Z</time>
      </trkpt>
      <trkpt lat="63.524788962677121" lon="9.817483965307474">
        <ele>9.75</ele>
        <time>2017-06-21T12:19:30Z</time>
      </trkpt>
      <trkpt lat="63.524775970727205" lon="9.817822007462382">
        <ele>9.75</ele>
        <time>2017-06-21T12:19:31Z</time>
      </trkpt>
      <trkpt lat="63.524746969342232" lon="9.818172035738826">
        <ele>9.75</ele>
        <time>2017-06-21T12:19:32Z</time>
      </trkpt>
      <trkpt lat="63.524715034291148" lon="9.818896986544132">
        <ele>8.789999999999999</ele>
        <time>2017-06-21T12:19:34Z</time>
      </trkpt>
      <trkpt lat="63.5247209854424" lon="9.819280039519072">
        <ele>8.310000000000001</ele>
        <time>2017-06-21T12:19:35Z</time>
      </trkpt>
      <trkpt lat="63.524742024019361" lon="9.819663008674979">
        <ele>8.310000000000001</ele>
        <time>2017-06-21T12:19:36Z</time>
      </trkpt>
      <trkpt lat="63.524933969601989" lon="9.82147098518908">
        <ele>8.310000000000001</ele>
        <time>2017-06-21T12:19:41Z</time>
      </trkpt>
      <trkpt lat="63.525015022605658" lon="9.821800980716944">
        <ele>8.789999999999999</ele>
        <time>2017-06-21T12:19:42Z</time>
      </trkpt>
      <trkpt lat="63.525116024538875" lon="9.822109015658498">
        <ele>9.27</ele>
        <time>2017-06-21T12:19:43Z</time>
      </trkpt>
      <trkpt lat="63.526069968938828" lon="9.824789967387915">
        <ele>11.19</ele>
        <time>2017-06-21T12:19:52Z</time>
      </trkpt>
      <trkpt lat="63.526198966428638" lon="9.825031030923128">
        <ele>11.19</ele>
        <time>2017-06-21T12:19:53Z</time>
      </trkpt>
      <trkpt lat="63.526335004717112" lon="9.825234962627292">
        <ele>11.19</ele>
        <time>2017-06-21T12:19:54Z</time>
      </trkpt>
      <trkpt lat="63.526475988328457" lon="9.825397990643978">
        <ele>11.19</ele>
        <time>2017-06-21T12:19:55Z</time>
      </trkpt>
      <trkpt lat="63.526625018566847" lon="9.825517013669014">
        <ele>11.19</ele>
        <time>2017-06-21T12:19:56Z</time>
      </trkpt>
      <trkpt lat="63.52678301744163" lon="9.825594965368509">
        <ele>11.19</ele>
        <time>2017-06-21T12:19:57Z</time>
      </trkpt>
      <trkpt lat="63.526945039629936" lon="9.825640982016921">
        <ele>10.710000000000001</ele>
        <time>2017-06-21T12:19:58Z</time>
      </trkpt>
      <trkpt lat="63.527108989655972" lon="9.825641987845302">
        <ele>10.710000000000001</ele>
        <time>2017-06-21T12:19:59Z</time>
      </trkpt>
      <trkpt lat="63.52727796882391" lon="9.825588008388877">
        <ele>10.710000000000001</ele>
        <time>2017-06-21T12:20:00Z</time>
      </trkpt>
      <trkpt lat="63.527443008497357" lon="9.825492035597563">
        <ele>10.23</ele>
        <time>2017-06-21T12:20:01Z</time>
      </trkpt>
      <trkpt lat="63.527606958523393" lon="9.825360020622611">
        <ele>10.23</ele>
        <time>2017-06-21T12:20:02Z</time>
      </trkpt>
      <trkpt lat="63.528293017297983" lon="9.824949977919459">
        <ele>6.39</ele>
        <time>2017-06-21T12:20:06Z</time>
      </trkpt>
      <trkpt lat="63.528469959273934" lon="9.824957018718123">
        <ele>5.42</ele>
        <time>2017-06-21T12:20:07Z</time>
      </trkpt>
      <trkpt lat="63.528650002554059" lon="9.825016027316451">
        <ele>4.94</ele>
        <time>2017-06-21T12:20:08Z</time>
      </trkpt>
      <trkpt lat="63.528835996985435" lon="9.825120968744159">
        <ele>4.46</ele>
        <time>2017-06-21T12:20:09Z</time>
      </trkpt>
      <trkpt lat="63.529031965881586" lon="9.825276033952832">
        <ele>4.46</ele>
        <time>2017-06-21T12:20:10Z</time>
      </trkpt>
      <trkpt lat="63.529237993061543" lon="9.825460016727448">
        <ele>4.46</ele>
        <time>2017-06-21T12:20:11Z</time>
      </trkpt>
      <trkpt lat="63.530480023473501" lon="9.826666004955769">
        <ele>4.94</ele>
        <time>2017-06-21T12:20:18Z</time>
      </trkpt>
      <trkpt lat="63.530599968507886" lon="9.826869014650583">
        <ele>5.42</ele>
        <time>2017-06-21T12:20:19Z</time>
      </trkpt>
      <trkpt lat="63.530700970441103" lon="9.827137989923358">
        <ele>6.87</ele>
        <time>2017-06-21T12:20:20Z</time>
      </trkpt>
      <trkpt lat="63.530786968767643" lon="9.827423980459571">
        <ele>6.87</ele>
        <time>2017-06-21T12:20:21Z</time>
      </trkpt>
      <trkpt lat="63.530872967094183" lon="9.82769999653101">
        <ele>7.35</ele>
        <time>2017-06-21T12:20:22Z</time>
      </trkpt>
      <trkpt lat="63.530966006219387" lon="9.827931001782417">
        <ele>6.87</ele>
        <time>2017-06-21T12:20:23Z</time>
      </trkpt>
      <trkpt lat="63.531072037294507" lon="9.828131999820471">
        <ele>6.87</ele>
        <time>2017-06-21T12:20:24Z</time>
      </trkpt>
      <trkpt lat="63.531197011470795" lon="9.828300978988409">
        <ele>6.87</ele>
        <time>2017-06-21T12:20:25Z</time>
      </trkpt>
      <trkpt lat="63.531343024224043" lon="9.828425031155348">
        <ele>6.39</ele>
        <time>2017-06-21T12:20:26Z</time>
      </trkpt>
      <trkpt lat="63.531501023098826" lon="9.828533995896578">
        <ele>6.39</ele>
        <time>2017-06-21T12:20:27Z</time>
      </trkpt>
      <trkpt lat="63.531668996438384" lon="9.82862401753664">
        <ele>5.91</ele>
        <time>2017-06-21T12:20:28Z</time>
      </trkpt>
      <trkpt lat="63.53301202878356" lon="9.829303035512567">
        <ele>5.91</ele>
        <time>2017-06-21T12:20:35Z</time>
      </trkpt>
      <trkpt lat="63.533191988244653" lon="9.829467991366983">
        <ele>5.91</ele>
        <time>2017-06-21T12:20:36Z</time>
      </trkpt>
      <trkpt lat="63.53382901288569" lon="9.830151032656431">
        <ele>5.91</ele>
        <time>2017-06-21T12:20:40Z</time>
      </trkpt>
      <trkpt lat="63.533976031467319" lon="9.83023501932621">
        <ele>5.91</ele>
        <time>2017-06-21T12:20:41Z</time>
      </trkpt>
      <trkpt lat="63.534134030342102" lon="9.830253040418029">
        <ele>6.39</ele>
        <time>2017-06-21T12:20:42Z</time>
      </trkpt>
      <trkpt lat="63.534298986196518" lon="9.830227978527546">
        <ele>6.39</ele>
        <time>2017-06-21T12:20:43Z</time>
      </trkpt>
      <trkpt lat="63.534468971192837" lon="9.830169975757599">
        <ele>6.39</ele>
        <time>2017-06-21T12:20:44Z</time>
      </trkpt>
      <trkpt lat="63.535004993900657" lon="9.830104010179639">
        <ele>5.91</ele>
        <time>2017-06-21T12:20:47Z</time>
      </trkpt>
      <trkpt lat="63.535184031352401" lon="9.830178022384644">
        <ele>6.39</ele>
        <time>2017-06-21T12:20:48Z</time>
      </trkpt>
      <trkpt lat="63.536669975146651" lon="9.830569038167596">
        <ele>9.27</ele>
        <time>2017-06-21T12:20:56Z</time>
      </trkpt>
      <trkpt lat="63.536844989284873" lon="9.830497037619352">
        <ele>9.75</ele>
        <time>2017-06-21T12:20:57Z</time>
      </trkpt>
      <trkpt lat="63.537014974281192" lon="9.830376002937555">
        <ele>10.23</ele>
        <time>2017-06-21T12:20:58Z</time>
      </trkpt>
      <trkpt lat="63.537182025611401" lon="9.830210963264108">
        <ele>10.23</ele>
        <time>2017-06-21T12:20:59Z</time>
      </trkpt>
      <trkpt lat="63.538046032190323" lon="9.829453993588686">
        <ele>12.15</ele>
        <time>2017-06-21T12:21:04Z</time>
      </trkpt>
      <trkpt lat="63.538240995258093" lon="9.829407976940274">
        <ele>12.15</ele>
        <time>2017-06-21T12:21:05Z</time>
      </trkpt>
      <trkpt lat="63.538441993296146" lon="9.829407976940274">
        <ele>12.630000000000001</ele>
        <time>2017-06-21T12:21:06Z</time>
      </trkpt>
      <trkpt lat="63.538639973849058" lon="9.829443013295531">
        <ele>12.630000000000001</ele>
        <time>2017-06-21T12:21:07Z</time>
      </trkpt>
      <trkpt lat="63.53883502073586" lon="9.829532029107213">
        <ele>13.119999999999999</ele>
        <time>2017-06-21T12:21:08Z</time>
      </trkpt>
      <trkpt lat="63.539026966318488" lon="9.829669995233417">
        <ele>13.6</ele>
        <time>2017-06-21T12:21:09Z</time>
      </trkpt>
      <trkpt lat="63.539217989891768" lon="9.829836040735245">
        <ele>14.56</ele>
        <time>2017-06-21T12:21:10Z</time>
      </trkpt>
      <trkpt lat="63.539580004289746" lon="9.830123959109187">
        <ele>15.039999999999999</ele>
        <time>2017-06-21T12:21:12Z</time>
      </trkpt>
      <trkpt lat="63.539756024256349" lon="9.830200988799334">
        <ele>16</ele>
        <time>2017-06-21T12:21:13Z</time>
      </trkpt>
      <trkpt lat="63.539929026737809" lon="9.830227978527546">
        <ele>16.48</ele>
        <time>2017-06-21T12:21:14Z</time>
      </trkpt>
      <trkpt lat="63.540097000077367" lon="9.830194031819701">
        <ele>17.440000000000001</ele>
        <time>2017-06-21T12:21:15Z</time>
      </trkpt>
      <trkpt lat="63.540258016437292" lon="9.830108033493161">
        <ele>17.920000000000002</ele>
        <time>2017-06-21T12:21:16Z</time>
      </trkpt>
      <trkpt lat="63.540410986170173" lon="9.829973001033068">
        <ele>18.399999999999999</ele>
        <time>2017-06-21T12:21:17Z</time>
      </trkpt>
      <trkpt lat="63.54055599309504" lon="9.829790024086833">
        <ele>18.399999999999999</ele>
        <time>2017-06-21T12:21:18Z</time>
      </trkpt>
      <trkpt lat="63.540688008069992" lon="9.829565975815058">
        <ele>18.399999999999999</ele>
        <time>2017-06-21T12:21:19Z</time>
      </trkpt>
      <trkpt lat="63.540808036923409" lon="9.829305969178677">
        <ele>17.920000000000002</ele>
        <time>2017-06-21T12:21:20Z</time>
      </trkpt>
      <trkpt lat="63.540922030806541" lon="9.829007992520928">
        <ele>16.960000000000001</ele>
        <time>2017-06-21T12:21:21Z</time>
      </trkpt>
      <trkpt lat="63.541034013032913" lon="9.828676991164684">
        <ele>16.48</ele>
        <time>2017-06-21T12:21:22Z</time>
      </trkpt>
      <trkpt lat="63.541884021833539" lon="9.826255962252617">
        <ele>9.75</ele>
        <time>2017-06-21T12:21:29Z</time>
      </trkpt>
      <trkpt lat="63.542027017101645" lon="9.825994027778506">
        <ele>9.75</ele>
        <time>2017-06-21T12:21:30Z</time>
      </trkpt>
      <trkpt lat="63.54218702763319" lon="9.82576796784997">
        <ele>9.27</ele>
        <time>2017-06-21T12:21:31Z</time>
      </trkpt>
      <trkpt lat="63.542361035943031" lon="9.825581973418593">
        <ele>9.27</ele>
        <time>2017-06-21T12:21:32Z</time>
      </trkpt>
      <trkpt lat="63.542539989575744" lon="9.825405031442642">
        <ele>8.789999999999999</ele>
        <time>2017-06-21T12:21:33Z</time>
      </trkpt>
      <trkpt lat="63.544114027172327" lon="9.824058981612325">
        <ele>10.710000000000001</ele>
        <time>2017-06-21T12:21:41Z</time>
      </trkpt>
      <trkpt lat="63.545298976823688" lon="9.8223299626261">
        <ele>9.27</ele>
        <time>2017-06-21T12:21:48Z</time>
      </trkpt>
      <trkpt lat="63.546316036954522" lon="9.820693982765079">
        <ele>5.91</ele>
        <time>2017-06-21T12:21:54Z</time>
      </trkpt>
      <trkpt lat="63.546509994193912" lon="9.820508994162083">
        <ele>5.91</ele>
        <time>2017-06-21T12:21:55Z</time>
      </trkpt>
      <trkpt lat="63.546711998060346" lon="9.820358958095312">
        <ele>6.39</ele>
        <time>2017-06-21T12:21:56Z</time>
      </trkpt>
      <trkpt lat="63.549118023365736" lon="9.819169985130429">
        <ele>10.710000000000001</ele>
        <time>2017-06-21T12:22:07Z</time>
      </trkpt>
      <trkpt lat="63.551209978759289" lon="9.818098023533821">
        <ele>13.6</ele>
        <time>2017-06-21T12:22:17Z</time>
      </trkpt>
      <trkpt lat="63.551973989233375" lon="9.817552026361227">
        <ele>13.119999999999999</ele>
        <time>2017-06-21T12:22:21Z</time>
      </trkpt>
      <trkpt lat="63.552137017250061" lon="9.817351028323174">
        <ele>12.630000000000001</ele>
        <time>2017-06-21T12:22:22Z</time>
      </trkpt>
      <trkpt lat="63.553761010989547" lon="9.815139966085553">
        <ele>3.02</ele>
        <time>2017-06-21T12:22:31Z</time>
      </trkpt>
      <trkpt lat="63.555689016357064" lon="9.812153996899724">
        <ele>3.02</ele>
        <time>2017-06-21T12:22:42Z</time>
      </trkpt>
      <trkpt lat="63.556716972962022" lon="9.809236004948616">
        <ele>3.5</ele>
        <time>2017-06-21T12:22:50Z</time>
      </trkpt>
      <trkpt lat="63.557895971462131" lon="9.80707598850131">
        <ele>9.27</ele>
        <time>2017-06-21T12:22:57Z</time>
      </trkpt>
      <trkpt lat="63.558705998584628" lon="9.805059973150492">
        <ele>12.15</ele>
        <time>2017-06-21T12:23:03Z</time>
      </trkpt>
      <trkpt lat="63.558785039931536" lon="9.804657977074385">
        <ele>12.15</ele>
        <time>2017-06-21T12:23:04Z</time>
      </trkpt>
      <trkpt lat="63.558847988024354" lon="9.804227985441685">
        <ele>12.15</ele>
        <time>2017-06-21T12:23:05Z</time>
      </trkpt>
      <trkpt lat="63.559437990188599" lon="9.799581980332732">
        <ele>4.94</ele>
        <time>2017-06-21T12:23:15Z</time>
      </trkpt>
      <trkpt lat="63.560239970684052" lon="9.796745041385293">
        <ele>6.87</ele>
        <time>2017-06-21T12:23:22Z</time>
      </trkpt>
      <trkpt lat="63.560325969010592" lon="9.796357965096831">
        <ele>7.35</ele>
        <time>2017-06-21T12:23:23Z</time>
      </trkpt>
      <trkpt lat="63.560389000922441" lon="9.795950017869473">
        <ele>7.35</ele>
        <time>2017-06-21T12:23:24Z</time>
      </trkpt>
      <trkpt lat="63.560430994257331" lon="9.795525977388024">
        <ele>7.35</ele>
        <time>2017-06-21T12:23:25Z</time>
      </trkpt>
      <trkpt lat="63.560461001470685" lon="9.795076958835125">
        <ele>6.87</ele>
        <time>2017-06-21T12:23:26Z</time>
      </trkpt>
      <trkpt lat="63.560482962056994" lon="9.79461302049458">
        <ele>6.87</ele>
        <time>2017-06-21T12:23:27Z</time>
      </trkpt>
      <trkpt lat="63.560764007270336" lon="9.789897026494145">
        <ele>2.06</ele>
        <time>2017-06-21T12:23:37Z</time>
      </trkpt>
      <trkpt lat="63.5609230119735" lon="9.78909001685679">
        <ele>0.62</ele>
        <time>2017-06-21T12:23:39Z</time>
      </trkpt>
      <trkpt lat="63.56102803722024" lon="9.788744011893868">
        <ele>0.14</ele>
        <time>2017-06-21T12:23:40Z</time>
      </trkpt>
      <trkpt lat="63.561147982254624" lon="9.788450980558991">
        <ele>0.14</ele>
        <time>2017-06-21T12:23:41Z</time>
      </trkpt>
      <trkpt lat="63.561282008886337" lon="9.788245959207416">
        <ele>0.14</ele>
        <time>2017-06-21T12:23:42Z</time>
      </trkpt>
      <trkpt lat="63.561429027467966" lon="9.788110004737973">
        <ele>-0.34</ele>
        <time>2017-06-21T12:23:43Z</time>
      </trkpt>
      <trkpt lat="63.56158803217113" lon="9.788030041381717">
        <ele>-1.3</ele>
        <time>2017-06-21T12:23:44Z</time>
      </trkpt>
      <trkpt lat="63.561756005510688" lon="9.788001962006092">
        <ele>-1.79</ele>
        <time>2017-06-21T12:23:45Z</time>
      </trkpt>
      <trkpt lat="63.561934037134051" lon="9.788047978654504">
        <ele>-1.79</ele>
        <time>2017-06-21T12:23:46Z</time>
      </trkpt>
      <trkpt lat="63.562112990766764" lon="9.788171024993062">
        <ele>-1.3</ele>
        <time>2017-06-21T12:23:47Z</time>
      </trkpt>
      <trkpt lat="63.562295967712998" lon="9.78836003690958">
        <ele>0.62</ele>
        <time>2017-06-21T12:23:48Z</time>
      </trkpt>
      <trkpt lat="63.562481040135026" lon="9.788587018847466">
        <ele>2.54</ele>
        <time>2017-06-21T12:23:49Z</time>
      </trkpt>
      <trkpt lat="63.564509963616729" lon="9.790679980069399">
        <ele>8.310000000000001</ele>
        <time>2017-06-21T12:23:59Z</time>
      </trkpt>
      <trkpt lat="63.567077005282044" lon="9.791424041613936">
        <ele>12.15</ele>
        <time>2017-06-21T12:24:10Z</time>
      </trkpt>
      <trkpt lat="63.568365974351764" lon="9.790565986186266">
        <ele>13.6</ele>
        <time>2017-06-21T12:24:16Z</time>
      </trkpt>
      <trkpt lat="63.571772966533899" lon="9.786703018471599">
        <ele>0.62</ele>
        <time>2017-06-21T12:24:33Z</time>
      </trkpt>
      <trkpt lat="63.574605965986848" lon="9.783558966591954">
        <ele>13.119999999999999</ele>
        <time>2017-06-21T12:24:47Z</time>
      </trkpt>
      <trkpt lat="63.575807008892298" lon="9.781976966187358">
        <ele>13.119999999999999</ele>
        <time>2017-06-21T12:24:54Z</time>
      </trkpt>
      <trkpt lat="63.577313991263509" lon="9.779522996395826">
        <ele>3.02</ele>
        <time>2017-06-21T12:25:03Z</time>
      </trkpt>
      <trkpt lat="63.577436031773686" lon="9.779224013909698">
        <ele>3.5</ele>
        <time>2017-06-21T12:25:04Z</time>
      </trkpt>
      <trkpt lat="63.577538961544633" lon="9.778897035866976">
        <ele>3.98</ele>
        <time>2017-06-21T12:25:05Z</time>
      </trkpt>
      <trkpt lat="63.577618002891541" lon="9.778533009812236">
        <ele>4.46</ele>
        <time>2017-06-21T12:25:06Z</time>
      </trkpt>
      <trkpt lat="63.577681034803391" lon="9.778142999857664">
        <ele>4.46</ele>
        <time>2017-06-21T12:25:07Z</time>
      </trkpt>
      <trkpt lat="63.577734008431435" lon="9.777733962982893">
        <ele>4.46</ele>
        <time>2017-06-21T12:25:08Z</time>
      </trkpt>
      <trkpt lat="63.578438004478812" lon="9.774035029113293">
        <ele>5.91</ele>
        <time>2017-06-21T12:25:17Z</time>
      </trkpt>
      <trkpt lat="63.579019038006663" lon="9.771377965807915">
        <ele>7.35</ele>
        <time>2017-06-21T12:25:24Z</time>
      </trkpt>
      <trkpt lat="63.579052984714508" lon="9.768434995785356">
        <ele>7.35</ele>
        <time>2017-06-21T12:25:31Z</time>
      </trkpt>
      <trkpt lat="63.57905700802803" lon="9.767554979771376">
        <ele>7.83</ele>
        <time>2017-06-21T12:25:33Z</time>
      </trkpt>
      <trkpt lat="63.579091038554907" lon="9.767116019502282">
        <ele>8.789999999999999</ele>
        <time>2017-06-21T12:25:34Z</time>
      </trkpt>
      <trkpt lat="63.579145018011332" lon="9.766674963757396">
        <ele>9.75</ele>
        <time>2017-06-21T12:25:35Z</time>
      </trkpt>
      <trkpt lat="63.579223975539207" lon="9.766251007094979">
        <ele>11.19</ele>
        <time>2017-06-21T12:25:36Z</time>
      </trkpt>
      <trkpt lat="63.579316008836031" lon="9.765850016847253">
        <ele>12.15</ele>
        <time>2017-06-21T12:25:37Z</time>
      </trkpt>
      <trkpt lat="63.579428996890783" lon="9.765472998842597">
        <ele>13.6</ele>
        <time>2017-06-21T12:25:38Z</time>
      </trkpt>
      <trkpt lat="63.579561011865735" lon="9.765125988051295">
        <ele>13.6</ele>
        <time>2017-06-21T12:25:39Z</time>
      </trkpt>
      <trkpt lat="63.57970199547708" lon="9.764795992523432">
        <ele>12.630000000000001</ele>
        <time>2017-06-21T12:25:40Z</time>
      </trkpt>
      <trkpt lat="63.580331979319453" lon="9.763336032629013">
        <ele>14.56</ele>
        <time>2017-06-21T12:25:45Z</time>
      </trkpt>
      <trkpt lat="63.580391993746161" lon="9.76305196993053">
        <ele>15.039999999999999</ele>
        <time>2017-06-21T12:25:46Z</time>
      </trkpt>
      <trkpt lat="63.58043197542429" lon="9.76275198161602">
        <ele>15.039999999999999</ele>
        <time>2017-06-21T12:25:47Z</time>
      </trkpt>
      <trkpt lat="63.580446979030967" lon="9.762445958331227">
        <ele>15.52</ele>
        <time>2017-06-21T12:25:48Z</time>
      </trkpt>
      <trkpt lat="63.580439016222954" lon="9.762133983895183">
        <ele>14.56</ele>
        <time>2017-06-21T12:25:49Z</time>
      </trkpt>
      <trkpt lat="63.5804090090096" lon="9.761798959225416">
        <ele>14.56</ele>
        <time>2017-06-21T12:25:50Z</time>
      </trkpt>
      <trkpt lat="63.580380007624626" lon="9.761453038081527">
        <ele>14.08</ele>
        <time>2017-06-21T12:25:51Z</time>
      </trkpt>
      <trkpt lat="63.58034698292613" lon="9.760726997628808">
        <ele>13.119999999999999</ele>
        <time>2017-06-21T12:25:53Z</time>
      </trkpt>
      <trkpt lat="63.580357963219285" lon="9.760348973795772">
        <ele>12.630000000000001</ele>
        <time>2017-06-21T12:25:54Z</time>
      </trkpt>
      <trkpt lat="63.580392999574542" lon="9.75997899658978">
        <ele>12.630000000000001</ele>
        <time>2017-06-21T12:25:55Z</time>
      </trkpt>
      <trkpt lat="63.58045301400125" lon="9.759612958878279">
        <ele>13.119999999999999</ele>
        <time>2017-06-21T12:25:56Z</time>
      </trkpt>
      <trkpt lat="63.580535994842649" lon="9.759267037734389">
        <ele>12.630000000000001</ele>
        <time>2017-06-21T12:25:57Z</time>
      </trkpt>
      <trkpt lat="63.580643031746149" lon="9.758941987529397">
        <ele>12.630000000000001</ele>
        <time>2017-06-21T12:25:58Z</time>
      </trkpt>
      <trkpt lat="63.580771023407578" lon="9.758636970072985">
        <ele>13.119999999999999</ele>
        <time>2017-06-21T12:25:59Z</time>
      </trkpt>
      <trkpt lat="63.580908989533782" lon="9.758343016728759">
        <ele>12.15</ele>
        <time>2017-06-21T12:26:00Z</time>
      </trkpt>
      <trkpt lat="63.582422006875277" lon="9.755283035337925">
        <ele>13.6</ele>
        <time>2017-06-21T12:26:10Z</time>
      </trkpt>
      <trkpt lat="63.583418028429151" lon="9.754228005185723">
        <ele>14.08</ele>
        <time>2017-06-21T12:26:16Z</time>
      </trkpt>
      <trkpt lat="63.583599999547005" lon="9.754166984930635">
        <ele>13.6</ele>
        <time>2017-06-21T12:26:17Z</time>
      </trkpt>
      <trkpt lat="63.58378398232162" lon="9.754165979102254">
        <ele>13.119999999999999</ele>
        <time>2017-06-21T12:26:18Z</time>
      </trkpt>
      <trkpt lat="63.583974000066519" lon="9.754225993528962">
        <ele>13.119999999999999</ele>
        <time>2017-06-21T12:26:19Z</time>
      </trkpt>
      <trkpt lat="63.58416804112494" lon="9.754346022382379">
        <ele>13.119999999999999</ele>
        <time>2017-06-21T12:26:20Z</time>
      </trkpt>
      <trkpt lat="63.584352023899555" lon="9.754519024863839">
        <ele>13.119999999999999</ele>
        <time>2017-06-21T12:26:21Z</time>
      </trkpt>
      <trkpt lat="63.584540029987693" lon="9.754724968224764">
        <ele>13.119999999999999</ele>
        <time>2017-06-21T12:26:22Z</time>
      </trkpt>
      <trkpt lat="63.586077019572258" lon="9.756725979968905">
        <ele>14.56</ele>
        <time>2017-06-21T12:26:30Z</time>
      </trkpt>
      <trkpt lat="63.586285980418324" lon="9.75690602324903">
        <ele>14.56</ele>
        <time>2017-06-21T12:26:31Z</time>
      </trkpt>
      <trkpt lat="63.58690096065402" lon="9.757437016814947">
        <ele>14.56</ele>
        <time>2017-06-21T12:26:34Z</time>
      </trkpt>
      <trkpt lat="63.587077986449003" lon="9.757698029279709">
        <ele>15.039999999999999</ele>
        <time>2017-06-21T12:26:35Z</time>
      </trkpt>
      <trkpt lat="63.587599005550146" lon="9.758526999503374">
        <ele>17.440000000000001</ele>
        <time>2017-06-21T12:26:38Z</time>
      </trkpt>
      <trkpt lat="63.587791034951806" lon="9.758749036118388">
        <ele>18.399999999999999</ele>
        <time>2017-06-21T12:26:39Z</time>
      </trkpt>
      <trkpt lat="63.588760988786817" lon="9.76006499491632">
        <ele>26.09</ele>
        <time>2017-06-21T12:26:45Z</time>
      </trkpt>
      <trkpt lat="63.588901972398162" lon="9.760144958272576">
        <ele>26.57</ele>
        <time>2017-06-21T12:26:46Z</time>
      </trkpt>
      <trkpt lat="63.589049996808171" lon="9.760161973536015">
        <ele>26.57</ele>
        <time>2017-06-21T12:26:47Z</time>
      </trkpt>
      <trkpt lat="63.589206989854574" lon="9.760134983807802">
        <ele>26.57</ele>
        <time>2017-06-21T12:26:48Z</time>
      </trkpt>
      <trkpt lat="63.589374963194132" lon="9.760099025443196">
        <ele>26.57</ele>
        <time>2017-06-21T12:26:49Z</time>
      </trkpt>
      <trkpt lat="63.59083098359406" lon="9.759994000196457">
        <ele>19.359999999999999</ele>
        <time>2017-06-21T12:26:56Z</time>
      </trkpt>
      <trkpt lat="63.592336038127542" lon="9.759707003831863">
        <ele>25.609999999999999</ele>
        <time>2017-06-21T12:27:03Z</time>
      </trkpt>
      <trkpt lat="63.592531001195312" lon="9.759539030492306">
        <ele>26.09</ele>
        <time>2017-06-21T12:27:04Z</time>
      </trkpt>
      <trkpt lat="63.592722024768591" lon="9.759348006919026">
        <ele>26.09</ele>
        <time>2017-06-21T12:27:05Z</time>
      </trkpt>
      <trkpt lat="63.592908019199967" lon="9.759123036637902">
        <ele>26.09</ele>
        <time>2017-06-21T12:27:06Z</time>
      </trkpt>
      <trkpt lat="63.593090996146202" lon="9.758879039436579">
        <ele>26.09</ele>
        <time>2017-06-21T12:27:07Z</time>
      </trkpt>
      <trkpt lat="63.594174021854997" lon="9.756782976910472">
        <ele>22.73</ele>
        <time>2017-06-21T12:27:14Z</time>
      </trkpt>
      <trkpt lat="63.595303986221552" lon="9.75340498611331">
        <ele>16.48</ele>
        <time>2017-06-21T12:27:23Z</time>
      </trkpt>
      <trkpt lat="63.59568502753973" lon="9.751967992633581">
        <ele>14.56</ele>
        <time>2017-06-21T12:27:27Z</time>
      </trkpt>
      <trkpt lat="63.595818970352411" lon="9.751673033460975">
        <ele>14.08</ele>
        <time>2017-06-21T12:27:28Z</time>
      </trkpt>
      <trkpt lat="63.595973029732704" lon="9.751425012946129">
        <ele>13.6</ele>
        <time>2017-06-21T12:27:29Z</time>
      </trkpt>
      <trkpt lat="63.596147960051894" lon="9.751222003251314">
        <ele>13.119999999999999</ele>
        <time>2017-06-21T12:27:30Z</time>
      </trkpt>
      <trkpt lat="63.596336971968412" lon="9.751071967184544">
        <ele>13.119999999999999</ele>
        <time>2017-06-21T12:27:31Z</time>
      </trkpt>
      <trkpt lat="63.596535958349705" lon="9.750969037413597">
        <ele>13.6</ele>
        <time>2017-06-21T12:27:32Z</time>
      </trkpt>
      <trkpt lat="63.596731005236506" lon="9.75089100189507">
        <ele>13.6</ele>
        <time>2017-06-21T12:27:33Z</time>
      </trkpt>
      <trkpt lat="63.599378010258079" lon="9.751229966059327">
        <ele>10.710000000000001</ele>
        <time>2017-06-21T12:27:49Z</time>
      </trkpt>
      <trkpt lat="63.600694974884391" lon="9.753811005502939">
        <ele>9.75</ele>
        <time>2017-06-21T12:27:58Z</time>
      </trkpt>
      <trkpt lat="63.601601980626583" lon="9.754541991278529">
        <ele>9.27</ele>
        <time>2017-06-21T12:28:03Z</time>
      </trkpt>
      <trkpt lat="63.60178898088634" lon="9.754589013755322">
        <ele>9.27</ele>
        <time>2017-06-21T12:28:04Z</time>
      </trkpt>
      <trkpt lat="63.601977992802858" lon="9.754590019583702">
        <ele>9.75</ele>
        <time>2017-06-21T12:28:05Z</time>
      </trkpt>
      <trkpt lat="63.60217303968966" lon="9.754561018198729">
        <ele>10.710000000000001</ele>
        <time>2017-06-21T12:28:06Z</time>
      </trkpt>
      <trkpt lat="63.602369008585811" lon="9.754488011822105">
        <ele>11.67</ele>
        <time>2017-06-21T12:28:07Z</time>
      </trkpt>
      <trkpt lat="63.602559026330709" lon="9.754396984353662">
        <ele>12.15</ele>
        <time>2017-06-21T12:28:08Z</time>
      </trkpt>
      <trkpt lat="63.602745020762086" lon="9.754278967157006">
        <ele>13.119999999999999</ele>
        <time>2017-06-21T12:28:09Z</time>
      </trkpt>
      <trkpt lat="63.602924980223179" lon="9.754130020737648">
        <ele>13.6</ele>
        <time>2017-06-21T12:28:10Z</time>
      </trkpt>
      <trkpt lat="63.603106029331684" lon="9.753932962194085">
        <ele>13.119999999999999</ele>
        <time>2017-06-21T12:28:11Z</time>
      </trkpt>
      <trkpt lat="63.603277020156384" lon="9.753716960549355">
        <ele>13.6</ele>
        <time>2017-06-21T12:28:12Z</time>
      </trkpt>
      <trkpt lat="63.603449016809464" lon="9.753467012196779">
        <ele>13.6</ele>
        <time>2017-06-21T12:28:13Z</time>
      </trkpt>
      <trkpt lat="63.60464503057301" lon="9.750970965251327">
        <ele>14.08</ele>
        <time>2017-06-21T12:28:21Z</time>
      </trkpt>
      <trkpt lat="63.606248991563916" lon="9.745812993496656">
        <ele>12.630000000000001</ele>
        <time>2017-06-21T12:28:34Z</time>
      </trkpt>
      <trkpt lat="63.607758991420269" lon="9.741067998111248">
        <ele>10.710000000000001</ele>
        <time>2017-06-21T12:28:46Z</time>
      </trkpt>
      <trkpt lat="63.607882959768176" lon="9.740786030888557">
        <ele>10.23</ele>
        <time>2017-06-21T12:28:47Z</time>
      </trkpt>
      <trkpt lat="63.608016986399889" lon="9.740572040900588">
        <ele>9.75</ele>
        <time>2017-06-21T12:28:48Z</time>
      </trkpt>
      <trkpt lat="63.608157970011234" lon="9.74040599539876">
        <ele>8.789999999999999</ele>
        <time>2017-06-21T12:28:49Z</time>
      </trkpt>
      <trkpt lat="63.608316974714398" lon="9.740282027050853">
        <ele>7.83</ele>
        <time>2017-06-21T12:28:50Z</time>
      </trkpt>
      <trkpt lat="63.608485031872988" lon="9.740183958783746">
        <ele>7.35</ele>
        <time>2017-06-21T12:28:51Z</time>
      </trkpt>
      <trkpt lat="63.608953999355435" lon="9.739727983251214">
        <ele>4.94</ele>
        <time>2017-06-21T12:28:54Z</time>
      </trkpt>
      <trkpt lat="63.609409974887967" lon="9.739178968593478">
        <ele>3.02</ele>
        <time>2017-06-21T12:28:57Z</time>
      </trkpt>
      <trkpt lat="63.609575014561415" lon="9.739105040207505">
        <ele>2.54</ele>
        <time>2017-06-21T12:28:58Z</time>
      </trkpt>
      <trkpt lat="63.609737036749721" lon="9.739129012450576">
        <ele>2.06</ele>
        <time>2017-06-21T12:28:59Z</time>
      </trkpt>
      <trkpt lat="63.609889000654221" lon="9.739218028262258">
        <ele>1.1</ele>
        <time>2017-06-21T12:29:00Z</time>
      </trkpt>
      <trkpt lat="63.610034007579088" lon="9.739387007430196">
        <ele>2.06</ele>
        <time>2017-06-21T12:29:01Z</time>
      </trkpt>
      <trkpt lat="63.610168034210801" lon="9.739608038216829">
        <ele>2.54</ele>
        <time>2017-06-21T12:29:02Z</time>
      </trkpt>
      <trkpt lat="63.610297031700611" lon="9.73986703902483">
        <ele>3.02</ele>
        <time>2017-06-21T12:29:03Z</time>
      </trkpt>
      <trkpt lat="63.610422005876899" lon="9.740157974883914">
        <ele>3.02</ele>
        <time>2017-06-21T12:29:04Z</time>
      </trkpt>
      <trkpt lat="63.61094101332128" lon="9.741221973672509">
        <ele>3.98</ele>
        <time>2017-06-21T12:29:08Z</time>
      </trkpt>
      <trkpt lat="63.611084008589387" lon="9.741421965882182">
        <ele>3.98</ele>
        <time>2017-06-21T12:29:09Z</time>
      </trkpt>
      <trkpt lat="63.611228009685874" lon="9.741584993898869">
        <ele>4.46</ele>
        <time>2017-06-21T12:29:10Z</time>
      </trkpt>
      <trkpt lat="63.611379973590374" lon="9.741706028580666">
        <ele>4.46</ele>
        <time>2017-06-21T12:29:11Z</time>
      </trkpt>
      <trkpt lat="63.611536966636777" lon="9.7417819686234">
        <ele>4.46</ele>
        <time>2017-06-21T12:29:12Z</time>
      </trkpt>
      <trkpt lat="63.611697982996702" lon="9.741794960573316">
        <ele>4.46</ele>
        <time>2017-06-21T12:29:13Z</time>
      </trkpt>
      <trkpt lat="63.611862016841769" lon="9.741767970845103">
        <ele>4.94</ele>
        <time>2017-06-21T12:29:14Z</time>
      </trkpt>
      <trkpt lat="63.612024039030075" lon="9.741693958640099">
        <ele>4.94</ele>
        <time>2017-06-21T12:29:15Z</time>
      </trkpt>
      <trkpt lat="63.612182037904859" lon="9.741563033312559">
        <ele>4.94</ele>
        <time>2017-06-21T12:29:16Z</time>
      </trkpt>
      <trkpt lat="63.612330984324217" lon="9.741375027224422">
        <ele>4.46</ele>
        <time>2017-06-21T12:29:17Z</time>
      </trkpt>
      <trkpt lat="63.612474985420704" lon="9.741141004487872">
        <ele>4.46</ele>
        <time>2017-06-21T12:29:18Z</time>
      </trkpt>
      <trkpt lat="63.61261697486043" lon="9.740874962881208">
        <ele>3.98</ele>
        <time>2017-06-21T12:29:19Z</time>
      </trkpt>
      <trkpt lat="63.613399006426334" lon="9.739660006016493">
        <ele>2.06</ele>
        <time>2017-06-21T12:29:24Z</time>
      </trkpt>
      <trkpt lat="63.613569997251034" lon="9.739526985213161">
        <ele>2.54</ele>
        <time>2017-06-21T12:29:25Z</time>
      </trkpt>
      <trkpt lat="63.613738976418972" lon="9.739465964958072">
        <ele>2.54</ele>
        <time>2017-06-21T12:29:26Z</time>
      </trkpt>
      <trkpt lat="63.613911978900433" lon="9.739479040727019">
        <ele>3.02</ele>
        <time>2017-06-21T12:29:27Z</time>
      </trkpt>
      <trkpt lat="63.614074001088738" lon="9.739570990204811">
        <ele>3.98</ele>
        <time>2017-06-21T12:29:28Z</time>
      </trkpt>
      <trkpt lat="63.614231999963522" lon="9.739721026271582">
        <ele>4.94</ele>
        <time>2017-06-21T12:29:29Z</time>
      </trkpt>
      <trkpt lat="63.614376001060009" lon="9.739875001832843">
        <ele>6.39</ele>
        <time>2017-06-21T12:29:30Z</time>
      </trkpt>
      <trkpt lat="63.614516984671354" lon="9.739978015422821">
        <ele>6.87</ele>
        <time>2017-06-21T12:29:31Z</time>
      </trkpt>
      <trkpt lat="63.61465503461659" lon="9.740024032071233">
        <ele>7.83</ele>
        <time>2017-06-21T12:29:32Z</time>
      </trkpt>
      <trkpt lat="63.614790989086032" lon="9.739996958523989">
        <ele>9.27</ele>
        <time>2017-06-21T12:29:33Z</time>
      </trkpt>
      <trkpt lat="63.614925015717745" lon="9.739895034581423">
        <ele>10.710000000000001</ele>
        <time>2017-06-21T12:29:34Z</time>
      </trkpt>
      <trkpt lat="63.615046972408891" lon="9.739734018221498">
        <ele>12.15</ele>
        <time>2017-06-21T12:29:35Z</time>
      </trkpt>
      <trkpt lat="63.615148980170488" lon="9.739517010748386">
        <ele>13.119999999999999</ele>
        <time>2017-06-21T12:29:36Z</time>
      </trkpt>
      <trkpt lat="63.615234978497028" lon="9.739271001890302">
        <ele>13.6</ele>
        <time>2017-06-21T12:29:37Z</time>
      </trkpt>
      <trkpt lat="63.615294992923737" lon="9.739003032445908">
        <ele>14.56</ele>
        <time>2017-06-21T12:29:38Z</time>
      </trkpt>
      <trkpt lat="63.615335980430245" lon="9.738716958090663">
        <ele>15.039999999999999</ele>
        <time>2017-06-21T12:29:39Z</time>
      </trkpt>
      <trkpt lat="63.615361964330077" lon="9.738401966169477">
        <ele>15.52</ele>
        <time>2017-06-21T12:29:40Z</time>
      </trkpt>
      <trkpt lat="63.615369005128741" lon="9.738069036975503">
        <ele>16</ele>
        <time>2017-06-21T12:29:41Z</time>
      </trkpt>
      <trkpt lat="63.615362970158458" lon="9.737715991213918">
        <ele>16.48</ele>
        <time>2017-06-21T12:29:42Z</time>
      </trkpt>
      <trkpt lat="63.615231961011887" lon="9.732933025807142">
        <ele>8.789999999999999</ele>
        <time>2017-06-21T12:29:54Z</time>
      </trkpt>
      <trkpt lat="63.614974971860647" lon="9.727345984429121">
        <ele>4.46</ele>
        <time>2017-06-21T12:30:08Z</time>
      </trkpt>
      <trkpt lat="63.614274999126792" lon="9.720349023118615">
        <ele>1.58</ele>
        <time>2017-06-21T12:30:25Z</time>
      </trkpt>
      <trkpt lat="63.614272987470031" lon="9.717231038957834">
        <ele>-1.79</ele>
        <time>2017-06-21T12:30:33Z</time>
      </trkpt>
      <trkpt lat="63.614627039059997" lon="9.715198008343577">
        <ele>-2.27</ele>
        <time>2017-06-21T12:30:40Z</time>
      </trkpt>
      <trkpt lat="63.614685963839293" lon="9.715039003640413">
        <ele>-2.27</ele>
        <time>2017-06-21T12:30:41Z</time>
      </trkpt>
      <trkpt lat="63.61474497243762" lon="9.714913023635745">
        <ele>-2.27</ele>
        <time>2017-06-21T12:30:42Z</time>
      </trkpt>
      <trkpt lat="63.614804986864328" lon="9.714815961197019">
        <ele>-2.27</ele>
        <time>2017-06-21T12:30:43Z</time>
      </trkpt>
      <trkpt lat="63.614858966320753" lon="9.714746978133917">
        <ele>-2.27</ele>
        <time>2017-06-21T12:30:44Z</time>
      </trkpt>
      <trkpt lat="63.614904982969165" lon="9.714700961485505">
        <ele>-1.79</ele>
        <time>2017-06-21T12:30:45Z</time>
      </trkpt>
    </trkseg>
  </trk>

  <trk>
    <name>Track vom: 21 JUN 2017 14:31</name>
    <extensions>
      <gpxx:TrackExtension>
        <gpxx:DisplayColor>DarkGray</gpxx:DisplayColor>
      </gpxx:TrackExtension>
    </extensions>
    <trkseg>
      <trkpt lat="63.61498000100255" lon="9.714639019221067">
        <ele>-2.75</ele>
        <time>2017-06-21T12:31:01Z</time>
      </trkpt>
      <trkpt lat="63.615259034559131" lon="9.714445983991027">
        <ele>-2.27</ele>
        <time>2017-06-21T12:31:13Z</time>
      </trkpt>
      <trkpt lat="63.61536699347198" lon="9.714417988434434">
        <ele>-2.27</ele>
        <time>2017-06-21T12:31:14Z</time>
      </trkpt>
      <trkpt lat="63.615489033982158" lon="9.714426035061479">
        <ele>-1.79</ele>
        <time>2017-06-21T12:31:15Z</time>
      </trkpt>
      <trkpt lat="63.615619037300348" lon="9.714471967890859">
        <ele>-1.79</ele>
        <time>2017-06-21T12:31:16Z</time>
      </trkpt>
      <trkpt lat="63.615751974284649" lon="9.71456098370254">
        <ele>-1.79</ele>
        <time>2017-06-21T12:31:17Z</time>
      </trkpt>
      <trkpt lat="63.615883989259601" lon="9.71468604169786">
        <ele>-1.79</ele>
        <time>2017-06-21T12:31:18Z</time>
      </trkpt>
      <trkpt lat="63.616008963435888" lon="9.714856026694179">
        <ele>-1.79</ele>
        <time>2017-06-21T12:31:19Z</time>
      </trkpt>
      <trkpt lat="63.616128992289305" lon="9.715077979490161">
        <ele>-1.3</ele>
        <time>2017-06-21T12:31:20Z</time>
      </trkpt>
      <trkpt lat="63.616241980344057" lon="9.71533396281302">
        <ele>-1.3</ele>
        <time>2017-06-21T12:31:21Z</time>
      </trkpt>
      <trkpt lat="63.616354968398809" lon="9.715608973056078">
        <ele>-1.3</ele>
        <time>2017-06-21T12:31:22Z</time>
      </trkpt>
      <trkpt lat="63.617661036550999" lon="9.718677001073957">
        <ele>7.35</ele>
        <time>2017-06-21T12:31:32Z</time>
      </trkpt>
      <trkpt lat="63.618928967043757" lon="9.721051007509232">
        <ele>12.15</ele>
        <time>2017-06-21T12:31:40Z</time>
      </trkpt>
      <trkpt lat="63.620369983837008" lon="9.725272972136736">
        <ele>25.129999999999999</ele>
        <time>2017-06-21T12:31:51Z</time>
      </trkpt>
      <trkpt lat="63.621326023712754" lon="9.727068040519953">
        <ele>33.780000000000001</ele>
        <time>2017-06-21T12:31:58Z</time>
      </trkpt>
      <trkpt lat="63.622330008074641" lon="9.727939004078507">
        <ele>35.710000000000001</ele>
        <time>2017-06-21T12:32:04Z</time>
      </trkpt>
      <trkpt lat="63.622508961707354" lon="9.727979991585016">
        <ele>35.710000000000001</ele>
        <time>2017-06-21T12:32:05Z</time>
      </trkpt>
      <trkpt lat="63.622696967795491" lon="9.727974962443113">
        <ele>35.229999999999997</ele>
        <time>2017-06-21T12:32:06Z</time>
      </trkpt>
      <trkpt lat="63.622885979712009" lon="9.727929029613733">
        <ele>34.740000000000002</ele>
        <time>2017-06-21T12:32:07Z</time>
      </trkpt>
      <trkpt lat="63.623074991628528" lon="9.727822998538613">
        <ele>34.740000000000002</ele>
        <time>2017-06-21T12:32:08Z</time>
      </trkpt>
      <trkpt lat="63.623260986059904" lon="9.727672040462494">
        <ele>34.740000000000002</ele>
        <time>2017-06-21T12:32:09Z</time>
      </trkpt>
      <trkpt lat="63.623440023511648" lon="9.727486968040466">
        <ele>34.740000000000002</ele>
        <time>2017-06-21T12:32:10Z</time>
      </trkpt>
      <trkpt lat="63.623607996851206" lon="9.727269960567355">
        <ele>34.740000000000002</ele>
        <time>2017-06-21T12:32:11Z</time>
      </trkpt>
      <trkpt lat="63.623768007382751" lon="9.727012971416116">
        <ele>35.229999999999997</ele>
        <time>2017-06-21T12:32:12Z</time>
      </trkpt>
      <trkpt lat="63.623909996822476" lon="9.726713988929987">
        <ele>35.710000000000001</ele>
        <time>2017-06-21T12:32:13Z</time>
      </trkpt>
      <trkpt lat="63.624037988483906" lon="9.726383993402124">
        <ele>36.670000000000002</ele>
        <time>2017-06-21T12:32:14Z</time>
      </trkpt>
      <trkpt lat="63.624147959053516" lon="9.726041005924344">
        <ele>37.149999999999999</ele>
        <time>2017-06-21T12:32:15Z</time>
      </trkpt>
      <trkpt lat="63.62424099817872" lon="9.725668011233211">
        <ele>38.109999999999999</ele>
        <time>2017-06-21T12:32:16Z</time>
      </trkpt>
      <trkpt lat="63.624317022040486" lon="9.725286969915032">
        <ele>39.07</ele>
        <time>2017-06-21T12:32:17Z</time>
      </trkpt>
      <trkpt lat="63.624379970133305" lon="9.724898971617222">
        <ele>40.030000000000001</ele>
        <time>2017-06-21T12:32:18Z</time>
      </trkpt>
      <trkpt lat="63.624437972903252" lon="9.724495969712734">
        <ele>40.509999999999998</ele>
        <time>2017-06-21T12:32:19Z</time>
      </trkpt>
      <trkpt lat="63.625093018636107" lon="9.719756003469229">
        <ele>48.68</ele>
        <time>2017-06-21T12:32:30Z</time>
      </trkpt>
      <trkpt lat="63.625439023599029" lon="9.71515903249383">
        <ele>59.259999999999998</ele>
        <time>2017-06-21T12:32:40Z</time>
      </trkpt>
      <trkpt lat="63.625586964190006" lon="9.709158008918166">
        <ele>68.390000000000001</ele>
        <time>2017-06-21T12:32:52Z</time>
      </trkpt>
      <trkpt lat="63.625920983031392" lon="9.705860987305641">
        <ele>71.760000000000005</ele>
        <time>2017-06-21T12:32:59Z</time>
      </trkpt>
      <trkpt lat="63.626033971086144" lon="9.705434013158083">
        <ele>72.239999999999995</ele>
        <time>2017-06-21T12:33:00Z</time>
      </trkpt>
      <trkpt lat="63.626161040738225" lon="9.705027993768454">
        <ele>72.719999999999999</ele>
        <time>2017-06-21T12:33:01Z</time>
      </trkpt>
      <trkpt lat="63.627584036439657" lon="9.701086990535259">
        <ele>71.269999999999996</ele>
        <time>2017-06-21T12:33:11Z</time>
      </trkpt>
      <trkpt lat="63.627857035025954" lon="9.698737040162087">
        <ele>76.079999999999998</ele>
        <time>2017-06-21T12:33:16Z</time>
      </trkpt>
      <trkpt lat="63.627856029197574" lon="9.698258014395833">
        <ele>78</ele>
        <time>2017-06-21T12:33:17Z</time>
      </trkpt>
      <trkpt lat="63.627830967307091" lon="9.697786029428244">
        <ele>79.930000000000007</ele>
        <time>2017-06-21T12:33:18Z</time>
      </trkpt>
      <trkpt lat="63.627792997285724" lon="9.697327958419919">
        <ele>81.370000000000005</ele>
        <time>2017-06-21T12:33:19Z</time>
      </trkpt>
      <trkpt lat="63.627737006172538" lon="9.696878017857671">
        <ele>82.329999999999998</ele>
        <time>2017-06-21T12:33:20Z</time>
      </trkpt>
      <trkpt lat="63.627674980089068" lon="9.696423970162869">
        <ele>83.290000000000006</ele>
        <time>2017-06-21T12:33:21Z</time>
      </trkpt>
      <trkpt lat="63.627360993996263" lon="9.693893976509571">
        <ele>83.290000000000006</ele>
        <time>2017-06-21T12:33:27Z</time>
      </trkpt>
      <trkpt lat="63.627364011481404" lon="9.693476976826787">
        <ele>82.329999999999998</ele>
        <time>2017-06-21T12:33:28Z</time>
      </trkpt>
      <trkpt lat="63.627394018694758" lon="9.693060982972384">
        <ele>81.849999999999994</ele>
        <time>2017-06-21T12:33:29Z</time>
      </trkpt>
      <trkpt lat="63.627454033121467" lon="9.692660998553038">
        <ele>81.370000000000005</ele>
        <time>2017-06-21T12:33:30Z</time>
      </trkpt>
      <trkpt lat="63.6275490000844" lon="9.692288003861904">
        <ele>81.370000000000005</ele>
        <time>2017-06-21T12:33:31Z</time>
      </trkpt>
      <trkpt lat="63.627658970654011" lon="9.691944010555744">
        <ele>80.890000000000001</ele>
        <time>2017-06-21T12:33:32Z</time>
      </trkpt>
      <trkpt lat="63.627791991457343" lon="9.69163496978581">
        <ele>80.890000000000001</ele>
        <time>2017-06-21T12:33:33Z</time>
      </trkpt>
      <trkpt lat="63.627945967018604" lon="9.691364988684654">
        <ele>81.370000000000005</ele>
        <time>2017-06-21T12:33:34Z</time>
      </trkpt>
      <trkpt lat="63.628114024177194" lon="9.691154016181827">
        <ele>80.890000000000001</ele>
        <time>2017-06-21T12:33:35Z</time>
      </trkpt>
      <trkpt lat="63.628301024436951" lon="9.691001968458295">
        <ele>80.409999999999997</ele>
        <time>2017-06-21T12:33:36Z</time>
      </trkpt>
      <trkpt lat="63.628499004989862" lon="9.690899960696697">
        <ele>79.450000000000003</ele>
        <time>2017-06-21T12:33:37Z</time>
      </trkpt>
      <trkpt lat="63.628704026341438" lon="9.690857967361808">
        <ele>78.969999999999999</ele>
        <time>2017-06-21T12:33:38Z</time>
      </trkpt>
      <trkpt lat="63.628897983580828" lon="9.690859979018569">
        <ele>78.480000000000004</ele>
        <time>2017-06-21T12:33:39Z</time>
      </trkpt>
      <trkpt lat="63.629090012982488" lon="9.690919993445277">
        <ele>78.969999999999999</ele>
        <time>2017-06-21T12:33:40Z</time>
      </trkpt>
      <trkpt lat="63.629271984100342" lon="9.691037004813552">
        <ele>78.480000000000004</ele>
        <time>2017-06-21T12:33:41Z</time>
      </trkpt>
      <trkpt lat="63.629445992410183" lon="9.691206989809871">
        <ele>78.480000000000004</ele>
        <time>2017-06-21T12:33:42Z</time>
      </trkpt>
      <trkpt lat="63.62961002625525" lon="9.691434977576137">
        <ele>78.480000000000004</ele>
        <time>2017-06-21T12:33:43Z</time>
      </trkpt>
      <trkpt lat="63.629766013473272" lon="9.691710993647575">
        <ele>78</ele>
        <time>2017-06-21T12:33:44Z</time>
      </trkpt>
      <trkpt lat="63.629922000691295" lon="9.692005030810833">
        <ele>77.040000000000006</ele>
        <time>2017-06-21T12:33:45Z</time>
      </trkpt>
      <trkpt lat="63.631578013300896" lon="9.695279002189636">
        <ele>58.299999999999997</ele>
        <time>2017-06-21T12:33:56Z</time>
      </trkpt>
      <trkpt lat="63.632117975503206" lon="9.69664198346436">
        <ele>51.57</ele>
        <time>2017-06-21T12:34:00Z</time>
      </trkpt>
      <trkpt lat="63.632259964942932" lon="9.696890003979206">
        <ele>49.649999999999999</ele>
        <time>2017-06-21T12:34:01Z</time>
      </trkpt>
      <trkpt lat="63.632408995181322" lon="9.697055965662003">
        <ele>47.719999999999999</ele>
        <time>2017-06-21T12:34:02Z</time>
      </trkpt>
      <trkpt lat="63.63257504068315" lon="9.697137018665671">
        <ele>46.280000000000001</ele>
        <time>2017-06-21T12:34:03Z</time>
      </trkpt>
      <trkpt lat="63.632745025679469" lon="9.697155961766839">
        <ele>45.32</ele>
        <time>2017-06-21T12:34:04Z</time>
      </trkpt>
      <trkpt lat="63.632906964048743" lon="9.697096031159163">
        <ele>43.880000000000003</ele>
        <time>2017-06-21T12:34:05Z</time>
      </trkpt>
      <trkpt lat="63.63307099789381" lon="9.696968039497733">
        <ele>42.439999999999998</ele>
        <time>2017-06-21T12:34:06Z</time>
      </trkpt>
      <trkpt lat="63.633223967626691" lon="9.696771986782551">
        <ele>40.990000000000002</ele>
        <time>2017-06-21T12:34:07Z</time>
      </trkpt>
      <trkpt lat="63.633364029228687" lon="9.696518015116453">
        <ele>39.07</ele>
        <time>2017-06-21T12:34:08Z</time>
      </trkpt>
      <trkpt lat="63.633496966212988" lon="9.696212997660041">
        <ele>37.630000000000003</ele>
        <time>2017-06-21T12:34:09Z</time>
      </trkpt>
      <trkpt lat="63.633624035865068" lon="9.695885013788939">
        <ele>35.710000000000001</ele>
        <time>2017-06-21T12:34:10Z</time>
      </trkpt>
      <trkpt lat="63.634805968031287" lon="9.693196015432477">
        <ele>20.32</ele>
        <time>2017-06-21T12:34:18Z</time>
      </trkpt>
      <trkpt lat="63.634975031018257" lon="9.692985964938998">
        <ele>18.879999999999999</ele>
        <time>2017-06-21T12:34:19Z</time>
      </trkpt>
      <trkpt lat="63.635145016014576" lon="9.692812040448189">
        <ele>16.960000000000001</ele>
        <time>2017-06-21T12:34:20Z</time>
      </trkpt>
      <trkpt lat="63.636161992326379" lon="9.69167503528297">
        <ele>8.310000000000001</ele>
        <time>2017-06-21T12:34:27Z</time>
      </trkpt>
      <trkpt lat="63.637469988316298" lon="9.689169013872743">
        <ele>-1.3</ele>
        <time>2017-06-21T12:34:38Z</time>
      </trkpt>
      <trkpt lat="63.638070970773697" lon="9.68819797039032">
        <ele>-2.27</ele>
        <time>2017-06-21T12:34:45Z</time>
      </trkpt>
      <trkpt lat="63.638405995443463" lon="9.687923965975642">
        <ele>-1.3</ele>
        <time>2017-06-21T12:34:54Z</time>
      </trkpt>
      <trkpt lat="63.638422004878521" lon="9.687907034531236">
        <ele>0.62</ele>
        <time>2017-06-21T12:35:08Z</time>
      </trkpt>
      <trkpt lat="63.686493979766965" lon="9.667794993147254">
        <ele>-8.51</ele>
        <time>2017-06-21T13:26:34Z</time>
      </trkpt>
      <trkpt lat="63.686467995867133" lon="9.667790969833732">
        <ele>-2.75</ele>
        <time>2017-06-21T13:26:46Z</time>
      </trkpt>
      <trkpt lat="63.686469001695514" lon="9.667461980134249">
        <ele>-1.3</ele>
        <time>2017-06-21T13:26:52Z</time>
      </trkpt>
      <trkpt lat="63.686479981988668" lon="9.667352009564638">
        <ele>-0.82</ele>
        <time>2017-06-21T13:26:54Z</time>
      </trkpt>
      <trkpt lat="63.68671702221036" lon="9.667167020961642">
        <ele>-0.34</ele>
        <time>2017-06-21T13:27:01Z</time>
      </trkpt>
      <trkpt lat="63.686870997771621" lon="9.667150005698204">
        <ele>-0.34</ele>
        <time>2017-06-21T13:27:04Z</time>
      </trkpt>
      <trkpt lat="63.686929000541568" lon="9.667184036225081">
        <ele>-0.82</ele>
        <time>2017-06-21T13:27:05Z</time>
      </trkpt>
      <trkpt lat="63.686995971947908" lon="9.667216977104545">
        <ele>-1.3</ele>
        <time>2017-06-21T13:27:06Z</time>
      </trkpt>
      <trkpt lat="63.687875987961888" lon="9.667296018451452">
        <ele>2.06</ele>
        <time>2017-06-21T13:27:16Z</time>
      </trkpt>
      <trkpt lat="63.688973011448979" lon="9.666981026530266">
        <ele>3.02</ele>
        <time>2017-06-21T13:27:25Z</time>
      </trkpt>
      <trkpt lat="63.690497009083629" lon="9.665746036916971">
        <ele>2.54</ele>
        <time>2017-06-21T13:27:36Z</time>
      </trkpt>
      <trkpt lat="63.692401964217424" lon="9.663633964955807">
        <ele>1.58</ele>
        <time>2017-06-21T13:27:50Z</time>
      </trkpt>
      <trkpt lat="63.693930990993977" lon="9.660847987979651">
        <ele>2.54</ele>
        <time>2017-06-21T13:28:03Z</time>
      </trkpt>
      <trkpt lat="63.694134000688791" lon="9.660233007743955">
        <ele>1.58</ele>
        <time>2017-06-21T13:28:07Z</time>
      </trkpt>
      <trkpt lat="63.694182028993964" lon="9.660152960568667">
        <ele>1.58</ele>
        <time>2017-06-21T13:28:08Z</time>
      </trkpt>
      <trkpt lat="63.694243971258402" lon="9.660106021910906">
        <ele>1.1</ele>
        <time>2017-06-21T13:28:09Z</time>
      </trkpt>
      <trkpt lat="63.694321000948548" lon="9.660124965012074">
        <ele>0.62</ele>
        <time>2017-06-21T13:28:10Z</time>
      </trkpt>
      <trkpt lat="63.694401970133185" lon="9.660207023844123">
        <ele>1.58</ele>
        <time>2017-06-21T13:28:11Z</time>
      </trkpt>
      <trkpt lat="63.694490985944867" lon="9.660307019948959">
        <ele>1.58</ele>
        <time>2017-06-21T13:28:12Z</time>
      </trkpt>
      <trkpt lat="63.694742023944855" lon="9.660640032961965">
        <ele>1.58</ele>
        <time>2017-06-21T13:28:15Z</time>
      </trkpt>
      <trkpt lat="63.69479700922966" lon="9.66078101657331">
        <ele>1.58</ele>
        <time>2017-06-21T13:28:16Z</time>
      </trkpt>
      <trkpt lat="63.695027008652687" lon="9.661381999030709">
        <ele>0.62</ele>
        <time>2017-06-21T13:28:24Z</time>
      </trkpt>
      <trkpt lat="63.695018040016294" lon="9.661380993202329">
        <ele>-2.75</ele>
        <time>2017-06-21T13:29:29Z</time>
      </trkpt>
      <trkpt lat="63.69503203779459" lon="9.661763040348887">
        <ele>-17.649999999999999</ele>
        <time>2017-06-21T13:35:36Z</time>
      </trkpt>
      <trkpt lat="63.695031031966209" lon="9.661778965964913">
        <ele>-28.219999999999999</ele>
        <time>2017-06-21T13:36:48Z</time>
      </trkpt>
      <trkpt lat="63.695021979510784" lon="9.661692967638373">
        <ele>-29.18</ele>
        <time>2017-06-21T13:37:11Z</time>
      </trkpt>
      <trkpt lat="63.695027008652687" lon="9.661629013717175">
        <ele>-33.030000000000001</ele>
        <time>2017-06-21T13:37:33Z</time>
      </trkpt>
      <trkpt lat="63.695014016702771" lon="9.661509990692139">
        <ele>-34.950000000000003</ele>
        <time>2017-06-21T13:38:17Z</time>
      </trkpt>
      <trkpt lat="63.695000018924475" lon="9.661505967378616">
        <ele>-35.43</ele>
        <time>2017-06-21T13:39:00Z</time>
      </trkpt>
      <trkpt lat="63.694960037246346" lon="9.661533962935209">
        <ele>-34.469999999999999</ele>
        <time>2017-06-21T13:39:37Z</time>
      </trkpt>
      <trkpt lat="63.694958025589585" lon="9.661519965156913">
        <ele>-34.950000000000003</ele>
        <time>2017-06-21T13:39:58Z</time>
      </trkpt>
      <trkpt lat="63.695095991715789" lon="9.661721969023347">
        <ele>-32.549999999999997</ele>
        <time>2017-06-21T13:40:03Z</time>
      </trkpt>
      <trkpt lat="63.695136979222298" lon="9.661765974014998">
        <ele>-32.07</ele>
        <time>2017-06-21T13:40:04Z</time>
      </trkpt>
      <trkpt lat="63.695176960900426" lon="9.661806961521506">
        <ele>-31.59</ele>
        <time>2017-06-21T13:40:05Z</time>
      </trkpt>
      <trkpt lat="63.695219038054347" lon="9.661835040897131">
        <ele>-31.109999999999999</ele>
        <time>2017-06-21T13:40:06Z</time>
      </trkpt>
      <trkpt lat="63.695256002247334" lon="9.661849960684776">
        <ele>-30.620000000000001</ele>
        <time>2017-06-21T13:40:07Z</time>
      </trkpt>
      <trkpt lat="63.695289026945829" lon="9.661837974563241">
        <ele>-30.620000000000001</ele>
        <time>2017-06-21T13:40:08Z</time>
      </trkpt>
      <trkpt lat="63.695316016674042" lon="9.661816013976932">
        <ele>-30.140000000000001</ele>
        <time>2017-06-21T13:40:09Z</time>
      </trkpt>
      <trkpt lat="63.695331020280719" lon="9.661794975399971">
        <ele>-30.140000000000001</ele>
        <time>2017-06-21T13:40:10Z</time>
      </trkpt>
      <trkpt lat="63.695429004728794" lon="9.661719035357237">
        <ele>-26.780000000000001</ele>
        <time>2017-06-21T13:40:15Z</time>
      </trkpt>
      <trkpt lat="63.695487007498741" lon="9.661739990115166">
        <ele>-25.82</ele>
        <time>2017-06-21T13:40:16Z</time>
      </trkpt>
      <trkpt lat="63.69555096141994" lon="9.661796987056732">
        <ele>-25.34</ele>
        <time>2017-06-21T13:40:17Z</time>
      </trkpt>
      <trkpt lat="63.696384038776159" lon="9.66280298307538">
        <ele>-22.93</ele>
        <time>2017-06-21T13:40:26Z</time>
      </trkpt>
      <trkpt lat="63.698067041113973" lon="9.664587993174791">
        <ele>-20.530000000000001</ele>
        <time>2017-06-21T13:40:39Z</time>
      </trkpt>
      <trkpt lat="63.700291011482477" lon="9.666290022432804">
        <ele>-15.720000000000001</ele>
        <time>2017-06-21T13:40:54Z</time>
      </trkpt>
      <trkpt lat="63.702505007386208" lon="9.667788958176971">
        <ele>-11.880000000000001</ele>
        <time>2017-06-21T13:41:07Z</time>
      </trkpt>
      <trkpt lat="63.704388001933694" lon="9.668776011094451">
        <ele>-8.029999999999999</ele>
        <time>2017-06-21T13:41:19Z</time>
      </trkpt>
      <trkpt lat="63.705456024035811" lon="9.669808996841312">
        <ele>-8.029999999999999</ele>
        <time>2017-06-21T13:41:27Z</time>
      </trkpt>
      <trkpt lat="63.705577980726957" lon="9.669952997937799">
        <ele>-7.55</ele>
        <time>2017-06-21T13:41:28Z</time>
      </trkpt>
      <trkpt lat="63.707629032433033" lon="9.672198006883264">
        <ele>-4.19</ele>
        <time>2017-06-21T13:41:45Z</time>
      </trkpt>
      <trkpt lat="63.708423972129822" lon="9.673064025118947">
        <ele>-3.23</ele>
        <time>2017-06-21T13:41:54Z</time>
      </trkpt>
      <trkpt lat="63.708681967109442" lon="9.673349009826779">
        <ele>-0.82</ele>
        <time>2017-06-21T13:42:02Z</time>
      </trkpt>
      <trkpt lat="63.708774000406265" lon="9.673499967902899">
        <ele>0.14</ele>
        <time>2017-06-21T13:42:04Z</time>
      </trkpt>
      <trkpt lat="63.708818005397916" lon="9.673615973442793">
        <ele>-0.34</ele>
        <time>2017-06-21T13:42:05Z</time>
      </trkpt>
      <trkpt lat="63.709025038406253" lon="9.673919985070825">
        <ele>0.14</ele>
        <time>2017-06-21T13:42:08Z</time>
      </trkpt>
      <trkpt lat="63.709123022854328" lon="9.673971030861139">
        <ele>0.14</ele>
        <time>2017-06-21T13:42:09Z</time>
      </trkpt>
      <trkpt lat="63.709336007013917" lon="9.674098016694188">
        <ele>-0.82</ele>
        <time>2017-06-21T13:42:11Z</time>
      </trkpt>
      <trkpt lat="63.709443965926766" lon="9.674190972000361">
        <ele>-0.82</ele>
        <time>2017-06-21T13:42:12Z</time>
      </trkpt>
      <trkpt lat="63.710475023835897" lon="9.675299981608987">
        <ele>-1.3</ele>
        <time>2017-06-21T13:42:20Z</time>
      </trkpt>
      <trkpt lat="63.712519034743309" lon="9.677636018022895">
        <ele>1.58</ele>
        <time>2017-06-21T13:42:31Z</time>
      </trkpt>
      <trkpt lat="63.714912990108132" lon="9.679712969809771">
        <ele>5.91</ele>
        <time>2017-06-21T13:42:43Z</time>
      </trkpt>
      <trkpt lat="63.716212017461658" lon="9.679385991767049">
        <ele>4.46</ele>
        <time>2017-06-21T13:42:49Z</time>
      </trkpt>
      <trkpt lat="63.718994976952672" lon="9.677367964759469">
        <ele>5.42</ele>
        <time>2017-06-21T13:43:03Z</time>
      </trkpt>
      <trkpt lat="63.720933962613344" lon="9.676510998979211">
        <ele>8.789999999999999</ele>
        <time>2017-06-21T13:43:13Z</time>
      </trkpt>
      <trkpt lat="63.722322005778551" lon="9.677312979474664">
        <ele>7.83</ele>
        <time>2017-06-21T13:43:20Z</time>
      </trkpt>
      <trkpt lat="63.72347803786397" lon="9.679290018975735">
        <ele>8.310000000000001</ele>
        <time>2017-06-21T13:43:27Z</time>
      </trkpt>
      <trkpt lat="63.724309019744396" lon="9.681110987439752">
        <ele>9.27</ele>
        <time>2017-06-21T13:43:34Z</time>
      </trkpt>
      <trkpt lat="63.72595296241343" lon="9.684600038453937">
        <ele>8.789999999999999</ele>
        <time>2017-06-21T13:43:49Z</time>
      </trkpt>
      <trkpt lat="63.727749958634377" lon="9.688296960666776">
        <ele>6.39</ele>
        <time>2017-06-21T13:44:05Z</time>
      </trkpt>
      <trkpt lat="63.729095002636313" lon="9.689768990501761">
        <ele>6.39</ele>
        <time>2017-06-21T13:44:15Z</time>
      </trkpt>
      <trkpt lat="63.731391979381442" lon="9.691836973652244">
        <ele>5.42</ele>
        <time>2017-06-21T13:44:30Z</time>
      </trkpt>
      <trkpt lat="63.733327025547624" lon="9.693815018981695">
        <ele>5.91</ele>
        <time>2017-06-21T13:44:42Z</time>
      </trkpt>
      <trkpt lat="63.734483979642391" lon="9.696331014856696">
        <ele>6.39</ele>
        <time>2017-06-21T13:44:51Z</time>
      </trkpt>
      <trkpt lat="63.735288977622986" lon="9.699594005942345">
        <ele>6.87</ele>
        <time>2017-06-21T13:45:00Z</time>
      </trkpt>
      <trkpt lat="63.735883003100753" lon="9.703695019707084">
        <ele>10.23</ele>
        <time>2017-06-21T13:45:09Z</time>
      </trkpt>
      <trkpt lat="63.736850023269653" lon="9.71004799939692">
        <ele>14.08</ele>
        <time>2017-06-21T13:45:23Z</time>
      </trkpt>
      <trkpt lat="63.737891977652907" lon="9.71376596018672">
        <ele>16</ele>
        <time>2017-06-21T13:45:32Z</time>
      </trkpt>
      <trkpt lat="63.739454029127955" lon="9.717274038121104">
        <ele>16.48</ele>
        <time>2017-06-21T13:45:42Z</time>
      </trkpt>
      <trkpt lat="63.741152035072446" lon="9.719559028744698">
        <ele>16.960000000000001</ele>
        <time>2017-06-21T13:45:51Z</time>
      </trkpt>
      <trkpt lat="63.743351027369499" lon="9.72132601775229">
        <ele>19.359999999999999</ele>
        <time>2017-06-21T13:46:02Z</time>
      </trkpt>
      <trkpt lat="63.74631998129189" lon="9.72360597923398">
        <ele>22.25</ele>
        <time>2017-06-21T13:46:16Z</time>
      </trkpt>
      <trkpt lat="63.749710964038968" lon="9.726383993402124">
        <ele>7.35</ele>
        <time>2017-06-21T13:46:31Z</time>
      </trkpt>
      <trkpt lat="63.751986986026168" lon="9.729157984256744">
        <ele>8.310000000000001</ele>
        <time>2017-06-21T13:46:42Z</time>
      </trkpt>
      <trkpt lat="63.754363004118204" lon="9.733034027740359">
        <ele>21.77</ele>
        <time>2017-06-21T13:46:55Z</time>
      </trkpt>
      <trkpt lat="63.755567986518145" lon="9.735533008351922">
        <ele>23.210000000000001</ele>
        <time>2017-06-21T13:47:03Z</time>
      </trkpt>
      <trkpt lat="63.757409993559122" lon="9.739639973267913">
        <ele>0.14</ele>
        <time>2017-06-21T13:47:19Z</time>
      </trkpt>
      <trkpt lat="63.75824399292469" lon="9.742472972720861">
        <ele>-1.79</ele>
        <time>2017-06-21T13:47:28Z</time>
      </trkpt>
      <trkpt lat="63.758572982624173" lon="9.743729000911117">
        <ele>-1.3</ele>
        <time>2017-06-21T13:47:32Z</time>
      </trkpt>
      <trkpt lat="63.758671972900629" lon="9.744004011154175">
        <ele>-1.3</ele>
        <time>2017-06-21T13:47:33Z</time>
      </trkpt>
      <trkpt lat="63.758781021460891" lon="9.744261000305414">
        <ele>-1.3</ele>
        <time>2017-06-21T13:47:34Z</time>
      </trkpt>
      <trkpt lat="63.759104982018471" lon="9.745063986629248">
        <ele>0.14</ele>
        <time>2017-06-21T13:47:37Z</time>
      </trkpt>
      <trkpt lat="63.759195003658533" lon="9.745380990207195">
        <ele>1.1</ele>
        <time>2017-06-21T13:47:38Z</time>
      </trkpt>
      <trkpt lat="63.759919032454491" lon="9.748686980456114">
        <ele>10.710000000000001</ele>
        <time>2017-06-21T13:47:48Z</time>
      </trkpt>
      <trkpt lat="63.760550022125244" lon="9.751029973849654">
        <ele>19.359999999999999</ele>
        <time>2017-06-21T13:47:56Z</time>
      </trkpt>
      <trkpt lat="63.760657981038094" lon="9.751283023506403">
        <ele>20.32</ele>
        <time>2017-06-21T13:47:57Z</time>
      </trkpt>
      <trkpt lat="63.760770969092846" lon="9.751515034586191">
        <ele>21.289999999999999</ele>
        <time>2017-06-21T13:47:58Z</time>
      </trkpt>
      <trkpt lat="63.760887980461121" lon="9.751720977947116">
        <ele>21.77</ele>
        <time>2017-06-21T13:47:59Z</time>
      </trkpt>
      <trkpt lat="63.761003986001015" lon="9.751920970156789">
        <ele>22.73</ele>
        <time>2017-06-21T13:48:00Z</time>
      </trkpt>
      <trkpt lat="63.761319983750582" lon="9.752592025324702">
        <ele>24.649999999999999</ele>
        <time>2017-06-21T13:48:03Z</time>
      </trkpt>
      <trkpt lat="63.761411011219025" lon="9.752862006425858">
        <ele>24.649999999999999</ele>
        <time>2017-06-21T13:48:04Z</time>
      </trkpt>
      <trkpt lat="63.762117018923163" lon="9.755343971773982">
        <ele>26.09</ele>
        <time>2017-06-21T13:48:13Z</time>
      </trkpt>
      <trkpt lat="63.762167980894446" lon="9.755668016150594">
        <ele>26.57</ele>
        <time>2017-06-21T13:48:14Z</time>
      </trkpt>
      <trkpt lat="63.762194970622659" lon="9.756009997799993">
        <ele>26.57</ele>
        <time>2017-06-21T13:48:15Z</time>
      </trkpt>
      <trkpt lat="63.762203017249703" lon="9.756354996934533">
        <ele>26.57</ele>
        <time>2017-06-21T13:48:16Z</time>
      </trkpt>
      <trkpt lat="63.762192036956549" lon="9.756696978583932">
        <ele>27.050000000000001</ele>
        <time>2017-06-21T13:48:17Z</time>
      </trkpt>
      <trkpt lat="63.762155994772911" lon="9.757024962455034">
        <ele>27.050000000000001</ele>
        <time>2017-06-21T13:48:18Z</time>
      </trkpt>
      <trkpt lat="63.762105032801628" lon="9.757344983518124">
        <ele>27.530000000000001</ele>
        <time>2017-06-21T13:48:19Z</time>
      </trkpt>
      <trkpt lat="63.76204501837492" lon="9.757652012631297">
        <ele>27.530000000000001</ele>
        <time>2017-06-21T13:48:20Z</time>
      </trkpt>
      <trkpt lat="63.761872015893459" lon="9.758538985624909">
        <ele>28.5</ele>
        <time>2017-06-21T13:48:23Z</time>
      </trkpt>
      <trkpt lat="63.761836979538202" lon="9.758855989202857">
        <ele>28.5</ele>
        <time>2017-06-21T13:48:24Z</time>
      </trkpt>
      <trkpt lat="63.761833040043712" lon="9.759179027751088">
        <ele>28.5</ele>
        <time>2017-06-21T13:48:25Z</time>
      </trkpt>
      <trkpt lat="63.761853994801641" lon="9.759507011622191">
        <ele>28.98</ele>
        <time>2017-06-21T13:48:26Z</time>
      </trkpt>
      <trkpt lat="63.761899005621672" lon="9.759818986058235">
        <ele>28.98</ele>
        <time>2017-06-21T13:48:27Z</time>
      </trkpt>
      <trkpt lat="63.761962037533522" lon="9.760125009343028">
        <ele>29.460000000000001</ele>
        <time>2017-06-21T13:48:28Z</time>
      </trkpt>
      <trkpt lat="63.762029008939862" lon="9.760427009314299">
        <ele>29.460000000000001</ele>
        <time>2017-06-21T13:48:29Z</time>
      </trkpt>
      <trkpt lat="63.762140991166234" lon="9.761059004813433">
        <ele>29.940000000000001</ele>
        <time>2017-06-21T13:48:31Z</time>
      </trkpt>
      <trkpt lat="63.76217401586473" lon="9.761384977027774">
        <ele>29.940000000000001</ele>
        <time>2017-06-21T13:48:32Z</time>
      </trkpt>
      <trkpt lat="63.762192036956549" lon="9.761716984212399">
        <ele>30.420000000000002</ele>
        <time>2017-06-21T13:48:33Z</time>
      </trkpt>
      <trkpt lat="63.762195976451039" lon="9.76204396225512">
        <ele>30.420000000000002</ele>
        <time>2017-06-21T13:48:34Z</time>
      </trkpt>
      <trkpt lat="63.762192958965898" lon="9.762369012460113">
        <ele>30.420000000000002</ele>
        <time>2017-06-21T13:48:35Z</time>
      </trkpt>
      <trkpt lat="63.762189019471407" lon="9.766130978241563">
        <ele>29.940000000000001</ele>
        <time>2017-06-21T13:48:47Z</time>
      </trkpt>
      <trkpt lat="63.762542987242341" lon="9.768904969096184">
        <ele>31.379999999999999</ele>
        <time>2017-06-21T13:48:56Z</time>
      </trkpt>
      <trkpt lat="63.762550028041005" lon="9.769213004037738">
        <ele>31.379999999999999</ele>
        <time>2017-06-21T13:48:57Z</time>
      </trkpt>
      <trkpt lat="63.762538963928819" lon="9.769534030929208">
        <ele>31.859999999999999</ele>
        <time>2017-06-21T13:48:58Z</time>
      </trkpt>
      <trkpt lat="63.762510968372226" lon="9.769857991486788">
        <ele>31.859999999999999</ele>
        <time>2017-06-21T13:48:59Z</time>
      </trkpt>
      <trkpt lat="63.762466963380575" lon="9.77018597535789">
        <ele>31.379999999999999</ele>
        <time>2017-06-21T13:49:00Z</time>
      </trkpt>
      <trkpt lat="63.762416001409292" lon="9.770513037219644">
        <ele>31.379999999999999</ele>
        <time>2017-06-21T13:49:01Z</time>
      </trkpt>
      <trkpt lat="63.761889031156898" lon="9.7744179982692">
        <ele>32.82</ele>
        <time>2017-06-21T13:49:13Z</time>
      </trkpt>
      <trkpt lat="63.762020040303469" lon="9.77748996578157">
        <ele>35.229999999999997</ele>
        <time>2017-06-21T13:49:23Z</time>
      </trkpt>
      <trkpt lat="63.762195976451039" lon="9.778425972908735">
        <ele>34.740000000000002</ele>
        <time>2017-06-21T13:49:26Z</time>
      </trkpt>
      <trkpt lat="63.762279963120818" lon="9.778706012293696">
        <ele>33.780000000000001</ele>
        <time>2017-06-21T13:49:27Z</time>
      </trkpt>
      <trkpt lat="63.762381970882416" lon="9.778955038636923">
        <ele>34.259999999999998</ele>
        <time>2017-06-21T13:49:28Z</time>
      </trkpt>
      <trkpt lat="63.762491019442677" lon="9.779173973947763">
        <ele>34.259999999999998</ele>
        <time>2017-06-21T13:49:29Z</time>
      </trkpt>
      <trkpt lat="63.762610964477062" lon="9.779363991692662">
        <ele>34.259999999999998</ele>
        <time>2017-06-21T13:49:30Z</time>
      </trkpt>
      <trkpt lat="63.762735016644001" lon="9.779541017487645">
        <ele>34.259999999999998</ele>
        <time>2017-06-21T13:49:31Z</time>
      </trkpt>
      <trkpt lat="63.763204989954829" lon="9.780293041840196">
        <ele>36.670000000000002</ele>
        <time>2017-06-21T13:49:35Z</time>
      </trkpt>
      <trkpt lat="63.763300962746143" lon="9.780527986586094">
        <ele>36.670000000000002</ele>
        <time>2017-06-21T13:49:36Z</time>
      </trkpt>
      <trkpt lat="63.763382015749812" lon="9.780787993222475">
        <ele>36.670000000000002</ele>
        <time>2017-06-21T13:49:37Z</time>
      </trkpt>
      <trkpt lat="63.76344496384263" lon="9.781071972101927">
        <ele>36.189999999999998</ele>
        <time>2017-06-21T13:49:38Z</time>
      </trkpt>
      <trkpt lat="63.763488968834281" lon="9.781381012871862">
        <ele>35.710000000000001</ele>
        <time>2017-06-21T13:49:39Z</time>
      </trkpt>
      <trkpt lat="63.763513024896383" lon="9.781702039763331">
        <ele>35.710000000000001</ele>
        <time>2017-06-21T13:49:40Z</time>
      </trkpt>
      <trkpt lat="63.763515958562493" lon="9.782039998099208">
        <ele>35.229999999999997</ele>
        <time>2017-06-21T13:49:41Z</time>
      </trkpt>
      <trkpt lat="63.76350799575448" lon="9.782389020547271">
        <ele>35.710000000000001</ele>
        <time>2017-06-21T13:49:42Z</time>
      </trkpt>
      <trkpt lat="63.763492992147803" lon="9.782740976661444">
        <ele>35.229999999999997</ele>
        <time>2017-06-21T13:49:43Z</time>
      </trkpt>
      <trkpt lat="63.763189986348152" lon="9.78618904016912">
        <ele>35.710000000000001</ele>
        <time>2017-06-21T13:49:54Z</time>
      </trkpt>
      <trkpt lat="63.762523038312793" lon="9.788025012239814">
        <ele>29.460000000000001</ele>
        <time>2017-06-21T13:50:01Z</time>
      </trkpt>
      <trkpt lat="63.762264037504792" lon="9.78840203024447">
        <ele>26.57</ele>
        <time>2017-06-21T13:50:03Z</time>
      </trkpt>
      <trkpt lat="63.762125987559557" lon="9.788564974442124">
        <ele>25.609999999999999</ele>
        <time>2017-06-21T13:50:04Z</time>
      </trkpt>
      <trkpt lat="63.761702030897141" lon="9.788999995216727">
        <ele>20.32</ele>
        <time>2017-06-21T13:50:07Z</time>
      </trkpt>
      <trkpt lat="63.761575967073441" lon="9.7891999874264">
        <ele>19.359999999999999</ele>
        <time>2017-06-21T13:50:08Z</time>
      </trkpt>
      <trkpt lat="63.761464990675449" lon="9.789445996284485">
        <ele>18.399999999999999</ele>
        <time>2017-06-21T13:50:09Z</time>
      </trkpt>
      <trkpt lat="63.761376980692148" lon="9.789752019569278">
        <ele>17.440000000000001</ele>
        <time>2017-06-21T13:50:10Z</time>
      </trkpt>
      <trkpt lat="63.761317972093821" lon="9.790092995390296">
        <ele>16.960000000000001</ele>
        <time>2017-06-21T13:50:11Z</time>
      </trkpt>
      <trkpt lat="63.761290982365608" lon="9.79044402949512">
        <ele>16.48</ele>
        <time>2017-06-21T13:50:12Z</time>
      </trkpt>
      <trkpt lat="63.761296011507511" lon="9.790792968124151">
        <ele>15.52</ele>
        <time>2017-06-21T13:50:13Z</time>
      </trkpt>
      <trkpt lat="63.761328030377626" lon="9.791141990572214">
        <ele>16</ele>
        <time>2017-06-21T13:50:14Z</time>
      </trkpt>
      <trkpt lat="63.761386033147573" lon="9.791468968614936">
        <ele>16</ele>
        <time>2017-06-21T13:50:15Z</time>
      </trkpt>
      <trkpt lat="63.761469013988972" lon="9.791765017434955">
        <ele>15.52</ele>
        <time>2017-06-21T13:50:16Z</time>
      </trkpt>
      <trkpt lat="63.761574039235711" lon="9.792031981050968">
        <ele>16</ele>
        <time>2017-06-21T13:50:17Z</time>
      </trkpt>
      <trkpt lat="63.761689960956573" lon="9.79227296076715">
        <ele>16</ele>
        <time>2017-06-21T13:50:18Z</time>
      </trkpt>
      <trkpt lat="63.76180998980999" lon="9.792504971846938">
        <ele>15.52</ele>
        <time>2017-06-21T13:50:19Z</time>
      </trkpt>
      <trkpt lat="63.762149037793279" lon="9.79323998093605">
        <ele>14.08</ele>
        <time>2017-06-21T13:50:22Z</time>
      </trkpt>
      <trkpt lat="63.762231012806296" lon="9.793538963422179">
        <ele>13.6</ele>
        <time>2017-06-21T13:50:23Z</time>
      </trkpt>
      <trkpt lat="63.762290021404624" lon="9.793868036940694">
        <ele>13.119999999999999</ele>
        <time>2017-06-21T13:50:24Z</time>
      </trkpt>
      <trkpt lat="63.76232698559761" lon="9.794216975569725">
        <ele>12.630000000000001</ele>
        <time>2017-06-21T13:50:25Z</time>
      </trkpt>
      <trkpt lat="63.762338971719146" lon="9.794574966654182">
        <ele>11.67</ele>
        <time>2017-06-21T13:50:26Z</time>
      </trkpt>
      <trkpt lat="63.762334026396275" lon="9.79493304155767">
        <ele>11.19</ele>
        <time>2017-06-21T13:50:27Z</time>
      </trkpt>
      <trkpt lat="63.762309970334172" lon="9.795283991843462">
        <ele>10.23</ele>
        <time>2017-06-21T13:50:28Z</time>
      </trkpt>
      <trkpt lat="63.762278035283089" lon="9.795635025948286">
        <ele>9.75</ele>
        <time>2017-06-21T13:50:29Z</time>
      </trkpt>
      <trkpt lat="63.761800015345216" lon="9.797901995480061">
        <ele>6.87</ele>
        <time>2017-06-21T13:50:36Z</time>
      </trkpt>
      <trkpt lat="63.7610790040344" lon="9.800711022689939">
        <ele>0.62</ele>
        <time>2017-06-21T13:50:45Z</time>
      </trkpt>
      <trkpt lat="63.760997029021382" lon="9.8032929841429">
        <ele>-1.3</ele>
        <time>2017-06-21T13:50:52Z</time>
      </trkpt>
      <trkpt lat="63.761312020942569" lon="9.805526006966829">
        <ele>-1.3</ele>
        <time>2017-06-21T13:51:00Z</time>
      </trkpt>
      <trkpt lat="63.761432971805334" lon="9.805989023298025">
        <ele>-0.82</ele>
        <time>2017-06-21T13:51:02Z</time>
      </trkpt>
      <trkpt lat="63.761507989838719" lon="9.806190021336079">
        <ele>-1.3</ele>
        <time>2017-06-21T13:51:03Z</time>
      </trkpt>
      <trkpt lat="63.761595999822021" lon="9.806374004110694">
        <ele>-1.3</ele>
        <time>2017-06-21T13:51:04Z</time>
      </trkpt>
      <trkpt lat="63.761697001755238" lon="9.80653996579349">
        <ele>-0.82</ele>
        <time>2017-06-21T13:51:05Z</time>
      </trkpt>
      <trkpt lat="63.761802027001977" lon="9.806677009910345">
        <ele>-0.82</ele>
        <time>2017-06-21T13:51:06Z</time>
      </trkpt>
      <trkpt lat="63.761906968429685" lon="9.806786980479956">
        <ele>-0.82</ele>
        <time>2017-06-21T13:51:07Z</time>
      </trkpt>
      <trkpt lat="63.762011993676424" lon="9.806864010170102">
        <ele>-0.82</ele>
        <time>2017-06-21T13:51:08Z</time>
      </trkpt>
      <trkpt lat="63.762112995609641" lon="9.80692402459681">
        <ele>-0.82</ele>
        <time>2017-06-21T13:51:09Z</time>
      </trkpt>
      <trkpt lat="63.762208968400955" lon="9.806960988789797">
        <ele>-1.3</ele>
        <time>2017-06-21T13:51:10Z</time>
      </trkpt>
      <trkpt lat="63.762782039120793" lon="9.807291990146041">
        <ele>-2.75</ele>
        <time>2017-06-21T13:51:16Z</time>
      </trkpt>
      <trkpt lat="63.762850016355515" lon="9.80737597681582">
        <ele>-2.75</ele>
        <time>2017-06-21T13:51:17Z</time>
      </trkpt>
      <trkpt lat="63.76290500164032" lon="9.807450994849205">
        <ele>-3.23</ele>
        <time>2017-06-21T13:51:18Z</time>
      </trkpt>
      <trkpt lat="63.762945989146829" lon="9.807511009275913">
        <ele>-3.23</ele>
        <time>2017-06-21T13:51:19Z</time>
      </trkpt>
      <trkpt lat="63.76296803355217" lon="9.807555014267564">
        <ele>-3.23</ele>
        <time>2017-06-21T13:51:20Z</time>
      </trkpt>
      <trkpt lat="63.762984964996576" lon="9.807584015652537">
        <ele>-3.23</ele>
        <time>2017-06-21T13:51:21Z</time>
      </trkpt>
      <trkpt lat="63.763050008565187" lon="9.80784603394568">
        <ele>-2.27</ele>
        <time>2017-06-21T13:51:26Z</time>
      </trkpt>
      <trkpt lat="63.763058977201581" lon="9.807973019778729">
        <ele>-2.27</ele>
        <time>2017-06-21T13:51:27Z</time>
      </trkpt>
      <trkpt lat="63.763055959716439" lon="9.808133030310273">
        <ele>-2.27</ele>
        <time>2017-06-21T13:51:28Z</time>
      </trkpt>
      <trkpt lat="63.763039028272033" lon="9.808317013084889">
        <ele>-1.79</ele>
        <time>2017-06-21T13:51:29Z</time>
      </trkpt>
      <trkpt lat="63.763009021058679" lon="9.808522034436464">
        <ele>-1.79</ele>
        <time>2017-06-21T13:51:30Z</time>
      </trkpt>
      <trkpt lat="63.76279603689909" lon="9.810458002611995">
        <ele>0.14</ele>
        <time>2017-06-21T13:51:36Z</time>
      </trkpt>
      <trkpt lat="63.762834006920457" lon="9.813441038131714">
        <ele>3.02</ele>
        <time>2017-06-21T13:51:43Z</time>
      </trkpt>
      <trkpt lat="63.763188980519772" lon="9.81717299669981">
        <ele>8.310000000000001</ele>
        <time>2017-06-21T13:51:52Z</time>
      </trkpt>
      <trkpt lat="63.763284031301737" lon="9.81758002191782">
        <ele>9.27</ele>
        <time>2017-06-21T13:51:53Z</time>
      </trkpt>
      <trkpt lat="63.763403976336122" lon="9.818015964701772">
        <ele>11.19</ele>
        <time>2017-06-21T13:51:54Z</time>
      </trkpt>
      <trkpt lat="63.764286004006863" lon="9.820561967790127">
        <ele>22.25</ele>
        <time>2017-06-21T13:52:00Z</time>
      </trkpt>
      <trkpt lat="63.764676013961434" lon="9.821888990700245">
        <ele>25.129999999999999</ele>
        <time>2017-06-21T13:52:05Z</time>
      </trkpt>
      <trkpt lat="63.765195021405816" lon="9.824873032048345">
        <ele>30.899999999999999</ele>
        <time>2017-06-21T13:52:13Z</time>
      </trkpt>
      <trkpt lat="63.76610403880477" lon="9.828854016959667">
        <ele>36.189999999999998</ele>
        <time>2017-06-21T13:52:23Z</time>
      </trkpt>
      <trkpt lat="63.767350008711219" lon="9.831762034446001">
        <ele>40.990000000000002</ele>
        <time>2017-06-21T13:52:32Z</time>
      </trkpt>
      <trkpt lat="63.769313972443342" lon="9.835586026310921">
        <ele>38.109999999999999</ele>
        <time>2017-06-21T13:52:45Z</time>
      </trkpt>
      <trkpt lat="63.771210964769125" lon="9.83919502235949">
        <ele>41.950000000000003</ele>
        <time>2017-06-21T13:52:57Z</time>
      </trkpt>
      <trkpt lat="63.771386984735727" lon="9.839381016790867">
        <ele>40.030000000000001</ele>
        <time>2017-06-21T13:52:58Z</time>
      </trkpt>
      <trkpt lat="63.771566022187471" lon="9.839522000402212">
        <ele>38.109999999999999</ele>
        <time>2017-06-21T13:52:59Z</time>
      </trkpt>
      <trkpt lat="63.77175603993237" lon="9.839620990678668">
        <ele>36.189999999999998</ele>
        <time>2017-06-21T13:53:00Z</time>
      </trkpt>
      <trkpt lat="63.772528013214469" lon="9.83996800146997">
        <ele>29.460000000000001</ele>
        <time>2017-06-21T13:53:04Z</time>
      </trkpt>
      <trkpt lat="63.772707972675562" lon="9.840149972587824">
        <ele>27.530000000000001</ele>
        <time>2017-06-21T13:53:05Z</time>
      </trkpt>
      <trkpt lat="63.772877035662532" lon="9.840391036123037">
        <ele>25.609999999999999</ele>
        <time>2017-06-21T13:53:06Z</time>
      </trkpt>
      <trkpt lat="63.773027993738651" lon="9.840695969760418">
        <ele>25.129999999999999</ele>
        <time>2017-06-21T13:53:07Z</time>
      </trkpt>
      <trkpt lat="63.773151040077209" lon="9.841051027178764">
        <ele>24.649999999999999</ele>
        <time>2017-06-21T13:53:08Z</time>
      </trkpt>
      <trkpt lat="63.773243995383382" lon="9.841444976627827">
        <ele>24.649999999999999</ele>
        <time>2017-06-21T13:53:09Z</time>
      </trkpt>
      <trkpt lat="63.773307027295232" lon="9.841870022937655">
        <ele>24.649999999999999</ele>
        <time>2017-06-21T13:53:10Z</time>
      </trkpt>
      <trkpt lat="63.773340974003077" lon="9.842322980985045">
        <ele>25.609999999999999</ele>
        <time>2017-06-21T13:53:11Z</time>
      </trkpt>
      <trkpt lat="63.773349020630121" lon="9.842790020629764">
        <ele>27.530000000000001</ele>
        <time>2017-06-21T13:53:12Z</time>
      </trkpt>
      <trkpt lat="63.773340974003077" lon="9.843257982283831">
        <ele>29.940000000000001</ele>
        <time>2017-06-21T13:53:13Z</time>
      </trkpt>
      <trkpt lat="63.773327982053161" lon="9.843725021928549">
        <ele>31.859999999999999</ele>
        <time>2017-06-21T13:53:14Z</time>
      </trkpt>
      <trkpt lat="63.773328987881541" lon="9.844649964943528">
        <ele>35.710000000000001</ele>
        <time>2017-06-21T13:53:16Z</time>
      </trkpt>
      <trkpt lat="63.773363018408418" lon="9.845100995153189">
        <ele>37.149999999999999</ele>
        <time>2017-06-21T13:53:17Z</time>
      </trkpt>
      <trkpt lat="63.773422027006745" lon="9.845538027584553">
        <ele>38.590000000000003</ele>
        <time>2017-06-21T13:53:18Z</time>
      </trkpt>
      <trkpt lat="63.773499978706241" lon="9.845949998125434">
        <ele>39.07</ele>
        <time>2017-06-21T13:53:19Z</time>
      </trkpt>
      <trkpt lat="63.773597041144967" lon="9.846355011686683">
        <ele>40.509999999999998</ele>
        <time>2017-06-21T13:53:20Z</time>
      </trkpt>
      <trkpt lat="63.773708017542958" lon="9.846759019419551">
        <ele>41.950000000000003</ele>
        <time>2017-06-21T13:53:21Z</time>
      </trkpt>
      <trkpt lat="63.775141993537545" lon="9.851053990423679">
        <ele>51.090000000000003</ele>
        <time>2017-06-21T13:53:32Z</time>
      </trkpt>
      <trkpt lat="63.776120999827981" lon="9.852802036330104">
        <ele>48.68</ele>
        <time>2017-06-21T13:53:38Z</time>
      </trkpt>
      <trkpt lat="63.776256032288074" lon="9.853152986615896">
        <ele>49.159999999999997</ele>
        <time>2017-06-21T13:53:39Z</time>
      </trkpt>
      <trkpt lat="63.77637798897922" lon="9.853535033762455">
        <ele>49.649999999999999</ele>
        <time>2017-06-21T13:53:40Z</time>
      </trkpt>
      <trkpt lat="63.777683973312378" lon="9.858554033562541">
        <ele>51.57</ele>
        <time>2017-06-21T13:53:52Z</time>
      </trkpt>
      <trkpt lat="63.777817999944091" lon="9.858901966363192">
        <ele>53.009999999999998</ele>
        <time>2017-06-21T13:53:53Z</time>
      </trkpt>
      <trkpt lat="63.777967030182481" lon="9.859212012961507">
        <ele>54.450000000000003</ele>
        <time>2017-06-21T13:53:54Z</time>
      </trkpt>
      <trkpt lat="63.778130980208516" lon="9.859486017376185">
        <ele>55.890000000000001</ele>
        <time>2017-06-21T13:53:55Z</time>
      </trkpt>
      <trkpt lat="63.778305994346738" lon="9.859705958515406">
        <ele>56.859999999999999</ele>
        <time>2017-06-21T13:53:56Z</time>
      </trkpt>
      <trkpt lat="63.778486037626863" lon="9.859864041209221">
        <ele>57.82</ele>
        <time>2017-06-21T13:53:57Z</time>
      </trkpt>
      <trkpt lat="63.778674965724349" lon="9.859976023435593">
        <ele>58.780000000000001</ele>
        <time>2017-06-21T13:53:58Z</time>
      </trkpt>
      <trkpt lat="63.778874035924673" lon="9.860038971528411">
        <ele>59.740000000000002</ele>
        <time>2017-06-21T13:53:59Z</time>
      </trkpt>
      <trkpt lat="63.779073022305965" lon="9.860090017318726">
        <ele>60.219999999999999</ele>
        <time>2017-06-21T13:54:00Z</time>
      </trkpt>
      <trkpt lat="63.781697982922196" lon="9.860758977010846">
        <ele>81.370000000000005</ele>
        <time>2017-06-21T13:54:13Z</time>
      </trkpt>
      <trkpt lat="63.78187702037394" lon="9.860911024734378">
        <ele>83.290000000000006</ele>
        <time>2017-06-21T13:54:14Z</time>
      </trkpt>
      <trkpt lat="63.782050022855401" lon="9.861115040257573">
        <ele>84.730000000000004</ele>
        <time>2017-06-21T13:54:15Z</time>
      </trkpt>
      <trkpt lat="63.782211039215326" lon="9.861361971125007">
        <ele>86.659999999999997</ele>
        <time>2017-06-21T13:54:16Z</time>
      </trkpt>
      <trkpt lat="63.782357973977923" lon="9.861662965267897">
        <ele>88.099999999999994</ele>
        <time>2017-06-21T13:54:17Z</time>
      </trkpt>
      <trkpt lat="63.782492000609636" lon="9.862008970230818">
        <ele>89.540000000000006</ele>
        <time>2017-06-21T13:54:18Z</time>
      </trkpt>
      <trkpt lat="63.782612029463053" lon="9.862391017377377">
        <ele>91.459999999999994</ele>
        <time>2017-06-21T13:54:19Z</time>
      </trkpt>
      <trkpt lat="63.782717976719141" lon="9.862801982089877">
        <ele>92.900000000000006</ele>
        <time>2017-06-21T13:54:20Z</time>
      </trkpt>
      <trkpt lat="63.782816966995597" lon="9.863230967894197">
        <ele>94.829999999999998</ele>
        <time>2017-06-21T13:54:21Z</time>
      </trkpt>
      <trkpt lat="63.784138960763812" lon="9.867918966338038">
        <ele>110.20999999999999</ele>
        <time>2017-06-21T13:54:32Z</time>
      </trkpt>
      <trkpt lat="63.785179993137717" lon="9.872515015304089">
        <ele>114.53</ele>
        <time>2017-06-21T13:54:42Z</time>
      </trkpt>
      <trkpt lat="63.786365026608109" lon="9.879956971853972">
        <ele>109.73</ele>
        <time>2017-06-21T13:54:56Z</time>
      </trkpt>
      <trkpt lat="63.788092033937573" lon="9.890890996903181">
        <ele>124.63</ele>
        <time>2017-06-21T13:55:16Z</time>
      </trkpt>
      <trkpt lat="63.78941997885704" lon="9.899187991395593">
        <ele>122.22</ele>
        <time>2017-06-21T13:55:31Z</time>
      </trkpt>
      <trkpt lat="63.790261019021273" lon="9.905816987156868">
        <ele>127.98999999999999</ele>
        <time>2017-06-21T13:55:43Z</time>
      </trkpt>
      <trkpt lat="63.790956968441606" lon="9.916345998644829">
        <ele>133.75999999999999</ele>
        <time>2017-06-21T13:56:01Z</time>
      </trkpt>
      <trkpt lat="63.791560968384147" lon="9.922489011660218">
        <ele>129.91999999999999</ele>
        <time>2017-06-21T13:56:12Z</time>
      </trkpt>
      <trkpt lat="63.792550032958388" lon="9.92850897833705">
        <ele>109.25</ele>
        <time>2017-06-21T13:56:23Z</time>
      </trkpt>
      <trkpt lat="63.793184962123632" lon="9.934320989996195">
        <ele>102.04000000000001</ele>
        <time>2017-06-21T13:56:34Z</time>
      </trkpt>
      <trkpt lat="63.793786028400064" lon="9.939891016110778">
        <ele>95.310000000000002</ele>
        <time>2017-06-21T13:56:46Z</time>
      </trkpt>
      <trkpt lat="63.794472003355622" lon="9.946214994415641">
        <ele>88.579999999999998</ele>
        <time>2017-06-21T13:57:01Z</time>
      </trkpt>
      <trkpt lat="63.794716000556946" lon="9.950158009305596">
        <ele>79.450000000000003</ele>
        <time>2017-06-21T13:57:10Z</time>
      </trkpt>
      <trkpt lat="63.794928984716535" lon="9.953099973499775">
        <ele>78.480000000000004</ele>
        <time>2017-06-21T13:57:17Z</time>
      </trkpt>
      <trkpt lat="63.795339027419686" lon="9.9558150395751">
        <ele>72.719999999999999</ele>
        <time>2017-06-21T13:57:23Z</time>
      </trkpt>
      <trkpt lat="63.795361993834376" lon="9.956255005672574">
        <ele>71.269999999999996</ele>
        <time>2017-06-21T13:57:24Z</time>
      </trkpt>
      <trkpt lat="63.795367022976279" lon="9.956702012568712">
        <ele>71.269999999999996</ele>
        <time>2017-06-21T13:57:25Z</time>
      </trkpt>
      <trkpt lat="63.795343972742558" lon="9.957152036949992">
        <ele>69.829999999999998</ele>
        <time>2017-06-21T13:57:26Z</time>
      </trkpt>
      <trkpt lat="63.795295022428036" lon="9.95760097168386">
        <ele>67.909999999999997</ele>
        <time>2017-06-21T13:57:27Z</time>
      </trkpt>
      <trkpt lat="63.795223021879792" lon="9.958030041307211">
        <ele>65.030000000000001</ele>
        <time>2017-06-21T13:57:28Z</time>
      </trkpt>
      <trkpt lat="63.795126965269446" lon="9.958442011848092">
        <ele>64.069999999999993</ele>
        <time>2017-06-21T13:57:29Z</time>
      </trkpt>
      <trkpt lat="63.795009031891823" lon="9.958838978782296">
        <ele>63.100000000000001</ele>
        <time>2017-06-21T13:57:30Z</time>
      </trkpt>
      <trkpt lat="63.794869976118207" lon="9.959213985130191">
        <ele>62.619999999999997</ele>
        <time>2017-06-21T13:57:31Z</time>
      </trkpt>
      <trkpt lat="63.794716000556946" lon="9.959573987871409">
        <ele>61.18</ele>
        <time>2017-06-21T13:57:32Z</time>
      </trkpt>
      <trkpt lat="63.79272798076272" lon="9.963839035481215">
        <ele>53.009999999999998</ele>
        <time>2017-06-21T13:57:44Z</time>
      </trkpt>
      <trkpt lat="63.790668966248631" lon="9.96836400590837">
        <ele>50.609999999999999</ele>
        <time>2017-06-21T13:57:57Z</time>
      </trkpt>
      <trkpt lat="63.788849003612995" lon="9.973522983491421">
        <ele>58.780000000000001</ele>
        <time>2017-06-21T13:58:10Z</time>
      </trkpt>
      <trkpt lat="63.787126019597054" lon="9.978529997169972">
        <ele>56.859999999999999</ele>
        <time>2017-06-21T13:58:23Z</time>
      </trkpt>
      <trkpt lat="63.78604500554502" lon="9.981850991025567">
        <ele>48.68</ele>
        <time>2017-06-21T13:58:32Z</time>
      </trkpt>
      <trkpt lat="63.785968981683254" lon="9.982262039557099">
        <ele>48.68</ele>
        <time>2017-06-21T13:58:33Z</time>
      </trkpt>
      <trkpt lat="63.785917013883591" lon="9.982704017311335">
        <ele>48.200000000000003</ele>
        <time>2017-06-21T13:58:34Z</time>
      </trkpt>
      <trkpt lat="63.785893963649869" lon="9.983155969530344">
        <ele>48.200000000000003</ele>
        <time>2017-06-21T13:58:35Z</time>
      </trkpt>
      <trkpt lat="63.78589203581214" lon="9.98361999168992">
        <ele>48.68</ele>
        <time>2017-06-21T13:58:36Z</time>
      </trkpt>
      <trkpt lat="63.785896981135011" lon="9.984089965000749">
        <ele>48.68</ele>
        <time>2017-06-21T13:58:37Z</time>
      </trkpt>
      <trkpt lat="63.786054980009794" lon="9.988810988143086">
        <ele>48.200000000000003</ele>
        <time>2017-06-21T13:58:47Z</time>
      </trkpt>
      <trkpt lat="63.786118011921644" lon="9.989278027787805">
        <ele>48.200000000000003</ele>
        <time>2017-06-21T13:58:48Z</time>
      </trkpt>
      <trkpt lat="63.786200992763042" lon="9.989753030240536">
        <ele>49.159999999999997</ele>
        <time>2017-06-21T13:58:49Z</time>
      </trkpt>
      <trkpt lat="63.78729198127985" lon="9.995394973084331">
        <ele>56.859999999999999</ele>
        <time>2017-06-21T13:59:01Z</time>
      </trkpt>
      <trkpt lat="63.788195969536901" lon="10.001700008288026">
        <ele>64.069999999999993</ele>
        <time>2017-06-21T13:59:13Z</time>
      </trkpt>
      <trkpt lat="63.78851699642837" lon="10.00660702586174">
        <ele>62.619999999999997</ele>
        <time>2017-06-21T13:59:22Z</time>
      </trkpt>
      <trkpt lat="63.788221031427383" lon="10.011193016543984">
        <ele>59.259999999999998</ele>
        <time>2017-06-21T13:59:31Z</time>
      </trkpt>
      <trkpt lat="63.788195969536901" lon="10.012678038328886">
        <ele>59.740000000000002</ele>
        <time>2017-06-21T13:59:34Z</time>
      </trkpt>
      <trkpt lat="63.788222959265113" lon="10.013124039396644">
        <ele>59.740000000000002</ele>
        <time>2017-06-21T13:59:35Z</time>
      </trkpt>
      <trkpt lat="63.788354974240065" lon="10.016139009967446">
        <ele>55.890000000000001</ele>
        <time>2017-06-21T13:59:41Z</time>
      </trkpt>
      <trkpt lat="63.788181971758604" lon="10.018670009449124">
        <ele>50.609999999999999</ele>
        <time>2017-06-21T13:59:47Z</time>
      </trkpt>
      <trkpt lat="63.788134027272463" lon="10.019035041332245">
        <ele>50.130000000000003</ele>
        <time>2017-06-21T13:59:48Z</time>
      </trkpt>
      <trkpt lat="63.788055991753936" lon="10.019405018538237">
        <ele>51.090000000000003</ele>
        <time>2017-06-21T13:59:49Z</time>
      </trkpt>
      <trkpt lat="63.787780981510878" lon="10.020588962361217">
        <ele>50.609999999999999</ele>
        <time>2017-06-21T13:59:52Z</time>
      </trkpt>
      <trkpt lat="63.787737982347608" lon="10.021032029762864">
        <ele>51.090000000000003</ele>
        <time>2017-06-21T13:59:53Z</time>
      </trkpt>
      <trkpt lat="63.787714010104537" lon="10.021482976153493">
        <ele>52.049999999999997</ele>
        <time>2017-06-21T13:59:54Z</time>
      </trkpt>
      <trkpt lat="63.787663970142603" lon="10.022802036255598">
        <ele>51.090000000000003</ele>
        <time>2017-06-21T13:59:57Z</time>
      </trkpt>
      <trkpt lat="63.787619965150952" lon="10.023264968767762">
        <ele>49.649999999999999</ele>
        <time>2017-06-21T13:59:58Z</time>
      </trkpt>
      <trkpt lat="63.787557017058134" lon="10.023748017847538">
        <ele>48.68</ele>
        <time>2017-06-21T13:59:59Z</time>
      </trkpt>
      <trkpt lat="63.786829970777035" lon="10.028156982734799">
        <ele>57.82</ele>
        <time>2017-06-21T14:00:08Z</time>
      </trkpt>
      <trkpt lat="63.786721006035805" lon="10.029088966548443">
        <ele>62.140000000000001</ele>
        <time>2017-06-21T14:00:10Z</time>
      </trkpt>
      <trkpt lat="63.786696027964354" lon="10.029564974829555">
        <ele>63.100000000000001</ele>
        <time>2017-06-21T14:00:11Z</time>
      </trkpt>
      <trkpt lat="63.786687981337309" lon="10.030041988939047">
        <ele>64.549999999999997</ele>
        <time>2017-06-21T14:00:12Z</time>
      </trkpt>
      <trkpt lat="63.786695022135973" lon="10.030524032190442">
        <ele>65.989999999999995</ele>
        <time>2017-06-21T14:00:13Z</time>
      </trkpt>
      <trkpt lat="63.786713965237141" lon="10.030999034643173">
        <ele>66.469999999999999</ele>
        <time>2017-06-21T14:00:14Z</time>
      </trkpt>
      <trkpt lat="63.786752019077539" lon="10.031481999903917">
        <ele>65.989999999999995</ele>
        <time>2017-06-21T14:00:15Z</time>
      </trkpt>
      <trkpt lat="63.786811027675867" lon="10.031966976821423">
        <ele>65.510000000000005</ele>
        <time>2017-06-21T14:00:16Z</time>
      </trkpt>
      <trkpt lat="63.786879004910588" lon="10.032460000365973">
        <ele>64.069999999999993</ele>
        <time>2017-06-21T14:00:17Z</time>
      </trkpt>
      <trkpt lat="63.787752985954285" lon="10.03844995982945">
        <ele>53.969999999999999</ele>
        <time>2017-06-21T14:00:28Z</time>
      </trkpt>
      <trkpt lat="63.788898959755898" lon="10.046432968229055">
        <ele>60.700000000000003</ele>
        <time>2017-06-21T14:00:43Z</time>
      </trkpt>
      <trkpt lat="63.789630029350519" lon="10.050272969529033">
        <ele>66.950000000000003</ele>
        <time>2017-06-21T14:00:52Z</time>
      </trkpt>
      <trkpt lat="63.790828976780176" lon="10.053455997258425">
        <ele>70.310000000000002</ele>
        <time>2017-06-21T14:01:01Z</time>
      </trkpt>
      <trkpt lat="63.790931990370154" lon="10.053892023861408">
        <ele>71.269999999999996</ele>
        <time>2017-06-21T14:01:02Z</time>
      </trkpt>
      <trkpt lat="63.791016982868314" lon="10.054345987737179">
        <ele>71.269999999999996</ele>
        <time>2017-06-21T14:01:03Z</time>
      </trkpt>
      <trkpt lat="63.791746040806174" lon="10.059129958972335">
        <ele>75.599999999999994</ele>
        <time>2017-06-21T14:01:14Z</time>
      </trkpt>
      <trkpt lat="63.792273011058569" lon="10.063957013189793">
        <ele>78</ele>
        <time>2017-06-21T14:01:25Z</time>
      </trkpt>
      <trkpt lat="63.792298994958401" lon="10.064839040860534">
        <ele>77.519999999999996</ele>
        <time>2017-06-21T14:01:27Z</time>
      </trkpt>
      <trkpt lat="63.792338976636529" lon="10.065258974209428">
        <ele>77.519999999999996</ele>
        <time>2017-06-21T14:01:28Z</time>
      </trkpt>
      <trkpt lat="63.792398991063237" lon="10.06566901691258">
        <ele>78</ele>
        <time>2017-06-21T14:01:29Z</time>
      </trkpt>
      <trkpt lat="63.792480966076255" lon="10.066055003553629">
        <ele>78</ele>
        <time>2017-06-21T14:01:30Z</time>
      </trkpt>
      <trkpt lat="63.792578028514981" lon="10.06642397493124">
        <ele>78.969999999999999</ele>
        <time>2017-06-21T14:01:31Z</time>
      </trkpt>
      <trkpt lat="63.792692022398114" lon="10.066774003207684">
        <ele>80.409999999999997</ele>
        <time>2017-06-21T14:01:32Z</time>
      </trkpt>
      <trkpt lat="63.792810961604118" lon="10.067074997350574">
        <ele>80.409999999999997</ele>
        <time>2017-06-21T14:01:33Z</time>
      </trkpt>
      <trkpt lat="63.792934007942677" lon="10.067353025078773">
        <ele>80.890000000000001</ele>
        <time>2017-06-21T14:01:34Z</time>
      </trkpt>
      <trkpt lat="63.793063005432487" lon="10.067600961774588">
        <ele>80.890000000000001</ele>
        <time>2017-06-21T14:01:35Z</time>
      </trkpt>
      <trkpt lat="63.795040966942906" lon="10.071593010798097">
        <ele>75.599999999999994</ele>
        <time>2017-06-21T14:01:51Z</time>
      </trkpt>
      <trkpt lat="63.796918010339141" lon="10.075458995997906">
        <ele>71.269999999999996</ele>
        <time>2017-06-21T14:02:06Z</time>
      </trkpt>
      <trkpt lat="63.797767013311386" lon="10.077954037114978">
        <ele>72.719999999999999</ele>
        <time>2017-06-21T14:02:13Z</time>
      </trkpt>
      <trkpt lat="63.799093030393124" lon="10.082256970927119">
        <ele>75.599999999999994</ele>
        <time>2017-06-21T14:02:24Z</time>
      </trkpt>
      <trkpt lat="63.799966005608439" lon="10.085073038935661">
        <ele>80.890000000000001</ele>
        <time>2017-06-21T14:02:31Z</time>
      </trkpt>
      <trkpt lat="63.800923973321915" lon="10.089012030512094">
        <ele>84.25</ele>
        <time>2017-06-21T14:02:41Z</time>
      </trkpt>
      <trkpt lat="63.801958970725536" lon="10.096147041767836">
        <ele>83.769999999999996</ele>
        <time>2017-06-21T14:02:57Z</time>
      </trkpt>
      <trkpt lat="63.802392985671759" lon="10.10112295858562">
        <ele>80.890000000000001</ele>
        <time>2017-06-21T14:03:08Z</time>
      </trkpt>
      <trkpt lat="63.803112991154194" lon="10.104376981034875">
        <ele>79.450000000000003</ele>
        <time>2017-06-21T14:03:16Z</time>
      </trkpt>
      <trkpt lat="63.804101971909404" lon="10.108446981757879">
        <ele>75.599999999999994</ele>
        <time>2017-06-21T14:03:27Z</time>
      </trkpt>
      <trkpt lat="63.805130012333393" lon="10.112700965255499">
        <ele>70.310000000000002</ele>
        <time>2017-06-21T14:03:37Z</time>
      </trkpt>
      <trkpt lat="63.806562982499599" lon="10.119006000459194">
        <ele>71.269999999999996</ele>
        <time>2017-06-21T14:03:50Z</time>
      </trkpt>
      <trkpt lat="63.806992974132299" lon="10.123459976166487">
        <ele>70.310000000000002</ele>
        <time>2017-06-21T14:03:59Z</time>
      </trkpt>
      <trkpt lat="63.807815993204713" lon="10.129085993394256">
        <ele>70.310000000000002</ele>
        <time>2017-06-21T14:04:11Z</time>
      </trkpt>
      <trkpt lat="63.808705983683467" lon="10.135264964774251">
        <ele>73.200000000000003</ele>
        <time>2017-06-21T14:04:24Z</time>
      </trkpt>
      <trkpt lat="63.808661978691816" lon="10.139820026233792">
        <ele>81.370000000000005</ele>
        <time>2017-06-21T14:04:33Z</time>
      </trkpt>
      <trkpt lat="63.808143977075815" lon="10.143533041700721">
        <ele>83.290000000000006</ele>
        <time>2017-06-21T14:04:41Z</time>
      </trkpt>
      <trkpt lat="63.807357000187039" lon="10.148252975195646">
        <ele>91.939999999999998</ele>
        <time>2017-06-21T14:04:52Z</time>
      </trkpt>
      <trkpt lat="63.8072519749403" lon="10.148564027622342">
        <ele>92.900000000000006</ele>
        <time>2017-06-21T14:04:53Z</time>
      </trkpt>
      <trkpt lat="63.807124989107251" lon="10.148851023986936">
        <ele>93.390000000000001</ele>
        <time>2017-06-21T14:04:54Z</time>
      </trkpt>
      <trkpt lat="63.806980988010764" lon="10.14909896068275">
        <ele>93.390000000000001</ele>
        <time>2017-06-21T14:04:55Z</time>
      </trkpt>
      <trkpt lat="63.806822989135981" lon="10.149303982034326">
        <ele>92.900000000000006</ele>
        <time>2017-06-21T14:04:56Z</time>
      </trkpt>
      <trkpt lat="63.806646969169378" lon="10.149469021707773">
        <ele>91.939999999999998</ele>
        <time>2017-06-21T14:04:57Z</time>
      </trkpt>
      <trkpt lat="63.80647799000144" lon="10.149649986997247">
        <ele>90.980000000000004</ele>
        <time>2017-06-21T14:04:58Z</time>
      </trkpt>
      <trkpt lat="63.806314039975405" lon="10.149880992248654">
        <ele>88.099999999999994</ele>
        <time>2017-06-21T14:04:59Z</time>
      </trkpt>
      <trkpt lat="63.806172972545028" lon="10.15017201192677">
        <ele>87.140000000000001</ele>
        <time>2017-06-21T14:05:00Z</time>
      </trkpt>
      <trkpt lat="63.806060990318656" lon="10.150527991354465">
        <ele>85.689999999999998</ele>
        <time>2017-06-21T14:05:01Z</time>
      </trkpt>
      <trkpt lat="63.805974991992116" lon="10.150928981602192">
        <ele>85.209999999999994</ele>
        <time>2017-06-21T14:05:02Z</time>
      </trkpt>
      <trkpt lat="63.805907014757395" lon="10.151370037347078">
        <ele>84.730000000000004</ele>
        <time>2017-06-21T14:05:03Z</time>
      </trkpt>
      <trkpt lat="63.805841971188784" lon="10.151824001222849">
        <ele>83.769999999999996</ele>
        <time>2017-06-21T14:05:04Z</time>
      </trkpt>
      <trkpt lat="63.805552963167429" lon="10.15446899458766">
        <ele>82.329999999999998</ele>
        <time>2017-06-21T14:05:10Z</time>
      </trkpt>
      <trkpt lat="63.8055510353297" lon="10.154934022575617">
        <ele>82.810000000000002</ele>
        <time>2017-06-21T14:05:11Z</time>
      </trkpt>
      <trkpt lat="63.80557400174439" lon="10.155425034463406">
        <ele>82.810000000000002</ele>
        <time>2017-06-21T14:05:12Z</time>
      </trkpt>
      <trkpt lat="63.805610965937376" lon="10.155946975573897">
        <ele>83.290000000000006</ele>
        <time>2017-06-21T14:05:13Z</time>
      </trkpt>
      <trkpt lat="63.805658994242549" lon="10.156491966918111">
        <ele>84.25</ele>
        <time>2017-06-21T14:05:14Z</time>
      </trkpt>
      <trkpt lat="63.805920006707311" lon="10.16001102514565">
        <ele>87.140000000000001</ele>
        <time>2017-06-21T14:05:21Z</time>
      </trkpt>
      <trkpt lat="63.805642984807491" lon="10.163437966257334">
        <ele>87.620000000000005</ele>
        <time>2017-06-21T14:05:28Z</time>
      </trkpt>
      <trkpt lat="63.804821977391839" lon="10.169394984841347">
        <ele>94.829999999999998</ele>
        <time>2017-06-21T14:05:40Z</time>
      </trkpt>
      <trkpt lat="63.804148994386196" lon="10.172592010349035">
        <ele>105.40000000000001</ele>
        <time>2017-06-21T14:05:47Z</time>
      </trkpt>
      <trkpt lat="63.804100966081023" lon="10.173022001981735">
        <ele>106.36</ele>
        <time>2017-06-21T14:05:48Z</time>
      </trkpt>
      <trkpt lat="63.804077999666333" lon="10.173474038019776">
        <ele>107.81</ele>
        <time>2017-06-21T14:05:49Z</time>
      </trkpt>
      <trkpt lat="63.80407297052443" lon="10.173930013552308">
        <ele>109.25</ele>
        <time>2017-06-21T14:05:50Z</time>
      </trkpt>
      <trkpt lat="63.804076993837953" lon="10.174405016005039">
        <ele>110.69</ele>
        <time>2017-06-21T14:05:51Z</time>
      </trkpt>
      <trkpt lat="63.804160980507731" lon="10.175816025584936">
        <ele>114.53</ele>
        <time>2017-06-21T14:05:54Z</time>
      </trkpt>
      <trkpt lat="63.804231975227594" lon="10.176261020824313">
        <ele>115.5</ele>
        <time>2017-06-21T14:05:55Z</time>
      </trkpt>
      <trkpt lat="63.804333982989192" lon="10.176680032163858">
        <ele>115.98</ele>
        <time>2017-06-21T14:05:56Z</time>
      </trkpt>
      <trkpt lat="63.804454011842608" lon="10.177086973562837">
        <ele>116.94</ele>
        <time>2017-06-21T14:05:57Z</time>
      </trkpt>
      <trkpt lat="63.804580997675657" lon="10.177491987124085">
        <ele>117.42</ele>
        <time>2017-06-21T14:05:58Z</time>
      </trkpt>
      <trkpt lat="63.80583300255239" lon="10.181302987039089">
        <ele>118.38</ele>
        <time>2017-06-21T14:06:07Z</time>
      </trkpt>
      <trkpt lat="63.806195016950369" lon="10.182500006631017">
        <ele>118.86</ele>
        <time>2017-06-21T14:06:10Z</time>
      </trkpt>
      <trkpt lat="63.806284032762051" lon="10.182931004092097">
        <ele>118.38</ele>
        <time>2017-06-21T14:06:11Z</time>
      </trkpt>
      <trkpt lat="63.806337006390095" lon="10.183368036523461">
        <ele>117.42</ele>
        <time>2017-06-21T14:06:12Z</time>
      </trkpt>
      <trkpt lat="63.80636902526021" lon="10.183801967650652">
        <ele>117.42</ele>
        <time>2017-06-21T14:06:13Z</time>
      </trkpt>
      <trkpt lat="63.806374976411462" lon="10.1842260081321">
        <ele>116.94</ele>
        <time>2017-06-21T14:06:14Z</time>
      </trkpt>
      <trkpt lat="63.806355027481914" lon="10.184646025300026">
        <ele>116.45999999999999</ele>
        <time>2017-06-21T14:06:15Z</time>
      </trkpt>
      <trkpt lat="63.806310016661882" lon="10.185076016932726">
        <ele>116.45999999999999</ele>
        <time>2017-06-21T14:06:16Z</time>
      </trkpt>
      <trkpt lat="63.80624296143651" lon="10.185497961938381">
        <ele>116.94</ele>
        <time>2017-06-21T14:06:17Z</time>
      </trkpt>
      <trkpt lat="63.806141037493944" lon="10.185913033783436">
        <ele>116.94</ele>
        <time>2017-06-21T14:06:18Z</time>
      </trkpt>
      <trkpt lat="63.806011034175754" lon="10.186291979625821">
        <ele>116.94</ele>
        <time>2017-06-21T14:06:19Z</time>
      </trkpt>
      <trkpt lat="63.805856974795461" lon="10.186622980982065">
        <ele>116.94</ele>
        <time>2017-06-21T14:06:20Z</time>
      </trkpt>
      <trkpt lat="63.805696964263916" lon="10.186880975961685">
        <ele>117.42</ele>
        <time>2017-06-21T14:06:21Z</time>
      </trkpt>
      <trkpt lat="63.805529996752739" lon="10.1870649587363">
        <ele>117.90000000000001</ele>
        <time>2017-06-21T14:06:22Z</time>
      </trkpt>
      <trkpt lat="63.805349031463265" lon="10.187156992033124">
        <ele>117.42</ele>
        <time>2017-06-21T14:06:23Z</time>
      </trkpt>
      <trkpt lat="63.805172005668283" lon="10.187217006459832">
        <ele>117.90000000000001</ele>
        <time>2017-06-21T14:06:24Z</time>
      </trkpt>
      <trkpt lat="63.804996991530061" lon="10.187264028936625">
        <ele>117.90000000000001</ele>
        <time>2017-06-21T14:06:25Z</time>
      </trkpt>
      <trkpt lat="63.804659033194184" lon="10.187392020598054">
        <ele>119.34</ele>
        <time>2017-06-21T14:06:27Z</time>
      </trkpt>
      <trkpt lat="63.804487036541104" lon="10.187509031966329">
        <ele>119.81999999999999</ele>
        <time>2017-06-21T14:06:28Z</time>
      </trkpt>
      <trkpt lat="63.804324008524418" lon="10.18768304027617">
        <ele>120.3</ele>
        <time>2017-06-21T14:06:29Z</time>
      </trkpt>
      <trkpt lat="63.804174978286028" lon="10.187909016385674">
        <ele>121.26000000000001</ele>
        <time>2017-06-21T14:06:30Z</time>
      </trkpt>
      <trkpt lat="63.804032988846302" lon="10.18817899748683">
        <ele>121.73999999999999</ele>
        <time>2017-06-21T14:06:31Z</time>
      </trkpt>
      <trkpt lat="63.803895022720098" lon="10.188469011336565">
        <ele>122.22</ele>
        <time>2017-06-21T14:06:32Z</time>
      </trkpt>
      <trkpt lat="63.803772982209921" lon="10.188792971894145">
        <ele>122.70999999999999</ele>
        <time>2017-06-21T14:06:33Z</time>
      </trkpt>
      <trkpt lat="63.803674997761846" lon="10.189137971028686">
        <ele>123.19</ele>
        <time>2017-06-21T14:06:34Z</time>
      </trkpt>
      <trkpt lat="63.803605008870363" lon="10.189519012346864">
        <ele>123.19</ele>
        <time>2017-06-21T14:06:35Z</time>
      </trkpt>
      <trkpt lat="63.8035530410707" lon="10.189926959574223">
        <ele>123.19</ele>
        <time>2017-06-21T14:06:36Z</time>
      </trkpt>
      <trkpt lat="63.803519010543823" lon="10.190341025590897">
        <ele>121.26000000000001</ele>
        <time>2017-06-21T14:06:37Z</time>
      </trkpt>
      <trkpt lat="63.803291022777557" lon="10.192069038748741">
        <ele>120.78</ele>
        <time>2017-06-21T14:06:41Z</time>
      </trkpt>
      <trkpt lat="63.803195971995592" lon="10.192469023168087">
        <ele>121.73999999999999</ele>
        <time>2017-06-21T14:06:42Z</time>
      </trkpt>
      <trkpt lat="63.801702987402678" lon="10.197637975215912">
        <ele>131.36000000000001</ele>
        <time>2017-06-21T14:06:56Z</time>
      </trkpt>
      <trkpt lat="63.800318967550993" lon="10.202513979747891">
        <ele>128.47</ele>
        <time>2017-06-21T14:07:10Z</time>
      </trkpt>
      <trkpt lat="63.800285020843148" lon="10.202830983325839">
        <ele>127.51000000000001</ele>
        <time>2017-06-21T14:07:11Z</time>
      </trkpt>
      <trkpt lat="63.800279991701245" lon="10.203173970803618">
        <ele>127.03</ele>
        <time>2017-06-21T14:07:12Z</time>
      </trkpt>
      <trkpt lat="63.800302036106586" lon="10.203532967716455">
        <ele>126.06999999999999</ele>
        <time>2017-06-21T14:07:13Z</time>
      </trkpt>
      <trkpt lat="63.800348974764347" lon="10.203887019306421">
        <ele>125.59</ele>
        <time>2017-06-21T14:07:14Z</time>
      </trkpt>
      <trkpt lat="63.800398008897901" lon="10.204225983470678">
        <ele>125.11</ele>
        <time>2017-06-21T14:07:15Z</time>
      </trkpt>
      <trkpt lat="63.80063496530056" lon="10.205685021355748">
        <ele>120.78</ele>
        <time>2017-06-21T14:07:21Z</time>
      </trkpt>
      <trkpt lat="63.800811991095543" lon="10.207182029262185">
        <ele>115.98</ele>
        <time>2017-06-21T14:07:27Z</time>
      </trkpt>
      <trkpt lat="63.800809979438782" lon="10.207441030070186">
        <ele>115.01000000000001</ele>
        <time>2017-06-21T14:07:28Z</time>
      </trkpt>
      <trkpt lat="63.800794975832105" lon="10.207697013393044">
        <ele>114.05</ele>
        <time>2017-06-21T14:07:29Z</time>
      </trkpt>
      <trkpt lat="63.800767986103892" lon="10.207965988665819">
        <ele>113.56999999999999</ele>
        <time>2017-06-21T14:07:30Z</time>
      </trkpt>
      <trkpt lat="63.800734961405396" lon="10.208252985030413">
        <ele>112.61</ele>
        <time>2017-06-21T14:07:31Z</time>
      </trkpt>
      <trkpt lat="63.800650974735618" lon="10.209165019914508">
        <ele>110.20999999999999</ele>
        <time>2017-06-21T14:07:34Z</time>
      </trkpt>
      <trkpt lat="63.800649968907237" lon="10.209489986300468">
        <ele>109.25</ele>
        <time>2017-06-21T14:07:35Z</time>
      </trkpt>
      <trkpt lat="63.800667989999056" lon="10.20981403067708">
        <ele>108.29000000000001</ele>
        <time>2017-06-21T14:07:36Z</time>
      </trkpt>
      <trkpt lat="63.800703026354313" lon="10.21013698540628">
        <ele>107.81</ele>
        <time>2017-06-21T14:07:37Z</time>
      </trkpt>
      <trkpt lat="63.800748959183693" lon="10.210466980934143">
        <ele>107.31999999999999</ele>
        <time>2017-06-21T14:07:38Z</time>
      </trkpt>
      <trkpt lat="63.801526967436075" lon="10.214363979175687">
        <ele>105.40000000000001</ele>
        <time>2017-06-21T14:07:50Z</time>
      </trkpt>
      <trkpt lat="63.802239010110497" lon="10.217921007424593">
        <ele>102.52</ele>
        <time>2017-06-21T14:08:01Z</time>
      </trkpt>
      <trkpt lat="63.803264033049345" lon="10.22223299369216">
        <ele>99.150000000000006</ele>
        <time>2017-06-21T14:08:15Z</time>
      </trkpt>
      <trkpt lat="63.803740041330457" lon="10.225715003907681">
        <ele>98.670000000000002</ele>
        <time>2017-06-21T14:08:26Z</time>
      </trkpt>
      <trkpt lat="63.803826961666346" lon="10.226370971649885">
        <ele>96.75</ele>
        <time>2017-06-21T14:08:31Z</time>
      </trkpt>
      <trkpt lat="63.803880019113421" lon="10.226786965504289">
        <ele>96.75</ele>
        <time>2017-06-21T14:08:44Z</time>
      </trkpt>
      <trkpt lat="63.804130973294377" lon="10.228558983653784">
        <ele>97.230000000000004</ele>
        <time>2017-06-21T14:08:51Z</time>
      </trkpt>
      <trkpt lat="63.80415896885097" lon="10.228910017758608">
        <ele>96.75</ele>
        <time>2017-06-21T14:08:52Z</time>
      </trkpt>
      <trkpt lat="63.804171960800886" lon="10.22928100079298">
        <ele>96.75</ele>
        <time>2017-06-21T14:08:53Z</time>
      </trkpt>
      <trkpt lat="63.804176989942789" lon="10.229649972170591">
        <ele>96.75</ele>
        <time>2017-06-21T14:08:54Z</time>
      </trkpt>
      <trkpt lat="63.804252007976174" lon="10.231574038043618">
        <ele>96.75</ele>
        <time>2017-06-21T14:08:59Z</time>
      </trkpt>
      <trkpt lat="63.804311016574502" lon="10.231962958350778">
        <ele>96.75</ele>
        <time>2017-06-21T14:09:00Z</time>
      </trkpt>
      <trkpt lat="63.804387962445617" lon="10.232338970527053">
        <ele>96.75</ele>
        <time>2017-06-21T14:09:01Z</time>
      </trkpt>
      <trkpt lat="63.804482007399201" lon="10.232693022117019">
        <ele>96.75</ele>
        <time>2017-06-21T14:09:02Z</time>
      </trkpt>
      <trkpt lat="63.804594995453954" lon="10.233006002381444">
        <ele>96.75</ele>
        <time>2017-06-21T14:09:03Z</time>
      </trkpt>
      <trkpt lat="63.804723992943764" lon="10.233286963775754">
        <ele>96.75</ele>
        <time>2017-06-21T14:09:04Z</time>
      </trkpt>
      <trkpt lat="63.804867994040251" lon="10.233548982068896">
        <ele>96.75</ele>
        <time>2017-06-21T14:09:05Z</time>
      </trkpt>
      <trkpt lat="63.805442992597818" lon="10.234556989744306">
        <ele>97.230000000000004</ele>
        <time>2017-06-21T14:09:09Z</time>
      </trkpt>
      <trkpt lat="63.805580958724022" lon="10.234722029417753">
        <ele>97.230000000000004</ele>
        <time>2017-06-21T14:09:10Z</time>
      </trkpt>
      <trkpt lat="63.80572303198278" lon="10.234838034957647">
        <ele>97.230000000000004</ele>
        <time>2017-06-21T14:09:11Z</time>
      </trkpt>
      <trkpt lat="63.805865021422505" lon="10.234900983050466">
        <ele>97.230000000000004</ele>
        <time>2017-06-21T14:09:12Z</time>
      </trkpt>
      <trkpt lat="63.806012040004134" lon="10.234898971393704">
        <ele>97.230000000000004</ele>
        <time>2017-06-21T14:09:13Z</time>
      </trkpt>
      <trkpt lat="63.806165009737015" lon="10.2348249591887">
        <ele>96.75</ele>
        <time>2017-06-21T14:09:14Z</time>
      </trkpt>
      <trkpt lat="63.806316973641515" lon="10.234697973355651">
        <ele>96.75</ele>
        <time>2017-06-21T14:09:15Z</time>
      </trkpt>
      <trkpt lat="63.806473966687918" lon="10.234522959217429">
        <ele>96.269999999999996</ele>
        <time>2017-06-21T14:09:16Z</time>
      </trkpt>
      <trkpt lat="63.806813014671206" lon="10.234209978953004">
        <ele>96.75</ele>
        <time>2017-06-21T14:09:18Z</time>
      </trkpt>
      <trkpt lat="63.807005966082215" lon="10.234119035303593">
        <ele>97.709999999999994</ele>
        <time>2017-06-21T14:09:19Z</time>
      </trkpt>
      <trkpt lat="63.807195983827114" lon="10.234089028090239">
        <ele>98.189999999999998</ele>
        <time>2017-06-21T14:09:20Z</time>
      </trkpt>
      <trkpt lat="63.807387007400393" lon="10.234118029475212">
        <ele>100.11</ele>
        <time>2017-06-21T14:09:21Z</time>
      </trkpt>
      <trkpt lat="63.807576019316912" lon="10.234181983396411">
        <ele>101.56</ele>
        <time>2017-06-21T14:09:22Z</time>
      </trkpt>
      <trkpt lat="63.80776503123343" lon="10.234281979501247">
        <ele>102.52</ele>
        <time>2017-06-21T14:09:23Z</time>
      </trkpt>
      <trkpt lat="63.810010962188244" lon="10.235214969143271">
        <ele>112.61</ele>
        <time>2017-06-21T14:09:34Z</time>
      </trkpt>
      <trkpt lat="63.812550008296967" lon="10.235718972980976">
        <ele>127.03</ele>
        <time>2017-06-21T14:09:46Z</time>
      </trkpt>
      <trkpt lat="63.814431997016072" lon="10.235256040468812">
        <ele>123.67</ele>
        <time>2017-06-21T14:09:56Z</time>
      </trkpt>
      <trkpt lat="63.815893968567252" lon="10.234894026070833">
        <ele>122.70999999999999</ele>
        <time>2017-06-21T14:10:03Z</time>
      </trkpt>
      <trkpt lat="63.816872974857688" lon="10.234560007229447">
        <ele>122.22</ele>
        <time>2017-06-21T14:10:09Z</time>
      </trkpt>
      <trkpt lat="63.8174560200423" lon="10.23415801115334">
        <ele>122.22</ele>
        <time>2017-06-21T14:10:17Z</time>
      </trkpt>
      <trkpt lat="63.817748967558146" lon="10.233930023387074">
        <ele>120.3</ele>
        <time>2017-06-21T14:10:26Z</time>
      </trkpt>
      <trkpt lat="63.817814011126757" lon="10.233847964555025">
        <ele>119.34</ele>
        <time>2017-06-21T14:10:40Z</time>
      </trkpt>
      <trkpt lat="63.817818034440279" lon="10.233843019232154">
        <ele>119.81999999999999</ele>
        <time>2017-06-21T14:12:33Z</time>
      </trkpt>
      <trkpt lat="63.818074017763138" lon="10.233678985387087">
        <ele>119.34</ele>
        <time>2017-06-21T14:12:43Z</time>
      </trkpt>
      <trkpt lat="63.818879015743732" lon="10.2330859657377">
        <ele>120.78</ele>
        <time>2017-06-21T14:12:57Z</time>
      </trkpt>
      <trkpt lat="63.819346977397799" lon="10.232585985213518">
        <ele>120.78</ele>
        <time>2017-06-21T14:13:05Z</time>
      </trkpt>
      <trkpt lat="63.820011997595429" lon="10.23123599588871">
        <ele>124.15000000000001</ele>
        <time>2017-06-21T14:13:17Z</time>
      </trkpt>
      <trkpt lat="63.820563023909926" lon="10.23052697069943">
        <ele>123.67</ele>
        <time>2017-06-21T14:13:25Z</time>
      </trkpt>
      <trkpt lat="63.820652039721608" lon="10.230478020384908">
        <ele>123.67</ele>
        <time>2017-06-21T14:13:26Z</time>
      </trkpt>
      <trkpt lat="63.820748012512922" lon="10.230447007343173">
        <ele>123.67</ele>
        <time>2017-06-21T14:13:27Z</time>
      </trkpt>
      <trkpt lat="63.820848008617759" lon="10.230451030656695">
        <ele>123.19</ele>
        <time>2017-06-21T14:13:28Z</time>
      </trkpt>
      <trkpt lat="63.820954961702228" lon="10.230487994849682">
        <ele>123.67</ele>
        <time>2017-06-21T14:13:29Z</time>
      </trkpt>
      <trkpt lat="63.821059986948967" lon="10.230553038418293">
        <ele>124.15000000000001</ele>
        <time>2017-06-21T14:13:30Z</time>
      </trkpt>
      <trkpt lat="63.821160988882184" lon="10.230633001774549">
        <ele>124.15000000000001</ele>
        <time>2017-06-21T14:13:31Z</time>
      </trkpt>
      <trkpt lat="63.821635991334915" lon="10.23084900341928">
        <ele>125.11</ele>
        <time>2017-06-21T14:13:36Z</time>
      </trkpt>
      <trkpt lat="63.821730958297849" lon="10.230841962620616">
        <ele>125.11</ele>
        <time>2017-06-21T14:13:37Z</time>
      </trkpt>
      <trkpt lat="63.82181997410953" lon="10.230816984549165">
        <ele>125.11</ele>
        <time>2017-06-21T14:13:38Z</time>
      </trkpt>
      <trkpt lat="63.821906978264451" lon="10.230770967900753">
        <ele>125.11</ele>
        <time>2017-06-21T14:13:39Z</time>
      </trkpt>
      <trkpt lat="63.821995994076133" lon="10.230702990666032">
        <ele>125.11</ele>
        <time>2017-06-21T14:13:40Z</time>
      </trkpt>
      <trkpt lat="63.822809038683772" lon="10.23031197488308">
        <ele>125.59</ele>
        <time>2017-06-21T14:13:50Z</time>
      </trkpt>
      <trkpt lat="63.823281023651361" lon="10.230348017066717">
        <ele>126.06999999999999</ele>
        <time>2017-06-21T14:14:00Z</time>
      </trkpt>
      <trkpt lat="63.823410021141171" lon="10.230356985703111">
        <ele>126.55</ele>
        <time>2017-06-21T14:14:03Z</time>
      </trkpt>
      <trkpt lat="63.824160033836961" lon="10.230510039255023">
        <ele>128.94999999999999</ele>
        <time>2017-06-21T14:14:16Z</time>
      </trkpt>
      <trkpt lat="63.825164018198848" lon="10.230377018451691">
        <ele>128.47</ele>
        <time>2017-06-21T14:14:30Z</time>
      </trkpt>
      <trkpt lat="63.826266992837191" lon="10.229802019894123">
        <ele>127.98999999999999</ele>
        <time>2017-06-21T14:14:46Z</time>
      </trkpt>
      <trkpt lat="63.827097974717617" lon="10.229096012189984">
        <ele>127.03</ele>
        <time>2017-06-21T14:14:57Z</time>
      </trkpt>
      <trkpt lat="63.828018978238106" lon="10.228295959532261">
        <ele>126.55</ele>
        <time>2017-06-21T14:15:06Z</time>
      </trkpt>
      <trkpt lat="63.829125976189971" lon="10.228043999522924">
        <ele>127.03</ele>
        <time>2017-06-21T14:15:13Z</time>
      </trkpt>
      <trkpt lat="63.83051703684032" lon="10.228731986135244">
        <ele>127.03</ele>
        <time>2017-06-21T14:15:20Z</time>
      </trkpt>
      <trkpt lat="63.833186002448201" lon="10.23052797652781">
        <ele>132.80000000000001</ele>
        <time>2017-06-21T14:15:34Z</time>
      </trkpt>
      <trkpt lat="63.834427027031779" lon="10.230836011469364">
        <ele>138.56999999999999</ele>
        <time>2017-06-21T14:15:41Z</time>
      </trkpt>
      <trkpt lat="63.835648018866777" lon="10.230350028723478">
        <ele>140.00999999999999</ele>
        <time>2017-06-21T14:15:49Z</time>
      </trkpt>
      <trkpt lat="63.83675099350512" lon="10.229153009131551">
        <ele>141.93000000000001</ele>
        <time>2017-06-21T14:15:59Z</time>
      </trkpt>
      <trkpt lat="63.837060034275055" lon="10.228755958378315">
        <ele>141.93000000000001</ele>
        <time>2017-06-21T14:16:02Z</time>
      </trkpt>
      <trkpt lat="63.837172016501427" lon="10.22865797393024">
        <ele>141.93000000000001</ele>
        <time>2017-06-21T14:16:03Z</time>
      </trkpt>
      <trkpt lat="63.837292967364192" lon="10.228591002523899">
        <ele>142.41</ele>
        <time>2017-06-21T14:16:04Z</time>
      </trkpt>
      <trkpt lat="63.837420037016273" lon="10.228556971997023">
        <ele>142.41</ele>
        <time>2017-06-21T14:16:05Z</time>
      </trkpt>
      <trkpt lat="63.837550040334463" lon="10.228562001138926">
        <ele>142.88999999999999</ele>
        <time>2017-06-21T14:16:06Z</time>
      </trkpt>
      <trkpt lat="63.837677026167512" lon="10.22859301418066">
        <ele>143.37</ele>
        <time>2017-06-21T14:16:07Z</time>
      </trkpt>
      <trkpt lat="63.837805017828941" lon="10.228640958666801">
        <ele>144.34</ele>
        <time>2017-06-21T14:16:08Z</time>
      </trkpt>
      <trkpt lat="63.838325031101704" lon="10.228819996118546">
        <ele>147.22</ele>
        <time>2017-06-21T14:16:12Z</time>
      </trkpt>
      <trkpt lat="63.838454028591514" lon="10.22880700416863">
        <ele>147.69999999999999</ele>
        <time>2017-06-21T14:16:13Z</time>
      </trkpt>
      <trkpt lat="63.838584031909704" lon="10.228767022490501">
        <ele>147.69999999999999</ele>
        <time>2017-06-21T14:16:14Z</time>
      </trkpt>
      <trkpt lat="63.839103961363435" lon="10.228689992800355">
        <ele>148.66</ele>
        <time>2017-06-21T14:16:18Z</time>
      </trkpt>
      <trkpt lat="63.839234970510006" lon="10.228735003620386">
        <ele>149.13999999999999</ele>
        <time>2017-06-21T14:16:19Z</time>
      </trkpt>
      <trkpt lat="63.839365979656577" lon="10.22880800999701">
        <ele>149.62</ele>
        <time>2017-06-21T14:16:20Z</time>
      </trkpt>
      <trkpt lat="63.840710017830133" lon="10.229411004111171">
        <ele>156.83000000000001</ele>
        <time>2017-06-21T14:16:30Z</time>
      </trkpt>
      <trkpt lat="63.842088002711535" lon="10.229289969429374">
        <ele>163.56</ele>
        <time>2017-06-21T14:16:40Z</time>
      </trkpt>
      <trkpt lat="63.842208031564951" lon="10.229243030771613">
        <ele>164.03999999999999</ele>
        <time>2017-06-21T14:16:41Z</time>
      </trkpt>
      <trkpt lat="63.842321019619703" lon="10.229167006909847">
        <ele>164.52000000000001</ele>
        <time>2017-06-21T14:16:42Z</time>
      </trkpt>
      <trkpt lat="63.842431996017694" lon="10.229057958349586">
        <ele>165</ele>
        <time>2017-06-21T14:16:43Z</time>
      </trkpt>
      <trkpt lat="63.842543978244066" lon="10.228922003880143">
        <ele>165</ele>
        <time>2017-06-21T14:16:44Z</time>
      </trkpt>
      <trkpt lat="63.843699004501104" lon="10.227375961840153">
        <ele>160.19999999999999</ele>
        <time>2017-06-21T14:16:53Z</time>
      </trkpt>
      <trkpt lat="63.843859015032649" lon="10.227245036512613">
        <ele>159.24000000000001</ele>
        <time>2017-06-21T14:16:54Z</time>
      </trkpt>
      <trkpt lat="63.846009979024529" lon="10.226111970841885">
        <ele>155.38999999999999</ele>
        <time>2017-06-21T14:17:06Z</time>
      </trkpt>
      <trkpt lat="63.848991002887487" lon="10.224749995395541">
        <ele>154.43000000000001</ele>
        <time>2017-06-21T14:17:22Z</time>
      </trkpt>
      <trkpt lat="63.851543040946126" lon="10.224590990692377">
        <ele>154.91</ele>
        <time>2017-06-21T14:17:34Z</time>
      </trkpt>
      <trkpt lat="63.853306006640196" lon="10.224588979035616">
        <ele>152.03</ele>
        <time>2017-06-21T14:17:42Z</time>
      </trkpt>
      <trkpt lat="63.853513961657882" lon="10.224671037867665">
        <ele>152.50999999999999</ele>
        <time>2017-06-21T14:17:43Z</time>
      </trkpt>
      <trkpt lat="63.853714959695935" lon="10.224799029529095">
        <ele>152.50999999999999</ele>
        <time>2017-06-21T14:17:44Z</time>
      </trkpt>
      <trkpt lat="63.853907994925976" lon="10.224964991211891">
        <ele>152.99000000000001</ele>
        <time>2017-06-21T14:17:45Z</time>
      </trkpt>
      <trkpt lat="63.854090971872211" lon="10.225173030048609">
        <ele>153.94999999999999</ele>
        <time>2017-06-21T14:17:46Z</time>
      </trkpt>
      <trkpt lat="63.854267997667193" lon="10.225407974794507">
        <ele>154.43000000000001</ele>
        <time>2017-06-21T14:17:47Z</time>
      </trkpt>
      <trkpt lat="63.855604995042086" lon="10.22648898884654">
        <ele>161.63999999999999</ele>
        <time>2017-06-21T14:17:54Z</time>
      </trkpt>
      <trkpt lat="63.857210967689753" lon="10.226641036570072">
        <ele>164.03999999999999</ele>
        <time>2017-06-21T14:18:02Z</time>
      </trkpt>
      <trkpt lat="63.858630023896694" lon="10.225609978660941">
        <ele>162.59999999999999</ele>
        <time>2017-06-21T14:18:09Z</time>
      </trkpt>
      <trkpt lat="63.861296977847815" lon="10.22347703576088">
        <ele>157.78999999999999</ele>
        <time>2017-06-21T14:18:22Z</time>
      </trkpt>
      <trkpt lat="63.862985009327531" lon="10.223330017179251">
        <ele>161.63999999999999</ele>
        <time>2017-06-21T14:18:30Z</time>
      </trkpt>
      <trkpt lat="63.864473970606923" lon="10.222759963944554">
        <ele>160.68000000000001</ele>
        <time>2017-06-21T14:18:37Z</time>
      </trkpt>
      <trkpt lat="63.865988999605179" lon="10.221220040693879">
        <ele>159.24000000000001</ele>
        <time>2017-06-21T14:18:45Z</time>
      </trkpt>
      <trkpt lat="63.867593966424465" lon="10.22064596414566">
        <ele>158.75</ele>
        <time>2017-06-21T14:18:53Z</time>
      </trkpt>
      <trkpt lat="63.868329981341958" lon="10.220256960019469">
        <ele>159.24000000000001</ele>
        <time>2017-06-21T14:18:57Z</time>
      </trkpt>
      <trkpt lat="63.868508012965322" lon="10.22006300278008">
        <ele>159.24000000000001</ele>
        <time>2017-06-21T14:18:58Z</time>
      </trkpt>
      <trkpt lat="63.869662033393979" lon="10.218880986794829">
        <ele>161.16</ele>
        <time>2017-06-21T14:19:04Z</time>
      </trkpt>
      <trkpt lat="63.869877029210329" lon="10.218802029266953">
        <ele>161.16</ele>
        <time>2017-06-21T14:19:05Z</time>
      </trkpt>
      <trkpt lat="63.870089007541537" lon="10.218775039538741">
        <ele>163.08000000000001</ele>
        <time>2017-06-21T14:19:06Z</time>
      </trkpt>
      <trkpt lat="63.872750010341406" lon="10.218459041789174">
        <ele>165.96000000000001</ele>
        <time>2017-06-21T14:19:18Z</time>
      </trkpt>
      <trkpt lat="63.87473501265049" lon="10.21722799167037">
        <ele>169.33000000000001</ele>
        <time>2017-06-21T14:19:27Z</time>
      </trkpt>
      <trkpt lat="63.877221001312137" lon="10.215850006788969">
        <ele>158.75</ele>
        <time>2017-06-21T14:19:38Z</time>
      </trkpt>
      <trkpt lat="63.879054039716721" lon="10.216198023408651">
        <ele>157.31</ele>
        <time>2017-06-21T14:19:46Z</time>
      </trkpt>
      <trkpt lat="63.881459981203079" lon="10.216344958171248">
        <ele>156.83000000000001</ele>
        <time>2017-06-21T14:19:57Z</time>
      </trkpt>
      <trkpt lat="63.883413970470428" lon="10.215697037056088">
        <ele>157.31</ele>
        <time>2017-06-21T14:20:06Z</time>
      </trkpt>
      <trkpt lat="63.885552026331425" lon="10.215934999287128">
        <ele>158.27000000000001</ele>
        <time>2017-06-21T14:20:16Z</time>
      </trkpt>
      <trkpt lat="63.887251960113645" lon="10.215367963537574">
        <ele>152.03</ele>
        <time>2017-06-21T14:20:24Z</time>
      </trkpt>
      <trkpt lat="63.890084037557244" lon="10.215225974097848">
        <ele>140.00999999999999</ele>
        <time>2017-06-21T14:20:37Z</time>
      </trkpt>
      <trkpt lat="63.89048301614821" lon="10.21546795964241">
        <ele>138.09</ele>
        <time>2017-06-21T14:20:39Z</time>
      </trkpt>
      <trkpt lat="63.890674039721489" lon="10.215653032064438">
        <ele>137.13</ele>
        <time>2017-06-21T14:20:40Z</time>
      </trkpt>
      <trkpt lat="63.890840001404285" lon="10.215901974588633">
        <ele>136.63999999999999</ele>
        <time>2017-06-21T14:20:41Z</time>
      </trkpt>
      <trkpt lat="63.890981990844011" lon="10.216203974559903">
        <ele>135.68000000000001</ele>
        <time>2017-06-21T14:20:42Z</time>
      </trkpt>
      <trkpt lat="63.891112999990582" lon="10.216532964259386">
        <ele>134.72</ele>
        <time>2017-06-21T14:20:43Z</time>
      </trkpt>
      <trkpt lat="63.891229005530477" lon="10.216891961172223">
        <ele>133.28</ele>
        <time>2017-06-21T14:20:44Z</time>
      </trkpt>
      <trkpt lat="63.891338976100087" lon="10.217285994440317">
        <ele>132.80000000000001</ele>
        <time>2017-06-21T14:20:45Z</time>
      </trkpt>
      <trkpt lat="63.891432015225291" lon="10.217697964981198">
        <ele>131.36000000000001</ele>
        <time>2017-06-21T14:20:46Z</time>
      </trkpt>
      <trkpt lat="63.891527988016605" lon="10.218126028776169">
        <ele>129.91999999999999</ele>
        <time>2017-06-21T14:20:47Z</time>
      </trkpt>
      <trkpt lat="63.892467012628913" lon="10.22086095996201">
        <ele>122.70999999999999</ele>
        <time>2017-06-21T14:20:54Z</time>
      </trkpt>
      <trkpt lat="63.895387016236782" lon="10.226970026269555">
        <ele>104.92</ele>
        <time>2017-06-21T14:21:12Z</time>
      </trkpt>
      <trkpt lat="63.896490996703506" lon="10.228152964264154">
        <ele>98.189999999999998</ele>
        <time>2017-06-21T14:21:18Z</time>
      </trkpt>
      <trkpt lat="63.896675985306501" lon="10.22822898812592">
        <ele>97.709999999999994</ele>
        <time>2017-06-21T14:21:19Z</time>
      </trkpt>
      <trkpt lat="63.896863991394639" lon="10.228258995339274">
        <ele>96.75</ele>
        <time>2017-06-21T14:21:20Z</time>
      </trkpt>
      <trkpt lat="63.897661026567221" lon="10.228290008381009">
        <ele>93.870000000000005</ele>
        <time>2017-06-21T14:21:24Z</time>
      </trkpt>
      <trkpt lat="63.89897296205163" lon="10.229018982499838">
        <ele>88.099999999999994</ele>
        <time>2017-06-21T14:21:31Z</time>
      </trkpt>
      <trkpt lat="63.899133978411555" lon="10.229235989972949">
        <ele>87.140000000000001</ele>
        <time>2017-06-21T14:21:32Z</time>
      </trkpt>
      <trkpt lat="63.900284981355071" lon="10.231183022260666">
        <ele>80.409999999999997</ele>
        <time>2017-06-21T14:21:39Z</time>
      </trkpt>
      <trkpt lat="63.900469969958067" lon="10.231373040005565">
        <ele>79.930000000000007</ele>
        <time>2017-06-21T14:21:40Z</time>
      </trkpt>
      <trkpt lat="63.900656970217824" lon="10.231506982818246">
        <ele>79.450000000000003</ele>
        <time>2017-06-21T14:21:41Z</time>
      </trkpt>
      <trkpt lat="63.900856962427497" lon="10.231587029993534">
        <ele>78.969999999999999</ele>
        <time>2017-06-21T14:21:42Z</time>
      </trkpt>
      <trkpt lat="63.901058966293931" lon="10.231621982529759">
        <ele>78.480000000000004</ele>
        <time>2017-06-21T14:21:43Z</time>
      </trkpt>
      <trkpt lat="63.901267005130649" lon="10.231605973094702">
        <ele>78</ele>
        <time>2017-06-21T14:21:44Z</time>
      </trkpt>
      <trkpt lat="63.901475965976715" lon="10.231540007516742">
        <ele>78</ele>
        <time>2017-06-21T14:21:45Z</time>
      </trkpt>
      <trkpt lat="63.901686016470194" lon="10.231442023068666">
        <ele>77.519999999999996</ele>
        <time>2017-06-21T14:21:46Z</time>
      </trkpt>
      <trkpt lat="63.902667034417391" lon="10.231152009218931">
        <ele>76.079999999999998</ele>
        <time>2017-06-21T14:21:51Z</time>
      </trkpt>
      <trkpt lat="63.902832996100187" lon="10.231206994503736">
        <ele>76.560000000000002</ele>
        <time>2017-06-21T14:21:52Z</time>
      </trkpt>
      <trkpt lat="63.90298998914659" lon="10.231306990608573">
        <ele>77.040000000000006</ele>
        <time>2017-06-21T14:21:53Z</time>
      </trkpt>
      <trkpt lat="63.9031380135566" lon="10.231445040553808">
        <ele>77.519999999999996</ele>
        <time>2017-06-21T14:21:54Z</time>
      </trkpt>
      <trkpt lat="63.903274973854423" lon="10.231652995571494">
        <ele>77.519999999999996</ele>
        <time>2017-06-21T14:21:55Z</time>
      </trkpt>
      <trkpt lat="63.903404977172613" lon="10.231929011642933">
        <ele>77.519999999999996</ele>
        <time>2017-06-21T14:21:56Z</time>
      </trkpt>
      <trkpt lat="63.90352500602603" lon="10.232246015220881">
        <ele>76.560000000000002</ele>
        <time>2017-06-21T14:21:57Z</time>
      </trkpt>
      <trkpt lat="63.903630031272769" lon="10.232627978548408">
        <ele>76.560000000000002</ele>
        <time>2017-06-21T14:21:58Z</time>
      </trkpt>
      <trkpt lat="63.903731033205986" lon="10.233013965189457">
        <ele>76.560000000000002</ele>
        <time>2017-06-21T14:21:59Z</time>
      </trkpt>
      <trkpt lat="63.903812002390623" lon="10.233380002900958">
        <ele>72.719999999999999</ele>
        <time>2017-06-21T14:22:00Z</time>
      </trkpt>
      <trkpt lat="63.903951980173588" lon="10.234154993668199">
        <ele>70.310000000000002</ele>
        <time>2017-06-21T14:22:02Z</time>
      </trkpt>
      <trkpt lat="63.903995985165238" lon="10.23456696420908">
        <ele>68.870000000000005</ele>
        <time>2017-06-21T14:22:03Z</time>
      </trkpt>
      <trkpt lat="63.90402096323669" lon="10.234983963891864">
        <ele>67.909999999999997</ele>
        <time>2017-06-21T14:22:04Z</time>
      </trkpt>
      <trkpt lat="63.904024986550212" lon="10.235416973009706">
        <ele>65.510000000000005</ele>
        <time>2017-06-21T14:22:05Z</time>
      </trkpt>
      <trkpt lat="63.904007971286774" lon="10.235860040411353">
        <ele>62.619999999999997</ele>
        <time>2017-06-21T14:22:06Z</time>
      </trkpt>
      <trkpt lat="63.9039789699018" lon="10.236319033429027">
        <ele>59.740000000000002</ele>
        <time>2017-06-21T14:22:07Z</time>
      </trkpt>
      <trkpt lat="63.903982993215322" lon="10.239395024254918">
        <ele>43.399999999999999</ele>
        <time>2017-06-21T14:22:14Z</time>
      </trkpt>
      <trkpt lat="63.904244005680084" lon="10.242096008732915">
        <ele>32.340000000000003</ele>
        <time>2017-06-21T14:22:21Z</time>
      </trkpt>
      <trkpt lat="63.904336960986257" lon="10.242440002039075">
        <ele>30.899999999999999</ele>
        <time>2017-06-21T14:22:22Z</time>
      </trkpt>
      <trkpt lat="63.90444902703166" lon="10.242761028930545">
        <ele>29.460000000000001</ele>
        <time>2017-06-21T14:22:23Z</time>
      </trkpt>
      <trkpt lat="63.904586993157864" lon="10.2430500369519">
        <ele>28.02</ele>
        <time>2017-06-21T14:22:24Z</time>
      </trkpt>
      <trkpt lat="63.904735017567873" lon="10.243307026103139">
        <ele>27.050000000000001</ele>
        <time>2017-06-21T14:22:25Z</time>
      </trkpt>
      <trkpt lat="63.904889998957515" lon="10.243531996384263">
        <ele>25.609999999999999</ele>
        <time>2017-06-21T14:22:26Z</time>
      </trkpt>
      <trkpt lat="63.906546011567116" lon="10.246010022237897">
        <ele>21.77</ele>
        <time>2017-06-21T14:22:37Z</time>
      </trkpt>
      <trkpt lat="63.906833007931709" lon="10.246516037732363">
        <ele>22.25</ele>
        <time>2017-06-21T14:22:39Z</time>
      </trkpt>
      <trkpt lat="63.906988995149732" lon="10.246729021891952">
        <ele>23.210000000000001</ele>
        <time>2017-06-21T14:22:40Z</time>
      </trkpt>
      <trkpt lat="63.908147038891912" lon="10.248472960665822">
        <ele>22.73</ele>
        <time>2017-06-21T14:22:48Z</time>
      </trkpt>
      <trkpt lat="63.909152029082179" lon="10.250216983258724">
        <ele>19.359999999999999</ele>
        <time>2017-06-21T14:22:55Z</time>
      </trkpt>
      <trkpt lat="63.909297036007047" lon="10.250405995175242">
        <ele>19.359999999999999</ele>
        <time>2017-06-21T14:22:56Z</time>
      </trkpt>
      <trkpt lat="63.909451011568308" lon="10.250545972958207">
        <ele>19.359999999999999</ele>
        <time>2017-06-21T14:22:57Z</time>
      </trkpt>
      <trkpt lat="63.909611022099853" lon="10.250642029568553">
        <ele>19.359999999999999</ele>
        <time>2017-06-21T14:22:58Z</time>
      </trkpt>
      <trkpt lat="63.909774972125888" lon="10.250686034560204">
        <ele>19.359999999999999</ele>
        <time>2017-06-21T14:22:59Z</time>
      </trkpt>
      <trkpt lat="63.909944035112858" lon="10.250676982104778">
        <ele>19.359999999999999</ele>
        <time>2017-06-21T14:23:00Z</time>
      </trkpt>
      <trkpt lat="63.910114020109177" lon="10.250621996819973">
        <ele>19.84</ele>
        <time>2017-06-21T14:23:01Z</time>
      </trkpt>
      <trkpt lat="63.910277970135212" lon="10.25052803568542">
        <ele>19.84</ele>
        <time>2017-06-21T14:23:02Z</time>
      </trkpt>
      <trkpt lat="63.910431023687124" lon="10.250395014882088">
        <ele>19.84</ele>
        <time>2017-06-21T14:23:03Z</time>
      </trkpt>
      <trkpt lat="63.910569995641708" lon="10.250218994915485">
        <ele>20.32</ele>
        <time>2017-06-21T14:23:04Z</time>
      </trkpt>
      <trkpt lat="63.910694969817996" lon="10.249993018805981">
        <ele>20.32</ele>
        <time>2017-06-21T14:23:05Z</time>
      </trkpt>
      <trkpt lat="63.91080804169178" lon="10.249736029654741">
        <ele>20.32</ele>
        <time>2017-06-21T14:23:06Z</time>
      </trkpt>
      <trkpt lat="63.910908959805965" lon="10.249464036896825">
        <ele>20.32</ele>
        <time>2017-06-21T14:23:07Z</time>
      </trkpt>
      <trkpt lat="63.910993030294776" lon="10.249173017218709">
        <ele>20.809999999999999</ele>
        <time>2017-06-21T14:23:08Z</time>
      </trkpt>
      <trkpt lat="63.911056984215975" lon="10.248864982277155">
        <ele>20.809999999999999</ele>
        <time>2017-06-21T14:23:09Z</time>
      </trkpt>
      <trkpt lat="63.911103000864387" lon="10.248525012284517">
        <ele>20.809999999999999</ele>
        <time>2017-06-21T14:23:10Z</time>
      </trkpt>
      <trkpt lat="63.911134013906121" lon="10.248175989836454">
        <ele>20.809999999999999</ele>
        <time>2017-06-21T14:23:11Z</time>
      </trkpt>
      <trkpt lat="63.911149017512798" lon="10.247808024287224">
        <ele>20.809999999999999</ele>
        <time>2017-06-21T14:23:12Z</time>
      </trkpt>
      <trkpt lat="63.911150023341179" lon="10.247428994625807">
        <ele>20.32</ele>
        <time>2017-06-21T14:23:13Z</time>
      </trkpt>
      <trkpt lat="63.911142982542515" lon="10.247035967186093">
        <ele>20.32</ele>
        <time>2017-06-21T14:23:14Z</time>
      </trkpt>
      <trkpt lat="63.910912983119488" lon="10.24090301245451">
        <ele>19.84</ele>
        <time>2017-06-21T14:23:29Z</time>
      </trkpt>
      <trkpt lat="63.91067803837359" lon="10.239426959306002">
        <ele>19.84</ele>
        <time>2017-06-21T14:23:33Z</time>
      </trkpt>
      <trkpt lat="63.910191971808672" lon="10.237462995573878">
        <ele>22.73</ele>
        <time>2017-06-21T14:23:39Z</time>
      </trkpt>
      <trkpt lat="63.910148972645402" lon="10.237117996439338">
        <ele>22.73</ele>
        <time>2017-06-21T14:23:40Z</time>
      </trkpt>
      <trkpt lat="63.910120977088809" lon="10.236763022840023">
        <ele>23.210000000000001</ele>
        <time>2017-06-21T14:23:41Z</time>
      </trkpt>
      <trkpt lat="63.910108990967274" lon="10.23639396764338">
        <ele>23.210000000000001</ele>
        <time>2017-06-21T14:23:42Z</time>
      </trkpt>
      <trkpt lat="63.910103039816022" lon="10.236035976558924">
        <ele>23.690000000000001</ele>
        <time>2017-06-21T14:23:43Z</time>
      </trkpt>
      <trkpt lat="63.910106979310513" lon="10.235693994909525">
        <ele>23.690000000000001</ele>
        <time>2017-06-21T14:23:44Z</time>
      </trkpt>
      <trkpt lat="63.91012298874557" lon="10.235371040180326">
        <ele>22.73</ele>
        <time>2017-06-21T14:23:45Z</time>
      </trkpt>
      <trkpt lat="63.910155007615685" lon="10.23506099358201">
        <ele>22.25</ele>
        <time>2017-06-21T14:23:46Z</time>
      </trkpt>
      <trkpt lat="63.910210998728871" lon="10.234765028581023">
        <ele>21.289999999999999</ele>
        <time>2017-06-21T14:23:47Z</time>
      </trkpt>
      <trkpt lat="63.910284005105495" lon="10.23448096588254">
        <ele>20.809999999999999</ele>
        <time>2017-06-21T14:23:48Z</time>
      </trkpt>
      <trkpt lat="63.910368997603655" lon="10.234219031408429">
        <ele>20.32</ele>
        <time>2017-06-21T14:23:49Z</time>
      </trkpt>
      <trkpt lat="63.910464970394969" lon="10.233973022550344">
        <ele>19.359999999999999</ele>
        <time>2017-06-21T14:23:50Z</time>
      </trkpt>
      <trkpt lat="63.910575024783611" lon="10.23374998010695">
        <ele>18.399999999999999</ele>
        <time>2017-06-21T14:23:51Z</time>
      </trkpt>
      <trkpt lat="63.91070100478828" lon="10.233547976240516">
        <ele>17.440000000000001</ele>
        <time>2017-06-21T14:23:52Z</time>
      </trkpt>
      <trkpt lat="63.910828996449709" lon="10.233351001515985">
        <ele>16.960000000000001</ele>
        <time>2017-06-21T14:23:53Z</time>
      </trkpt>
      <trkpt lat="63.910976015031338" lon="10.233164001256227">
        <ele>16</ele>
        <time>2017-06-21T14:23:54Z</time>
      </trkpt>
      <trkpt lat="63.912461036816239" lon="10.231350995600224">
        <ele>15.52</ele>
        <time>2017-06-21T14:24:03Z</time>
      </trkpt>
      <trkpt lat="63.913858970627189" lon="10.229807971045375">
        <ele>21.289999999999999</ele>
        <time>2017-06-21T14:24:12Z</time>
      </trkpt>
      <trkpt lat="63.914016969501972" lon="10.229760026559234">
        <ele>21.289999999999999</ele>
        <time>2017-06-21T14:24:13Z</time>
      </trkpt>
      <trkpt lat="63.914173040539026" lon="10.229781987145543">
        <ele>20.32</ele>
        <time>2017-06-21T14:24:14Z</time>
      </trkpt>
      <trkpt lat="63.914329027757049" lon="10.229826997965574">
        <ele>19.84</ele>
        <time>2017-06-21T14:24:15Z</time>
      </trkpt>
      <trkpt lat="63.914487026631832" lon="10.22992598824203">
        <ele>18.399999999999999</ele>
        <time>2017-06-21T14:24:16Z</time>
      </trkpt>
      <trkpt lat="63.914642008021474" lon="10.230051968246698">
        <ele>17.920000000000002</ele>
        <time>2017-06-21T14:24:17Z</time>
      </trkpt>
      <trkpt lat="63.914796989411116" lon="10.230198986828327">
        <ele>16.960000000000001</ele>
        <time>2017-06-21T14:24:18Z</time>
      </trkpt>
      <trkpt lat="63.915887977927923" lon="10.231289975345135">
        <ele>16</ele>
        <time>2017-06-21T14:24:25Z</time>
      </trkpt>
      <trkpt lat="63.916058968752623" lon="10.231365999206901">
        <ele>16</ele>
        <time>2017-06-21T14:24:26Z</time>
      </trkpt>
      <trkpt lat="63.916233982890844" lon="10.231414027512074">
        <ele>16</ele>
        <time>2017-06-21T14:24:27Z</time>
      </trkpt>
      <trkpt lat="63.916412014514208" lon="10.231427019461989">
        <ele>15.52</ele>
        <time>2017-06-21T14:24:28Z</time>
      </trkpt>
      <trkpt lat="63.916594991460443" lon="10.231411010026932">
        <ele>15.52</ele>
        <time>2017-06-21T14:24:29Z</time>
      </trkpt>
      <trkpt lat="63.916778974235058" lon="10.231357030570507">
        <ele>16</ele>
        <time>2017-06-21T14:24:30Z</time>
      </trkpt>
      <trkpt lat="63.916963962838054" lon="10.231280000880361">
        <ele>16.48</ele>
        <time>2017-06-21T14:24:31Z</time>
      </trkpt>
      <trkpt lat="63.919305028393865" lon="10.229846024885774">
        <ele>15.52</ele>
        <time>2017-06-21T14:24:43Z</time>
      </trkpt>
      <trkpt lat="63.920214967802167" lon="10.229125013574958">
        <ele>14.08</ele>
        <time>2017-06-21T14:24:48Z</time>
      </trkpt>
      <trkpt lat="63.92036902718246" lon="10.22891697473824">
        <ele>13.6</ele>
        <time>2017-06-21T14:24:49Z</time>
      </trkpt>
      <trkpt lat="63.920512022450566" lon="10.22867800667882">
        <ele>13.6</ele>
        <time>2017-06-21T14:24:50Z</time>
      </trkpt>
      <trkpt lat="63.920643031597137" lon="10.228402996435761">
        <ele>13.6</ele>
        <time>2017-06-21T14:24:51Z</time>
      </trkpt>
      <trkpt lat="63.920760964974761" lon="10.228104013949633">
        <ele>14.08</ele>
        <time>2017-06-21T14:24:52Z</time>
      </trkpt>
      <trkpt lat="63.920862972736359" lon="10.227771000936627">
        <ele>14.08</ele>
        <time>2017-06-21T14:24:53Z</time>
      </trkpt>
      <trkpt lat="63.920949976891279" lon="10.227420972660184">
        <ele>14.56</ele>
        <time>2017-06-21T14:24:54Z</time>
      </trkpt>
      <trkpt lat="63.921021977439523" lon="10.227043032646179">
        <ele>15.52</ele>
        <time>2017-06-21T14:24:55Z</time>
      </trkpt>
      <trkpt lat="63.921077968552709" lon="10.226652016863227">
        <ele>16</ele>
        <time>2017-06-21T14:24:56Z</time>
      </trkpt>
      <trkpt lat="63.921118034049869" lon="10.226249014958739">
        <ele>16.960000000000001</ele>
        <time>2017-06-21T14:24:57Z</time>
      </trkpt>
      <trkpt lat="63.9211440179497" lon="10.225841989740729">
        <ele>17.440000000000001</ele>
        <time>2017-06-21T14:24:58Z</time>
      </trkpt>
      <trkpt lat="63.921162039041519" lon="10.225429013371468">
        <ele>17.920000000000002</ele>
        <time>2017-06-21T14:24:59Z</time>
      </trkpt>
      <trkpt lat="63.921041004359722" lon="10.221607033163309">
        <ele>14.08</ele>
        <time>2017-06-21T14:25:08Z</time>
      </trkpt>
      <trkpt lat="63.920406997203827" lon="10.217195972800255">
        <ele>16.48</ele>
        <time>2017-06-21T14:25:19Z</time>
      </trkpt>
      <trkpt lat="63.920341031625867" lon="10.216570012271404">
        <ele>17.440000000000001</ele>
        <time>2017-06-21T14:25:21Z</time>
      </trkpt>
      <trkpt lat="63.920334996655583" lon="10.216290978714824">
        <ele>17.920000000000002</ele>
        <time>2017-06-21T14:25:22Z</time>
      </trkpt>
      <trkpt lat="63.920345976948738" lon="10.216034995391965">
        <ele>18.399999999999999</ele>
        <time>2017-06-21T14:25:23Z</time>
      </trkpt>
      <trkpt lat="63.920379001647234" lon="10.215790998190641">
        <ele>19.359999999999999</ele>
        <time>2017-06-21T14:25:24Z</time>
      </trkpt>
      <trkpt lat="63.920431975275278" lon="10.215549012646079">
        <ele>19.84</ele>
        <time>2017-06-21T14:25:25Z</time>
      </trkpt>
      <trkpt lat="63.920509004965425" lon="10.215326976031065">
        <ele>20.32</ele>
        <time>2017-06-21T14:25:26Z</time>
      </trkpt>
      <trkpt lat="63.920601960271597" lon="10.215127989649773">
        <ele>20.809999999999999</ele>
        <time>2017-06-21T14:25:27Z</time>
      </trkpt>
      <trkpt lat="63.920714026317" lon="10.214968984946609">
        <ele>20.809999999999999</ele>
        <time>2017-06-21T14:25:28Z</time>
      </trkpt>
      <trkpt lat="63.920846041291952" lon="10.214857002720237">
        <ele>20.809999999999999</ele>
        <time>2017-06-21T14:25:29Z</time>
      </trkpt>
      <trkpt lat="63.920985013246536" lon="10.214807968586683">
        <ele>20.809999999999999</ele>
        <time>2017-06-21T14:25:30Z</time>
      </trkpt>
      <trkpt lat="63.921129014343023" lon="10.214801011607051">
        <ele>20.809999999999999</ele>
        <time>2017-06-21T14:25:31Z</time>
      </trkpt>
      <trkpt lat="63.921277038753033" lon="10.214836969971657">
        <ele>20.809999999999999</ele>
        <time>2017-06-21T14:25:32Z</time>
      </trkpt>
      <trkpt lat="63.921427996829152" lon="10.214901007711887">
        <ele>20.32</ele>
        <time>2017-06-21T14:25:33Z</time>
      </trkpt>
      <trkpt lat="63.921578032895923" lon="10.214981976896524">
        <ele>20.32</ele>
        <time>2017-06-21T14:25:34Z</time>
      </trkpt>
      <trkpt lat="63.922799024730921" lon="10.21570198237896">
        <ele>21.77</ele>
        <time>2017-06-21T14:25:43Z</time>
      </trkpt>
      <trkpt lat="63.923475025221705" lon="10.216211015358567">
        <ele>22.73</ele>
        <time>2017-06-21T14:25:53Z</time>
      </trkpt>
      <trkpt lat="63.923563035205007" lon="10.216255020350218">
        <ele>22.73</ele>
        <time>2017-06-21T14:26:03Z</time>
      </trkpt>
      <trkpt lat="63.92357099801302" lon="10.216250997036695">
        <ele>22.73</ele>
        <time>2017-06-21T14:28:00Z</time>
      </trkpt>
      <trkpt lat="63.923581978306174" lon="10.216267006471753">
        <ele>22.25</ele>
        <time>2017-06-21T14:29:16Z</time>
      </trkpt>
      <trkpt lat="63.923596981912851" lon="10.216302964836359">
        <ele>22.73</ele>
        <time>2017-06-21T14:29:17Z</time>
      </trkpt>
      <trkpt lat="63.923631012439728" lon="10.216345963999629">
        <ele>22.73</ele>
        <time>2017-06-21T14:29:18Z</time>
      </trkpt>
      <trkpt lat="63.924106014892459" lon="10.21698902361095">
        <ele>23.210000000000001</ele>
        <time>2017-06-21T14:29:24Z</time>
      </trkpt>
      <trkpt lat="63.924827026203275" lon="10.218574963510036">
        <ele>22.25</ele>
        <time>2017-06-21T14:29:32Z</time>
      </trkpt>
      <trkpt lat="63.926034020259976" lon="10.221408968791366">
        <ele>9.75</ele>
        <time>2017-06-21T14:29:42Z</time>
      </trkpt>
      <trkpt lat="63.927449975162745" lon="10.224593002349138">
        <ele>6.39</ele>
        <time>2017-06-21T14:29:52Z</time>
      </trkpt>
      <trkpt lat="63.927851971238852" lon="10.225212005898356">
        <ele>6.87</ele>
        <time>2017-06-21T14:29:55Z</time>
      </trkpt>
      <trkpt lat="63.9279979839921" lon="10.225356006994843">
        <ele>7.35</ele>
        <time>2017-06-21T14:29:56Z</time>
      </trkpt>
      <trkpt lat="63.92814701423049" lon="10.225466983392835">
        <ele>8.310000000000001</ele>
        <time>2017-06-21T14:29:57Z</time>
      </trkpt>
      <trkpt lat="63.928294032812119" lon="10.225544013082981">
        <ele>8.789999999999999</ele>
        <time>2017-06-21T14:29:58Z</time>
      </trkpt>
      <trkpt lat="63.928440967574716" lon="10.225600004196167">
        <ele>9.75</ele>
        <time>2017-06-21T14:29:59Z</time>
      </trkpt>
      <trkpt lat="63.931195009499788" lon="10.225395988672972">
        <ele>15.52</ele>
        <time>2017-06-21T14:30:15Z</time>
      </trkpt>
      <trkpt lat="63.931350996717811" lon="10.225318958982825">
        <ele>16.48</ele>
        <time>2017-06-21T14:30:16Z</time>
      </trkpt>
      <trkpt lat="63.931500026956201" lon="10.225180992856622">
        <ele>15.039999999999999</ele>
        <time>2017-06-21T14:30:17Z</time>
      </trkpt>
      <trkpt lat="63.931654002517462" lon="10.225016959011555">
        <ele>15.52</ele>
        <time>2017-06-21T14:30:18Z</time>
      </trkpt>
      <trkpt lat="63.931795991957188" lon="10.224788971245289">
        <ele>16.48</ele>
        <time>2017-06-21T14:30:19Z</time>
      </trkpt>
      <trkpt lat="63.931915014982224" lon="10.224547991529107">
        <ele>16</ele>
        <time>2017-06-21T14:30:20Z</time>
      </trkpt>
      <trkpt lat="63.932023979723454" lon="10.224240962415934">
        <ele>16</ele>
        <time>2017-06-21T14:30:21Z</time>
      </trkpt>
      <trkpt lat="63.932109978049994" lon="10.223932005465031">
        <ele>16.960000000000001</ele>
        <time>2017-06-21T14:30:22Z</time>
      </trkpt>
      <trkpt lat="63.932192958891392" lon="10.223617013543844">
        <ele>17.440000000000001</ele>
        <time>2017-06-21T14:30:23Z</time>
      </trkpt>
      <trkpt lat="63.932657986879349" lon="10.22212503477931">
        <ele>14.56</ele>
        <time>2017-06-21T14:30:28Z</time>
      </trkpt>
      <trkpt lat="63.932779021561146" lon="10.221908027306199">
        <ele>14.56</ele>
        <time>2017-06-21T14:30:29Z</time>
      </trkpt>
      <trkpt lat="63.932906007394195" lon="10.22174097597599">
        <ele>14.08</ele>
        <time>2017-06-21T14:30:30Z</time>
      </trkpt>
      <trkpt lat="63.933043973520398" lon="10.221627987921238">
        <ele>13.6</ele>
        <time>2017-06-21T14:30:31Z</time>
      </trkpt>
      <trkpt lat="63.933195015415549" lon="10.221570990979671">
        <ele>14.08</ele>
        <time>2017-06-21T14:30:32Z</time>
      </trkpt>
      <trkpt lat="63.933357959613204" lon="10.221560010686517">
        <ele>13.6</ele>
        <time>2017-06-21T14:30:33Z</time>
      </trkpt>
      <trkpt lat="63.933530962094665" lon="10.221573002636433">
        <ele>13.6</ele>
        <time>2017-06-21T14:30:34Z</time>
      </trkpt>
      <trkpt lat="63.935479000210762" lon="10.221986984834075">
        <ele>9.75</ele>
        <time>2017-06-21T14:30:44Z</time>
      </trkpt>
      <trkpt lat="63.936551967635751" lon="10.222710007801652">
        <ele>10.710000000000001</ele>
        <time>2017-06-21T14:30:50Z</time>
      </trkpt>
      <trkpt lat="63.938042018562555" lon="10.223582983016968">
        <ele>7.83</ele>
        <time>2017-06-21T14:30:58Z</time>
      </trkpt>
      <trkpt lat="63.938232958316803" lon="10.223559010773897">
        <ele>7.83</ele>
        <time>2017-06-21T14:30:59Z</time>
      </trkpt>
      <trkpt lat="63.938421970233321" lon="10.223481981083751">
        <ele>8.310000000000001</ele>
        <time>2017-06-21T14:31:00Z</time>
      </trkpt>
      <trkpt lat="63.938608970493078" lon="10.223352983593941">
        <ele>8.310000000000001</ele>
        <time>2017-06-21T14:31:01Z</time>
      </trkpt>
      <trkpt lat="63.938796976581216" lon="10.223186016082764">
        <ele>8.789999999999999</ele>
        <time>2017-06-21T14:31:02Z</time>
      </trkpt>
      <trkpt lat="63.938985988497734" lon="10.223004966974258">
        <ele>9.75</ele>
        <time>2017-06-21T14:31:03Z</time>
      </trkpt>
      <trkpt lat="63.939824011176825" lon="10.222467016428709">
        <ele>14.08</ele>
        <time>2017-06-21T14:31:07Z</time>
      </trkpt>
      <trkpt lat="63.940045963972807" lon="10.222431980073452">
        <ele>15.039999999999999</ele>
        <time>2017-06-21T14:31:08Z</time>
      </trkpt>
      <trkpt lat="63.941754028201103" lon="10.222693998366594">
        <ele>23.690000000000001</ele>
        <time>2017-06-21T14:31:16Z</time>
      </trkpt>
      <trkpt lat="63.944378988817334" lon="10.223751040175557">
        <ele>15.52</ele>
        <time>2017-06-21T14:31:28Z</time>
      </trkpt>
      <trkpt lat="63.947475012391806" lon="10.225360030308366">
        <ele>1.1</ele>
        <time>2017-06-21T14:31:42Z</time>
      </trkpt>
      <trkpt lat="63.950325027108192" lon="10.226718988269567">
        <ele>1.1</ele>
        <time>2017-06-21T14:31:55Z</time>
      </trkpt>
      <trkpt lat="63.952903971076012" lon="10.22687598131597">
        <ele>6.87</ele>
        <time>2017-06-21T14:32:07Z</time>
      </trkpt>
      <trkpt lat="63.955442011356354" lon="10.227150991559029">
        <ele>24.649999999999999</ele>
        <time>2017-06-21T14:32:20Z</time>
      </trkpt>
      <trkpt lat="63.957801014184952" lon="10.227400017902255">
        <ele>13.119999999999999</ele>
        <time>2017-06-21T14:32:36Z</time>
      </trkpt>
      <trkpt lat="63.958971966058016" lon="10.227314019575715">
        <ele>6.39</ele>
        <time>2017-06-21T14:32:44Z</time>
      </trkpt>
      <trkpt lat="63.959097024053335" lon="10.22721603512764">
        <ele>6.39</ele>
        <time>2017-06-21T14:32:45Z</time>
      </trkpt>
      <trkpt lat="63.959215963259339" lon="10.227100029587746">
        <ele>6.39</ele>
        <time>2017-06-21T14:32:46Z</time>
      </trkpt>
      <trkpt lat="63.960127998143435" lon="10.225717015564442">
        <ele>6.87</ele>
        <time>2017-06-21T14:32:56Z</time>
      </trkpt>
      <trkpt lat="63.961200965568423" lon="10.224010040983558">
        <ele>8.310000000000001</ele>
        <time>2017-06-21T14:33:10Z</time>
      </trkpt>
      <trkpt lat="63.962496975436807" lon="10.22257698699832">
        <ele>7.83</ele>
        <time>2017-06-21T14:33:24Z</time>
      </trkpt>
      <trkpt lat="63.96385601721704" lon="10.221323976293206">
        <ele>8.789999999999999</ele>
        <time>2017-06-21T14:33:37Z</time>
      </trkpt>
      <trkpt lat="63.96495102904737" lon="10.220140032470226">
        <ele>10.23</ele>
        <time>2017-06-21T14:33:47Z</time>
      </trkpt>
      <trkpt lat="63.965088995173573" lon="10.21991397254169">
        <ele>10.710000000000001</ele>
        <time>2017-06-21T14:33:49Z</time>
      </trkpt>
      <trkpt lat="63.965154960751534" lon="10.21984901279211">
        <ele>11.19</ele>
        <time>2017-06-21T14:33:50Z</time>
      </trkpt>
      <trkpt lat="63.965235007926822" lon="10.219822023063898">
        <ele>11.19</ele>
        <time>2017-06-21T14:33:51Z</time>
      </trkpt>
      <trkpt lat="63.965320000424981" lon="10.219842977821827">
        <ele>11.19</ele>
        <time>2017-06-21T14:33:52Z</time>
      </trkpt>
      <trkpt lat="63.965409016236663" lon="10.21991103887558">
        <ele>11.67</ele>
        <time>2017-06-21T14:33:53Z</time>
      </trkpt>
      <trkpt lat="63.965499959886074" lon="10.22002000361681">
        <ele>11.67</ele>
        <time>2017-06-21T14:33:54Z</time>
      </trkpt>
      <trkpt lat="63.965588975697756" lon="10.220173979178071">
        <ele>12.15</ele>
        <time>2017-06-21T14:33:55Z</time>
      </trkpt>
      <trkpt lat="63.965674974024296" lon="10.220352010801435">
        <ele>12.15</ele>
        <time>2017-06-21T14:33:56Z</time>
      </trkpt>
      <trkpt lat="63.965757032856345" lon="10.220564994961023">
        <ele>12.15</ele>
        <time>2017-06-21T14:33:57Z</time>
      </trkpt>
      <trkpt lat="63.965831967070699" lon="10.220796000212431">
        <ele>11.67</ele>
        <time>2017-06-21T14:33:58Z</time>
      </trkpt>
      <trkpt lat="63.965894998982549" lon="10.221043014898896">
        <ele>11.19</ele>
        <time>2017-06-21T14:33:59Z</time>
      </trkpt>
      <trkpt lat="63.965949984267354" lon="10.22130997851491">
        <ele>11.19</ele>
        <time>2017-06-21T14:34:00Z</time>
      </trkpt>
      <trkpt lat="63.965999018400908" lon="10.221583982929587">
        <ele>10.710000000000001</ele>
        <time>2017-06-21T14:34:01Z</time>
      </trkpt>
      <trkpt lat="63.966034976765513" lon="10.221877014264464">
        <ele>10.710000000000001</ele>
        <time>2017-06-21T14:34:02Z</time>
      </trkpt>
      <trkpt lat="63.966063978150487" lon="10.222181025892496">
        <ele>10.23</ele>
        <time>2017-06-21T14:34:03Z</time>
      </trkpt>
      <trkpt lat="63.966255001723766" lon="10.223711980506778">
        <ele>7.35</ele>
        <time>2017-06-21T14:34:08Z</time>
      </trkpt>
      <trkpt lat="63.966324990615249" lon="10.2239940315485">
        <ele>6.87</ele>
        <time>2017-06-21T14:34:09Z</time>
      </trkpt>
      <trkpt lat="63.96641400642693" lon="10.224259989336133">
        <ele>5.91</ele>
        <time>2017-06-21T14:34:10Z</time>
      </trkpt>
      <trkpt lat="63.966510985046625" lon="10.224507004022598">
        <ele>5.42</ele>
        <time>2017-06-21T14:34:11Z</time>
      </trkpt>
      <trkpt lat="63.966621039435267" lon="10.224735997617245">
        <ele>4.94</ele>
        <time>2017-06-21T14:34:12Z</time>
      </trkpt>
      <trkpt lat="63.966747019439936" lon="10.224931966513395">
        <ele>3.98</ele>
        <time>2017-06-21T14:34:13Z</time>
      </trkpt>
      <trkpt lat="63.96688599139452" lon="10.225102035328746">
        <ele>3.5</ele>
        <time>2017-06-21T14:34:14Z</time>
      </trkpt>
      <trkpt lat="63.96703502163291" lon="10.225243018940091">
        <ele>3.02</ele>
        <time>2017-06-21T14:34:15Z</time>
      </trkpt>
      <trkpt lat="63.967191008850932" lon="10.225361036136746">
        <ele>3.02</ele>
        <time>2017-06-21T14:34:16Z</time>
      </trkpt>
      <trkpt lat="63.967354036867619" lon="10.225451979786158">
        <ele>3.02</ele>
        <time>2017-06-21T14:34:17Z</time>
      </trkpt>
      <trkpt lat="63.967521004378796" lon="10.225514005869627">
        <ele>2.54</ele>
        <time>2017-06-21T14:34:18Z</time>
      </trkpt>
      <trkpt lat="63.967691995203495" lon="10.225554993376136">
        <ele>2.54</ele>
        <time>2017-06-21T14:34:19Z</time>
      </trkpt>
      <trkpt lat="63.967871032655239" lon="10.225566979497671">
        <ele>3.02</ele>
        <time>2017-06-21T14:34:20Z</time>
      </trkpt>
      <trkpt lat="63.968048980459571" lon="10.225567985326052">
        <ele>3.02</ele>
        <time>2017-06-21T14:34:21Z</time>
      </trkpt>
      <trkpt lat="63.969825021922588" lon="10.225378973409534">
        <ele>7.83</ele>
        <time>2017-06-21T14:34:31Z</time>
      </trkpt>
      <trkpt lat="63.96999903023243" lon="10.225452985614538">
        <ele>8.310000000000001</ele>
        <time>2017-06-21T14:34:32Z</time>
      </trkpt>
      <trkpt lat="63.970165997743607" lon="10.225573014467955">
        <ele>8.310000000000001</ele>
        <time>2017-06-21T14:34:33Z</time>
      </trkpt>
      <trkpt lat="63.970334976911545" lon="10.225735958665609">
        <ele>9.27</ele>
        <time>2017-06-21T14:34:34Z</time>
      </trkpt>
      <trkpt lat="63.970494987443089" lon="10.225932011380792">
        <ele>9.75</ele>
        <time>2017-06-21T14:34:35Z</time>
      </trkpt>
      <trkpt lat="63.970648040995002" lon="10.226161004975438">
        <ele>10.23</ele>
        <time>2017-06-21T14:34:36Z</time>
      </trkpt>
      <trkpt lat="63.970792964100838" lon="10.226416988298297">
        <ele>10.710000000000001</ele>
        <time>2017-06-21T14:34:37Z</time>
      </trkpt>
      <trkpt lat="63.970934031531215" lon="10.226696021854877">
        <ele>11.67</ele>
        <time>2017-06-21T14:34:38Z</time>
      </trkpt>
      <trkpt lat="63.972749970853329" lon="10.230498975142837">
        <ele>24.170000000000002</ele>
        <time>2017-06-21T14:34:50Z</time>
      </trkpt>
      <trkpt lat="63.974444959312677" lon="10.234230011701584">
        <ele>40.509999999999998</ele>
        <time>2017-06-21T14:35:00Z</time>
      </trkpt>
      <trkpt lat="63.975906008854508" lon="10.237202988937497">
        <ele>38.590000000000003</ele>
        <time>2017-06-21T14:35:08Z</time>
      </trkpt>
      <trkpt lat="63.977263038977981" lon="10.240415018051863">
        <ele>40.990000000000002</ele>
        <time>2017-06-21T14:35:16Z</time>
      </trkpt>
      <trkpt lat="63.97898300550878" lon="10.246736984699965">
        <ele>37.149999999999999</ele>
        <time>2017-06-21T14:35:29Z</time>
      </trkpt>
      <trkpt lat="63.98042100481689" lon="10.251338984817266">
        <ele>31.859999999999999</ele>
        <time>2017-06-21T14:35:39Z</time>
      </trkpt>
      <trkpt lat="63.980904975906014" lon="10.253143021836877">
        <ele>29.940000000000001</ele>
        <time>2017-06-21T14:35:43Z</time>
      </trkpt>
      <trkpt lat="63.980986028909683" lon="10.253638979047537">
        <ele>29.460000000000001</ele>
        <time>2017-06-21T14:35:44Z</time>
      </trkpt>
      <trkpt lat="63.981049982830882" lon="10.254147006198764">
        <ele>28.5</ele>
        <time>2017-06-21T14:35:45Z</time>
      </trkpt>
      <trkpt lat="63.981491038575768" lon="10.257523991167545">
        <ele>28.5</ele>
        <time>2017-06-21T14:35:52Z</time>
      </trkpt>
      <trkpt lat="63.98261396214366" lon="10.261718966066837">
        <ele>31.859999999999999</ele>
        <time>2017-06-21T14:36:01Z</time>
      </trkpt>
      <trkpt lat="63.984028995037079" lon="10.267315981909633">
        <ele>34.259999999999998</ele>
        <time>2017-06-21T14:36:13Z</time>
      </trkpt>
      <trkpt lat="63.985229032114148" lon="10.271816980093718">
        <ele>35.229999999999997</ele>
        <time>2017-06-21T14:36:23Z</time>
      </trkpt>
      <trkpt lat="63.986753029748797" lon="10.275305025279522">
        <ele>34.740000000000002</ele>
        <time>2017-06-21T14:36:32Z</time>
      </trkpt>
      <trkpt lat="63.988314997404814" lon="10.279731005430222">
        <ele>33.780000000000001</ele>
        <time>2017-06-21T14:36:42Z</time>
      </trkpt>
      <trkpt lat="63.989677978679538" lon="10.284637017175555">
        <ele>35.710000000000001</ele>
        <time>2017-06-21T14:36:53Z</time>
      </trkpt>
      <trkpt lat="63.990666037425399" lon="10.288693020120263">
        <ele>37.630000000000003</ele>
        <time>2017-06-21T14:37:05Z</time>
      </trkpt>
      <trkpt lat="63.991918964311481" lon="10.293623004108667">
        <ele>33.780000000000001</ele>
        <time>2017-06-21T14:37:18Z</time>
      </trkpt>
      <trkpt lat="63.993019005283713" lon="10.296018971130252">
        <ele>38.109999999999999</ele>
        <time>2017-06-21T14:37:26Z</time>
      </trkpt>
      <trkpt lat="63.99483896791935" lon="10.298307985067368">
        <ele>40.509999999999998</ele>
        <time>2017-06-21T14:37:37Z</time>
      </trkpt>
      <trkpt lat="63.995663998648524" lon="10.299907000735402">
        <ele>41.469999999999999</ele>
        <time>2017-06-21T14:37:43Z</time>
      </trkpt>
      <trkpt lat="63.995763994753361" lon="10.300232972949743">
        <ele>41.469999999999999</ele>
        <time>2017-06-21T14:37:44Z</time>
      </trkpt>
      <trkpt lat="63.995855022221804" lon="10.300562968477607">
        <ele>41.469999999999999</ele>
        <time>2017-06-21T14:37:45Z</time>
      </trkpt>
      <trkpt lat="63.996261041611433" lon="10.303203016519547">
        <ele>41.469999999999999</ele>
        <time>2017-06-21T14:37:52Z</time>
      </trkpt>
      <trkpt lat="63.996709976345301" lon="10.306986020877957">
        <ele>31.859999999999999</ele>
        <time>2017-06-21T14:38:01Z</time>
      </trkpt>
      <trkpt lat="63.998202960938215" lon="10.31339599750936">
        <ele>28.98</ele>
        <time>2017-06-21T14:38:18Z</time>
      </trkpt>
      <trkpt lat="63.999117007479072" lon="10.315451994538307">
        <ele>29.940000000000001</ele>
        <time>2017-06-21T14:38:25Z</time>
      </trkpt>
      <trkpt lat="64.000505972653627" lon="10.318491021171212">
        <ele>31.859999999999999</ele>
        <time>2017-06-21T14:38:35Z</time>
      </trkpt>
      <trkpt lat="64.001682959496975" lon="10.322346026077867">
        <ele>34.259999999999998</ele>
        <time>2017-06-21T14:38:45Z</time>
      </trkpt>
      <trkpt lat="64.003123976290226" lon="10.326893040910363">
        <ele>32.340000000000003</ele>
        <time>2017-06-21T14:38:56Z</time>
      </trkpt>
      <trkpt lat="64.004410011693835" lon="10.331309968605638">
        <ele>33.780000000000001</ele>
        <time>2017-06-21T14:39:06Z</time>
      </trkpt>
      <trkpt lat="64.005680959671736" lon="10.334913013502955">
        <ele>38.590000000000003</ele>
        <time>2017-06-21T14:39:15Z</time>
      </trkpt>
      <trkpt lat="64.007075959816575" lon="10.337548032402992">
        <ele>45.799999999999997</ele>
        <time>2017-06-21T14:39:23Z</time>
      </trkpt>
      <trkpt lat="64.007746009156108" lon="10.339846014976501">
        <ele>56.859999999999999</ele>
        <time>2017-06-21T14:39:30Z</time>
      </trkpt>
      <trkpt lat="64.00848001241684" lon="10.341929001733661">
        <ele>65.030000000000001</ele>
        <time>2017-06-21T14:39:40Z</time>
      </trkpt>
      <trkpt lat="64.009264977648854" lon="10.343401031568646">
        <ele>68.390000000000001</ele>
        <time>2017-06-21T14:39:47Z</time>
      </trkpt>
      <trkpt lat="64.0108029730618" lon="10.346640972420573">
        <ele>74.159999999999997</ele>
        <time>2017-06-21T14:39:57Z</time>
      </trkpt>
      <trkpt lat="64.012460997328162" lon="10.35133701749146">
        <ele>92.420000000000002</ele>
        <time>2017-06-21T14:40:10Z</time>
      </trkpt>
      <trkpt lat="64.014186998829246" lon="10.355077022686601">
        <ele>104.44</ele>
        <time>2017-06-21T14:40:21Z</time>
      </trkpt>
      <trkpt lat="64.01585097424686" lon="10.359906004741788">
        <ele>114.53</ele>
        <time>2017-06-21T14:40:33Z</time>
      </trkpt>
      <trkpt lat="64.018418015912175" lon="10.367900999262929">
        <ele>117.90000000000001</ele>
        <time>2017-06-21T14:40:53Z</time>
      </trkpt>
      <trkpt lat="64.018638962879777" lon="10.369273032993078">
        <ele>115.98</ele>
        <time>2017-06-21T14:40:56Z</time>
      </trkpt>
      <trkpt lat="64.018679028376937" lon="10.369745017960668">
        <ele>114.53</ele>
        <time>2017-06-21T14:40:57Z</time>
      </trkpt>
      <trkpt lat="64.018777012825012" lon="10.371143035590649">
        <ele>108.77</ele>
        <time>2017-06-21T14:41:00Z</time>
      </trkpt>
      <trkpt lat="64.01883602142334" lon="10.3715789783746">
        <ele>106.84</ele>
        <time>2017-06-21T14:41:01Z</time>
      </trkpt>
      <trkpt lat="64.018914978951216" lon="10.371994972229004">
        <ele>104.92</ele>
        <time>2017-06-21T14:41:02Z</time>
      </trkpt>
      <trkpt lat="64.019014975056052" lon="10.372377019375563">
        <ele>103</ele>
        <time>2017-06-21T14:41:03Z</time>
      </trkpt>
      <trkpt lat="64.019139027222991" lon="10.372732998803258">
        <ele>101.56</ele>
        <time>2017-06-21T14:41:04Z</time>
      </trkpt>
      <trkpt lat="64.019279005005956" lon="10.373058971017599">
        <ele>99.150000000000006</ele>
        <time>2017-06-21T14:41:05Z</time>
      </trkpt>
      <trkpt lat="64.019440021365881" lon="10.37335803732276">
        <ele>98.189999999999998</ele>
        <time>2017-06-21T14:41:06Z</time>
      </trkpt>
      <trkpt lat="64.019618974998593" lon="10.373627012595534">
        <ele>96.75</ele>
        <time>2017-06-21T14:41:07Z</time>
      </trkpt>
      <trkpt lat="64.019806981086731" lon="10.373864974826574">
        <ele>95.790000000000006</ele>
        <time>2017-06-21T14:41:08Z</time>
      </trkpt>
      <trkpt lat="64.020001022145152" lon="10.374075025320053">
        <ele>93.870000000000005</ele>
        <time>2017-06-21T14:41:09Z</time>
      </trkpt>
      <trkpt lat="64.021691987290978" lon="10.376145020127296">
        <ele>75.120000000000005</ele>
        <time>2017-06-21T14:41:18Z</time>
      </trkpt>
      <trkpt lat="64.021840011700988" lon="10.376468980684876">
        <ele>74.159999999999997</ele>
        <time>2017-06-21T14:41:19Z</time>
      </trkpt>
      <trkpt lat="64.021974038332701" lon="10.376823032274842">
        <ele>73.200000000000003</ele>
        <time>2017-06-21T14:41:20Z</time>
      </trkpt>
      <trkpt lat="64.022098006680608" lon="10.377212958410382">
        <ele>72.719999999999999</ele>
        <time>2017-06-21T14:41:21Z</time>
      </trkpt>
      <trkpt lat="64.022204037755728" lon="10.377619983628392">
        <ele>73.200000000000003</ele>
        <time>2017-06-21T14:41:22Z</time>
      </trkpt>
      <trkpt lat="64.022308979183435" lon="10.378035977482796">
        <ele>73.680000000000007</ele>
        <time>2017-06-21T14:41:23Z</time>
      </trkpt>
      <trkpt lat="64.02253101579845" lon="10.378852039575577">
        <ele>76.560000000000002</ele>
        <time>2017-06-21T14:41:25Z</time>
      </trkpt>
      <trkpt lat="64.022667976096272" lon="10.379231991246343">
        <ele>78</ele>
        <time>2017-06-21T14:41:26Z</time>
      </trkpt>
      <trkpt lat="64.022818012163043" lon="10.37959098815918">
        <ele>78.969999999999999</ele>
        <time>2017-06-21T14:41:27Z</time>
      </trkpt>
      <trkpt lat="64.022981962189078" lon="10.379925007000566">
        <ele>80.409999999999997</ele>
        <time>2017-06-21T14:41:28Z</time>
      </trkpt>
      <trkpt lat="64.023151025176048" lon="10.380239998921752">
        <ele>81.849999999999994</ele>
        <time>2017-06-21T14:41:29Z</time>
      </trkpt>
      <trkpt lat="64.024611990898848" lon="10.383367035537958">
        <ele>90.980000000000004</ele>
        <time>2017-06-21T14:41:38Z</time>
      </trkpt>
      <trkpt lat="64.025491001084447" lon="10.38569301366806">
        <ele>91.939999999999998</ele>
        <time>2017-06-21T14:41:44Z</time>
      </trkpt>
      <trkpt lat="64.026021994650364" lon="10.38822703063488">
        <ele>92.420000000000002</ele>
        <time>2017-06-21T14:41:51Z</time>
      </trkpt>
      <trkpt lat="64.026902010664344" lon="10.391153991222382">
        <ele>96.269999999999996</ele>
        <time>2017-06-21T14:41:59Z</time>
      </trkpt>
      <trkpt lat="64.028815012425184" lon="10.395861016586423">
        <ele>106.36</ele>
        <time>2017-06-21T14:42:14Z</time>
      </trkpt>
      <trkpt lat="64.030649978667498" lon="10.400950005277991">
        <ele>105.40000000000001</ele>
        <time>2017-06-21T14:42:29Z</time>
      </trkpt>
      <trkpt lat="64.031712971627712" lon="10.40384997613728">
        <ele>94.349999999999994</ele>
        <time>2017-06-21T14:42:36Z</time>
      </trkpt>
      <trkpt lat="64.03346898034215" lon="10.408406965434551">
        <ele>95.790000000000006</ele>
        <time>2017-06-21T14:42:45Z</time>
      </trkpt>
      <trkpt lat="64.035505028441548" lon="10.413628974929452">
        <ele>116.45999999999999</ele>
        <time>2017-06-21T14:42:57Z</time>
      </trkpt>
      <trkpt lat="64.0378940384835" lon="10.419672997668386">
        <ele>115.01000000000001</ele>
        <time>2017-06-21T14:43:11Z</time>
      </trkpt>
      <trkpt lat="64.040767019614577" lon="10.426667025312781">
        <ele>120.3</ele>
        <time>2017-06-21T14:43:28Z</time>
      </trkpt>
      <trkpt lat="64.042627969756722" lon="10.429506981745362">
        <ele>117.42</ele>
        <time>2017-06-21T14:43:37Z</time>
      </trkpt>
      <trkpt lat="64.044063035398722" lon="10.432428997009993">
        <ele>121.73999999999999</ele>
        <time>2017-06-21T14:43:45Z</time>
      </trkpt>
      <trkpt lat="64.046843983232975" lon="10.439606001600623">
        <ele>133.75999999999999</ele>
        <time>2017-06-21T14:44:02Z</time>
      </trkpt>
      <trkpt lat="64.048483986407518" lon="10.443181972950697">
        <ele>124.15000000000001</ele>
        <time>2017-06-21T14:44:11Z</time>
      </trkpt>
      <trkpt lat="64.049287978559732" lon="10.444921972230077">
        <ele>121.26000000000001</ele>
        <time>2017-06-21T14:44:16Z</time>
      </trkpt>
      <trkpt lat="64.04947598464787" lon="10.4451659694314">
        <ele>120.78</ele>
        <time>2017-06-21T14:44:17Z</time>
      </trkpt>
      <trkpt lat="64.049672959372401" lon="10.445363027974963">
        <ele>120.3</ele>
        <time>2017-06-21T14:44:18Z</time>
      </trkpt>
      <trkpt lat="64.049878986552358" lon="10.445514991879463">
        <ele>119.81999999999999</ele>
        <time>2017-06-21T14:44:19Z</time>
      </trkpt>
      <trkpt lat="64.050095994025469" lon="10.445619011297822">
        <ele>119.34</ele>
        <time>2017-06-21T14:44:20Z</time>
      </trkpt>
      <trkpt lat="64.05031300149858" lon="10.445693023502827">
        <ele>118.86</ele>
        <time>2017-06-21T14:44:21Z</time>
      </trkpt>
      <trkpt lat="64.050534032285213" lon="10.445739040151238">
        <ele>118.86</ele>
        <time>2017-06-21T14:44:22Z</time>
      </trkpt>
      <trkpt lat="64.050755985081196" lon="10.445777010172606">
        <ele>119.34</ele>
        <time>2017-06-21T14:44:23Z</time>
      </trkpt>
      <trkpt lat="64.051833981648088" lon="10.44623801484704">
        <ele>123.67</ele>
        <time>2017-06-21T14:44:28Z</time>
      </trkpt>
      <trkpt lat="64.052034979686141" lon="10.446440018713474">
        <ele>124.15000000000001</ele>
        <time>2017-06-21T14:44:29Z</time>
      </trkpt>
      <trkpt lat="64.052233966067433" lon="10.446679992601275">
        <ele>125.11</ele>
        <time>2017-06-21T14:44:30Z</time>
      </trkpt>
      <trkpt lat="64.052430018782616" lon="10.446953997015953">
        <ele>125.11</ele>
        <time>2017-06-21T14:44:31Z</time>
      </trkpt>
      <trkpt lat="64.052627999335527" lon="10.447253985330462">
        <ele>125.59</ele>
        <time>2017-06-21T14:44:32Z</time>
      </trkpt>
      <trkpt lat="64.0552559774369" lon="10.451520960777998">
        <ele>124.63</ele>
        <time>2017-06-21T14:44:45Z</time>
      </trkpt>
      <trkpt lat="64.058215962722898" lon="10.455140015110373">
        <ele>136.63999999999999</ele>
        <time>2017-06-21T14:44:59Z</time>
      </trkpt>
      <trkpt lat="64.061770979315042" lon="10.458987979218364">
        <ele>145.30000000000001</ele>
        <time>2017-06-21T14:45:15Z</time>
      </trkpt>
      <trkpt lat="64.064619988203049" lon="10.462536960840225">
        <ele>154.43000000000001</ele>
        <time>2017-06-21T14:45:28Z</time>
      </trkpt>
      <trkpt lat="64.06806000508368" lon="10.468246964737773">
        <ele>163.56</ele>
        <time>2017-06-21T14:45:45Z</time>
      </trkpt>
      <trkpt lat="64.069845015183091" lon="10.472311014309525">
        <ele>159.72</ele>
        <time>2017-06-21T14:45:55Z</time>
      </trkpt>
      <trkpt lat="64.07160303555429" lon="10.474912002682686">
        <ele>150.09999999999999</ele>
        <time>2017-06-21T14:46:03Z</time>
      </trkpt>
      <trkpt lat="64.073657020926476" lon="10.477898977696896">
        <ele>155.38999999999999</ele>
        <time>2017-06-21T14:46:13Z</time>
      </trkpt>
      <trkpt lat="64.076454984024167" lon="10.48330295830965">
        <ele>165</ele>
        <time>2017-06-21T14:46:28Z</time>
      </trkpt>
      <trkpt lat="64.07843504101038" lon="10.487402966246009">
        <ele>168.84999999999999</ele>
        <time>2017-06-21T14:46:39Z</time>
      </trkpt>
      <trkpt lat="64.079300975427032" lon="10.489840004593134">
        <ele>170.28999999999999</ele>
        <time>2017-06-21T14:46:45Z</time>
      </trkpt>
      <trkpt lat="64.080348964780569" lon="10.493341041728854">
        <ele>172.21000000000001</ele>
        <time>2017-06-21T14:46:53Z</time>
      </trkpt>
      <trkpt lat="64.081568028777838" lon="10.495018009096384">
        <ele>173.66</ele>
        <time>2017-06-21T14:46:59Z</time>
      </trkpt>
      <trkpt lat="64.08299102447927" lon="10.495456969365478">
        <ele>177.02000000000001</ele>
        <time>2017-06-21T14:47:05Z</time>
      </trkpt>
      <trkpt lat="64.084147978574038" lon="10.495399972423911">
        <ele>180.87</ele>
        <time>2017-06-21T14:47:10Z</time>
      </trkpt>
      <trkpt lat="64.084363980218768" lon="10.495493011549115">
        <ele>181.83000000000001</ele>
        <time>2017-06-21T14:47:11Z</time>
      </trkpt>
      <trkpt lat="64.084579981863499" lon="10.49563399516046">
        <ele>182.78999999999999</ele>
        <time>2017-06-21T14:47:12Z</time>
      </trkpt>
      <trkpt lat="64.084791038185358" lon="10.495814960449934">
        <ele>183.75</ele>
        <time>2017-06-21T14:47:13Z</time>
      </trkpt>
      <trkpt lat="64.084996981546283" lon="10.496030040085316">
        <ele>184.71000000000001</ele>
        <time>2017-06-21T14:47:14Z</time>
      </trkpt>
      <trkpt lat="64.085199991241097" lon="10.496270013973117">
        <ele>185.66999999999999</ele>
        <time>2017-06-21T14:47:15Z</time>
      </trkpt>
      <trkpt lat="64.086722983047366" lon="10.4988750256598">
        <ele>194.31999999999999</ele>
        <time>2017-06-21T14:47:23Z</time>
      </trkpt>
      <trkpt lat="64.087951015681028" lon="10.50244202837348">
        <ele>206.34</ele>
        <time>2017-06-21T14:47:31Z</time>
      </trkpt>
      <trkpt lat="64.088976038619876" lon="10.50454999320209">
        <ele>217.40000000000001</ele>
        <time>2017-06-21T14:47:37Z</time>
      </trkpt>
      <trkpt lat="64.089392032474279" lon="10.504944026470184">
        <ele>219.80000000000001</ele>
        <time>2017-06-21T14:47:39Z</time>
      </trkpt>
      <trkpt lat="64.089613985270262" lon="10.505077969282866">
        <ele>220.75999999999999</ele>
        <time>2017-06-21T14:47:40Z</time>
      </trkpt>
      <trkpt lat="64.090714026242495" lon="10.50572999753058">
        <ele>223.63999999999999</ele>
        <time>2017-06-21T14:47:45Z</time>
      </trkpt>
      <trkpt lat="64.090922987088561" lon="10.50596603192389">
        <ele>223.63999999999999</ele>
        <time>2017-06-21T14:47:46Z</time>
      </trkpt>
      <trkpt lat="64.091118033975363" lon="10.506253028288484">
        <ele>224.12</ele>
        <time>2017-06-21T14:47:47Z</time>
      </trkpt>
      <trkpt lat="64.091306962072849" lon="10.506585035473108">
        <ele>224.12</ele>
        <time>2017-06-21T14:47:48Z</time>
      </trkpt>
      <trkpt lat="64.091484993696213" lon="10.506958030164242">
        <ele>224.61000000000001</ele>
        <time>2017-06-21T14:47:49Z</time>
      </trkpt>
      <trkpt lat="64.091661013662815" lon="10.507352985441685">
        <ele>224.61000000000001</ele>
        <time>2017-06-21T14:47:50Z</time>
      </trkpt>
      <trkpt lat="64.092581011354923" lon="10.509205972775817">
        <ele>226.05000000000001</ele>
        <time>2017-06-21T14:47:55Z</time>
      </trkpt>
      <trkpt lat="64.09278997220099" lon="10.509462039917707">
        <ele>227.00999999999999</ele>
        <time>2017-06-21T14:47:56Z</time>
      </trkpt>
      <trkpt lat="64.093007985502481" lon="10.509671000763774">
        <ele>227.97</ele>
        <time>2017-06-21T14:47:57Z</time>
      </trkpt>
      <trkpt lat="64.093233961611986" lon="10.509841991588473">
        <ele>228.44999999999999</ele>
        <time>2017-06-21T14:47:58Z</time>
      </trkpt>
      <trkpt lat="64.093463961035013" lon="10.509965037927032">
        <ele>229.41</ele>
        <time>2017-06-21T14:47:59Z</time>
      </trkpt>
      <trkpt lat="64.093694966286421" lon="10.510040977969766">
        <ele>229.88999999999999</ele>
        <time>2017-06-21T14:48:00Z</time>
      </trkpt>
      <trkpt lat="64.093933012336493" lon="10.510066039860249">
        <ele>230.37</ele>
        <time>2017-06-21T14:48:01Z</time>
      </trkpt>
      <trkpt lat="64.094172986224294" lon="10.510042989626527">
        <ele>230.84999999999999</ele>
        <time>2017-06-21T14:48:02Z</time>
      </trkpt>
      <trkpt lat="64.094415977597237" lon="10.509974006563425">
        <ele>230.84999999999999</ele>
        <time>2017-06-21T14:48:03Z</time>
      </trkpt>
      <trkpt lat="64.094655029475689" lon="10.509864035993814">
        <ele>230.84999999999999</ele>
        <time>2017-06-21T14:48:04Z</time>
      </trkpt>
      <trkpt lat="64.094887962564826" lon="10.50972799770534">
        <ele>230.84999999999999</ele>
        <time>2017-06-21T14:48:05Z</time>
      </trkpt>
      <trkpt lat="64.096280029043555" lon="10.509420968592167">
        <ele>229.88999999999999</ele>
        <time>2017-06-21T14:48:11Z</time>
      </trkpt>
      <trkpt lat="64.096885034814477" lon="10.509724980220199">
        <ele>228.93000000000001</ele>
        <time>2017-06-21T14:48:14Z</time>
      </trkpt>
      <trkpt lat="64.097060970962048" lon="10.509908040985465">
        <ele>228.93000000000001</ele>
        <time>2017-06-21T14:48:15Z</time>
      </trkpt>
      <trkpt lat="64.097225004807115" lon="10.510147009044886">
        <ele>228.93000000000001</ele>
        <time>2017-06-21T14:48:16Z</time>
      </trkpt>
      <trkpt lat="64.09736699424684" lon="10.510432999581099">
        <ele>228.44999999999999</ele>
        <time>2017-06-21T14:48:17Z</time>
      </trkpt>
      <trkpt lat="64.097484005615115" lon="10.510773975402117">
        <ele>228.44999999999999</ele>
        <time>2017-06-21T14:48:18Z</time>
      </trkpt>
      <trkpt lat="64.09758199006319" lon="10.511157028377056">
        <ele>228.44999999999999</ele>
        <time>2017-06-21T14:48:19Z</time>
      </trkpt>
      <trkpt lat="64.097653990611434" lon="10.511567993089557">
        <ele>228.93000000000001</ele>
        <time>2017-06-21T14:48:20Z</time>
      </trkpt>
      <trkpt lat="64.097700007259846" lon="10.511998990550637">
        <ele>228.93000000000001</ele>
        <time>2017-06-21T14:48:21Z</time>
      </trkpt>
      <trkpt lat="64.097720040008426" lon="10.51243300549686">
        <ele>228.93000000000001</ele>
        <time>2017-06-21T14:48:22Z</time>
      </trkpt>
      <trkpt lat="64.097707970067859" lon="10.51286400295794">
        <ele>229.41</ele>
        <time>2017-06-21T14:48:23Z</time>
      </trkpt>
      <trkpt lat="64.097670000046492" lon="10.51329399459064">
        <ele>229.88999999999999</ele>
        <time>2017-06-21T14:48:24Z</time>
      </trkpt>
      <trkpt lat="64.097609985619783" lon="10.513709988445044">
        <ele>230.37</ele>
        <time>2017-06-21T14:48:25Z</time>
      </trkpt>
      <trkpt lat="64.097531028091908" lon="10.514107039198279">
        <ele>231.33000000000001</ele>
        <time>2017-06-21T14:48:26Z</time>
      </trkpt>
      <trkpt lat="64.09742902033031" lon="10.514490008354187">
        <ele>232.30000000000001</ele>
        <time>2017-06-21T14:48:27Z</time>
      </trkpt>
      <trkpt lat="64.097311003133655" lon="10.51486199721694">
        <ele>233.74000000000001</ele>
        <time>2017-06-21T14:48:28Z</time>
      </trkpt>
      <trkpt lat="64.097184017300606" lon="10.515229040756822">
        <ele>234.69999999999999</ele>
        <time>2017-06-21T14:48:29Z</time>
      </trkpt>
      <trkpt lat="64.096002001315355" lon="10.51857702434063">
        <ele>244.31</ele>
        <time>2017-06-21T14:48:38Z</time>
      </trkpt>
      <trkpt lat="64.095913991332054" lon="10.518985977396369">
        <ele>245.27000000000001</ele>
        <time>2017-06-21T14:48:39Z</time>
      </trkpt>
      <trkpt lat="64.095844002440572" lon="10.519423009827733">
        <ele>246.22999999999999</ele>
        <time>2017-06-21T14:48:40Z</time>
      </trkpt>
      <trkpt lat="64.095791028812528" lon="10.519865993410349">
        <ele>247.19999999999999</ele>
        <time>2017-06-21T14:48:41Z</time>
      </trkpt>
      <trkpt lat="64.095761021599174" lon="10.520330015569925">
        <ele>248.16</ele>
        <time>2017-06-21T14:48:42Z</time>
      </trkpt>
      <trkpt lat="64.095755992457271" lon="10.520797977223992">
        <ele>249.12</ele>
        <time>2017-06-21T14:48:43Z</time>
      </trkpt>
      <trkpt lat="64.095772001892328" lon="10.521274991333485">
        <ele>249.59999999999999</ele>
        <time>2017-06-21T14:48:44Z</time>
      </trkpt>
      <trkpt lat="64.095807960256934" lon="10.521741025149822">
        <ele>251.03999999999999</ele>
        <time>2017-06-21T14:48:45Z</time>
      </trkpt>
      <trkpt lat="64.095866968855262" lon="10.522192977368832">
        <ele>252</ele>
        <time>2017-06-21T14:48:46Z</time>
      </trkpt>
      <trkpt lat="64.095946010202169" lon="10.522622969001532">
        <ele>252.96000000000001</ele>
        <time>2017-06-21T14:48:47Z</time>
      </trkpt>
      <trkpt lat="64.096049023792148" lon="10.523023037239909">
        <ele>253.44</ele>
        <time>2017-06-21T14:48:48Z</time>
      </trkpt>
      <trkpt lat="64.096170980483294" lon="10.523399971425533">
        <ele>253.93000000000001</ele>
        <time>2017-06-21T14:48:49Z</time>
      </trkpt>
      <trkpt lat="64.096311964094639" lon="10.523754023015499">
        <ele>254.88999999999999</ele>
        <time>2017-06-21T14:48:50Z</time>
      </trkpt>
      <trkpt lat="64.096469040960073" lon="10.524086030200124">
        <ele>255.37</ele>
        <time>2017-06-21T14:48:51Z</time>
      </trkpt>
      <trkpt lat="64.096642965450883" lon="10.524385012686253">
        <ele>256.32999999999998</ele>
        <time>2017-06-21T14:48:52Z</time>
      </trkpt>
      <trkpt lat="64.09682803787291" lon="10.524661028757691">
        <ele>257.29000000000002</ele>
        <time>2017-06-21T14:48:53Z</time>
      </trkpt>
      <trkpt lat="64.097024006769061" lon="10.524921035394073">
        <ele>258.25</ele>
        <time>2017-06-21T14:48:54Z</time>
      </trkpt>
      <trkpt lat="64.099795985966921" lon="10.528158964589238">
        <ele>268.35000000000002</ele>
        <time>2017-06-21T14:49:07Z</time>
      </trkpt>
      <trkpt lat="64.10187897272408" lon="10.530655011534691">
        <ele>261.62</ele>
        <time>2017-06-21T14:49:17Z</time>
      </trkpt>
      <trkpt lat="64.106545010581613" lon="10.536256972700357">
        <ele>262.57999999999998</ele>
        <time>2017-06-21T14:49:38Z</time>
      </trkpt>
      <trkpt lat="64.109531985595822" lon="10.539858005940914">
        <ele>259.69</ele>
        <time>2017-06-21T14:49:51Z</time>
      </trkpt>
      <trkpt lat="64.112333972007036" lon="10.543717034161091">
        <ele>254.41</ele>
        <time>2017-06-21T14:50:04Z</time>
      </trkpt>
      <trkpt lat="64.114604964852333" lon="10.546647012233734">
        <ele>254.41</ele>
        <time>2017-06-21T14:50:15Z</time>
      </trkpt>
      <trkpt lat="64.114813003689051" lon="10.546762011945248">
        <ele>253.44</ele>
        <time>2017-06-21T14:50:16Z</time>
      </trkpt>
      <trkpt lat="64.115027999505401" lon="10.546836024150252">
        <ele>252.96000000000001</ele>
        <time>2017-06-21T14:50:17Z</time>
      </trkpt>
      <trkpt lat="64.115248024463654" lon="10.546875">
        <ele>252</ele>
        <time>2017-06-21T14:50:18Z</time>
      </trkpt>
      <trkpt lat="64.115471988916397" lon="10.546884974464774">
        <ele>250.56</ele>
        <time>2017-06-21T14:50:19Z</time>
      </trkpt>
      <trkpt lat="64.115701988339424" lon="10.54685203358531">
        <ele>249.59999999999999</ele>
        <time>2017-06-21T14:50:20Z</time>
      </trkpt>
      <trkpt lat="64.115933999419212" lon="10.546776009723544">
        <ele>248.63999999999999</ele>
        <time>2017-06-21T14:50:21Z</time>
      </trkpt>
      <trkpt lat="64.116166010499001" lon="10.546666039153934">
        <ele>247.19999999999999</ele>
        <time>2017-06-21T14:50:22Z</time>
      </trkpt>
      <trkpt lat="64.118327032774687" lon="10.545890964567661">
        <ele>238.06</ele>
        <time>2017-06-21T14:50:31Z</time>
      </trkpt>
      <trkpt lat="64.119285000488162" lon="10.545863974839449">
        <ele>235.18000000000001</ele>
        <time>2017-06-21T14:50:35Z</time>
      </trkpt>
      <trkpt lat="64.121940974146128" lon="10.544825959950686">
        <ele>219.80000000000001</ele>
        <time>2017-06-21T14:50:46Z</time>
      </trkpt>
      <trkpt lat="64.124228982254863" lon="10.544537035748363">
        <ele>210.66999999999999</ele>
        <time>2017-06-21T14:50:55Z</time>
      </trkpt>
      <trkpt lat="64.126680018380284" lon="10.54453301243484">
        <ele>205.86000000000001</ele>
        <time>2017-06-21T14:51:05Z</time>
      </trkpt>
      <trkpt lat="64.128337958827615" lon="10.54470500908792">
        <ele>203.94</ele>
        <time>2017-06-21T14:51:12Z</time>
      </trkpt>
      <trkpt lat="64.131415039300919" lon="10.545567004010081">
        <ele>201.53</ele>
        <time>2017-06-21T14:51:25Z</time>
      </trkpt>
      <trkpt lat="64.131642021238804" lon="10.545484023168683">
        <ele>201.53</ele>
        <time>2017-06-21T14:51:26Z</time>
      </trkpt>
      <trkpt lat="64.131867997348309" lon="10.545365000143647">
        <ele>201.53</ele>
        <time>2017-06-21T14:51:27Z</time>
      </trkpt>
      <trkpt lat="64.134107977151871" lon="10.544136967509985">
        <ele>217.40000000000001</ele>
        <time>2017-06-21T14:51:37Z</time>
      </trkpt>
      <trkpt lat="64.13818996399641" lon="10.543486028909683">
        <ele>256.32999999999998</ele>
        <time>2017-06-21T14:51:55Z</time>
      </trkpt>
      <trkpt lat="64.13981999270618" lon="10.542616993188858">
        <ele>262.57999999999998</ele>
        <time>2017-06-21T14:52:02Z</time>
      </trkpt>
      <trkpt lat="64.14340803399682" lon="10.540325967594981">
        <ele>277.48000000000002</ele>
        <time>2017-06-21T14:52:18Z</time>
      </trkpt>
      <trkpt lat="64.143863003700972" lon="10.540418000891805">
        <ele>275.06999999999999</ele>
        <time>2017-06-21T14:52:20Z</time>
      </trkpt>
      <trkpt lat="64.144088979810476" lon="10.540533000603318">
        <ele>274.11000000000001</ele>
        <time>2017-06-21T14:52:21Z</time>
      </trkpt>
      <trkpt lat="64.144303975626826" lon="10.540707008913159">
        <ele>272.67000000000002</ele>
        <time>2017-06-21T14:52:22Z</time>
      </trkpt>
      <trkpt lat="64.144506985321641" lon="10.540947988629341">
        <ele>271.70999999999998</ele>
        <time>2017-06-21T14:52:23Z</time>
      </trkpt>
      <trkpt lat="64.144702032208443" lon="10.541227022185922">
        <ele>270.26999999999998</ele>
        <time>2017-06-21T14:52:24Z</time>
      </trkpt>
      <trkpt lat="64.146317979320884" lon="10.543114962056279">
        <ele>264.01999999999998</ele>
        <time>2017-06-21T14:52:32Z</time>
      </trkpt>
      <trkpt lat="64.147607032209635" lon="10.54337203502655">
        <ele>258.73000000000002</ele>
        <time>2017-06-21T14:52:38Z</time>
      </trkpt>
      <trkpt lat="64.149048971012235" lon="10.542429992929101">
        <ele>252</ele>
        <time>2017-06-21T14:52:45Z</time>
      </trkpt>
      <trkpt lat="64.151515010744333" lon="10.540154976770282">
        <ele>243.83000000000001</ele>
        <time>2017-06-21T14:52:56Z</time>
      </trkpt>
      <trkpt lat="64.15258202701807" lon="10.538661992177367">
        <ele>235.18000000000001</ele>
        <time>2017-06-21T14:53:02Z</time>
      </trkpt>
      <trkpt lat="64.153572013601661" lon="10.535889007151127">
        <ele>238.06</ele>
        <time>2017-06-21T14:53:09Z</time>
      </trkpt>
      <trkpt lat="64.15391500107944" lon="10.534647982567549">
        <ele>242.38999999999999</ele>
        <time>2017-06-21T14:53:12Z</time>
      </trkpt>
      <trkpt lat="64.153989013284445" lon="10.534221008419991">
        <ele>242.87</ele>
        <time>2017-06-21T14:53:13Z</time>
      </trkpt>
      <trkpt lat="64.154037041589618" lon="10.533799985423684">
        <ele>243.34999999999999</ele>
        <time>2017-06-21T14:53:14Z</time>
      </trkpt>
      <trkpt lat="64.15406302548945" lon="10.533370999619365">
        <ele>243.34999999999999</ele>
        <time>2017-06-21T14:53:15Z</time>
      </trkpt>
      <trkpt lat="64.154067970812321" lon="10.532937990501523">
        <ele>243.34999999999999</ele>
        <time>2017-06-21T14:53:16Z</time>
      </trkpt>
      <trkpt lat="64.154053973034024" lon="10.532504981383681">
        <ele>243.34999999999999</ele>
        <time>2017-06-21T14:53:17Z</time>
      </trkpt>
      <trkpt lat="64.15402103215456" lon="10.532066021114588">
        <ele>242.87</ele>
        <time>2017-06-21T14:53:18Z</time>
      </trkpt>
      <trkpt lat="64.153968980535865" lon="10.531623959541321">
        <ele>242.38999999999999</ele>
        <time>2017-06-21T14:53:19Z</time>
      </trkpt>
      <trkpt lat="64.153906032443047" lon="10.531184999272227">
        <ele>241.91</ele>
        <time>2017-06-21T14:53:20Z</time>
      </trkpt>
      <trkpt lat="64.153189966455102" lon="10.526619041338563">
        <ele>230.84999999999999</ele>
        <time>2017-06-21T14:53:30Z</time>
      </trkpt>
      <trkpt lat="64.153149984776974" lon="10.526158958673477">
        <ele>229.41</ele>
        <time>2017-06-21T14:53:31Z</time>
      </trkpt>
      <trkpt lat="64.153126012533903" lon="10.525680016726255">
        <ele>228.93000000000001</ele>
        <time>2017-06-21T14:53:32Z</time>
      </trkpt>
      <trkpt lat="64.153125006705523" lon="10.52519797347486">
        <ele>228.44999999999999</ele>
        <time>2017-06-21T14:53:33Z</time>
      </trkpt>
      <trkpt lat="64.153158031404018" lon="10.524737974628806">
        <ele>227.00999999999999</ele>
        <time>2017-06-21T14:53:34Z</time>
      </trkpt>
      <trkpt lat="64.153216034173965" lon="10.52427495829761">
        <ele>226.05000000000001</ele>
        <time>2017-06-21T14:53:35Z</time>
      </trkpt>
      <trkpt lat="64.15329298004508" lon="10.52380096167326">
        <ele>224.61000000000001</ele>
        <time>2017-06-21T14:53:36Z</time>
      </trkpt>
      <trkpt lat="64.153379984200001" lon="10.523323025554419">
        <ele>223.63999999999999</ele>
        <time>2017-06-21T14:53:37Z</time>
      </trkpt>
      <trkpt lat="64.153666980564594" lon="10.521537009626627">
        <ele>213.06999999999999</ele>
        <time>2017-06-21T14:53:41Z</time>
      </trkpt>
      <trkpt lat="64.15370000526309" lon="10.521083967760205">
        <ele>210.66999999999999</ele>
        <time>2017-06-21T14:53:42Z</time>
      </trkpt>
      <trkpt lat="64.154004016891122" lon="10.51849203184247">
        <ele>199.61000000000001</ele>
        <time>2017-06-21T14:53:48Z</time>
      </trkpt>
      <trkpt lat="64.154875986278057" lon="10.515601029619575">
        <ele>187.59</ele>
        <time>2017-06-21T14:53:55Z</time>
      </trkpt>
      <trkpt lat="64.155430030077696" lon="10.514043001458049">
        <ele>184.71000000000001</ele>
        <time>2017-06-21T14:53:59Z</time>
      </trkpt>
      <trkpt lat="64.156884038820863" lon="10.510981008410454">
        <ele>166.44999999999999</ele>
        <time>2017-06-21T14:54:08Z</time>
      </trkpt>
      <trkpt lat="64.15836101397872" lon="10.50779202952981">
        <ele>150.09999999999999</ele>
        <time>2017-06-21T14:54:17Z</time>
      </trkpt>
      <trkpt lat="64.158492023125291" lon="10.507414005696774">
        <ele>147.69999999999999</ele>
        <time>2017-06-21T14:54:18Z</time>
      </trkpt>
      <trkpt lat="64.158610040321946" lon="10.507000023499131">
        <ele>145.30000000000001</ele>
        <time>2017-06-21T14:54:19Z</time>
      </trkpt>
      <trkpt lat="64.159580999985337" lon="10.503676012158394">
        <ele>141.44999999999999</ele>
        <time>2017-06-21T14:54:27Z</time>
      </trkpt>
      <trkpt lat="64.15973799303174" lon="10.503369988873601">
        <ele>141.93000000000001</ele>
        <time>2017-06-21T14:54:28Z</time>
      </trkpt>
      <trkpt lat="64.159900015220046" lon="10.503086009994149">
        <ele>142.41</ele>
        <time>2017-06-21T14:54:29Z</time>
      </trkpt>
      <trkpt lat="64.160802997648716" lon="10.501305023208261">
        <ele>141.93000000000001</ele>
        <time>2017-06-21T14:54:35Z</time>
      </trkpt>
      <trkpt lat="64.160913974046707" lon="10.500930016860366">
        <ele>141.44999999999999</ele>
        <time>2017-06-21T14:54:36Z</time>
      </trkpt>
      <trkpt lat="64.161008019000292" lon="10.500528020784259">
        <ele>140.49000000000001</ele>
        <time>2017-06-21T14:54:37Z</time>
      </trkpt>
      <trkpt lat="64.161082031205297" lon="10.500112026929855">
        <ele>140.00999999999999</ele>
        <time>2017-06-21T14:54:38Z</time>
      </trkpt>
      <trkpt lat="64.16113399900496" lon="10.49967197701335">
        <ele>139.05000000000001</ele>
        <time>2017-06-21T14:54:39Z</time>
      </trkpt>
      <trkpt lat="64.161168029531837" lon="10.499226981773973">
        <ele>138.09</ele>
        <time>2017-06-21T14:54:40Z</time>
      </trkpt>
      <trkpt lat="64.161299038678408" lon="10.497526964172721">
        <ele>133.28</ele>
        <time>2017-06-21T14:54:44Z</time>
      </trkpt>
      <trkpt lat="64.161368021741509" lon="10.497118011116982">
        <ele>132.31999999999999</ele>
        <time>2017-06-21T14:54:45Z</time>
      </trkpt>
      <trkpt lat="64.161460977047682" lon="10.496722972020507">
        <ele>131.36000000000001</ele>
        <time>2017-06-21T14:54:46Z</time>
      </trkpt>
      <trkpt lat="64.16156399063766" lon="10.496329022571445">
        <ele>130.40000000000001</ele>
        <time>2017-06-21T14:54:47Z</time>
      </trkpt>
      <trkpt lat="64.161660969257355" lon="10.49593498930335">
        <ele>128.94999999999999</ele>
        <time>2017-06-21T14:54:48Z</time>
      </trkpt>
      <trkpt lat="64.161745961755514" lon="10.495528969913721">
        <ele>127.03</ele>
        <time>2017-06-21T14:54:49Z</time>
      </trkpt>
      <trkpt lat="64.161876970902085" lon="10.494691031053662">
        <ele>125.11</ele>
        <time>2017-06-21T14:54:51Z</time>
      </trkpt>
      <trkpt lat="64.161915024742484" lon="10.494244024157524">
        <ele>124.63</ele>
        <time>2017-06-21T14:54:52Z</time>
      </trkpt>
      <trkpt lat="64.161935979500413" lon="10.493769021704793">
        <ele>123.67</ele>
        <time>2017-06-21T14:54:53Z</time>
      </trkpt>
      <trkpt lat="64.162087021395564" lon="10.490973992273211">
        <ele>119.81999999999999</ele>
        <time>2017-06-21T14:54:59Z</time>
      </trkpt>
      <trkpt lat="64.162160027772188" lon="10.490531008690596">
        <ele>119.34</ele>
        <time>2017-06-21T14:55:00Z</time>
      </trkpt>
      <trkpt lat="64.162239991128445" lon="10.490100011229515">
        <ele>118.86</ele>
        <time>2017-06-21T14:55:01Z</time>
      </trkpt>
      <trkpt lat="64.162347028031945" lon="10.48968099988997">
        <ele>117.90000000000001</ele>
        <time>2017-06-21T14:55:02Z</time>
      </trkpt>
      <trkpt lat="64.162467978894711" lon="10.489275986328721">
        <ele>116.94</ele>
        <time>2017-06-21T14:55:03Z</time>
      </trkpt>
      <trkpt lat="64.162828987464309" lon="10.488068992272019">
        <ele>112.61</ele>
        <time>2017-06-21T14:55:06Z</time>
      </trkpt>
      <trkpt lat="64.162914985790849" lon="10.487649980932474">
        <ele>111.65000000000001</ele>
        <time>2017-06-21T14:55:07Z</time>
      </trkpt>
      <trkpt lat="64.162964019924402" lon="10.487237004563212">
        <ele>108.29000000000001</ele>
        <time>2017-06-21T14:55:08Z</time>
      </trkpt>
      <trkpt lat="64.162997966632247" lon="10.486800977960229">
        <ele>105.88</ele>
        <time>2017-06-21T14:55:09Z</time>
      </trkpt>
      <trkpt lat="64.163010036572814" lon="10.486342990770936">
        <ele>104.44</ele>
        <time>2017-06-21T14:55:10Z</time>
      </trkpt>
      <trkpt lat="64.162998972460628" lon="10.48587896861136">
        <ele>103</ele>
        <time>2017-06-21T14:55:11Z</time>
      </trkpt>
      <trkpt lat="64.16298002935946" lon="10.485433973371983">
        <ele>101.56</ele>
        <time>2017-06-21T14:55:12Z</time>
      </trkpt>
      <trkpt lat="64.162955973297358" lon="10.484075015410781">
        <ele>98.670000000000002</ele>
        <time>2017-06-21T14:55:15Z</time>
      </trkpt>
      <trkpt lat="64.162985980510712" lon="10.483157029375434">
        <ele>95.790000000000006</ele>
        <time>2017-06-21T14:55:17Z</time>
      </trkpt>
      <trkpt lat="64.163021016865969" lon="10.48269703052938">
        <ele>94.349999999999994</ele>
        <time>2017-06-21T14:55:18Z</time>
      </trkpt>
      <trkpt lat="64.163074996322393" lon="10.482246000319719">
        <ele>93.870000000000005</ele>
        <time>2017-06-21T14:55:19Z</time>
      </trkpt>
      <trkpt lat="64.163146996870637" lon="10.48179698176682">
        <ele>92.900000000000006</ele>
        <time>2017-06-21T14:55:20Z</time>
      </trkpt>
      <trkpt lat="64.163223020732403" lon="10.481359027326107">
        <ele>91.459999999999994</ele>
        <time>2017-06-21T14:55:21Z</time>
      </trkpt>
      <trkpt lat="64.163807993754745" lon="10.478822998702526">
        <ele>84.730000000000004</ele>
        <time>2017-06-21T14:55:27Z</time>
      </trkpt>
      <trkpt lat="64.164127008989453" lon="10.478126965463161">
        <ele>83.290000000000006</ele>
        <time>2017-06-21T14:55:29Z</time>
      </trkpt>
      <trkpt lat="64.164304034784436" lon="10.477844998240471">
        <ele>82.810000000000002</ele>
        <time>2017-06-21T14:55:30Z</time>
      </trkpt>
      <trkpt lat="64.164501009508967" lon="10.47760603018105">
        <ele>82.329999999999998</ele>
        <time>2017-06-21T14:55:31Z</time>
      </trkpt>
      <trkpt lat="64.164693960919976" lon="10.477404026314616">
        <ele>80.890000000000001</ele>
        <time>2017-06-21T14:55:32Z</time>
      </trkpt>
      <trkpt lat="64.164897976443172" lon="10.47721903771162">
        <ele>79.930000000000007</ele>
        <time>2017-06-21T14:55:33Z</time>
      </trkpt>
      <trkpt lat="64.165668021887541" lon="10.476595005020499">
        <ele>78</ele>
        <time>2017-06-21T14:55:37Z</time>
      </trkpt>
      <trkpt lat="64.165864996612072" lon="10.476525016129017">
        <ele>77.040000000000006</ele>
        <time>2017-06-21T14:55:38Z</time>
      </trkpt>
      <trkpt lat="64.16607404127717" lon="10.476515041664243">
        <ele>76.560000000000002</ele>
        <time>2017-06-21T14:55:39Z</time>
      </trkpt>
      <trkpt lat="64.166286019608378" lon="10.476545970886946">
        <ele>76.079999999999998</ele>
        <time>2017-06-21T14:55:40Z</time>
      </trkpt>
      <trkpt lat="64.166499003767967" lon="10.476641021668911">
        <ele>75.120000000000005</ele>
        <time>2017-06-21T14:55:41Z</time>
      </trkpt>
      <trkpt lat="64.166710982099175" lon="10.476771024987102">
        <ele>73.680000000000007</ele>
        <time>2017-06-21T14:55:42Z</time>
      </trkpt>
      <trkpt lat="64.166917009279132" lon="10.476927012205124">
        <ele>71.760000000000005</ele>
        <time>2017-06-21T14:55:43Z</time>
      </trkpt>
      <trkpt lat="64.167322022840381" lon="10.477159023284912">
        <ele>67.909999999999997</ele>
        <time>2017-06-21T14:55:45Z</time>
      </trkpt>
      <trkpt lat="64.167525032535195" lon="10.477206967771053">
        <ele>66.950000000000003</ele>
        <time>2017-06-21T14:55:46Z</time>
      </trkpt>
      <trkpt lat="64.167717983946204" lon="10.477205961942673">
        <ele>66.469999999999999</ele>
        <time>2017-06-21T14:55:47Z</time>
      </trkpt>
      <trkpt lat="64.167909007519484" lon="10.477158017456532">
        <ele>66.469999999999999</ele>
        <time>2017-06-21T14:55:48Z</time>
      </trkpt>
      <trkpt lat="64.16809500195086" lon="10.477059027180076">
        <ele>67.909999999999997</ele>
        <time>2017-06-21T14:55:49Z</time>
      </trkpt>
      <trkpt lat="64.168274961411953" lon="10.476917959749699">
        <ele>68.390000000000001</ele>
        <time>2017-06-21T14:55:50Z</time>
      </trkpt>
      <trkpt lat="64.168444024398923" lon="10.476730959489942">
        <ele>68.870000000000005</ele>
        <time>2017-06-21T14:55:51Z</time>
      </trkpt>
      <trkpt lat="64.168607974424958" lon="10.476497020572424">
        <ele>70.310000000000002</ele>
        <time>2017-06-21T14:55:52Z</time>
      </trkpt>
      <trkpt lat="64.168763961642981" lon="10.476239025592804">
        <ele>70.790000000000006</ele>
        <time>2017-06-21T14:55:53Z</time>
      </trkpt>
      <trkpt lat="64.168919026851654" lon="10.475954040884972">
        <ele>72.239999999999995</ele>
        <time>2017-06-21T14:55:54Z</time>
      </trkpt>
      <trkpt lat="64.17133997194469" lon="10.471396967768669">
        <ele>68.870000000000005</ele>
        <time>2017-06-21T14:56:09Z</time>
      </trkpt>
      <trkpt lat="64.172330964356661" lon="10.469815973192453">
        <ele>66.950000000000003</ele>
        <time>2017-06-21T14:56:15Z</time>
      </trkpt>
      <trkpt lat="64.172506984323263" lon="10.469686975702643">
        <ele>66.469999999999999</ele>
        <time>2017-06-21T14:56:16Z</time>
      </trkpt>
      <trkpt lat="64.172690967097878" lon="10.469609024003148">
        <ele>66.469999999999999</ele>
        <time>2017-06-21T14:56:17Z</time>
      </trkpt>
      <trkpt lat="64.172876961529255" lon="10.469574993476272">
        <ele>65.989999999999995</ele>
        <time>2017-06-21T14:56:18Z</time>
      </trkpt>
      <trkpt lat="64.173062033951283" lon="10.469586979597807">
        <ele>65.510000000000005</ele>
        <time>2017-06-21T14:56:19Z</time>
      </trkpt>
      <trkpt lat="64.173241993412375" lon="10.469647999852896">
        <ele>65.030000000000001</ele>
        <time>2017-06-21T14:56:20Z</time>
      </trkpt>
      <trkpt lat="64.173419019207358" lon="10.469770040363073">
        <ele>64.069999999999993</ele>
        <time>2017-06-21T14:56:21Z</time>
      </trkpt>
      <trkpt lat="64.173603001981974" lon="10.469923010095954">
        <ele>64.069999999999993</ele>
        <time>2017-06-21T14:56:22Z</time>
      </trkpt>
      <trkpt lat="64.174332981929183" lon="10.470549976453185">
        <ele>63.579999999999998</ele>
        <time>2017-06-21T14:56:26Z</time>
      </trkpt>
      <trkpt lat="64.174504978582263" lon="10.470573026686907">
        <ele>63.579999999999998</ele>
        <time>2017-06-21T14:56:27Z</time>
      </trkpt>
      <trkpt lat="64.174661971628666" lon="10.470508988946676">
        <ele>63.579999999999998</ele>
        <time>2017-06-21T14:56:28Z</time>
      </trkpt>
      <trkpt lat="64.174808990210295" lon="10.470373034477234">
        <ele>64.069999999999993</ele>
        <time>2017-06-21T14:56:29Z</time>
      </trkpt>
      <trkpt lat="64.174941005185246" lon="10.470162983983755">
        <ele>64.069999999999993</ele>
        <time>2017-06-21T14:56:30Z</time>
      </trkpt>
      <trkpt lat="64.17505600489676" lon="10.469896020367742">
        <ele>64.549999999999997</ele>
        <time>2017-06-21T14:56:31Z</time>
      </trkpt>
      <trkpt lat="64.1751420032233" lon="10.469585973769426">
        <ele>64.549999999999997</ele>
        <time>2017-06-21T14:56:32Z</time>
      </trkpt>
      <trkpt lat="64.175189025700092" lon="10.469240974634886">
        <ele>64.549999999999997</ele>
        <time>2017-06-21T14:56:33Z</time>
      </trkpt>
      <trkpt lat="64.175196988508105" lon="10.468884995207191">
        <ele>64.549999999999997</ele>
        <time>2017-06-21T14:56:34Z</time>
      </trkpt>
      <trkpt lat="64.175177961587906" lon="10.46851996332407">
        <ele>65.030000000000001</ele>
        <time>2017-06-21T14:56:35Z</time>
      </trkpt>
      <trkpt lat="64.175132028758526" lon="10.468169013038278">
        <ele>65.030000000000001</ele>
        <time>2017-06-21T14:56:36Z</time>
      </trkpt>
      <trkpt lat="64.17507603764534" lon="10.467826025560498">
        <ele>65.510000000000005</ele>
        <time>2017-06-21T14:56:37Z</time>
      </trkpt>
      <trkpt lat="64.175019040703773" lon="10.467475997284055">
        <ele>65.989999999999995</ele>
        <time>2017-06-21T14:56:38Z</time>
      </trkpt>
      <trkpt lat="64.174984004348516" lon="10.467134015634656">
        <ele>66.469999999999999</ele>
        <time>2017-06-21T14:56:39Z</time>
      </trkpt>
      <trkpt lat="64.174973024055362" lon="10.466765966266394">
        <ele>66.950000000000003</ele>
        <time>2017-06-21T14:56:40Z</time>
      </trkpt>
      <trkpt lat="64.175001019611955" lon="10.466382997110486">
        <ele>68.390000000000001</ele>
        <time>2017-06-21T14:56:41Z</time>
      </trkpt>
      <trkpt lat="64.175054999068379" lon="10.466015031561255">
        <ele>69.349999999999994</ele>
        <time>2017-06-21T14:56:42Z</time>
      </trkpt>
      <trkpt lat="64.175135968253016" lon="10.46566097997129">
        <ele>69.829999999999998</ele>
        <time>2017-06-21T14:56:43Z</time>
      </trkpt>
      <trkpt lat="64.175234958529472" lon="10.465324027463794">
        <ele>70.310000000000002</ele>
        <time>2017-06-21T14:56:44Z</time>
      </trkpt>
      <trkpt lat="64.175349036231637" lon="10.464991014450788">
        <ele>71.269999999999996</ele>
        <time>2017-06-21T14:56:45Z</time>
      </trkpt>
      <trkpt lat="64.175543999299407" lon="10.464294981211424">
        <ele>73.200000000000003</ele>
        <time>2017-06-21T14:56:47Z</time>
      </trkpt>
      <trkpt lat="64.175580963492393" lon="10.463922992348671">
        <ele>73.200000000000003</ele>
        <time>2017-06-21T14:56:48Z</time>
      </trkpt>
      <trkpt lat="64.175582975149155" lon="10.463549997657537">
        <ele>74.159999999999997</ele>
        <time>2017-06-21T14:56:49Z</time>
      </trkpt>
      <trkpt lat="64.175548022612929" lon="10.463193012401462">
        <ele>74.640000000000001</ele>
        <time>2017-06-21T14:56:50Z</time>
      </trkpt>
      <trkpt lat="64.17548599652946" lon="10.462834015488625">
        <ele>75.599999999999994</ele>
        <time>2017-06-21T14:56:51Z</time>
      </trkpt>
      <trkpt lat="64.175412990152836" lon="10.462480969727039">
        <ele>76.560000000000002</ele>
        <time>2017-06-21T14:56:52Z</time>
      </trkpt>
      <trkpt lat="64.174838997423649" lon="10.459701027721167">
        <ele>81.849999999999994</ele>
        <time>2017-06-21T14:57:01Z</time>
      </trkpt>
      <trkpt lat="64.173929980024695" lon="10.455615017563105">
        <ele>83.290000000000006</ele>
        <time>2017-06-21T14:57:13Z</time>
      </trkpt>
      <trkpt lat="64.173268983140588" lon="10.451937960460782">
        <ele>73.200000000000003</ele>
        <time>2017-06-21T14:57:22Z</time>
      </trkpt>
      <trkpt lat="64.17329203337431" lon="10.449363039806485">
        <ele>68.870000000000005</ele>
        <time>2017-06-21T14:57:27Z</time>
      </trkpt>
      <trkpt lat="64.173349030315876" lon="10.448854006826878">
        <ele>65.989999999999995</ele>
        <time>2017-06-21T14:57:28Z</time>
      </trkpt>
      <trkpt lat="64.173886980861425" lon="10.445991000160575">
        <ele>63.579999999999998</ele>
        <time>2017-06-21T14:57:34Z</time>
      </trkpt>
      <trkpt lat="64.174966989085078" lon="10.442826999351382">
        <ele>61.659999999999997</ele>
        <time>2017-06-21T14:57:42Z</time>
      </trkpt>
      <trkpt lat="64.175133034586906" lon="10.442511001601815">
        <ele>61.18</ele>
        <time>2017-06-21T14:57:43Z</time>
      </trkpt>
      <trkpt lat="64.175310982391238" lon="10.442225011065602">
        <ele>60.700000000000003</ele>
        <time>2017-06-21T14:57:44Z</time>
      </trkpt>
      <trkpt lat="64.177301013842225" lon="10.439887968823314">
        <ele>59.259999999999998</ele>
        <time>2017-06-21T14:57:54Z</time>
      </trkpt>
      <trkpt lat="64.178824005648494" lon="10.439232001081109">
        <ele>61.659999999999997</ele>
        <time>2017-06-21T14:58:01Z</time>
      </trkpt>
      <trkpt lat="64.179218038916588" lon="10.43897501192987">
        <ele>61.18</ele>
        <time>2017-06-21T14:58:03Z</time>
      </trkpt>
      <trkpt lat="64.179403027519584" lon="10.438777031376958">
        <ele>61.659999999999997</ele>
        <time>2017-06-21T14:58:04Z</time>
      </trkpt>
      <trkpt lat="64.179581981152296" lon="10.438542002812028">
        <ele>61.18</ele>
        <time>2017-06-21T14:58:05Z</time>
      </trkpt>
      <trkpt lat="64.179758001118898" lon="10.438284007832408">
        <ele>61.18</ele>
        <time>2017-06-21T14:58:06Z</time>
      </trkpt>
      <trkpt lat="64.17993200942874" lon="10.438002040609717">
        <ele>61.18</ele>
        <time>2017-06-21T14:58:07Z</time>
      </trkpt>
      <trkpt lat="64.182143993675709" lon="10.434165978804231">
        <ele>56.859999999999999</ele>
        <time>2017-06-21T14:58:19Z</time>
      </trkpt>
      <trkpt lat="64.183541005477309" lon="10.431708991527557">
        <ele>56.369999999999997</ele>
        <time>2017-06-21T14:58:27Z</time>
      </trkpt>
      <trkpt lat="64.183666985481977" lon="10.431386036798358">
        <ele>56.369999999999997</ele>
        <time>2017-06-21T14:58:28Z</time>
      </trkpt>
      <trkpt lat="64.183768993243575" lon="10.43104900047183">
        <ele>56.859999999999999</ele>
        <time>2017-06-21T14:58:29Z</time>
      </trkpt>
      <trkpt lat="64.183840993791819" lon="10.430694026872516">
        <ele>57.340000000000003</ele>
        <time>2017-06-21T14:58:30Z</time>
      </trkpt>
      <trkpt lat="64.183895979076624" lon="10.430322038009763">
        <ele>57.82</ele>
        <time>2017-06-21T14:58:31Z</time>
      </trkpt>
      <trkpt lat="64.183944007381797" lon="10.429922975599766">
        <ele>58.299999999999997</ele>
        <time>2017-06-21T14:58:32Z</time>
      </trkpt>
      <trkpt lat="64.184045009315014" lon="10.429110014811158">
        <ele>58.299999999999997</ele>
        <time>2017-06-21T14:58:34Z</time>
      </trkpt>
      <trkpt lat="64.184195967391133" lon="10.428300993517041">
        <ele>57.82</ele>
        <time>2017-06-21T14:58:36Z</time>
      </trkpt>
      <trkpt lat="64.184295041486621" lon="10.427915006875992">
        <ele>57.340000000000003</ele>
        <time>2017-06-21T14:58:37Z</time>
      </trkpt>
      <trkpt lat="64.18539198115468" lon="10.424987962469459">
        <ele>53.969999999999999</ele>
        <time>2017-06-21T14:58:45Z</time>
      </trkpt>
      <trkpt lat="64.186897035688162" lon="10.422147000208497">
        <ele>54.93</ele>
        <time>2017-06-21T14:58:54Z</time>
      </trkpt>
      <trkpt lat="64.188520023599267" lon="10.419582976028323">
        <ele>57.82</ele>
        <time>2017-06-21T14:59:05Z</time>
      </trkpt>
      <trkpt lat="64.18996699154377" lon="10.417779022827744">
        <ele>58.299999999999997</ele>
        <time>2017-06-21T14:59:15Z</time>
      </trkpt>
      <trkpt lat="64.191094022244215" lon="10.416070036590099">
        <ele>57.82</ele>
        <time>2017-06-21T14:59:24Z</time>
      </trkpt>
      <trkpt lat="64.191186977550387" lon="10.415791003033519">
        <ele>58.299999999999997</ele>
        <time>2017-06-21T14:59:25Z</time>
      </trkpt>
      <trkpt lat="64.191264007240534" lon="10.415481040254235">
        <ele>58.780000000000001</ele>
        <time>2017-06-21T14:59:26Z</time>
      </trkpt>
      <trkpt lat="64.191328966990113" lon="10.415151966735721">
        <ele>59.740000000000002</ele>
        <time>2017-06-21T14:59:27Z</time>
      </trkpt>
      <trkpt lat="64.191389987245202" lon="10.414805039763451">
        <ele>60.219999999999999</ele>
        <time>2017-06-21T14:59:28Z</time>
      </trkpt>
      <trkpt lat="64.192155003547668" lon="10.410450976341963">
        <ele>58.299999999999997</ele>
        <time>2017-06-21T14:59:39Z</time>
      </trkpt>
      <trkpt lat="64.193052034825087" lon="10.406461022794247">
        <ele>64.069999999999993</ele>
        <time>2017-06-21T14:59:49Z</time>
      </trkpt>
      <trkpt lat="64.193354034796357" lon="10.405830033123493">
        <ele>65.989999999999995</ele>
        <time>2017-06-21T14:59:51Z</time>
      </trkpt>
      <trkpt lat="64.193523013964295" lon="10.405572960153222">
        <ele>66.469999999999999</ele>
        <time>2017-06-21T14:59:52Z</time>
      </trkpt>
      <trkpt lat="64.193702973425388" lon="10.405355030670762">
        <ele>67.430000000000007</ele>
        <time>2017-06-21T14:59:53Z</time>
      </trkpt>
      <trkpt lat="64.193886034190655" lon="10.405190996825695">
        <ele>67.909999999999997</ele>
        <time>2017-06-21T14:59:54Z</time>
      </trkpt>
      <trkpt lat="64.194077979773283" lon="10.405080020427704">
        <ele>68.390000000000001</ele>
        <time>2017-06-21T14:59:55Z</time>
      </trkpt>
      <trkpt lat="64.194277971982956" lon="10.405023023486137">
        <ele>68.870000000000005</ele>
        <time>2017-06-21T14:59:56Z</time>
      </trkpt>
      <trkpt lat="64.194474024698138" lon="10.404994022101164">
        <ele>69.349999999999994</ele>
        <time>2017-06-21T14:59:57Z</time>
      </trkpt>
      <trkpt lat="64.194670999422669" lon="10.40500701405108">
        <ele>68.870000000000005</ele>
        <time>2017-06-21T14:59:58Z</time>
      </trkpt>
      <trkpt lat="64.196321982890368" lon="10.405423007905483">
        <ele>60.219999999999999</ele>
        <time>2017-06-21T15:00:06Z</time>
      </trkpt>
      <trkpt lat="64.197629978880286" lon="10.405830033123493">
        <ele>64.549999999999997</ele>
        <time>2017-06-21T15:00:13Z</time>
      </trkpt>
      <trkpt lat="64.197789989411831" lon="10.40601703338325">
        <ele>65.989999999999995</ele>
        <time>2017-06-21T15:00:14Z</time>
      </trkpt>
      <trkpt lat="64.197944970801473" lon="10.406244015321136">
        <ele>67.909999999999997</ele>
        <time>2017-06-21T15:00:15Z</time>
      </trkpt>
      <trkpt lat="64.198085032403469" lon="10.406519025564194">
        <ele>69.829999999999998</ele>
        <time>2017-06-21T15:00:16Z</time>
      </trkpt>
      <trkpt lat="64.198214029893279" lon="10.406838962808251">
        <ele>71.760000000000005</ele>
        <time>2017-06-21T15:00:17Z</time>
      </trkpt>
      <trkpt lat="64.19832500629127" lon="10.407183039933443">
        <ele>73.680000000000007</ele>
        <time>2017-06-21T15:00:18Z</time>
      </trkpt>
      <trkpt lat="64.198407987132668" lon="10.407555028796196">
        <ele>75.120000000000005</ele>
        <time>2017-06-21T15:00:19Z</time>
      </trkpt>
      <trkpt lat="64.198460960760713" lon="10.407954007387161">
        <ele>76.560000000000002</ele>
        <time>2017-06-21T15:00:20Z</time>
      </trkpt>
      <trkpt lat="64.198487028479576" lon="10.408378969877958">
        <ele>78.480000000000004</ele>
        <time>2017-06-21T15:00:21Z</time>
      </trkpt>
      <trkpt lat="64.198508989065886" lon="10.408822959288955">
        <ele>80.409999999999997</ele>
        <time>2017-06-21T15:00:22Z</time>
      </trkpt>
      <trkpt lat="64.198822975158691" lon="10.41205401532352">
        <ele>92.420000000000002</ele>
        <time>2017-06-21T15:00:29Z</time>
      </trkpt>
      <trkpt lat="64.199555972591043" lon="10.415509035810828">
        <ele>109.73</ele>
        <time>2017-06-21T15:00:37Z</time>
      </trkpt>
      <trkpt lat="64.199944976717234" lon="10.41652400046587">
        <ele>116.45999999999999</ele>
        <time>2017-06-21T15:00:40Z</time>
      </trkpt>
      <trkpt lat="64.200098030269146" lon="10.41680596768856">
        <ele>118.86</ele>
        <time>2017-06-21T15:00:41Z</time>
      </trkpt>
      <trkpt lat="64.201020961627364" lon="10.418227035552263">
        <ele>131.36000000000001</ele>
        <time>2017-06-21T15:00:47Z</time>
      </trkpt>
      <trkpt lat="64.201162029057741" lon="10.418362990021706">
        <ele>132.80000000000001</ele>
        <time>2017-06-21T15:00:48Z</time>
      </trkpt>
      <trkpt lat="64.201306030154228" lon="10.418445970863104">
        <ele>134.24000000000001</ele>
        <time>2017-06-21T15:00:49Z</time>
      </trkpt>
      <trkpt lat="64.201454976573586" lon="10.418469021096826">
        <ele>136.63999999999999</ele>
        <time>2017-06-21T15:00:50Z</time>
      </trkpt>
      <trkpt lat="64.201604006811976" lon="10.418433984741569">
        <ele>138.56999999999999</ele>
        <time>2017-06-21T15:00:51Z</time>
      </trkpt>
      <trkpt lat="64.201753037050366" lon="10.41834999807179">
        <ele>140.49000000000001</ele>
        <time>2017-06-21T15:00:52Z</time>
      </trkpt>
      <trkpt lat="64.201907012611628" lon="10.41824396699667">
        <ele>142.41</ele>
        <time>2017-06-21T15:00:53Z</time>
      </trkpt>
      <trkpt lat="64.202372040599585" lon="10.417932998389006">
        <ele>146.74000000000001</ele>
        <time>2017-06-21T15:00:56Z</time>
      </trkpt>
      <trkpt lat="64.202520987018943" lon="10.417925035580993">
        <ele>148.18000000000001</ele>
        <time>2017-06-21T15:00:57Z</time>
      </trkpt>
      <trkpt lat="64.202670017257333" lon="10.417997036129236">
        <ele>150.09999999999999</ele>
        <time>2017-06-21T15:00:58Z</time>
      </trkpt>
      <trkpt lat="64.2028150241822" lon="10.418131984770298">
        <ele>152.03</ele>
        <time>2017-06-21T15:00:59Z</time>
      </trkpt>
      <trkpt lat="64.202958019450307" lon="10.418314039707184">
        <ele>154.43000000000001</ele>
        <time>2017-06-21T15:01:00Z</time>
      </trkpt>
      <trkpt lat="64.203100008890033" lon="10.418527023866773">
        <ele>156.34999999999999</ele>
        <time>2017-06-21T15:01:01Z</time>
      </trkpt>
      <trkpt lat="64.204413034021854" lon="10.420663990080357">
        <ele>173.66</ele>
        <time>2017-06-21T15:01:10Z</time>
      </trkpt>
      <trkpt lat="64.204564997926354" lon="10.420813020318747">
        <ele>174.62</ele>
        <time>2017-06-21T15:01:11Z</time>
      </trkpt>
      <trkpt lat="64.204725008457899" lon="10.420931037515402">
        <ele>176.06</ele>
        <time>2017-06-21T15:01:12Z</time>
      </trkpt>
      <trkpt lat="64.204889964312315" lon="10.421016030013561">
        <ele>178.46000000000001</ele>
        <time>2017-06-21T15:01:13Z</time>
      </trkpt>
      <trkpt lat="64.205066990107298" lon="10.421059029176831">
        <ele>179.90000000000001</ele>
        <time>2017-06-21T15:01:14Z</time>
      </trkpt>
      <trkpt lat="64.205246027559042" lon="10.421086018905044">
        <ele>181.83000000000001</ele>
        <time>2017-06-21T15:01:15Z</time>
      </trkpt>
      <trkpt lat="64.205423975363374" lon="10.421104039996862">
        <ele>183.75</ele>
        <time>2017-06-21T15:01:16Z</time>
      </trkpt>
      <trkpt lat="64.206299968063831" lon="10.421171011403203">
        <ele>192.40000000000001</ele>
        <time>2017-06-21T15:01:21Z</time>
      </trkpt>
      <trkpt lat="64.206470958888531" lon="10.421264972537756">
        <ele>193.84</ele>
        <time>2017-06-21T15:01:22Z</time>
      </trkpt>
      <trkpt lat="64.206643961369991" lon="10.421411991119385">
        <ele>195.77000000000001</ele>
        <time>2017-06-21T15:01:23Z</time>
      </trkpt>
      <trkpt lat="64.206812018528581" lon="10.421630004420877">
        <ele>198.16999999999999</ele>
        <time>2017-06-21T15:01:24Z</time>
      </trkpt>
      <trkpt lat="64.206964988261461" lon="10.421889005228877">
        <ele>199.61000000000001</ele>
        <time>2017-06-21T15:01:25Z</time>
      </trkpt>
      <trkpt lat="64.207117035984993" lon="10.422166027128696">
        <ele>202.00999999999999</ele>
        <time>2017-06-21T15:01:26Z</time>
      </trkpt>
      <trkpt lat="64.207446025684476" lon="10.422685034573078">
        <ele>207.30000000000001</ele>
        <time>2017-06-21T15:01:28Z</time>
      </trkpt>
      <trkpt lat="64.209482995793223" lon="10.424998020753264">
        <ele>230.37</ele>
        <time>2017-06-21T15:01:39Z</time>
      </trkpt>
      <trkpt lat="64.210663000121713" lon="10.425880970433354">
        <ele>238.53999999999999</ele>
        <time>2017-06-21T15:01:46Z</time>
      </trkpt>
      <trkpt lat="64.210811024531722" lon="10.42589102871716">
        <ele>239.02000000000001</ele>
        <time>2017-06-21T15:01:47Z</time>
      </trkpt>
      <trkpt lat="64.212099993601441" lon="10.425906032323837">
        <ele>239.99000000000001</ele>
        <time>2017-06-21T15:01:54Z</time>
      </trkpt>
      <trkpt lat="64.213569005951285" lon="10.425631022080779">
        <ele>239.99000000000001</ele>
        <time>2017-06-21T15:02:01Z</time>
      </trkpt>
      <trkpt lat="64.215355021879077" lon="10.424229986965656">
        <ele>240.94999999999999</ele>
        <time>2017-06-21T15:02:10Z</time>
      </trkpt>
      <trkpt lat="64.215733967721462" lon="10.423921030014753">
        <ele>242.87</ele>
        <time>2017-06-21T15:02:12Z</time>
      </trkpt>
      <trkpt lat="64.216312989592552" lon="10.42363503947854">
        <ele>244.78999999999999</ele>
        <time>2017-06-21T15:02:15Z</time>
      </trkpt>
      <trkpt lat="64.216473000124097" lon="10.423451978713274">
        <ele>245.75</ele>
        <time>2017-06-21T15:02:16Z</time>
      </trkpt>
      <trkpt lat="64.216612977907062" lon="10.423205969855189">
        <ele>246.22999999999999</ele>
        <time>2017-06-21T15:02:17Z</time>
      </trkpt>
      <trkpt lat="64.21673996374011" lon="10.422910004854202">
        <ele>246.72</ele>
        <time>2017-06-21T15:02:18Z</time>
      </trkpt>
      <trkpt lat="64.216857980936766" lon="10.422563999891281">
        <ele>246.72</ele>
        <time>2017-06-21T15:02:19Z</time>
      </trkpt>
      <trkpt lat="64.217507997527719" lon="10.420905975624919">
        <ele>245.75</ele>
        <time>2017-06-21T15:02:24Z</time>
      </trkpt>
      <trkpt lat="64.218763019889593" lon="10.418429039418697">
        <ele>239.50999999999999</ele>
        <time>2017-06-21T15:02:32Z</time>
      </trkpt>
      <trkpt lat="64.221310028806329" lon="10.413319012150168">
        <ele>219.31999999999999</ele>
        <time>2017-06-21T15:02:46Z</time>
      </trkpt>
      <trkpt lat="64.222781974822283" lon="10.410204967483878">
        <ele>201.05000000000001</ele>
        <time>2017-06-21T15:02:55Z</time>
      </trkpt>
      <trkpt lat="64.223953010514379" lon="10.406839968636632">
        <ele>190.96000000000001</ele>
        <time>2017-06-21T15:03:05Z</time>
      </trkpt>
      <trkpt lat="64.224014030769467" lon="10.406507039442658">
        <ele>190.47999999999999</ele>
        <time>2017-06-21T15:03:06Z</time>
      </trkpt>
      <trkpt lat="64.224058035761118" lon="10.406149970367551">
        <ele>189.52000000000001</ele>
        <time>2017-06-21T15:03:07Z</time>
      </trkpt>
      <trkpt lat="64.22408401966095" lon="10.405776975676417">
        <ele>189.52000000000001</ele>
        <time>2017-06-21T15:03:08Z</time>
      </trkpt>
      <trkpt lat="64.224079996347427" lon="10.40537104010582">
        <ele>186.63</ele>
        <time>2017-06-21T15:03:09Z</time>
      </trkpt>
      <trkpt lat="64.22406398691237" lon="10.404952028766274">
        <ele>185.19</ele>
        <time>2017-06-21T15:03:10Z</time>
      </trkpt>
      <trkpt lat="64.224043032154441" lon="10.404523964971304">
        <ele>183.27000000000001</ele>
        <time>2017-06-21T15:03:11Z</time>
      </trkpt>
      <trkpt lat="64.223989974707365" lon="10.402519013732672">
        <ele>177.97999999999999</ele>
        <time>2017-06-21T15:03:16Z</time>
      </trkpt>
      <trkpt lat="64.224015958607197" lon="10.402170997112989">
        <ele>177.02000000000001</ele>
        <time>2017-06-21T15:03:17Z</time>
      </trkpt>
      <trkpt lat="64.224070021882653" lon="10.401848964393139">
        <ele>176.06</ele>
        <time>2017-06-21T15:03:18Z</time>
      </trkpt>
      <trkpt lat="64.224155014380813" lon="10.401555011048913">
        <ele>175.09999999999999</ele>
        <time>2017-06-21T15:03:19Z</time>
      </trkpt>
      <trkpt lat="64.224263979122043" lon="10.401314031332731">
        <ele>174.13999999999999</ele>
        <time>2017-06-21T15:03:20Z</time>
      </trkpt>
      <trkpt lat="64.224391970783472" lon="10.401142034679651">
        <ele>173.16999999999999</ele>
        <time>2017-06-21T15:03:21Z</time>
      </trkpt>
      <trkpt lat="64.224539995193481" lon="10.401028962805867">
        <ele>171.72999999999999</ele>
        <time>2017-06-21T15:03:22Z</time>
      </trkpt>
      <trkpt lat="64.224700005725026" lon="10.40103298611939">
        <ele>170.77000000000001</ele>
        <time>2017-06-21T15:03:23Z</time>
      </trkpt>
      <trkpt lat="64.224869990721345" lon="10.401084031909704">
        <ele>169.81</ele>
        <time>2017-06-21T15:03:24Z</time>
      </trkpt>
      <trkpt lat="64.225041987374425" lon="10.401144968345761">
        <ele>168.37</ele>
        <time>2017-06-21T15:03:25Z</time>
      </trkpt>
      <trkpt lat="64.225209038704634" lon="10.401169024407864">
        <ele>167.41</ele>
        <time>2017-06-21T15:03:26Z</time>
      </trkpt>
      <trkpt lat="64.225371982902288" lon="10.401159971952438">
        <ele>165.96000000000001</ele>
        <time>2017-06-21T15:03:27Z</time>
      </trkpt>
      <trkpt lat="64.225535010918975" lon="10.401102975010872">
        <ele>165</ele>
        <time>2017-06-21T15:03:28Z</time>
      </trkpt>
      <trkpt lat="64.225699966773391" lon="10.40098998695612">
        <ele>164.03999999999999</ele>
        <time>2017-06-21T15:03:29Z</time>
      </trkpt>
      <trkpt lat="64.225859977304935" lon="10.400851015001535">
        <ele>162.59999999999999</ele>
        <time>2017-06-21T15:03:30Z</time>
      </trkpt>
      <trkpt lat="64.226178992539644" lon="10.400653034448624">
        <ele>159.72</ele>
        <time>2017-06-21T15:03:32Z</time>
      </trkpt>
      <trkpt lat="64.226334979757667" lon="10.40062302723527">
        <ele>158.27000000000001</ele>
        <time>2017-06-21T15:03:33Z</time>
      </trkpt>
      <trkpt lat="64.226477975025773" lon="10.400641970336437">
        <ele>156.83000000000001</ele>
        <time>2017-06-21T15:03:34Z</time>
      </trkpt>
      <trkpt lat="64.226627005264163" lon="10.400707013905048">
        <ele>154.91</ele>
        <time>2017-06-21T15:03:35Z</time>
      </trkpt>
      <trkpt lat="64.226757008582354" lon="10.400854032486677">
        <ele>153.94999999999999</ele>
        <time>2017-06-21T15:03:36Z</time>
      </trkpt>
      <trkpt lat="64.226882988587022" lon="10.401039021089673">
        <ele>151.53999999999999</ele>
        <time>2017-06-21T15:03:37Z</time>
      </trkpt>
      <trkpt lat="64.227160010486841" lon="10.401412015780807">
        <ele>149.13999999999999</ele>
        <time>2017-06-21T15:03:39Z</time>
      </trkpt>
      <trkpt lat="64.227309040725231" lon="10.401532966643572">
        <ele>147.22</ele>
        <time>2017-06-21T15:03:40Z</time>
      </trkpt>
      <trkpt lat="64.227467961609364" lon="10.401606978848577">
        <ele>145.30000000000001</ele>
        <time>2017-06-21T15:03:41Z</time>
      </trkpt>
      <trkpt lat="64.227998033165932" lon="10.401686020195484">
        <ele>141.93000000000001</ele>
        <time>2017-06-21T15:03:44Z</time>
      </trkpt>
      <trkpt lat="64.22934902831912" lon="10.401382008567452">
        <ele>136.16</ele>
        <time>2017-06-21T15:03:51Z</time>
      </trkpt>
      <trkpt lat="64.22954399138689" lon="10.401444034650922">
        <ele>135.68000000000001</ele>
        <time>2017-06-21T15:03:52Z</time>
      </trkpt>
      <trkpt lat="64.229743983596563" lon="10.401540007442236">
        <ele>135.19999999999999</ele>
        <time>2017-06-21T15:03:53Z</time>
      </trkpt>
      <trkpt lat="64.231323972344398" lon="10.402359003201127">
        <ele>130.40000000000001</ele>
        <time>2017-06-21T15:04:01Z</time>
      </trkpt>
      <trkpt lat="64.231987986713648" lon="10.402956968173385">
        <ele>125.11</ele>
        <time>2017-06-21T15:04:05Z</time>
      </trkpt>
      <trkpt lat="64.232168029993773" lon="10.403060987591743">
        <ele>124.15000000000001</ele>
        <time>2017-06-21T15:04:06Z</time>
      </trkpt>
      <trkpt lat="64.232354024425149" lon="10.403085965663195">
        <ele>124.15000000000001</ele>
        <time>2017-06-21T15:04:07Z</time>
      </trkpt>
      <trkpt lat="64.23416200093925" lon="10.402652034536004">
        <ele>121.73999999999999</ele>
        <time>2017-06-21T15:04:16Z</time>
      </trkpt>
      <trkpt lat="64.235591031610966" lon="10.402375012636185">
        <ele>122.22</ele>
        <time>2017-06-21T15:04:23Z</time>
      </trkpt>
      <trkpt lat="64.235781971365213" lon="10.402378030121326">
        <ele>122.22</ele>
        <time>2017-06-21T15:04:24Z</time>
      </trkpt>
      <trkpt lat="64.235971989110112" lon="10.402322961017489">
        <ele>122.70999999999999</ele>
        <time>2017-06-21T15:04:25Z</time>
      </trkpt>
      <trkpt lat="64.236153960227966" lon="10.402217013761401">
        <ele>122.70999999999999</ele>
        <time>2017-06-21T15:04:26Z</time>
      </trkpt>
      <trkpt lat="64.236335009336472" lon="10.402083992958069">
        <ele>122.22</ele>
        <time>2017-06-21T15:04:27Z</time>
      </trkpt>
      <trkpt lat="64.236514968797565" lon="10.401919959113002">
        <ele>122.22</ele>
        <time>2017-06-21T15:04:28Z</time>
      </trkpt>
      <trkpt lat="64.236688977107406" lon="10.401726001873612">
        <ele>122.22</ele>
        <time>2017-06-21T15:04:29Z</time>
      </trkpt>
      <trkpt lat="64.237048979848623" lon="10.401362981647253">
        <ele>122.22</ele>
        <time>2017-06-21T15:04:31Z</time>
      </trkpt>
      <trkpt lat="64.237242015078664" lon="10.401235995814204">
        <ele>122.70999999999999</ele>
        <time>2017-06-21T15:04:32Z</time>
      </trkpt>
      <trkpt lat="64.237443013116717" lon="10.401175981387496">
        <ele>122.70999999999999</ele>
        <time>2017-06-21T15:04:33Z</time>
      </trkpt>
      <trkpt lat="64.237646022811532" lon="10.401158966124058">
        <ele>122.22</ele>
        <time>2017-06-21T15:04:34Z</time>
      </trkpt>
      <trkpt lat="64.237846015021205" lon="10.401197019964457">
        <ele>121.73999999999999</ele>
        <time>2017-06-21T15:04:35Z</time>
      </trkpt>
      <trkpt lat="64.23805195838213" lon="10.401271032169461">
        <ele>121.73999999999999</ele>
        <time>2017-06-21T15:04:36Z</time>
      </trkpt>
      <trkpt lat="64.238249016925693" lon="10.401387037709355">
        <ele>121.26000000000001</ele>
        <time>2017-06-21T15:04:37Z</time>
      </trkpt>
      <trkpt lat="64.238425958901644" lon="10.401532966643572">
        <ele>120.3</ele>
        <time>2017-06-21T15:04:38Z</time>
      </trkpt>
      <trkpt lat="64.238600973039865" lon="10.401672022417188">
        <ele>120.3</ele>
        <time>2017-06-21T15:04:39Z</time>
      </trkpt>
      <trkpt lat="64.239530023187399" lon="10.402057003229856">
        <ele>118.86</ele>
        <time>2017-06-21T15:04:45Z</time>
      </trkpt>
      <trkpt lat="64.240471981465816" lon="10.402096984907985">
        <ele>115.5</ele>
        <time>2017-06-21T15:04:52Z</time>
      </trkpt>
      <trkpt lat="64.241502033546567" lon="10.401413021609187">
        <ele>115.5</ele>
        <time>2017-06-21T15:05:01Z</time>
      </trkpt>
      <trkpt lat="64.24174603074789" lon="10.401307996362448">
        <ele>115.5</ele>
        <time>2017-06-21T15:05:03Z</time>
      </trkpt>
      <trkpt lat="64.241880979388952" lon="10.401289975270629">
        <ele>115.98</ele>
        <time>2017-06-21T15:05:04Z</time>
      </trkpt>
      <trkpt lat="64.24202598631382" lon="10.401304978877306">
        <ele>116.45999999999999</ele>
        <time>2017-06-21T15:05:05Z</time>
      </trkpt>
      <trkpt lat="64.24217602238059" lon="10.401352001354098">
        <ele>117.42</ele>
        <time>2017-06-21T15:05:06Z</time>
      </trkpt>
      <trkpt lat="64.242331003770232" lon="10.401431964710355">
        <ele>118.38</ele>
        <time>2017-06-21T15:05:07Z</time>
      </trkpt>
      <trkpt lat="64.242481039837003" lon="10.401544030755758">
        <ele>119.81999999999999</ele>
        <time>2017-06-21T15:05:08Z</time>
      </trkpt>
      <trkpt lat="64.242626968771219" lon="10.401691971346736">
        <ele>121.26000000000001</ele>
        <time>2017-06-21T15:05:09Z</time>
      </trkpt>
      <trkpt lat="64.242766024544835" lon="10.401856005191803">
        <ele>122.22</ele>
        <time>2017-06-21T15:05:10Z</time>
      </trkpt>
      <trkpt lat="64.24331302754581" lon="10.402399990707636">
        <ele>120.78</ele>
        <time>2017-06-21T15:05:14Z</time>
      </trkpt>
      <trkpt lat="64.243472032248974" lon="10.402476014569402">
        <ele>120.3</ele>
        <time>2017-06-21T15:05:15Z</time>
      </trkpt>
      <trkpt lat="64.243638999760151" lon="10.402526976540685">
        <ele>119.34</ele>
        <time>2017-06-21T15:05:16Z</time>
      </trkpt>
      <trkpt lat="64.245323007926345" lon="10.403041960671544">
        <ele>121.73999999999999</ele>
        <time>2017-06-21T15:05:25Z</time>
      </trkpt>
      <trkpt lat="64.247067030519247" lon="10.403779987245798">
        <ele>121.26000000000001</ele>
        <time>2017-06-21T15:05:34Z</time>
      </trkpt>
      <trkpt lat="64.250243017449975" lon="10.404065977782011">
        <ele>113.56999999999999</ele>
        <time>2017-06-21T15:05:49Z</time>
      </trkpt>
      <trkpt lat="64.251013984903693" lon="10.404576016589999">
        <ele>110.20999999999999</ele>
        <time>2017-06-21T15:05:53Z</time>
      </trkpt>
      <trkpt lat="64.251193022355437" lon="10.404805010184646">
        <ele>109.25</ele>
        <time>2017-06-21T15:05:54Z</time>
      </trkpt>
      <trkpt lat="64.251368958503008" lon="10.405064010992646">
        <ele>108.77</ele>
        <time>2017-06-21T15:05:55Z</time>
      </trkpt>
      <trkpt lat="64.251537015661597" lon="10.405361987650394">
        <ele>108.29000000000001</ele>
        <time>2017-06-21T15:05:56Z</time>
      </trkpt>
      <trkpt lat="64.251689985394478" lon="10.405692989006639">
        <ele>106.84</ele>
        <time>2017-06-21T15:05:57Z</time>
      </trkpt>
      <trkpt lat="64.251841027289629" lon="10.406056009232998">
        <ele>105.40000000000001</ele>
        <time>2017-06-21T15:05:58Z</time>
      </trkpt>
      <trkpt lat="64.251983016729355" lon="10.406451970338821">
        <ele>103.48</ele>
        <time>2017-06-21T15:05:59Z</time>
      </trkpt>
      <trkpt lat="64.25210296176374" lon="10.406871987506747">
        <ele>101.08</ele>
        <time>2017-06-21T15:06:00Z</time>
      </trkpt>
      <trkpt lat="64.252206981182098" lon="10.407298961654305">
        <ele>98.670000000000002</ele>
        <time>2017-06-21T15:06:01Z</time>
      </trkpt>
      <trkpt lat="64.252303959801793" lon="10.407721996307373">
        <ele>96.75</ele>
        <time>2017-06-21T15:06:02Z</time>
      </trkpt>
      <trkpt lat="64.252626998350024" lon="10.409302990883589">
        <ele>89.540000000000006</ele>
        <time>2017-06-21T15:06:07Z</time>
      </trkpt>
      <trkpt lat="64.252764964476228" lon="10.409892993047833">
        <ele>86.659999999999997</ele>
        <time>2017-06-21T15:06:12Z</time>
      </trkpt>
      <trkpt lat="64.252878036350012" lon="10.410519959405065">
        <ele>83.290000000000006</ele>
        <time>2017-06-21T15:06:23Z</time>
      </trkpt>
      <trkpt lat="64.252898991107941" lon="10.410674018785357">
        <ele>82.329999999999998</ele>
        <time>2017-06-21T15:06:31Z</time>
      </trkpt>
      <trkpt lat="64.252912988886237" lon="10.410592965781689">
        <ele>82.810000000000002</ele>
        <time>2017-06-21T15:11:11Z</time>
      </trkpt>
      <trkpt lat="64.252915000542998" lon="10.410603024065495">
        <ele>84.730000000000004</ele>
        <time>2017-06-21T15:13:17Z</time>
      </trkpt>
      <trkpt lat="64.252912988886237" lon="10.410607969388366">
        <ele>84.730000000000004</ele>
        <time>2017-06-21T15:14:18Z</time>
      </trkpt>
      <trkpt lat="64.252910977229476" lon="10.410612998530269">
        <ele>84.730000000000004</ele>
        <time>2017-06-21T15:15:11Z</time>
      </trkpt>
      <trkpt lat="64.252936961129308" lon="10.410815002396703">
        <ele>83.769999999999996</ele>
        <time>2017-06-21T15:15:14Z</time>
      </trkpt>
      <trkpt lat="64.252950036898255" lon="10.410971995443106">
        <ele>82.810000000000002</ele>
        <time>2017-06-21T15:15:15Z</time>
      </trkpt>
      <trkpt lat="64.252964034676552" lon="10.411129994317889">
        <ele>82.329999999999998</ele>
        <time>2017-06-21T15:15:16Z</time>
      </trkpt>
      <trkpt lat="64.252996975556016" lon="10.411552023142576">
        <ele>80.890000000000001</ele>
        <time>2017-06-21T15:15:20Z</time>
      </trkpt>
      <trkpt lat="64.253021031618118" lon="10.412671007215977">
        <ele>76.079999999999998</ele>
        <time>2017-06-21T15:15:25Z</time>
      </trkpt>
      <trkpt lat="64.253013990819454" lon="10.415673991665244">
        <ele>63.579999999999998</ele>
        <time>2017-06-21T15:15:33Z</time>
      </trkpt>
      <trkpt lat="64.252750966697931" lon="10.419335039332509">
        <ele>49.159999999999997</ele>
        <time>2017-06-21T15:15:41Z</time>
      </trkpt>
      <trkpt lat="64.252599002793431" lon="10.422890977934003">
        <ele>35.710000000000001</ele>
        <time>2017-06-21T15:15:49Z</time>
      </trkpt>
      <trkpt lat="64.252856997773051" lon="10.424900958314538">
        <ele>26.57</ele>
        <time>2017-06-21T15:15:54Z</time>
      </trkpt>
      <trkpt lat="64.252946013584733" lon="10.425194995477796">
        <ele>25.129999999999999</ele>
        <time>2017-06-21T15:15:55Z</time>
      </trkpt>
      <trkpt lat="64.253052966669202" lon="10.425448967143893">
        <ele>23.690000000000001</ele>
        <time>2017-06-21T15:15:56Z</time>
      </trkpt>
      <trkpt lat="64.253182969987392" lon="10.425649965181947">
        <ele>22.25</ele>
        <time>2017-06-21T15:15:57Z</time>
      </trkpt>
      <trkpt lat="64.253334011882544" lon="10.425803018733859">
        <ele>20.809999999999999</ele>
        <time>2017-06-21T15:15:58Z</time>
      </trkpt>
      <trkpt lat="64.253496034070849" lon="10.425931010395288">
        <ele>19.359999999999999</ele>
        <time>2017-06-21T15:15:59Z</time>
      </trkpt>
      <trkpt lat="64.253673981875181" lon="10.426046010106802">
        <ele>18.399999999999999</ele>
        <time>2017-06-21T15:16:00Z</time>
      </trkpt>
      <trkpt lat="64.255663007497787" lon="10.427238000556827">
        <ele>10.23</ele>
        <time>2017-06-21T15:16:10Z</time>
      </trkpt>
      <trkpt lat="64.255873980000615" lon="10.427280999720097">
        <ele>10.710000000000001</ele>
        <time>2017-06-21T15:16:11Z</time>
      </trkpt>
      <trkpt lat="64.256083024665713" lon="10.427271025255322">
        <ele>11.67</ele>
        <time>2017-06-21T15:16:12Z</time>
      </trkpt>
      <trkpt lat="64.256290979683399" lon="10.42720397002995">
        <ele>12.630000000000001</ele>
        <time>2017-06-21T15:16:13Z</time>
      </trkpt>
      <trkpt lat="64.256502036005259" lon="10.42707497254014">
        <ele>15.039999999999999</ele>
        <time>2017-06-21T15:16:14Z</time>
      </trkpt>
      <trkpt lat="64.256701022386551" lon="10.426919991150498">
        <ele>15.52</ele>
        <time>2017-06-21T15:16:15Z</time>
      </trkpt>
      <trkpt lat="64.25689397379756" lon="10.426710024476051">
        <ele>16</ele>
        <time>2017-06-21T15:16:16Z</time>
      </trkpt>
      <trkpt lat="64.257082985714078" lon="10.426454041153193">
        <ele>16.960000000000001</ele>
        <time>2017-06-21T15:16:17Z</time>
      </trkpt>
      <trkpt lat="64.257265040650964" lon="10.426176013424993">
        <ele>16.960000000000001</ele>
        <time>2017-06-21T15:16:18Z</time>
      </trkpt>
      <trkpt lat="64.25944902934134" lon="10.423131035640836">
        <ele>20.809999999999999</ele>
        <time>2017-06-21T15:16:29Z</time>
      </trkpt>
      <trkpt lat="64.260447984561324" lon="10.421402016654611">
        <ele>20.32</ele>
        <time>2017-06-21T15:16:35Z</time>
      </trkpt>
      <trkpt lat="64.260612018406391" lon="10.421236976981163">
        <ele>20.32</ele>
        <time>2017-06-21T15:16:36Z</time>
      </trkpt>
      <trkpt lat="64.260789966210723" lon="10.421176962554455">
        <ele>19.84</ele>
        <time>2017-06-21T15:16:37Z</time>
      </trkpt>
      <trkpt lat="64.260964980348945" lon="10.421200012788177">
        <ele>19.84</ele>
        <time>2017-06-21T15:16:38Z</time>
      </trkpt>
      <trkpt lat="64.261141000315547" lon="10.421316018328071">
        <ele>19.359999999999999</ele>
        <time>2017-06-21T15:16:39Z</time>
      </trkpt>
      <trkpt lat="64.261306961998343" lon="10.421504024416208">
        <ele>18.879999999999999</ele>
        <time>2017-06-21T15:16:40Z</time>
      </trkpt>
      <trkpt lat="64.261466972529888" lon="10.421768976375461">
        <ele>17.920000000000002</ele>
        <time>2017-06-21T15:16:41Z</time>
      </trkpt>
      <trkpt lat="64.261625977233052" lon="10.422094026580453">
        <ele>17.440000000000001</ele>
        <time>2017-06-21T15:16:42Z</time>
      </trkpt>
      <trkpt lat="64.261935018002987" lon="10.422631977126002">
        <ele>15.52</ele>
        <time>2017-06-21T15:16:44Z</time>
      </trkpt>
      <trkpt lat="64.262107014656067" lon="10.422834986820817">
        <ele>14.56</ele>
        <time>2017-06-21T15:16:45Z</time>
      </trkpt>
      <trkpt lat="64.262282028794289" lon="10.422962978482246">
        <ele>14.56</ele>
        <time>2017-06-21T15:16:46Z</time>
      </trkpt>
      <trkpt lat="64.262470034882426" lon="10.423044031485915">
        <ele>13.6</ele>
        <time>2017-06-21T15:16:47Z</time>
      </trkpt>
      <trkpt lat="64.26267497241497" lon="10.423089964315295">
        <ele>13.6</ele>
        <time>2017-06-21T15:16:48Z</time>
      </trkpt>
      <trkpt lat="64.263463960960507" lon="10.423105973750353">
        <ele>10.23</ele>
        <time>2017-06-21T15:16:52Z</time>
      </trkpt>
      <trkpt lat="64.26364098675549" lon="10.422984017059207">
        <ele>10.23</ele>
        <time>2017-06-21T15:16:53Z</time>
      </trkpt>
      <trkpt lat="64.263804014772177" lon="10.422773966565728">
        <ele>9.75</ele>
        <time>2017-06-21T15:16:54Z</time>
      </trkpt>
      <trkpt lat="64.263951033353806" lon="10.422489987686276">
        <ele>9.75</ele>
        <time>2017-06-21T15:16:55Z</time>
      </trkpt>
      <trkpt lat="64.264076007530093" lon="10.422147000208497">
        <ele>10.23</ele>
        <time>2017-06-21T15:16:56Z</time>
      </trkpt>
      <trkpt lat="64.264182960614562" lon="10.42176503688097">
        <ele>10.23</ele>
        <time>2017-06-21T15:16:57Z</time>
      </trkpt>
      <trkpt lat="64.264277005568147" lon="10.421340996399522">
        <ele>10.23</ele>
        <time>2017-06-21T15:16:58Z</time>
      </trkpt>
      <trkpt lat="64.2644970305264" lon="10.420087985694408">
        <ele>9.75</ele>
        <time>2017-06-21T15:17:01Z</time>
      </trkpt>
      <trkpt lat="64.26451999694109" lon="10.419693030416965">
        <ele>10.23</ele>
        <time>2017-06-21T15:17:02Z</time>
      </trkpt>
      <trkpt lat="64.26451999694109" lon="10.419288016855717">
        <ele>10.23</ele>
        <time>2017-06-21T15:17:03Z</time>
      </trkpt>
      <trkpt lat="64.264502981677651" lon="10.418875962495804">
        <ele>10.710000000000001</ele>
        <time>2017-06-21T15:17:04Z</time>
      </trkpt>
      <trkpt lat="64.264474986121058" lon="10.418473966419697">
        <ele>10.710000000000001</ele>
        <time>2017-06-21T15:17:05Z</time>
      </trkpt>
      <trkpt lat="64.26443500444293" lon="10.417659999802709">
        <ele>11.67</ele>
        <time>2017-06-21T15:17:07Z</time>
      </trkpt>
      <trkpt lat="64.264438021928072" lon="10.417238976806402">
        <ele>12.15</ele>
        <time>2017-06-21T15:17:08Z</time>
      </trkpt>
      <trkpt lat="64.264510022476315" lon="10.415954031050205">
        <ele>11.19</ele>
        <time>2017-06-21T15:17:11Z</time>
      </trkpt>
      <trkpt lat="64.26456299610436" lon="10.415580030530691">
        <ele>10.710000000000001</ele>
        <time>2017-06-21T15:17:12Z</time>
      </trkpt>
      <trkpt lat="64.264647988602519" lon="10.415251962840557">
        <ele>10.23</ele>
        <time>2017-06-21T15:17:13Z</time>
      </trkpt>
      <trkpt lat="64.264764999970794" lon="10.414951974526048">
        <ele>9.75</ele>
        <time>2017-06-21T15:17:14Z</time>
      </trkpt>
      <trkpt lat="64.264891985803843" lon="10.41467503644526">
        <ele>9.27</ele>
        <time>2017-06-21T15:17:15Z</time>
      </trkpt>
      <trkpt lat="64.265151992440224" lon="10.414126021787524">
        <ele>7.83</ele>
        <time>2017-06-21T15:17:17Z</time>
      </trkpt>
      <trkpt lat="64.265259029343724" lon="10.413818992674351">
        <ele>7.35</ele>
        <time>2017-06-21T15:17:18Z</time>
      </trkpt>
      <trkpt lat="64.265334969386458" lon="10.413477011024952">
        <ele>7.35</ele>
        <time>2017-06-21T15:17:19Z</time>
      </trkpt>
      <trkpt lat="64.265371011570096" lon="10.41310602799058">
        <ele>7.83</ele>
        <time>2017-06-21T15:17:20Z</time>
      </trkpt>
      <trkpt lat="64.26538098603487" lon="10.412733033299446">
        <ele>8.789999999999999</ele>
        <time>2017-06-21T15:17:21Z</time>
      </trkpt>
      <trkpt lat="64.265376962721348" lon="10.412348974496126">
        <ele>9.27</ele>
        <time>2017-06-21T15:17:22Z</time>
      </trkpt>
      <trkpt lat="64.265391966328025" lon="10.411592004820704">
        <ele>11.19</ele>
        <time>2017-06-21T15:17:24Z</time>
      </trkpt>
      <trkpt lat="64.26542297936976" lon="10.411220015957952">
        <ele>11.67</ele>
        <time>2017-06-21T15:17:25Z</time>
      </trkpt>
      <trkpt lat="64.265479976311326" lon="10.41087300516665">
        <ele>12.15</ele>
        <time>2017-06-21T15:17:26Z</time>
      </trkpt>
      <trkpt lat="64.265563962981105" lon="10.410562958568335">
        <ele>13.119999999999999</ele>
        <time>2017-06-21T15:17:27Z</time>
      </trkpt>
      <trkpt lat="64.265672005712986" lon="10.410300018265843">
        <ele>14.08</ele>
        <time>2017-06-21T15:17:28Z</time>
      </trkpt>
      <trkpt lat="64.265794968232512" lon="10.410080999135971">
        <ele>14.08</ele>
        <time>2017-06-21T15:17:29Z</time>
      </trkpt>
      <trkpt lat="64.265924971550703" lon="10.409895004704595">
        <ele>14.56</ele>
        <time>2017-06-21T15:17:30Z</time>
      </trkpt>
      <trkpt lat="64.266063021495938" lon="10.409727031365037">
        <ele>15.039999999999999</ele>
        <time>2017-06-21T15:17:31Z</time>
      </trkpt>
      <trkpt lat="64.267095001414418" lon="10.408702008426189">
        <ele>15.039999999999999</ele>
        <time>2017-06-21T15:17:37Z</time>
      </trkpt>
      <trkpt lat="64.268459994345903" lon="10.407963981851935">
        <ele>15.039999999999999</ele>
        <time>2017-06-21T15:17:44Z</time>
      </trkpt>
      <trkpt lat="64.269403964281082" lon="10.407701041549444">
        <ele>18.879999999999999</ele>
        <time>2017-06-21T15:17:49Z</time>
      </trkpt>
      <trkpt lat="64.26958903670311" lon="10.407758038491011">
        <ele>19.84</ele>
        <time>2017-06-21T15:17:50Z</time>
      </trkpt>
      <trkpt lat="64.26976497285068" lon="10.407869014889002">
        <ele>20.809999999999999</ele>
        <time>2017-06-21T15:17:51Z</time>
      </trkpt>
      <trkpt lat="64.269930012524128" lon="10.408032964915037">
        <ele>21.289999999999999</ele>
        <time>2017-06-21T15:17:52Z</time>
      </trkpt>
      <trkpt lat="64.27008599974215" lon="10.408261036500335">
        <ele>21.77</ele>
        <time>2017-06-21T15:17:53Z</time>
      </trkpt>
      <trkpt lat="64.270221032202244" lon="10.408535040915012">
        <ele>21.77</ele>
        <time>2017-06-21T15:17:54Z</time>
      </trkpt>
      <trkpt lat="64.270350029692054" lon="10.408852966502309">
        <ele>21.77</ele>
        <time>2017-06-21T15:17:55Z</time>
      </trkpt>
      <trkpt lat="64.270460000261664" lon="10.409225039184093">
        <ele>21.289999999999999</ele>
        <time>2017-06-21T15:17:56Z</time>
      </trkpt>
      <trkpt lat="64.270561002194881" lon="10.409625023603439">
        <ele>20.809999999999999</ele>
        <time>2017-06-21T15:17:57Z</time>
      </trkpt>
      <trkpt lat="64.270655969157815" lon="10.410045040771365">
        <ele>19.84</ele>
        <time>2017-06-21T15:17:58Z</time>
      </trkpt>
      <trkpt lat="64.271689038723707" lon="10.413952013477683">
        <ele>7.35</ele>
        <time>2017-06-21T15:18:07Z</time>
      </trkpt>
      <trkpt lat="64.272392028942704" lon="10.415805000811815">
        <ele>8.789999999999999</ele>
        <time>2017-06-21T15:18:13Z</time>
      </trkpt>
      <trkpt lat="64.272507028654218" lon="10.416012033820152">
        <ele>9.27</ele>
        <time>2017-06-21T15:18:14Z</time>
      </trkpt>
      <trkpt lat="64.272629991173744" lon="10.416183024644852">
        <ele>10.23</ele>
        <time>2017-06-21T15:18:15Z</time>
      </trkpt>
      <trkpt lat="64.272756977006793" lon="10.416315961629152">
        <ele>10.23</ele>
        <time>2017-06-21T15:18:16Z</time>
      </trkpt>
      <trkpt lat="64.272887986153364" lon="10.41641604155302">
        <ele>10.710000000000001</ele>
        <time>2017-06-21T15:18:17Z</time>
      </trkpt>
      <trkpt lat="64.273026036098599" lon="10.416463986039162">
        <ele>10.710000000000001</ele>
        <time>2017-06-21T15:18:18Z</time>
      </trkpt>
      <trkpt lat="64.273166013881564" lon="10.416475972160697">
        <ele>11.19</ele>
        <time>2017-06-21T15:18:19Z</time>
      </trkpt>
      <trkpt lat="64.273305991664529" lon="10.41645904071629">
        <ele>11.19</ele>
        <time>2017-06-21T15:18:20Z</time>
      </trkpt>
      <trkpt lat="64.273448986932635" lon="10.416407994925976">
        <ele>11.19</ele>
        <time>2017-06-21T15:18:21Z</time>
      </trkpt>
      <trkpt lat="64.273591982200742" lon="10.416307998821139">
        <ele>11.67</ele>
        <time>2017-06-21T15:18:22Z</time>
      </trkpt>
      <trkpt lat="64.273735983297229" lon="10.416156034916639">
        <ele>11.67</ele>
        <time>2017-06-21T15:18:23Z</time>
      </trkpt>
      <trkpt lat="64.273880990222096" lon="10.415955036878586">
        <ele>11.67</ele>
        <time>2017-06-21T15:18:24Z</time>
      </trkpt>
      <trkpt lat="64.274024991318583" lon="10.415691006928682">
        <ele>11.19</ele>
        <time>2017-06-21T15:18:25Z</time>
      </trkpt>
      <trkpt lat="64.274175027385354" lon="10.415396969765425">
        <ele>10.710000000000001</ele>
        <time>2017-06-21T15:18:26Z</time>
      </trkpt>
      <trkpt lat="64.276193976402283" lon="10.411563003435731">
        <ele>12.630000000000001</ele>
        <time>2017-06-21T15:18:39Z</time>
      </trkpt>
      <trkpt lat="64.278319040313363" lon="10.40752099826932">
        <ele>11.67</ele>
        <time>2017-06-21T15:18:53Z</time>
      </trkpt>
      <trkpt lat="64.278804017230868" lon="10.406737038865685">
        <ele>12.630000000000001</ele>
        <time>2017-06-21T15:18:56Z</time>
      </trkpt>
      <trkpt lat="64.278982970863581" lon="10.406552972272038">
        <ele>12.15</ele>
        <time>2017-06-21T15:18:57Z</time>
      </trkpt>
      <trkpt lat="64.279168965294957" lon="10.406417017802596">
        <ele>11.67</ele>
        <time>2017-06-21T15:18:58Z</time>
      </trkpt>
      <trkpt lat="64.279358983039856" lon="10.406332025304437">
        <ele>11.19</ele>
        <time>2017-06-21T15:18:59Z</time>
      </trkpt>
      <trkpt lat="64.279554029926658" lon="10.406272010877728">
        <ele>10.23</ele>
        <time>2017-06-21T15:19:00Z</time>
      </trkpt>
      <trkpt lat="64.27975301630795" lon="10.406229011714458">
        <ele>8.310000000000001</ele>
        <time>2017-06-21T15:19:01Z</time>
      </trkpt>
      <trkpt lat="64.281701976433396" lon="10.406034970656037">
        <ele>7.35</ele>
        <time>2017-06-21T15:19:11Z</time>
      </trkpt>
      <trkpt lat="64.281882019713521" lon="10.406134966760874">
        <ele>8.310000000000001</ele>
        <time>2017-06-21T15:19:12Z</time>
      </trkpt>
      <trkpt lat="64.28205200470984" lon="10.406294977292418">
        <ele>8.310000000000001</ele>
        <time>2017-06-21T15:19:13Z</time>
      </trkpt>
      <trkpt lat="64.282216960564256" lon="10.406507039442658">
        <ele>7.83</ele>
        <time>2017-06-21T15:19:14Z</time>
      </trkpt>
      <trkpt lat="64.282382000237703" lon="10.406750030815601">
        <ele>7.35</ele>
        <time>2017-06-21T15:19:15Z</time>
      </trkpt>
      <trkpt lat="64.283611038699746" lon="10.408552978187799">
        <ele>4.94</ele>
        <time>2017-06-21T15:19:23Z</time>
      </trkpt>
      <trkpt lat="64.283740958198905" lon="10.408642999827862">
        <ele>4.46</ele>
        <time>2017-06-21T15:19:24Z</time>
      </trkpt>
      <trkpt lat="64.283862998709083" lon="10.408655991777778">
        <ele>4.46</ele>
        <time>2017-06-21T15:19:25Z</time>
      </trkpt>
      <trkpt lat="64.283977998420596" lon="10.408594971522689">
        <ele>3.98</ele>
        <time>2017-06-21T15:19:26Z</time>
      </trkpt>
      <trkpt lat="64.284083023667336" lon="10.408464968204498">
        <ele>3.5</ele>
        <time>2017-06-21T15:19:27Z</time>
      </trkpt>
      <trkpt lat="64.284173967316747" lon="10.408278973773122">
        <ele>3.02</ele>
        <time>2017-06-21T15:19:28Z</time>
      </trkpt>
      <trkpt lat="64.28424496203661" lon="10.408050986006856">
        <ele>3.02</ele>
        <time>2017-06-21T15:19:29Z</time>
      </trkpt>
      <trkpt lat="64.284291984513402" lon="10.407781004905701">
        <ele>2.54</ele>
        <time>2017-06-21T15:19:30Z</time>
      </trkpt>
      <trkpt lat="64.284316040575504" lon="10.407476993277669">
        <ele>2.54</ele>
        <time>2017-06-21T15:19:31Z</time>
      </trkpt>
      <trkpt lat="64.284326015040278" lon="10.407143980264664">
        <ele>2.54</ele>
        <time>2017-06-21T15:19:32Z</time>
      </trkpt>
      <trkpt lat="64.284344036132097" lon="10.406783977523446">
        <ele>2.54</ele>
        <time>2017-06-21T15:19:33Z</time>
      </trkpt>
      <trkpt lat="64.284382006153464" lon="10.406419029459357">
        <ele>3.02</ele>
        <time>2017-06-21T15:19:34Z</time>
      </trkpt>
      <trkpt lat="64.284432968124747" lon="10.406048968434334">
        <ele>3.02</ele>
        <time>2017-06-21T15:19:35Z</time>
      </trkpt>
      <trkpt lat="64.284494994208217" lon="10.40567496791482">
        <ele>3.02</ele>
        <time>2017-06-21T15:19:36Z</time>
      </trkpt>
      <trkpt lat="64.284575041383505" lon="10.405313959345222">
        <ele>3.02</ele>
        <time>2017-06-21T15:19:37Z</time>
      </trkpt>
      <trkpt lat="64.284667996689677" lon="10.404963009059429">
        <ele>3.02</ele>
        <time>2017-06-21T15:19:38Z</time>
      </trkpt>
      <trkpt lat="64.284773021936417" lon="10.404618009924889">
        <ele>3.02</ele>
        <time>2017-06-21T15:19:39Z</time>
      </trkpt>
      <trkpt lat="64.28512598387897" lon="10.403662975877523">
        <ele>3.5</ele>
        <time>2017-06-21T15:19:42Z</time>
      </trkpt>
      <trkpt lat="64.285262022167444" lon="10.403388971462846">
        <ele>3.98</ele>
        <time>2017-06-21T15:19:43Z</time>
      </trkpt>
      <trkpt lat="64.285824028775096" lon="10.402508033439517">
        <ele>8.789999999999999</ele>
        <time>2017-06-21T15:19:47Z</time>
      </trkpt>
      <trkpt lat="64.285945985466242" lon="10.402398984879255">
        <ele>10.23</ele>
        <time>2017-06-21T15:19:48Z</time>
      </trkpt>
      <trkpt lat="64.286060985177755" lon="10.402354979887605">
        <ele>11.19</ele>
        <time>2017-06-21T15:19:49Z</time>
      </trkpt>
      <trkpt lat="64.286171961575747" lon="10.402378030121326">
        <ele>12.15</ele>
        <time>2017-06-21T15:19:50Z</time>
      </trkpt>
      <trkpt lat="64.286274975165725" lon="10.402483977377415">
        <ele>13.119999999999999</ele>
        <time>2017-06-21T15:19:51Z</time>
      </trkpt>
      <trkpt lat="64.286373965442181" lon="10.402653040364385">
        <ele>14.08</ele>
        <time>2017-06-21T15:19:52Z</time>
      </trkpt>
      <trkpt lat="64.286465998739004" lon="10.402851020917296">
        <ele>15.039999999999999</ele>
        <time>2017-06-21T15:19:53Z</time>
      </trkpt>
      <trkpt lat="64.286555014550686" lon="10.40307498537004">
        <ele>15.039999999999999</ele>
        <time>2017-06-21T15:19:54Z</time>
      </trkpt>
      <trkpt lat="64.286641012877226" lon="10.403330968692899">
        <ele>15.52</ele>
        <time>2017-06-21T15:19:55Z</time>
      </trkpt>
      <trkpt lat="64.286719970405102" lon="10.403619976714253">
        <ele>16</ele>
        <time>2017-06-21T15:19:56Z</time>
      </trkpt>
      <trkpt lat="64.286792976781726" lon="10.40393304079771">
        <ele>16</ele>
        <time>2017-06-21T15:19:57Z</time>
      </trkpt>
      <trkpt lat="64.287557993084192" lon="10.407037027180195">
        <ele>17.920000000000002</ele>
        <time>2017-06-21T15:20:06Z</time>
      </trkpt>
      <trkpt lat="64.289058018475771" lon="10.411700969561934">
        <ele>30.899999999999999</ele>
        <time>2017-06-21T15:20:19Z</time>
      </trkpt>
      <trkpt lat="64.28937703371048" lon="10.414958009496331">
        <ele>34.259999999999998</ele>
        <time>2017-06-21T15:20:26Z</time>
      </trkpt>
      <trkpt lat="64.289125995710492" lon="10.418912004679441">
        <ele>27.050000000000001</ele>
        <time>2017-06-21T15:20:34Z</time>
      </trkpt>
      <trkpt lat="64.288533981889486" lon="10.425905026495457">
        <ele>30.420000000000002</ele>
        <time>2017-06-21T15:20:48Z</time>
      </trkpt>
      <trkpt lat="64.288461981341243" lon="10.428673988208175">
        <ele>32.82</ele>
        <time>2017-06-21T15:20:55Z</time>
      </trkpt>
      <trkpt lat="64.288416970521212" lon="10.431246981024742">
        <ele>37.149999999999999</ele>
        <time>2017-06-21T15:21:03Z</time>
      </trkpt>
      <trkpt lat="64.28860698826611" lon="10.434600999578834">
        <ele>32.340000000000003</ele>
        <time>2017-06-21T15:21:11Z</time>
      </trkpt>
      <trkpt lat="64.288913011550903" lon="10.438315020874143">
        <ele>14.08</ele>
        <time>2017-06-21T15:21:21Z</time>
      </trkpt>
      <trkpt lat="64.289290029555559" lon="10.442986004054546">
        <ele>1.58</ele>
        <time>2017-06-21T15:21:33Z</time>
      </trkpt>
      <trkpt lat="64.289824962615967" lon="10.44664696790278">
        <ele>-1.3</ele>
        <time>2017-06-21T15:21:42Z</time>
      </trkpt>
      <trkpt lat="64.290598025545478" lon="10.450146999210119">
        <ele>-2.27</ele>
        <time>2017-06-21T15:21:51Z</time>
      </trkpt>
      <trkpt lat="64.290709001943469" lon="10.450465008616447">
        <ele>-2.27</ele>
        <time>2017-06-21T15:21:52Z</time>
      </trkpt>
      <trkpt lat="64.290845962241292" lon="10.450719986110926">
        <ele>-1.79</ele>
        <time>2017-06-21T15:21:53Z</time>
      </trkpt>
      <trkpt lat="64.291000021621585" lon="10.450897011905909">
        <ele>-1.3</ele>
        <time>2017-06-21T15:21:54Z</time>
      </trkpt>
      <trkpt lat="64.29116397164762" lon="10.451002959161997">
        <ele>-0.34</ele>
        <time>2017-06-21T15:21:55Z</time>
      </trkpt>
      <trkpt lat="64.291336974129081" lon="10.451033972203732">
        <ele>0.14</ele>
        <time>2017-06-21T15:21:56Z</time>
      </trkpt>
      <trkpt lat="64.291506037116051" lon="10.450994996353984">
        <ele>1.1</ele>
        <time>2017-06-21T15:21:57Z</time>
      </trkpt>
      <trkpt lat="64.291664035990834" lon="10.450884019955993">
        <ele>2.06</ele>
        <time>2017-06-21T15:21:58Z</time>
      </trkpt>
      <trkpt lat="64.291814994066954" lon="10.450712023302913">
        <ele>3.02</ele>
        <time>2017-06-21T15:21:59Z</time>
      </trkpt>
      <trkpt lat="64.291954971849918" lon="10.450486969202757">
        <ele>3.5</ele>
        <time>2017-06-21T15:22:00Z</time>
      </trkpt>
      <trkpt lat="64.292080029845238" lon="10.450200978666544">
        <ele>4.46</ele>
        <time>2017-06-21T15:22:01Z</time>
      </trkpt>
      <trkpt lat="64.292185977101326" lon="10.449866037815809">
        <ele>5.91</ele>
        <time>2017-06-21T15:22:02Z</time>
      </trkpt>
      <trkpt lat="64.292273987084627" lon="10.449500000104308">
        <ele>6.39</ele>
        <time>2017-06-21T15:22:03Z</time>
      </trkpt>
      <trkpt lat="64.292351016774774" lon="10.449104961007833">
        <ele>7.35</ele>
        <time>2017-06-21T15:22:04Z</time>
      </trkpt>
      <trkpt lat="64.292849991470575" lon="10.44679700396955">
        <ele>11.19</ele>
        <time>2017-06-21T15:22:10Z</time>
      </trkpt>
      <trkpt lat="64.292960967868567" lon="10.446492992341518">
        <ele>12.15</ele>
        <time>2017-06-21T15:22:11Z</time>
      </trkpt>
      <trkpt lat="64.293085020035505" lon="10.446246983483434">
        <ele>12.630000000000001</ele>
        <time>2017-06-21T15:22:12Z</time>
      </trkpt>
      <trkpt lat="64.293218962848186" lon="10.446053026244044">
        <ele>13.119999999999999</ele>
        <time>2017-06-21T15:22:13Z</time>
      </trkpt>
      <trkpt lat="64.293366987258196" lon="10.445914976298809">
        <ele>13.6</ele>
        <time>2017-06-21T15:22:14Z</time>
      </trkpt>
      <trkpt lat="64.293518029153347" lon="10.445811962708831">
        <ele>14.08</ele>
        <time>2017-06-21T15:22:15Z</time>
      </trkpt>
      <trkpt lat="64.294938007369637" lon="10.445151971653104">
        <ele>15.52</ele>
        <time>2017-06-21T15:22:24Z</time>
      </trkpt>
      <trkpt lat="64.296074006706476" lon="10.445548016577959">
        <ele>16.48</ele>
        <time>2017-06-21T15:22:31Z</time>
      </trkpt>
      <trkpt lat="64.297471018508077" lon="10.447133034467697">
        <ele>15.52</ele>
        <time>2017-06-21T15:22:40Z</time>
      </trkpt>
      <trkpt lat="64.297746028751135" lon="10.447507034987211">
        <ele>15.039999999999999</ele>
        <time>2017-06-21T15:22:42Z</time>
      </trkpt>
      <trkpt lat="64.297862034291029" lon="10.447737034410238">
        <ele>15.039999999999999</ele>
        <time>2017-06-21T15:22:43Z</time>
      </trkpt>
      <trkpt lat="64.29794903844595" lon="10.448011960834265">
        <ele>15.039999999999999</ele>
        <time>2017-06-21T15:22:44Z</time>
      </trkpt>
      <trkpt lat="64.298003017902374" lon="10.448317984119058">
        <ele>14.56</ele>
        <time>2017-06-21T15:22:45Z</time>
      </trkpt>
      <trkpt lat="64.298030007630587" lon="10.448648985475302">
        <ele>14.56</ele>
        <time>2017-06-21T15:22:46Z</time>
      </trkpt>
      <trkpt lat="64.29803503677249" lon="10.449000019580126">
        <ele>14.56</ele>
        <time>2017-06-21T15:22:47Z</time>
      </trkpt>
      <trkpt lat="64.298021961003542" lon="10.449362033978105">
        <ele>14.56</ele>
        <time>2017-06-21T15:22:48Z</time>
      </trkpt>
      <trkpt lat="64.297990025952458" lon="10.449727987870574">
        <ele>14.56</ele>
        <time>2017-06-21T15:22:49Z</time>
      </trkpt>
      <trkpt lat="64.297943003475666" lon="10.450097965076566">
        <ele>14.56</ele>
        <time>2017-06-21T15:22:50Z</time>
      </trkpt>
      <trkpt lat="64.297598004341125" lon="10.452256975695491">
        <ele>14.08</ele>
        <time>2017-06-21T15:22:56Z</time>
      </trkpt>
      <trkpt lat="64.297559028491378" lon="10.452890982851386">
        <ele>14.08</ele>
        <time>2017-06-21T15:22:58Z</time>
      </trkpt>
      <trkpt lat="64.297575959935784" lon="10.453212009742856">
        <ele>14.56</ele>
        <time>2017-06-21T15:22:59Z</time>
      </trkpt>
      <trkpt lat="64.297621976584196" lon="10.453525995835662">
        <ele>14.56</ele>
        <time>2017-06-21T15:23:00Z</time>
      </trkpt>
      <trkpt lat="64.297699006274343" lon="10.453807041049004">
        <ele>15.039999999999999</ele>
        <time>2017-06-21T15:23:01Z</time>
      </trkpt>
      <trkpt lat="64.297797996550798" lon="10.454052966088057">
        <ele>14.56</ele>
        <time>2017-06-21T15:23:02Z</time>
      </trkpt>
      <trkpt lat="64.297918025404215" lon="10.454246001318097">
        <ele>14.56</ele>
        <time>2017-06-21T15:23:03Z</time>
      </trkpt>
      <trkpt lat="64.298054985702038" lon="10.454391008242965">
        <ele>14.08</ele>
        <time>2017-06-21T15:23:04Z</time>
      </trkpt>
      <trkpt lat="64.298204015940428" lon="10.454494021832943">
        <ele>14.08</ele>
        <time>2017-06-21T15:23:05Z</time>
      </trkpt>
      <trkpt lat="64.298377018421888" lon="10.454538026824594">
        <ele>15.52</ele>
        <time>2017-06-21T15:23:06Z</time>
      </trkpt>
      <trkpt lat="64.298553038388491" lon="10.454566022381186">
        <ele>16.960000000000001</ele>
        <time>2017-06-21T15:23:07Z</time>
      </trkpt>
      <trkpt lat="64.298727968707681" lon="10.454577002674341">
        <ele>17.920000000000002</ele>
        <time>2017-06-21T15:23:08Z</time>
      </trkpt>
      <trkpt lat="64.300664020702243" lon="10.455096010118723">
        <ele>16.960000000000001</ele>
        <time>2017-06-21T15:23:19Z</time>
      </trkpt>
      <trkpt lat="64.30188300088048" lon="10.456624031066895">
        <ele>8.310000000000001</ele>
        <time>2017-06-21T15:23:26Z</time>
      </trkpt>
      <trkpt lat="64.30399096570909" lon="10.459757018834352">
        <ele>0.14</ele>
        <time>2017-06-21T15:23:38Z</time>
      </trkpt>
      <trkpt lat="64.30499603971839" lon="10.462626982480288">
        <ele>-1.3</ele>
        <time>2017-06-21T15:23:46Z</time>
      </trkpt>
      <trkpt lat="64.30570799857378" lon="10.466292975470424">
        <ele>-2.75</ele>
        <time>2017-06-21T15:23:55Z</time>
      </trkpt>
      <trkpt lat="64.305896004661918" lon="10.468568997457623">
        <ele>-0.82</ele>
        <time>2017-06-21T15:24:02Z</time>
      </trkpt>
      <trkpt lat="64.305919976904988" lon="10.468979040160775">
        <ele>-0.82</ele>
        <time>2017-06-21T15:24:04Z</time>
      </trkpt>
      <trkpt lat="64.305906984955072" lon="10.469143996015191">
        <ele>-0.82</ele>
        <time>2017-06-21T15:24:05Z</time>
      </trkpt>
      <trkpt lat="64.305863985791802" lon="10.469304006546736">
        <ele>-0.82</ele>
        <time>2017-06-21T15:24:06Z</time>
      </trkpt>
      <trkpt lat="64.305786034092307" lon="10.469431998208165">
        <ele>-0.82</ele>
        <time>2017-06-21T15:24:07Z</time>
      </trkpt>
      <trkpt lat="64.30568503215909" lon="10.469542974606156">
        <ele>-0.82</ele>
        <time>2017-06-21T15:24:08Z</time>
      </trkpt>
      <trkpt lat="64.305567014962435" lon="10.469653028994799">
        <ele>-1.3</ele>
        <time>2017-06-21T15:24:09Z</time>
      </trkpt>
      <trkpt lat="64.304364966228604" lon="10.470820041373372">
        <ele>-4.19</ele>
        <time>2017-06-21T15:24:17Z</time>
      </trkpt>
      <trkpt lat="64.30306501686573" lon="10.471358997747302">
        <ele>-4.67</ele>
        <time>2017-06-21T15:24:24Z</time>
      </trkpt>
      <trkpt lat="64.302105959504843" lon="10.47199702821672">
        <ele>-3.71</ele>
        <time>2017-06-21T15:24:30Z</time>
      </trkpt>
      <trkpt lat="64.301242036744952" lon="10.473580034449697">
        <ele>-2.27</ele>
        <time>2017-06-21T15:24:36Z</time>
      </trkpt>
      <trkpt lat="64.301041038706899" lon="10.474187973886728">
        <ele>-2.27</ele>
        <time>2017-06-21T15:24:38Z</time>
      </trkpt>
      <trkpt lat="64.300969038158655" lon="10.474502965807915">
        <ele>-1.79</ele>
        <time>2017-06-21T15:24:39Z</time>
      </trkpt>
      <trkpt lat="64.30091698653996" lon="10.474847964942455">
        <ele>-1.79</ele>
        <time>2017-06-21T15:24:40Z</time>
      </trkpt>
      <trkpt lat="64.300886979326606" lon="10.475223977118731">
        <ele>-1.79</ele>
        <time>2017-06-21T15:24:41Z</time>
      </trkpt>
      <trkpt lat="64.300870969891548" lon="10.47563100233674">
        <ele>-1.79</ele>
        <time>2017-06-21T15:24:42Z</time>
      </trkpt>
      <trkpt lat="64.300865018740296" lon="10.476061999797821">
        <ele>-1.79</ele>
        <time>2017-06-21T15:24:43Z</time>
      </trkpt>
      <trkpt lat="64.300995022058487" lon="10.479750959202647">
        <ele>-4.19</ele>
        <time>2017-06-21T15:24:51Z</time>
      </trkpt>
      <trkpt lat="64.301150003448129" lon="10.480670034885406">
        <ele>-5.63</ele>
        <time>2017-06-21T15:24:53Z</time>
      </trkpt>
      <trkpt lat="64.301254022866488" lon="10.481112012639642">
        <ele>-6.11</ele>
        <time>2017-06-21T15:24:54Z</time>
      </trkpt>
      <trkpt lat="64.302681041881442" lon="10.485997991636395">
        <ele>-3.71</ele>
        <time>2017-06-21T15:25:05Z</time>
      </trkpt>
      <trkpt lat="64.303964981809258" lon="10.48888698220253">
        <ele>-6.11</ele>
        <time>2017-06-21T15:25:13Z</time>
      </trkpt>
      <trkpt lat="64.305047001689672" lon="10.491543961688876">
        <ele>-6.11</ele>
        <time>2017-06-21T15:25:20Z</time>
      </trkpt>
      <trkpt lat="64.305158983916044" lon="10.492008989676833">
        <ele>-6.11</ele>
        <time>2017-06-21T15:25:21Z</time>
      </trkpt>
      <trkpt lat="64.305247999727726" lon="10.49249698407948">
        <ele>-5.63</ele>
        <time>2017-06-21T15:25:22Z</time>
      </trkpt>
      <trkpt lat="64.30532100610435" lon="10.493007022887468">
        <ele>-5.63</ele>
        <time>2017-06-21T15:25:23Z</time>
      </trkpt>
      <trkpt lat="64.305375991389155" lon="10.493533993139863">
        <ele>-5.15</ele>
        <time>2017-06-21T15:25:24Z</time>
      </trkpt>
      <trkpt lat="64.305696012452245" lon="10.498411003500223">
        <ele>-4.19</ele>
        <time>2017-06-21T15:25:33Z</time>
      </trkpt>
      <trkpt lat="64.306141007691622" lon="10.503022978082299">
        <ele>-3.71</ele>
        <time>2017-06-21T15:25:42Z</time>
      </trkpt>
      <trkpt lat="64.306501010432839" lon="10.507148969918489">
        <ele>-2.27</ele>
        <time>2017-06-21T15:25:50Z</time>
      </trkpt>
      <trkpt lat="64.306405959650874" lon="10.511431032791734">
        <ele>5.42</ele>
        <time>2017-06-21T15:25:58Z</time>
      </trkpt>
      <trkpt lat="64.306338988244534" lon="10.511924978345633">
        <ele>7.83</ele>
        <time>2017-06-21T15:25:59Z</time>
      </trkpt>
      <trkpt lat="64.306243015453219" lon="10.512377014383674">
        <ele>10.23</ele>
        <time>2017-06-21T15:26:00Z</time>
      </trkpt>
      <trkpt lat="64.306127009913325" lon="10.512786973267794">
        <ele>13.119999999999999</ele>
        <time>2017-06-21T15:26:01Z</time>
      </trkpt>
      <trkpt lat="64.30598602630198" lon="10.513141024857759">
        <ele>14.08</ele>
        <time>2017-06-21T15:26:02Z</time>
      </trkpt>
      <trkpt lat="64.305825009942055" lon="10.513445036485791">
        <ele>15.039999999999999</ele>
        <time>2017-06-21T15:26:03Z</time>
      </trkpt>
      <trkpt lat="64.305657958611846" lon="10.51370101980865">
        <ele>15.52</ele>
        <time>2017-06-21T15:26:04Z</time>
      </trkpt>
      <trkpt lat="64.305486967787147" lon="10.513902017846704">
        <ele>16.48</ele>
        <time>2017-06-21T15:26:05Z</time>
      </trkpt>
      <trkpt lat="64.30530097335577" lon="10.514035960659385">
        <ele>16</ele>
        <time>2017-06-21T15:26:06Z</time>
      </trkpt>
      <trkpt lat="64.305106010288" lon="10.514127993956208">
        <ele>15.52</ele>
        <time>2017-06-21T15:26:07Z</time>
      </trkpt>
      <trkpt lat="64.304907023906708" lon="10.514201000332832">
        <ele>15.52</ele>
        <time>2017-06-21T15:26:08Z</time>
      </trkpt>
      <trkpt lat="64.304705020040274" lon="10.514222960919142">
        <ele>15.039999999999999</ele>
        <time>2017-06-21T15:26:09Z</time>
      </trkpt>
      <trkpt lat="64.304501004517078" lon="10.514208041131496">
        <ele>14.56</ele>
        <time>2017-06-21T15:26:10Z</time>
      </trkpt>
      <trkpt lat="64.304296988993883" lon="10.514151966199279">
        <ele>14.56</ele>
        <time>2017-06-21T15:26:11Z</time>
      </trkpt>
      <trkpt lat="64.304094985127449" lon="10.514079965651035">
        <ele>13.6</ele>
        <time>2017-06-21T15:26:12Z</time>
      </trkpt>
      <trkpt lat="64.302642988041043" lon="10.513238003477454">
        <ele>8.310000000000001</ele>
        <time>2017-06-21T15:26:20Z</time>
      </trkpt>
      <trkpt lat="64.30141101591289" lon="10.512512968853116">
        <ele>6.39</ele>
        <time>2017-06-21T15:26:30Z</time>
      </trkpt>
      <trkpt lat="64.2997130099684" lon="10.511418962851167">
        <ele>4.94</ele>
        <time>2017-06-21T15:26:43Z</time>
      </trkpt>
      <trkpt lat="64.299444034695625" lon="10.511257024481893">
        <ele>7.35</ele>
        <time>2017-06-21T15:26:45Z</time>
      </trkpt>
      <trkpt lat="64.299311013892293" lon="10.511228023096919">
        <ele>8.789999999999999</ele>
        <time>2017-06-21T15:26:46Z</time>
      </trkpt>
      <trkpt lat="64.299178998917341" lon="10.5112290289253">
        <ele>9.75</ele>
        <time>2017-06-21T15:26:47Z</time>
      </trkpt>
      <trkpt lat="64.299045978114009" lon="10.511269010603428">
        <ele>10.23</ele>
        <time>2017-06-21T15:26:48Z</time>
      </trkpt>
      <trkpt lat="64.298913041129708" lon="10.511305974796414">
        <ele>10.710000000000001</ele>
        <time>2017-06-21T15:26:49Z</time>
      </trkpt>
      <trkpt lat="64.298406019806862" lon="10.511384010314941">
        <ele>14.08</ele>
        <time>2017-06-21T15:26:53Z</time>
      </trkpt>
      <trkpt lat="64.298289008438587" lon="10.511350985616446">
        <ele>15.039999999999999</ele>
        <time>2017-06-21T15:26:54Z</time>
      </trkpt>
      <trkpt lat="64.298176020383835" lon="10.51127202808857">
        <ele>16</ele>
        <time>2017-06-21T15:26:55Z</time>
      </trkpt>
      <trkpt lat="64.298066971823573" lon="10.51114697009325">
        <ele>16.48</ele>
        <time>2017-06-21T15:26:56Z</time>
      </trkpt>
      <trkpt lat="64.297966975718737" lon="10.510989977046847">
        <ele>17.440000000000001</ele>
        <time>2017-06-21T15:26:57Z</time>
      </trkpt>
      <trkpt lat="64.297875026240945" lon="10.510826027020812">
        <ele>17.440000000000001</ele>
        <time>2017-06-21T15:26:58Z</time>
      </trkpt>
      <trkpt lat="64.29778098128736" lon="10.510692000389099">
        <ele>17.920000000000002</ele>
        <time>2017-06-21T15:26:59Z</time>
      </trkpt>
      <trkpt lat="64.297686014324427" lon="10.510582029819489">
        <ele>18.399999999999999</ele>
        <time>2017-06-21T15:27:00Z</time>
      </trkpt>
      <trkpt lat="64.297592975199223" lon="10.510507011786103">
        <ele>18.879999999999999</ele>
        <time>2017-06-21T15:27:01Z</time>
      </trkpt>
      <trkpt lat="64.297502031549811" lon="10.510495025664568">
        <ele>18.879999999999999</ele>
        <time>2017-06-21T15:27:02Z</time>
      </trkpt>
      <trkpt lat="64.297405974939466" lon="10.510526960715652">
        <ele>17.920000000000002</ele>
        <time>2017-06-21T15:27:03Z</time>
      </trkpt>
      <trkpt lat="64.297303967177868" lon="10.510616982355714">
        <ele>17.440000000000001</ele>
        <time>2017-06-21T15:27:04Z</time>
      </trkpt>
      <trkpt lat="64.29719902575016" lon="10.510745979845524">
        <ele>16.960000000000001</ele>
        <time>2017-06-21T15:27:05Z</time>
      </trkpt>
      <trkpt lat="64.297095006331801" lon="10.510915964841843">
        <ele>16.48</ele>
        <time>2017-06-21T15:27:06Z</time>
      </trkpt>
      <trkpt lat="64.296990986913443" lon="10.511116040870547">
        <ele>15.52</ele>
        <time>2017-06-21T15:27:07Z</time>
      </trkpt>
      <trkpt lat="64.296887973323464" lon="10.511336987838149">
        <ele>15.039999999999999</ele>
        <time>2017-06-21T15:27:08Z</time>
      </trkpt>
      <trkpt lat="64.296786971390247" lon="10.511578973382711">
        <ele>14.56</ele>
        <time>2017-06-21T15:27:09Z</time>
      </trkpt>
      <trkpt lat="64.296078030019999" lon="10.513883996754885">
        <ele>13.6</ele>
        <time>2017-06-21T15:27:17Z</time>
      </trkpt>
      <trkpt lat="64.295964958146214" lon="10.514155989512801">
        <ele>14.08</ele>
        <time>2017-06-21T15:27:18Z</time>
      </trkpt>
      <trkpt lat="64.295833026990294" lon="10.514399986714125">
        <ele>14.08</ele>
        <time>2017-06-21T15:27:19Z</time>
      </trkpt>
      <trkpt lat="64.295692965388298" lon="10.514614982530475">
        <ele>14.56</ele>
        <time>2017-06-21T15:27:20Z</time>
      </trkpt>
      <trkpt lat="64.295549970120192" lon="10.514807011932135">
        <ele>14.56</ele>
        <time>2017-06-21T15:27:21Z</time>
      </trkpt>
      <trkpt lat="64.294237028807402" lon="10.516552962362766">
        <ele>16.48</ele>
        <time>2017-06-21T15:27:30Z</time>
      </trkpt>
      <trkpt lat="64.293194990605116" lon="10.518769975751638">
        <ele>19.84</ele>
        <time>2017-06-21T15:27:38Z</time>
      </trkpt>
      <trkpt lat="64.293103041127324" lon="10.519124027341604">
        <ele>20.809999999999999</ele>
        <time>2017-06-21T15:27:39Z</time>
      </trkpt>
      <trkpt lat="64.293027017265558" lon="10.519499033689499">
        <ele>21.77</ele>
        <time>2017-06-21T15:27:40Z</time>
      </trkpt>
      <trkpt lat="64.292283039540052" lon="10.524112014099956">
        <ele>24.649999999999999</ele>
        <time>2017-06-21T15:27:51Z</time>
      </trkpt>
      <trkpt lat="64.29103103466332" lon="10.53213601000607">
        <ele>33.299999999999997</ele>
        <time>2017-06-21T15:28:09Z</time>
      </trkpt>
      <trkpt lat="64.29094503633678" lon="10.533004039898515">
        <ele>31.379999999999999</ele>
        <time>2017-06-21T15:28:11Z</time>
      </trkpt>
      <trkpt lat="64.290936989709735" lon="10.533451968804002">
        <ele>29.940000000000001</ele>
        <time>2017-06-21T15:28:12Z</time>
      </trkpt>
      <trkpt lat="64.290954004973173" lon="10.53389897570014">
        <ele>28.5</ele>
        <time>2017-06-21T15:28:13Z</time>
      </trkpt>
      <trkpt lat="64.290998009964824" lon="10.534356962889433">
        <ele>26.09</ele>
        <time>2017-06-21T15:28:14Z</time>
      </trkpt>
      <trkpt lat="64.291071016341448" lon="10.534816961735487">
        <ele>24.170000000000002</ele>
        <time>2017-06-21T15:28:15Z</time>
      </trkpt>
      <trkpt lat="64.291165983304381" lon="10.535284001380205">
        <ele>21.289999999999999</ele>
        <time>2017-06-21T15:28:16Z</time>
      </trkpt>
      <trkpt lat="64.291281988844275" lon="10.53574601188302">
        <ele>18.399999999999999</ele>
        <time>2017-06-21T15:28:17Z</time>
      </trkpt>
      <trkpt lat="64.291407968848944" lon="10.536179021000862">
        <ele>15.52</ele>
        <time>2017-06-21T15:28:18Z</time>
      </trkpt>
      <trkpt lat="64.291639979928732" lon="10.537057025358081">
        <ele>10.710000000000001</ele>
        <time>2017-06-21T15:28:20Z</time>
      </trkpt>
      <trkpt lat="64.29172296077013" lon="10.537518030032516">
        <ele>8.789999999999999</ele>
        <time>2017-06-21T15:28:21Z</time>
      </trkpt>
      <trkpt lat="64.291771994903684" lon="10.537996971979737">
        <ele>7.83</ele>
        <time>2017-06-21T15:28:22Z</time>
      </trkpt>
      <trkpt lat="64.291781969368458" lon="10.53847398608923">
        <ele>6.87</ele>
        <time>2017-06-21T15:28:23Z</time>
      </trkpt>
      <trkpt lat="64.291766965761781" lon="10.538961980491877">
        <ele>6.87</ele>
        <time>2017-06-21T15:28:24Z</time>
      </trkpt>
      <trkpt lat="64.291724972426891" lon="10.53944100625813">
        <ele>7.35</ele>
        <time>2017-06-21T15:28:25Z</time>
      </trkpt>
      <trkpt lat="64.291668981313705" lon="10.539923971518874">
        <ele>7.35</ele>
        <time>2017-06-21T15:28:26Z</time>
      </trkpt>
      <trkpt lat="64.291497990489006" lon="10.54240602068603">
        <ele>7.83</ele>
        <time>2017-06-21T15:28:32Z</time>
      </trkpt>
      <trkpt lat="64.291259022429585" lon="10.546298995614052">
        <ele>11.19</ele>
        <time>2017-06-21T15:28:43Z</time>
      </trkpt>
      <trkpt lat="64.291177969425917" lon="10.549643961712718">
        <ele>13.119999999999999</ele>
        <time>2017-06-21T15:28:52Z</time>
      </trkpt>
      <trkpt lat="64.29088200442493" lon="10.552807962521911">
        <ele>7.83</ele>
        <time>2017-06-21T15:29:00Z</time>
      </trkpt>
      <trkpt lat="64.290149006992579" lon="10.557891000062227">
        <ele>11.67</ele>
        <time>2017-06-21T15:29:13Z</time>
      </trkpt>
      <trkpt lat="64.290063008666039" lon="10.558244967833161">
        <ele>12.15</ele>
        <time>2017-06-21T15:29:18Z</time>
      </trkpt>
      <trkpt lat="64.2900650203228" lon="10.558217978104949">
        <ele>12.15</ele>
        <time>2017-06-21T15:31:14Z</time>
      </trkpt>
      <trkpt lat="64.289967035874724" lon="10.558807980269194">
        <ele>12.630000000000001</ele>
        <time>2017-06-21T15:31:29Z</time>
      </trkpt>
      <trkpt lat="64.289708035066724" lon="10.560012040659785">
        <ele>15.52</ele>
        <time>2017-06-21T15:31:35Z</time>
      </trkpt>
      <trkpt lat="64.289637040346861" lon="10.560200968757272">
        <ele>16</ele>
        <time>2017-06-21T15:31:36Z</time>
      </trkpt>
      <trkpt lat="64.289554981514812" lon="10.560357961803675">
        <ele>16.960000000000001</ele>
        <time>2017-06-21T15:31:37Z</time>
      </trkpt>
      <trkpt lat="64.289459008723497" lon="10.560512021183968">
        <ele>17.440000000000001</ele>
        <time>2017-06-21T15:31:38Z</time>
      </trkpt>
      <trkpt lat="64.289351971819997" lon="10.560654010623693">
        <ele>18.399999999999999</ele>
        <time>2017-06-21T15:31:39Z</time>
      </trkpt>
      <trkpt lat="64.289130019024014" lon="10.56090303696692">
        <ele>20.32</ele>
        <time>2017-06-21T15:31:41Z</time>
      </trkpt>
      <trkpt lat="64.289004961028695" lon="10.561004038900137">
        <ele>21.289999999999999</ele>
        <time>2017-06-21T15:31:42Z</time>
      </trkpt>
      <trkpt lat="64.288299959152937" lon="10.561663024127483">
        <ele>27.530000000000001</ele>
        <time>2017-06-21T15:31:48Z</time>
      </trkpt>
      <trkpt lat="64.288213038817048" lon="10.561795961111784">
        <ele>28.02</ele>
        <time>2017-06-21T15:31:49Z</time>
      </trkpt>
      <trkpt lat="64.288155036047101" lon="10.561952032148838">
        <ele>28.02</ele>
        <time>2017-06-21T15:31:50Z</time>
      </trkpt>
      <trkpt lat="64.288126034662127" lon="10.562144983559847">
        <ele>28.5</ele>
        <time>2017-06-21T15:31:51Z</time>
      </trkpt>
      <trkpt lat="64.288119999691844" lon="10.562373977154493">
        <ele>28.5</ele>
        <time>2017-06-21T15:31:52Z</time>
      </trkpt>
      <trkpt lat="64.288127040490508" lon="10.562626020982862">
        <ele>28.02</ele>
        <time>2017-06-21T15:31:53Z</time>
      </trkpt>
      <trkpt lat="64.288142966106534" lon="10.562907988205552">
        <ele>28.02</ele>
        <time>2017-06-21T15:31:54Z</time>
      </trkpt>
      <trkpt lat="64.288151012733579" lon="10.563880959525704">
        <ele>27.050000000000001</ele>
        <time>2017-06-21T15:31:57Z</time>
      </trkpt>
      <trkpt lat="64.288121005520225" lon="10.564209027215838">
        <ele>27.530000000000001</ele>
        <time>2017-06-21T15:31:58Z</time>
      </trkpt>
      <trkpt lat="64.2880670260638" lon="10.564530976116657">
        <ele>27.050000000000001</ele>
        <time>2017-06-21T15:31:59Z</time>
      </trkpt>
      <trkpt lat="64.287988990545273" lon="10.564824007451534">
        <ele>27.530000000000001</ele>
        <time>2017-06-21T15:32:00Z</time>
      </trkpt>
      <trkpt lat="64.287907015532255" lon="10.565091976895928">
        <ele>27.530000000000001</ele>
        <time>2017-06-21T15:32:01Z</time>
      </trkpt>
      <trkpt lat="64.28783300332725" lon="10.565333040431142">
        <ele>27.530000000000001</ele>
        <time>2017-06-21T15:32:02Z</time>
      </trkpt>
      <trkpt lat="64.287792015820742" lon="10.565562034025788">
        <ele>27.050000000000001</ele>
        <time>2017-06-21T15:32:03Z</time>
      </trkpt>
      <trkpt lat="64.28779000416398" lon="10.565776024013758">
        <ele>27.050000000000001</ele>
        <time>2017-06-21T15:32:04Z</time>
      </trkpt>
      <trkpt lat="64.287825040519238" lon="10.565966041758657">
        <ele>26.09</ele>
        <time>2017-06-21T15:32:05Z</time>
      </trkpt>
      <trkpt lat="64.287890000268817" lon="10.566138038411736">
        <ele>27.050000000000001</ele>
        <time>2017-06-21T15:32:06Z</time>
      </trkpt>
      <trkpt lat="64.28798203356564" lon="10.566300982609391">
        <ele>26.57</ele>
        <time>2017-06-21T15:32:07Z</time>
      </trkpt>
      <trkpt lat="64.288083035498857" lon="10.566482031717896">
        <ele>26.57</ele>
        <time>2017-06-21T15:32:08Z</time>
      </trkpt>
      <trkpt lat="64.288179008290172" lon="10.566703984513879">
        <ele>26.09</ele>
        <time>2017-06-21T15:32:09Z</time>
      </trkpt>
      <trkpt lat="64.288257965818048" lon="10.56696399115026">
        <ele>26.09</ele>
        <time>2017-06-21T15:32:10Z</time>
      </trkpt>
      <trkpt lat="64.288323009386659" lon="10.567265991121531">
        <ele>25.609999999999999</ele>
        <time>2017-06-21T15:32:11Z</time>
      </trkpt>
      <trkpt lat="64.288375983014703" lon="10.567604033276439">
        <ele>26.09</ele>
        <time>2017-06-21T15:32:12Z</time>
      </trkpt>
      <trkpt lat="64.288406996056437" lon="10.567936962470412">
        <ele>26.57</ele>
        <time>2017-06-21T15:32:13Z</time>
      </trkpt>
      <trkpt lat="64.288425017148256" lon="10.568255977705121">
        <ele>26.57</ele>
        <time>2017-06-21T15:32:14Z</time>
      </trkpt>
      <trkpt lat="64.288414036855102" lon="10.568550014868379">
        <ele>27.050000000000001</ele>
        <time>2017-06-21T15:32:15Z</time>
      </trkpt>
      <trkpt lat="64.288377994671464" lon="10.568824019283056">
        <ele>27.530000000000001</ele>
        <time>2017-06-21T15:32:16Z</time>
      </trkpt>
      <trkpt lat="64.288318986073136" lon="10.569062987342477">
        <ele>28.02</ele>
        <time>2017-06-21T15:32:17Z</time>
      </trkpt>
      <trkpt lat="64.288233993574977" lon="10.569259040057659">
        <ele>28.02</ele>
        <time>2017-06-21T15:32:18Z</time>
      </trkpt>
      <trkpt lat="64.288125028833747" lon="10.569421984255314">
        <ele>28.98</ele>
        <time>2017-06-21T15:32:19Z</time>
      </trkpt>
      <trkpt lat="64.288008017465472" lon="10.569596998393536">
        <ele>29.460000000000001</ele>
        <time>2017-06-21T15:32:20Z</time>
      </trkpt>
      <trkpt lat="64.287779023870826" lon="10.570004023611546">
        <ele>30.420000000000002</ele>
        <time>2017-06-21T15:32:22Z</time>
      </trkpt>
      <trkpt lat="64.287676010280848" lon="10.570259001106024">
        <ele>31.379999999999999</ele>
        <time>2017-06-21T15:32:23Z</time>
      </trkpt>
      <trkpt lat="64.287581965327263" lon="10.570547003298998">
        <ele>31.859999999999999</ele>
        <time>2017-06-21T15:32:24Z</time>
      </trkpt>
      <trkpt lat="64.287318019196391" lon="10.571424001827836">
        <ele>36.189999999999998</ele>
        <time>2017-06-21T15:32:27Z</time>
      </trkpt>
      <trkpt lat="64.287212993949652" lon="10.571655007079244">
        <ele>37.630000000000003</ele>
        <time>2017-06-21T15:32:28Z</time>
      </trkpt>
      <trkpt lat="64.287093970924616" lon="10.571827003732324">
        <ele>39.07</ele>
        <time>2017-06-21T15:32:29Z</time>
      </trkpt>
      <trkpt lat="64.286961033940315" lon="10.571944015100598">
        <ele>40.509999999999998</ele>
        <time>2017-06-21T15:32:30Z</time>
      </trkpt>
      <trkpt lat="64.286831030622125" lon="10.572016015648842">
        <ele>41.469999999999999</ele>
        <time>2017-06-21T15:32:31Z</time>
      </trkpt>
      <trkpt lat="64.286698009818792" lon="10.572068989276886">
        <ele>42.439999999999998</ele>
        <time>2017-06-21T15:32:32Z</time>
      </trkpt>
      <trkpt lat="64.286559037864208" lon="10.572095979005098">
        <ele>43.399999999999999</ele>
        <time>2017-06-21T15:32:33Z</time>
      </trkpt>
      <trkpt lat="64.28641595877707" lon="10.572100002318621">
        <ele>44.359999999999999</ele>
        <time>2017-06-21T15:32:34Z</time>
      </trkpt>
      <trkpt lat="64.286271035671234" lon="10.572089022025466">
        <ele>45.32</ele>
        <time>2017-06-21T15:32:35Z</time>
      </trkpt>
      <trkpt lat="64.285976998507977" lon="10.572090027853847">
        <ele>47.240000000000002</ele>
        <time>2017-06-21T15:32:37Z</time>
      </trkpt>
      <trkpt lat="64.285826040431857" lon="10.572155993431807">
        <ele>48.200000000000003</ele>
        <time>2017-06-21T15:32:38Z</time>
      </trkpt>
      <trkpt lat="64.285676004365087" lon="10.572273004800081">
        <ele>49.649999999999999</ele>
        <time>2017-06-21T15:32:39Z</time>
      </trkpt>
      <trkpt lat="64.285529991611838" lon="10.572428992018104">
        <ele>51.090000000000003</ele>
        <time>2017-06-21T15:32:40Z</time>
      </trkpt>
      <trkpt lat="64.28538297303021" lon="10.572608029469848">
        <ele>52.530000000000001</ele>
        <time>2017-06-21T15:32:41Z</time>
      </trkpt>
      <trkpt lat="64.284141026437283" lon="10.57474197819829">
        <ele>62.619999999999997</ele>
        <time>2017-06-21T15:32:50Z</time>
      </trkpt>
      <trkpt lat="64.284014962613583" lon="10.574988992884755">
        <ele>63.100000000000001</ele>
        <time>2017-06-21T15:32:51Z</time>
      </trkpt>
      <trkpt lat="64.283872973173857" lon="10.57519300840795">
        <ele>63.100000000000001</ele>
        <time>2017-06-21T15:32:52Z</time>
      </trkpt>
      <trkpt lat="64.283713968470693" lon="10.575338015332818">
        <ele>63.100000000000001</ele>
        <time>2017-06-21T15:32:53Z</time>
      </trkpt>
      <trkpt lat="64.283543983474374" lon="10.57540699839592">
        <ele>63.100000000000001</ele>
        <time>2017-06-21T15:32:54Z</time>
      </trkpt>
      <trkpt lat="64.283367963507771" lon="10.57543097063899">
        <ele>63.100000000000001</ele>
        <time>2017-06-21T15:32:55Z</time>
      </trkpt>
      <trkpt lat="64.283186998218298" lon="10.575435999780893">
        <ele>63.100000000000001</ele>
        <time>2017-06-21T15:32:56Z</time>
      </trkpt>
      <trkpt lat="64.28226800635457" lon="10.575304990634322">
        <ele>62.140000000000001</ele>
        <time>2017-06-21T15:33:01Z</time>
      </trkpt>
      <trkpt lat="64.282084023579955" lon="10.575331980362535">
        <ele>61.659999999999997</ele>
        <time>2017-06-21T15:33:02Z</time>
      </trkpt>
      <trkpt lat="64.280830007046461" lon="10.575381014496088">
        <ele>60.219999999999999</ele>
        <time>2017-06-21T15:33:09Z</time>
      </trkpt>
      <trkpt lat="64.280686005949974" lon="10.575425019487739">
        <ele>60.700000000000003</ele>
        <time>2017-06-21T15:33:10Z</time>
      </trkpt>
      <trkpt lat="64.280544016510248" lon="10.575533984228969">
        <ele>60.700000000000003</ele>
        <time>2017-06-21T15:33:11Z</time>
      </trkpt>
      <trkpt lat="64.280403032898903" lon="10.575695000588894">
        <ele>60.700000000000003</ele>
        <time>2017-06-21T15:33:12Z</time>
      </trkpt>
      <trkpt lat="64.280260037630796" lon="10.575890969485044">
        <ele>61.18</ele>
        <time>2017-06-21T15:33:13Z</time>
      </trkpt>
      <trkpt lat="64.280116036534309" lon="10.57609498500824">
        <ele>61.18</ele>
        <time>2017-06-21T15:33:14Z</time>
      </trkpt>
      <trkpt lat="64.279287988319993" lon="10.578005975112319">
        <ele>61.18</ele>
        <time>2017-06-21T15:33:21Z</time>
      </trkpt>
      <trkpt lat="64.279210036620498" lon="10.578331025317311">
        <ele>60.219999999999999</ele>
        <time>2017-06-21T15:33:22Z</time>
      </trkpt>
      <trkpt lat="64.27915102802217" lon="10.578676024451852">
        <ele>59.740000000000002</ele>
        <time>2017-06-21T15:33:23Z</time>
      </trkpt>
      <trkpt lat="64.279112974181771" lon="10.57905999943614">
        <ele>58.780000000000001</ele>
        <time>2017-06-21T15:33:24Z</time>
      </trkpt>
      <trkpt lat="64.279089001938701" lon="10.579469036310911">
        <ele>57.82</ele>
        <time>2017-06-21T15:33:25Z</time>
      </trkpt>
      <trkpt lat="64.279068969190121" lon="10.579900033771992">
        <ele>55.890000000000001</ele>
        <time>2017-06-21T15:33:26Z</time>
      </trkpt>
      <trkpt lat="64.278855985030532" lon="10.583696030080318">
        <ele>50.130000000000003</ele>
        <time>2017-06-21T15:33:34Z</time>
      </trkpt>
      <trkpt lat="64.278784990310669" lon="10.584145970642567">
        <ele>50.609999999999999</ele>
        <time>2017-06-21T15:33:35Z</time>
      </trkpt>
      <trkpt lat="64.278689017519355" lon="10.584560036659241">
        <ele>51.57</ele>
        <time>2017-06-21T15:33:36Z</time>
      </trkpt>
      <trkpt lat="64.278574017807841" lon="10.584944011643529">
        <ele>52.049999999999997</ele>
        <time>2017-06-21T15:33:37Z</time>
      </trkpt>
      <trkpt lat="64.278447031974792" lon="10.585318012163043">
        <ele>52.530000000000001</ele>
        <time>2017-06-21T15:33:38Z</time>
      </trkpt>
      <trkpt lat="64.27659303881228" lon="10.591014018282294">
        <ele>51.57</ele>
        <time>2017-06-21T15:33:53Z</time>
      </trkpt>
      <trkpt lat="64.276211997494102" lon="10.592137025669217">
        <ele>49.159999999999997</ele>
        <time>2017-06-21T15:33:56Z</time>
      </trkpt>
      <trkpt lat="64.276053998619318" lon="10.592465009540319">
        <ele>48.68</ele>
        <time>2017-06-21T15:33:57Z</time>
      </trkpt>
      <trkpt lat="64.274609964340925" lon="10.595322987064719">
        <ele>41.950000000000003</ele>
        <time>2017-06-21T15:34:06Z</time>
      </trkpt>
      <trkpt lat="64.273304985836148" lon="10.599336996674538">
        <ele>33.299999999999997</ele>
        <time>2017-06-21T15:34:17Z</time>
      </trkpt>
      <trkpt lat="64.273018995299935" lon="10.600303011015058">
        <ele>29.940000000000001</ele>
        <time>2017-06-21T15:34:20Z</time>
      </trkpt>
      <trkpt lat="64.272960992529988" lon="10.600661002099514">
        <ele>29.940000000000001</ele>
        <time>2017-06-21T15:34:21Z</time>
      </trkpt>
      <trkpt lat="64.272926962003112" lon="10.601052017882466">
        <ele>29.940000000000001</ele>
        <time>2017-06-21T15:34:22Z</time>
      </trkpt>
      <trkpt lat="64.272858984768391" lon="10.601904038339853">
        <ele>28.98</ele>
        <time>2017-06-21T15:34:24Z</time>
      </trkpt>
      <trkpt lat="64.272802993655205" lon="10.602336041629314">
        <ele>28.98</ele>
        <time>2017-06-21T15:34:25Z</time>
      </trkpt>
      <trkpt lat="64.272410972043872" lon="10.604657996445894">
        <ele>29.460000000000001</ele>
        <time>2017-06-21T15:34:32Z</time>
      </trkpt>
      <trkpt lat="64.272138979285955" lon="10.607478003948927">
        <ele>28.98</ele>
        <time>2017-06-21T15:34:42Z</time>
      </trkpt>
      <trkpt lat="64.27197402343154" lon="10.608415016904473">
        <ele>28.98</ele>
        <time>2017-06-21T15:34:45Z</time>
      </trkpt>
      <trkpt lat="64.271893976256251" lon="10.608708970248699">
        <ele>28.98</ele>
        <time>2017-06-21T15:34:46Z</time>
      </trkpt>
      <trkpt lat="64.27180596627295" lon="10.608991021290421">
        <ele>28.98</ele>
        <time>2017-06-21T15:34:47Z</time>
      </trkpt>
      <trkpt lat="64.271705970168114" lon="10.609258990734816">
        <ele>29.460000000000001</ele>
        <time>2017-06-21T15:34:48Z</time>
      </trkpt>
      <trkpt lat="64.271592982113361" lon="10.609517991542816">
        <ele>29.460000000000001</ele>
        <time>2017-06-21T15:34:49Z</time>
      </trkpt>
      <trkpt lat="64.271473959088326" lon="10.609758971258998">
        <ele>29.940000000000001</ele>
        <time>2017-06-21T15:34:50Z</time>
      </trkpt>
      <trkpt lat="64.271346973255277" lon="10.609975978732109">
        <ele>29.940000000000001</ele>
        <time>2017-06-21T15:34:51Z</time>
      </trkpt>
      <trkpt lat="64.26976103335619" lon="10.611952012404799">
        <ele>30.899999999999999</ele>
        <time>2017-06-21T15:35:02Z</time>
      </trkpt>
      <trkpt lat="64.269435983151197" lon="10.612232973799109">
        <ele>30.420000000000002</ele>
        <time>2017-06-21T15:35:04Z</time>
      </trkpt>
      <trkpt lat="64.269271027296782" lon="10.612324001267552">
        <ele>30.899999999999999</ele>
        <time>2017-06-21T15:35:05Z</time>
      </trkpt>
      <trkpt lat="64.269104981794953" lon="10.612386027351022">
        <ele>31.859999999999999</ele>
        <time>2017-06-21T15:35:06Z</time>
      </trkpt>
      <trkpt lat="64.268937008455396" lon="10.612414022907615">
        <ele>31.859999999999999</ele>
        <time>2017-06-21T15:35:07Z</time>
      </trkpt>
      <trkpt lat="64.268765011802316" lon="10.612427014857531">
        <ele>31.859999999999999</ele>
        <time>2017-06-21T15:35:08Z</time>
      </trkpt>
      <trkpt lat="64.266538023948669" lon="10.612787017598748">
        <ele>33.780000000000001</ele>
        <time>2017-06-21T15:35:21Z</time>
      </trkpt>
      <trkpt lat="64.266377007588744" lon="10.612939987331629">
        <ele>33.780000000000001</ele>
        <time>2017-06-21T15:35:22Z</time>
      </trkpt>
      <trkpt lat="64.266224037855864" lon="10.613158000633121">
        <ele>33.780000000000001</ele>
        <time>2017-06-21T15:35:23Z</time>
      </trkpt>
      <trkpt lat="64.264872958883643" lon="10.615008976310492">
        <ele>31.379999999999999</ele>
        <time>2017-06-21T15:35:31Z</time>
      </trkpt>
      <trkpt lat="64.263174030929804" lon="10.616952991113067">
        <ele>32.340000000000003</ele>
        <time>2017-06-21T15:35:41Z</time>
      </trkpt>
      <trkpt lat="64.262257972732186" lon="10.619004964828491">
        <ele>37.149999999999999</ele>
        <time>2017-06-21T15:35:48Z</time>
      </trkpt>
      <trkpt lat="64.262127969413996" lon="10.619257008656859">
        <ele>38.109999999999999</ele>
        <time>2017-06-21T15:35:49Z</time>
      </trkpt>
      <trkpt lat="64.261983968317509" lon="10.61943001113832">
        <ele>39.07</ele>
        <time>2017-06-21T15:35:50Z</time>
      </trkpt>
      <trkpt lat="64.26183401606977" lon="10.619564037770033">
        <ele>40.030000000000001</ele>
        <time>2017-06-21T15:35:51Z</time>
      </trkpt>
      <trkpt lat="64.261681968346238" lon="10.619698986411095">
        <ele>40.509999999999998</ele>
        <time>2017-06-21T15:35:52Z</time>
      </trkpt>
      <trkpt lat="64.261551965028048" lon="10.619891015812755">
        <ele>41.950000000000003</ele>
        <time>2017-06-21T15:35:53Z</time>
      </trkpt>
      <trkpt lat="64.261439982801676" lon="10.6201390363276">
        <ele>42.920000000000002</ele>
        <time>2017-06-21T15:35:54Z</time>
      </trkpt>
      <trkpt lat="64.261345015838742" lon="10.62041999772191">
        <ele>43.880000000000003</ele>
        <time>2017-06-21T15:35:55Z</time>
      </trkpt>
      <trkpt lat="64.261258011683822" lon="10.620733983814716">
        <ele>44.359999999999999</ele>
        <time>2017-06-21T15:35:56Z</time>
      </trkpt>
      <trkpt lat="64.261182993650436" lon="10.621066996827722">
        <ele>45.32</ele>
        <time>2017-06-21T15:35:57Z</time>
      </trkpt>
      <trkpt lat="64.261111998930573" lon="10.62142800539732">
        <ele>44.359999999999999</ele>
        <time>2017-06-21T15:35:58Z</time>
      </trkpt>
      <trkpt lat="64.260649988427758" lon="10.62387702986598">
        <ele>35.710000000000001</ele>
        <time>2017-06-21T15:36:04Z</time>
      </trkpt>
      <trkpt lat="64.260520990937948" lon="10.624266033992171">
        <ele>35.229999999999997</ele>
        <time>2017-06-21T15:36:05Z</time>
      </trkpt>
      <trkpt lat="64.259716998785734" lon="10.626766020432115">
        <ele>32.340000000000003</ele>
        <time>2017-06-21T15:36:12Z</time>
      </trkpt>
      <trkpt lat="64.259652961045504" lon="10.62714303843677">
        <ele>32.340000000000003</ele>
        <time>2017-06-21T15:36:13Z</time>
      </trkpt>
      <trkpt lat="64.259465960785747" lon="10.628168983384967">
        <ele>32.82</ele>
        <time>2017-06-21T15:36:16Z</time>
      </trkpt>
      <trkpt lat="64.259379962459207" lon="10.628418009728193">
        <ele>31.859999999999999</ele>
        <time>2017-06-21T15:36:17Z</time>
      </trkpt>
      <trkpt lat="64.259276026859879" lon="10.628618001937866">
        <ele>31.379999999999999</ele>
        <time>2017-06-21T15:36:18Z</time>
      </trkpt>
      <trkpt lat="64.25914702937007" lon="10.62877700664103">
        <ele>31.379999999999999</ele>
        <time>2017-06-21T15:36:19Z</time>
      </trkpt>
      <trkpt lat="64.259002022445202" lon="10.62890499830246">
        <ele>31.859999999999999</ele>
        <time>2017-06-21T15:36:20Z</time>
      </trkpt>
      <trkpt lat="64.25884896889329" lon="10.629036007449031">
        <ele>32.340000000000003</ele>
        <time>2017-06-21T15:36:21Z</time>
      </trkpt>
      <trkpt lat="64.258348988369107" lon="10.629337001591921">
        <ele>32.82</ele>
        <time>2017-06-21T15:36:24Z</time>
      </trkpt>
      <trkpt lat="64.258183026686311" lon="10.629359968006611">
        <ele>32.82</ele>
        <time>2017-06-21T15:36:25Z</time>
      </trkpt>
      <trkpt lat="64.258019998669624" lon="10.629324009642005">
        <ele>32.82</ele>
        <time>2017-06-21T15:36:26Z</time>
      </trkpt>
      <trkpt lat="64.257864011451602" lon="10.629201969131827">
        <ele>33.299999999999997</ele>
        <time>2017-06-21T15:36:27Z</time>
      </trkpt>
      <trkpt lat="64.257715987041593" lon="10.62901102937758">
        <ele>34.259999999999998</ele>
        <time>2017-06-21T15:36:28Z</time>
      </trkpt>
      <trkpt lat="64.257575003430247" lon="10.628806008026004">
        <ele>36.189999999999998</ele>
        <time>2017-06-21T15:36:29Z</time>
      </trkpt>
      <trkpt lat="64.25743100233376" lon="10.628624958917499">
        <ele>37.149999999999999</ele>
        <time>2017-06-21T15:36:30Z</time>
      </trkpt>
      <trkpt lat="64.256860027089715" lon="10.628155991435051">
        <ele>41.950000000000003</ele>
        <time>2017-06-21T15:36:34Z</time>
      </trkpt>
      <trkpt lat="64.256734969094396" lon="10.628126990050077">
        <ele>43.399999999999999</ele>
        <time>2017-06-21T15:36:35Z</time>
      </trkpt>
      <trkpt lat="64.256619969382882" lon="10.628190021961927">
        <ele>44.359999999999999</ele>
        <time>2017-06-21T15:36:36Z</time>
      </trkpt>
      <trkpt lat="64.256512010470033" lon="10.628308961167932">
        <ele>44.840000000000003</ele>
        <time>2017-06-21T15:36:37Z</time>
      </trkpt>
      <trkpt lat="64.256408996880054" lon="10.628487998619676">
        <ele>45.32</ele>
        <time>2017-06-21T15:36:38Z</time>
      </trkpt>
      <trkpt lat="64.256315035745502" lon="10.628723027184606">
        <ele>45.799999999999997</ele>
        <time>2017-06-21T15:36:39Z</time>
      </trkpt>
      <trkpt lat="64.25622995942831" lon="10.629004994407296">
        <ele>46.280000000000001</ele>
        <time>2017-06-21T15:36:40Z</time>
      </trkpt>
      <trkpt lat="64.256147984415293" lon="10.629331972450018">
        <ele>45.799999999999997</ele>
        <time>2017-06-21T15:36:41Z</time>
      </trkpt>
      <trkpt lat="64.255853025242686" lon="10.630332017317414">
        <ele>45.799999999999997</ele>
        <time>2017-06-21T15:36:44Z</time>
      </trkpt>
      <trkpt lat="64.255716986954212" lon="10.63062496483326">
        <ele>45.799999999999997</ele>
        <time>2017-06-21T15:36:45Z</time>
      </trkpt>
      <trkpt lat="64.255558988079429" lon="10.630886983126402">
        <ele>45.32</ele>
        <time>2017-06-21T15:36:46Z</time>
      </trkpt>
      <trkpt lat="64.255383973941207" lon="10.631115976721048">
        <ele>45.32</ele>
        <time>2017-06-21T15:36:47Z</time>
      </trkpt>
      <trkpt lat="64.255198985338211" lon="10.631313035264611">
        <ele>45.799999999999997</ele>
        <time>2017-06-21T15:36:48Z</time>
      </trkpt>
      <trkpt lat="64.255007039755583" lon="10.631495006382465">
        <ele>45.799999999999997</ele>
        <time>2017-06-21T15:36:49Z</time>
      </trkpt>
      <trkpt lat="64.253516988828778" lon="10.633280016481876">
        <ele>46.280000000000001</ele>
        <time>2017-06-21T15:36:57Z</time>
      </trkpt>
      <trkpt lat="64.253325965255499" lon="10.63341898843646">
        <ele>45.799999999999997</ele>
        <time>2017-06-21T15:36:58Z</time>
      </trkpt>
      <trkpt lat="64.253129996359348" lon="10.633514039218426">
        <ele>44.840000000000003</ele>
        <time>2017-06-21T15:36:59Z</time>
      </trkpt>
      <trkpt lat="64.251796016469598" lon="10.633608000352979">
        <ele>44.840000000000003</ele>
        <time>2017-06-21T15:37:06Z</time>
      </trkpt>
      <trkpt lat="64.251314979046583" lon="10.63354798592627">
        <ele>44.840000000000003</ele>
        <time>2017-06-21T15:37:09Z</time>
      </trkpt>
      <trkpt lat="64.251155974343419" lon="10.633591990917921">
        <ele>44.359999999999999</ele>
        <time>2017-06-21T15:37:10Z</time>
      </trkpt>
      <trkpt lat="64.250997975468636" lon="10.633674971759319">
        <ele>44.359999999999999</ele>
        <time>2017-06-21T15:37:11Z</time>
      </trkpt>
      <trkpt lat="64.249015990644693" lon="10.635203998535872">
        <ele>45.799999999999997</ele>
        <time>2017-06-21T15:37:23Z</time>
      </trkpt>
      <trkpt lat="64.248866038396955" lon="10.635439027100801">
        <ele>46.280000000000001</ele>
        <time>2017-06-21T15:37:24Z</time>
      </trkpt>
      <trkpt lat="64.248731005936861" lon="10.635735997930169">
        <ele>46.759999999999998</ele>
        <time>2017-06-21T15:37:25Z</time>
      </trkpt>
      <trkpt lat="64.248605025932193" lon="10.636062975972891">
        <ele>46.759999999999998</ele>
        <time>2017-06-21T15:37:26Z</time>
      </trkpt>
      <trkpt lat="64.248480973765254" lon="10.636414010077715">
        <ele>46.759999999999998</ele>
        <time>2017-06-21T15:37:27Z</time>
      </trkpt>
      <trkpt lat="64.247268028557301" lon="10.639031007885933">
        <ele>48.68</ele>
        <time>2017-06-21T15:37:35Z</time>
      </trkpt>
      <trkpt lat="64.246080983430147" lon="10.640866979956627">
        <ele>50.609999999999999</ele>
        <time>2017-06-21T15:37:42Z</time>
      </trkpt>
      <trkpt lat="64.244442991912365" lon="10.642383014783263">
        <ele>53.490000000000002</ele>
        <time>2017-06-21T15:37:51Z</time>
      </trkpt>
      <trkpt lat="64.241287959739566" lon="10.645781038329005">
        <ele>68.390000000000001</ele>
        <time>2017-06-21T15:38:08Z</time>
      </trkpt>
      <trkpt lat="64.240332003682852" lon="10.646660970523953">
        <ele>70.790000000000006</ele>
        <time>2017-06-21T15:38:14Z</time>
      </trkpt>
      <trkpt lat="64.240214992314577" lon="10.646832967177033">
        <ele>70.310000000000002</ele>
        <time>2017-06-21T15:38:15Z</time>
      </trkpt>
      <trkpt lat="64.240118013694882" lon="10.647057015448809">
        <ele>69.349999999999994</ele>
        <time>2017-06-21T15:38:16Z</time>
      </trkpt>
      <trkpt lat="64.240037966519594" lon="10.647334959357977">
        <ele>68.390000000000001</ele>
        <time>2017-06-21T15:38:17Z</time>
      </trkpt>
      <trkpt lat="64.23996202647686" lon="10.647651962935925">
        <ele>66.950000000000003</ele>
        <time>2017-06-21T15:38:18Z</time>
      </trkpt>
      <trkpt lat="64.239776032045484" lon="10.648325029760599">
        <ele>65.030000000000001</ele>
        <time>2017-06-21T15:38:20Z</time>
      </trkpt>
      <trkpt lat="64.239466991275549" lon="10.649231029674411">
        <ele>64.069999999999993</ele>
        <time>2017-06-21T15:38:23Z</time>
      </trkpt>
      <trkpt lat="64.23940303735435" lon="10.649561025202274">
        <ele>63.579999999999998</ele>
        <time>2017-06-21T15:38:24Z</time>
      </trkpt>
      <trkpt lat="64.239364983513951" lon="10.649927984923124">
        <ele>62.619999999999997</ele>
        <time>2017-06-21T15:38:25Z</time>
      </trkpt>
      <trkpt lat="64.239350985735655" lon="10.650316989049315">
        <ele>62.140000000000001</ele>
        <time>2017-06-21T15:38:26Z</time>
      </trkpt>
      <trkpt lat="64.239350985735655" lon="10.650728037580848">
        <ele>61.659999999999997</ele>
        <time>2017-06-21T15:38:27Z</time>
      </trkpt>
      <trkpt lat="64.23936196602881" lon="10.651148976758122">
        <ele>61.659999999999997</ele>
        <time>2017-06-21T15:38:28Z</time>
      </trkpt>
      <trkpt lat="64.239412005990744" lon="10.654971962794662">
        <ele>61.659999999999997</ele>
        <time>2017-06-21T15:38:37Z</time>
      </trkpt>
      <trkpt lat="64.239356014877558" lon="10.655357027426362">
        <ele>62.140000000000001</ele>
        <time>2017-06-21T15:38:38Z</time>
      </trkpt>
      <trkpt lat="64.239284014329314" lon="10.655733961611986">
        <ele>62.619999999999997</ele>
        <time>2017-06-21T15:38:39Z</time>
      </trkpt>
      <trkpt lat="64.239198016002774" lon="10.656098993495107">
        <ele>63.100000000000001</ele>
        <time>2017-06-21T15:38:40Z</time>
      </trkpt>
      <trkpt lat="64.239099025726318" lon="10.656446004286408">
        <ele>63.579999999999998</ele>
        <time>2017-06-21T15:38:41Z</time>
      </trkpt>
      <trkpt lat="64.238984026014805" lon="10.65677197650075">
        <ele>63.579999999999998</ele>
        <time>2017-06-21T15:38:42Z</time>
      </trkpt>
      <trkpt lat="64.238855028524995" lon="10.657064002007246">
        <ele>64.549999999999997</ele>
        <time>2017-06-21T15:38:43Z</time>
      </trkpt>
      <trkpt lat="64.238710021600127" lon="10.657318979501724">
        <ele>65.030000000000001</ele>
        <time>2017-06-21T15:38:44Z</time>
      </trkpt>
      <trkpt lat="64.238554034382105" lon="10.657555013895035">
        <ele>65.510000000000005</ele>
        <time>2017-06-21T15:38:45Z</time>
      </trkpt>
      <trkpt lat="64.237654991447926" lon="10.658874996006489">
        <ele>70.310000000000002</ele>
        <time>2017-06-21T15:38:51Z</time>
      </trkpt>
      <trkpt lat="64.237562958151102" lon="10.659140031784773">
        <ele>70.310000000000002</ele>
        <time>2017-06-21T15:38:52Z</time>
      </trkpt>
      <trkpt lat="64.237511996179819" lon="10.65943599678576">
        <ele>71.269999999999996</ele>
        <time>2017-06-21T15:38:53Z</time>
      </trkpt>
      <trkpt lat="64.237502021715045" lon="10.659750988706946">
        <ele>72.239999999999995</ele>
        <time>2017-06-21T15:38:54Z</time>
      </trkpt>
      <trkpt lat="64.23753303475678" lon="10.660070003941655">
        <ele>73.200000000000003</ele>
        <time>2017-06-21T15:38:55Z</time>
      </trkpt>
      <trkpt lat="64.237591037526727" lon="10.660395976155996">
        <ele>73.680000000000007</ele>
        <time>2017-06-21T15:38:56Z</time>
      </trkpt>
      <trkpt lat="64.237661026418209" lon="10.660717003047466">
        <ele>74.640000000000001</ele>
        <time>2017-06-21T15:38:57Z</time>
      </trkpt>
      <trkpt lat="64.238021029159427" lon="10.662233037874103">
        <ele>78.969999999999999</ele>
        <time>2017-06-21T15:39:02Z</time>
      </trkpt>
      <trkpt lat="64.23811499029398" lon="10.662457002326846">
        <ele>78.969999999999999</ele>
        <time>2017-06-21T15:39:03Z</time>
      </trkpt>
      <trkpt lat="64.238223033025861" lon="10.662673003971577">
        <ele>78</ele>
        <time>2017-06-21T15:39:04Z</time>
      </trkpt>
      <trkpt lat="64.238344989717007" lon="10.662869978696108">
        <ele>77.040000000000006</ele>
        <time>2017-06-21T15:39:05Z</time>
      </trkpt>
      <trkpt lat="64.238477004691958" lon="10.6630689650774">
        <ele>75.599999999999994</ele>
        <time>2017-06-21T15:39:06Z</time>
      </trkpt>
      <trkpt lat="64.238740028813481" lon="10.663545979186893">
        <ele>74.159999999999997</ele>
        <time>2017-06-21T15:39:08Z</time>
      </trkpt>
      <trkpt lat="64.238856034353375" lon="10.663846973329782">
        <ele>73.200000000000003</ele>
        <time>2017-06-21T15:39:09Z</time>
      </trkpt>
      <trkpt lat="64.238948989659548" lon="10.664188032969832">
        <ele>73.200000000000003</ele>
        <time>2017-06-21T15:39:10Z</time>
      </trkpt>
      <trkpt lat="64.239015961065888" lon="10.664563039317727">
        <ele>74.159999999999997</ele>
        <time>2017-06-21T15:39:11Z</time>
      </trkpt>
      <trkpt lat="64.23906097188592" lon="10.664963023737073">
        <ele>75.120000000000005</ele>
        <time>2017-06-21T15:39:12Z</time>
      </trkpt>
      <trkpt lat="64.239085027948022" lon="10.665368959307671">
        <ele>75.599999999999994</ele>
        <time>2017-06-21T15:39:13Z</time>
      </trkpt>
      <trkpt lat="64.239099025726318" lon="10.665785036981106">
        <ele>75.599999999999994</ele>
        <time>2017-06-21T15:39:14Z</time>
      </trkpt>
      <trkpt lat="64.239280996844172" lon="10.672130975872278">
        <ele>74.159999999999997</ele>
        <time>2017-06-21T15:39:28Z</time>
      </trkpt>
      <trkpt lat="64.239274961873889" lon="10.673035969957709">
        <ele>74.159999999999997</ele>
        <time>2017-06-21T15:39:30Z</time>
      </trkpt>
      <trkpt lat="64.239249983802438" lon="10.673481971025467">
        <ele>73.200000000000003</ele>
        <time>2017-06-21T15:39:31Z</time>
      </trkpt>
      <trkpt lat="64.239172032102942" lon="10.67477798089385">
        <ele>72.239999999999995</ele>
        <time>2017-06-21T15:39:34Z</time>
      </trkpt>
      <trkpt lat="64.239184018224478" lon="10.675193974748254">
        <ele>72.719999999999999</ele>
        <time>2017-06-21T15:39:35Z</time>
      </trkpt>
      <trkpt lat="64.239219976589084" lon="10.67559496499598">
        <ele>73.200000000000003</ele>
        <time>2017-06-21T15:39:36Z</time>
      </trkpt>
      <trkpt lat="64.239278985187411" lon="10.675980029627681">
        <ele>73.680000000000007</ele>
        <time>2017-06-21T15:39:37Z</time>
      </trkpt>
      <trkpt lat="64.2393590323627" lon="10.676341038197279">
        <ele>73.680000000000007</ele>
        <time>2017-06-21T15:39:38Z</time>
      </trkpt>
      <trkpt lat="64.239450981840491" lon="10.676698023453355">
        <ele>74.159999999999997</ele>
        <time>2017-06-21T15:39:39Z</time>
      </trkpt>
      <trkpt lat="64.240320017561316" lon="10.680168969556689">
        <ele>71.760000000000005</ele>
        <time>2017-06-21T15:39:48Z</time>
      </trkpt>
      <trkpt lat="64.241012027487159" lon="10.684027997776866">
        <ele>73.680000000000007</ele>
        <time>2017-06-21T15:39:57Z</time>
      </trkpt>
      <trkpt lat="64.241086039692163" lon="10.684464024379849">
        <ele>73.200000000000003</ele>
        <time>2017-06-21T15:39:58Z</time>
      </trkpt>
      <trkpt lat="64.241776959970593" lon="10.688896039500833">
        <ele>75.120000000000005</ele>
        <time>2017-06-21T15:40:08Z</time>
      </trkpt>
      <trkpt lat="64.241965971887112" lon="10.692632021382451">
        <ele>74.159999999999997</ele>
        <time>2017-06-21T15:40:16Z</time>
      </trkpt>
      <trkpt lat="64.242022968828678" lon="10.695898029953241">
        <ele>73.200000000000003</ele>
        <time>2017-06-21T15:40:24Z</time>
      </trkpt>
      <trkpt lat="64.242075020447373" lon="10.69845300167799">
        <ele>73.200000000000003</ele>
        <time>2017-06-21T15:40:35Z</time>
      </trkpt>
      <trkpt lat="64.242127994075418" lon="10.700222002342343">
        <ele>73.680000000000007</ele>
        <time>2017-06-21T15:40:46Z</time>
      </trkpt>
      <trkpt lat="64.242127994075418" lon="10.700489971786737">
        <ele>73.680000000000007</ele>
        <time>2017-06-21T15:40:48Z</time>
      </trkpt>
      <trkpt lat="64.242138974368572" lon="10.701705012470484">
        <ele>74.159999999999997</ele>
        <time>2017-06-21T15:40:56Z</time>
      </trkpt>
      <trkpt lat="64.242160012945533" lon="10.703269997611642">
        <ele>74.640000000000001</ele>
        <time>2017-06-21T15:41:03Z</time>
      </trkpt>
      <trkpt lat="64.24224098213017" lon="10.706241969019175">
        <ele>75.599999999999994</ele>
        <time>2017-06-21T15:41:11Z</time>
      </trkpt>
      <trkpt lat="64.242571983486414" lon="10.711264992132783">
        <ele>77.519999999999996</ele>
        <time>2017-06-21T15:41:22Z</time>
      </trkpt>
      <trkpt lat="64.242659993469715" lon="10.713184028863907">
        <ele>80.890000000000001</ele>
        <time>2017-06-21T15:41:26Z</time>
      </trkpt>
      <trkpt lat="64.242640966549516" lon="10.713660959154367">
        <ele>82.329999999999998</ele>
        <time>2017-06-21T15:41:27Z</time>
      </trkpt>
      <trkpt lat="64.242602996528149" lon="10.71413503959775">
        <ele>83.290000000000006</ele>
        <time>2017-06-21T15:41:28Z</time>
      </trkpt>
      <trkpt lat="64.242551028728485" lon="10.714606018736959">
        <ele>84.730000000000004</ele>
        <time>2017-06-21T15:41:29Z</time>
      </trkpt>
      <trkpt lat="64.242483973503113" lon="10.71506098844111">
        <ele>85.689999999999998</ele>
        <time>2017-06-21T15:41:30Z</time>
      </trkpt>
      <trkpt lat="64.242405015975237" lon="10.715506989508867">
        <ele>86.180000000000007</ele>
        <time>2017-06-21T15:41:31Z</time>
      </trkpt>
      <trkpt lat="64.2413379997015" lon="10.720074037089944">
        <ele>88.099999999999994</ele>
        <time>2017-06-21T15:41:42Z</time>
      </trkpt>
      <trkpt lat="64.241193998605013" lon="10.720377964898944">
        <ele>88.099999999999994</ele>
        <time>2017-06-21T15:41:43Z</time>
      </trkpt>
      <trkpt lat="64.24103700555861" lon="10.720658004283905">
        <ele>88.579999999999998</ele>
        <time>2017-06-21T15:41:44Z</time>
      </trkpt>
      <trkpt lat="64.239632030948997" lon="10.722941989079118">
        <ele>91.939999999999998</ele>
        <time>2017-06-21T15:41:53Z</time>
      </trkpt>
      <trkpt lat="64.239258030429482" lon="10.72348396293819">
        <ele>94.349999999999994</ele>
        <time>2017-06-21T15:41:56Z</time>
      </trkpt>
      <trkpt lat="64.239169014617801" lon="10.723730977624655">
        <ele>94.829999999999998</ele>
        <time>2017-06-21T15:41:57Z</time>
      </trkpt>
      <trkpt lat="64.239097014069557" lon="10.724016968160868">
        <ele>94.829999999999998</ele>
        <time>2017-06-21T15:41:58Z</time>
      </trkpt>
      <trkpt lat="64.239040017127991" lon="10.724344030022621">
        <ele>94.829999999999998</ele>
        <time>2017-06-21T15:41:59Z</time>
      </trkpt>
      <trkpt lat="64.239005986601114" lon="10.724716018885374">
        <ele>94.829999999999998</ele>
        <time>2017-06-21T15:42:00Z</time>
      </trkpt>
      <trkpt lat="64.238984026014805" lon="10.725109968334436">
        <ele>94.829999999999998</ele>
        <time>2017-06-21T15:42:01Z</time>
      </trkpt>
      <trkpt lat="64.238971034064889" lon="10.725510036572814">
        <ele>95.310000000000002</ele>
        <time>2017-06-21T15:42:02Z</time>
      </trkpt>
      <trkpt lat="64.238948989659548" lon="10.725929969921708">
        <ele>97.709999999999994</ele>
        <time>2017-06-21T15:42:03Z</time>
      </trkpt>
      <trkpt lat="64.238765006884933" lon="10.728882998228073">
        <ele>102.04000000000001</ele>
        <time>2017-06-21T15:42:10Z</time>
      </trkpt>
      <trkpt lat="64.238718990236521" lon="10.729248030111194">
        <ele>103</ele>
        <time>2017-06-21T15:42:11Z</time>
      </trkpt>
      <trkpt lat="64.238525032997131" lon="10.730988029390574">
        <ele>107.81</ele>
        <time>2017-06-21T15:42:16Z</time>
      </trkpt>
      <trkpt lat="64.238535007461905" lon="10.731309978291392">
        <ele>108.29000000000001</ele>
        <time>2017-06-21T15:42:17Z</time>
      </trkpt>
      <trkpt lat="64.238577000796795" lon="10.731624970212579">
        <ele>109.25</ele>
        <time>2017-06-21T15:42:18Z</time>
      </trkpt>
      <trkpt lat="64.238647995516658" lon="10.731928981840611">
        <ele>110.20999999999999</ele>
        <time>2017-06-21T15:42:19Z</time>
      </trkpt>
      <trkpt lat="64.238744974136353" lon="10.732223019003868">
        <ele>110.69</ele>
        <time>2017-06-21T15:42:20Z</time>
      </trkpt>
      <trkpt lat="64.238848993554711" lon="10.73252803646028">
        <ele>111.65000000000001</ele>
        <time>2017-06-21T15:42:21Z</time>
      </trkpt>
      <trkpt lat="64.238946978002787" lon="10.732858031988144">
        <ele>112.13</ele>
        <time>2017-06-21T15:42:22Z</time>
      </trkpt>
      <trkpt lat="64.239025013521314" lon="10.733218034729362">
        <ele>113.09</ele>
        <time>2017-06-21T15:42:23Z</time>
      </trkpt>
      <trkpt lat="64.239156022667885" lon="10.733900992199779">
        <ele>114.05</ele>
        <time>2017-06-21T15:42:25Z</time>
      </trkpt>
      <trkpt lat="64.239232968539" lon="10.734178014099598">
        <ele>115.01000000000001</ele>
        <time>2017-06-21T15:42:26Z</time>
      </trkpt>
      <trkpt lat="64.239323996007442" lon="10.734384963288903">
        <ele>115.01000000000001</ele>
        <time>2017-06-21T15:42:27Z</time>
      </trkpt>
      <trkpt lat="64.239432038739324" lon="10.734538016840816">
        <ele>115.5</ele>
        <time>2017-06-21T15:42:28Z</time>
      </trkpt>
      <trkpt lat="64.239561036229134" lon="10.734642036259174">
        <ele>115.01000000000001</ele>
        <time>2017-06-21T15:42:29Z</time>
      </trkpt>
      <trkpt lat="64.239700008183718" lon="10.734727028757334">
        <ele>114.53</ele>
        <time>2017-06-21T15:42:30Z</time>
      </trkpt>
      <trkpt lat="64.239992033690214" lon="10.734951999038458">
        <ele>113.56999999999999</ele>
        <time>2017-06-21T15:42:32Z</time>
      </trkpt>
      <trkpt lat="64.240136034786701" lon="10.735117038711905">
        <ele>113.09</ele>
        <time>2017-06-21T15:42:33Z</time>
      </trkpt>
      <trkpt lat="64.240275006741285" lon="10.735303033143282">
        <ele>113.09</ele>
        <time>2017-06-21T15:42:34Z</time>
      </trkpt>
      <trkpt lat="64.240411967039108" lon="10.735518028959632">
        <ele>113.09</ele>
        <time>2017-06-21T15:42:35Z</time>
      </trkpt>
      <trkpt lat="64.240539958700538" lon="10.735763031989336">
        <ele>113.09</ele>
        <time>2017-06-21T15:42:36Z</time>
      </trkpt>
      <trkpt lat="64.240663005039096" lon="10.736034018918872">
        <ele>113.09</ele>
        <time>2017-06-21T15:42:37Z</time>
      </trkpt>
      <trkpt lat="64.240773981437087" lon="10.736335013061762">
        <ele>113.09</ele>
        <time>2017-06-21T15:42:38Z</time>
      </trkpt>
      <trkpt lat="64.240869032219052" lon="10.736662996932864">
        <ele>113.56999999999999</ele>
        <time>2017-06-21T15:42:39Z</time>
      </trkpt>
      <trkpt lat="64.240941032767296" lon="10.737030962482095">
        <ele>113.09</ele>
        <time>2017-06-21T15:42:40Z</time>
      </trkpt>
      <trkpt lat="64.241002975031734" lon="10.737413009628654">
        <ele>113.56999999999999</ele>
        <time>2017-06-21T15:42:41Z</time>
      </trkpt>
      <trkpt lat="64.241056032478809" lon="10.737792039290071">
        <ele>113.09</ele>
        <time>2017-06-21T15:42:42Z</time>
      </trkpt>
      <trkpt lat="64.241113029420376" lon="10.738540040329099">
        <ele>113.09</ele>
        <time>2017-06-21T15:42:44Z</time>
      </trkpt>
      <trkpt lat="64.241104982793331" lon="10.738913035020232">
        <ele>113.09</ele>
        <time>2017-06-21T15:42:45Z</time>
      </trkpt>
      <trkpt lat="64.241061983630061" lon="10.739279994741082">
        <ele>112.61</ele>
        <time>2017-06-21T15:42:46Z</time>
      </trkpt>
      <trkpt lat="64.240984031930566" lon="10.739621976390481">
        <ele>112.13</ele>
        <time>2017-06-21T15:42:47Z</time>
      </trkpt>
      <trkpt lat="64.240890992805362" lon="10.739932022988796">
        <ele>111.65000000000001</ele>
        <time>2017-06-21T15:42:48Z</time>
      </trkpt>
      <trkpt lat="64.240591004490852" lon="10.740958973765373">
        <ele>111.65000000000001</ele>
        <time>2017-06-21T15:42:51Z</time>
      </trkpt>
      <trkpt lat="64.240523027256131" lon="10.741355018690228">
        <ele>111.17</ele>
        <time>2017-06-21T15:42:52Z</time>
      </trkpt>
      <trkpt lat="64.240470975637436" lon="10.741776963695884">
        <ele>111.65000000000001</ele>
        <time>2017-06-21T15:42:53Z</time>
      </trkpt>
      <trkpt lat="64.240200994536281" lon="10.745955007150769">
        <ele>113.56999999999999</ele>
        <time>2017-06-21T15:43:03Z</time>
      </trkpt>
      <trkpt lat="64.240247011184692" lon="10.746314004063606">
        <ele>114.05</ele>
        <time>2017-06-21T15:43:04Z</time>
      </trkpt>
      <trkpt lat="64.240312976762652" lon="10.746656991541386">
        <ele>114.05</ele>
        <time>2017-06-21T15:43:05Z</time>
      </trkpt>
      <trkpt lat="64.240404004231095" lon="10.746982963755727">
        <ele>113.56999999999999</ele>
        <time>2017-06-21T15:43:06Z</time>
      </trkpt>
      <trkpt lat="64.240513974800706" lon="10.747299967333674">
        <ele>113.56999999999999</ele>
        <time>2017-06-21T15:43:07Z</time>
      </trkpt>
      <trkpt lat="64.240632997825742" lon="10.747615965083241">
        <ele>113.09</ele>
        <time>2017-06-21T15:43:08Z</time>
      </trkpt>
      <trkpt lat="64.240855034440756" lon="10.74827503412962">
        <ele>113.56999999999999</ele>
        <time>2017-06-21T15:43:10Z</time>
      </trkpt>
      <trkpt lat="64.240940026938915" lon="10.748633025214076">
        <ele>113.09</ele>
        <time>2017-06-21T15:43:11Z</time>
      </trkpt>
      <trkpt lat="64.241001969203353" lon="10.749023035168648">
        <ele>113.09</ele>
        <time>2017-06-21T15:43:12Z</time>
      </trkpt>
      <trkpt lat="64.24103700555861" lon="10.74943701736629">
        <ele>113.56999999999999</ele>
        <time>2017-06-21T15:43:13Z</time>
      </trkpt>
      <trkpt lat="64.241049997508526" lon="10.749856028705835">
        <ele>114.05</ele>
        <time>2017-06-21T15:43:14Z</time>
      </trkpt>
      <trkpt lat="64.241047985851765" lon="10.750286020338535">
        <ele>115.01000000000001</ele>
        <time>2017-06-21T15:43:15Z</time>
      </trkpt>
      <trkpt lat="64.24103700555861" lon="10.750712994486094">
        <ele>115.98</ele>
        <time>2017-06-21T15:43:16Z</time>
      </trkpt>
      <trkpt lat="64.240780016407371" lon="10.756487958133221">
        <ele>128.47</ele>
        <time>2017-06-21T15:43:30Z</time>
      </trkpt>
      <trkpt lat="64.240665016695857" lon="10.757404016330838">
        <ele>131.36000000000001</ele>
        <time>2017-06-21T15:43:33Z</time>
      </trkpt>
      <trkpt lat="64.240667028352618" lon="10.757677014917135">
        <ele>130.88</ele>
        <time>2017-06-21T15:43:34Z</time>
      </trkpt>
      <trkpt lat="64.240692006424069" lon="10.757941966876388">
        <ele>130.88</ele>
        <time>2017-06-21T15:43:35Z</time>
      </trkpt>
      <trkpt lat="64.240735005587339" lon="10.758207002654672">
        <ele>130.88</ele>
        <time>2017-06-21T15:43:36Z</time>
      </trkpt>
      <trkpt lat="64.240789990872145" lon="10.75848201289773">
        <ele>130.40000000000001</ele>
        <time>2017-06-21T15:43:37Z</time>
      </trkpt>
      <trkpt lat="64.240860985592008" lon="10.758771020919085">
        <ele>129.91999999999999</ele>
        <time>2017-06-21T15:43:38Z</time>
      </trkpt>
      <trkpt lat="64.241193998605013" lon="10.760151017457247">
        <ele>128.94999999999999</ele>
        <time>2017-06-21T15:43:42Z</time>
      </trkpt>
      <trkpt lat="64.241258958354592" lon="10.760570028796792">
        <ele>128.94999999999999</ele>
        <time>2017-06-21T15:43:43Z</time>
      </trkpt>
      <trkpt lat="64.241310004144907" lon="10.761003037914634">
        <ele>129.43000000000001</ele>
        <time>2017-06-21T15:43:44Z</time>
      </trkpt>
      <trkpt lat="64.241344034671783" lon="10.761457001790404">
        <ele>129.91999999999999</ele>
        <time>2017-06-21T15:43:45Z</time>
      </trkpt>
      <trkpt lat="64.241361971944571" lon="10.76191901229322">
        <ele>129.91999999999999</ele>
        <time>2017-06-21T15:43:46Z</time>
      </trkpt>
      <trkpt lat="64.241371024399996" lon="10.762387979775667">
        <ele>130.40000000000001</ele>
        <time>2017-06-21T15:43:47Z</time>
      </trkpt>
      <trkpt lat="64.241349985823035" lon="10.765987001359463">
        <ele>134.24000000000001</ele>
        <time>2017-06-21T15:43:55Z</time>
      </trkpt>
      <trkpt lat="64.241377981379628" lon="10.766387991607189">
        <ele>134.72</ele>
        <time>2017-06-21T15:43:56Z</time>
      </trkpt>
      <trkpt lat="64.241426009684801" lon="10.766791999340057">
        <ele>134.72</ele>
        <time>2017-06-21T15:43:57Z</time>
      </trkpt>
      <trkpt lat="64.241486024111509" lon="10.767195001244545">
        <ele>134.72</ele>
        <time>2017-06-21T15:43:58Z</time>
      </trkpt>
      <trkpt lat="64.241560958325863" lon="10.767599008977413">
        <ele>135.19999999999999</ele>
        <time>2017-06-21T15:43:59Z</time>
      </trkpt>
      <trkpt lat="64.24163899384439" lon="10.767981978133321">
        <ele>135.19999999999999</ele>
        <time>2017-06-21T15:44:00Z</time>
      </trkpt>
      <trkpt lat="64.241723986342549" lon="10.768320020288229">
        <ele>135.19999999999999</ele>
        <time>2017-06-21T15:44:01Z</time>
      </trkpt>
      <trkpt lat="64.241824988275766" lon="10.768614979460835">
        <ele>135.19999999999999</ele>
        <time>2017-06-21T15:44:02Z</time>
      </trkpt>
      <trkpt lat="64.241944011300802" lon="10.768872974440455">
        <ele>134.72</ele>
        <time>2017-06-21T15:44:03Z</time>
      </trkpt>
      <trkpt lat="64.24208901822567" lon="10.769098028540611">
        <ele>135.19999999999999</ele>
        <time>2017-06-21T15:44:04Z</time>
      </trkpt>
      <trkpt lat="64.242247017100453" lon="10.769320987164974">
        <ele>134.72</ele>
        <time>2017-06-21T15:44:05Z</time>
      </trkpt>
      <trkpt lat="64.242398981004953" lon="10.769575964659452">
        <ele>135.19999999999999</ele>
        <time>2017-06-21T15:44:06Z</time>
      </trkpt>
      <trkpt lat="64.24254197627306" lon="10.769878970459104">
        <ele>136.16</ele>
        <time>2017-06-21T15:44:07Z</time>
      </trkpt>
      <trkpt lat="64.242664016783237" lon="10.770239979028702">
        <ele>137.13</ele>
        <time>2017-06-21T15:44:08Z</time>
      </trkpt>
      <trkpt lat="64.242765018716455" lon="10.770635018125176">
        <ele>138.09</ele>
        <time>2017-06-21T15:44:09Z</time>
      </trkpt>
      <trkpt lat="64.242853028699756" lon="10.771056041121483">
        <ele>139.05000000000001</ele>
        <time>2017-06-21T15:44:10Z</time>
      </trkpt>
      <trkpt lat="64.242927962914109" lon="10.771500030532479">
        <ele>140.00999999999999</ele>
        <time>2017-06-21T15:44:11Z</time>
      </trkpt>
      <trkpt lat="64.24299200065434" lon="10.77195399440825">
        <ele>140.97</ele>
        <time>2017-06-21T15:44:12Z</time>
      </trkpt>
      <trkpt lat="64.243726003915071" lon="10.778241008520126">
        <ele>140.97</ele>
        <time>2017-06-21T15:44:25Z</time>
      </trkpt>
      <trkpt lat="64.243824994191527" lon="10.782060977071524">
        <ele>142.41</ele>
        <time>2017-06-21T15:44:33Z</time>
      </trkpt>
      <trkpt lat="64.243745030835271" lon="10.782920960336924">
        <ele>142.41</ele>
        <time>2017-06-21T15:44:35Z</time>
      </trkpt>
      <trkpt lat="64.243670012801886" lon="10.783306024968624">
        <ele>142.41</ele>
        <time>2017-06-21T15:44:36Z</time>
      </trkpt>
      <trkpt lat="64.243564987555146" lon="10.783649012446404">
        <ele>141.93000000000001</ele>
        <time>2017-06-21T15:44:37Z</time>
      </trkpt>
      <trkpt lat="64.243430038914084" lon="10.783927040174603">
        <ele>141.93000000000001</ele>
        <time>2017-06-21T15:44:38Z</time>
      </trkpt>
      <trkpt lat="64.243278997018933" lon="10.784140024334192">
        <ele>142.41</ele>
        <time>2017-06-21T15:44:39Z</time>
      </trkpt>
      <trkpt lat="64.243116974830627" lon="10.784268015995622">
        <ele>142.88999999999999</ele>
        <time>2017-06-21T15:44:40Z</time>
      </trkpt>
      <trkpt lat="64.242951013147831" lon="10.784310009330511">
        <ele>143.84999999999999</ele>
        <time>2017-06-21T15:44:41Z</time>
      </trkpt>
      <trkpt lat="64.242775999009609" lon="10.784310009330511">
        <ele>144.81999999999999</ele>
        <time>2017-06-21T15:44:42Z</time>
      </trkpt>
      <trkpt lat="64.242600984871387" lon="10.784292994067073">
        <ele>145.30000000000001</ele>
        <time>2017-06-21T15:44:43Z</time>
      </trkpt>
      <trkpt lat="64.242251040413976" lon="10.784326018765569">
        <ele>146.74000000000001</ele>
        <time>2017-06-21T15:44:45Z</time>
      </trkpt>
      <trkpt lat="64.242082983255386" lon="10.784402964636683">
        <ele>147.69999999999999</ele>
        <time>2017-06-21T15:44:46Z</time>
      </trkpt>
      <trkpt lat="64.241919033229351" lon="10.784520981833339">
        <ele>148.18000000000001</ele>
        <time>2017-06-21T15:44:47Z</time>
      </trkpt>
      <trkpt lat="64.241756005212665" lon="10.784670012071729">
        <ele>148.66</ele>
        <time>2017-06-21T15:44:48Z</time>
      </trkpt>
      <trkpt lat="64.24159599468112" lon="10.784841002896428">
        <ele>148.66</ele>
        <time>2017-06-21T15:44:49Z</time>
      </trkpt>
      <trkpt lat="64.240599973127246" lon="10.785909024998546">
        <ele>153.47</ele>
        <time>2017-06-21T15:44:55Z</time>
      </trkpt>
      <trkpt lat="64.240418002009392" lon="10.785997034981847">
        <ele>154.43000000000001</ele>
        <time>2017-06-21T15:44:56Z</time>
      </trkpt>
      <trkpt lat="64.240233013406396" lon="10.786055959761143">
        <ele>154.91</ele>
        <time>2017-06-21T15:44:57Z</time>
      </trkpt>
      <trkpt lat="64.238877994939685" lon="10.786167019978166">
        <ele>162.59999999999999</ele>
        <time>2017-06-21T15:45:05Z</time>
      </trkpt>
      <trkpt lat="64.238747991621494" lon="10.786152016371489">
        <ele>163.08000000000001</ele>
        <time>2017-06-21T15:45:06Z</time>
      </trkpt>
      <trkpt lat="64.238466024398804" lon="10.786115974187851">
        <ele>163.08000000000001</ele>
        <time>2017-06-21T15:45:08Z</time>
      </trkpt>
      <trkpt lat="64.238309031352401" lon="10.786166014149785">
        <ele>163.08000000000001</ele>
        <time>2017-06-21T15:45:09Z</time>
      </trkpt>
      <trkpt lat="64.238149020820856" lon="10.786259975284338">
        <ele>163.08000000000001</ele>
        <time>2017-06-21T15:45:10Z</time>
      </trkpt>
      <trkpt lat="64.236050024628639" lon="10.787999974563718">
        <ele>164.52000000000001</ele>
        <time>2017-06-21T15:45:22Z</time>
      </trkpt>
      <trkpt lat="64.235423980280757" lon="10.788576984778047">
        <ele>165.47999999999999</ele>
        <time>2017-06-21T15:45:26Z</time>
      </trkpt>
      <trkpt lat="64.235303029417992" lon="10.788774965330958">
        <ele>165.47999999999999</ele>
        <time>2017-06-21T15:45:27Z</time>
      </trkpt>
      <trkpt lat="64.234009031206369" lon="10.791132040321827">
        <ele>165.96000000000001</ele>
        <time>2017-06-21T15:45:37Z</time>
      </trkpt>
      <trkpt lat="64.233853965997696" lon="10.791280986741185">
        <ele>166.44999999999999</ele>
        <time>2017-06-21T15:45:38Z</time>
      </trkpt>
      <trkpt lat="64.233692027628422" lon="10.79139799810946">
        <ele>166.93000000000001</ele>
        <time>2017-06-21T15:45:39Z</time>
      </trkpt>
      <trkpt lat="64.233519025146961" lon="10.791480978950858">
        <ele>167.41</ele>
        <time>2017-06-21T15:45:40Z</time>
      </trkpt>
      <trkpt lat="64.233337976038456" lon="10.791523978114128">
        <ele>167.88999999999999</ele>
        <time>2017-06-21T15:45:41Z</time>
      </trkpt>
      <trkpt lat="64.233158016577363" lon="10.791535964235663">
        <ele>168.37</ele>
        <time>2017-06-21T15:45:42Z</time>
      </trkpt>
      <trkpt lat="64.232976967468858" lon="10.791536970064044">
        <ele>168.37</ele>
        <time>2017-06-21T15:45:43Z</time>
      </trkpt>
      <trkpt lat="64.230248993262649" lon="10.791447032243013">
        <ele>170.77000000000001</ele>
        <time>2017-06-21T15:45:57Z</time>
      </trkpt>
      <trkpt lat="64.228561967611313" lon="10.79232201911509">
        <ele>170.28999999999999</ele>
        <time>2017-06-21T15:46:06Z</time>
      </trkpt>
      <trkpt lat="64.226796990260482" lon="10.793800000101328">
        <ele>172.69</ele>
        <time>2017-06-21T15:46:16Z</time>
      </trkpt>
      <trkpt lat="64.226667992770672" lon="10.793989012017846">
        <ele>173.16999999999999</ele>
        <time>2017-06-21T15:46:17Z</time>
      </trkpt>
      <trkpt lat="64.226553998887539" lon="10.794224962592125">
        <ele>173.66</ele>
        <time>2017-06-21T15:46:18Z</time>
      </trkpt>
      <trkpt lat="64.226455008611083" lon="10.794497039169073">
        <ele>173.66</ele>
        <time>2017-06-21T15:46:19Z</time>
      </trkpt>
      <trkpt lat="64.226369010284543" lon="10.794809013605118">
        <ele>174.13999999999999</ele>
        <time>2017-06-21T15:46:20Z</time>
      </trkpt>
      <trkpt lat="64.226289968937635" lon="10.795145966112614">
        <ele>174.13999999999999</ele>
        <time>2017-06-21T15:46:21Z</time>
      </trkpt>
      <trkpt lat="64.226230038329959" lon="10.795514015480876">
        <ele>174.62</ele>
        <time>2017-06-21T15:46:22Z</time>
      </trkpt>
      <trkpt lat="64.226182010024786" lon="10.795897990465164">
        <ele>174.13999999999999</ele>
        <time>2017-06-21T15:46:23Z</time>
      </trkpt>
      <trkpt lat="64.226158959791064" lon="10.796299986541271">
        <ele>173.66</ele>
        <time>2017-06-21T15:46:24Z</time>
      </trkpt>
      <trkpt lat="64.226157031953335" lon="10.796713968738914">
        <ele>173.16999999999999</ele>
        <time>2017-06-21T15:46:25Z</time>
      </trkpt>
      <trkpt lat="64.226177986711264" lon="10.797130968421698">
        <ele>173.16999999999999</ele>
        <time>2017-06-21T15:46:26Z</time>
      </trkpt>
      <trkpt lat="64.226216040551662" lon="10.797560960054398">
        <ele>173.16999999999999</ele>
        <time>2017-06-21T15:46:27Z</time>
      </trkpt>
      <trkpt lat="64.226261973381042" lon="10.797997992485762">
        <ele>173.16999999999999</ele>
        <time>2017-06-21T15:46:28Z</time>
      </trkpt>
      <trkpt lat="64.226970998570323" lon="10.803954005241394">
        <ele>176.06</ele>
        <time>2017-06-21T15:46:41Z</time>
      </trkpt>
      <trkpt lat="64.227504003793001" lon="10.80708397552371">
        <ele>178.46000000000001</ele>
        <time>2017-06-21T15:46:48Z</time>
      </trkpt>
      <trkpt lat="64.227536022663116" lon="10.807569958269596">
        <ele>178.94</ele>
        <time>2017-06-21T15:46:49Z</time>
      </trkpt>
      <trkpt lat="64.227779014036059" lon="10.811886973679066">
        <ele>182.78999999999999</ele>
        <time>2017-06-21T15:46:58Z</time>
      </trkpt>
      <trkpt lat="64.228256028145552" lon="10.814890963956714">
        <ele>185.66999999999999</ele>
        <time>2017-06-21T15:47:05Z</time>
      </trkpt>
      <trkpt lat="64.228809988126159" lon="10.817820020020008">
        <ele>187.59</ele>
        <time>2017-06-21T15:47:12Z</time>
      </trkpt>
      <trkpt lat="64.229872981086373" lon="10.820665005594492">
        <ele>189.03999999999999</ele>
        <time>2017-06-21T15:47:20Z</time>
      </trkpt>
      <trkpt lat="64.231308968737721" lon="10.82579598762095">
        <ele>191.91999999999999</ele>
        <time>2017-06-21T15:47:32Z</time>
      </trkpt>
      <trkpt lat="64.231700990349054" lon="10.827389974147081">
        <ele>190.47999999999999</ele>
        <time>2017-06-21T15:47:36Z</time>
      </trkpt>
      <trkpt lat="64.231741977855563" lon="10.827781995758414">
        <ele>190</ele>
        <time>2017-06-21T15:47:37Z</time>
      </trkpt>
      <trkpt lat="64.231752036139369" lon="10.828169994056225">
        <ele>190</ele>
        <time>2017-06-21T15:47:38Z</time>
      </trkpt>
      <trkpt lat="64.231736026704311" lon="10.828574001789093">
        <ele>190.47999999999999</ele>
        <time>2017-06-21T15:47:39Z</time>
      </trkpt>
      <trkpt lat="64.231703002005816" lon="10.828978009521961">
        <ele>191.91999999999999</ele>
        <time>2017-06-21T15:47:40Z</time>
      </trkpt>
      <trkpt lat="64.231643993407488" lon="10.830571996048093">
        <ele>194.31999999999999</ele>
        <time>2017-06-21T15:47:44Z</time>
      </trkpt>
      <trkpt lat="64.231666959822178" lon="10.830976003780961">
        <ele>194.31999999999999</ele>
        <time>2017-06-21T15:47:45Z</time>
      </trkpt>
      <trkpt lat="64.231703002005816" lon="10.831394009292126">
        <ele>194.31999999999999</ele>
        <time>2017-06-21T15:47:46Z</time>
      </trkpt>
      <trkpt lat="64.232085971161723" lon="10.833978988230228">
        <ele>195.77000000000001</ele>
        <time>2017-06-21T15:47:52Z</time>
      </trkpt>
      <trkpt lat="64.232821986079216" lon="10.838015964254737">
        <ele>197.21000000000001</ele>
        <time>2017-06-21T15:48:01Z</time>
      </trkpt>
      <trkpt lat="64.23321601934731" lon="10.840806970372796">
        <ele>196.25</ele>
        <time>2017-06-21T15:48:07Z</time>
      </trkpt>
      <trkpt lat="64.233312997967005" lon="10.841265041381121">
        <ele>197.21000000000001</ele>
        <time>2017-06-21T15:48:08Z</time>
      </trkpt>
      <trkpt lat="64.233426991850138" lon="10.841704001650214">
        <ele>198.65000000000001</ele>
        <time>2017-06-21T15:48:09Z</time>
      </trkpt>
      <trkpt lat="64.233723962679505" lon="10.842921976000071">
        <ele>202.49000000000001</ele>
        <time>2017-06-21T15:48:12Z</time>
      </trkpt>
      <trkpt lat="64.233779031783342" lon="10.843342998996377">
        <ele>202.97999999999999</ele>
        <time>2017-06-21T15:48:13Z</time>
      </trkpt>
      <trkpt lat="64.233822030946612" lon="10.843783970922232">
        <ele>202.97999999999999</ele>
        <time>2017-06-21T15:48:14Z</time>
      </trkpt>
      <trkpt lat="64.233895959332585" lon="10.845609968528152">
        <ele>207.30000000000001</ele>
        <time>2017-06-21T15:48:18Z</time>
      </trkpt>
      <trkpt lat="64.233870981261134" lon="10.846074996516109">
        <ele>208.74000000000001</ele>
        <time>2017-06-21T15:48:19Z</time>
      </trkpt>
      <trkpt lat="64.233819013461471" lon="10.846526026725769">
        <ele>209.69999999999999</ele>
        <time>2017-06-21T15:48:20Z</time>
      </trkpt>
      <trkpt lat="64.233747012913227" lon="10.846953000873327">
        <ele>211.63</ele>
        <time>2017-06-21T15:48:21Z</time>
      </trkpt>
      <trkpt lat="64.233657997101545" lon="10.847362959757447">
        <ele>213.06999999999999</ele>
        <time>2017-06-21T15:48:22Z</time>
      </trkpt>
      <trkpt lat="64.233551966026425" lon="10.847750036045909">
        <ele>214.99000000000001</ele>
        <time>2017-06-21T15:48:23Z</time>
      </trkpt>
      <trkpt lat="64.233420034870505" lon="10.848111966624856">
        <ele>215.94999999999999</ele>
        <time>2017-06-21T15:48:24Z</time>
      </trkpt>
      <trkpt lat="64.233276033774018" lon="10.848461994901299">
        <ele>217.40000000000001</ele>
        <time>2017-06-21T15:48:25Z</time>
      </trkpt>
      <trkpt lat="64.233133038505912" lon="10.848798025399446">
        <ele>218.36000000000001</ele>
        <time>2017-06-21T15:48:26Z</time>
      </trkpt>
      <trkpt lat="64.23218697309494" lon="10.851046973839402">
        <ele>216.43000000000001</ele>
        <time>2017-06-21T15:48:33Z</time>
      </trkpt>
      <trkpt lat="64.232098963111639" lon="10.851463973522186">
        <ele>215.94999999999999</ele>
        <time>2017-06-21T15:48:34Z</time>
      </trkpt>
      <trkpt lat="64.232031991705298" lon="10.851909974589944">
        <ele>215.47</ele>
        <time>2017-06-21T15:48:35Z</time>
      </trkpt>
      <trkpt lat="64.231585990637541" lon="10.854528984054923">
        <ele>221.72</ele>
        <time>2017-06-21T15:48:41Z</time>
      </trkpt>
      <trkpt lat="64.231537962332368" lon="10.854962999001145">
        <ele>222.19999999999999</ele>
        <time>2017-06-21T15:48:42Z</time>
      </trkpt>
      <trkpt lat="64.231206960976124" lon="10.857468014582992">
        <ele>225.09</ele>
        <time>2017-06-21T15:48:48Z</time>
      </trkpt>
      <trkpt lat="64.231106964871287" lon="10.857828017324209">
        <ele>225.09</ele>
        <time>2017-06-21T15:48:49Z</time>
      </trkpt>
      <trkpt lat="64.231008980423212" lon="10.858121970668435">
        <ele>225.09</ele>
        <time>2017-06-21T15:48:50Z</time>
      </trkpt>
      <trkpt lat="64.230375979095697" lon="10.859676981344819">
        <ele>225.56999999999999</ele>
        <time>2017-06-21T15:48:57Z</time>
      </trkpt>
      <trkpt lat="64.229926038533449" lon="10.861149011179805">
        <ele>224.61000000000001</ele>
        <time>2017-06-21T15:49:03Z</time>
      </trkpt>
      <trkpt lat="64.229899970814586" lon="10.86144195869565">
        <ele>224.61000000000001</ele>
        <time>2017-06-21T15:49:04Z</time>
      </trkpt>
      <trkpt lat="64.229891002178192" lon="10.861769020557404">
        <ele>224.12</ele>
        <time>2017-06-21T15:49:05Z</time>
      </trkpt>
      <trkpt lat="64.229985969141126" lon="10.865047015249729">
        <ele>231.33000000000001</ele>
        <time>2017-06-21T15:49:13Z</time>
      </trkpt>
      <trkpt lat="64.230268020182848" lon="10.869035962969065">
        <ele>225.56999999999999</ele>
        <time>2017-06-21T15:49:22Z</time>
      </trkpt>
      <trkpt lat="64.230823991820216" lon="10.872379001230001">
        <ele>225.56999999999999</ele>
        <time>2017-06-21T15:49:30Z</time>
      </trkpt>
      <trkpt lat="64.23085399903357" lon="10.872831037268043">
        <ele>225.56999999999999</ele>
        <time>2017-06-21T15:49:31Z</time>
      </trkpt>
      <trkpt lat="64.230866990983486" lon="10.873297993093729">
        <ele>225.09</ele>
        <time>2017-06-21T15:49:32Z</time>
      </trkpt>
      <trkpt lat="64.230856010690331" lon="10.873768972232938">
        <ele>225.56999999999999</ele>
        <time>2017-06-21T15:49:33Z</time>
      </trkpt>
      <trkpt lat="64.230820974335074" lon="10.874249003827572">
        <ele>227.00999999999999</ele>
        <time>2017-06-21T15:49:34Z</time>
      </trkpt>
      <trkpt lat="64.23076699487865" lon="10.874715959653258">
        <ele>228.44999999999999</ele>
        <time>2017-06-21T15:49:35Z</time>
      </trkpt>
      <trkpt lat="64.230703040957451" lon="10.875178975984454">
        <ele>230.84999999999999</ele>
        <time>2017-06-21T15:49:36Z</time>
      </trkpt>
      <trkpt lat="64.230257039889693" lon="10.87871303781867">
        <ele>230.37</ele>
        <time>2017-06-21T15:49:44Z</time>
      </trkpt>
      <trkpt lat="64.23018797300756" lon="10.882628979161382">
        <ele>232.78</ele>
        <time>2017-06-21T15:49:52Z</time>
      </trkpt>
      <trkpt lat="64.230599021539092" lon="10.886110989376903">
        <ele>230.37</ele>
        <time>2017-06-21T15:49:59Z</time>
      </trkpt>
      <trkpt lat="64.231423968449235" lon="10.891600968316197">
        <ele>237.58000000000001</ele>
        <time>2017-06-21T15:50:11Z</time>
      </trkpt>
      <trkpt lat="64.231998967006803" lon="10.895395958796144">
        <ele>237.09999999999999</ele>
        <time>2017-06-21T15:50:19Z</time>
      </trkpt>
      <trkpt lat="64.233205961063504" lon="10.903252987191081">
        <ele>244.78999999999999</ele>
        <time>2017-06-21T15:50:35Z</time>
      </trkpt>
      <trkpt lat="64.233833011239767" lon="10.905121983960271">
        <ele>242.87</ele>
        <time>2017-06-21T15:50:40Z</time>
      </trkpt>
      <trkpt lat="64.233992015942931" lon="10.905410991981626">
        <ele>242.38999999999999</ele>
        <time>2017-06-21T15:50:41Z</time>
      </trkpt>
      <trkpt lat="64.234164012596011" lon="10.90567703358829">
        <ele>240.94999999999999</ele>
        <time>2017-06-21T15:50:42Z</time>
      </trkpt>
      <trkpt lat="64.235329013317823" lon="10.907942997291684">
        <ele>233.25999999999999</ele>
        <time>2017-06-21T15:50:49Z</time>
      </trkpt>
      <trkpt lat="64.235936030745506" lon="10.910855960100889">
        <ele>228.44999999999999</ele>
        <time>2017-06-21T15:50:55Z</time>
      </trkpt>
      <trkpt lat="64.236800037324429" lon="10.916332025080919">
        <ele>230.84999999999999</ele>
        <time>2017-06-21T15:51:06Z</time>
      </trkpt>
      <trkpt lat="64.237369000911713" lon="10.920501016080379">
        <ele>226.05000000000001</ele>
        <time>2017-06-21T15:51:14Z</time>
      </trkpt>
      <trkpt lat="64.237379981204867" lon="10.921034021303058">
        <ele>225.56999999999999</ele>
        <time>2017-06-21T15:51:15Z</time>
      </trkpt>
      <trkpt lat="64.23736397176981" lon="10.921569960191846">
        <ele>225.56999999999999</ele>
        <time>2017-06-21T15:51:16Z</time>
      </trkpt>
      <trkpt lat="64.237324995920062" lon="10.922099025920033">
        <ele>226.05000000000001</ele>
        <time>2017-06-21T15:51:17Z</time>
      </trkpt>
      <trkpt lat="64.237265987321734" lon="10.922620967030525">
        <ele>226.53</ele>
        <time>2017-06-21T15:51:18Z</time>
      </trkpt>
      <trkpt lat="64.237193986773491" lon="10.923137962818146">
        <ele>227.00999999999999</ele>
        <time>2017-06-21T15:51:19Z</time>
      </trkpt>
      <trkpt lat="64.236168963834643" lon="10.930010033771396">
        <ele>231.33000000000001</ele>
        <time>2017-06-21T15:51:32Z</time>
      </trkpt>
      <trkpt lat="64.235023995861411" lon="10.935116959735751">
        <ele>221.72</ele>
        <time>2017-06-21T15:51:42Z</time>
      </trkpt>
      <trkpt lat="64.234255040064454" lon="10.939899003133178">
        <ele>215.47</ele>
        <time>2017-06-21T15:51:51Z</time>
      </trkpt>
      <trkpt lat="64.234036020934582" lon="10.944648021832108">
        <ele>213.55000000000001</ele>
        <time>2017-06-21T15:52:00Z</time>
      </trkpt>
      <trkpt lat="64.233913980424404" lon="10.948887001723051">
        <ele>203.46000000000001</ele>
        <time>2017-06-21T15:52:09Z</time>
      </trkpt>
      <trkpt lat="64.233851032331586" lon="10.94933501444757">
        <ele>202.00999999999999</ele>
        <time>2017-06-21T15:52:10Z</time>
      </trkpt>
      <trkpt lat="64.233767967671156" lon="10.949771041050553">
        <ele>201.05000000000001</ele>
        <time>2017-06-21T15:52:11Z</time>
      </trkpt>
      <trkpt lat="64.233664032071829" lon="10.95019499771297">
        <ele>199.13</ele>
        <time>2017-06-21T15:52:12Z</time>
      </trkpt>
      <trkpt lat="64.233548026531935" lon="10.950607974082232">
        <ele>197.69</ele>
        <time>2017-06-21T15:52:13Z</time>
      </trkpt>
      <trkpt lat="64.233407964929938" lon="10.951006030663848">
        <ele>196.25</ele>
        <time>2017-06-21T15:52:14Z</time>
      </trkpt>
      <trkpt lat="64.233248960226774" lon="10.951369972899556">
        <ele>194.31999999999999</ele>
        <time>2017-06-21T15:52:15Z</time>
      </trkpt>
      <trkpt lat="64.233079981058836" lon="10.951726036146283">
        <ele>192.40000000000001</ele>
        <time>2017-06-21T15:52:16Z</time>
      </trkpt>
      <trkpt lat="64.232903961092234" lon="10.952077992260456">
        <ele>190</ele>
        <time>2017-06-21T15:52:17Z</time>
      </trkpt>
      <trkpt lat="64.232092006132007" lon="10.953900972381234">
        <ele>182.78999999999999</ele>
        <time>2017-06-21T15:52:22Z</time>
      </trkpt>
      <trkpt lat="64.231976000592113" lon="10.954326018691063">
        <ele>182.31</ele>
        <time>2017-06-21T15:52:23Z</time>
      </trkpt>
      <trkpt lat="64.231878016144037" lon="10.954769002273679">
        <ele>182.31</ele>
        <time>2017-06-21T15:52:24Z</time>
      </trkpt>
      <trkpt lat="64.231791011989117" lon="10.955230006948113">
        <ele>182.78999999999999</ele>
        <time>2017-06-21T15:52:25Z</time>
      </trkpt>
      <trkpt lat="64.231709036976099" lon="10.955693023279309">
        <ele>183.27000000000001</ele>
        <time>2017-06-21T15:52:26Z</time>
      </trkpt>
      <trkpt lat="64.230279000476003" lon="10.963960010558367">
        <ele>173.66</ele>
        <time>2017-06-21T15:52:44Z</time>
      </trkpt>
      <trkpt lat="64.230162994936109" lon="10.964364018291235">
        <ele>173.16999999999999</ele>
        <time>2017-06-21T15:52:45Z</time>
      </trkpt>
      <trkpt lat="64.229475008323789" lon="10.966927036643028">
        <ele>167.41</ele>
        <time>2017-06-21T15:52:51Z</time>
      </trkpt>
      <trkpt lat="64.229407031089067" lon="10.96740597859025">
        <ele>166.93000000000001</ele>
        <time>2017-06-21T15:52:52Z</time>
      </trkpt>
      <trkpt lat="64.229363026097417" lon="10.967890033498406">
        <ele>166.44999999999999</ele>
        <time>2017-06-21T15:52:53Z</time>
      </trkpt>
      <trkpt lat="64.22932798974216" lon="10.968386996537447">
        <ele>165.96000000000001</ele>
        <time>2017-06-21T15:52:54Z</time>
      </trkpt>
      <trkpt lat="64.229303011670709" lon="10.968877002596855">
        <ele>165</ele>
        <time>2017-06-21T15:52:55Z</time>
      </trkpt>
      <trkpt lat="64.229106958955526" lon="10.974320964887738">
        <ele>153.94999999999999</ele>
        <time>2017-06-21T15:53:06Z</time>
      </trkpt>
      <trkpt lat="64.229045016691089" lon="10.97475104033947">
        <ele>152.50999999999999</ele>
        <time>2017-06-21T15:53:07Z</time>
      </trkpt>
      <trkpt lat="64.228967987000942" lon="10.975123029202223">
        <ele>151.53999999999999</ele>
        <time>2017-06-21T15:53:08Z</time>
      </trkpt>
      <trkpt lat="64.228896992281079" lon="10.975402984768152">
        <ele>150.09999999999999</ele>
        <time>2017-06-21T15:53:09Z</time>
      </trkpt>
      <trkpt lat="64.228824991732836" lon="10.97561496309936">
        <ele>148.66</ele>
        <time>2017-06-21T15:53:10Z</time>
      </trkpt>
      <trkpt lat="64.228735975921154" lon="10.975771034136415">
        <ele>147.69999999999999</ele>
        <time>2017-06-21T15:53:11Z</time>
      </trkpt>
      <trkpt lat="64.228631034493446" lon="10.975878993049264">
        <ele>146.74000000000001</ele>
        <time>2017-06-21T15:53:12Z</time>
      </trkpt>
      <trkpt lat="64.228513017296791" lon="10.975972032174468">
        <ele>145.78</ele>
        <time>2017-06-21T15:53:13Z</time>
      </trkpt>
      <trkpt lat="64.228377984836698" lon="10.976039003580809">
        <ele>143.84999999999999</ele>
        <time>2017-06-21T15:53:14Z</time>
      </trkpt>
      <trkpt lat="64.228226020932198" lon="10.976078985258937">
        <ele>142.41</ele>
        <time>2017-06-21T15:53:15Z</time>
      </trkpt>
      <trkpt lat="64.228058969601989" lon="10.976096000522375">
        <ele>140.49000000000001</ele>
        <time>2017-06-21T15:53:16Z</time>
      </trkpt>
      <trkpt lat="64.227140983566642" lon="10.976346032693982">
        <ele>136.16</ele>
        <time>2017-06-21T15:53:21Z</time>
      </trkpt>
      <trkpt lat="64.226967981085181" lon="10.976505959406495">
        <ele>136.16</ele>
        <time>2017-06-21T15:53:22Z</time>
      </trkpt>
      <trkpt lat="64.226808976382017" lon="10.976702012121677">
        <ele>136.63999999999999</ele>
        <time>2017-06-21T15:53:23Z</time>
      </trkpt>
      <trkpt lat="64.225405007600784" lon="10.979167968034744">
        <ele>127.98999999999999</ele>
        <time>2017-06-21T15:53:32Z</time>
      </trkpt>
      <trkpt lat="64.224647032096982" lon="10.981861995533109">
        <ele>132.31999999999999</ele>
        <time>2017-06-21T15:53:39Z</time>
      </trkpt>
      <trkpt lat="64.224401023238897" lon="10.984849976375699">
        <ele>125.11</ele>
        <time>2017-06-21T15:53:46Z</time>
      </trkpt>
      <trkpt lat="64.224361963570118" lon="10.990401981398463">
        <ele>115.01000000000001</ele>
        <time>2017-06-21T15:53:57Z</time>
      </trkpt>
      <trkpt lat="64.224461037665606" lon="10.992645984515548">
        <ele>113.56999999999999</ele>
        <time>2017-06-21T15:54:02Z</time>
      </trkpt>
      <trkpt lat="64.224527003243566" lon="10.993031971156597">
        <ele>113.56999999999999</ele>
        <time>2017-06-21T15:54:03Z</time>
      </trkpt>
      <trkpt lat="64.224611995741725" lon="10.993377976119518">
        <ele>114.05</ele>
        <time>2017-06-21T15:54:04Z</time>
      </trkpt>
      <trkpt lat="64.224718026816845" lon="10.993696991354227">
        <ele>114.53</ele>
        <time>2017-06-21T15:54:05Z</time>
      </trkpt>
      <trkpt lat="64.22483897767961" lon="10.993983987718821">
        <ele>115.01000000000001</ele>
        <time>2017-06-21T15:54:06Z</time>
      </trkpt>
      <trkpt lat="64.224978033453226" lon="10.994237037375569">
        <ele>115.98</ele>
        <time>2017-06-21T15:54:07Z</time>
      </trkpt>
      <trkpt lat="64.225124968215823" lon="10.994473993778229">
        <ele>116.45999999999999</ele>
        <time>2017-06-21T15:54:08Z</time>
      </trkpt>
      <trkpt lat="64.225281039252877" lon="10.994693012908101">
        <ele>117.42</ele>
        <time>2017-06-21T15:54:09Z</time>
      </trkpt>
      <trkpt lat="64.226699005812407" lon="10.997158968821168">
        <ele>121.73999999999999</ele>
        <time>2017-06-21T15:54:18Z</time>
      </trkpt>
      <trkpt lat="64.227506015449762" lon="11.000085007399321">
        <ele>120.3</ele>
        <time>2017-06-21T15:54:25Z</time>
      </trkpt>
      <trkpt lat="64.228048995137215" lon="11.003740020096302">
        <ele>125.59</ele>
        <time>2017-06-21T15:54:33Z</time>
      </trkpt>
      <trkpt lat="64.228044971823692" lon="11.007515983656049">
        <ele>129.91999999999999</ele>
        <time>2017-06-21T15:54:41Z</time>
      </trkpt>
      <trkpt lat="64.227596037089825" lon="11.013091960921884">
        <ele>111.17</ele>
        <time>2017-06-21T15:54:52Z</time>
      </trkpt>
      <trkpt lat="64.227295964956284" lon="11.020227978006005">
        <ele>114.05</ele>
        <time>2017-06-21T15:55:06Z</time>
      </trkpt>
      <trkpt lat="64.227195968851447" lon="11.027575973421335">
        <ele>128.94999999999999</ele>
        <time>2017-06-21T15:55:21Z</time>
      </trkpt>
      <trkpt lat="64.227341981604695" lon="11.028448026627302">
        <ele>127.98999999999999</ele>
        <time>2017-06-21T15:55:23Z</time>
      </trkpt>
      <trkpt lat="64.22743896022439" lon="11.028864020481706">
        <ele>127.51000000000001</ele>
        <time>2017-06-21T15:55:24Z</time>
      </trkpt>
      <trkpt lat="64.227555971592665" lon="11.029251012951136">
        <ele>127.03</ele>
        <time>2017-06-21T15:55:25Z</time>
      </trkpt>
      <trkpt lat="64.227685974910855" lon="11.029618978500366">
        <ele>126.06999999999999</ele>
        <time>2017-06-21T15:55:26Z</time>
      </trkpt>
      <trkpt lat="64.227827964350581" lon="11.029978981241584">
        <ele>124.63</ele>
        <time>2017-06-21T15:55:27Z</time>
      </trkpt>
      <trkpt lat="64.228747962042689" lon="11.032922035083175">
        <ele>117.42</ele>
        <time>2017-06-21T15:55:34Z</time>
      </trkpt>
      <trkpt lat="64.230640009045601" lon="11.039704000577331">
        <ele>118.38</ele>
        <time>2017-06-21T15:55:49Z</time>
      </trkpt>
      <trkpt lat="64.232243970036507" lon="11.045545013621449">
        <ele>119.81999999999999</ele>
        <time>2017-06-21T15:56:02Z</time>
      </trkpt>
      <trkpt lat="64.232933968305588" lon="11.048195958137512">
        <ele>111.65000000000001</ele>
        <time>2017-06-21T15:56:08Z</time>
      </trkpt>
      <trkpt lat="64.233081992715597" lon="11.048574987798929">
        <ele>110.20999999999999</ele>
        <time>2017-06-21T15:56:09Z</time>
      </trkpt>
      <trkpt lat="64.233243009075522" lon="11.048937002196908">
        <ele>109.25</ele>
        <time>2017-06-21T15:56:10Z</time>
      </trkpt>
      <trkpt lat="64.235031036660075" lon="11.052250033244491">
        <ele>104.92</ele>
        <time>2017-06-21T15:56:20Z</time>
      </trkpt>
      <trkpt lat="64.236683025956154" lon="11.055397018790245">
        <ele>103.48</ele>
        <time>2017-06-21T15:56:30Z</time>
      </trkpt>
      <trkpt lat="64.237280990928411" lon="11.057524010539055">
        <ele>102.52</ele>
        <time>2017-06-21T15:56:36Z</time>
      </trkpt>
      <trkpt lat="64.237447958439589" lon="11.058099009096622">
        <ele>102.04000000000001</ele>
        <time>2017-06-21T15:56:38Z</time>
      </trkpt>
      <trkpt lat="64.237558012828231" lon="11.058303024619818">
        <ele>102.04000000000001</ele>
        <time>2017-06-21T15:56:39Z</time>
      </trkpt>
      <trkpt lat="64.237683992832899" lon="11.058423975482583">
        <ele>102.52</ele>
        <time>2017-06-21T15:56:40Z</time>
      </trkpt>
      <trkpt lat="64.237822964787483" lon="11.058463035151362">
        <ele>102.52</ele>
        <time>2017-06-21T15:56:41Z</time>
      </trkpt>
      <trkpt lat="64.237968977540731" lon="11.058451971039176">
        <ele>102.52</ele>
        <time>2017-06-21T15:56:42Z</time>
      </trkpt>
      <trkpt lat="64.238122031092644" lon="11.058412995189428">
        <ele>102.52</ele>
        <time>2017-06-21T15:56:43Z</time>
      </trkpt>
      <trkpt lat="64.239153005182743" lon="11.058227000758052">
        <ele>106.36</ele>
        <time>2017-06-21T15:56:49Z</time>
      </trkpt>
      <trkpt lat="64.239325001835823" lon="11.058291038498282">
        <ele>106.84</ele>
        <time>2017-06-21T15:56:50Z</time>
      </trkpt>
      <trkpt lat="64.239494986832142" lon="11.058400003239512">
        <ele>108.29000000000001</ele>
        <time>2017-06-21T15:56:51Z</time>
      </trkpt>
      <trkpt lat="64.239657009020448" lon="11.058560013771057">
        <ele>109.25</ele>
        <time>2017-06-21T15:56:52Z</time>
      </trkpt>
      <trkpt lat="64.239807967096567" lon="11.058789007365704">
        <ele>110.69</ele>
        <time>2017-06-21T15:56:53Z</time>
      </trkpt>
      <trkpt lat="64.239946017041802" lon="11.059077009558678">
        <ele>111.65000000000001</ele>
        <time>2017-06-21T15:56:54Z</time>
      </trkpt>
      <trkpt lat="64.240066967904568" lon="11.059413962066174">
        <ele>113.09</ele>
        <time>2017-06-21T15:56:55Z</time>
      </trkpt>
      <trkpt lat="64.240170987322927" lon="11.059799026697874">
        <ele>114.53</ele>
        <time>2017-06-21T15:56:56Z</time>
      </trkpt>
      <trkpt lat="64.240255979821086" lon="11.06022197753191">
        <ele>115.5</ele>
        <time>2017-06-21T15:56:57Z</time>
      </trkpt>
      <trkpt lat="64.240330997854471" lon="11.06067200191319">
        <ele>116.45999999999999</ele>
        <time>2017-06-21T15:56:58Z</time>
      </trkpt>
      <trkpt lat="64.240397969260812" lon="11.061139041557908">
        <ele>117.42</ele>
        <time>2017-06-21T15:56:59Z</time>
      </trkpt>
      <trkpt lat="64.24140203744173" lon="11.068038018420339">
        <ele>126.06999999999999</ele>
        <time>2017-06-21T15:57:13Z</time>
      </trkpt>
      <trkpt lat="64.242625962942839" lon="11.075977021828294">
        <ele>115.5</ele>
        <time>2017-06-21T15:57:29Z</time>
      </trkpt>
      <trkpt lat="64.2436140216887" lon="11.080671977251768">
        <ele>107.81</ele>
        <time>2017-06-21T15:57:39Z</time>
      </trkpt>
      <trkpt lat="64.244155995547771" lon="11.083815023303032">
        <ele>105.88</ele>
        <time>2017-06-21T15:57:46Z</time>
      </trkpt>
      <trkpt lat="64.244289016351104" lon="11.084180977195501">
        <ele>105.40000000000001</ele>
        <time>2017-06-21T15:57:47Z</time>
      </trkpt>
      <trkpt lat="64.244435029104352" lon="11.084523964673281">
        <ele>105.40000000000001</ele>
        <time>2017-06-21T15:57:48Z</time>
      </trkpt>
      <trkpt lat="64.245758028700948" lon="11.087713027372956">
        <ele>106.36</ele>
        <time>2017-06-21T15:57:57Z</time>
      </trkpt>
      <trkpt lat="64.247043980285525" lon="11.090793963521719">
        <ele>117.90000000000001</ele>
        <time>2017-06-21T15:58:06Z</time>
      </trkpt>
      <trkpt lat="64.249186981469393" lon="11.093430994078517">
        <ele>126.55</ele>
        <time>2017-06-21T15:58:17Z</time>
      </trkpt>
      <trkpt lat="64.249568022787571" lon="11.093916976824403">
        <ele>126.06999999999999</ele>
        <time>2017-06-21T15:58:19Z</time>
      </trkpt>
      <trkpt lat="64.24973800778389" lon="11.094224005937576">
        <ele>126.06999999999999</ele>
        <time>2017-06-21T15:58:20Z</time>
      </trkpt>
      <trkpt lat="64.249898018315434" lon="11.094566993415356">
        <ele>126.06999999999999</ele>
        <time>2017-06-21T15:58:21Z</time>
      </trkpt>
      <trkpt lat="64.251244990155101" lon="11.098216976970434">
        <ele>124.15000000000001</ele>
        <time>2017-06-21T15:58:30Z</time>
      </trkpt>
      <trkpt lat="64.251360995694995" lon="11.09870002605021">
        <ele>125.11</ele>
        <time>2017-06-21T15:58:31Z</time>
      </trkpt>
      <trkpt lat="64.251461997628212" lon="11.099196989089251">
        <ele>126.06999999999999</ele>
        <time>2017-06-21T15:58:32Z</time>
      </trkpt>
      <trkpt lat="64.253042992204428" lon="11.107863038778305">
        <ele>128.94999999999999</ele>
        <time>2017-06-21T15:58:49Z</time>
      </trkpt>
      <trkpt lat="64.25450898706913" lon="11.116046039387584">
        <ele>128.47</ele>
        <time>2017-06-21T15:59:06Z</time>
      </trkpt>
      <trkpt lat="64.25478802062571" lon="11.12001596018672">
        <ele>131.36000000000001</ele>
        <time>2017-06-21T15:59:14Z</time>
      </trkpt>
      <trkpt lat="64.254894973710179" lon="11.124762967228889">
        <ele>126.06999999999999</ele>
        <time>2017-06-21T15:59:24Z</time>
      </trkpt>
      <trkpt lat="64.254867983981967" lon="11.125743985176086">
        <ele>123.19</ele>
        <time>2017-06-21T15:59:26Z</time>
      </trkpt>
      <trkpt lat="64.254814004525542" lon="11.126210018992424">
        <ele>122.70999999999999</ele>
        <time>2017-06-21T15:59:27Z</time>
      </trkpt>
      <trkpt lat="64.254735969007015" lon="11.126649985089898">
        <ele>121.73999999999999</ele>
        <time>2017-06-21T15:59:28Z</time>
      </trkpt>
      <trkpt lat="64.254631027579308" lon="11.127068996429443">
        <ele>121.26000000000001</ele>
        <time>2017-06-21T15:59:29Z</time>
      </trkpt>
      <trkpt lat="64.254513010382652" lon="11.12746998667717">
        <ele>120.78</ele>
        <time>2017-06-21T15:59:30Z</time>
      </trkpt>
      <trkpt lat="64.254373032599688" lon="11.127838036045432">
        <ele>120.78</ele>
        <time>2017-06-21T15:59:31Z</time>
      </trkpt>
      <trkpt lat="64.254218973219395" lon="11.128166019916534">
        <ele>120.78</ele>
        <time>2017-06-21T15:59:32Z</time>
      </trkpt>
      <trkpt lat="64.254049994051456" lon="11.128454022109509">
        <ele>121.26000000000001</ele>
        <time>2017-06-21T15:59:33Z</time>
      </trkpt>
      <trkpt lat="64.253870034590364" lon="11.128708999603987">
        <ele>121.73999999999999</ele>
        <time>2017-06-21T15:59:34Z</time>
      </trkpt>
      <trkpt lat="64.253680016845465" lon="11.128942016512156">
        <ele>122.70999999999999</ele>
        <time>2017-06-21T15:59:35Z</time>
      </trkpt>
      <trkpt lat="64.253185987472534" lon="11.129634026437998">
        <ele>124.15000000000001</ele>
        <time>2017-06-21T15:59:38Z</time>
      </trkpt>
      <trkpt lat="64.253056989982724" lon="11.129920016974211">
        <ele>123.67</ele>
        <time>2017-06-21T15:59:39Z</time>
      </trkpt>
      <trkpt lat="64.252949031069875" lon="11.130248000845313">
        <ele>123.19</ele>
        <time>2017-06-21T15:59:40Z</time>
      </trkpt>
      <trkpt lat="64.252859009429812" lon="11.130617978051305">
        <ele>122.70999999999999</ele>
        <time>2017-06-21T15:59:41Z</time>
      </trkpt>
      <trkpt lat="64.252791032195091" lon="11.131026009097695">
        <ele>122.22</ele>
        <time>2017-06-21T15:59:42Z</time>
      </trkpt>
      <trkpt lat="64.252745015546679" lon="11.13146698102355">
        <ele>121.73999999999999</ele>
        <time>2017-06-21T15:59:43Z</time>
      </trkpt>
      <trkpt lat="64.252711990848184" lon="11.131925974041224">
        <ele>121.26000000000001</ele>
        <time>2017-06-21T15:59:44Z</time>
      </trkpt>
      <trkpt lat="64.252260038629174" lon="11.135191982612014">
        <ele>118.38</ele>
        <time>2017-06-21T15:59:51Z</time>
      </trkpt>
      <trkpt lat="64.251400977373123" lon="11.139720976352692">
        <ele>118.86</ele>
        <time>2017-06-21T16:00:01Z</time>
      </trkpt>
      <trkpt lat="64.251378010958433" lon="11.140162032097578">
        <ele>118.38</ele>
        <time>2017-06-21T16:00:02Z</time>
      </trkpt>
      <trkpt lat="64.251380022615194" lon="11.140608033165336">
        <ele>118.38</ele>
        <time>2017-06-21T16:00:03Z</time>
      </trkpt>
      <trkpt lat="64.251405000686646" lon="11.141064008697867">
        <ele>117.90000000000001</ele>
        <time>2017-06-21T16:00:04Z</time>
      </trkpt>
      <trkpt lat="64.251447999849916" lon="11.141527025029063">
        <ele>117.42</ele>
        <time>2017-06-21T16:00:05Z</time>
      </trkpt>
      <trkpt lat="64.251504996791482" lon="11.141992975026369">
        <ele>116.94</ele>
        <time>2017-06-21T16:00:06Z</time>
      </trkpt>
      <trkpt lat="64.251816971227527" lon="11.143831964582205">
        <ele>112.13</ele>
        <time>2017-06-21T16:00:10Z</time>
      </trkpt>
      <trkpt lat="64.251935994252563" lon="11.144252987578511">
        <ele>110.20999999999999</ele>
        <time>2017-06-21T16:00:11Z</time>
      </trkpt>
      <trkpt lat="64.252417031675577" lon="11.145915035158396">
        <ele>103.95999999999999</ele>
        <time>2017-06-21T16:00:15Z</time>
      </trkpt>
      <trkpt lat="64.252501018345356" lon="11.146371010690928">
        <ele>102.04000000000001</ele>
        <time>2017-06-21T16:00:16Z</time>
      </trkpt>
      <trkpt lat="64.252565978094935" lon="11.146844001486897">
        <ele>100.59999999999999</ele>
        <time>2017-06-21T16:00:17Z</time>
      </trkpt>
      <trkpt lat="64.252607971429825" lon="11.147320009768009">
        <ele>99.629999999999995</ele>
        <time>2017-06-21T16:00:18Z</time>
      </trkpt>
      <trkpt lat="64.252625992521644" lon="11.147800963371992">
        <ele>98.189999999999998</ele>
        <time>2017-06-21T16:00:19Z</time>
      </trkpt>
      <trkpt lat="64.252621969208121" lon="11.14828996360302">
        <ele>97.230000000000004</ele>
        <time>2017-06-21T16:00:20Z</time>
      </trkpt>
      <trkpt lat="64.252593973651528" lon="11.148778963834047">
        <ele>95.790000000000006</ele>
        <time>2017-06-21T16:00:21Z</time>
      </trkpt>
      <trkpt lat="64.252548962831497" lon="11.149273999035358">
        <ele>94.829999999999998</ele>
        <time>2017-06-21T16:00:22Z</time>
      </trkpt>
      <trkpt lat="64.252495989203453" lon="11.149767022579908">
        <ele>93.870000000000005</ele>
        <time>2017-06-21T16:00:23Z</time>
      </trkpt>
      <trkpt lat="64.251834992319345" lon="11.154600027948618">
        <ele>84.25</ele>
        <time>2017-06-21T16:00:33Z</time>
      </trkpt>
      <trkpt lat="64.251167960464954" lon="11.15926899947226">
        <ele>71.760000000000005</ele>
        <time>2017-06-21T16:00:43Z</time>
      </trkpt>
      <trkpt lat="64.251044997945428" lon="11.162587981671095">
        <ele>63.579999999999998</ele>
        <time>2017-06-21T16:00:50Z</time>
      </trkpt>
      <trkpt lat="64.251467026770115" lon="11.165742008015513">
        <ele>59.740000000000002</ele>
        <time>2017-06-21T16:00:57Z</time>
      </trkpt>
      <trkpt lat="64.252228019759059" lon="11.170125994831324">
        <ele>51.090000000000003</ele>
        <time>2017-06-21T16:01:07Z</time>
      </trkpt>
      <trkpt lat="64.252261966466904" lon="11.173026971518993">
        <ele>43.880000000000003</ele>
        <time>2017-06-21T16:01:14Z</time>
      </trkpt>
      <trkpt lat="64.252171022817492" lon="11.173810008913279">
        <ele>42.920000000000002</ele>
        <time>2017-06-21T16:01:16Z</time>
      </trkpt>
      <trkpt lat="64.25210296176374" lon="11.174174034968019">
        <ele>42.920000000000002</ele>
        <time>2017-06-21T16:01:17Z</time>
      </trkpt>
      <trkpt lat="64.252027021721005" lon="11.174538983032107">
        <ele>42.439999999999998</ele>
        <time>2017-06-21T16:01:18Z</time>
      </trkpt>
      <trkpt lat="64.251937000080943" lon="11.174894040450454">
        <ele>42.439999999999998</ele>
        <time>2017-06-21T16:01:19Z</time>
      </trkpt>
      <trkpt lat="64.251834992319345" lon="11.175236022099853">
        <ele>42.439999999999998</ele>
        <time>2017-06-21T16:01:20Z</time>
      </trkpt>
      <trkpt lat="64.251725021749735" lon="11.175561994314194">
        <ele>42.920000000000002</ele>
        <time>2017-06-21T16:01:21Z</time>
      </trkpt>
      <trkpt lat="64.250359022989869" lon="11.179232010617852">
        <ele>43.399999999999999</ele>
        <time>2017-06-21T16:01:33Z</time>
      </trkpt>
      <trkpt lat="64.249858036637306" lon="11.181834004819393">
        <ele>40.509999999999998</ele>
        <time>2017-06-21T16:01:40Z</time>
      </trkpt>
      <trkpt lat="64.249830963090062" lon="11.184596009552479">
        <ele>37.149999999999999</ele>
        <time>2017-06-21T16:01:47Z</time>
      </trkpt>
      <trkpt lat="64.249876979738474" lon="11.184960035607219">
        <ele>37.149999999999999</ele>
        <time>2017-06-21T16:01:48Z</time>
      </trkpt>
      <trkpt lat="64.249940011650324" lon="11.185311991721392">
        <ele>36.670000000000002</ele>
        <time>2017-06-21T16:01:49Z</time>
      </trkpt>
      <trkpt lat="64.250017963349819" lon="11.18565397337079">
        <ele>36.670000000000002</ele>
        <time>2017-06-21T16:01:50Z</time>
      </trkpt>
      <trkpt lat="64.250113014131784" lon="11.185980029404163">
        <ele>36.670000000000002</ele>
        <time>2017-06-21T16:01:51Z</time>
      </trkpt>
      <trkpt lat="64.250220973044634" lon="11.186287980526686">
        <ele>36.189999999999998</ele>
        <time>2017-06-21T16:01:52Z</time>
      </trkpt>
      <trkpt lat="64.25034100189805" lon="11.186572965234518">
        <ele>36.189999999999998</ele>
        <time>2017-06-21T16:01:53Z</time>
      </trkpt>
      <trkpt lat="64.250472011044621" lon="11.186838001012802">
        <ele>35.710000000000001</ele>
        <time>2017-06-21T16:01:54Z</time>
      </trkpt>
      <trkpt lat="64.250614000484347" lon="11.187075041234493">
        <ele>35.710000000000001</ele>
        <time>2017-06-21T16:01:55Z</time>
      </trkpt>
      <trkpt lat="64.250766970217228" lon="11.187272015959024">
        <ele>35.710000000000001</ele>
        <time>2017-06-21T16:01:56Z</time>
      </trkpt>
      <trkpt lat="64.250927986577153" lon="11.18743697181344">
        <ele>35.710000000000001</ele>
        <time>2017-06-21T16:01:57Z</time>
      </trkpt>
      <trkpt lat="64.251096965745091" lon="11.18756496347487">
        <ele>35.710000000000001</ele>
        <time>2017-06-21T16:01:58Z</time>
      </trkpt>
      <trkpt lat="64.251269968226552" lon="11.187653979286551">
        <ele>35.710000000000001</ele>
        <time>2017-06-21T16:01:59Z</time>
      </trkpt>
      <trkpt lat="64.251444982364774" lon="11.187701001763344">
        <ele>35.710000000000001</ele>
        <time>2017-06-21T16:02:00Z</time>
      </trkpt>
      <trkpt lat="64.251621002331376" lon="11.18771399371326">
        <ele>35.229999999999997</ele>
        <time>2017-06-21T16:02:01Z</time>
      </trkpt>
      <trkpt lat="64.25180003978312" lon="11.187707036733627">
        <ele>35.229999999999997</ele>
        <time>2017-06-21T16:02:02Z</time>
      </trkpt>
      <trkpt lat="64.253617990761995" lon="11.187719022855163">
        <ele>23.690000000000001</ele>
        <time>2017-06-21T16:02:12Z</time>
      </trkpt>
      <trkpt lat="64.25502598285675" lon="11.188430981710553">
        <ele>17.920000000000002</ele>
        <time>2017-06-21T16:02:19Z</time>
      </trkpt>
      <trkpt lat="64.255210971459746" lon="11.188431987538934">
        <ele>17.440000000000001</ele>
        <time>2017-06-21T16:02:20Z</time>
      </trkpt>
      <trkpt lat="64.255391014739871" lon="11.188368033617735">
        <ele>16.960000000000001</ele>
        <time>2017-06-21T16:02:21Z</time>
      </trkpt>
      <trkpt lat="64.255566028878093" lon="11.188278011977673">
        <ele>16.48</ele>
        <time>2017-06-21T16:02:22Z</time>
      </trkpt>
      <trkpt lat="64.255726961418986" lon="11.188150020316243">
        <ele>16</ele>
        <time>2017-06-21T16:02:23Z</time>
      </trkpt>
      <trkpt lat="64.255876997485757" lon="11.187991015613079">
        <ele>15.52</ele>
        <time>2017-06-21T16:02:24Z</time>
      </trkpt>
      <trkpt lat="64.256307994946837" lon="11.187602011486888">
        <ele>12.630000000000001</ele>
        <time>2017-06-21T16:02:27Z</time>
      </trkpt>
      <trkpt lat="64.256449984386563" lon="11.187561023980379">
        <ele>11.67</ele>
        <time>2017-06-21T16:02:28Z</time>
      </trkpt>
      <trkpt lat="64.256589962169528" lon="11.187580972909927">
        <ele>11.67</ele>
        <time>2017-06-21T16:02:29Z</time>
      </trkpt>
      <trkpt lat="64.256723988801241" lon="11.187662025913596">
        <ele>11.19</ele>
        <time>2017-06-21T16:02:30Z</time>
      </trkpt>
      <trkpt lat="64.256854997947812" lon="11.187804015353322">
        <ele>11.19</ele>
        <time>2017-06-21T16:02:31Z</time>
      </trkpt>
      <trkpt lat="64.256985001266003" lon="11.187978023663163">
        <ele>10.710000000000001</ele>
        <time>2017-06-21T16:02:32Z</time>
      </trkpt>
      <trkpt lat="64.257119027897716" lon="11.188180027529597">
        <ele>10.710000000000001</ele>
        <time>2017-06-21T16:02:33Z</time>
      </trkpt>
      <trkpt lat="64.258029973134398" lon="11.189399007707834">
        <ele>11.19</ele>
        <time>2017-06-21T16:02:39Z</time>
      </trkpt>
      <trkpt lat="64.258208004757762" lon="11.18954099714756">
        <ele>11.67</ele>
        <time>2017-06-21T16:02:40Z</time>
      </trkpt>
      <trkpt lat="64.2583960108459" lon="11.189637975767255">
        <ele>12.15</ele>
        <time>2017-06-21T16:02:41Z</time>
      </trkpt>
      <trkpt lat="64.260185966268182" lon="11.190302995964885">
        <ele>17.920000000000002</ele>
        <time>2017-06-21T16:02:51Z</time>
      </trkpt>
      <trkpt lat="64.260336002334952" lon="11.190472980961204">
        <ele>18.399999999999999</ele>
        <time>2017-06-21T16:02:52Z</time>
      </trkpt>
      <trkpt lat="64.260473968461156" lon="11.190654030069709">
        <ele>18.879999999999999</ele>
        <time>2017-06-21T16:02:53Z</time>
      </trkpt>
      <trkpt lat="64.260603971779346" lon="11.190872965380549">
        <ele>19.84</ele>
        <time>2017-06-21T16:02:54Z</time>
      </trkpt>
      <trkpt lat="64.260729029774666" lon="11.191124003380537">
        <ele>20.809999999999999</ele>
        <time>2017-06-21T16:02:55Z</time>
      </trkpt>
      <trkpt lat="64.260840006172657" lon="11.191412005573511">
        <ele>21.289999999999999</ele>
        <time>2017-06-21T16:02:56Z</time>
      </trkpt>
      <trkpt lat="64.260941008105874" lon="11.191719034686685">
        <ele>20.809999999999999</ele>
        <time>2017-06-21T16:02:57Z</time>
      </trkpt>
      <trkpt lat="64.261032035574317" lon="11.192056993022561">
        <ele>21.289999999999999</ele>
        <time>2017-06-21T16:02:58Z</time>
      </trkpt>
      <trkpt lat="64.261110993102193" lon="11.192407021299005">
        <ele>21.77</ele>
        <time>2017-06-21T16:02:59Z</time>
      </trkpt>
      <trkpt lat="64.261174025014043" lon="11.192781021818519">
        <ele>21.77</ele>
        <time>2017-06-21T16:03:00Z</time>
      </trkpt>
      <trkpt lat="64.261220041662455" lon="11.193163990974426">
        <ele>22.73</ele>
        <time>2017-06-21T16:03:01Z</time>
      </trkpt>
      <trkpt lat="64.261245019733906" lon="11.193545032292604">
        <ele>22.73</ele>
        <time>2017-06-21T16:03:02Z</time>
      </trkpt>
      <trkpt lat="64.261262034997344" lon="11.193938981741667">
        <ele>22.73</ele>
        <time>2017-06-21T16:03:03Z</time>
      </trkpt>
      <trkpt lat="64.261273015290499" lon="11.194314993917942">
        <ele>22.25</ele>
        <time>2017-06-21T16:03:04Z</time>
      </trkpt>
      <trkpt lat="64.261309979483485" lon="11.196217015385628">
        <ele>20.809999999999999</ele>
        <time>2017-06-21T16:03:11Z</time>
      </trkpt>
      <trkpt lat="64.261332023888826" lon="11.196941966190934">
        <ele>20.32</ele>
        <time>2017-06-21T16:03:16Z</time>
      </trkpt>
      <trkpt lat="64.261344010010362" lon="11.197043973952532">
        <ele>20.32</ele>
        <time>2017-06-21T16:03:17Z</time>
      </trkpt>
      <trkpt lat="64.261355996131897" lon="11.197128966450691">
        <ele>20.32</ele>
        <time>2017-06-21T16:03:18Z</time>
      </trkpt>
      <trkpt lat="64.261408969759941" lon="11.197677981108427">
        <ele>19.359999999999999</ele>
        <time>2017-06-21T16:03:28Z</time>
      </trkpt>
      <trkpt lat="64.261408969759941" lon="11.197675969451666">
        <ele>19.359999999999999</ele>
        <time>2017-06-21T16:05:40Z</time>
      </trkpt>
      <trkpt lat="64.26140695810318" lon="11.197672029957175">
        <ele>19.359999999999999</ele>
        <time>2017-06-21T16:07:46Z</time>
      </trkpt>
      <trkpt lat="64.26140402443707" lon="11.197671024128795">
        <ele>19.359999999999999</ele>
        <time>2017-06-21T16:10:05Z</time>
      </trkpt>
      <trkpt lat="64.261401006951928" lon="11.197671024128795">
        <ele>19.359999999999999</ele>
        <time>2017-06-21T16:12:28Z</time>
      </trkpt>
      <trkpt lat="64.261400001123548" lon="11.197669012472034">
        <ele>19.359999999999999</ele>
        <time>2017-06-21T16:14:29Z</time>
      </trkpt>
      <trkpt lat="64.261398995295167" lon="11.197664989158511">
        <ele>19.359999999999999</ele>
        <time>2017-06-21T16:16:48Z</time>
      </trkpt>
      <trkpt lat="64.261398995295167" lon="11.197664989158511">
        <ele>19.359999999999999</ele>
        <time>2017-06-21T16:19:06Z</time>
      </trkpt>
      <trkpt lat="64.261396983638406" lon="11.197668006643653">
        <ele>19.359999999999999</ele>
        <time>2017-06-21T16:21:28Z</time>
      </trkpt>
      <trkpt lat="64.261396983638406" lon="11.197665994986892">
        <ele>18.879999999999999</ele>
        <time>2017-06-21T16:23:34Z</time>
      </trkpt>
      <trkpt lat="64.261392038315535" lon="11.197696002200246">
        <ele>19.359999999999999</ele>
        <time>2017-06-21T16:23:38Z</time>
      </trkpt>
      <trkpt lat="64.261424979194999" lon="11.197797004133463">
        <ele>19.359999999999999</ele>
        <time>2017-06-21T16:23:40Z</time>
      </trkpt>
      <trkpt lat="64.261480970308185" lon="11.197817958891392">
        <ele>19.359999999999999</ele>
        <time>2017-06-21T16:23:41Z</time>
      </trkpt>
      <trkpt lat="64.261551965028048" lon="11.197795998305082">
        <ele>19.359999999999999</ele>
        <time>2017-06-21T16:23:42Z</time>
      </trkpt>
      <trkpt lat="64.261628994718194" lon="11.197771020233631">
        <ele>19.359999999999999</ele>
        <time>2017-06-21T16:23:43Z</time>
      </trkpt>
      <trkpt lat="64.262483026832342" lon="11.197349997237325">
        <ele>18.399999999999999</ele>
        <time>2017-06-21T16:23:51Z</time>
      </trkpt>
      <trkpt lat="64.263921026140451" lon="11.196654969826341">
        <ele>15.52</ele>
        <time>2017-06-21T16:23:59Z</time>
      </trkpt>
      <trkpt lat="64.266724018380046" lon="11.195304980501533">
        <ele>12.630000000000001</ele>
        <time>2017-06-21T16:24:12Z</time>
      </trkpt>
      <trkpt lat="64.270954029634595" lon="11.193316038697958">
        <ele>9.75</ele>
        <time>2017-06-21T16:24:30Z</time>
      </trkpt>
      <trkpt lat="64.273309009149671" lon="11.192981014028192">
        <ele>5.42</ele>
        <time>2017-06-21T16:24:40Z</time>
      </trkpt>
      <trkpt lat="64.275309015065432" lon="11.193573027849197">
        <ele>1.1</ele>
        <time>2017-06-21T16:24:49Z</time>
      </trkpt>
      <trkpt lat="64.277086984366179" lon="11.193804033100605">
        <ele>3.5</ele>
        <time>2017-06-21T16:24:57Z</time>
      </trkpt>
      <trkpt lat="64.278972996398807" lon="11.194757977500558">
        <ele>3.5</ele>
        <time>2017-06-21T16:25:06Z</time>
      </trkpt>
      <trkpt lat="64.280732022598386" lon="11.195059977471828">
        <ele>3.02</ele>
        <time>2017-06-21T16:25:13Z</time>
      </trkpt>
      <trkpt lat="64.282682994380593" lon="11.194711960852146">
        <ele>4.46</ele>
        <time>2017-06-21T16:25:21Z</time>
      </trkpt>
      <trkpt lat="64.285355983301997" lon="11.194331003353">
        <ele>6.39</ele>
        <time>2017-06-21T16:25:33Z</time>
      </trkpt>
      <trkpt lat="64.287272002547979" lon="11.195195009931922">
        <ele>5.91</ele>
        <time>2017-06-21T16:25:42Z</time>
      </trkpt>
      <trkpt lat="64.288932960480452" lon="11.196743985638022">
        <ele>4.46</ele>
        <time>2017-06-21T16:25:50Z</time>
      </trkpt>
      <trkpt lat="64.292674977332354" lon="11.199215976521373">
        <ele>5.42</ele>
        <time>2017-06-21T16:26:07Z</time>
      </trkpt>
      <trkpt lat="64.294042987748981" lon="11.200577029958367">
        <ele>4.94</ele>
        <time>2017-06-21T16:26:14Z</time>
      </trkpt>
      <trkpt lat="64.296129997819662" lon="11.204585004597902">
        <ele>2.54</ele>
        <time>2017-06-21T16:26:26Z</time>
      </trkpt>
      <trkpt lat="64.298722017556429" lon="11.210203981027007">
        <ele>1.58</ele>
        <time>2017-06-21T16:26:42Z</time>
      </trkpt>
      <trkpt lat="64.299293998628855" lon="11.211321037262678">
        <ele>2.06</ele>
        <time>2017-06-21T16:26:48Z</time>
      </trkpt>
      <trkpt lat="64.299373961985111" lon="11.211413992568851">
        <ele>2.06</ele>
        <time>2017-06-21T16:26:49Z</time>
      </trkpt>
      <trkpt lat="64.299454009160399" lon="11.211484987288713">
        <ele>2.06</ele>
        <time>2017-06-21T16:26:50Z</time>
      </trkpt>
      <trkpt lat="64.299637991935015" lon="11.211644997820258">
        <ele>3.5</ele>
        <time>2017-06-21T16:26:56Z</time>
      </trkpt>
      <trkpt lat="64.299632962793112" lon="11.211633011698723">
        <ele>3.02</ele>
        <time>2017-06-21T16:28:52Z</time>
      </trkpt>
      <trkpt lat="64.299629023298621" lon="11.211641980335116">
        <ele>3.02</ele>
        <time>2017-06-21T16:30:04Z</time>
      </trkpt>
      <trkpt lat="64.299691971391439" lon="11.211730996146798">
        <ele>3.98</ele>
        <time>2017-06-21T16:30:32Z</time>
      </trkpt>
      <trkpt lat="64.299698006361723" lon="11.211751028895378">
        <ele>3.98</ele>
        <time>2017-06-21T16:30:33Z</time>
      </trkpt>
      <trkpt lat="64.299703035503626" lon="11.211787993088365">
        <ele>3.5</ele>
        <time>2017-06-21T16:30:37Z</time>
      </trkpt>
      <trkpt lat="64.299759026616812" lon="11.211938029155135">
        <ele>3.98</ele>
        <time>2017-06-21T16:30:39Z</time>
      </trkpt>
      <trkpt lat="64.299824992194772" lon="11.212017992511392">
        <ele>4.46</ele>
        <time>2017-06-21T16:30:40Z</time>
      </trkpt>
      <trkpt lat="64.300549020990729" lon="11.212706984952092">
        <ele>4.94</ele>
        <time>2017-06-21T16:30:46Z</time>
      </trkpt>
      <trkpt lat="64.302197992801666" lon="11.214799024164677">
        <ele>3.5</ele>
        <time>2017-06-21T16:30:57Z</time>
      </trkpt>
      <trkpt lat="64.303574971854687" lon="11.216614963486791">
        <ele>3.98</ele>
        <time>2017-06-21T16:31:05Z</time>
      </trkpt>
      <trkpt lat="64.306619027629495" lon="11.220294032245874">
        <ele>2.06</ele>
        <time>2017-06-21T16:31:20Z</time>
      </trkpt>
      <trkpt lat="64.30966098792851" lon="11.224000006914139">
        <ele>3.02</ele>
        <time>2017-06-21T16:31:36Z</time>
      </trkpt>
      <trkpt lat="64.311356982216239" lon="11.226018033921719">
        <ele>3.98</ele>
        <time>2017-06-21T16:31:46Z</time>
      </trkpt>
      <trkpt lat="64.312638994306326" lon="11.227972023189068">
        <ele>3.98</ele>
        <time>2017-06-21T16:31:54Z</time>
      </trkpt>
      <trkpt lat="64.313494032248855" lon="11.230800999328494">
        <ele>-0.82</ele>
        <time>2017-06-21T16:32:01Z</time>
      </trkpt>
      <trkpt lat="64.314985005185008" lon="11.235069986432791">
        <ele>-1.79</ele>
        <time>2017-06-21T16:32:12Z</time>
      </trkpt>
      <trkpt lat="64.316478995606303" lon="11.237061023712158">
        <ele>-1.3</ele>
        <time>2017-06-21T16:32:20Z</time>
      </trkpt>
      <trkpt lat="64.318833975121379" lon="11.238932032138109">
        <ele>7.35</ele>
        <time>2017-06-21T16:32:32Z</time>
      </trkpt>
      <trkpt lat="64.320202991366386" lon="11.239238977432251">
        <ele>11.67</ele>
        <time>2017-06-21T16:32:39Z</time>
      </trkpt>
      <trkpt lat="64.320783019065857" lon="11.239403011277318">
        <ele>11.67</ele>
        <time>2017-06-21T16:32:42Z</time>
      </trkpt>
      <trkpt lat="64.320969013497233" lon="11.23953502625227">
        <ele>11.67</ele>
        <time>2017-06-21T16:32:43Z</time>
      </trkpt>
      <trkpt lat="64.321152996271849" lon="11.239709034562111">
        <ele>11.67</ele>
        <time>2017-06-21T16:32:44Z</time>
      </trkpt>
      <trkpt lat="64.321332033723593" lon="11.2399220187217">
        <ele>11.19</ele>
        <time>2017-06-21T16:32:45Z</time>
      </trkpt>
      <trkpt lat="64.321507969871163" lon="11.240169033408165">
        <ele>10.23</ele>
        <time>2017-06-21T16:32:46Z</time>
      </trkpt>
      <trkpt lat="64.321679966524243" lon="11.240443959832191">
        <ele>9.27</ele>
        <time>2017-06-21T16:32:47Z</time>
      </trkpt>
      <trkpt lat="64.323074966669083" lon="11.242763986811042">
        <ele>2.06</ele>
        <time>2017-06-21T16:32:55Z</time>
      </trkpt>
      <trkpt lat="64.323271019384265" lon="11.242935983464122">
        <ele>1.1</ele>
        <time>2017-06-21T16:32:56Z</time>
      </trkpt>
      <trkpt lat="64.324061013758183" lon="11.243639979511499">
        <ele>0.14</ele>
        <time>2017-06-21T16:33:00Z</time>
      </trkpt>
      <trkpt lat="64.325345037505031" lon="11.245945002883673">
        <ele>3.02</ele>
        <time>2017-06-21T16:33:08Z</time>
      </trkpt>
      <trkpt lat="64.326311973854899" lon="11.248268969357014">
        <ele>2.54</ele>
        <time>2017-06-21T16:33:15Z</time>
      </trkpt>
      <trkpt lat="64.326480031013489" lon="11.248530987650156">
        <ele>2.54</ele>
        <time>2017-06-21T16:33:16Z</time>
      </trkpt>
      <trkpt lat="64.326658984646201" lon="11.248739026486874">
        <ele>1.58</ele>
        <time>2017-06-21T16:33:17Z</time>
      </trkpt>
      <trkpt lat="64.326851014047861" lon="11.248919991776347">
        <ele>2.06</ele>
        <time>2017-06-21T16:33:18Z</time>
      </trkpt>
      <trkpt lat="64.327046982944012" lon="11.249071033671498">
        <ele>1.58</ele>
        <time>2017-06-21T16:33:19Z</time>
      </trkpt>
      <trkpt lat="64.327252004295588" lon="11.249211011454463">
        <ele>1.58</ele>
        <time>2017-06-21T16:33:20Z</time>
      </trkpt>
      <trkpt lat="64.329852992668748" lon="11.250518001616001">
        <ele>-1.79</ele>
        <time>2017-06-21T16:33:32Z</time>
      </trkpt>
      <trkpt lat="64.332825969904661" lon="11.25088102184236">
        <ele>-2.27</ele>
        <time>2017-06-21T16:33:45Z</time>
      </trkpt>
      <trkpt lat="64.333678996190429" lon="11.250889990478754">
        <ele>-0.82</ele>
        <time>2017-06-21T16:33:49Z</time>
      </trkpt>
      <trkpt lat="64.333879994228482" lon="11.250950004905462">
        <ele>-0.82</ele>
        <time>2017-06-21T16:33:50Z</time>
      </trkpt>
      <trkpt lat="64.334069006145" lon="11.251051006838679">
        <ele>-0.34</ele>
        <time>2017-06-21T16:33:51Z</time>
      </trkpt>
      <trkpt lat="64.334426997229457" lon="11.251346971839666">
        <ele>0.62</ele>
        <time>2017-06-21T16:33:53Z</time>
      </trkpt>
      <trkpt lat="64.334593964740634" lon="11.251555010676384">
        <ele>1.1</ele>
        <time>2017-06-21T16:33:54Z</time>
      </trkpt>
      <trkpt lat="64.334741989150643" lon="11.251824991777539">
        <ele>1.58</ele>
        <time>2017-06-21T16:33:55Z</time>
      </trkpt>
      <trkpt lat="64.334876015782356" lon="11.252143001183867">
        <ele>2.06</ele>
        <time>2017-06-21T16:33:56Z</time>
      </trkpt>
      <trkpt lat="64.335001995787024" lon="11.252486994490027">
        <ele>2.54</ele>
        <time>2017-06-21T16:33:57Z</time>
      </trkpt>
      <trkpt lat="64.336243020370603" lon="11.256645005196333">
        <ele>10.23</ele>
        <time>2017-06-21T16:34:08Z</time>
      </trkpt>
      <trkpt lat="64.336481988430023" lon="11.257208017632365">
        <ele>11.19</ele>
        <time>2017-06-21T16:34:10Z</time>
      </trkpt>
      <trkpt lat="64.336618026718497" lon="11.257427958771586">
        <ele>11.67</ele>
        <time>2017-06-21T16:34:11Z</time>
      </trkpt>
      <trkpt lat="64.336759010329843" lon="11.257576989009976">
        <ele>11.67</ele>
        <time>2017-06-21T16:34:12Z</time>
      </trkpt>
      <trkpt lat="64.3372050113976" lon="11.258046962320805">
        <ele>13.119999999999999</ele>
        <time>2017-06-21T16:34:15Z</time>
      </trkpt>
      <trkpt lat="64.337342977523804" lon="11.258279979228973">
        <ele>13.6</ele>
        <time>2017-06-21T16:34:16Z</time>
      </trkpt>
      <trkpt lat="64.337467029690742" lon="11.258553983643651">
        <ele>13.6</ele>
        <time>2017-06-21T16:34:17Z</time>
      </trkpt>
      <trkpt lat="64.337572976946831" lon="11.258866041898727">
        <ele>13.119999999999999</ele>
        <time>2017-06-21T16:34:18Z</time>
      </trkpt>
      <trkpt lat="64.337658975273371" lon="11.259214980527759">
        <ele>12.630000000000001</ele>
        <time>2017-06-21T16:34:19Z</time>
      </trkpt>
      <trkpt lat="64.337736004963517" lon="11.259588981047273">
        <ele>11.67</ele>
        <time>2017-06-21T16:34:20Z</time>
      </trkpt>
      <trkpt lat="64.337811022996902" lon="11.259989971294999">
        <ele>10.23</ele>
        <time>2017-06-21T16:34:21Z</time>
      </trkpt>
      <trkpt lat="64.338031969964504" lon="11.261252034455538">
        <ele>7.83</ele>
        <time>2017-06-21T16:34:24Z</time>
      </trkpt>
      <trkpt lat="64.338638987392187" lon="11.264645028859377">
        <ele>1.58</ele>
        <time>2017-06-21T16:34:31Z</time>
      </trkpt>
      <trkpt lat="64.339190013706684" lon="11.268136007711291">
        <ele>4.46</ele>
        <time>2017-06-21T16:34:39Z</time>
      </trkpt>
      <trkpt lat="64.339775992557406" lon="11.273552980273962">
        <ele>15.039999999999999</ele>
        <time>2017-06-21T16:34:51Z</time>
      </trkpt>
      <trkpt lat="64.340096013620496" lon="11.27593201585114">
        <ele>19.359999999999999</ele>
        <time>2017-06-21T16:34:56Z</time>
      </trkpt>
      <trkpt lat="64.340114034712315" lon="11.276408024132252">
        <ele>20.32</ele>
        <time>2017-06-21T16:34:57Z</time>
      </trkpt>
      <trkpt lat="64.340110011398792" lon="11.276880009099841">
        <ele>21.289999999999999</ele>
        <time>2017-06-21T16:34:58Z</time>
      </trkpt>
      <trkpt lat="64.340090984478593" lon="11.277349982410669">
        <ele>22.25</ele>
        <time>2017-06-21T16:34:59Z</time>
      </trkpt>
      <trkpt lat="64.340066006407142" lon="11.277819033712149">
        <ele>23.210000000000001</ele>
        <time>2017-06-21T16:35:00Z</time>
      </trkpt>
      <trkpt lat="64.339910019189119" lon="11.282882960513234">
        <ele>29.460000000000001</ele>
        <time>2017-06-21T16:35:11Z</time>
      </trkpt>
      <trkpt lat="64.339950000867248" lon="11.283269030973315">
        <ele>30.420000000000002</ele>
        <time>2017-06-21T16:35:12Z</time>
      </trkpt>
      <trkpt lat="64.340002974495292" lon="11.283632973209023">
        <ele>30.420000000000002</ele>
        <time>2017-06-21T16:35:13Z</time>
      </trkpt>
      <trkpt lat="64.340071035549045" lon="11.283974032849073">
        <ele>30.420000000000002</ele>
        <time>2017-06-21T16:35:14Z</time>
      </trkpt>
      <trkpt lat="64.340158961713314" lon="11.284310985356569">
        <ele>30.899999999999999</ele>
        <time>2017-06-21T16:35:15Z</time>
      </trkpt>
      <trkpt lat="64.340264992788434" lon="11.284642992541194">
        <ele>30.899999999999999</ele>
        <time>2017-06-21T16:35:16Z</time>
      </trkpt>
      <trkpt lat="64.340391978621483" lon="11.284965025261045">
        <ele>31.859999999999999</ele>
        <time>2017-06-21T16:35:17Z</time>
      </trkpt>
      <trkpt lat="64.340528016909957" lon="11.28527800552547">
        <ele>32.340000000000003</ele>
        <time>2017-06-21T16:35:18Z</time>
      </trkpt>
      <trkpt lat="64.34219098649919" lon="11.288715004920959">
        <ele>31.379999999999999</ele>
        <time>2017-06-21T16:35:29Z</time>
      </trkpt>
      <trkpt lat="64.34236298315227" lon="11.288920026272535">
        <ele>30.899999999999999</ele>
        <time>2017-06-21T16:35:30Z</time>
      </trkpt>
      <trkpt lat="64.342535985633731" lon="11.28908297047019">
        <ele>29.940000000000001</ele>
        <time>2017-06-21T16:35:31Z</time>
      </trkpt>
      <trkpt lat="64.342714017257094" lon="11.28921196796">
        <ele>29.460000000000001</ele>
        <time>2017-06-21T16:35:32Z</time>
      </trkpt>
      <trkpt lat="64.342903029173613" lon="11.289301989600062">
        <ele>29.460000000000001</ele>
        <time>2017-06-21T16:35:33Z</time>
      </trkpt>
      <trkpt lat="64.343094974756241" lon="11.28936099819839">
        <ele>28.98</ele>
        <time>2017-06-21T16:35:34Z</time>
      </trkpt>
      <trkpt lat="64.343290021643043" lon="11.289387987926602">
        <ele>28.5</ele>
        <time>2017-06-21T16:35:35Z</time>
      </trkpt>
      <trkpt lat="64.343489008024335" lon="11.289388993754983">
        <ele>28.02</ele>
        <time>2017-06-21T16:35:36Z</time>
      </trkpt>
      <trkpt lat="64.34612100943923" lon="11.289025973528624">
        <ele>26.57</ele>
        <time>2017-06-21T16:35:49Z</time>
      </trkpt>
      <trkpt lat="64.347369996830821" lon="11.289615975692868">
        <ele>24.649999999999999</ele>
        <time>2017-06-21T16:35:55Z</time>
      </trkpt>
      <trkpt lat="64.349432028830051" lon="11.292030969634652">
        <ele>26.57</ele>
        <time>2017-06-21T16:36:06Z</time>
      </trkpt>
      <trkpt lat="64.351161969825625" lon="11.294529028236866">
        <ele>29.940000000000001</ele>
        <time>2017-06-21T16:36:16Z</time>
      </trkpt>
      <trkpt lat="64.351352993398905" lon="11.294651990756392">
        <ele>30.899999999999999</ele>
        <time>2017-06-21T16:36:17Z</time>
      </trkpt>
      <trkpt lat="64.353624992072582" lon="11.295794025063515">
        <ele>42.920000000000002</ele>
        <time>2017-06-21T16:36:29Z</time>
      </trkpt>
      <trkpt lat="64.356113998219371" lon="11.297137979418039">
        <ele>48.200000000000003</ele>
        <time>2017-06-21T16:36:42Z</time>
      </trkpt>
      <trkpt lat="64.357215967029333" lon="11.298721991479397">
        <ele>41.950000000000003</ele>
        <time>2017-06-21T16:36:48Z</time>
      </trkpt>
      <trkpt lat="64.358058013021946" lon="11.301302025094628">
        <ele>32.82</ele>
        <time>2017-06-21T16:36:54Z</time>
      </trkpt>
      <trkpt lat="64.360292963683605" lon="11.309313029050827">
        <ele>22.25</ele>
        <time>2017-06-21T16:37:12Z</time>
      </trkpt>
      <trkpt lat="64.36146299354732" lon="11.312455991283059">
        <ele>10.710000000000001</ele>
        <time>2017-06-21T16:37:20Z</time>
      </trkpt>
      <trkpt lat="64.363713031634688" lon="11.316218040883541">
        <ele>5.91</ele>
        <time>2017-06-21T16:37:32Z</time>
      </trkpt>
      <trkpt lat="64.365437021479011" lon="11.319298977032304">
        <ele>4.94</ele>
        <time>2017-06-21T16:37:42Z</time>
      </trkpt>
      <trkpt lat="64.365557972341776" lon="11.319665014743805">
        <ele>3.98</ele>
        <time>2017-06-21T16:37:43Z</time>
      </trkpt>
      <trkpt lat="64.365661991760135" lon="11.32006399333477">
        <ele>3.02</ele>
        <time>2017-06-21T16:37:44Z</time>
      </trkpt>
      <trkpt lat="64.365744972601533" lon="11.320481998845935">
        <ele>2.06</ele>
        <time>2017-06-21T16:37:45Z</time>
      </trkpt>
      <trkpt lat="64.365811021998525" lon="11.32092003710568">
        <ele>1.1</ele>
        <time>2017-06-21T16:37:46Z</time>
      </trkpt>
      <trkpt lat="64.365863995626569" lon="11.321381963789463">
        <ele>0.62</ele>
        <time>2017-06-21T16:37:47Z</time>
      </trkpt>
      <trkpt lat="64.366188962012529" lon="11.326011959463358">
        <ele>-0.82</ele>
        <time>2017-06-21T16:37:57Z</time>
      </trkpt>
      <trkpt lat="64.365894002839923" lon="11.329188030213118">
        <ele>3.5</ele>
        <time>2017-06-21T16:38:04Z</time>
      </trkpt>
      <trkpt lat="64.365018010139465" lon="11.332553029060364">
        <ele>7.35</ele>
        <time>2017-06-21T16:38:12Z</time>
      </trkpt>
      <trkpt lat="64.364264979958534" lon="11.335268011316657">
        <ele>15.52</ele>
        <time>2017-06-21T16:38:19Z</time>
      </trkpt>
      <trkpt lat="64.364203959703445" lon="11.335633965209126">
        <ele>16</ele>
        <time>2017-06-21T16:38:20Z</time>
      </trkpt>
      <trkpt lat="64.364157021045685" lon="11.336003020405769">
        <ele>16</ele>
        <time>2017-06-21T16:38:21Z</time>
      </trkpt>
      <trkpt lat="64.36412600800395" lon="11.336388001218438">
        <ele>16.48</ele>
        <time>2017-06-21T16:38:22Z</time>
      </trkpt>
      <trkpt lat="64.364112010225654" lon="11.336784968152642">
        <ele>16.48</ele>
        <time>2017-06-21T16:38:23Z</time>
      </trkpt>
      <trkpt lat="64.364116033539176" lon="11.337199034169316">
        <ele>16.960000000000001</ele>
        <time>2017-06-21T16:38:24Z</time>
      </trkpt>
      <trkpt lat="64.364122990518808" lon="11.337629025802016">
        <ele>16.960000000000001</ele>
        <time>2017-06-21T16:38:25Z</time>
      </trkpt>
      <trkpt lat="64.364286018535495" lon="11.342724971473217">
        <ele>24.170000000000002</ele>
        <time>2017-06-21T16:38:36Z</time>
      </trkpt>
      <trkpt lat="64.364797985181212" lon="11.34522101841867">
        <ele>22.73</ele>
        <time>2017-06-21T16:38:42Z</time>
      </trkpt>
      <trkpt lat="64.365865001454949" lon="11.348273037001491">
        <ele>21.77</ele>
        <time>2017-06-21T16:38:49Z</time>
      </trkpt>
      <trkpt lat="64.369684970006347" lon="11.358589986339211">
        <ele>17.920000000000002</ele>
        <time>2017-06-21T16:39:12Z</time>
      </trkpt>
      <trkpt lat="64.371926039457321" lon="11.364581035450101">
        <ele>15.039999999999999</ele>
        <time>2017-06-21T16:39:26Z</time>
      </trkpt>
      <trkpt lat="64.373853961005807" lon="11.369797009974718">
        <ele>8.310000000000001</ele>
        <time>2017-06-21T16:39:39Z</time>
      </trkpt>
      <trkpt lat="64.37504100613296" lon="11.372127011418343">
        <ele>2.06</ele>
        <time>2017-06-21T16:39:46Z</time>
      </trkpt>
      <trkpt lat="64.376111039891839" lon="11.374716013669968">
        <ele>4.46</ele>
        <time>2017-06-21T16:39:53Z</time>
      </trkpt>
      <trkpt lat="64.37710102647543" lon="11.376341013237834">
        <ele>7.35</ele>
        <time>2017-06-21T16:39:59Z</time>
      </trkpt>
      <trkpt lat="64.377298001199961" lon="11.376492977142334">
        <ele>7.83</ele>
        <time>2017-06-21T16:40:00Z</time>
      </trkpt>
      <trkpt lat="64.377502016723156" lon="11.376604037359357">
        <ele>7.83</ele>
        <time>2017-06-21T16:40:01Z</time>
      </trkpt>
      <trkpt lat="64.377707038074732" lon="11.376686012372375">
        <ele>8.310000000000001</ele>
        <time>2017-06-21T16:40:02Z</time>
      </trkpt>
      <trkpt lat="64.377911975607276" lon="11.376746026799083">
        <ele>8.789999999999999</ele>
        <time>2017-06-21T16:40:03Z</time>
      </trkpt>
      <trkpt lat="64.378110961988568" lon="11.376771004870534">
        <ele>8.789999999999999</ele>
        <time>2017-06-21T16:40:04Z</time>
      </trkpt>
      <trkpt lat="64.378858041018248" lon="11.37689296156168">
        <ele>9.27</ele>
        <time>2017-06-21T16:40:08Z</time>
      </trkpt>
      <trkpt lat="64.379042023792863" lon="11.377004021778703">
        <ele>8.789999999999999</ele>
        <time>2017-06-21T16:40:09Z</time>
      </trkpt>
      <trkpt lat="64.379223994910717" lon="11.377155985683203">
        <ele>8.789999999999999</ele>
        <time>2017-06-21T16:40:10Z</time>
      </trkpt>
      <trkpt lat="64.379400014877319" lon="11.377360001206398">
        <ele>8.789999999999999</ele>
        <time>2017-06-21T16:40:11Z</time>
      </trkpt>
      <trkpt lat="64.379565976560116" lon="11.377607015892863">
        <ele>8.789999999999999</ele>
        <time>2017-06-21T16:40:12Z</time>
      </trkpt>
      <trkpt lat="64.379721963778138" lon="11.377894012257457">
        <ele>9.27</ele>
        <time>2017-06-21T16:40:13Z</time>
      </trkpt>
      <trkpt lat="64.379860013723373" lon="11.378221996128559">
        <ele>9.75</ele>
        <time>2017-06-21T16:40:14Z</time>
      </trkpt>
      <trkpt lat="64.379979036748409" lon="11.37859096750617">
        <ele>10.23</ele>
        <time>2017-06-21T16:40:15Z</time>
      </trkpt>
      <trkpt lat="64.380080960690975" lon="11.378985000774264">
        <ele>10.23</ele>
        <time>2017-06-21T16:40:16Z</time>
      </trkpt>
      <trkpt lat="64.380160002037883" lon="11.379409041255713">
        <ele>11.19</ele>
        <time>2017-06-21T16:40:17Z</time>
      </trkpt>
      <trkpt lat="64.380221022292972" lon="11.379836015403271">
        <ele>11.67</ele>
        <time>2017-06-21T16:40:18Z</time>
      </trkpt>
      <trkpt lat="64.380267960950732" lon="11.380261983722448">
        <ele>12.15</ele>
        <time>2017-06-21T16:40:19Z</time>
      </trkpt>
      <trkpt lat="64.381011016666889" lon="11.390352034941316">
        <ele>12.15</ele>
        <time>2017-06-21T16:40:40Z</time>
      </trkpt>
      <trkpt lat="64.381693974137306" lon="11.393302967771888">
        <ele>13.119999999999999</ele>
        <time>2017-06-21T16:40:47Z</time>
      </trkpt>
      <trkpt lat="64.382578013464808" lon="11.3954540155828">
        <ele>11.67</ele>
        <time>2017-06-21T16:40:54Z</time>
      </trkpt>
      <trkpt lat="64.384045014157891" lon="11.398616004735231">
        <ele>8.789999999999999</ele>
        <time>2017-06-21T16:41:06Z</time>
      </trkpt>
      <trkpt lat="64.384458996355534" lon="11.39908698387444">
        <ele>7.83</ele>
        <time>2017-06-21T16:41:09Z</time>
      </trkpt>
      <trkpt lat="64.384602997452021" lon="11.399183962494135">
        <ele>7.35</ele>
        <time>2017-06-21T16:41:10Z</time>
      </trkpt>
      <trkpt lat="64.384755967184901" lon="11.399241965264082">
        <ele>7.35</ele>
        <time>2017-06-21T16:41:11Z</time>
      </trkpt>
      <trkpt lat="64.3858059681952" lon="11.399421002715826">
        <ele>3.02</ele>
        <time>2017-06-21T16:41:19Z</time>
      </trkpt>
      <trkpt lat="64.387041963636875" lon="11.399710010737181">
        <ele>2.54</ele>
        <time>2017-06-21T16:41:29Z</time>
      </trkpt>
      <trkpt lat="64.389225030317903" lon="11.400188030675054">
        <ele>2.06</ele>
        <time>2017-06-21T16:41:43Z</time>
      </trkpt>
      <trkpt lat="64.390985984355211" lon="11.400612993165851">
        <ele>9.27</ele>
        <time>2017-06-21T16:41:53Z</time>
      </trkpt>
      <trkpt lat="64.392061969265342" lon="11.400880040600896">
        <ele>13.6</ele>
        <time>2017-06-21T16:42:02Z</time>
      </trkpt>
      <trkpt lat="64.39300300553441" lon="11.401494015008211">
        <ele>16.960000000000001</ele>
        <time>2017-06-21T16:42:09Z</time>
      </trkpt>
      <trkpt lat="64.39463596791029" lon="11.402443014085293">
        <ele>12.15</ele>
        <time>2017-06-21T16:42:19Z</time>
      </trkpt>
      <trkpt lat="64.396037003025413" lon="11.403664005920291">
        <ele>12.15</ele>
        <time>2017-06-21T16:42:27Z</time>
      </trkpt>
      <trkpt lat="64.398338003084064" lon="11.406728010624647">
        <ele>17.920000000000002</ele>
        <time>2017-06-21T16:42:41Z</time>
      </trkpt>
      <trkpt lat="64.399633007124066" lon="11.40903596766293">
        <ele>18.399999999999999</ele>
        <time>2017-06-21T16:42:49Z</time>
      </trkpt>
      <trkpt lat="64.400214040651917" lon="11.411622036248446">
        <ele>21.77</ele>
        <time>2017-06-21T16:42:55Z</time>
      </trkpt>
      <trkpt lat="64.400256033986807" lon="11.412108018994331">
        <ele>22.25</ele>
        <time>2017-06-21T16:42:56Z</time>
      </trkpt>
      <trkpt lat="64.400280006229877" lon="11.412610011175275">
        <ele>22.73</ele>
        <time>2017-06-21T16:42:57Z</time>
      </trkpt>
      <trkpt lat="64.4002840295434" lon="11.41311401501298">
        <ele>23.690000000000001</ele>
        <time>2017-06-21T16:42:58Z</time>
      </trkpt>
      <trkpt lat="64.400266008451581" lon="11.417201030999422">
        <ele>30.420000000000002</ele>
        <time>2017-06-21T16:43:06Z</time>
      </trkpt>
      <trkpt lat="64.400799013674259" lon="11.420630989596248">
        <ele>28.98</ele>
        <time>2017-06-21T16:43:13Z</time>
      </trkpt>
      <trkpt lat="64.402194013819098" lon="11.428276961669326">
        <ele>35.710000000000001</ele>
        <time>2017-06-21T16:43:29Z</time>
      </trkpt>
      <trkpt lat="64.403160028159618" lon="11.432724986225367">
        <ele>33.780000000000001</ele>
        <time>2017-06-21T16:43:39Z</time>
      </trkpt>
      <trkpt lat="64.404087988659739" lon="11.436747964471579">
        <ele>34.740000000000002</ele>
        <time>2017-06-21T16:43:48Z</time>
      </trkpt>
      <trkpt lat="64.405330019071698" lon="11.445496995002031">
        <ele>42.920000000000002</ele>
        <time>2017-06-21T16:44:06Z</time>
      </trkpt>
      <trkpt lat="64.405496986582875" lon="11.45069201476872">
        <ele>50.609999999999999</ele>
        <time>2017-06-21T16:44:16Z</time>
      </trkpt>
      <trkpt lat="64.405698990449309" lon="11.457863990217447">
        <ele>47.240000000000002</ele>
        <time>2017-06-21T16:44:29Z</time>
      </trkpt>
      <trkpt lat="64.405776020139456" lon="11.463145008310676">
        <ele>44.359999999999999</ele>
        <time>2017-06-21T16:44:39Z</time>
      </trkpt>
      <trkpt lat="64.405697984620929" lon="11.466811001300812">
        <ele>41.469999999999999</ele>
        <time>2017-06-21T16:44:47Z</time>
      </trkpt>
      <trkpt lat="64.405744001269341" lon="11.467169998213649">
        <ele>41.469999999999999</ele>
        <time>2017-06-21T16:44:48Z</time>
      </trkpt>
      <trkpt lat="64.405812984332442" lon="11.467528995126486">
        <ele>40.990000000000002</ele>
        <time>2017-06-21T16:44:49Z</time>
      </trkpt>
      <trkpt lat="64.405896971002221" lon="11.467895032837987">
        <ele>40.990000000000002</ele>
        <time>2017-06-21T16:44:50Z</time>
      </trkpt>
      <trkpt lat="64.406003002077341" lon="11.468265010043979">
        <ele>40.509999999999998</ele>
        <time>2017-06-21T16:44:51Z</time>
      </trkpt>
      <trkpt lat="64.40718300640583" lon="11.471979031339288">
        <ele>43.880000000000003</ele>
        <time>2017-06-21T16:45:00Z</time>
      </trkpt>
      <trkpt lat="64.408397041261196" lon="11.47576698102057">
        <ele>53.490000000000002</ele>
        <time>2017-06-21T16:45:10Z</time>
      </trkpt>
      <trkpt lat="64.409317038953304" lon="11.47821499966085">
        <ele>52.530000000000001</ele>
        <time>2017-06-21T16:45:19Z</time>
      </trkpt>
      <trkpt lat="64.411150999367237" lon="11.481616040691733">
        <ele>47.719999999999999</ele>
        <time>2017-06-21T16:45:33Z</time>
      </trkpt>
      <trkpt lat="64.412527978420258" lon="11.483906982466578">
        <ele>53.009999999999998</ele>
        <time>2017-06-21T16:45:44Z</time>
      </trkpt>
      <trkpt lat="64.414091035723686" lon="11.486134976148605">
        <ele>55.409999999999997</ele>
        <time>2017-06-21T16:45:55Z</time>
      </trkpt>
      <trkpt lat="64.416670985519886" lon="11.489638024941087">
        <ele>58.299999999999997</ele>
        <time>2017-06-21T16:46:12Z</time>
      </trkpt>
      <trkpt lat="64.416848011314869" lon="11.489756964147091">
        <ele>57.82</ele>
        <time>2017-06-21T16:46:13Z</time>
      </trkpt>
      <trkpt lat="64.417029982432723" lon="11.48983801715076">
        <ele>57.340000000000003</ele>
        <time>2017-06-21T16:46:14Z</time>
      </trkpt>
      <trkpt lat="64.417212037369609" lon="11.489877998828888">
        <ele>57.340000000000003</ele>
        <time>2017-06-21T16:46:15Z</time>
      </trkpt>
      <trkpt lat="64.417398031800985" lon="11.489886967465281">
        <ele>56.859999999999999</ele>
        <time>2017-06-21T16:46:16Z</time>
      </trkpt>
      <trkpt lat="64.420329015702009" lon="11.489784959703684">
        <ele>61.659999999999997</ele>
        <time>2017-06-21T16:46:32Z</time>
      </trkpt>
      <trkpt lat="64.421581020578742" lon="11.490382002666593">
        <ele>64.069999999999993</ele>
        <time>2017-06-21T16:46:39Z</time>
      </trkpt>
      <trkpt lat="64.422750966623425" lon="11.49101902730763">
        <ele>65.030000000000001</ele>
        <time>2017-06-21T16:46:46Z</time>
      </trkpt>
      <trkpt lat="64.422921035438776" lon="11.491004023700953">
        <ele>64.549999999999997</ele>
        <time>2017-06-21T16:46:47Z</time>
      </trkpt>
      <trkpt lat="64.423094037920237" lon="11.490964964032173">
        <ele>64.069999999999993</ele>
        <time>2017-06-21T16:46:48Z</time>
      </trkpt>
      <trkpt lat="64.425008967518806" lon="11.49020497687161">
        <ele>58.780000000000001</ele>
        <time>2017-06-21T16:46:59Z</time>
      </trkpt>
      <trkpt lat="64.427791005000472" lon="11.489249020814896">
        <ele>51.57</ele>
        <time>2017-06-21T16:47:15Z</time>
      </trkpt>
      <trkpt lat="64.428165005519986" lon="11.489320015534759">
        <ele>50.130000000000003</ele>
        <time>2017-06-21T16:47:17Z</time>
      </trkpt>
      <trkpt lat="64.42834597080946" lon="11.489412970840931">
        <ele>49.649999999999999</ele>
        <time>2017-06-21T16:47:18Z</time>
      </trkpt>
      <trkpt lat="64.428516961634159" lon="11.489545991644263">
        <ele>48.68</ele>
        <time>2017-06-21T16:47:19Z</time>
      </trkpt>
      <trkpt lat="64.428676972165704" lon="11.489711031317711">
        <ele>48.200000000000003</ele>
        <time>2017-06-21T16:47:20Z</time>
      </trkpt>
      <trkpt lat="64.42883899435401" lon="11.489894008263946">
        <ele>47.240000000000002</ele>
        <time>2017-06-21T16:47:21Z</time>
      </trkpt>
      <trkpt lat="64.430287973955274" lon="11.492147985845804">
        <ele>43.399999999999999</ele>
        <time>2017-06-21T16:47:31Z</time>
      </trkpt>
      <trkpt lat="64.431870980188251" lon="11.496022017672658">
        <ele>27.530000000000001</ele>
        <time>2017-06-21T16:47:44Z</time>
      </trkpt>
      <trkpt lat="64.433805020526052" lon="11.500238031148911">
        <ele>36.670000000000002</ele>
        <time>2017-06-21T16:47:59Z</time>
      </trkpt>
      <trkpt lat="64.435546025633812" lon="11.502563003450632">
        <ele>33.780000000000001</ele>
        <time>2017-06-21T16:48:09Z</time>
      </trkpt>
      <trkpt lat="64.437270015478134" lon="11.505439002066851">
        <ele>40.509999999999998</ele>
        <time>2017-06-21T16:48:20Z</time>
      </trkpt>
      <trkpt lat="64.437381997704506" lon="11.505801016464829">
        <ele>41.469999999999999</ele>
        <time>2017-06-21T16:48:21Z</time>
      </trkpt>
      <trkpt lat="64.437482999637723" lon="11.506187003105879">
        <ele>42.439999999999998</ele>
        <time>2017-06-21T16:48:22Z</time>
      </trkpt>
      <trkpt lat="64.437564974650741" lon="11.506587993353605">
        <ele>43.399999999999999</ele>
        <time>2017-06-21T16:48:23Z</time>
      </trkpt>
      <trkpt lat="64.438373995944858" lon="11.509324014186859">
        <ele>49.159999999999997</ele>
        <time>2017-06-21T16:48:31Z</time>
      </trkpt>
      <trkpt lat="64.439340010285378" lon="11.512659005820751">
        <ele>43.880000000000003</ele>
        <time>2017-06-21T16:48:42Z</time>
      </trkpt>
      <trkpt lat="64.440537029877305" lon="11.517695020884275">
        <ele>37.149999999999999</ele>
        <time>2017-06-21T16:48:57Z</time>
      </trkpt>
      <trkpt lat="64.44065697491169" lon="11.517968019470572">
        <ele>36.189999999999998</ele>
        <time>2017-06-21T16:48:58Z</time>
      </trkpt>
      <trkpt lat="64.44078697822988" lon="11.518216039985418">
        <ele>35.229999999999997</ele>
        <time>2017-06-21T16:48:59Z</time>
      </trkpt>
      <trkpt lat="64.440927039831877" lon="11.518447967246175">
        <ele>34.740000000000002</ele>
        <time>2017-06-21T16:49:00Z</time>
      </trkpt>
      <trkpt lat="64.442829983308911" lon="11.521306028589606">
        <ele>22.73</ele>
        <time>2017-06-21T16:49:14Z</time>
      </trkpt>
      <trkpt lat="64.44308496080339" lon="11.521604005247355">
        <ele>21.289999999999999</ele>
        <time>2017-06-21T16:49:16Z</time>
      </trkpt>
      <trkpt lat="64.4432139582932" lon="11.521706013008952">
        <ele>20.32</ele>
        <time>2017-06-21T16:49:17Z</time>
      </trkpt>
      <trkpt lat="64.443346979096532" lon="11.521773990243673">
        <ele>19.84</ele>
        <time>2017-06-21T16:49:18Z</time>
      </trkpt>
      <trkpt lat="64.443481005728245" lon="11.521798968315125">
        <ele>18.879999999999999</ele>
        <time>2017-06-21T16:49:19Z</time>
      </trkpt>
      <trkpt lat="64.443617966026068" lon="11.521782958880067">
        <ele>17.920000000000002</ele>
        <time>2017-06-21T16:49:20Z</time>
      </trkpt>
      <trkpt lat="64.443757021799684" lon="11.521734008565545">
        <ele>16.960000000000001</ele>
        <time>2017-06-21T16:49:21Z</time>
      </trkpt>
      <trkpt lat="64.443903034552932" lon="11.521648010239005">
        <ele>16</ele>
        <time>2017-06-21T16:49:22Z</time>
      </trkpt>
      <trkpt lat="64.444047035649419" lon="11.52155396528542">
        <ele>15.039999999999999</ele>
        <time>2017-06-21T16:49:23Z</time>
      </trkpt>
      <trkpt lat="64.445035010576248" lon="11.521263029426336">
        <ele>9.75</ele>
        <time>2017-06-21T16:49:30Z</time>
      </trkpt>
      <trkpt lat="64.445139029994607" lon="11.521304016932845">
        <ele>9.75</ele>
        <time>2017-06-21T16:49:31Z</time>
      </trkpt>
      <trkpt lat="64.445235002785921" lon="11.521372999995947">
        <ele>9.75</ele>
        <time>2017-06-21T16:49:32Z</time>
      </trkpt>
      <trkpt lat="64.445316977798939" lon="11.521447012200952">
        <ele>9.75</ele>
        <time>2017-06-21T16:49:33Z</time>
      </trkpt>
      <trkpt lat="64.44540498778224" lon="11.521517001092434">
        <ele>9.27</ele>
        <time>2017-06-21T16:49:34Z</time>
      </trkpt>
      <trkpt lat="64.445615960285068" lon="11.521598976105452">
        <ele>9.27</ele>
        <time>2017-06-21T16:49:36Z</time>
      </trkpt>
      <trkpt lat="64.445734983310103" lon="11.521640969440341">
        <ele>8.789999999999999</ele>
        <time>2017-06-21T16:49:37Z</time>
      </trkpt>
      <trkpt lat="64.445861969143152" lon="11.521714981645346">
        <ele>8.789999999999999</ele>
        <time>2017-06-21T16:49:38Z</time>
      </trkpt>
      <trkpt lat="64.445995995774865" lon="11.521811038255692">
        <ele>8.310000000000001</ele>
        <time>2017-06-21T16:49:39Z</time>
      </trkpt>
      <trkpt lat="64.44613597355783" lon="11.521936012431979">
        <ele>8.310000000000001</ele>
        <time>2017-06-21T16:49:40Z</time>
      </trkpt>
      <trkpt lat="64.447743035852909" lon="11.523359008133411">
        <ele>1.58</ele>
        <time>2017-06-21T16:49:50Z</time>
      </trkpt>
      <trkpt lat="64.448982970789075" lon="11.523552965372801">
        <ele>-1.79</ele>
        <time>2017-06-21T16:49:57Z</time>
      </trkpt>
      <trkpt lat="64.450351987034082" lon="11.522704968228936">
        <ele>-4.19</ele>
        <time>2017-06-21T16:50:06Z</time>
      </trkpt>
      <trkpt lat="64.452277980744839" lon="11.521698972210288">
        <ele>-4.67</ele>
        <time>2017-06-21T16:50:18Z</time>
      </trkpt>
      <trkpt lat="64.45367599837482" lon="11.521786982193589">
        <ele>-4.67</ele>
        <time>2017-06-21T16:50:27Z</time>
      </trkpt>
      <trkpt lat="64.454563977196813" lon="11.523050973191857">
        <ele>-4.67</ele>
        <time>2017-06-21T16:50:34Z</time>
      </trkpt>
      <trkpt lat="64.455405017361045" lon="11.525435959920287">
        <ele>-5.15</ele>
        <time>2017-06-21T16:50:43Z</time>
      </trkpt>
      <trkpt lat="64.456280004233122" lon="11.527919014915824">
        <ele>-5.15</ele>
        <time>2017-06-21T16:50:55Z</time>
      </trkpt>
      <trkpt lat="64.456325015053153" lon="11.528059998527169">
        <ele>-5.15</ele>
        <time>2017-06-21T16:50:56Z</time>
      </trkpt>
      <trkpt lat="64.456354016438127" lon="11.528192013502121">
        <ele>-5.15</ele>
        <time>2017-06-21T16:50:57Z</time>
      </trkpt>
      <trkpt lat="64.45642601698637" lon="11.52851496823132">
        <ele>-4.67</ele>
        <time>2017-06-21T16:51:00Z</time>
      </trkpt>
      <trkpt lat="64.456465998664498" lon="11.528594009578228">
        <ele>-4.67</ele>
        <time>2017-06-21T16:51:01Z</time>
      </trkpt>
      <trkpt lat="64.456517966464162" lon="11.528625022619963">
        <ele>-4.67</ele>
        <time>2017-06-21T16:51:02Z</time>
      </trkpt>
      <trkpt lat="64.456565994769335" lon="11.528593003749847">
        <ele>-4.19</ele>
        <time>2017-06-21T16:51:03Z</time>
      </trkpt>
      <trkpt lat="64.456604970619082" lon="11.528508011251688">
        <ele>-4.19</ele>
        <time>2017-06-21T16:51:04Z</time>
      </trkpt>
      <trkpt lat="64.456631960347295" lon="11.528369039297104">
        <ele>-4.67</ele>
        <time>2017-06-21T16:51:05Z</time>
      </trkpt>
      <trkpt lat="64.45666297338903" lon="11.52821003459394">
        <ele>-4.67</ele>
        <time>2017-06-21T16:51:06Z</time>
      </trkpt>
      <trkpt lat="64.456708990037441" lon="11.528047006577253">
        <ele>-5.15</ele>
        <time>2017-06-21T16:51:07Z</time>
      </trkpt>
      <trkpt lat="64.456767998635769" lon="11.527874004095793">
        <ele>-5.15</ele>
        <time>2017-06-21T16:51:08Z</time>
      </trkpt>
      <trkpt lat="64.457489009946585" lon="11.526179015636444">
        <ele>-5.15</ele>
        <time>2017-06-21T16:51:16Z</time>
      </trkpt>
      <trkpt lat="64.458848973736167" lon="11.523824958130717">
        <ele>-4.19</ele>
        <time>2017-06-21T16:51:27Z</time>
      </trkpt>
      <trkpt lat="64.460096033290029" lon="11.522637996822596">
        <ele>-1.3</ele>
        <time>2017-06-21T16:51:37Z</time>
      </trkpt>
      <trkpt lat="64.462299970909953" lon="11.520854998379946">
        <ele>3.98</ele>
        <time>2017-06-21T16:51:53Z</time>
      </trkpt>
      <trkpt lat="64.464498041197658" lon="11.518789026886225">
        <ele>-2.75</ele>
        <time>2017-06-21T16:52:08Z</time>
      </trkpt>
      <trkpt lat="64.465401023626328" lon="11.516793966293335">
        <ele>-2.75</ele>
        <time>2017-06-21T16:52:16Z</time>
      </trkpt>
      <trkpt lat="64.465936040505767" lon="11.51437402702868">
        <ele>-4.19</ele>
        <time>2017-06-21T16:52:24Z</time>
      </trkpt>
      <trkpt lat="64.466200992465019" lon="11.511122016236186">
        <ele>-4.67</ele>
        <time>2017-06-21T16:52:34Z</time>
      </trkpt>
      <trkpt lat="64.466276010498405" lon="11.51057300157845">
        <ele>-4.19</ele>
        <time>2017-06-21T16:52:36Z</time>
      </trkpt>
      <trkpt lat="64.466324960812926" lon="11.510338978841901">
        <ele>-4.19</ele>
        <time>2017-06-21T16:52:37Z</time>
      </trkpt>
      <trkpt lat="64.466377012431622" lon="11.510132029652596">
        <ele>-4.19</ele>
        <time>2017-06-21T16:52:38Z</time>
      </trkpt>
      <trkpt lat="64.466433003544807" lon="11.509958021342754">
        <ele>-4.19</ele>
        <time>2017-06-21T16:52:39Z</time>
      </trkpt>
      <trkpt lat="64.466493017971516" lon="11.509803039953113">
        <ele>-4.19</ele>
        <time>2017-06-21T16:52:40Z</time>
      </trkpt>
      <trkpt lat="64.466549009084702" lon="11.509683011099696">
        <ele>-4.19</ele>
        <time>2017-06-21T16:52:41Z</time>
      </trkpt>
      <trkpt lat="64.466602988541126" lon="11.509593995288014">
        <ele>-4.19</ele>
        <time>2017-06-21T16:52:42Z</time>
      </trkpt>
      <trkpt lat="64.466664008796215" lon="11.509545966982841">
        <ele>-3.71</ele>
        <time>2017-06-21T16:52:43Z</time>
      </trkpt>
      <trkpt lat="64.466727040708065" lon="11.509525012224913">
        <ele>-3.23</ele>
        <time>2017-06-21T16:52:44Z</time>
      </trkpt>
      <trkpt lat="64.466780014336109" lon="11.509495005011559">
        <ele>-3.23</ele>
        <time>2017-06-21T16:52:45Z</time>
      </trkpt>
      <trkpt lat="64.466862995177507" lon="11.509366007521749">
        <ele>-2.75</ele>
        <time>2017-06-21T16:52:47Z</time>
      </trkpt>
      <trkpt lat="64.466901971027255" lon="11.509271040558815">
        <ele>-2.75</ele>
        <time>2017-06-21T16:52:48Z</time>
      </trkpt>
      <trkpt lat="64.466946981847286" lon="11.509149000048637">
        <ele>-3.23</ele>
        <time>2017-06-21T16:52:49Z</time>
      </trkpt>
      <trkpt lat="64.467012025415897" lon="11.50902695953846">
        <ele>-3.71</ele>
        <time>2017-06-21T16:52:50Z</time>
      </trkpt>
      <trkpt lat="64.467097017914057" lon="11.508925035595894">
        <ele>-3.71</ele>
        <time>2017-06-21T16:52:51Z</time>
      </trkpt>
      <trkpt lat="64.467201037332416" lon="11.508864015340805">
        <ele>-3.23</ele>
        <time>2017-06-21T16:52:52Z</time>
      </trkpt>
      <trkpt lat="64.467307990416884" lon="11.508814981207252">
        <ele>-3.23</ele>
        <time>2017-06-21T16:52:53Z</time>
      </trkpt>
      <trkpt lat="64.467414021492004" lon="11.508783968165517">
        <ele>-2.75</ele>
        <time>2017-06-21T16:52:54Z</time>
      </trkpt>
      <trkpt lat="64.467522986233234" lon="11.508770976215601">
        <ele>-2.75</ele>
        <time>2017-06-21T16:52:55Z</time>
      </trkpt>
      <trkpt lat="64.468525964766741" lon="11.508825039491057">
        <ele>-2.75</ele>
        <time>2017-06-21T16:53:05Z</time>
      </trkpt>
      <trkpt lat="64.468595031648874" lon="11.508867032825947">
        <ele>-2.27</ele>
        <time>2017-06-21T16:53:06Z</time>
      </trkpt>
      <trkpt lat="64.468656973913312" lon="11.508924029767513">
        <ele>-2.27</ele>
        <time>2017-06-21T16:53:07Z</time>
      </trkpt>
      <trkpt lat="64.468768034130335" lon="11.50898203253746">
        <ele>-2.27</ele>
        <time>2017-06-21T16:53:09Z</time>
      </trkpt>
      <trkpt lat="64.468820001929998" lon="11.50894096121192">
        <ele>-2.27</ele>
        <time>2017-06-21T16:53:10Z</time>
      </trkpt>
      <trkpt lat="64.468849003314972" lon="11.508840965107083">
        <ele>-3.23</ele>
        <time>2017-06-21T16:53:11Z</time>
      </trkpt>
      <trkpt lat="64.468859983608127" lon="11.508708028122783">
        <ele>-3.23</ele>
        <time>2017-06-21T16:53:12Z</time>
      </trkpt>
      <trkpt lat="64.468854032456875" lon="11.50855103507638">
        <ele>-3.71</ele>
        <time>2017-06-21T16:53:13Z</time>
      </trkpt>
      <trkpt lat="64.46884498000145" lon="11.508376020938158">
        <ele>-3.71</ele>
        <time>2017-06-21T16:53:14Z</time>
      </trkpt>
      <trkpt lat="64.468839028850198" lon="11.50797301903367">
        <ele>-4.19</ele>
        <time>2017-06-21T16:53:16Z</time>
      </trkpt>
      <trkpt lat="64.46886601857841" lon="11.505344035103917">
        <ele>-4.67</ele>
        <time>2017-06-21T16:53:26Z</time>
      </trkpt>
      <trkpt lat="64.468763004988432" lon="11.503620967268944">
        <ele>-4.67</ele>
        <time>2017-06-21T16:53:34Z</time>
      </trkpt>
      <trkpt lat="64.468592014163733" lon="11.501551978290081">
        <ele>-3.23</ele>
        <time>2017-06-21T16:53:44Z</time>
      </trkpt>
      <trkpt lat="64.46858698502183" lon="11.501404037699103">
        <ele>-3.71</ele>
        <time>2017-06-21T16:53:45Z</time>
      </trkpt>
      <trkpt lat="64.468572987243533" lon="11.501091979444027">
        <ele>-2.75</ele>
        <time>2017-06-21T16:53:47Z</time>
      </trkpt>
      <trkpt lat="64.468548009172082" lon="11.500939009711146">
        <ele>-2.75</ele>
        <time>2017-06-21T16:53:48Z</time>
      </trkpt>
      <trkpt lat="64.468228993937373" lon="11.499226000159979">
        <ele>-1.79</ele>
        <time>2017-06-21T16:53:56Z</time>
      </trkpt>
      <trkpt lat="64.467761032283306" lon="11.496474975720048">
        <ele>-2.27</ele>
        <time>2017-06-21T16:54:08Z</time>
      </trkpt>
      <trkpt lat="64.467723984271288" lon="11.495828982442617">
        <ele>-1.79</ele>
        <time>2017-06-21T16:54:11Z</time>
      </trkpt>
      <trkpt lat="64.467736976221204" lon="11.495623961091042">
        <ele>-1.3</ele>
        <time>2017-06-21T16:54:12Z</time>
      </trkpt>
      <trkpt lat="64.467765977606177" lon="11.495422041043639">
        <ele>-1.3</ele>
        <time>2017-06-21T16:54:13Z</time>
      </trkpt>
      <trkpt lat="64.468042999505997" lon="11.493799975141883">
        <ele>-1.79</ele>
        <time>2017-06-21T16:54:23Z</time>
      </trkpt>
      <trkpt lat="64.468366038054228" lon="11.491778008639812">
        <ele>-3.71</ele>
        <time>2017-06-21T16:54:36Z</time>
      </trkpt>
      <trkpt lat="64.468591008335352" lon="11.490380996838212">
        <ele>-3.23</ele>
        <time>2017-06-21T16:54:46Z</time>
      </trkpt>
      <trkpt lat="64.468851014971733" lon="11.489003011956811">
        <ele>-3.71</ele>
        <time>2017-06-21T16:54:56Z</time>
      </trkpt>
      <trkpt lat="64.469171036034822" lon="11.487325960770249">
        <ele>-3.23</ele>
        <time>2017-06-21T16:55:07Z</time>
      </trkpt>
      <trkpt lat="64.469213029369712" lon="11.487191012129188">
        <ele>-3.71</ele>
        <time>2017-06-21T16:55:08Z</time>
      </trkpt>
      <trkpt lat="64.469331968575716" lon="11.486865039914846">
        <ele>-2.27</ele>
        <time>2017-06-21T16:55:11Z</time>
      </trkpt>
      <trkpt lat="64.469373961910605" lon="11.486778035759926">
        <ele>-2.27</ele>
        <time>2017-06-21T16:55:12Z</time>
      </trkpt>
      <trkpt lat="64.469419978559017" lon="11.486725984141231">
        <ele>-2.27</ele>
        <time>2017-06-21T16:55:13Z</time>
      </trkpt>
      <trkpt lat="64.469474963843822" lon="11.486669993028045">
        <ele>-1.79</ele>
        <time>2017-06-21T16:55:14Z</time>
      </trkpt>
      <trkpt lat="64.469534978270531" lon="11.486615007743239">
        <ele>-1.79</ele>
        <time>2017-06-21T16:55:15Z</time>
      </trkpt>
      <trkpt lat="64.469652995467186" lon="11.486420966684818">
        <ele>-1.3</ele>
        <time>2017-06-21T16:55:17Z</time>
      </trkpt>
      <trkpt lat="64.469863967970014" lon="11.486060963943601">
        <ele>-1.3</ele>
        <time>2017-06-21T16:55:20Z</time>
      </trkpt>
      <trkpt lat="64.469954995438457" lon="11.48597395978868">
        <ele>-1.3</ele>
        <time>2017-06-21T16:55:21Z</time>
      </trkpt>
      <trkpt lat="64.470064966008067" lon="11.48588796146214">
        <ele>-0.82</ele>
        <time>2017-06-21T16:55:22Z</time>
      </trkpt>
      <trkpt lat="64.477098975330591" lon="11.483173985034227">
        <ele>35.229999999999997</ele>
        <time>2017-06-21T16:56:03Z</time>
      </trkpt>
      <trkpt lat="64.479805994778872" lon="11.48231802508235">
        <ele>33.780000000000001</ele>
        <time>2017-06-21T16:56:19Z</time>
      </trkpt>
      <trkpt lat="64.482024013996124" lon="11.481496011838317">
        <ele>28.5</ele>
        <time>2017-06-21T16:56:31Z</time>
      </trkpt>
      <trkpt lat="64.483146015554667" lon="11.481690974906087">
        <ele>27.050000000000001</ele>
        <time>2017-06-21T16:56:37Z</time>
      </trkpt>
      <trkpt lat="64.483333015814424" lon="11.48163397796452">
        <ele>26.09</ele>
        <time>2017-06-21T16:56:38Z</time>
      </trkpt>
      <trkpt lat="64.483521021902561" lon="11.481536999344826">
        <ele>25.129999999999999</ele>
        <time>2017-06-21T16:56:39Z</time>
      </trkpt>
      <trkpt lat="64.483710033819079" lon="11.481400961056352">
        <ele>24.649999999999999</ele>
        <time>2017-06-21T16:56:40Z</time>
      </trkpt>
      <trkpt lat="64.483898039907217" lon="11.481226030737162">
        <ele>24.170000000000002</ele>
        <time>2017-06-21T16:56:41Z</time>
      </trkpt>
      <trkpt lat="64.486704971641302" lon="11.478320024907589">
        <ele>14.08</ele>
        <time>2017-06-21T16:56:56Z</time>
      </trkpt>
      <trkpt lat="64.488166021183133" lon="11.477462975308299">
        <ele>10.23</ele>
        <time>2017-06-21T16:57:03Z</time>
      </trkpt>
      <trkpt lat="64.48936396278441" lon="11.476225974038243">
        <ele>15.039999999999999</ele>
        <time>2017-06-21T16:57:10Z</time>
      </trkpt>
      <trkpt lat="64.489492038264871" lon="11.475973008200526">
        <ele>15.52</ele>
        <time>2017-06-21T16:57:11Z</time>
      </trkpt>
      <trkpt lat="64.489609971642494" lon="11.475684000179172">
        <ele>15.52</ele>
        <time>2017-06-21T16:57:12Z</time>
      </trkpt>
      <trkpt lat="64.490163009613752" lon="11.474008038640022">
        <ele>19.359999999999999</ele>
        <time>2017-06-21T16:57:17Z</time>
      </trkpt>
      <trkpt lat="64.490761980414391" lon="11.470802966505289">
        <ele>27.530000000000001</ele>
        <time>2017-06-21T16:57:25Z</time>
      </trkpt>
      <trkpt lat="64.490833980962634" lon="11.470456961542368">
        <ele>28.98</ele>
        <time>2017-06-21T16:57:26Z</time>
      </trkpt>
      <trkpt lat="64.490918973460793" lon="11.470149010419846">
        <ele>29.940000000000001</ele>
        <time>2017-06-21T16:57:27Z</time>
      </trkpt>
      <trkpt lat="64.491020981222391" lon="11.469876011833549">
        <ele>30.899999999999999</ele>
        <time>2017-06-21T16:57:28Z</time>
      </trkpt>
      <trkpt lat="64.491135980933905" lon="11.46964299492538">
        <ele>31.859999999999999</ele>
        <time>2017-06-21T16:57:29Z</time>
      </trkpt>
      <trkpt lat="64.491272019222379" lon="11.469467980787158">
        <ele>32.82</ele>
        <time>2017-06-21T16:57:30Z</time>
      </trkpt>
      <trkpt lat="64.491421971470118" lon="11.469347029924393">
        <ele>33.780000000000001</ele>
        <time>2017-06-21T16:57:31Z</time>
      </trkpt>
      <trkpt lat="64.49157795868814" lon="11.46927704103291">
        <ele>34.259999999999998</ele>
        <time>2017-06-21T16:57:32Z</time>
      </trkpt>
      <trkpt lat="64.491742998361588" lon="11.469249967485666">
        <ele>33.780000000000001</ele>
        <time>2017-06-21T16:57:33Z</time>
      </trkpt>
      <trkpt lat="64.491914995014668" lon="11.469252984970808">
        <ele>33.780000000000001</ele>
        <time>2017-06-21T16:57:34Z</time>
      </trkpt>
      <trkpt lat="64.492095038294792" lon="11.46927704103291">
        <ele>32.82</ele>
        <time>2017-06-21T16:57:35Z</time>
      </trkpt>
      <trkpt lat="64.493819028139114" lon="11.469498993828893">
        <ele>21.289999999999999</ele>
        <time>2017-06-21T16:57:43Z</time>
      </trkpt>
      <trkpt lat="64.497071960940957" lon="11.469915993511677">
        <ele>23.690000000000001</ele>
        <time>2017-06-21T16:57:57Z</time>
      </trkpt>
      <trkpt lat="64.49924698099494" lon="11.470367023721337">
        <ele>29.940000000000001</ele>
        <time>2017-06-21T16:58:06Z</time>
      </trkpt>
      <trkpt lat="64.50014803558588" lon="11.470754016190767">
        <ele>28.98</ele>
        <time>2017-06-21T16:58:10Z</time>
      </trkpt>
      <trkpt lat="64.500373005867004" lon="11.470749992877245">
        <ele>28.98</ele>
        <time>2017-06-21T16:58:11Z</time>
      </trkpt>
      <trkpt lat="64.501286968588829" lon="11.470681009814143">
        <ele>32.82</ele>
        <time>2017-06-21T16:58:15Z</time>
      </trkpt>
      <trkpt lat="64.501507999375463" lon="11.470724008977413">
        <ele>34.259999999999998</ele>
        <time>2017-06-21T16:58:16Z</time>
      </trkpt>
      <trkpt lat="64.501719977706671" lon="11.470815958455205">
        <ele>35.710000000000001</ele>
        <time>2017-06-21T16:58:17Z</time>
      </trkpt>
      <trkpt lat="64.501928016543388" lon="11.47093296982348">
        <ele>37.149999999999999</ele>
        <time>2017-06-21T16:58:18Z</time>
      </trkpt>
      <trkpt lat="64.5021259970963" lon="11.471094992011786">
        <ele>38.109999999999999</ele>
        <time>2017-06-21T16:58:19Z</time>
      </trkpt>
      <trkpt lat="64.50231802649796" lon="11.471280986443162">
        <ele>39.549999999999997</ele>
        <time>2017-06-21T16:58:20Z</time>
      </trkpt>
      <trkpt lat="64.502871986478567" lon="11.471970984712243">
        <ele>41.950000000000003</ele>
        <time>2017-06-21T16:58:23Z</time>
      </trkpt>
      <trkpt lat="64.503050018101931" lon="11.472268961369991">
        <ele>42.920000000000002</ele>
        <time>2017-06-21T16:58:24Z</time>
      </trkpt>
      <trkpt lat="64.503217991441488" lon="11.472601974382997">
        <ele>43.399999999999999</ele>
        <time>2017-06-21T16:58:25Z</time>
      </trkpt>
      <trkpt lat="64.503376996144652" lon="11.472973041236401">
        <ele>43.399999999999999</ele>
        <time>2017-06-21T16:58:26Z</time>
      </trkpt>
      <trkpt lat="64.503528038039804" lon="11.473380988463759">
        <ele>43.399999999999999</ele>
        <time>2017-06-21T16:58:27Z</time>
      </trkpt>
      <trkpt lat="64.503669021651149" lon="11.473821038380265">
        <ele>43.880000000000003</ele>
        <time>2017-06-21T16:58:28Z</time>
      </trkpt>
      <trkpt lat="64.50380003079772" lon="11.474289000034332">
        <ele>44.359999999999999</ele>
        <time>2017-06-21T16:58:29Z</time>
      </trkpt>
      <trkpt lat="64.503925004974008" lon="11.474776994436979">
        <ele>44.840000000000003</ele>
        <time>2017-06-21T16:58:30Z</time>
      </trkpt>
      <trkpt lat="64.505101991817355" lon="11.480362024158239">
        <ele>46.759999999999998</ele>
        <time>2017-06-21T16:58:41Z</time>
      </trkpt>
      <trkpt lat="64.506045039743185" lon="11.484301015734673">
        <ele>43.399999999999999</ele>
        <time>2017-06-21T16:58:50Z</time>
      </trkpt>
      <trkpt lat="64.506193986162543" lon="11.484644003212452">
        <ele>42.920000000000002</ele>
        <time>2017-06-21T16:58:51Z</time>
      </trkpt>
      <trkpt lat="64.506349973380566" lon="11.484949020668864">
        <ele>42.439999999999998</ele>
        <time>2017-06-21T16:58:52Z</time>
      </trkpt>
      <trkpt lat="64.507943037897348" lon="11.487464010715485">
        <ele>34.740000000000002</ele>
        <time>2017-06-21T16:59:02Z</time>
      </trkpt>
      <trkpt lat="64.508228022605181" lon="11.487860977649689">
        <ele>33.299999999999997</ele>
        <time>2017-06-21T16:59:04Z</time>
      </trkpt>
      <trkpt lat="64.508376969024539" lon="11.488002967089415">
        <ele>32.340000000000003</ele>
        <time>2017-06-21T16:59:05Z</time>
      </trkpt>
      <trkpt lat="64.508534967899323" lon="11.48809801787138">
        <ele>31.859999999999999</ele>
        <time>2017-06-21T16:59:06Z</time>
      </trkpt>
      <trkpt lat="64.508697995916009" lon="11.488147974014282">
        <ele>30.899999999999999</ele>
        <time>2017-06-21T16:59:07Z</time>
      </trkpt>
      <trkpt lat="64.508862029761076" lon="11.488143028691411">
        <ele>30.899999999999999</ele>
        <time>2017-06-21T16:59:08Z</time>
      </trkpt>
      <trkpt lat="64.509028997272253" lon="11.488103969022632">
        <ele>30.420000000000002</ele>
        <time>2017-06-21T16:59:09Z</time>
      </trkpt>
      <trkpt lat="64.509196970611811" lon="11.488032974302769">
        <ele>29.940000000000001</ele>
        <time>2017-06-21T16:59:10Z</time>
      </trkpt>
      <trkpt lat="64.510801015421748" lon="11.487287990748882">
        <ele>25.609999999999999</ele>
        <time>2017-06-21T16:59:19Z</time>
      </trkpt>
      <trkpt lat="64.510959014296532" lon="11.487147007137537">
        <ele>25.129999999999999</ele>
        <time>2017-06-21T16:59:20Z</time>
      </trkpt>
      <trkpt lat="64.511116007342935" lon="11.486954977735877">
        <ele>24.649999999999999</ele>
        <time>2017-06-21T16:59:21Z</time>
      </trkpt>
      <trkpt lat="64.512085039168596" lon="11.485700961202383">
        <ele>17.440000000000001</ele>
        <time>2017-06-21T16:59:26Z</time>
      </trkpt>
      <trkpt lat="64.512986009940505" lon="11.484797978773713">
        <ele>10.710000000000001</ele>
        <time>2017-06-21T16:59:31Z</time>
      </trkpt>
      <trkpt lat="64.513154989108443" lon="11.484712986275554">
        <ele>9.27</ele>
        <time>2017-06-21T16:59:32Z</time>
      </trkpt>
      <trkpt lat="64.513324974104762" lon="11.484678033739328">
        <ele>8.310000000000001</ele>
        <time>2017-06-21T16:59:33Z</time>
      </trkpt>
      <trkpt lat="64.513492025434971" lon="11.484689014032483">
        <ele>7.35</ele>
        <time>2017-06-21T16:59:34Z</time>
      </trkpt>
      <trkpt lat="64.513654969632626" lon="11.484755985438824">
        <ele>6.39</ele>
        <time>2017-06-21T16:59:35Z</time>
      </trkpt>
      <trkpt lat="64.513821015134454" lon="11.484871990978718">
        <ele>5.42</ele>
        <time>2017-06-21T16:59:36Z</time>
      </trkpt>
      <trkpt lat="64.513982031494379" lon="11.485032001510262">
        <ele>5.42</ele>
        <time>2017-06-21T16:59:37Z</time>
      </trkpt>
      <trkpt lat="64.514130977913737" lon="11.485235011205077">
        <ele>5.42</ele>
        <time>2017-06-21T16:59:38Z</time>
      </trkpt>
      <trkpt lat="64.514266010373831" lon="11.485469033941627">
        <ele>5.91</ele>
        <time>2017-06-21T16:59:39Z</time>
      </trkpt>
      <trkpt lat="64.514396013692021" lon="11.485739015042782">
        <ele>5.91</ele>
        <time>2017-06-21T16:59:40Z</time>
      </trkpt>
      <trkpt lat="64.514517970383167" lon="11.486018970608711">
        <ele>6.39</ele>
        <time>2017-06-21T16:59:41Z</time>
      </trkpt>
      <trkpt lat="64.515722030773759" lon="11.488977028056979">
        <ele>10.23</ele>
        <time>2017-06-21T16:59:52Z</time>
      </trkpt>
      <trkpt lat="64.515827978029847" lon="11.489243991672993">
        <ele>9.27</ele>
        <time>2017-06-21T16:59:53Z</time>
      </trkpt>
      <trkpt lat="64.515924034640193" lon="11.489545991644263">
        <ele>8.310000000000001</ele>
        <time>2017-06-21T16:59:54Z</time>
      </trkpt>
      <trkpt lat="64.516003997996449" lon="11.489896019920707">
        <ele>6.87</ele>
        <time>2017-06-21T16:59:55Z</time>
      </trkpt>
      <trkpt lat="64.516069963574409" lon="11.490264991298318">
        <ele>5.91</ele>
        <time>2017-06-21T16:59:56Z</time>
      </trkpt>
      <trkpt lat="64.516122015193105" lon="11.490647960454226">
        <ele>4.46</ele>
        <time>2017-06-21T16:59:57Z</time>
      </trkpt>
      <trkpt lat="64.516164008527994" lon="11.491047022864223">
        <ele>3.02</ele>
        <time>2017-06-21T16:59:58Z</time>
      </trkpt>
      <trkpt lat="64.516669018194079" lon="11.495374012738466">
        <ele>0.62</ele>
        <time>2017-06-21T17:00:09Z</time>
      </trkpt>
      <trkpt lat="64.516758034005761" lon="11.496101981028914">
        <ele>1.58</ele>
        <time>2017-06-21T17:00:11Z</time>
      </trkpt>
      <trkpt lat="64.516777982935309" lon="11.496471036225557">
        <ele>3.02</ele>
        <time>2017-06-21T17:00:12Z</time>
      </trkpt>
      <trkpt lat="64.516785023733974" lon="11.496847970411181">
        <ele>3.5</ele>
        <time>2017-06-21T17:00:13Z</time>
      </trkpt>
      <trkpt lat="64.516781000420451" lon="11.497222976759076">
        <ele>4.94</ele>
        <time>2017-06-21T17:00:14Z</time>
      </trkpt>
      <trkpt lat="64.516763985157013" lon="11.497607035562396">
        <ele>5.42</ele>
        <time>2017-06-21T17:00:15Z</time>
      </trkpt>
      <trkpt lat="64.516738001257181" lon="11.49798396974802">
        <ele>6.87</ele>
        <time>2017-06-21T17:00:16Z</time>
      </trkpt>
      <trkpt lat="64.516179012134671" lon="11.501600006595254">
        <ele>7.83</ele>
        <time>2017-06-21T17:00:26Z</time>
      </trkpt>
      <trkpt lat="64.515092968940735" lon="11.504794014617801">
        <ele>0.14</ele>
        <time>2017-06-21T17:00:36Z</time>
      </trkpt>
      <trkpt lat="64.514022013172507" lon="11.506970962509513">
        <ele>0.62</ele>
        <time>2017-06-21T17:00:44Z</time>
      </trkpt>
      <trkpt lat="64.513220032677054" lon="11.509757023304701">
        <ele>0.62</ele>
        <time>2017-06-21T17:00:52Z</time>
      </trkpt>
      <trkpt lat="64.513154989108443" lon="11.510166982188821">
        <ele>0.62</ele>
        <time>2017-06-21T17:00:53Z</time>
      </trkpt>
      <trkpt lat="64.513110984116793" lon="11.510582976043224">
        <ele>1.1</ele>
        <time>2017-06-21T17:00:54Z</time>
      </trkpt>
      <trkpt lat="64.5130829885602" lon="11.511010034009814">
        <ele>1.1</ele>
        <time>2017-06-21T17:00:55Z</time>
      </trkpt>
      <trkpt lat="64.513081982731819" lon="11.511439019814134">
        <ele>1.58</ele>
        <time>2017-06-21T17:00:56Z</time>
      </trkpt>
      <trkpt lat="64.51310302130878" lon="11.511858031153679">
        <ele>1.58</ele>
        <time>2017-06-21T17:00:57Z</time>
      </trkpt>
      <trkpt lat="64.513143002986908" lon="11.512263966724277">
        <ele>1.58</ele>
        <time>2017-06-21T17:00:58Z</time>
      </trkpt>
      <trkpt lat="64.513201005756855" lon="11.512665040791035">
        <ele>1.58</ele>
        <time>2017-06-21T17:00:59Z</time>
      </trkpt>
      <trkpt lat="64.513269988819957" lon="11.513054966926575">
        <ele>1.58</ele>
        <time>2017-06-21T17:01:00Z</time>
      </trkpt>
      <trkpt lat="64.513593027368188" lon="11.514610983431339">
        <ele>1.1</ele>
        <time>2017-06-21T17:01:04Z</time>
      </trkpt>
      <trkpt lat="64.513702997937799" lon="11.514972997829318">
        <ele>1.1</ele>
        <time>2017-06-21T17:01:05Z</time>
      </trkpt>
      <trkpt lat="64.514189986512065" lon="11.516378978267312">
        <ele>2.06</ele>
        <time>2017-06-21T17:01:09Z</time>
      </trkpt>
      <trkpt lat="64.514282019808888" lon="11.516769994050264">
        <ele>2.06</ele>
        <time>2017-06-21T17:01:10Z</time>
      </trkpt>
      <trkpt lat="64.514365000650287" lon="11.51716997846961">
        <ele>2.06</ele>
        <time>2017-06-21T17:01:11Z</time>
      </trkpt>
      <trkpt lat="64.514598017558455" lon="11.518286028876901">
        <ele>2.06</ele>
        <time>2017-06-21T17:01:14Z</time>
      </trkpt>
      <trkpt lat="64.514704970642924" lon="11.518613006919622">
        <ele>2.06</ele>
        <time>2017-06-21T17:01:15Z</time>
      </trkpt>
      <trkpt lat="64.514831034466624" lon="11.518906960263848">
        <ele>2.06</ele>
        <time>2017-06-21T17:01:16Z</time>
      </trkpt>
      <trkpt lat="64.514974029734731" lon="11.519164033234119">
        <ele>1.58</ele>
        <time>2017-06-21T17:01:17Z</time>
      </trkpt>
      <trkpt lat="64.515130016952753" lon="11.519369976595044">
        <ele>1.58</ele>
        <time>2017-06-21T17:01:18Z</time>
      </trkpt>
      <trkpt lat="64.515298996120691" lon="11.519536022096872">
        <ele>1.1</ele>
        <time>2017-06-21T17:01:19Z</time>
      </trkpt>
      <trkpt lat="64.515477027744055" lon="11.519655967131257">
        <ele>0.62</ele>
        <time>2017-06-21T17:01:20Z</time>
      </trkpt>
      <trkpt lat="64.515666039660573" lon="11.519775995984674">
        <ele>0.62</ele>
        <time>2017-06-21T17:01:21Z</time>
      </trkpt>
      <trkpt lat="64.516202984377742" lon="11.520241023972631">
        <ele>0.14</ele>
        <time>2017-06-21T17:01:24Z</time>
      </trkpt>
      <trkpt lat="64.516359977424145" lon="11.520480997860432">
        <ele>0.14</ele>
        <time>2017-06-21T17:01:25Z</time>
      </trkpt>
      <trkpt lat="64.516503978520632" lon="11.520759025588632">
        <ele>0.14</ele>
        <time>2017-06-21T17:01:26Z</time>
      </trkpt>
      <trkpt lat="64.517484996467829" lon="11.523516001179814">
        <ele>5.42</ele>
        <time>2017-06-21T17:01:34Z</time>
      </trkpt>
      <trkpt lat="64.517550962045789" lon="11.523933000862598">
        <ele>5.42</ele>
        <time>2017-06-21T17:01:35Z</time>
      </trkpt>
      <trkpt lat="64.517593961209059" lon="11.524371039122343">
        <ele>5.42</ele>
        <time>2017-06-21T17:01:36Z</time>
      </trkpt>
      <trkpt lat="64.5176160056144" lon="11.524827014654875">
        <ele>4.94</ele>
        <time>2017-06-21T17:01:37Z</time>
      </trkpt>
      <trkpt lat="64.517619023099542" lon="11.525294976308942">
        <ele>3.5</ele>
        <time>2017-06-21T17:01:38Z</time>
      </trkpt>
      <trkpt lat="64.517606031149626" lon="11.525770984590054">
        <ele>3.02</ele>
        <time>2017-06-21T17:01:39Z</time>
      </trkpt>
      <trkpt lat="64.517584992572665" lon="11.52625503949821">
        <ele>2.54</ele>
        <time>2017-06-21T17:01:40Z</time>
      </trkpt>
      <trkpt lat="64.517139997333288" lon="11.530563002452254">
        <ele>4.46</ele>
        <time>2017-06-21T17:01:49Z</time>
      </trkpt>
      <trkpt lat="64.517038995400071" lon="11.531407982110977">
        <ele>4.46</ele>
        <time>2017-06-21T17:01:51Z</time>
      </trkpt>
      <trkpt lat="64.517020974308252" lon="11.531847026199102">
        <ele>3.98</ele>
        <time>2017-06-21T17:01:52Z</time>
      </trkpt>
      <trkpt lat="64.517032038420439" lon="11.532287998124957">
        <ele>3.5</ele>
        <time>2017-06-21T17:01:53Z</time>
      </trkpt>
      <trkpt lat="64.517065985128284" lon="11.532727964222431">
        <ele>3.02</ele>
        <time>2017-06-21T17:01:54Z</time>
      </trkpt>
      <trkpt lat="64.517119964584708" lon="11.533158961683512">
        <ele>3.5</ele>
        <time>2017-06-21T17:01:55Z</time>
      </trkpt>
      <trkpt lat="64.517190959304571" lon="11.53358300216496">
        <ele>3.02</ele>
        <time>2017-06-21T17:01:56Z</time>
      </trkpt>
      <trkpt lat="64.517268994823098" lon="11.534015005454421">
        <ele>2.54</ele>
        <time>2017-06-21T17:01:57Z</time>
      </trkpt>
      <trkpt lat="64.517822032794356" lon="11.537294005975127">
        <ele>1.1</ele>
        <time>2017-06-21T17:02:05Z</time>
      </trkpt>
      <trkpt lat="64.51789696700871" lon="11.537617966532707">
        <ele>0.62</ele>
        <time>2017-06-21T17:02:06Z</time>
      </trkpt>
      <trkpt lat="64.517990006133914" lon="11.537889959290624">
        <ele>1.1</ele>
        <time>2017-06-21T17:02:07Z</time>
      </trkpt>
      <trkpt lat="64.51808899641037" lon="11.538108978420496">
        <ele>0.62</ele>
        <time>2017-06-21T17:02:08Z</time>
      </trkpt>
      <trkpt lat="64.518203996121883" lon="11.538272006437182">
        <ele>0.62</ele>
        <time>2017-06-21T17:02:09Z</time>
      </trkpt>
      <trkpt lat="64.518328970298171" lon="11.538408966735005">
        <ele>0.62</ele>
        <time>2017-06-21T17:02:10Z</time>
      </trkpt>
      <trkpt lat="64.518467020243406" lon="11.538508962839842">
        <ele>1.1</ele>
        <time>2017-06-21T17:02:11Z</time>
      </trkpt>
      <trkpt lat="64.518614038825035" lon="11.53856897726655">
        <ele>1.1</ele>
        <time>2017-06-21T17:02:12Z</time>
      </trkpt>
      <trkpt lat="64.518766002729535" lon="11.538573000580072">
        <ele>1.1</ele>
        <time>2017-06-21T17:02:13Z</time>
      </trkpt>
      <trkpt lat="64.518912015482783" lon="11.538513991981745">
        <ele>1.1</ele>
        <time>2017-06-21T17:02:14Z</time>
      </trkpt>
      <trkpt lat="64.519054004922509" lon="11.538390023633838">
        <ele>0.62</ele>
        <time>2017-06-21T17:02:15Z</time>
      </trkpt>
      <trkpt lat="64.519187025725842" lon="11.538199000060558">
        <ele>0.14</ele>
        <time>2017-06-21T17:02:16Z</time>
      </trkpt>
      <trkpt lat="64.519321974366903" lon="11.537988027557731">
        <ele>0.14</ele>
        <time>2017-06-21T17:02:17Z</time>
      </trkpt>
      <trkpt lat="64.519460024312139" lon="11.537760961800814">
        <ele>0.14</ele>
        <time>2017-06-21T17:02:18Z</time>
      </trkpt>
      <trkpt lat="64.520704988390207" lon="11.536233024671674">
        <ele>1.1</ele>
        <time>2017-06-21T17:02:26Z</time>
      </trkpt>
      <trkpt lat="64.521179990842938" lon="11.536037977784872">
        <ele>1.58</ele>
        <time>2017-06-21T17:02:29Z</time>
      </trkpt>
      <trkpt lat="64.521336983889341" lon="11.536051975563169">
        <ele>1.58</ele>
        <time>2017-06-21T17:02:30Z</time>
      </trkpt>
      <trkpt lat="64.521490959450603" lon="11.536124981939793">
        <ele>1.58</ele>
        <time>2017-06-21T17:02:31Z</time>
      </trkpt>
      <trkpt lat="64.52163496054709" lon="11.536250039935112">
        <ele>1.1</ele>
        <time>2017-06-21T17:02:32Z</time>
      </trkpt>
      <trkpt lat="64.521770998835564" lon="11.536434022709727">
        <ele>0.62</ele>
        <time>2017-06-21T17:02:33Z</time>
      </trkpt>
      <trkpt lat="64.521894967183471" lon="11.536663016304374">
        <ele>0.14</ele>
        <time>2017-06-21T17:02:34Z</time>
      </trkpt>
      <trkpt lat="64.522009966894984" lon="11.536937020719051">
        <ele>-0.34</ele>
        <time>2017-06-21T17:02:35Z</time>
      </trkpt>
      <trkpt lat="64.522122032940388" lon="11.537239020690322">
        <ele>-0.34</ele>
        <time>2017-06-21T17:02:36Z</time>
      </trkpt>
      <trkpt lat="64.522228986024857" lon="11.537558035925031">
        <ele>-0.34</ele>
        <time>2017-06-21T17:02:37Z</time>
      </trkpt>
      <trkpt lat="64.522688984870911" lon="11.538696968927979">
        <ele>-0.34</ele>
        <time>2017-06-21T17:02:41Z</time>
      </trkpt>
      <trkpt lat="64.522828040644526" lon="11.538904001936316">
        <ele>-0.34</ele>
        <time>2017-06-21T17:02:42Z</time>
      </trkpt>
      <trkpt lat="64.522976987063885" lon="11.539073986932635">
        <ele>-0.34</ele>
        <time>2017-06-21T17:02:43Z</time>
      </trkpt>
      <trkpt lat="64.523131968453526" lon="11.539184041321278">
        <ele>-0.82</ele>
        <time>2017-06-21T17:02:44Z</time>
      </trkpt>
      <trkpt lat="64.523293990641832" lon="11.539238020777702">
        <ele>-0.82</ele>
        <time>2017-06-21T17:02:45Z</time>
      </trkpt>
      <trkpt lat="64.52346196398139" lon="11.539232991635799">
        <ele>-0.82</ele>
        <time>2017-06-21T17:02:46Z</time>
      </trkpt>
      <trkpt lat="64.523628009483218" lon="11.539174988865852">
        <ele>-0.82</ele>
        <time>2017-06-21T17:02:47Z</time>
      </trkpt>
      <trkpt lat="64.523791959509254" lon="11.539069041609764">
        <ele>-1.3</ele>
        <time>2017-06-21T17:02:48Z</time>
      </trkpt>
      <trkpt lat="64.523950964212418" lon="11.538910958915949">
        <ele>-1.3</ele>
        <time>2017-06-21T17:02:49Z</time>
      </trkpt>
      <trkpt lat="64.524108041077852" lon="11.538719013333321">
        <ele>-1.79</ele>
        <time>2017-06-21T17:02:50Z</time>
      </trkpt>
      <trkpt lat="64.524426972493529" lon="11.538354987278581">
        <ele>-1.79</ele>
        <time>2017-06-21T17:02:52Z</time>
      </trkpt>
      <trkpt lat="64.524591006338596" lon="11.538230013102293">
        <ele>-2.75</ele>
        <time>2017-06-21T17:02:53Z</time>
      </trkpt>
      <trkpt lat="64.524763002991676" lon="11.538140997290611">
        <ele>-2.27</ele>
        <time>2017-06-21T17:02:54Z</time>
      </trkpt>
      <trkpt lat="64.524939022958279" lon="11.538087017834187">
        <ele>-1.79</ele>
        <time>2017-06-21T17:02:55Z</time>
      </trkpt>
      <trkpt lat="64.52511596493423" lon="11.53805198147893">
        <ele>-1.79</ele>
        <time>2017-06-21T17:02:56Z</time>
      </trkpt>
      <trkpt lat="64.525647964328527" lon="11.538104033097625">
        <ele>-1.3</ele>
        <time>2017-06-21T17:02:59Z</time>
      </trkpt>
      <trkpt lat="64.525827001780272" lon="11.538200005888939">
        <ele>-1.3</ele>
        <time>2017-06-21T17:03:00Z</time>
      </trkpt>
      <trkpt lat="64.527104990556836" lon="11.538698980584741">
        <ele>-1.79</ele>
        <time>2017-06-21T17:03:07Z</time>
      </trkpt>
      <trkpt lat="64.528321037068963" lon="11.539540020748973">
        <ele>-1.79</ele>
        <time>2017-06-21T17:03:15Z</time>
      </trkpt>
      <trkpt lat="64.530187016353011" lon="11.540328003466129">
        <ele>2.06</ele>
        <time>2017-06-21T17:03:27Z</time>
      </trkpt>
      <trkpt lat="64.531939001753926" lon="11.540323980152607">
        <ele>15.039999999999999</ele>
        <time>2017-06-21T17:03:37Z</time>
      </trkpt>
      <trkpt lat="64.534049984067678" lon="11.540033966302872">
        <ele>31.379999999999999</ele>
        <time>2017-06-21T17:03:47Z</time>
      </trkpt>
      <trkpt lat="64.535350017249584" lon="11.540937032550573">
        <ele>39.07</ele>
        <time>2017-06-21T17:03:53Z</time>
      </trkpt>
      <trkpt lat="64.536836966872215" lon="11.541948979720473">
        <ele>36.670000000000002</ele>
        <time>2017-06-21T17:04:00Z</time>
      </trkpt>
      <trkpt lat="64.537482038140297" lon="11.54179198667407">
        <ele>33.299999999999997</ele>
        <time>2017-06-21T17:04:03Z</time>
      </trkpt>
      <trkpt lat="64.537689993157983" lon="11.541655026376247">
        <ele>31.859999999999999</ele>
        <time>2017-06-21T17:04:04Z</time>
      </trkpt>
      <trkpt lat="64.537902977317572" lon="11.541482023894787">
        <ele>29.940000000000001</ele>
        <time>2017-06-21T17:04:05Z</time>
      </trkpt>
      <trkpt lat="64.538962030783296" lon="11.540550040081143">
        <ele>24.170000000000002</ele>
        <time>2017-06-21T17:04:10Z</time>
      </trkpt>
      <trkpt lat="64.539185995236039" lon="11.540474016219378">
        <ele>23.210000000000001</ele>
        <time>2017-06-21T17:04:11Z</time>
      </trkpt>
      <trkpt lat="64.539415994659066" lon="11.54043504036963">
        <ele>23.210000000000001</ele>
        <time>2017-06-21T17:04:12Z</time>
      </trkpt>
      <trkpt lat="64.540356025099754" lon="11.540429005399346">
        <ele>22.25</ele>
        <time>2017-06-21T17:04:16Z</time>
      </trkpt>
      <trkpt lat="64.540586024522781" lon="11.540344012901187">
        <ele>21.77</ele>
        <time>2017-06-21T17:04:17Z</time>
      </trkpt>
      <trkpt lat="64.540817029774189" lon="11.540217027068138">
        <ele>21.289999999999999</ele>
        <time>2017-06-21T17:04:18Z</time>
      </trkpt>
      <trkpt lat="64.543401002883911" lon="11.538378037512302">
        <ele>1.1</ele>
        <time>2017-06-21T17:04:29Z</time>
      </trkpt>
      <trkpt lat="64.543636031448841" lon="11.538309976458549">
        <ele>-0.34</ele>
        <time>2017-06-21T17:04:30Z</time>
      </trkpt>
      <trkpt lat="64.543868964537978" lon="11.538297990337014">
        <ele>-1.3</ele>
        <time>2017-06-21T17:04:31Z</time>
      </trkpt>
      <trkpt lat="64.544099969789386" lon="11.538349036127329">
        <ele>-1.3</ele>
        <time>2017-06-21T17:04:32Z</time>
      </trkpt>
      <trkpt lat="64.544329969212413" lon="11.538441991433501">
        <ele>-0.82</ele>
        <time>2017-06-21T17:04:33Z</time>
      </trkpt>
      <trkpt lat="64.544552005827427" lon="11.538590015843511">
        <ele>-0.82</ele>
        <time>2017-06-21T17:04:34Z</time>
      </trkpt>
      <trkpt lat="64.544771024957299" lon="11.538763018324971">
        <ele>-0.34</ele>
        <time>2017-06-21T17:04:35Z</time>
      </trkpt>
      <trkpt lat="64.545602006837726" lon="11.539312032982707">
        <ele>0.14</ele>
        <time>2017-06-21T17:04:39Z</time>
      </trkpt>
      <trkpt lat="64.545800993219018" lon="11.539350003004074">
        <ele>0.62</ele>
        <time>2017-06-21T17:04:40Z</time>
      </trkpt>
      <trkpt lat="64.545995034277439" lon="11.539341034367681">
        <ele>0.62</ele>
        <time>2017-06-21T17:04:41Z</time>
      </trkpt>
      <trkpt lat="64.546185974031687" lon="11.539294011890888">
        <ele>0.62</ele>
        <time>2017-06-21T17:04:42Z</time>
      </trkpt>
      <trkpt lat="64.546379009261727" lon="11.539207007735968">
        <ele>0.62</ele>
        <time>2017-06-21T17:04:43Z</time>
      </trkpt>
      <trkpt lat="64.546571038663387" lon="11.539079016074538">
        <ele>0.14</ele>
        <time>2017-06-21T17:04:44Z</time>
      </trkpt>
      <trkpt lat="64.546760972589254" lon="11.5389100369066">
        <ele>-0.34</ele>
        <time>2017-06-21T17:04:45Z</time>
      </trkpt>
      <trkpt lat="64.546946967020631" lon="11.538698980584741">
        <ele>-0.82</ele>
        <time>2017-06-21T17:04:46Z</time>
      </trkpt>
      <trkpt lat="64.547122986987233" lon="11.538447020575404">
        <ele>-0.82</ele>
        <time>2017-06-21T17:04:47Z</time>
      </trkpt>
      <trkpt lat="64.547289032489061" lon="11.538156000897288">
        <ele>-0.82</ele>
        <time>2017-06-21T17:04:48Z</time>
      </trkpt>
      <trkpt lat="64.547442002221942" lon="11.537835979834199">
        <ele>-0.82</ele>
        <time>2017-06-21T17:04:49Z</time>
      </trkpt>
      <trkpt lat="64.547589020803571" lon="11.537491986528039">
        <ele>-1.3</ele>
        <time>2017-06-21T17:04:50Z</time>
      </trkpt>
      <trkpt lat="64.548572972416878" lon="11.53420896269381">
        <ele>-1.3</ele>
        <time>2017-06-21T17:04:58Z</time>
      </trkpt>
      <trkpt lat="64.550173999741673" lon="11.528802970424294">
        <ele>-1.79</ele>
        <time>2017-06-21T17:05:11Z</time>
      </trkpt>
      <trkpt lat="64.551519965752959" lon="11.527026006951928">
        <ele>0.62</ele>
        <time>2017-06-21T17:05:18Z</time>
      </trkpt>
      <trkpt lat="64.552869033068419" lon="11.526485960930586">
        <ele>2.54</ele>
        <time>2017-06-21T17:05:24Z</time>
      </trkpt>
      <trkpt lat="64.554826961830258" lon="11.526167029514909">
        <ele>6.39</ele>
        <time>2017-06-21T17:05:33Z</time>
      </trkpt>
      <trkpt lat="64.555003987625241" lon="11.526041971519589">
        <ele>6.39</ele>
        <time>2017-06-21T17:05:34Z</time>
      </trkpt>
      <trkpt lat="64.555166009813547" lon="11.525869974866509">
        <ele>6.87</ele>
        <time>2017-06-21T17:05:35Z</time>
      </trkpt>
      <trkpt lat="64.555306993424892" lon="11.525643998757005">
        <ele>7.35</ele>
        <time>2017-06-21T17:05:36Z</time>
      </trkpt>
      <trkpt lat="64.55542903393507" lon="11.525369994342327">
        <ele>7.83</ele>
        <time>2017-06-21T17:05:37Z</time>
      </trkpt>
      <trkpt lat="64.555531041696668" lon="11.525056008249521">
        <ele>7.35</ele>
        <time>2017-06-21T17:05:38Z</time>
      </trkpt>
      <trkpt lat="64.55562399700284" lon="11.524702040478587">
        <ele>6.87</ele>
        <time>2017-06-21T17:05:39Z</time>
      </trkpt>
      <trkpt lat="64.555705972015858" lon="11.524324016645551">
        <ele>6.39</ele>
        <time>2017-06-21T17:05:40Z</time>
      </trkpt>
      <trkpt lat="64.555972013622522" lon="11.523302011191845">
        <ele>5.42</ele>
        <time>2017-06-21T17:05:43Z</time>
      </trkpt>
      <trkpt lat="64.556090030819178" lon="11.5230349637568">
        <ele>4.94</ele>
        <time>2017-06-21T17:05:44Z</time>
      </trkpt>
      <trkpt lat="64.55622598528862" lon="11.522806975990534">
        <ele>4.94</ele>
        <time>2017-06-21T17:05:45Z</time>
      </trkpt>
      <trkpt lat="64.556639967486262" lon="11.522160982713103">
        <ele>3.5</ele>
        <time>2017-06-21T17:05:48Z</time>
      </trkpt>
      <trkpt lat="64.55674197524786" lon="11.521893013268709">
        <ele>3.5</ele>
        <time>2017-06-21T17:05:49Z</time>
      </trkpt>
      <trkpt lat="64.556837026029825" lon="11.521591013297439">
        <ele>3.02</ele>
        <time>2017-06-21T17:05:50Z</time>
      </trkpt>
      <trkpt lat="64.5573650021106" lon="11.520000966265798">
        <ele>2.06</ele>
        <time>2017-06-21T17:05:55Z</time>
      </trkpt>
      <trkpt lat="64.557499028742313" lon="11.519721010699868">
        <ele>2.06</ele>
        <time>2017-06-21T17:05:56Z</time>
      </trkpt>
      <trkpt lat="64.557646969333291" lon="11.519472990185022">
        <ele>2.54</ele>
        <time>2017-06-21T17:05:57Z</time>
      </trkpt>
      <trkpt lat="64.557809997349977" lon="11.519265035167336">
        <ele>3.02</ele>
        <time>2017-06-21T17:05:58Z</time>
      </trkpt>
      <trkpt lat="64.55798601731658" lon="11.519097983837128">
        <ele>3.5</ele>
        <time>2017-06-21T17:05:59Z</time>
      </trkpt>
      <trkpt lat="64.558168994262815" lon="11.518978038802743">
        <ele>3.98</ele>
        <time>2017-06-21T17:06:00Z</time>
      </trkpt>
      <trkpt lat="64.558359012007713" lon="11.518884999677539">
        <ele>4.94</ele>
        <time>2017-06-21T17:06:01Z</time>
      </trkpt>
      <trkpt lat="64.558920012786984" lon="11.518518039956689">
        <ele>7.35</ele>
        <time>2017-06-21T17:06:04Z</time>
      </trkpt>
      <trkpt lat="64.559092009440064" lon="11.518315030261874">
        <ele>8.310000000000001</ele>
        <time>2017-06-21T17:06:05Z</time>
      </trkpt>
      <trkpt lat="64.55925302579999" lon="11.518082013353705">
        <ele>8.310000000000001</ele>
        <time>2017-06-21T17:06:06Z</time>
      </trkpt>
      <trkpt lat="64.559396021068096" lon="11.517803985625505">
        <ele>8.789999999999999</ele>
        <time>2017-06-21T17:06:07Z</time>
      </trkpt>
      <trkpt lat="64.559523006901145" lon="11.517485976219177">
        <ele>9.27</ele>
        <time>2017-06-21T17:06:08Z</time>
      </trkpt>
      <trkpt lat="64.559631971642375" lon="11.517141982913017">
        <ele>9.27</ele>
        <time>2017-06-21T17:06:09Z</time>
      </trkpt>
      <trkpt lat="64.559721993282437" lon="11.516770999878645">
        <ele>8.789999999999999</ele>
        <time>2017-06-21T17:06:10Z</time>
      </trkpt>
      <trkpt lat="64.559794999659061" lon="11.516380989924073">
        <ele>9.27</ele>
        <time>2017-06-21T17:06:11Z</time>
      </trkpt>
      <trkpt lat="64.559848979115486" lon="11.515971031039953">
        <ele>8.789999999999999</ele>
        <time>2017-06-21T17:06:12Z</time>
      </trkpt>
      <trkpt lat="64.559888960793614" lon="11.515545984730124">
        <ele>7.83</ele>
        <time>2017-06-21T17:06:13Z</time>
      </trkpt>
      <trkpt lat="64.559922991320491" lon="11.515132002532482">
        <ele>6.87</ele>
        <time>2017-06-21T17:06:14Z</time>
      </trkpt>
      <trkpt lat="64.559999015182257" lon="11.514358017593622">
        <ele>5.42</ele>
        <time>2017-06-21T17:06:16Z</time>
      </trkpt>
      <trkpt lat="64.560066992416978" lon="11.514002960175276">
        <ele>5.42</ele>
        <time>2017-06-21T17:06:17Z</time>
      </trkpt>
      <trkpt lat="64.560158019885421" lon="11.513657039031386">
        <ele>5.42</ele>
        <time>2017-06-21T17:06:18Z</time>
      </trkpt>
      <trkpt lat="64.560267990455031" lon="11.513329977169633">
        <ele>5.42</ele>
        <time>2017-06-21T17:06:19Z</time>
      </trkpt>
      <trkpt lat="64.56039103679359" lon="11.512995036318898">
        <ele>4.94</ele>
        <time>2017-06-21T17:06:20Z</time>
      </trkpt>
      <trkpt lat="64.56103996373713" lon="11.51100198738277">
        <ele>4.46</ele>
        <time>2017-06-21T17:06:26Z</time>
      </trkpt>
      <trkpt lat="64.561095032840967" lon="11.510641984641552">
        <ele>4.46</ele>
        <time>2017-06-21T17:06:27Z</time>
      </trkpt>
      <trkpt lat="64.561126967892051" lon="11.510265972465277">
        <ele>4.46</ele>
        <time>2017-06-21T17:06:28Z</time>
      </trkpt>
      <trkpt lat="64.561130991205573" lon="11.509880991652608">
        <ele>4.46</ele>
        <time>2017-06-21T17:06:29Z</time>
      </trkpt>
      <trkpt lat="64.561109030619264" lon="11.509501961991191">
        <ele>4.46</ele>
        <time>2017-06-21T17:06:30Z</time>
      </trkpt>
      <trkpt lat="64.561067037284374" lon="11.509126033633947">
        <ele>4.46</ele>
        <time>2017-06-21T17:06:31Z</time>
      </trkpt>
      <trkpt lat="64.561009034514427" lon="11.50876603089273">
        <ele>4.94</ele>
        <time>2017-06-21T17:06:32Z</time>
      </trkpt>
      <trkpt lat="64.560941979289055" lon="11.508411979302764">
        <ele>4.94</ele>
        <time>2017-06-21T17:06:33Z</time>
      </trkpt>
      <trkpt lat="64.56084399484098" lon="11.507678981870413">
        <ele>4.46</ele>
        <time>2017-06-21T17:06:35Z</time>
      </trkpt>
      <trkpt lat="64.560829997062683" lon="11.507304981350899">
        <ele>4.94</ele>
        <time>2017-06-21T17:06:36Z</time>
      </trkpt>
      <trkpt lat="64.56084399484098" lon="11.506937015801668">
        <ele>4.94</ele>
        <time>2017-06-21T17:06:37Z</time>
      </trkpt>
      <trkpt lat="64.560885988175869" lon="11.506581958383322">
        <ele>5.42</ele>
        <time>2017-06-21T17:06:38Z</time>
      </trkpt>
      <trkpt lat="64.56095295958221" lon="11.506247017532587">
        <ele>6.39</ele>
        <time>2017-06-21T17:06:39Z</time>
      </trkpt>
      <trkpt lat="64.561040969565511" lon="11.505940994247794">
        <ele>6.87</ele>
        <time>2017-06-21T17:06:40Z</time>
      </trkpt>
      <trkpt lat="64.561153035610914" lon="11.505666989833117">
        <ele>7.83</ele>
        <time>2017-06-21T17:06:41Z</time>
      </trkpt>
      <trkpt lat="64.561283038929105" lon="11.505435984581709">
        <ele>8.310000000000001</ele>
        <time>2017-06-21T17:06:42Z</time>
      </trkpt>
      <trkpt lat="64.56142301671207" lon="11.505211014300585">
        <ele>9.27</ele>
        <time>2017-06-21T17:06:43Z</time>
      </trkpt>
      <trkpt lat="64.561571963131428" lon="11.505017979070544">
        <ele>9.75</ele>
        <time>2017-06-21T17:06:44Z</time>
      </trkpt>
      <trkpt lat="64.562384001910686" lon="11.503755999729037">
        <ele>13.6</ele>
        <time>2017-06-21T17:06:50Z</time>
      </trkpt>
      <trkpt lat="64.562482992187142" lon="11.503485012799501">
        <ele>14.56</ele>
        <time>2017-06-21T17:06:51Z</time>
      </trkpt>
      <trkpt lat="64.56256496720016" lon="11.503184018656611">
        <ele>15.039999999999999</ele>
        <time>2017-06-21T17:06:52Z</time>
      </trkpt>
      <trkpt lat="64.562630010768771" lon="11.502856034785509">
        <ele>16</ele>
        <time>2017-06-21T17:06:53Z</time>
      </trkpt>
      <trkpt lat="64.562673009932041" lon="11.502522015944123">
        <ele>16</ele>
        <time>2017-06-21T17:06:54Z</time>
      </trkpt>
      <trkpt lat="64.562695976346731" lon="11.502181962132454">
        <ele>16</ele>
        <time>2017-06-21T17:06:55Z</time>
      </trkpt>
      <trkpt lat="64.562701005488634" lon="11.501840986311436">
        <ele>16.48</ele>
        <time>2017-06-21T17:06:56Z</time>
      </trkpt>
      <trkpt lat="64.562684996053576" lon="11.50150403380394">
        <ele>16.48</ele>
        <time>2017-06-21T17:06:57Z</time>
      </trkpt>
      <trkpt lat="64.562649037688971" lon="11.501174038276076">
        <ele>16.48</ele>
        <time>2017-06-21T17:06:58Z</time>
      </trkpt>
      <trkpt lat="64.562595980241895" lon="11.500850999727845">
        <ele>16.48</ele>
        <time>2017-06-21T17:06:59Z</time>
      </trkpt>
      <trkpt lat="64.562528003007174" lon="11.500537013635039">
        <ele>16.48</ele>
        <time>2017-06-21T17:07:00Z</time>
      </trkpt>
      <trkpt lat="64.562448961660266" lon="11.500233002007008">
        <ele>16.48</ele>
        <time>2017-06-21T17:07:01Z</time>
      </trkpt>
      <trkpt lat="64.561839010566473" lon="11.498029986396432">
        <ele>9.27</ele>
        <time>2017-06-21T17:07:08Z</time>
      </trkpt>
      <trkpt lat="64.561719987541437" lon="11.497780038043857">
        <ele>7.35</ele>
        <time>2017-06-21T17:07:09Z</time>
      </trkpt>
      <trkpt lat="64.561582021415234" lon="11.497550960630178">
        <ele>5.91</ele>
        <time>2017-06-21T17:07:10Z</time>
      </trkpt>
      <trkpt lat="64.561431985348463" lon="11.49733797647059">
        <ele>4.46</ele>
        <time>2017-06-21T17:07:11Z</time>
      </trkpt>
      <trkpt lat="64.561269963160157" lon="11.497156005352736">
        <ele>3.5</ele>
        <time>2017-06-21T17:07:12Z</time>
      </trkpt>
      <trkpt lat="64.561096038669348" lon="11.496986020356417">
        <ele>2.06</ele>
        <time>2017-06-21T17:07:13Z</time>
      </trkpt>
      <trkpt lat="64.560914989560843" lon="11.496837995946407">
        <ele>1.58</ele>
        <time>2017-06-21T17:07:14Z</time>
      </trkpt>
      <trkpt lat="64.560724971815944" lon="11.496705980971456">
        <ele>0.62</ele>
        <time>2017-06-21T17:07:15Z</time>
      </trkpt>
      <trkpt lat="64.55966298468411" lon="11.495869969949126">
        <ele>-0.34</ele>
        <time>2017-06-21T17:07:21Z</time>
      </trkpt>
      <trkpt lat="64.559500962495804" lon="11.495637958869338">
        <ele>-0.34</ele>
        <time>2017-06-21T17:07:22Z</time>
      </trkpt>
      <trkpt lat="64.559356961399317" lon="11.495379041880369">
        <ele>-0.34</ele>
        <time>2017-06-21T17:07:23Z</time>
      </trkpt>
      <trkpt lat="64.559224024415016" lon="11.495088022202253">
        <ele>-0.82</ele>
        <time>2017-06-21T17:07:24Z</time>
      </trkpt>
      <trkpt lat="64.559100978076458" lon="11.494765989482403">
        <ele>-1.3</ele>
        <time>2017-06-21T17:07:25Z</time>
      </trkpt>
      <trkpt lat="64.558982038870454" lon="11.494425013661385">
        <ele>-1.3</ele>
        <time>2017-06-21T17:07:26Z</time>
      </trkpt>
      <trkpt lat="64.558620024472475" lon="11.493462016806006">
        <ele>-2.27</ele>
        <time>2017-06-21T17:07:29Z</time>
      </trkpt>
      <trkpt lat="64.558456996455789" lon="11.493198992684484">
        <ele>-1.79</ele>
        <time>2017-06-21T17:07:30Z</time>
      </trkpt>
      <trkpt lat="64.558307966217399" lon="11.49297796189785">
        <ele>-1.79</ele>
        <time>2017-06-21T17:07:31Z</time>
      </trkpt>
      <trkpt lat="64.558120965957642" lon="11.492816023528576">
        <ele>-1.79</ele>
        <time>2017-06-21T17:07:32Z</time>
      </trkpt>
      <trkpt lat="64.557946035638452" lon="11.492708986625075">
        <ele>-1.79</ele>
        <time>2017-06-21T17:07:33Z</time>
      </trkpt>
      <trkpt lat="64.55777202732861" lon="11.492647966369987">
        <ele>-1.79</ele>
        <time>2017-06-21T17:07:34Z</time>
      </trkpt>
      <trkpt lat="64.55759902484715" lon="11.492619970813394">
        <ele>-2.27</ele>
        <time>2017-06-21T17:07:35Z</time>
      </trkpt>
      <trkpt lat="64.556911960244179" lon="11.492397012189031">
        <ele>-0.82</ele>
        <time>2017-06-21T17:07:39Z</time>
      </trkpt>
      <trkpt lat="64.556745998561382" lon="11.492253011092544">
        <ele>-0.82</ele>
        <time>2017-06-21T17:07:40Z</time>
      </trkpt>
      <trkpt lat="64.556583976373076" lon="11.492056036368012">
        <ele>-0.82</ele>
        <time>2017-06-21T17:07:41Z</time>
      </trkpt>
      <trkpt lat="64.556426983326674" lon="11.491799969226122">
        <ele>-0.82</ele>
        <time>2017-06-21T17:07:42Z</time>
      </trkpt>
      <trkpt lat="64.556277031078935" lon="11.49151599034667">
        <ele>-0.82</ele>
        <time>2017-06-21T17:07:43Z</time>
      </trkpt>
      <trkpt lat="64.556136969476938" lon="11.491207033395767">
        <ele>-0.34</ele>
        <time>2017-06-21T17:07:44Z</time>
      </trkpt>
      <trkpt lat="64.555823989212513" lon="11.49063304066658">
        <ele>-0.34</ele>
        <time>2017-06-21T17:07:46Z</time>
      </trkpt>
      <trkpt lat="64.555646041408181" lon="11.49039801210165">
        <ele>-0.34</ele>
        <time>2017-06-21T17:07:47Z</time>
      </trkpt>
      <trkpt lat="64.555458035320044" lon="11.490195002406836">
        <ele>0.62</ele>
        <time>2017-06-21T17:07:48Z</time>
      </trkpt>
      <trkpt lat="64.554941961541772" lon="11.48960298858583">
        <ele>2.06</ele>
        <time>2017-06-21T17:07:51Z</time>
      </trkpt>
      <trkpt lat="64.554802989587188" lon="11.489376006647944">
        <ele>2.54</ele>
        <time>2017-06-21T17:07:52Z</time>
      </trkpt>
      <trkpt lat="64.5546780154109" lon="11.489094961434603">
        <ele>2.54</ele>
        <time>2017-06-21T17:07:53Z</time>
      </trkpt>
      <trkpt lat="64.554564021527767" lon="11.488758008927107">
        <ele>2.54</ele>
        <time>2017-06-21T17:07:54Z</time>
      </trkpt>
      <trkpt lat="64.554467964917421" lon="11.488380990922451">
        <ele>3.02</ele>
        <time>2017-06-21T17:07:55Z</time>
      </trkpt>
      <trkpt lat="64.554392024874687" lon="11.487941024824977">
        <ele>3.98</ele>
        <time>2017-06-21T17:07:56Z</time>
      </trkpt>
      <trkpt lat="64.554346008226275" lon="11.487512961030006">
        <ele>3.5</ele>
        <time>2017-06-21T17:07:57Z</time>
      </trkpt>
      <trkpt lat="64.554317006841302" lon="11.487079029902816">
        <ele>2.06</ele>
        <time>2017-06-21T17:07:58Z</time>
      </trkpt>
      <trkpt lat="64.554307032376528" lon="11.486686002463102">
        <ele>1.58</ele>
        <time>2017-06-21T17:07:59Z</time>
      </trkpt>
      <trkpt lat="64.554277025163174" lon="11.485411031171679">
        <ele>0.62</ele>
        <time>2017-06-21T17:08:04Z</time>
      </trkpt>
      <trkpt lat="64.554134029895067" lon="11.483883010223508">
        <ele>2.54</ele>
        <time>2017-06-21T17:08:10Z</time>
      </trkpt>
      <trkpt lat="64.554067980498075" lon="11.483591990545392">
        <ele>3.02</ele>
        <time>2017-06-21T17:08:11Z</time>
      </trkpt>
      <trkpt lat="64.553983993828297" lon="11.483310023322701">
        <ele>3.98</ele>
        <time>2017-06-21T17:08:12Z</time>
      </trkpt>
      <trkpt lat="64.553101966157556" lon="11.481372965499759">
        <ele>9.75</ele>
        <time>2017-06-21T17:08:20Z</time>
      </trkpt>
      <trkpt lat="64.552060011774302" lon="11.480418015271425">
        <ele>7.35</ele>
        <time>2017-06-21T17:08:28Z</time>
      </trkpt>
      <trkpt lat="64.551060972735286" lon="11.479407995939255">
        <ele>3.98</ele>
        <time>2017-06-21T17:08:34Z</time>
      </trkpt>
      <trkpt lat="64.550898028537631" lon="11.479112030938268">
        <ele>3.5</ele>
        <time>2017-06-21T17:08:35Z</time>
      </trkpt>
      <trkpt lat="64.55074799247086" lon="11.478778012096882">
        <ele>2.54</ele>
        <time>2017-06-21T17:08:36Z</time>
      </trkpt>
      <trkpt lat="64.550608014687896" lon="11.478417003527284">
        <ele>2.06</ele>
        <time>2017-06-21T17:08:37Z</time>
      </trkpt>
      <trkpt lat="64.550485974177718" lon="11.478037973865867">
        <ele>1.58</ele>
        <time>2017-06-21T17:08:38Z</time>
      </trkpt>
      <trkpt lat="64.55038002692163" lon="11.477641006931663">
        <ele>2.06</ele>
        <time>2017-06-21T17:08:39Z</time>
      </trkpt>
      <trkpt lat="64.550301991403103" lon="11.477220989763737">
        <ele>3.02</ele>
        <time>2017-06-21T17:08:40Z</time>
      </trkpt>
      <trkpt lat="64.550238959491253" lon="11.476794015616179">
        <ele>4.46</ele>
        <time>2017-06-21T17:08:41Z</time>
      </trkpt>
      <trkpt lat="64.550197971984744" lon="11.47636603564024">
        <ele>3.98</ele>
        <time>2017-06-21T17:08:42Z</time>
      </trkpt>
      <trkpt lat="64.550179028883576" lon="11.475932020694017">
        <ele>5.42</ele>
        <time>2017-06-21T17:08:43Z</time>
      </trkpt>
      <trkpt lat="64.550173999741673" lon="11.475507980212569">
        <ele>7.35</ele>
        <time>2017-06-21T17:08:44Z</time>
      </trkpt>
      <trkpt lat="64.550183974206448" lon="11.475082011893392">
        <ele>8.789999999999999</ele>
        <time>2017-06-21T17:08:45Z</time>
      </trkpt>
      <trkpt lat="64.550203001126647" lon="11.474660988897085">
        <ele>10.23</ele>
        <time>2017-06-21T17:08:46Z</time>
      </trkpt>
      <trkpt lat="64.550281958654523" lon="11.472583031281829">
        <ele>14.56</ele>
        <time>2017-06-21T17:08:51Z</time>
      </trkpt>
      <trkpt lat="64.550268966704607" lon="11.472187992185354">
        <ele>16</ele>
        <time>2017-06-21T17:08:52Z</time>
      </trkpt>
      <trkpt lat="64.550240971148014" lon="11.471775015816092">
        <ele>16</ele>
        <time>2017-06-21T17:08:53Z</time>
      </trkpt>
      <trkpt lat="64.550201995298266" lon="11.471365978941321">
        <ele>16.960000000000001</ele>
        <time>2017-06-21T17:08:54Z</time>
      </trkpt>
      <trkpt lat="64.550150027498603" lon="11.470934981480241">
        <ele>15.52</ele>
        <time>2017-06-21T17:08:55Z</time>
      </trkpt>
      <trkpt lat="64.549740990623832" lon="11.467561013996601">
        <ele>13.6</ele>
        <time>2017-06-21T17:09:03Z</time>
      </trkpt>
      <trkpt lat="64.549741996452212" lon="11.467169998213649">
        <ele>14.08</ele>
        <time>2017-06-21T17:09:04Z</time>
      </trkpt>
      <trkpt lat="64.550086995586753" lon="11.46392896771431">
        <ele>14.08</ele>
        <time>2017-06-21T17:09:12Z</time>
      </trkpt>
      <trkpt lat="64.550874978303909" lon="11.46126402541995">
        <ele>18.879999999999999</ele>
        <time>2017-06-21T17:09:19Z</time>
      </trkpt>
      <trkpt lat="64.551010010764003" lon="11.460956996306777">
        <ele>19.84</ele>
        <time>2017-06-21T17:09:20Z</time>
      </trkpt>
      <trkpt lat="64.551158035174012" lon="11.460697995498776">
        <ele>20.809999999999999</ele>
        <time>2017-06-21T17:09:21Z</time>
      </trkpt>
      <trkpt lat="64.551321985200047" lon="11.460473025217652">
        <ele>21.77</ele>
        <time>2017-06-21T17:09:22Z</time>
      </trkpt>
      <trkpt lat="64.551500016823411" lon="11.460291976109147">
        <ele>22.73</ele>
        <time>2017-06-21T17:09:23Z</time>
      </trkpt>
      <trkpt lat="64.551685005426407" lon="11.460142023861408">
        <ele>23.210000000000001</ele>
        <time>2017-06-21T17:09:24Z</time>
      </trkpt>
      <trkpt lat="64.551877034828067" lon="11.460033981129527">
        <ele>24.170000000000002</ele>
        <time>2017-06-21T17:09:25Z</time>
      </trkpt>
      <trkpt lat="64.552075015380979" lon="11.459972038865089">
        <ele>25.609999999999999</ele>
        <time>2017-06-21T17:09:26Z</time>
      </trkpt>
      <trkpt lat="64.55227299593389" lon="11.459967009723186">
        <ele>27.050000000000001</ele>
        <time>2017-06-21T17:09:27Z</time>
      </trkpt>
      <trkpt lat="64.552469970658422" lon="11.460032975301147">
        <ele>28.02</ele>
        <time>2017-06-21T17:09:28Z</time>
      </trkpt>
      <trkpt lat="64.552662000060081" lon="11.460154009982944">
        <ele>28.98</ele>
        <time>2017-06-21T17:09:29Z</time>
      </trkpt>
      <trkpt lat="64.552862998098135" lon="11.46029700525105">
        <ele>30.899999999999999</ele>
        <time>2017-06-21T17:09:30Z</time>
      </trkpt>
      <trkpt lat="64.554252969101071" lon="11.461530989035964">
        <ele>40.030000000000001</ele>
        <time>2017-06-21T17:09:37Z</time>
      </trkpt>
      <trkpt lat="64.554455978795886" lon="11.461584968492389">
        <ele>41.469999999999999</ele>
        <time>2017-06-21T17:09:38Z</time>
      </trkpt>
      <trkpt lat="64.554667035117745" lon="11.461580023169518">
        <ele>42.920000000000002</ele>
        <time>2017-06-21T17:09:39Z</time>
      </trkpt>
      <trkpt lat="64.554882030934095" lon="11.461529983207583">
        <ele>44.359999999999999</ele>
        <time>2017-06-21T17:09:40Z</time>
      </trkpt>
      <trkpt lat="64.555097026750445" lon="11.461451025679708">
        <ele>45.32</ele>
        <time>2017-06-21T17:09:41Z</time>
      </trkpt>
      <trkpt lat="64.557330971583724" lon="11.460787011310458">
        <ele>61.18</ele>
        <time>2017-06-21T17:09:51Z</time>
      </trkpt>
      <trkpt lat="64.558033039793372" lon="11.460738983005285">
        <ele>65.989999999999995</ele>
        <time>2017-06-21T17:09:54Z</time>
      </trkpt>
      <trkpt lat="64.55826798453927" lon="11.46066103130579">
        <ele>66.950000000000003</ele>
        <time>2017-06-21T17:09:55Z</time>
      </trkpt>
      <trkpt lat="64.558506030589342" lon="11.460528010502458">
        <ele>68.390000000000001</ele>
        <time>2017-06-21T17:09:56Z</time>
      </trkpt>
      <trkpt lat="64.560191966593266" lon="11.459684958681464">
        <ele>73.200000000000003</ele>
        <time>2017-06-21T17:10:03Z</time>
      </trkpt>
      <trkpt lat="64.56239297054708" lon="11.45967498421669">
        <ele>78.969999999999999</ele>
        <time>2017-06-21T17:10:12Z</time>
      </trkpt>
      <trkpt lat="64.564329022541642" lon="11.460060970857739">
        <ele>82.810000000000002</ele>
        <time>2017-06-21T17:10:20Z</time>
      </trkpt>
      <trkpt lat="64.566118977963924" lon="11.460401024669409">
        <ele>71.269999999999996</ele>
        <time>2017-06-21T17:10:27Z</time>
      </trkpt>
      <trkpt lat="64.567646998912096" lon="11.460091983899474">
        <ele>69.349999999999994</ele>
        <time>2017-06-21T17:10:33Z</time>
      </trkpt>
      <trkpt lat="64.569118022918701" lon="11.46031703799963">
        <ele>64.069999999999993</ele>
        <time>2017-06-21T17:10:39Z</time>
      </trkpt>
      <trkpt lat="64.570417972281575" lon="11.460800003260374">
        <ele>64.549999999999997</ele>
        <time>2017-06-21T17:10:45Z</time>
      </trkpt>
      <trkpt lat="64.571741977706552" lon="11.46055500023067">
        <ele>59.259999999999998</ele>
        <time>2017-06-21T17:10:51Z</time>
      </trkpt>
      <trkpt lat="64.572927011176944" lon="11.460406975820661">
        <ele>53.009999999999998</ele>
        <time>2017-06-21T17:10:57Z</time>
      </trkpt>
      <trkpt lat="64.574021017178893" lon="11.461131004616618">
        <ele>47.240000000000002</ele>
        <time>2017-06-21T17:11:03Z</time>
      </trkpt>
      <trkpt lat="64.575477037578821" lon="11.462287958711386">
        <ele>44.359999999999999</ele>
        <time>2017-06-21T17:11:10Z</time>
      </trkpt>
      <trkpt lat="64.57713003270328" lon="11.463171998038888">
        <ele>42.920000000000002</ele>
        <time>2017-06-21T17:11:18Z</time>
      </trkpt>
      <trkpt lat="64.579231962561607" lon="11.463461006060243">
        <ele>43.399999999999999</ele>
        <time>2017-06-21T17:11:28Z</time>
      </trkpt>
      <trkpt lat="64.582005031406879" lon="11.464221999049187">
        <ele>41.469999999999999</ele>
        <time>2017-06-21T17:11:42Z</time>
      </trkpt>
      <trkpt lat="64.583257036283612" lon="11.465077959001064">
        <ele>33.780000000000001</ele>
        <time>2017-06-21T17:11:49Z</time>
      </trkpt>
      <trkpt lat="64.584502000361681" lon="11.465039988979697">
        <ele>24.649999999999999</ele>
        <time>2017-06-21T17:11:55Z</time>
      </trkpt>
      <trkpt lat="64.58471599034965" lon="11.465059015899897">
        <ele>24.170000000000002</ele>
        <time>2017-06-21T17:11:56Z</time>
      </trkpt>
      <trkpt lat="64.584926962852478" lon="11.465119030326605">
        <ele>23.210000000000001</ele>
        <time>2017-06-21T17:11:57Z</time>
      </trkpt>
      <trkpt lat="64.586524972692132" lon="11.465482972562313">
        <ele>23.690000000000001</ele>
        <time>2017-06-21T17:12:05Z</time>
      </trkpt>
      <trkpt lat="64.58787496201694" lon="11.464775959029794">
        <ele>23.210000000000001</ele>
        <time>2017-06-21T17:12:12Z</time>
      </trkpt>
      <trkpt lat="64.589387979358435" lon="11.463150959461927">
        <ele>17.920000000000002</ele>
        <time>2017-06-21T17:12:20Z</time>
      </trkpt>
      <trkpt lat="64.59040897898376" lon="11.461652023717761">
        <ele>16</ele>
        <time>2017-06-21T17:12:26Z</time>
      </trkpt>
      <trkpt lat="64.591281032189727" lon="11.458793040364981">
        <ele>18.399999999999999</ele>
        <time>2017-06-21T17:12:33Z</time>
      </trkpt>
      <trkpt lat="64.592577964067459" lon="11.454456998035312">
        <ele>22.73</ele>
        <time>2017-06-21T17:12:43Z</time>
      </trkpt>
      <trkpt lat="64.593104012310505" lon="11.452321959659457">
        <ele>22.25</ele>
        <time>2017-06-21T17:12:48Z</time>
      </trkpt>
      <trkpt lat="64.593152040615678" lon="11.451891968026757">
        <ele>21.77</ele>
        <time>2017-06-21T17:12:49Z</time>
      </trkpt>
      <trkpt lat="64.593175007030368" lon="11.451453007757664">
        <ele>20.809999999999999</ele>
        <time>2017-06-21T17:12:50Z</time>
      </trkpt>
      <trkpt lat="64.593174001201987" lon="11.451002983376384">
        <ele>20.32</ele>
        <time>2017-06-21T17:12:51Z</time>
      </trkpt>
      <trkpt lat="64.593152040615678" lon="11.450555976480246">
        <ele>19.359999999999999</ele>
        <time>2017-06-21T17:12:52Z</time>
      </trkpt>
      <trkpt lat="64.593106023967266" lon="11.450121961534023">
        <ele>17.920000000000002</ele>
        <time>2017-06-21T17:12:53Z</time>
      </trkpt>
      <trkpt lat="64.593037962913513" lon="11.449704961851239">
        <ele>16.960000000000001</ele>
        <time>2017-06-21T17:12:54Z</time>
      </trkpt>
      <trkpt lat="64.592952970415354" lon="11.449305983260274">
        <ele>15.039999999999999</ele>
        <time>2017-06-21T17:12:55Z</time>
      </trkpt>
      <trkpt lat="64.592859009280801" lon="11.448916979134083">
        <ele>13.6</ele>
        <time>2017-06-21T17:12:56Z</time>
      </trkpt>
      <trkpt lat="64.592606965452433" lon="11.447679977864027">
        <ele>8.789999999999999</ele>
        <time>2017-06-21T17:12:59Z</time>
      </trkpt>
      <trkpt lat="64.592564972117543" lon="11.447230959311128">
        <ele>7.35</ele>
        <time>2017-06-21T17:13:00Z</time>
      </trkpt>
      <trkpt lat="64.592542005702853" lon="11.446770038455725">
        <ele>6.39</ele>
        <time>2017-06-21T17:13:01Z</time>
      </trkpt>
      <trkpt lat="64.592540999874473" lon="11.446308027952909">
        <ele>4.94</ele>
        <time>2017-06-21T17:13:02Z</time>
      </trkpt>
      <trkpt lat="64.592564972117543" lon="11.445850040763617">
        <ele>3.5</ele>
        <time>2017-06-21T17:13:03Z</time>
      </trkpt>
      <trkpt lat="64.592617023736238" lon="11.445395993068814">
        <ele>2.54</ele>
        <time>2017-06-21T17:13:04Z</time>
      </trkpt>
      <trkpt lat="64.592693969607353" lon="11.44495602697134">
        <ele>1.58</ele>
        <time>2017-06-21T17:13:05Z</time>
      </trkpt>
      <trkpt lat="64.59279103204608" lon="11.444532992318273">
        <ele>0.62</ele>
        <time>2017-06-21T17:13:06Z</time>
      </trkpt>
      <trkpt lat="64.592910977080464" lon="11.444136025384068">
        <ele>0.14</ele>
        <time>2017-06-21T17:13:07Z</time>
      </trkpt>
      <trkpt lat="64.59305003285408" lon="11.44375397823751">
        <ele>-0.34</ele>
        <time>2017-06-21T17:13:08Z</time>
      </trkpt>
      <trkpt lat="64.593196967616677" lon="11.443381989374757">
        <ele>0.14</ele>
        <time>2017-06-21T17:13:09Z</time>
      </trkpt>
      <trkpt lat="64.593676999211311" lon="11.442341962829232">
        <ele>0.62</ele>
        <time>2017-06-21T17:13:12Z</time>
      </trkpt>
      <trkpt lat="64.593854025006294" lon="11.442067958414555">
        <ele>0.62</ele>
        <time>2017-06-21T17:13:13Z</time>
      </trkpt>
      <trkpt lat="64.594375966116786" lon="11.441270001232624">
        <ele>3.5</ele>
        <time>2017-06-21T17:13:16Z</time>
      </trkpt>
      <trkpt lat="64.594519967213273" lon="11.440948974341154">
        <ele>4.46</ele>
        <time>2017-06-21T17:13:17Z</time>
      </trkpt>
      <trkpt lat="64.594637984409928" lon="11.440601963549852">
        <ele>4.94</ele>
        <time>2017-06-21T17:13:18Z</time>
      </trkpt>
      <trkpt lat="64.594732029363513" lon="11.440239027142525">
        <ele>4.94</ele>
        <time>2017-06-21T17:13:19Z</time>
      </trkpt>
      <trkpt lat="64.594819033518434" lon="11.439851028844714">
        <ele>4.94</ele>
        <time>2017-06-21T17:13:20Z</time>
      </trkpt>
      <trkpt lat="64.595096977427602" lon="11.438787030056119">
        <ele>3.5</ele>
        <time>2017-06-21T17:13:23Z</time>
      </trkpt>
      <trkpt lat="64.595216000452638" lon="11.438526017591357">
        <ele>3.5</ele>
        <time>2017-06-21T17:13:24Z</time>
      </trkpt>
      <trkpt lat="64.59534902125597" lon="11.438322002068162">
        <ele>3.5</ele>
        <time>2017-06-21T17:13:25Z</time>
      </trkpt>
      <trkpt lat="64.595498973503709" lon="11.43816601485014">
        <ele>3.98</ele>
        <time>2017-06-21T17:13:26Z</time>
      </trkpt>
      <trkpt lat="64.595666024833918" lon="11.438069958239794">
        <ele>4.46</ele>
        <time>2017-06-21T17:13:27Z</time>
      </trkpt>
      <trkpt lat="64.595841038972139" lon="11.438023019582033">
        <ele>4.94</ele>
        <time>2017-06-21T17:13:28Z</time>
      </trkpt>
      <trkpt lat="64.596026027575135" lon="11.438001981005073">
        <ele>6.39</ele>
        <time>2017-06-21T17:13:29Z</time>
      </trkpt>
      <trkpt lat="64.596213027834892" lon="11.438012039288878">
        <ele>7.35</ele>
        <time>2017-06-21T17:13:30Z</time>
      </trkpt>
      <trkpt lat="64.596778973937035" lon="11.437944984063506">
        <ele>8.789999999999999</ele>
        <time>2017-06-21T17:13:33Z</time>
      </trkpt>
      <trkpt lat="64.596966980025172" lon="11.437849011272192">
        <ele>8.789999999999999</ele>
        <time>2017-06-21T17:13:34Z</time>
      </trkpt>
      <trkpt lat="64.597158003598452" lon="11.437710039317608">
        <ele>8.310000000000001</ele>
        <time>2017-06-21T17:13:35Z</time>
      </trkpt>
      <trkpt lat="64.59734802134335" lon="11.437532007694244">
        <ele>8.310000000000001</ele>
        <time>2017-06-21T17:13:36Z</time>
      </trkpt>
      <trkpt lat="64.597536027431488" lon="11.437320029363036">
        <ele>8.310000000000001</ele>
        <time>2017-06-21T17:13:37Z</time>
      </trkpt>
      <trkpt lat="64.598099961876869" lon="11.436718963086605">
        <ele>7.35</ele>
        <time>2017-06-21T17:13:40Z</time>
      </trkpt>
      <trkpt lat="64.598299032077193" lon="11.436590971425176">
        <ele>7.35</ele>
        <time>2017-06-21T17:13:41Z</time>
      </trkpt>
      <trkpt lat="64.598504975438118" lon="11.436511008068919">
        <ele>7.83</ele>
        <time>2017-06-21T17:13:42Z</time>
      </trkpt>
      <trkpt lat="64.598714020103216" lon="11.436473960056901">
        <ele>7.83</ele>
        <time>2017-06-21T17:13:43Z</time>
      </trkpt>
      <trkpt lat="64.598924992606044" lon="11.436467003077269">
        <ele>8.310000000000001</ele>
        <time>2017-06-21T17:13:44Z</time>
      </trkpt>
      <trkpt lat="64.600773034617305" lon="11.436110017821193">
        <ele>7.83</ele>
        <time>2017-06-21T17:13:53Z</time>
      </trkpt>
      <trkpt lat="64.601967958733439" lon="11.435241987928748">
        <ele>6.87</ele>
        <time>2017-06-21T17:14:00Z</time>
      </trkpt>
      <trkpt lat="64.602113971486688" lon="11.435027997940779">
        <ele>6.87</ele>
        <time>2017-06-21T17:14:01Z</time>
      </trkpt>
      <trkpt lat="64.602250009775162" lon="11.434775032103062">
        <ele>6.87</ele>
        <time>2017-06-21T17:14:02Z</time>
      </trkpt>
      <trkpt lat="64.602378001436591" lon="11.434489041566849">
        <ele>6.87</ele>
        <time>2017-06-21T17:14:03Z</time>
      </trkpt>
      <trkpt lat="64.602508004754782" lon="11.434175977483392">
        <ele>6.87</ele>
        <time>2017-06-21T17:14:04Z</time>
      </trkpt>
      <trkpt lat="64.603762021288276" lon="11.430529011413455">
        <ele>19.359999999999999</ele>
        <time>2017-06-21T17:14:14Z</time>
      </trkpt>
      <trkpt lat="64.604833982884884" lon="11.426512990146875">
        <ele>28.02</ele>
        <time>2017-06-21T17:14:25Z</time>
      </trkpt>
      <trkpt lat="64.605260035023093" lon="11.425186973065138">
        <ele>28.02</ele>
        <time>2017-06-21T17:14:29Z</time>
      </trkpt>
      <trkpt lat="64.605396995320916" lon="11.424939958378673">
        <ele>28.5</ele>
        <time>2017-06-21T17:14:30Z</time>
      </trkpt>
      <trkpt lat="64.605545019730926" lon="11.42474097199738">
        <ele>28.98</ele>
        <time>2017-06-21T17:14:31Z</time>
      </trkpt>
      <trkpt lat="64.60570503026247" lon="11.424585990607738">
        <ele>28.98</ele>
        <time>2017-06-21T17:14:32Z</time>
      </trkpt>
      <trkpt lat="64.605874009430408" lon="11.424468979239464">
        <ele>29.460000000000001</ele>
        <time>2017-06-21T17:14:33Z</time>
      </trkpt>
      <trkpt lat="64.60604902356863" lon="11.424410976469517">
        <ele>29.940000000000001</ele>
        <time>2017-06-21T17:14:34Z</time>
      </trkpt>
      <trkpt lat="64.606230994686484" lon="11.424390021711588">
        <ele>30.420000000000002</ele>
        <time>2017-06-21T17:14:35Z</time>
      </trkpt>
      <trkpt lat="64.606411959975958" lon="11.424410976469517">
        <ele>30.420000000000002</ele>
        <time>2017-06-21T17:14:36Z</time>
      </trkpt>
      <trkpt lat="64.606590997427702" lon="11.424465039744973">
        <ele>31.379999999999999</ele>
        <time>2017-06-21T17:14:37Z</time>
      </trkpt>
      <trkpt lat="64.607248976826668" lon="11.424597976729274">
        <ele>32.340000000000003</ele>
        <time>2017-06-21T17:14:41Z</time>
      </trkpt>
      <trkpt lat="64.60740496404469" lon="11.42454500310123">
        <ele>32.340000000000003</ele>
        <time>2017-06-21T17:14:42Z</time>
      </trkpt>
      <trkpt lat="64.607558017596602" lon="11.42446001060307">
        <ele>32.82</ele>
        <time>2017-06-21T17:14:43Z</time>
      </trkpt>
      <trkpt lat="64.60770595818758" lon="11.424339981749654">
        <ele>32.340000000000003</ele>
        <time>2017-06-21T17:14:44Z</time>
      </trkpt>
      <trkpt lat="64.60785498842597" lon="11.424205033108592">
        <ele>32.340000000000003</ele>
        <time>2017-06-21T17:14:45Z</time>
      </trkpt>
      <trkpt lat="64.608304006978869" lon="11.423881994560361">
        <ele>30.899999999999999</ele>
        <time>2017-06-21T17:14:48Z</time>
      </trkpt>
      <trkpt lat="64.608453959226608" lon="11.423850981518626">
        <ele>29.940000000000001</ele>
        <time>2017-06-21T17:14:49Z</time>
      </trkpt>
      <trkpt lat="64.608599971979856" lon="11.423875959590077">
        <ele>29.460000000000001</ele>
        <time>2017-06-21T17:14:50Z</time>
      </trkpt>
      <trkpt lat="64.608745984733105" lon="11.42394301481545">
        <ele>28.5</ele>
        <time>2017-06-21T17:14:51Z</time>
      </trkpt>
      <trkpt lat="64.608891997486353" lon="11.424063965678215">
        <ele>27.530000000000001</ele>
        <time>2017-06-21T17:14:52Z</time>
      </trkpt>
      <trkpt lat="64.609032981097698" lon="11.424233028665185">
        <ele>27.050000000000001</ele>
        <time>2017-06-21T17:14:53Z</time>
      </trkpt>
      <trkpt lat="64.609175976365805" lon="11.424437966197729">
        <ele>27.050000000000001</ele>
        <time>2017-06-21T17:14:54Z</time>
      </trkpt>
      <trkpt lat="64.60931695997715" lon="11.424667965620756">
        <ele>26.57</ele>
        <time>2017-06-21T17:14:55Z</time>
      </trkpt>
      <trkpt lat="64.611028963699937" lon="11.427672039717436">
        <ele>15.039999999999999</ele>
        <time>2017-06-21T17:15:06Z</time>
      </trkpt>
      <trkpt lat="64.611922977492213" lon="11.429065028205514">
        <ele>6.87</ele>
        <time>2017-06-21T17:15:12Z</time>
      </trkpt>
      <trkpt lat="64.612059015780687" lon="11.429168041795492">
        <ele>5.91</ele>
        <time>2017-06-21T17:15:13Z</time>
      </trkpt>
      <trkpt lat="64.612198993563652" lon="11.429201988503337">
        <ele>4.46</ele>
        <time>2017-06-21T17:15:14Z</time>
      </trkpt>
      <trkpt lat="64.612349029630423" lon="11.429196959361434">
        <ele>3.5</ele>
        <time>2017-06-21T17:15:15Z</time>
      </trkpt>
      <trkpt lat="64.612503005191684" lon="11.429151026532054">
        <ele>2.54</ele>
        <time>2017-06-21T17:15:16Z</time>
      </trkpt>
      <trkpt lat="64.612663015723228" lon="11.429053964093328">
        <ele>1.58</ele>
        <time>2017-06-21T17:15:17Z</time>
      </trkpt>
      <trkpt lat="64.612825037911534" lon="11.428948016837239">
        <ele>1.1</ele>
        <time>2017-06-21T17:15:18Z</time>
      </trkpt>
      <trkpt lat="64.614994022995234" lon="11.427611019462347">
        <ele>0.62</ele>
        <time>2017-06-21T17:15:30Z</time>
      </trkpt>
      <trkpt lat="64.615161996334791" lon="11.427599033340812">
        <ele>0.14</ele>
        <time>2017-06-21T17:15:31Z</time>
      </trkpt>
      <trkpt lat="64.616303024813533" lon="11.428123991936445">
        <ele>1.1</ele>
        <time>2017-06-21T17:15:37Z</time>
      </trkpt>
      <trkpt lat="64.617647984996438" lon="11.428841985762119">
        <ele>10.23</ele>
        <time>2017-06-21T17:15:44Z</time>
      </trkpt>
      <trkpt lat="64.619093025103211" lon="11.429116996005177">
        <ele>20.32</ele>
        <time>2017-06-21T17:15:52Z</time>
      </trkpt>
      <trkpt lat="64.619250018149614" lon="11.429243981838226">
        <ele>22.25</ele>
        <time>2017-06-21T17:15:53Z</time>
      </trkpt>
      <trkpt lat="64.619395025074482" lon="11.429395023733377">
        <ele>23.690000000000001</ele>
        <time>2017-06-21T17:15:54Z</time>
      </trkpt>
      <trkpt lat="64.61952100507915" lon="11.429586969316006">
        <ele>26.09</ele>
        <time>2017-06-21T17:15:55Z</time>
      </trkpt>
      <trkpt lat="64.619631981477141" lon="11.429808000102639">
        <ele>27.530000000000001</ele>
        <time>2017-06-21T17:15:56Z</time>
      </trkpt>
      <trkpt lat="64.619744969531894" lon="11.430053003132343">
        <ele>28.98</ele>
        <time>2017-06-21T17:15:57Z</time>
      </trkpt>
      <trkpt lat="64.619845971465111" lon="11.43032499589026">
        <ele>30.420000000000002</ele>
        <time>2017-06-21T17:15:58Z</time>
      </trkpt>
      <trkpt lat="64.620985994115472" lon="11.433688988909125">
        <ele>40.990000000000002</ele>
        <time>2017-06-21T17:16:09Z</time>
      </trkpt>
      <trkpt lat="64.621057994663715" lon="11.434024013578892">
        <ele>41.469999999999999</ele>
        <time>2017-06-21T17:16:10Z</time>
      </trkpt>
      <trkpt lat="64.621109962463379" lon="11.434374963864684">
        <ele>42.439999999999998</ele>
        <time>2017-06-21T17:16:11Z</time>
      </trkpt>
      <trkpt lat="64.621149022132158" lon="11.434730021283031">
        <ele>43.399999999999999</ele>
        <time>2017-06-21T17:16:12Z</time>
      </trkpt>
      <trkpt lat="64.621158996596932" lon="11.435089018195868">
        <ele>43.399999999999999</ele>
        <time>2017-06-21T17:16:13Z</time>
      </trkpt>
      <trkpt lat="64.621147010475397" lon="11.435446003451943">
        <ele>43.880000000000003</ele>
        <time>2017-06-21T17:16:14Z</time>
      </trkpt>
      <trkpt lat="64.621112979948521" lon="11.43578396178782">
        <ele>44.840000000000003</ele>
        <time>2017-06-21T17:16:15Z</time>
      </trkpt>
      <trkpt lat="64.621056988835335" lon="11.436102977022529">
        <ele>45.799999999999997</ele>
        <time>2017-06-21T17:16:16Z</time>
      </trkpt>
      <trkpt lat="64.620978031307459" lon="11.436403971165419">
        <ele>46.759999999999998</ele>
        <time>2017-06-21T17:16:17Z</time>
      </trkpt>
      <trkpt lat="64.620868982747197" lon="11.436674958094954">
        <ele>47.240000000000002</ele>
        <time>2017-06-21T17:16:18Z</time>
      </trkpt>
      <trkpt lat="64.620747026056051" lon="11.436923984438181">
        <ele>48.200000000000003</ele>
        <time>2017-06-21T17:16:19Z</time>
      </trkpt>
      <trkpt lat="64.620611993595958" lon="11.437159013003111">
        <ele>49.649999999999999</ele>
        <time>2017-06-21T17:16:20Z</time>
      </trkpt>
      <trkpt lat="64.620468998327851" lon="11.437400998547673">
        <ele>51.090000000000003</ele>
        <time>2017-06-21T17:16:21Z</time>
      </trkpt>
      <trkpt lat="64.618913987651467" lon="11.439978014677763">
        <ele>62.140000000000001</ele>
        <time>2017-06-21T17:16:31Z</time>
      </trkpt>
      <trkpt lat="64.61846798658371" lon="11.441115019842982">
        <ele>65.989999999999995</ele>
        <time>2017-06-21T17:16:35Z</time>
      </trkpt>
      <trkpt lat="64.61838299408555" lon="11.441452978178859">
        <ele>66.950000000000003</ele>
        <time>2017-06-21T17:16:36Z</time>
      </trkpt>
      <trkpt lat="64.618313005194068" lon="11.441821027547121">
        <ele>67.430000000000007</ele>
        <time>2017-06-21T17:16:37Z</time>
      </trkpt>
      <trkpt lat="64.618255002424121" lon="11.442216988652945">
        <ele>67.430000000000007</ele>
        <time>2017-06-21T17:16:38Z</time>
      </trkpt>
      <trkpt lat="64.618207979947329" lon="11.442648991942406">
        <ele>67.430000000000007</ele>
        <time>2017-06-21T17:16:39Z</time>
      </trkpt>
      <trkpt lat="64.618170009925961" lon="11.443112008273602">
        <ele>67.430000000000007</ele>
        <time>2017-06-21T17:16:40Z</time>
      </trkpt>
      <trkpt lat="64.618137991055846" lon="11.443592039868236">
        <ele>67.909999999999997</ele>
        <time>2017-06-21T17:16:41Z</time>
      </trkpt>
      <trkpt lat="64.617774970829487" lon="11.447894973680377">
        <ele>72.239999999999995</ele>
        <time>2017-06-21T17:16:50Z</time>
      </trkpt>
      <trkpt lat="64.616995034739375" lon="11.450118022039533">
        <ele>74.159999999999997</ele>
        <time>2017-06-21T17:16:56Z</time>
      </trkpt>
      <trkpt lat="64.615900022909045" lon="11.451799012720585">
        <ele>77.519999999999996</ele>
        <time>2017-06-21T17:17:03Z</time>
      </trkpt>
      <trkpt lat="64.615796003490686" lon="11.452043009921908">
        <ele>78.480000000000004</ele>
        <time>2017-06-21T17:17:04Z</time>
      </trkpt>
      <trkpt lat="64.615703970193863" lon="11.452307961881161">
        <ele>78.969999999999999</ele>
        <time>2017-06-21T17:17:05Z</time>
      </trkpt>
      <trkpt lat="64.615639010444283" lon="11.452589007094502">
        <ele>79.450000000000003</ele>
        <time>2017-06-21T17:17:06Z</time>
      </trkpt>
      <trkpt lat="64.615587964653969" lon="11.452891007065773">
        <ele>79.930000000000007</ele>
        <time>2017-06-21T17:17:07Z</time>
      </trkpt>
      <trkpt lat="64.615558041259646" lon="11.453210022300482">
        <ele>79.930000000000007</ele>
        <time>2017-06-21T17:17:08Z</time>
      </trkpt>
      <trkpt lat="64.615544965490699" lon="11.453541023656726">
        <ele>79.930000000000007</ele>
        <time>2017-06-21T17:17:09Z</time>
      </trkpt>
      <trkpt lat="64.615543959662318" lon="11.45387495867908">
        <ele>79.450000000000003</ele>
        <time>2017-06-21T17:17:10Z</time>
      </trkpt>
      <trkpt lat="64.615558963268995" lon="11.454203026369214">
        <ele>79.930000000000007</ele>
        <time>2017-06-21T17:17:11Z</time>
      </trkpt>
      <trkpt lat="64.615592993795872" lon="11.454520029947162">
        <ele>79.450000000000003</ele>
        <time>2017-06-21T17:17:12Z</time>
      </trkpt>
      <trkpt lat="64.615648984909058" lon="11.454820018261671">
        <ele>79.450000000000003</ele>
        <time>2017-06-21T17:17:13Z</time>
      </trkpt>
      <trkpt lat="64.615717967972159" lon="11.45509603433311">
        <ele>79.450000000000003</ele>
        <time>2017-06-21T17:17:14Z</time>
      </trkpt>
      <trkpt lat="64.615805977955461" lon="11.455349000170827">
        <ele>79.930000000000007</ele>
        <time>2017-06-21T17:17:15Z</time>
      </trkpt>
      <trkpt lat="64.615912009030581" lon="11.455580005422235">
        <ele>79.930000000000007</ele>
        <time>2017-06-21T17:17:16Z</time>
      </trkpt>
      <trkpt lat="64.616032959893346" lon="11.455800030380487">
        <ele>79.930000000000007</ele>
        <time>2017-06-21T17:17:17Z</time>
      </trkpt>
      <trkpt lat="64.61616899818182" lon="11.455995999276638">
        <ele>79.930000000000007</ele>
        <time>2017-06-21T17:17:18Z</time>
      </trkpt>
      <trkpt lat="64.616316016763449" lon="11.456181993708014">
        <ele>80.409999999999997</ele>
        <time>2017-06-21T17:17:19Z</time>
      </trkpt>
      <trkpt lat="64.616472003981471" lon="11.456357007846236">
        <ele>80.409999999999997</ele>
        <time>2017-06-21T17:17:20Z</time>
      </trkpt>
      <trkpt lat="64.617091007530689" lon="11.457056980580091">
        <ele>80.409999999999997</ele>
        <time>2017-06-21T17:17:24Z</time>
      </trkpt>
      <trkpt lat="64.617220005020499" lon="11.457273988053203">
        <ele>80.890000000000001</ele>
        <time>2017-06-21T17:17:25Z</time>
      </trkpt>
      <trkpt lat="64.617332993075252" lon="11.457535000517964">
        <ele>81.370000000000005</ele>
        <time>2017-06-21T17:17:26Z</time>
      </trkpt>
      <trkpt lat="64.617435000836849" lon="11.457828031852841">
        <ele>81.849999999999994</ele>
        <time>2017-06-21T17:17:27Z</time>
      </trkpt>
      <trkpt lat="64.617526028305292" lon="11.458151992410421">
        <ele>81.849999999999994</ele>
        <time>2017-06-21T17:17:28Z</time>
      </trkpt>
      <trkpt lat="64.617610014975071" lon="11.458502020686865">
        <ele>81.849999999999994</ele>
        <time>2017-06-21T17:17:29Z</time>
      </trkpt>
      <trkpt lat="64.618463041260839" lon="11.462820963934064">
        <ele>96.269999999999996</ele>
        <time>2017-06-21T17:17:40Z</time>
      </trkpt>
      <trkpt lat="64.619087995961308" lon="11.464415034279227">
        <ele>103</ele>
        <time>2017-06-21T17:17:46Z</time>
      </trkpt>
      <trkpt lat="64.619221016764641" lon="11.464608991518617">
        <ele>103.48</ele>
        <time>2017-06-21T17:17:47Z</time>
      </trkpt>
      <trkpt lat="64.619360994547606" lon="11.464774031192064">
        <ele>103.48</ele>
        <time>2017-06-21T17:17:48Z</time>
      </trkpt>
      <trkpt lat="64.619508013129234" lon="11.464906968176365">
        <ele>103.95999999999999</ele>
        <time>2017-06-21T17:17:49Z</time>
      </trkpt>
      <trkpt lat="64.619659977033734" lon="11.465015010908246">
        <ele>104.44</ele>
        <time>2017-06-21T17:17:50Z</time>
      </trkpt>
      <trkpt lat="64.61982199922204" lon="11.465082988142967">
        <ele>105.40000000000001</ele>
        <time>2017-06-21T17:17:51Z</time>
      </trkpt>
      <trkpt lat="64.619983015581965" lon="11.465138979256153">
        <ele>105.88</ele>
        <time>2017-06-21T17:17:52Z</time>
      </trkpt>
      <trkpt lat="64.620150988921523" lon="11.46517401561141">
        <ele>106.84</ele>
        <time>2017-06-21T17:17:53Z</time>
      </trkpt>
      <trkpt lat="64.620320973917842" lon="11.465187007561326">
        <ele>106.84</ele>
        <time>2017-06-21T17:17:54Z</time>
      </trkpt>
      <trkpt lat="64.622274041175842" lon="11.465022973716259">
        <ele>107.81</ele>
        <time>2017-06-21T17:18:04Z</time>
      </trkpt>
      <trkpt lat="64.624261977151036" lon="11.464516958221793">
        <ele>103.95999999999999</ele>
        <time>2017-06-21T17:18:14Z</time>
      </trkpt>
      <trkpt lat="64.627065975219011" lon="11.463076025247574">
        <ele>93.870000000000005</ele>
        <time>2017-06-21T17:18:27Z</time>
      </trkpt>
      <trkpt lat="64.628849979490042" lon="11.461886968463659">
        <ele>96.269999999999996</ele>
        <time>2017-06-21T17:18:36Z</time>
      </trkpt>
      <trkpt lat="64.630325026810169" lon="11.459670038893819">
        <ele>90.5</ele>
        <time>2017-06-21T17:18:45Z</time>
      </trkpt>
      <trkpt lat="64.632154041901231" lon="11.456169001758099">
        <ele>78.480000000000004</ele>
        <time>2017-06-21T17:18:56Z</time>
      </trkpt>
      <trkpt lat="64.633632022887468" lon="11.454208977520466">
        <ele>78.480000000000004</ele>
        <time>2017-06-21T17:19:04Z</time>
      </trkpt>
      <trkpt lat="64.635196002200246" lon="11.453213039785624">
        <ele>77.040000000000006</ele>
        <time>2017-06-21T17:19:12Z</time>
      </trkpt>
      <trkpt lat="64.635361963883042" lon="11.453034002333879">
        <ele>76.560000000000002</ele>
        <time>2017-06-21T17:19:13Z</time>
      </trkpt>
      <trkpt lat="64.635521974414587" lon="11.452806014567614">
        <ele>76.560000000000002</ele>
        <time>2017-06-21T17:19:14Z</time>
      </trkpt>
      <trkpt lat="64.63567603379488" lon="11.452523041516542">
        <ele>77.519999999999996</ele>
        <time>2017-06-21T17:19:15Z</time>
      </trkpt>
      <trkpt lat="64.635826991870999" lon="11.452219029888511">
        <ele>78</ele>
        <time>2017-06-21T17:19:16Z</time>
      </trkpt>
      <trkpt lat="64.635974010452628" lon="11.451882999390364">
        <ele>79.450000000000003</ele>
        <time>2017-06-21T17:19:17Z</time>
      </trkpt>
      <trkpt lat="64.637411003932357" lon="11.448827041313052">
        <ele>95.310000000000002</ele>
        <time>2017-06-21T17:19:27Z</time>
      </trkpt>
      <trkpt lat="64.637574031949043" lon="11.448639035224915">
        <ele>96.75</ele>
        <time>2017-06-21T17:19:28Z</time>
      </trkpt>
      <trkpt lat="64.637744016945362" lon="11.448496961966157">
        <ele>98.189999999999998</ele>
        <time>2017-06-21T17:19:29Z</time>
      </trkpt>
      <trkpt lat="64.637916013598442" lon="11.448392020538449">
        <ele>99.150000000000006</ele>
        <time>2017-06-21T17:19:30Z</time>
      </trkpt>
      <trkpt lat="64.638093961402774" lon="11.448314990848303">
        <ele>100.59999999999999</ele>
        <time>2017-06-21T17:19:31Z</time>
      </trkpt>
      <trkpt lat="64.638274004682899" lon="11.448279032483697">
        <ele>102.52</ele>
        <time>2017-06-21T17:19:32Z</time>
      </trkpt>
      <trkpt lat="64.638452958315611" lon="11.448280960321426">
        <ele>103.48</ele>
        <time>2017-06-21T17:19:33Z</time>
      </trkpt>
      <trkpt lat="64.638636019080877" lon="11.448309039697051">
        <ele>104.92</ele>
        <time>2017-06-21T17:19:34Z</time>
      </trkpt>
      <trkpt lat="64.640129003673792" lon="11.448338963091373">
        <ele>117.90000000000001</ele>
        <time>2017-06-21T17:19:42Z</time>
      </trkpt>
      <trkpt lat="64.642384992912412" lon="11.447577970102429">
        <ele>128.47</ele>
        <time>2017-06-21T17:19:54Z</time>
      </trkpt>
      <trkpt lat="64.64257501065731" lon="11.447630021721125">
        <ele>128.47</ele>
        <time>2017-06-21T17:19:55Z</time>
      </trkpt>
      <trkpt lat="64.642764022573829" lon="11.447718031704426">
        <ele>128.47</ele>
        <time>2017-06-21T17:19:56Z</time>
      </trkpt>
      <trkpt lat="64.644283996894956" lon="11.448232010006905">
        <ele>126.06999999999999</ele>
        <time>2017-06-21T17:20:04Z</time>
      </trkpt>
      <trkpt lat="64.646106977015734" lon="11.447497000917792">
        <ele>134.72</ele>
        <time>2017-06-21T17:20:13Z</time>
      </trkpt>
      <trkpt lat="64.648703020066023" lon="11.446156986057758">
        <ele>147.22</ele>
        <time>2017-06-21T17:20:27Z</time>
      </trkpt>
      <trkpt lat="64.650440001860261" lon="11.444877991452813">
        <ele>158.27000000000001</ele>
        <time>2017-06-21T17:20:37Z</time>
      </trkpt>
      <trkpt lat="64.651517998427153" lon="11.445087036117911">
        <ele>162.12</ele>
        <time>2017-06-21T17:20:43Z</time>
      </trkpt>
      <trkpt lat="64.652947029098868" lon="11.445935033261776">
        <ele>165.47999999999999</ele>
        <time>2017-06-21T17:20:51Z</time>
      </trkpt>
      <trkpt lat="64.654626008123159" lon="11.445935033261776">
        <ele>163.08000000000001</ele>
        <time>2017-06-21T17:21:00Z</time>
      </trkpt>
      <trkpt lat="64.655743986368179" lon="11.446930970996618">
        <ele>165</ele>
        <time>2017-06-21T17:21:06Z</time>
      </trkpt>
      <trkpt lat="64.656960032880306" lon="11.448225975036621">
        <ele>165</ele>
        <time>2017-06-21T17:21:13Z</time>
      </trkpt>
      <trkpt lat="64.658546978607774" lon="11.448624031618237">
        <ele>159.72</ele>
        <time>2017-06-21T17:21:21Z</time>
      </trkpt>
      <trkpt lat="64.660932971164584" lon="11.448040986433625">
        <ele>153.47</ele>
        <time>2017-06-21T17:21:32Z</time>
      </trkpt>
      <trkpt lat="64.662955021485686" lon="11.446451023221016">
        <ele>152.99000000000001</ele>
        <time>2017-06-21T17:21:42Z</time>
      </trkpt>
      <trkpt lat="64.665765976533294" lon="11.444552019238472">
        <ele>128.94999999999999</ele>
        <time>2017-06-21T17:21:55Z</time>
      </trkpt>
      <trkpt lat="64.668211983516812" lon="11.443664962425828">
        <ele>113.56999999999999</ele>
        <time>2017-06-21T17:22:06Z</time>
      </trkpt>
      <trkpt lat="64.670466966927052" lon="11.443162970244884">
        <ele>92.900000000000006</ele>
        <time>2017-06-21T17:22:17Z</time>
      </trkpt>
      <trkpt lat="64.670642986893654" lon="11.443035984411836">
        <ele>91.459999999999994</ele>
        <time>2017-06-21T17:22:18Z</time>
      </trkpt>
      <trkpt lat="64.670810038223863" lon="11.442883014678955">
        <ele>89.540000000000006</ele>
        <time>2017-06-21T17:22:19Z</time>
      </trkpt>
      <trkpt lat="64.670968037098646" lon="11.442697020247579">
        <ele>88.099999999999994</ele>
        <time>2017-06-21T17:22:20Z</time>
      </trkpt>
      <trkpt lat="64.671111032366753" lon="11.442474983632565">
        <ele>86.659999999999997</ele>
        <time>2017-06-21T17:22:21Z</time>
      </trkpt>
      <trkpt lat="64.671242963522673" lon="11.442217994481325">
        <ele>85.689999999999998</ele>
        <time>2017-06-21T17:22:22Z</time>
      </trkpt>
      <trkpt lat="64.671357041224837" lon="11.44192898645997">
        <ele>84.25</ele>
        <time>2017-06-21T17:22:23Z</time>
      </trkpt>
      <trkpt lat="64.671453014016151" lon="11.441608965396881">
        <ele>82.329999999999998</ele>
        <time>2017-06-21T17:22:24Z</time>
      </trkpt>
      <trkpt lat="64.671532977372408" lon="11.441263966262341">
        <ele>80.409999999999997</ele>
        <time>2017-06-21T17:22:25Z</time>
      </trkpt>
      <trkpt lat="64.671604977920651" lon="11.440887032076716">
        <ele>78.969999999999999</ele>
        <time>2017-06-21T17:22:26Z</time>
      </trkpt>
      <trkpt lat="64.67166599817574" lon="11.4404889754951">
        <ele>77.040000000000006</ele>
        <time>2017-06-21T17:22:27Z</time>
      </trkpt>
      <trkpt lat="64.671716038137674" lon="11.440064013004303">
        <ele>75.599999999999994</ele>
        <time>2017-06-21T17:22:28Z</time>
      </trkpt>
      <trkpt lat="64.671759959310293" lon="11.439625974744558">
        <ele>73.680000000000007</ele>
        <time>2017-06-21T17:22:29Z</time>
      </trkpt>
      <trkpt lat="64.672205960378051" lon="11.436679987236857">
        <ele>61.659999999999997</ele>
        <time>2017-06-21T17:22:36Z</time>
      </trkpt>
      <trkpt lat="64.672317020595074" lon="11.436312021687627">
        <ele>59.740000000000002</ele>
        <time>2017-06-21T17:22:37Z</time>
      </trkpt>
      <trkpt lat="64.672443000599742" lon="11.435966016724706">
        <ele>58.299999999999997</ele>
        <time>2017-06-21T17:22:38Z</time>
      </trkpt>
      <trkpt lat="64.672584990039468" lon="11.435637027025223">
        <ele>56.859999999999999</ele>
        <time>2017-06-21T17:22:39Z</time>
      </trkpt>
      <trkpt lat="64.672738965600729" lon="11.435322035104036">
        <ele>54.93</ele>
        <time>2017-06-21T17:22:40Z</time>
      </trkpt>
      <trkpt lat="64.673822997137904" lon="11.433965004980564">
        <ele>47.240000000000002</ele>
        <time>2017-06-21T17:22:46Z</time>
      </trkpt>
      <trkpt lat="64.674023995175958" lon="11.433878000825644">
        <ele>46.759999999999998</ele>
        <time>2017-06-21T17:22:47Z</time>
      </trkpt>
      <trkpt lat="64.674229016527534" lon="11.433837013319135">
        <ele>46.280000000000001</ele>
        <time>2017-06-21T17:22:48Z</time>
      </trkpt>
      <trkpt lat="64.674436971545219" lon="11.433831984177232">
        <ele>45.32</ele>
        <time>2017-06-21T17:22:49Z</time>
      </trkpt>
      <trkpt lat="64.674646016210318" lon="11.433864003047347">
        <ele>44.840000000000003</ele>
        <time>2017-06-21T17:22:50Z</time>
      </trkpt>
      <trkpt lat="64.674855982884765" lon="11.433930974453688">
        <ele>44.840000000000003</ele>
        <time>2017-06-21T17:22:51Z</time>
      </trkpt>
      <trkpt lat="64.675064021721482" lon="11.434037005528808">
        <ele>44.359999999999999</ele>
        <time>2017-06-21T17:22:52Z</time>
      </trkpt>
      <trkpt lat="64.675270970910788" lon="11.434176983311772">
        <ele>44.359999999999999</ele>
        <time>2017-06-21T17:22:53Z</time>
      </trkpt>
      <trkpt lat="64.675473980605602" lon="11.434346968308091">
        <ele>43.880000000000003</ele>
        <time>2017-06-21T17:22:54Z</time>
      </trkpt>
      <trkpt lat="64.675671961158514" lon="11.434548972174525">
        <ele>43.399999999999999</ele>
        <time>2017-06-21T17:22:55Z</time>
      </trkpt>
      <trkpt lat="64.675867008045316" lon="11.434788024052978">
        <ele>42.920000000000002</ele>
        <time>2017-06-21T17:22:56Z</time>
      </trkpt>
      <trkpt lat="64.676058031618595" lon="11.435051970183849">
        <ele>42.439999999999998</ele>
        <time>2017-06-21T17:22:57Z</time>
      </trkpt>
      <trkpt lat="64.67755101621151" lon="11.437063040211797">
        <ele>39.549999999999997</ele>
        <time>2017-06-21T17:23:05Z</time>
      </trkpt>
      <trkpt lat="64.677747990936041" lon="11.437160018831491">
        <ele>39.07</ele>
        <time>2017-06-21T17:23:06Z</time>
      </trkpt>
      <trkpt lat="64.677952006459236" lon="11.437207041308284">
        <ele>38.590000000000003</ele>
        <time>2017-06-21T17:23:07Z</time>
      </trkpt>
      <trkpt lat="64.678164990618825" lon="11.437213998287916">
        <ele>38.590000000000003</ele>
        <time>2017-06-21T17:23:08Z</time>
      </trkpt>
      <trkpt lat="64.678378980606794" lon="11.437169993296266">
        <ele>38.590000000000003</ele>
        <time>2017-06-21T17:23:09Z</time>
      </trkpt>
      <trkpt lat="64.678587019443512" lon="11.437080977484584">
        <ele>38.590000000000003</ele>
        <time>2017-06-21T17:23:10Z</time>
      </trkpt>
      <trkpt lat="64.678792040795088" lon="11.436948962509632">
        <ele>38.590000000000003</ele>
        <time>2017-06-21T17:23:11Z</time>
      </trkpt>
      <trkpt lat="64.678989015519619" lon="11.436777971684933">
        <ele>38.109999999999999</ele>
        <time>2017-06-21T17:23:12Z</time>
      </trkpt>
      <trkpt lat="64.679177021607757" lon="11.436573034152389">
        <ele>38.590000000000003</ele>
        <time>2017-06-21T17:23:13Z</time>
      </trkpt>
      <trkpt lat="64.679354969412088" lon="11.436331970617175">
        <ele>38.590000000000003</ele>
        <time>2017-06-21T17:23:14Z</time>
      </trkpt>
      <trkpt lat="64.679525038227439" lon="11.436060983687639">
        <ele>38.590000000000003</ele>
        <time>2017-06-21T17:23:15Z</time>
      </trkpt>
      <trkpt lat="64.679683037102222" lon="11.435764012858272">
        <ele>38.590000000000003</ele>
        <time>2017-06-21T17:23:16Z</time>
      </trkpt>
      <trkpt lat="64.681214997544885" lon="11.433209041133523">
        <ele>35.710000000000001</ele>
        <time>2017-06-21T17:23:25Z</time>
      </trkpt>
      <trkpt lat="64.681423958390951" lon="11.433050958439708">
        <ele>35.229999999999997</ele>
        <time>2017-06-21T17:23:26Z</time>
      </trkpt>
      <trkpt lat="64.681638032197952" lon="11.432940987870097">
        <ele>34.740000000000002</ele>
        <time>2017-06-21T17:23:27Z</time>
      </trkpt>
      <trkpt lat="64.681853028014302" lon="11.432873010635376">
        <ele>33.299999999999997</ele>
        <time>2017-06-21T17:23:28Z</time>
      </trkpt>
      <trkpt lat="64.682076992467046" lon="11.432851972058415">
        <ele>32.340000000000003</ele>
        <time>2017-06-21T17:23:29Z</time>
      </trkpt>
      <trkpt lat="64.682301040738821" lon="11.432866975665092">
        <ele>31.859999999999999</ele>
        <time>2017-06-21T17:23:30Z</time>
      </trkpt>
      <trkpt lat="64.682525005191565" lon="11.43292497843504">
        <ele>30.420000000000002</ele>
        <time>2017-06-21T17:23:31Z</time>
      </trkpt>
      <trkpt lat="64.682747041806579" lon="11.433016005903482">
        <ele>28.98</ele>
        <time>2017-06-21T17:23:32Z</time>
      </trkpt>
      <trkpt lat="64.683963004499674" lon="11.433528978377581">
        <ele>21.77</ele>
        <time>2017-06-21T17:23:38Z</time>
      </trkpt>
      <trkpt lat="64.684129972010851" lon="11.433512968942523">
        <ele>20.32</ele>
        <time>2017-06-21T17:23:39Z</time>
      </trkpt>
      <trkpt lat="64.684285037219524" lon="11.433455972000957">
        <ele>19.359999999999999</ele>
        <time>2017-06-21T17:23:40Z</time>
      </trkpt>
      <trkpt lat="64.684437001124024" lon="11.433361005038023">
        <ele>17.920000000000002</ele>
        <time>2017-06-21T17:23:41Z</time>
      </trkpt>
      <trkpt lat="64.684597011655569" lon="11.433241982012987">
        <ele>15.52</ele>
        <time>2017-06-21T17:23:42Z</time>
      </trkpt>
      <trkpt lat="64.686082033440471" lon="11.432072035968304">
        <ele>3.98</ele>
        <time>2017-06-21T17:23:50Z</time>
      </trkpt>
      <trkpt lat="64.686267022043467" lon="11.432054014876485">
        <ele>3.02</ele>
        <time>2017-06-21T17:23:51Z</time>
      </trkpt>
      <trkpt lat="64.686451004818082" lon="11.432083016261458">
        <ele>2.54</ele>
        <time>2017-06-21T17:23:52Z</time>
      </trkpt>
      <trkpt lat="64.686629036441445" lon="11.432164991274476">
        <ele>2.06</ele>
        <time>2017-06-21T17:23:53Z</time>
      </trkpt>
      <trkpt lat="64.686802038922906" lon="11.432307986542583">
        <ele>1.58</ele>
        <time>2017-06-21T17:23:54Z</time>
      </trkpt>
      <trkpt lat="64.686972023919225" lon="11.432500015944242">
        <ele>1.58</ele>
        <time>2017-06-21T17:23:55Z</time>
      </trkpt>
      <trkpt lat="64.68713304027915" lon="11.432743007317185">
        <ele>1.1</ele>
        <time>2017-06-21T17:23:56Z</time>
      </trkpt>
      <trkpt lat="64.687280980870128" lon="11.433050958439708">
        <ele>0.14</ele>
        <time>2017-06-21T17:23:57Z</time>
      </trkpt>
      <trkpt lat="64.687422970309854" lon="11.433399980887771">
        <ele>0.14</ele>
        <time>2017-06-21T17:23:58Z</time>
      </trkpt>
      <trkpt lat="64.687559008598328" lon="11.433772975578904">
        <ele>0.62</ele>
        <time>2017-06-21T17:23:59Z</time>
      </trkpt>
      <trkpt lat="64.688379010185599" lon="11.43612502142787">
        <ele>1.58</ele>
        <time>2017-06-21T17:24:06Z</time>
      </trkpt>
      <trkpt lat="64.689488019794226" lon="11.437915982678533">
        <ele>3.98</ele>
        <time>2017-06-21T17:24:14Z</time>
      </trkpt>
      <trkpt lat="64.691184014081955" lon="11.440218994393945">
        <ele>6.39</ele>
        <time>2017-06-21T17:24:25Z</time>
      </trkpt>
      <trkpt lat="64.691312005743384" lon="11.440543038770556">
        <ele>6.87</ele>
        <time>2017-06-21T17:24:26Z</time>
      </trkpt>
      <trkpt lat="64.691427005454898" lon="11.440902035683393">
        <ele>7.35</ele>
        <time>2017-06-21T17:24:27Z</time>
      </trkpt>
      <trkpt lat="64.691532030701637" lon="11.441288022324443">
        <ele>7.83</ele>
        <time>2017-06-21T17:24:28Z</time>
      </trkpt>
      <trkpt lat="64.691620962694287" lon="11.441704016178846">
        <ele>8.310000000000001</ele>
        <time>2017-06-21T17:24:29Z</time>
      </trkpt>
      <trkpt lat="64.691705033183098" lon="11.442131996154785">
        <ele>8.789999999999999</ele>
        <time>2017-06-21T17:24:30Z</time>
      </trkpt>
      <trkpt lat="64.692621007561684" lon="11.445332039147615">
        <ele>12.15</ele>
        <time>2017-06-21T17:24:38Z</time>
      </trkpt>
      <trkpt lat="64.694120027124882" lon="11.448833998292685">
        <ele>13.119999999999999</ele>
        <time>2017-06-21T17:24:49Z</time>
      </trkpt>
      <trkpt lat="64.695829013362527" lon="11.452469984069467">
        <ele>15.039999999999999</ele>
        <time>2017-06-21T17:25:02Z</time>
      </trkpt>
      <trkpt lat="64.695982988923788" lon="11.45260401070118">
        <ele>15.039999999999999</ele>
        <time>2017-06-21T17:25:03Z</time>
      </trkpt>
      <trkpt lat="64.696146016940475" lon="11.452689003199339">
        <ele>15.039999999999999</ele>
        <time>2017-06-21T17:25:04Z</time>
      </trkpt>
      <trkpt lat="64.69630803912878" lon="11.452724039554596">
        <ele>14.56</ele>
        <time>2017-06-21T17:25:05Z</time>
      </trkpt>
      <trkpt lat="64.696463020518422" lon="11.452710041776299">
        <ele>14.08</ele>
        <time>2017-06-21T17:25:06Z</time>
      </trkpt>
      <trkpt lat="64.696616996079683" lon="11.452636029571295">
        <ele>13.6</ele>
        <time>2017-06-21T17:25:07Z</time>
      </trkpt>
      <trkpt lat="64.696764014661312" lon="11.452502002939582">
        <ele>12.630000000000001</ele>
        <time>2017-06-21T17:25:08Z</time>
      </trkpt>
      <trkpt lat="64.696906004101038" lon="11.452317014336586">
        <ele>11.19</ele>
        <time>2017-06-21T17:25:09Z</time>
      </trkpt>
      <trkpt lat="64.697044976055622" lon="11.45209196023643">
        <ele>10.710000000000001</ele>
        <time>2017-06-21T17:25:10Z</time>
      </trkpt>
      <trkpt lat="64.697177996858954" lon="11.451827008277178">
        <ele>9.75</ele>
        <time>2017-06-21T17:25:11Z</time>
      </trkpt>
      <trkpt lat="64.697312023490667" lon="11.451557027176023">
        <ele>9.27</ele>
        <time>2017-06-21T17:25:12Z</time>
      </trkpt>
      <trkpt lat="64.698453973978758" lon="11.449456019327044">
        <ele>9.75</ele>
        <time>2017-06-21T17:25:20Z</time>
      </trkpt>
      <trkpt lat="64.698618007823825" lon="11.449307994917035">
        <ele>10.23</ele>
        <time>2017-06-21T17:25:21Z</time>
      </trkpt>
      <trkpt lat="64.698793021962047" lon="11.449215039610863">
        <ele>10.23</ele>
        <time>2017-06-21T17:25:22Z</time>
      </trkpt>
      <trkpt lat="64.698968958109617" lon="11.44916701130569">
        <ele>10.23</ele>
        <time>2017-06-21T17:25:23Z</time>
      </trkpt>
      <trkpt lat="64.69914497807622" lon="11.449172040447593">
        <ele>9.27</ele>
        <time>2017-06-21T17:25:24Z</time>
      </trkpt>
      <trkpt lat="64.699324015527964" lon="11.449203975498676">
        <ele>8.310000000000001</ele>
        <time>2017-06-21T17:25:25Z</time>
      </trkpt>
      <trkpt lat="64.699675971642137" lon="11.449186038225889">
        <ele>6.87</ele>
        <time>2017-06-21T17:25:27Z</time>
      </trkpt>
      <trkpt lat="64.699845034629107" lon="11.449100961908698">
        <ele>6.87</ele>
        <time>2017-06-21T17:25:28Z</time>
      </trkpt>
      <trkpt lat="64.700010996311903" lon="11.448959978297353">
        <ele>6.87</ele>
        <time>2017-06-21T17:25:29Z</time>
      </trkpt>
      <trkpt lat="64.700171006843448" lon="11.448766021057963">
        <ele>6.87</ele>
        <time>2017-06-21T17:25:30Z</time>
      </trkpt>
      <trkpt lat="64.700321964919567" lon="11.448530992493033">
        <ele>7.35</ele>
        <time>2017-06-21T17:25:31Z</time>
      </trkpt>
      <trkpt lat="64.700467977672815" lon="11.448282971978188">
        <ele>6.87</ele>
        <time>2017-06-21T17:25:32Z</time>
      </trkpt>
      <trkpt lat="64.701011041179299" lon="11.447186032310128">
        <ele>7.83</ele>
        <time>2017-06-21T17:25:36Z</time>
      </trkpt>
      <trkpt lat="64.701108019798994" lon="11.446836004033685">
        <ele>8.789999999999999</ele>
        <time>2017-06-21T17:25:37Z</time>
      </trkpt>
      <trkpt lat="64.701184965670109" lon="11.446454040706158">
        <ele>9.75</ele>
        <time>2017-06-21T17:25:38Z</time>
      </trkpt>
      <trkpt lat="64.701237017288804" lon="11.446046009659767">
        <ele>11.19</ele>
        <time>2017-06-21T17:25:39Z</time>
      </trkpt>
      <trkpt lat="64.701281022280455" lon="11.445649964734912">
        <ele>13.119999999999999</ele>
        <time>2017-06-21T17:25:40Z</time>
      </trkpt>
      <trkpt lat="64.701382024213672" lon="11.444890983402729">
        <ele>15.039999999999999</ele>
        <time>2017-06-21T17:25:42Z</time>
      </trkpt>
      <trkpt lat="64.701462993398309" lon="11.444535003975034">
        <ele>15.52</ele>
        <time>2017-06-21T17:25:43Z</time>
      </trkpt>
      <trkpt lat="64.701562989503145" lon="11.444200985133648">
        <ele>16.48</ele>
        <time>2017-06-21T17:25:44Z</time>
      </trkpt>
      <trkpt lat="64.701686035841703" lon="11.443898985162377">
        <ele>17.440000000000001</ele>
        <time>2017-06-21T17:25:45Z</time>
      </trkpt>
      <trkpt lat="64.70182903110981" lon="11.443635961040854">
        <ele>18.879999999999999</ele>
        <time>2017-06-21T17:25:46Z</time>
      </trkpt>
      <trkpt lat="64.70198200084269" lon="11.443391963839531">
        <ele>19.84</ele>
        <time>2017-06-21T17:25:47Z</time>
      </trkpt>
      <trkpt lat="64.702137988060713" lon="11.443170011043549">
        <ele>20.809999999999999</ele>
        <time>2017-06-21T17:25:48Z</time>
      </trkpt>
      <trkpt lat="64.703687969595194" lon="11.441274024546146">
        <ele>29.460000000000001</ele>
        <time>2017-06-21T17:25:58Z</time>
      </trkpt>
      <trkpt lat="64.703842028975487" lon="11.441204035654664">
        <ele>29.940000000000001</ele>
        <time>2017-06-21T17:25:59Z</time>
      </trkpt>
      <trkpt lat="64.703996004536748" lon="11.441205041483045">
        <ele>29.940000000000001</ele>
        <time>2017-06-21T17:26:00Z</time>
      </trkpt>
      <trkpt lat="64.704149980098009" lon="11.44126002676785">
        <ele>29.940000000000001</ele>
        <time>2017-06-21T17:26:01Z</time>
      </trkpt>
      <trkpt lat="64.704298004508018" lon="11.441372008994222">
        <ele>29.940000000000001</ele>
        <time>2017-06-21T17:26:02Z</time>
      </trkpt>
      <trkpt lat="64.704435970634222" lon="11.441547023132443">
        <ele>30.420000000000002</ele>
        <time>2017-06-21T17:26:03Z</time>
      </trkpt>
      <trkpt lat="64.704563040286303" lon="11.441779034212232">
        <ele>30.899999999999999</ele>
        <time>2017-06-21T17:26:04Z</time>
      </trkpt>
      <trkpt lat="64.704684996977448" lon="11.442045997828245">
        <ele>30.899999999999999</ele>
        <time>2017-06-21T17:26:05Z</time>
      </trkpt>
      <trkpt lat="64.704802008345723" lon="11.44233601167798">
        <ele>31.379999999999999</ele>
        <time>2017-06-21T17:26:06Z</time>
      </trkpt>
      <trkpt lat="64.705251026898623" lon="11.443588016554713">
        <ele>31.379999999999999</ele>
        <time>2017-06-21T17:26:10Z</time>
      </trkpt>
      <trkpt lat="64.705343982204795" lon="11.443949025124311">
        <ele>31.379999999999999</ele>
        <time>2017-06-21T17:26:11Z</time>
      </trkpt>
      <trkpt lat="64.705421011894941" lon="11.444340962916613">
        <ele>31.379999999999999</ele>
        <time>2017-06-21T17:26:12Z</time>
      </trkpt>
      <trkpt lat="64.706159960478544" lon="11.449100961908698">
        <ele>32.82</ele>
        <time>2017-06-21T17:26:23Z</time>
      </trkpt>
      <trkpt lat="64.707193030044436" lon="11.455323016270995">
        <ele>44.359999999999999</ele>
        <time>2017-06-21T17:26:36Z</time>
      </trkpt>
      <trkpt lat="64.708056030794978" lon="11.459069978445768">
        <ele>44.840000000000003</ele>
        <time>2017-06-21T17:26:46Z</time>
      </trkpt>
      <trkpt lat="64.708488034084439" lon="11.460235984995961">
        <ele>46.280000000000001</ele>
        <time>2017-06-21T17:26:53Z</time>
      </trkpt>
      <trkpt lat="64.709084993228316" lon="11.461492013186216">
        <ele>45.32</ele>
        <time>2017-06-21T17:27:01Z</time>
      </trkpt>
      <trkpt lat="64.710170030593872" lon="11.462941998615861">
        <ele>37.149999999999999</ele>
        <time>2017-06-21T17:27:08Z</time>
      </trkpt>
      <trkpt lat="64.711812967434525" lon="11.465396974235773">
        <ele>34.259999999999998</ele>
        <time>2017-06-21T17:27:17Z</time>
      </trkpt>
      <trkpt lat="64.712979979813099" lon="11.468489980325103">
        <ele>40.990000000000002</ele>
        <time>2017-06-21T17:27:25Z</time>
      </trkpt>
      <trkpt lat="64.714601961895823" lon="11.471636965870857">
        <ele>47.240000000000002</ele>
        <time>2017-06-21T17:27:34Z</time>
      </trkpt>
      <trkpt lat="64.71684898249805" lon="11.474409028887749">
        <ele>41.469999999999999</ele>
        <time>2017-06-21T17:27:45Z</time>
      </trkpt>
      <trkpt lat="64.718300979584455" lon="11.476279031485319">
        <ele>29.940000000000001</ele>
        <time>2017-06-21T17:27:52Z</time>
      </trkpt>
      <trkpt lat="64.718471970409155" lon="11.476625958457589">
        <ele>28.5</ele>
        <time>2017-06-21T17:27:53Z</time>
      </trkpt>
      <trkpt lat="64.718633992597461" lon="11.477018985897303">
        <ele>27.050000000000001</ele>
        <time>2017-06-21T17:27:54Z</time>
      </trkpt>
      <trkpt lat="64.720194032415748" lon="11.481336001306772">
        <ele>17.440000000000001</ele>
        <time>2017-06-21T17:28:04Z</time>
      </trkpt>
      <trkpt lat="64.721205979585648" lon="11.485073994845152">
        <ele>10.23</ele>
        <time>2017-06-21T17:28:12Z</time>
      </trkpt>
      <trkpt lat="64.722255980595946" lon="11.492022005841136">
        <ele>13.6</ele>
        <time>2017-06-21T17:28:25Z</time>
      </trkpt>
      <trkpt lat="64.722876995801926" lon="11.49609200656414">
        <ele>16</ele>
        <time>2017-06-21T17:28:33Z</time>
      </trkpt>
      <trkpt lat="64.724269984290004" lon="11.502238037064672">
        <ele>10.710000000000001</ele>
        <time>2017-06-21T17:28:45Z</time>
      </trkpt>
      <trkpt lat="64.726153984665871" lon="11.509662978351116">
        <ele>10.710000000000001</ele>
        <time>2017-06-21T17:29:00Z</time>
      </trkpt>
      <trkpt lat="64.727406995370984" lon="11.514301020652056">
        <ele>10.23</ele>
        <time>2017-06-21T17:29:10Z</time>
      </trkpt>
      <trkpt lat="64.728444004431367" lon="11.519783958792686">
        <ele>6.39</ele>
        <time>2017-06-21T17:29:21Z</time>
      </trkpt>
      <trkpt lat="64.72857903689146" lon="11.520186038687825">
        <ele>5.91</ele>
        <time>2017-06-21T17:29:22Z</time>
      </trkpt>
      <trkpt lat="64.728725971654058" lon="11.520562972873449">
        <ele>5.42</ele>
        <time>2017-06-21T17:29:23Z</time>
      </trkpt>
      <trkpt lat="64.730129018425941" lon="11.52355195954442">
        <ele>5.91</ele>
        <time>2017-06-21T17:29:32Z</time>
      </trkpt>
      <trkpt lat="64.73096301779151" lon="11.525008985772729">
        <ele>8.310000000000001</ele>
        <time>2017-06-21T17:29:38Z</time>
      </trkpt>
      <trkpt lat="64.731122022494674" lon="11.525156004354358">
        <ele>8.789999999999999</ele>
        <time>2017-06-21T17:29:39Z</time>
      </trkpt>
      <trkpt lat="64.731284966692328" lon="11.525274021551013">
        <ele>9.27</ele>
        <time>2017-06-21T17:29:40Z</time>
      </trkpt>
      <trkpt lat="64.731449000537395" lon="11.525369994342327">
        <ele>9.75</ele>
        <time>2017-06-21T17:29:41Z</time>
      </trkpt>
      <trkpt lat="64.731619991362095" lon="11.525432020425797">
        <ele>10.23</ele>
        <time>2017-06-21T17:29:42Z</time>
      </trkpt>
      <trkpt lat="64.731789976358414" lon="11.525469990447164">
        <ele>10.710000000000001</ele>
        <time>2017-06-21T17:29:43Z</time>
      </trkpt>
      <trkpt lat="64.731958033517003" lon="11.525467978790402">
        <ele>10.710000000000001</ele>
        <time>2017-06-21T17:29:44Z</time>
      </trkpt>
      <trkpt lat="64.732120977714658" lon="11.525433026254177">
        <ele>11.19</ele>
        <time>2017-06-21T17:29:45Z</time>
      </trkpt>
      <trkpt lat="64.732284005731344" lon="11.525365971028805">
        <ele>11.19</ele>
        <time>2017-06-21T17:29:46Z</time>
      </trkpt>
      <trkpt lat="64.732448039576411" lon="11.525274021551013">
        <ele>11.67</ele>
        <time>2017-06-21T17:29:47Z</time>
      </trkpt>
      <trkpt lat="64.732608972117305" lon="11.52516002766788">
        <ele>12.15</ele>
        <time>2017-06-21T17:29:48Z</time>
      </trkpt>
      <trkpt lat="64.734276970848441" lon="11.523983962833881">
        <ele>12.15</ele>
        <time>2017-06-21T17:29:58Z</time>
      </trkpt>
      <trkpt lat="64.734446033835411" lon="11.523971976712346">
        <ele>13.119999999999999</ele>
        <time>2017-06-21T17:29:59Z</time>
      </trkpt>
      <trkpt lat="64.734609983861446" lon="11.524024028331041">
        <ele>13.6</ele>
        <time>2017-06-21T17:30:00Z</time>
      </trkpt>
      <trkpt lat="64.734769994392991" lon="11.524149002507329">
        <ele>14.56</ele>
        <time>2017-06-21T17:30:01Z</time>
      </trkpt>
      <trkpt lat="64.734915001317859" lon="11.524341031908989">
        <ele>15.039999999999999</ele>
        <time>2017-06-21T17:30:02Z</time>
      </trkpt>
      <trkpt lat="64.73504701629281" lon="11.524587962776423">
        <ele>16.48</ele>
        <time>2017-06-21T17:30:03Z</time>
      </trkpt>
      <trkpt lat="64.735162016004324" lon="11.524886023253202">
        <ele>17.440000000000001</ele>
        <time>2017-06-21T17:30:04Z</time>
      </trkpt>
      <trkpt lat="64.735263017937541" lon="11.525229010730982">
        <ele>18.399999999999999</ele>
        <time>2017-06-21T17:30:05Z</time>
      </trkpt>
      <trkpt lat="64.735353039577603" lon="11.525584990158677">
        <ele>19.84</ele>
        <time>2017-06-21T17:30:06Z</time>
      </trkpt>
      <trkpt lat="64.735438032075763" lon="11.525951027870178">
        <ele>20.809999999999999</ele>
        <time>2017-06-21T17:30:07Z</time>
      </trkpt>
      <trkpt lat="64.736254010349512" lon="11.528235012665391">
        <ele>25.609999999999999</ele>
        <time>2017-06-21T17:30:14Z</time>
      </trkpt>
      <trkpt lat="64.737077029421926" lon="11.530834995210171">
        <ele>35.710000000000001</ele>
        <time>2017-06-21T17:30:21Z</time>
      </trkpt>
      <trkpt lat="64.738571019843221" lon="11.535923983901739">
        <ele>29.940000000000001</ele>
        <time>2017-06-21T17:30:33Z</time>
      </trkpt>
      <trkpt lat="64.739638958126307" lon="11.538684982806444">
        <ele>22.25</ele>
        <time>2017-06-21T17:30:40Z</time>
      </trkpt>
      <trkpt lat="64.740924993529916" lon="11.541283037513494">
        <ele>11.67</ele>
        <time>2017-06-21T17:30:48Z</time>
      </trkpt>
      <trkpt lat="64.741087015718222" lon="11.541543966159225">
        <ele>10.23</ele>
        <time>2017-06-21T17:30:49Z</time>
      </trkpt>
      <trkpt lat="64.741259012371302" lon="11.541763991117477">
        <ele>9.27</ele>
        <time>2017-06-21T17:30:50Z</time>
      </trkpt>
      <trkpt lat="64.741442995145917" lon="11.541933976113796">
        <ele>8.789999999999999</ele>
        <time>2017-06-21T17:30:51Z</time>
      </trkpt>
      <trkpt lat="64.741637958213687" lon="11.542061967775226">
        <ele>8.789999999999999</ele>
        <time>2017-06-21T17:30:52Z</time>
      </trkpt>
      <trkpt lat="64.741839962080121" lon="11.542142014950514">
        <ele>8.310000000000001</ele>
        <time>2017-06-21T17:30:53Z</time>
      </trkpt>
      <trkpt lat="64.742053030058742" lon="11.542210998013616">
        <ele>8.310000000000001</ele>
        <time>2017-06-21T17:30:54Z</time>
      </trkpt>
      <trkpt lat="64.743994027376175" lon="11.54295003041625">
        <ele>13.6</ele>
        <time>2017-06-21T17:31:03Z</time>
      </trkpt>
      <trkpt lat="64.74456500262022" lon="11.542946007102728">
        <ele>16.960000000000001</ele>
        <time>2017-06-21T17:31:06Z</time>
      </trkpt>
      <trkpt lat="64.744753008708358" lon="11.542871994897723">
        <ele>17.920000000000002</ele>
        <time>2017-06-21T17:31:07Z</time>
      </trkpt>
      <trkpt lat="64.744945038110018" lon="11.542770992964506">
        <ele>18.879999999999999</ele>
        <time>2017-06-21T17:31:08Z</time>
      </trkpt>
      <trkpt lat="64.746353030204773" lon="11.541947973892093">
        <ele>16</ele>
        <time>2017-06-21T17:31:15Z</time>
      </trkpt>
      <trkpt lat="64.746569031849504" lon="11.541950991377234">
        <ele>16</ele>
        <time>2017-06-21T17:31:16Z</time>
      </trkpt>
      <trkpt lat="64.746786961331964" lon="11.541992984712124">
        <ele>16</ele>
        <time>2017-06-21T17:31:17Z</time>
      </trkpt>
      <trkpt lat="64.747012015432119" lon="11.542085018008947">
        <ele>16.960000000000001</ele>
        <time>2017-06-21T17:31:18Z</time>
      </trkpt>
      <trkpt lat="64.747233968228102" lon="11.542201023548841">
        <ele>17.920000000000002</ele>
        <time>2017-06-21T17:31:19Z</time>
      </trkpt>
      <trkpt lat="64.747453993186355" lon="11.542339995503426">
        <ele>19.84</ele>
        <time>2017-06-21T17:31:20Z</time>
      </trkpt>
      <trkpt lat="64.750227984040976" lon="11.544112013652921">
        <ele>39.07</ele>
        <time>2017-06-21T17:31:33Z</time>
      </trkpt>
      <trkpt lat="64.751423997804523" lon="11.545301992446184">
        <ele>40.509999999999998</ele>
        <time>2017-06-21T17:31:39Z</time>
      </trkpt>
      <trkpt lat="64.752592016011477" lon="11.547739030793309">
        <ele>41.469999999999999</ele>
        <time>2017-06-21T17:31:46Z</time>
      </trkpt>
      <trkpt lat="64.752828972414136" lon="11.548418970778584">
        <ele>39.549999999999997</ele>
        <time>2017-06-21T17:31:48Z</time>
      </trkpt>
      <trkpt lat="64.752916982397437" lon="11.548776961863041">
        <ele>39.549999999999997</ele>
        <time>2017-06-21T17:31:49Z</time>
      </trkpt>
      <trkpt lat="64.752971967682242" lon="11.549147022888064">
        <ele>38.590000000000003</ele>
        <time>2017-06-21T17:31:50Z</time>
      </trkpt>
      <trkpt lat="64.753001974895597" lon="11.54952697455883">
        <ele>37.630000000000003</ele>
        <time>2017-06-21T17:31:51Z</time>
      </trkpt>
      <trkpt lat="64.752999041229486" lon="11.549918996170163">
        <ele>35.710000000000001</ele>
        <time>2017-06-21T17:31:52Z</time>
      </trkpt>
      <trkpt lat="64.752969034016132" lon="11.550300037488341">
        <ele>34.259999999999998</ele>
        <time>2017-06-21T17:31:53Z</time>
      </trkpt>
      <trkpt lat="64.752913964912295" lon="11.550683006644249">
        <ele>32.82</ele>
        <time>2017-06-21T17:31:54Z</time>
      </trkpt>
      <trkpt lat="64.752827966585755" lon="11.551043009385467">
        <ele>30.420000000000002</ele>
        <time>2017-06-21T17:31:55Z</time>
      </trkpt>
      <trkpt lat="64.752725036814809" lon="11.551379039883614">
        <ele>28.5</ele>
        <time>2017-06-21T17:31:56Z</time>
      </trkpt>
      <trkpt lat="64.752602996304631" lon="11.551695037633181">
        <ele>26.57</ele>
        <time>2017-06-21T17:31:57Z</time>
      </trkpt>
      <trkpt lat="64.752467963844538" lon="11.55199502594769">
        <ele>24.170000000000002</ele>
        <time>2017-06-21T17:31:58Z</time>
      </trkpt>
      <trkpt lat="64.751385021954775" lon="11.555009996518493">
        <ele>9.75</ele>
        <time>2017-06-21T17:32:06Z</time>
      </trkpt>
      <trkpt lat="64.750585975125432" lon="11.558218002319336">
        <ele>6.39</ele>
        <time>2017-06-21T17:32:14Z</time>
      </trkpt>
      <trkpt lat="64.750448008999228" lon="11.558882016688585">
        <ele>5.91</ele>
        <time>2017-06-21T17:32:16Z</time>
      </trkpt>
      <trkpt lat="64.75036502815783" lon="11.559185022488236">
        <ele>5.91</ele>
        <time>2017-06-21T17:32:17Z</time>
      </trkpt>
      <trkpt lat="64.74950697273016" lon="11.561240013688803">
        <ele>3.5</ele>
        <time>2017-06-21T17:32:25Z</time>
      </trkpt>
      <trkpt lat="64.749416029080749" lon="11.561538996174932">
        <ele>3.02</ele>
        <time>2017-06-21T17:32:26Z</time>
      </trkpt>
      <trkpt lat="64.749336987733841" lon="11.561863962560892">
        <ele>3.02</ele>
        <time>2017-06-21T17:32:27Z</time>
      </trkpt>
      <trkpt lat="64.748942032456398" lon="11.564447013661265">
        <ele>0.62</ele>
        <time>2017-06-21T17:32:34Z</time>
      </trkpt>
      <trkpt lat="64.748938009142876" lon="11.564808022230864">
        <ele>1.1</ele>
        <time>2017-06-21T17:32:35Z</time>
      </trkpt>
      <trkpt lat="64.748961981385946" lon="11.565148998051882">
        <ele>1.1</ele>
        <time>2017-06-21T17:32:36Z</time>
      </trkpt>
      <trkpt lat="64.749006992205977" lon="11.565472958609462">
        <ele>1.58</ele>
        <time>2017-06-21T17:32:37Z</time>
      </trkpt>
      <trkpt lat="64.749073041602969" lon="11.565780993551016">
        <ele>1.58</ele>
        <time>2017-06-21T17:32:38Z</time>
      </trkpt>
      <trkpt lat="64.749160967767239" lon="11.566065978258848">
        <ele>2.54</ele>
        <time>2017-06-21T17:32:39Z</time>
      </trkpt>
      <trkpt lat="64.749260041862726" lon="11.566330008208752">
        <ele>3.5</ele>
        <time>2017-06-21T17:32:40Z</time>
      </trkpt>
      <trkpt lat="64.749373029917479" lon="11.566581968218088">
        <ele>3.98</ele>
        <time>2017-06-21T17:32:41Z</time>
      </trkpt>
      <trkpt lat="64.749492974951863" lon="11.566829988732934">
        <ele>4.94</ele>
        <time>2017-06-21T17:32:42Z</time>
      </trkpt>
      <trkpt lat="64.750980008393526" lon="11.569726020097733">
        <ele>4.46</ele>
        <time>2017-06-21T17:32:53Z</time>
      </trkpt>
      <trkpt lat="64.751665983349085" lon="11.570539986714721">
        <ele>3.02</ele>
        <time>2017-06-21T17:32:59Z</time>
      </trkpt>
      <trkpt lat="64.752124976366758" lon="11.571191009134054">
        <ele>5.91</ele>
        <time>2017-06-21T17:33:07Z</time>
      </trkpt>
      <trkpt lat="64.752795025706291" lon="11.572336982935667">
        <ele>12.15</ele>
        <time>2017-06-21T17:33:14Z</time>
      </trkpt>
      <trkpt lat="64.754183990880847" lon="11.574839986860752">
        <ele>8.310000000000001</ele>
        <time>2017-06-21T17:33:26Z</time>
      </trkpt>
      <trkpt lat="64.754468975588679" lon="11.575619000941515">
        <ele>4.46</ele>
        <time>2017-06-21T17:33:31Z</time>
      </trkpt>
      <trkpt lat="64.755015978589654" lon="11.577386995777488">
        <ele>1.58</ele>
        <time>2017-06-21T17:33:39Z</time>
      </trkpt>
      <trkpt lat="64.755888031795621" lon="11.578689962625504">
        <ele>1.58</ele>
        <time>2017-06-21T17:33:46Z</time>
      </trkpt>
      <trkpt lat="64.757179012522101" lon="11.580381011590362">
        <ele>2.06</ele>
        <time>2017-06-21T17:33:57Z</time>
      </trkpt>
      <trkpt lat="64.757506996393204" lon="11.581176035106182">
        <ele>3.98</ele>
        <time>2017-06-21T17:34:00Z</time>
      </trkpt>
      <trkpt lat="64.757602969184518" lon="11.581508964300156">
        <ele>4.46</ele>
        <time>2017-06-21T17:34:01Z</time>
      </trkpt>
      <trkpt lat="64.757687961682677" lon="11.581873996183276">
        <ele>4.94</ele>
        <time>2017-06-21T17:34:02Z</time>
      </trkpt>
      <trkpt lat="64.757761973887682" lon="11.582255037501454">
        <ele>5.91</ele>
        <time>2017-06-21T17:34:03Z</time>
      </trkpt>
      <trkpt lat="64.75782198831439" lon="11.582649992778897">
        <ele>6.87</ele>
        <time>2017-06-21T17:34:04Z</time>
      </trkpt>
      <trkpt lat="64.75786498747766" lon="11.583077972754836">
        <ele>6.39</ele>
        <time>2017-06-21T17:34:05Z</time>
      </trkpt>
      <trkpt lat="64.757897006347775" lon="11.583519028499722">
        <ele>6.39</ele>
        <time>2017-06-21T17:34:06Z</time>
      </trkpt>
      <trkpt lat="64.757925001904368" lon="11.583982966840267">
        <ele>7.35</ele>
        <time>2017-06-21T17:34:07Z</time>
      </trkpt>
      <trkpt lat="64.758320041000843" lon="11.588041987270117">
        <ele>13.119999999999999</ele>
        <time>2017-06-21T17:34:16Z</time>
      </trkpt>
      <trkpt lat="64.758886992931366" lon="11.590510038658977">
        <ele>18.879999999999999</ele>
        <time>2017-06-21T17:34:22Z</time>
      </trkpt>
      <trkpt lat="64.759004004299641" lon="11.590851014479995">
        <ele>20.32</ele>
        <time>2017-06-21T17:34:23Z</time>
      </trkpt>
      <trkpt lat="64.760420965030789" lon="11.594521030783653">
        <ele>22.73</ele>
        <time>2017-06-21T17:34:33Z</time>
      </trkpt>
      <trkpt lat="64.760963022708893" lon="11.596061959862709">
        <ele>26.57</ele>
        <time>2017-06-21T17:34:37Z</time>
      </trkpt>
      <trkpt lat="64.761061007156968" lon="11.596495974808931">
        <ele>28.02</ele>
        <time>2017-06-21T17:34:38Z</time>
      </trkpt>
      <trkpt lat="64.761407012119889" lon="11.598134972155094">
        <ele>33.780000000000001</ele>
        <time>2017-06-21T17:34:42Z</time>
      </trkpt>
      <trkpt lat="64.761529974639416" lon="11.59851199015975">
        <ele>35.710000000000001</ele>
        <time>2017-06-21T17:34:43Z</time>
      </trkpt>
      <trkpt lat="64.762994041666389" lon="11.602826993912458">
        <ele>40.509999999999998</ele>
        <time>2017-06-21T17:34:54Z</time>
      </trkpt>
      <trkpt lat="64.764168011024594" lon="11.605922011658549">
        <ele>25.129999999999999</ele>
        <time>2017-06-21T17:35:02Z</time>
      </trkpt>
      <trkpt lat="64.764345036819577" lon="11.606201967224479">
        <ele>23.210000000000001</ele>
        <time>2017-06-21T17:35:03Z</time>
      </trkpt>
      <trkpt lat="64.764535976573825" lon="11.606444958597422">
        <ele>21.289999999999999</ele>
        <time>2017-06-21T17:35:04Z</time>
      </trkpt>
      <trkpt lat="64.76473898626864" lon="11.606647968292236">
        <ele>19.84</ele>
        <time>2017-06-21T17:35:05Z</time>
      </trkpt>
      <trkpt lat="64.764951970428228" lon="11.606820970773697">
        <ele>17.920000000000002</ele>
        <time>2017-06-21T17:35:06Z</time>
      </trkpt>
      <trkpt lat="64.76516897790134" lon="11.60697503015399">
        <ele>16.48</ele>
        <time>2017-06-21T17:35:07Z</time>
      </trkpt>
      <trkpt lat="64.766192995011806" lon="11.607941966503859">
        <ele>17.440000000000001</ele>
        <time>2017-06-21T17:35:12Z</time>
      </trkpt>
      <trkpt lat="64.766359040513635" lon="11.608217982575297">
        <ele>18.399999999999999</ele>
        <time>2017-06-21T17:35:13Z</time>
      </trkpt>
      <trkpt lat="64.766512010246515" lon="11.60852300003171">
        <ele>19.84</ele>
        <time>2017-06-21T17:35:14Z</time>
      </trkpt>
      <trkpt lat="64.766648970544338" lon="11.608860958367586">
        <ele>20.32</ele>
        <time>2017-06-21T17:35:15Z</time>
      </trkpt>
      <trkpt lat="64.766774028539658" lon="11.609225990250707">
        <ele>20.809999999999999</ele>
        <time>2017-06-21T17:35:16Z</time>
      </trkpt>
      <trkpt lat="64.766879975795746" lon="11.60961901769042">
        <ele>20.809999999999999</ele>
        <time>2017-06-21T17:35:17Z</time>
      </trkpt>
      <trkpt lat="64.766976032406092" lon="11.61002897657454">
        <ele>20.809999999999999</ele>
        <time>2017-06-21T17:35:18Z</time>
      </trkpt>
      <trkpt lat="64.767064964398742" lon="11.61045796237886">
        <ele>20.809999999999999</ele>
        <time>2017-06-21T17:35:19Z</time>
      </trkpt>
      <trkpt lat="64.767650021240115" lon="11.614159997552633">
        <ele>9.75</ele>
        <time>2017-06-21T17:35:28Z</time>
      </trkpt>
      <trkpt lat="64.767738031223416" lon="11.616955026984215">
        <ele>6.39</ele>
        <time>2017-06-21T17:35:35Z</time>
      </trkpt>
      <trkpt lat="64.76753300987184" lon="11.619261978194118">
        <ele>5.42</ele>
        <time>2017-06-21T17:35:42Z</time>
      </trkpt>
      <trkpt lat="64.76753200404346" lon="11.619617035612464">
        <ele>5.91</ele>
        <time>2017-06-21T17:35:44Z</time>
      </trkpt>
      <trkpt lat="64.767541978508234" lon="11.619776962324977">
        <ele>5.91</ele>
        <time>2017-06-21T17:35:45Z</time>
      </trkpt>
      <trkpt lat="64.76755597628653" lon="11.619938984513283">
        <ele>5.91</ele>
        <time>2017-06-21T17:35:46Z</time>
      </trkpt>
      <trkpt lat="64.767879014834762" lon="11.621760036796331">
        <ele>2.54</ele>
        <time>2017-06-21T17:35:58Z</time>
      </trkpt>
      <trkpt lat="64.768064003437757" lon="11.622570985928178">
        <ele>0.14</ele>
        <time>2017-06-21T17:36:09Z</time>
      </trkpt>
      <trkpt lat="64.768065009266138" lon="11.622564028948545">
        <ele>0.62</ele>
        <time>2017-06-21T17:36:34Z</time>
      </trkpt>
      <trkpt lat="64.768062997609377" lon="11.622568974271417">
        <ele>0.62</ele>
        <time>2017-06-21T17:38:04Z</time>
      </trkpt>
      <trkpt lat="64.827168993651867" lon="11.61365901120007">
        <ele>-11.880000000000001</ele>
        <time>2017-06-21T18:54:16Z</time>
      </trkpt>
      <trkpt lat="64.827451966702938" lon="11.61320798099041">
        <ele>3.5</ele>
        <time>2017-06-21T18:54:43Z</time>
      </trkpt>
      <trkpt lat="64.827464958652854" lon="11.61279802210629">
        <ele>3.98</ele>
        <time>2017-06-21T18:55:14Z</time>
      </trkpt>
      <trkpt lat="64.827470993623137" lon="11.612667012959719">
        <ele>2.54</ele>
        <time>2017-06-21T18:55:53Z</time>
      </trkpt>
      <trkpt lat="64.827470993623137" lon="11.612651003524661">
        <ele>1.58</ele>
        <time>2017-06-21T18:56:21Z</time>
      </trkpt>
      <trkpt lat="64.827510975301266" lon="11.612291000783443">
        <ele>0.14</ele>
        <time>2017-06-21T18:56:25Z</time>
      </trkpt>
      <trkpt lat="64.82754098251462" lon="11.612140964716673">
        <ele>0.14</ele>
        <time>2017-06-21T18:56:26Z</time>
      </trkpt>
      <trkpt lat="64.82777701690793" lon="11.610687961801887">
        <ele>2.54</ele>
        <time>2017-06-21T18:56:33Z</time>
      </trkpt>
      <trkpt lat="64.827793026342988" lon="11.610427033156157">
        <ele>3.02</ele>
        <time>2017-06-21T18:56:34Z</time>
      </trkpt>
      <trkpt lat="64.827800989151001" lon="11.610161997377872">
        <ele>3.5</ele>
        <time>2017-06-21T18:56:35Z</time>
      </trkpt>
      <trkpt lat="64.827677020803094" lon="11.608302975073457">
        <ele>6.87</ele>
        <time>2017-06-21T18:56:41Z</time>
      </trkpt>
      <trkpt lat="64.827617006376386" lon="11.607992006465793">
        <ele>7.35</ele>
        <time>2017-06-21T18:56:42Z</time>
      </trkpt>
      <trkpt lat="64.827551040798426" lon="11.607710961252451">
        <ele>8.310000000000001</ele>
        <time>2017-06-21T18:56:43Z</time>
      </trkpt>
      <trkpt lat="64.827351970598102" lon="11.606847960501909">
        <ele>9.75</ele>
        <time>2017-06-21T18:56:46Z</time>
      </trkpt>
      <trkpt lat="64.827310983091593" lon="11.606518970802426">
        <ele>9.75</ele>
        <time>2017-06-21T18:56:47Z</time>
      </trkpt>
      <trkpt lat="64.827282987535" lon="11.606175983324647">
        <ele>9.27</ele>
        <time>2017-06-21T18:56:48Z</time>
      </trkpt>
      <trkpt lat="64.827268989756703" lon="11.605823021382093">
        <ele>8.789999999999999</ele>
        <time>2017-06-21T18:56:49Z</time>
      </trkpt>
      <trkpt lat="64.827265972271562" lon="11.605455977842212">
        <ele>8.310000000000001</ele>
        <time>2017-06-21T18:56:50Z</time>
      </trkpt>
      <trkpt lat="64.827212998643517" lon="11.604305980727077">
        <ele>6.87</ele>
        <time>2017-06-21T18:56:53Z</time>
      </trkpt>
      <trkpt lat="64.827168993651867" lon="11.603917982429266">
        <ele>6.39</ele>
        <time>2017-06-21T18:56:54Z</time>
      </trkpt>
      <trkpt lat="64.826386040076613" lon="11.598592959344387">
        <ele>4.46</ele>
        <time>2017-06-21T18:57:07Z</time>
      </trkpt>
      <trkpt lat="64.825579030439258" lon="11.5910579636693">
        <ele>6.39</ele>
        <time>2017-06-21T18:57:24Z</time>
      </trkpt>
      <trkpt lat="64.825410973280668" lon="11.588300988078117">
        <ele>6.87</ele>
        <time>2017-06-21T18:57:31Z</time>
      </trkpt>
      <trkpt lat="64.825093969702721" lon="11.582896001636982">
        <ele>3.5</ele>
        <time>2017-06-21T18:57:47Z</time>
      </trkpt>
      <trkpt lat="64.824525006115437" lon="11.578832035884261">
        <ele>6.87</ele>
        <time>2017-06-21T18:57:58Z</time>
      </trkpt>
      <trkpt lat="64.823818998411298" lon="11.57373902387917">
        <ele>3.5</ele>
        <time>2017-06-21T18:58:11Z</time>
      </trkpt>
      <trkpt lat="64.822860024869442" lon="11.566181983798742">
        <ele>11.19</ele>
        <time>2017-06-21T18:58:31Z</time>
      </trkpt>
      <trkpt lat="64.82199601829052" lon="11.561230039224029">
        <ele>17.440000000000001</ele>
        <time>2017-06-21T18:58:45Z</time>
      </trkpt>
      <trkpt lat="64.821425965055823" lon="11.557478969916701">
        <ele>22.73</ele>
        <time>2017-06-21T18:58:55Z</time>
      </trkpt>
      <trkpt lat="64.821455972269177" lon="11.553862011060119">
        <ele>27.050000000000001</ele>
        <time>2017-06-21T18:59:03Z</time>
      </trkpt>
      <trkpt lat="64.82152302749455" lon="11.549383979290724">
        <ele>28.5</ele>
        <time>2017-06-21T18:59:13Z</time>
      </trkpt>
      <trkpt lat="64.821005025878549" lon="11.545972041785717">
        <ele>24.170000000000002</ele>
        <time>2017-06-21T18:59:21Z</time>
      </trkpt>
      <trkpt lat="64.819833990186453" lon="11.54093099758029">
        <ele>18.399999999999999</ele>
        <time>2017-06-21T18:59:33Z</time>
      </trkpt>
      <trkpt lat="64.81879698112607" lon="11.533186035230756">
        <ele>7.35</ele>
        <time>2017-06-21T18:59:49Z</time>
      </trkpt>
      <trkpt lat="64.818660020828247" lon="11.528780004009604">
        <ele>5.42</ele>
        <time>2017-06-21T18:59:58Z</time>
      </trkpt>
      <trkpt lat="64.819000996649265" lon="11.524476986378431">
        <ele>6.87</ele>
        <time>2017-06-21T19:00:07Z</time>
      </trkpt>
      <trkpt lat="64.819497959688306" lon="11.519368970766664">
        <ele>9.75</ele>
        <time>2017-06-21T19:00:18Z</time>
      </trkpt>
      <trkpt lat="64.819616982713342" lon="11.5144610311836">
        <ele>12.630000000000001</ele>
        <time>2017-06-21T19:00:28Z</time>
      </trkpt>
      <trkpt lat="64.820177983492613" lon="11.510849017649889">
        <ele>18.399999999999999</ele>
        <time>2017-06-21T19:00:36Z</time>
      </trkpt>
      <trkpt lat="64.821586981415749" lon="11.505242027342319">
        <ele>28.98</ele>
        <time>2017-06-21T19:00:50Z</time>
      </trkpt>
      <trkpt lat="64.822753993794322" lon="11.500049019232392">
        <ele>27.050000000000001</ele>
        <time>2017-06-21T19:01:03Z</time>
      </trkpt>
      <trkpt lat="64.82337199151516" lon="11.497400002554059">
        <ele>21.77</ele>
        <time>2017-06-21T19:01:12Z</time>
      </trkpt>
      <trkpt lat="64.823578018695116" lon="11.496613025665283">
        <ele>21.77</ele>
        <time>2017-06-21T19:01:18Z</time>
      </trkpt>
      <trkpt lat="64.823577012866735" lon="11.496515041217208">
        <ele>21.77</ele>
        <time>2017-06-21T19:01:19Z</time>
      </trkpt>
      <trkpt lat="64.823549017310143" lon="11.496411021798849">
        <ele>22.25</ele>
        <time>2017-06-21T19:01:20Z</time>
      </trkpt>
      <trkpt lat="64.823495959863067" lon="11.496311025694013">
        <ele>22.25</ele>
        <time>2017-06-21T19:01:21Z</time>
      </trkpt>
      <trkpt lat="64.823425970971584" lon="11.496210023760796">
        <ele>22.73</ele>
        <time>2017-06-21T19:01:22Z</time>
      </trkpt>
      <trkpt lat="64.823340978473425" lon="11.496093012392521">
        <ele>22.73</ele>
        <time>2017-06-21T19:01:23Z</time>
      </trkpt>
      <trkpt lat="64.822545032948256" lon="11.494924994185567">
        <ele>26.57</ele>
        <time>2017-06-21T19:01:30Z</time>
      </trkpt>
      <trkpt lat="64.82077301479876" lon="11.492186961695552">
        <ele>41.950000000000003</ele>
        <time>2017-06-21T19:01:42Z</time>
      </trkpt>
      <trkpt lat="64.819093029946089" lon="11.490241019055247">
        <ele>54.450000000000003</ele>
        <time>2017-06-21T19:01:52Z</time>
      </trkpt>
      <trkpt lat="64.81815199367702" lon="11.48915003053844">
        <ele>56.369999999999997</ele>
        <time>2017-06-21T19:01:58Z</time>
      </trkpt>
      <trkpt lat="64.816882973536849" lon="11.486648032441735">
        <ele>51.57</ele>
        <time>2017-06-21T19:02:07Z</time>
      </trkpt>
      <trkpt lat="64.816742995753884" lon="11.486437981948256">
        <ele>50.609999999999999</ele>
        <time>2017-06-21T19:02:08Z</time>
      </trkpt>
      <trkpt lat="64.816597988829017" lon="11.486269002780318">
        <ele>49.649999999999999</ele>
        <time>2017-06-21T19:02:09Z</time>
      </trkpt>
      <trkpt lat="64.816444013267756" lon="11.486135981976986">
        <ele>49.159999999999997</ele>
        <time>2017-06-21T19:02:10Z</time>
      </trkpt>
      <trkpt lat="64.816288026049733" lon="11.486044032499194">
        <ele>48.200000000000003</ele>
        <time>2017-06-21T19:02:11Z</time>
      </trkpt>
      <trkpt lat="64.816118963062763" lon="11.486003967002034">
        <ele>47.719999999999999</ele>
        <time>2017-06-21T19:02:12Z</time>
      </trkpt>
      <trkpt lat="64.815950989723206" lon="11.485994998365641">
        <ele>46.759999999999998</ele>
        <time>2017-06-21T19:02:13Z</time>
      </trkpt>
      <trkpt lat="64.815772036090493" lon="11.486002961173654">
        <ele>45.799999999999997</ele>
        <time>2017-06-21T19:02:14Z</time>
      </trkpt>
      <trkpt lat="64.814470997080207" lon="11.485915035009384">
        <ele>40.030000000000001</ele>
        <time>2017-06-21T19:02:21Z</time>
      </trkpt>
      <trkpt lat="64.814303023740649" lon="11.485795006155968">
        <ele>39.07</ele>
        <time>2017-06-21T19:02:22Z</time>
      </trkpt>
      <trkpt lat="64.812719011679292" lon="11.484377961605787">
        <ele>33.299999999999997</ele>
        <time>2017-06-21T19:02:32Z</time>
      </trkpt>
      <trkpt lat="64.811677979305387" lon="11.483567012473941">
        <ele>25.609999999999999</ele>
        <time>2017-06-21T19:02:39Z</time>
      </trkpt>
      <trkpt lat="64.811527021229267" lon="11.483547985553741">
        <ele>24.170000000000002</ele>
        <time>2017-06-21T19:02:40Z</time>
      </trkpt>
      <trkpt lat="64.811377990990877" lon="11.483558965846896">
        <ele>22.73</ele>
        <time>2017-06-21T19:02:41Z</time>
      </trkpt>
      <trkpt lat="64.81078295968473" lon="11.483595008030534">
        <ele>16.48</ele>
        <time>2017-06-21T19:02:45Z</time>
      </trkpt>
      <trkpt lat="64.810638036578894" lon="11.48354203440249">
        <ele>15.52</ele>
        <time>2017-06-21T19:02:46Z</time>
      </trkpt>
      <trkpt lat="64.810492023825645" lon="11.483448995277286">
        <ele>14.56</ele>
        <time>2017-06-21T19:02:47Z</time>
      </trkpt>
      <trkpt lat="64.810355985537171" lon="11.483314968645573">
        <ele>13.6</ele>
        <time>2017-06-21T19:02:48Z</time>
      </trkpt>
      <trkpt lat="64.81022397056222" lon="11.48315898142755">
        <ele>12.630000000000001</ele>
        <time>2017-06-21T19:02:49Z</time>
      </trkpt>
      <trkpt lat="64.810101008042693" lon="11.482961000874639">
        <ele>11.67</ele>
        <time>2017-06-21T19:02:50Z</time>
      </trkpt>
      <trkpt lat="64.809978967532516" lon="11.482725972309709">
        <ele>10.710000000000001</ele>
        <time>2017-06-21T19:02:51Z</time>
      </trkpt>
      <trkpt lat="64.809873020276427" lon="11.482460014522076">
        <ele>9.75</ele>
        <time>2017-06-21T19:02:52Z</time>
      </trkpt>
      <trkpt lat="64.809775035828352" lon="11.482163965702057">
        <ele>8.789999999999999</ele>
        <time>2017-06-21T19:02:53Z</time>
      </trkpt>
      <trkpt lat="64.809693982824683" lon="11.481831036508083">
        <ele>7.35</ele>
        <time>2017-06-21T19:02:54Z</time>
      </trkpt>
      <trkpt lat="64.809630028903484" lon="11.481472039595246">
        <ele>6.87</ele>
        <time>2017-06-21T19:02:55Z</time>
      </trkpt>
      <trkpt lat="64.809589041396976" lon="11.481089992448688">
        <ele>5.91</ele>
        <time>2017-06-21T19:02:56Z</time>
      </trkpt>
      <trkpt lat="64.809564985334873" lon="11.480710962787271">
        <ele>5.42</ele>
        <time>2017-06-21T19:02:57Z</time>
      </trkpt>
      <trkpt lat="64.809551993384957" lon="11.480316007509828">
        <ele>4.94</ele>
        <time>2017-06-21T19:02:58Z</time>
      </trkpt>
      <trkpt lat="64.809545958414674" lon="11.479916023090482">
        <ele>4.94</ele>
        <time>2017-06-21T19:02:59Z</time>
      </trkpt>
      <trkpt lat="64.809669004753232" lon="11.476021958515048">
        <ele>3.98</ele>
        <time>2017-06-21T19:03:08Z</time>
      </trkpt>
      <trkpt lat="64.809876037761569" lon="11.47097303532064">
        <ele>4.94</ele>
        <time>2017-06-21T19:03:19Z</time>
      </trkpt>
      <trkpt lat="64.80985701084137" lon="11.468857023864985">
        <ele>5.91</ele>
        <time>2017-06-21T19:03:24Z</time>
      </trkpt>
      <trkpt lat="64.809820968657732" lon="11.468471037223935">
        <ele>7.35</ele>
        <time>2017-06-21T19:03:25Z</time>
      </trkpt>
      <trkpt lat="64.809770006686449" lon="11.468089995905757">
        <ele>8.789999999999999</ele>
        <time>2017-06-21T19:03:26Z</time>
      </trkpt>
      <trkpt lat="64.809056036174297" lon="11.463914969936013">
        <ele>8.310000000000001</ele>
        <time>2017-06-21T19:03:37Z</time>
      </trkpt>
      <trkpt lat="64.808236034587026" lon="11.460629012435675">
        <ele>2.54</ele>
        <time>2017-06-21T19:03:46Z</time>
      </trkpt>
      <trkpt lat="64.80792498216033" lon="11.458778036758304">
        <ele>2.06</ele>
        <time>2017-06-21T19:03:51Z</time>
      </trkpt>
      <trkpt lat="64.807850969955325" lon="11.458467990159988">
        <ele>2.06</ele>
        <time>2017-06-21T19:03:52Z</time>
      </trkpt>
      <trkpt lat="64.807762959972024" lon="11.458179987967014">
        <ele>2.06</ele>
        <time>2017-06-21T19:03:53Z</time>
      </trkpt>
      <trkpt lat="64.807657012715936" lon="11.457918975502253">
        <ele>2.54</ele>
        <time>2017-06-21T19:03:54Z</time>
      </trkpt>
      <trkpt lat="64.807546958327293" lon="11.457685036584735">
        <ele>2.54</ele>
        <time>2017-06-21T19:03:55Z</time>
      </trkpt>
      <trkpt lat="64.807431036606431" lon="11.457443973049521">
        <ele>3.02</ele>
        <time>2017-06-21T19:03:56Z</time>
      </trkpt>
      <trkpt lat="64.80732399970293" lon="11.457184972241521">
        <ele>3.02</ele>
        <time>2017-06-21T19:03:57Z</time>
      </trkpt>
      <trkpt lat="64.807226015254855" lon="11.456904010847211">
        <ele>3.02</ele>
        <time>2017-06-21T19:03:58Z</time>
      </trkpt>
      <trkpt lat="64.807146973907948" lon="11.456595975905657">
        <ele>3.02</ele>
        <time>2017-06-21T19:03:59Z</time>
      </trkpt>
      <trkpt lat="64.80708503164351" lon="11.456264974549413">
        <ele>3.5</ele>
        <time>2017-06-21T19:04:00Z</time>
      </trkpt>
      <trkpt lat="64.807047983631492" lon="11.455919975414872">
        <ele>3.98</ele>
        <time>2017-06-21T19:04:01Z</time>
      </trkpt>
      <trkpt lat="64.807029962539673" lon="11.455571036785841">
        <ele>4.46</ele>
        <time>2017-06-21T19:04:02Z</time>
      </trkpt>
      <trkpt lat="64.807029962539673" lon="11.455217991024256">
        <ele>4.94</ele>
        <time>2017-06-21T19:04:03Z</time>
      </trkpt>
      <trkpt lat="64.807055024430156" lon="11.454873997718096">
        <ele>4.94</ele>
        <time>2017-06-21T19:04:04Z</time>
      </trkpt>
      <trkpt lat="64.807098023593426" lon="11.45453997887671">
        <ele>5.42</ele>
        <time>2017-06-21T19:04:05Z</time>
      </trkpt>
      <trkpt lat="64.807159965857863" lon="11.454205038025975">
        <ele>5.91</ele>
        <time>2017-06-21T19:04:06Z</time>
      </trkpt>
      <trkpt lat="64.807241018861532" lon="11.453886022791266">
        <ele>5.91</ele>
        <time>2017-06-21T19:04:07Z</time>
      </trkpt>
      <trkpt lat="64.807331962510943" lon="11.453567007556558">
        <ele>5.91</ele>
        <time>2017-06-21T19:04:08Z</time>
      </trkpt>
      <trkpt lat="64.80743003077805" lon="11.45325000397861">
        <ele>5.91</ele>
        <time>2017-06-21T19:04:09Z</time>
      </trkpt>
      <trkpt lat="64.80769095942378" lon="11.452221041545272">
        <ele>4.94</ele>
        <time>2017-06-21T19:04:12Z</time>
      </trkpt>
      <trkpt lat="64.807750973850489" lon="11.451834971085191">
        <ele>4.94</ele>
        <time>2017-06-21T19:04:13Z</time>
      </trkpt>
      <trkpt lat="64.807786010205746" lon="11.451447978615761">
        <ele>4.94</ele>
        <time>2017-06-21T19:04:14Z</time>
      </trkpt>
      <trkpt lat="64.807803025469184" lon="11.451068026944995">
        <ele>4.46</ele>
        <time>2017-06-21T19:04:15Z</time>
      </trkpt>
      <trkpt lat="64.807812999933958" lon="11.450697965919971">
        <ele>4.46</ele>
        <time>2017-06-21T19:04:16Z</time>
      </trkpt>
      <trkpt lat="64.80785901658237" lon="11.450020959600806">
        <ele>4.46</ele>
        <time>2017-06-21T19:04:18Z</time>
      </trkpt>
      <trkpt lat="64.807908972725272" lon="11.449708985164762">
        <ele>3.98</ele>
        <time>2017-06-21T19:04:19Z</time>
      </trkpt>
      <trkpt lat="64.807980973273516" lon="11.449419977143407">
        <ele>3.02</ele>
        <time>2017-06-21T19:04:20Z</time>
      </trkpt>
      <trkpt lat="64.80807401239872" lon="11.449155025184155">
        <ele>2.54</ele>
        <time>2017-06-21T19:04:21Z</time>
      </trkpt>
      <trkpt lat="64.808187000453472" lon="11.448912033811212">
        <ele>2.06</ele>
        <time>2017-06-21T19:04:22Z</time>
      </trkpt>
      <trkpt lat="64.808317003771663" lon="11.448683040216565">
        <ele>2.06</ele>
        <time>2017-06-21T19:04:23Z</time>
      </trkpt>
      <trkpt lat="64.808452036231756" lon="11.448464021086693">
        <ele>2.54</ele>
        <time>2017-06-21T19:04:24Z</time>
      </trkpt>
      <trkpt lat="64.80955601669848" lon="11.447538994252682">
        <ele>0.62</ele>
        <time>2017-06-21T19:04:31Z</time>
      </trkpt>
      <trkpt lat="64.810359003022313" lon="11.447172034531832">
        <ele>1.58</ele>
        <time>2017-06-21T19:04:36Z</time>
      </trkpt>
      <trkpt lat="64.810510966926813" lon="11.447020992636681">
        <ele>1.58</ele>
        <time>2017-06-21T19:04:37Z</time>
      </trkpt>
      <trkpt lat="64.810656979680061" lon="11.446831980720162">
        <ele>1.58</ele>
        <time>2017-06-21T19:04:38Z</time>
      </trkpt>
      <trkpt lat="64.810792012140155" lon="11.446604998782277">
        <ele>2.06</ele>
        <time>2017-06-21T19:04:39Z</time>
      </trkpt>
      <trkpt lat="64.810920003801584" lon="11.446340968832374">
        <ele>2.06</ele>
        <time>2017-06-21T19:04:40Z</time>
      </trkpt>
      <trkpt lat="64.811045983806252" lon="11.44607299938798">
        <ele>2.06</ele>
        <time>2017-06-21T19:04:41Z</time>
      </trkpt>
      <trkpt lat="64.811919964849949" lon="11.444613039493561">
        <ele>3.02</ele>
        <time>2017-06-21T19:04:48Z</time>
      </trkpt>
      <trkpt lat="64.812072012573481" lon="11.444503990933299">
        <ele>3.02</ele>
        <time>2017-06-21T19:04:49Z</time>
      </trkpt>
      <trkpt lat="64.812230011448264" lon="11.444423021748662">
        <ele>2.54</ele>
        <time>2017-06-21T19:04:50Z</time>
      </trkpt>
      <trkpt lat="64.812395973131061" lon="11.444370970129967">
        <ele>2.54</ele>
        <time>2017-06-21T19:04:51Z</time>
      </trkpt>
      <trkpt lat="64.812565036118031" lon="11.44435303285718">
        <ele>3.02</ele>
        <time>2017-06-21T19:04:52Z</time>
      </trkpt>
      <trkpt lat="64.812739966437221" lon="11.44435403868556">
        <ele>3.5</ele>
        <time>2017-06-21T19:04:53Z</time>
      </trkpt>
      <trkpt lat="64.813890969380736" lon="11.44439997151494">
        <ele>6.87</ele>
        <time>2017-06-21T19:05:01Z</time>
      </trkpt>
      <trkpt lat="64.814074030146003" lon="11.444397959858179">
        <ele>7.35</ele>
        <time>2017-06-21T19:05:03Z</time>
      </trkpt>
      <trkpt lat="64.8141760379076" lon="11.444365018978715">
        <ele>7.35</ele>
        <time>2017-06-21T19:05:04Z</time>
      </trkpt>
      <trkpt lat="64.81428399682045" lon="11.444308022037148">
        <ele>7.35</ele>
        <time>2017-06-21T19:05:05Z</time>
      </trkpt>
      <trkpt lat="64.814395979046822" lon="11.444214982911944">
        <ele>7.35</ele>
        <time>2017-06-21T19:05:06Z</time>
      </trkpt>
      <trkpt lat="64.814501004293561" lon="11.444095959886909">
        <ele>6.87</ele>
        <time>2017-06-21T19:05:07Z</time>
      </trkpt>
      <trkpt lat="64.814597982913256" lon="11.443941984325647">
        <ele>6.39</ele>
        <time>2017-06-21T19:05:08Z</time>
      </trkpt>
      <trkpt lat="64.814684987068176" lon="11.443755989894271">
        <ele>5.91</ele>
        <time>2017-06-21T19:05:09Z</time>
      </trkpt>
      <trkpt lat="64.814765034243464" lon="11.443534037098289">
        <ele>5.91</ele>
        <time>2017-06-21T19:05:10Z</time>
      </trkpt>
      <trkpt lat="64.814833011478186" lon="11.443291967734694">
        <ele>5.91</ele>
        <time>2017-06-21T19:05:11Z</time>
      </trkpt>
      <trkpt lat="64.81488598510623" lon="11.443015029653907">
        <ele>5.91</ele>
        <time>2017-06-21T19:05:12Z</time>
      </trkpt>
      <trkpt lat="64.814919009804726" lon="11.442715963348746">
        <ele>6.87</ele>
        <time>2017-06-21T19:05:13Z</time>
      </trkpt>
      <trkpt lat="64.814932001754642" lon="11.442406000569463">
        <ele>7.35</ele>
        <time>2017-06-21T19:05:14Z</time>
      </trkpt>
      <trkpt lat="64.814930995926261" lon="11.442092014476657">
        <ele>8.789999999999999</ele>
        <time>2017-06-21T19:05:15Z</time>
      </trkpt>
      <trkpt lat="64.814910963177681" lon="11.441775010898709">
        <ele>9.27</ele>
        <time>2017-06-21T19:05:16Z</time>
      </trkpt>
      <trkpt lat="64.814875004813075" lon="11.441462030634284">
        <ele>9.75</ele>
        <time>2017-06-21T19:05:17Z</time>
      </trkpt>
      <trkpt lat="64.814822031185031" lon="11.441126000136137">
        <ele>9.27</ele>
        <time>2017-06-21T19:05:18Z</time>
      </trkpt>
      <trkpt lat="64.814760005101562" lon="11.440778989344835">
        <ele>9.27</ele>
        <time>2017-06-21T19:05:19Z</time>
      </trkpt>
      <trkpt lat="64.814032958820462" lon="11.437980020418763">
        <ele>11.67</ele>
        <time>2017-06-21T19:05:27Z</time>
      </trkpt>
      <trkpt lat="64.812522958964109" lon="11.433798959478736">
        <ele>13.119999999999999</ele>
        <time>2017-06-21T19:05:40Z</time>
      </trkpt>
      <trkpt lat="64.812436038628221" lon="11.433453960344195">
        <ele>12.630000000000001</ele>
        <time>2017-06-21T19:05:41Z</time>
      </trkpt>
      <trkpt lat="64.812367977574468" lon="11.433084988966584">
        <ele>12.15</ele>
        <time>2017-06-21T19:05:42Z</time>
      </trkpt>
      <trkpt lat="64.812321038916707" lon="11.432692967355251">
        <ele>12.15</ele>
        <time>2017-06-21T19:05:43Z</time>
      </trkpt>
      <trkpt lat="64.81228600256145" lon="11.432290971279144">
        <ele>11.67</ele>
        <time>2017-06-21T19:05:44Z</time>
      </trkpt>
      <trkpt lat="64.812254989519715" lon="11.431886041536927">
        <ele>11.67</ele>
        <time>2017-06-21T19:05:45Z</time>
      </trkpt>
      <trkpt lat="64.811804965138435" lon="11.428352985531092">
        <ele>10.23</ele>
        <time>2017-06-21T19:05:54Z</time>
      </trkpt>
      <trkpt lat="64.811044977977872" lon="11.423241030424833">
        <ele>5.91</ele>
        <time>2017-06-21T19:06:06Z</time>
      </trkpt>
      <trkpt lat="64.810707019641995" lon="11.420950004830956">
        <ele>5.91</ele>
        <time>2017-06-21T19:06:12Z</time>
      </trkpt>
      <trkpt lat="64.81061096303165" lon="11.4205920137465">
        <ele>5.91</ele>
        <time>2017-06-21T19:06:13Z</time>
      </trkpt>
      <trkpt lat="64.810498980805278" lon="11.420251959934831">
        <ele>6.87</ele>
        <time>2017-06-21T19:06:14Z</time>
      </trkpt>
      <trkpt lat="64.808916980400681" lon="11.415803013369441">
        <ele>7.83</ele>
        <time>2017-06-21T19:06:27Z</time>
      </trkpt>
      <trkpt lat="64.808705002069473" lon="11.415345026180148">
        <ele>8.789999999999999</ele>
        <time>2017-06-21T19:06:29Z</time>
      </trkpt>
      <trkpt lat="64.808595031499863" lon="11.415155008435249">
        <ele>8.789999999999999</ele>
        <time>2017-06-21T19:06:30Z</time>
      </trkpt>
      <trkpt lat="64.807097017765045" lon="11.412877980619669">
        <ele>3.98</ele>
        <time>2017-06-21T19:06:41Z</time>
      </trkpt>
      <trkpt lat="64.805796984583139" lon="11.410969002172351">
        <ele>5.42</ele>
        <time>2017-06-21T19:06:50Z</time>
      </trkpt>
      <trkpt lat="64.805697994306684" lon="11.410675970837474">
        <ele>5.42</ele>
        <time>2017-06-21T19:06:51Z</time>
      </trkpt>
      <trkpt lat="64.805610990151763" lon="11.410361984744668">
        <ele>5.42</ele>
        <time>2017-06-21T19:06:52Z</time>
      </trkpt>
      <trkpt lat="64.8055399954319" lon="11.410028971731663">
        <ele>5.42</ele>
        <time>2017-06-21T19:06:53Z</time>
      </trkpt>
      <trkpt lat="64.805479981005192" lon="11.409672992303967">
        <ele>4.94</ele>
        <time>2017-06-21T19:06:54Z</time>
      </trkpt>
      <trkpt lat="64.805432958528399" lon="11.409296980127692">
        <ele>4.46</ele>
        <time>2017-06-21T19:06:55Z</time>
      </trkpt>
      <trkpt lat="64.805398005992174" lon="11.408901019021869">
        <ele>3.5</ele>
        <time>2017-06-21T19:06:56Z</time>
      </trkpt>
      <trkpt lat="64.80536799877882" lon="11.408491982147098">
        <ele>2.54</ele>
        <time>2017-06-21T19:06:57Z</time>
      </trkpt>
      <trkpt lat="64.805340003222227" lon="11.404685005545616">
        <ele>2.06</ele>
        <time>2017-06-21T19:07:06Z</time>
      </trkpt>
      <trkpt lat="64.805663041770458" lon="11.398581974208355">
        <ele>1.1</ele>
        <time>2017-06-21T19:07:20Z</time>
      </trkpt>
      <trkpt lat="64.805702017620206" lon="11.395737994462252">
        <ele>0.62</ele>
        <time>2017-06-21T19:07:27Z</time>
      </trkpt>
      <trkpt lat="64.806438032537699" lon="11.389282001182437">
        <ele>-0.34</ele>
        <time>2017-06-21T19:07:42Z</time>
      </trkpt>
      <trkpt lat="64.807074973359704" lon="11.386866001412272">
        <ele>0.14</ele>
        <time>2017-06-21T19:07:49Z</time>
      </trkpt>
      <trkpt lat="64.809135999530554" lon="11.381564028561115">
        <ele>13.119999999999999</ele>
        <time>2017-06-21T19:08:06Z</time>
      </trkpt>
      <trkpt lat="64.809632040560246" lon="11.380159975960851">
        <ele>15.039999999999999</ele>
        <time>2017-06-21T19:08:11Z</time>
      </trkpt>
      <trkpt lat="64.809689037501812" lon="11.379866022616625">
        <ele>15.039999999999999</ele>
        <time>2017-06-21T19:08:12Z</time>
      </trkpt>
      <trkpt lat="64.809730025008321" lon="11.379544995725155">
        <ele>15.039999999999999</ele>
        <time>2017-06-21T19:08:13Z</time>
      </trkpt>
      <trkpt lat="64.809760032221675" lon="11.379199996590614">
        <ele>15.039999999999999</ele>
        <time>2017-06-21T19:08:14Z</time>
      </trkpt>
      <trkpt lat="64.809779981151223" lon="11.378843011334538">
        <ele>15.039999999999999</ele>
        <time>2017-06-21T19:08:15Z</time>
      </trkpt>
      <trkpt lat="64.809891963377595" lon="11.374977026134729">
        <ele>14.08</ele>
        <time>2017-06-21T19:08:26Z</time>
      </trkpt>
      <trkpt lat="64.809948038309813" lon="11.373227974399924">
        <ele>15.52</ele>
        <time>2017-06-21T19:08:35Z</time>
      </trkpt>
      <trkpt lat="64.810028001666069" lon="11.37192701920867">
        <ele>14.08</ele>
        <time>2017-06-21T19:08:44Z</time>
      </trkpt>
      <trkpt lat="64.810112994164228" lon="11.369539014995098">
        <ele>12.15</ele>
        <time>2017-06-21T19:08:51Z</time>
      </trkpt>
      <trkpt lat="64.810096984729171" lon="11.364200999960303">
        <ele>10.23</ele>
        <time>2017-06-21T19:09:03Z</time>
      </trkpt>
      <trkpt lat="64.809774029999971" lon="11.359152998775244">
        <ele>10.23</ele>
        <time>2017-06-21T19:09:14Z</time>
      </trkpt>
      <trkpt lat="64.809572026133537" lon="11.35639501735568">
        <ele>8.310000000000001</ele>
        <time>2017-06-21T19:09:21Z</time>
      </trkpt>
      <trkpt lat="64.809584012255073" lon="11.356005007401109">
        <ele>7.35</ele>
        <time>2017-06-21T19:09:22Z</time>
      </trkpt>
      <trkpt lat="64.809617036953568" lon="11.355612985789776">
        <ele>7.35</ele>
        <time>2017-06-21T19:09:23Z</time>
      </trkpt>
      <trkpt lat="64.809663975611329" lon="11.355219036340714">
        <ele>6.87</ele>
        <time>2017-06-21T19:09:24Z</time>
      </trkpt>
      <trkpt lat="64.809722984209657" lon="11.354834977537394">
        <ele>6.87</ele>
        <time>2017-06-21T19:09:25Z</time>
      </trkpt>
      <trkpt lat="64.809792973101139" lon="11.35446198284626">
        <ele>7.35</ele>
        <time>2017-06-21T19:09:26Z</time>
      </trkpt>
      <trkpt lat="64.809868996962905" lon="11.354109020903707">
        <ele>7.83</ele>
        <time>2017-06-21T19:09:27Z</time>
      </trkpt>
      <trkpt lat="64.81028700247407" lon="11.35156000033021">
        <ele>10.710000000000001</ele>
        <time>2017-06-21T19:09:35Z</time>
      </trkpt>
      <trkpt lat="64.810293037444353" lon="11.351223969832063">
        <ele>10.710000000000001</ele>
        <time>2017-06-21T19:09:36Z</time>
      </trkpt>
      <trkpt lat="64.810293037444353" lon="11.347927032038569">
        <ele>11.67</ele>
        <time>2017-06-21T19:09:46Z</time>
      </trkpt>
      <trkpt lat="64.810327989980578" lon="11.347644980996847">
        <ele>12.15</ele>
        <time>2017-06-21T19:09:47Z</time>
      </trkpt>
      <trkpt lat="64.810388004407287" lon="11.347402995452285">
        <ele>12.630000000000001</ele>
        <time>2017-06-21T19:09:48Z</time>
      </trkpt>
      <trkpt lat="64.810471991077065" lon="11.347182970494032">
        <ele>13.119999999999999</ele>
        <time>2017-06-21T19:09:49Z</time>
      </trkpt>
      <trkpt lat="64.810570981353521" lon="11.347000999376178">
        <ele>14.08</ele>
        <time>2017-06-21T19:09:50Z</time>
      </trkpt>
      <trkpt lat="64.810682963579893" lon="11.346853980794549">
        <ele>15.039999999999999</ele>
        <time>2017-06-21T19:09:51Z</time>
      </trkpt>
      <trkpt lat="64.81080399826169" lon="11.34670302271843">
        <ele>16</ele>
        <time>2017-06-21T19:09:52Z</time>
      </trkpt>
      <trkpt lat="64.812274016439915" lon="11.344607966020703">
        <ele>17.920000000000002</ele>
        <time>2017-06-21T19:10:03Z</time>
      </trkpt>
      <trkpt lat="64.8142209649086" lon="11.341711012646556">
        <ele>25.609999999999999</ele>
        <time>2017-06-21T19:10:16Z</time>
      </trkpt>
      <trkpt lat="64.816866964101791" lon="11.3384760171175">
        <ele>24.649999999999999</ele>
        <time>2017-06-21T19:10:31Z</time>
      </trkpt>
      <trkpt lat="64.818620961159468" lon="11.336184991523623">
        <ele>27.050000000000001</ele>
        <time>2017-06-21T19:10:42Z</time>
      </trkpt>
      <trkpt lat="64.819205012172461" lon="11.335590966045856">
        <ele>22.73</ele>
        <time>2017-06-21T19:10:46Z</time>
      </trkpt>
      <trkpt lat="64.819331998005509" lon="11.335377981886268">
        <ele>19.84</ele>
        <time>2017-06-21T19:10:47Z</time>
      </trkpt>
      <trkpt lat="64.819457978010178" lon="11.335120992735028">
        <ele>18.399999999999999</ele>
        <time>2017-06-21T19:10:48Z</time>
      </trkpt>
      <trkpt lat="64.819572977721691" lon="11.334817986935377">
        <ele>16.960000000000001</ele>
        <time>2017-06-21T19:10:49Z</time>
      </trkpt>
      <trkpt lat="64.819678002968431" lon="11.334487991407514">
        <ele>15.52</ele>
        <time>2017-06-21T19:10:50Z</time>
      </trkpt>
      <trkpt lat="64.819772969931364" lon="11.334132011979818">
        <ele>14.56</ele>
        <time>2017-06-21T19:10:51Z</time>
      </trkpt>
      <trkpt lat="64.819863997399807" lon="11.333766980096698">
        <ele>13.6</ele>
        <time>2017-06-21T19:10:52Z</time>
      </trkpt>
      <trkpt lat="64.820556007325649" lon="11.331078987568617">
        <ele>13.6</ele>
        <time>2017-06-21T19:11:00Z</time>
      </trkpt>
      <trkpt lat="64.820656003430486" lon="11.330868015065789">
        <ele>14.56</ele>
        <time>2017-06-21T19:11:01Z</time>
      </trkpt>
      <trkpt lat="64.820763962343335" lon="11.330688977614045">
        <ele>15.039999999999999</ele>
        <time>2017-06-21T19:11:02Z</time>
      </trkpt>
      <trkpt lat="64.820879967883229" lon="11.330567020922899">
        <ele>15.52</ele>
        <time>2017-06-21T19:11:03Z</time>
      </trkpt>
      <trkpt lat="64.821002008393407" lon="11.330495020374656">
        <ele>16</ele>
        <time>2017-06-21T19:11:04Z</time>
      </trkpt>
      <trkpt lat="64.821132011711597" lon="11.330493008717895">
        <ele>16.48</ele>
        <time>2017-06-21T19:11:05Z</time>
      </trkpt>
      <trkpt lat="64.821264026686549" lon="11.330517986789346">
        <ele>16.48</ele>
        <time>2017-06-21T19:11:06Z</time>
      </trkpt>
      <trkpt lat="64.821401992812753" lon="11.330573977902532">
        <ele>16.48</ele>
        <time>2017-06-21T19:11:07Z</time>
      </trkpt>
      <trkpt lat="64.821539958938956" lon="11.330651007592678">
        <ele>16</ele>
        <time>2017-06-21T19:11:08Z</time>
      </trkpt>
      <trkpt lat="64.822845021262765" lon="11.331420969218016">
        <ele>8.310000000000001</ele>
        <time>2017-06-21T19:11:17Z</time>
      </trkpt>
      <trkpt lat="64.822992961853743" lon="11.331402026116848">
        <ele>7.35</ele>
        <time>2017-06-21T19:11:18Z</time>
      </trkpt>
      <trkpt lat="64.823136040940881" lon="11.33134201169014">
        <ele>6.87</ele>
        <time>2017-06-21T19:11:19Z</time>
      </trkpt>
      <trkpt lat="64.823279036208987" lon="11.331230029463768">
        <ele>6.87</ele>
        <time>2017-06-21T19:11:20Z</time>
      </trkpt>
      <trkpt lat="64.823417002335191" lon="11.331108994781971">
        <ele>6.87</ele>
        <time>2017-06-21T19:11:21Z</time>
      </trkpt>
      <trkpt lat="64.823667034506798" lon="11.330800959840417">
        <ele>8.310000000000001</ele>
        <time>2017-06-21T19:11:23Z</time>
      </trkpt>
      <trkpt lat="64.823768958449364" lon="11.330599961802363">
        <ele>9.27</ele>
        <time>2017-06-21T19:11:24Z</time>
      </trkpt>
      <trkpt lat="64.823847999796271" lon="11.330372979864478">
        <ele>10.23</ele>
        <time>2017-06-21T19:11:25Z</time>
      </trkpt>
      <trkpt lat="64.823903990909457" lon="11.330102998763323">
        <ele>10.710000000000001</ele>
        <time>2017-06-21T19:11:26Z</time>
      </trkpt>
      <trkpt lat="64.823935003951192" lon="11.329800998792052">
        <ele>10.710000000000001</ele>
        <time>2017-06-21T19:11:27Z</time>
      </trkpt>
      <trkpt lat="64.823949001729488" lon="11.329477038234472">
        <ele>10.710000000000001</ele>
        <time>2017-06-21T19:11:28Z</time>
      </trkpt>
      <trkpt lat="64.823943972587585" lon="11.329122986644506">
        <ele>10.23</ele>
        <time>2017-06-21T19:11:29Z</time>
      </trkpt>
      <trkpt lat="64.823927963152528" lon="11.328753009438515">
        <ele>10.23</ele>
        <time>2017-06-21T19:11:30Z</time>
      </trkpt>
      <trkpt lat="64.823898039758205" lon="11.328366016969085">
        <ele>9.27</ele>
        <time>2017-06-21T19:11:31Z</time>
      </trkpt>
      <trkpt lat="64.823520015925169" lon="11.323573999106884">
        <ele>8.789999999999999</ele>
        <time>2017-06-21T19:11:42Z</time>
      </trkpt>
      <trkpt lat="64.823519010096788" lon="11.323147024959326">
        <ele>9.27</ele>
        <time>2017-06-21T19:11:43Z</time>
      </trkpt>
      <trkpt lat="64.823537031188607" lon="11.322724996134639">
        <ele>9.27</ele>
        <time>2017-06-21T19:11:44Z</time>
      </trkpt>
      <trkpt lat="64.823571983724833" lon="11.322312019765377">
        <ele>9.75</ele>
        <time>2017-06-21T19:11:45Z</time>
      </trkpt>
      <trkpt lat="64.823855962604284" lon="11.320339003577828">
        <ele>11.19</ele>
        <time>2017-06-21T19:11:51Z</time>
      </trkpt>
      <trkpt lat="64.823988983407617" lon="11.319541968405247">
        <ele>12.630000000000001</ele>
        <time>2017-06-21T19:11:55Z</time>
      </trkpt>
      <trkpt lat="64.824304981157184" lon="11.317047011107206">
        <ele>16</ele>
        <time>2017-06-21T19:12:06Z</time>
      </trkpt>
      <trkpt lat="64.82446700334549" lon="11.314929993823171">
        <ele>14.08</ele>
        <time>2017-06-21T19:12:15Z</time>
      </trkpt>
      <trkpt lat="64.824491981416941" lon="11.311500035226345">
        <ele>15.52</ele>
        <time>2017-06-21T19:12:24Z</time>
      </trkpt>
      <trkpt lat="64.824440013617277" lon="11.310758991166949">
        <ele>15.52</ele>
        <time>2017-06-21T19:12:26Z</time>
      </trkpt>
      <trkpt lat="64.824389973655343" lon="11.310388008132577">
        <ele>15.039999999999999</ele>
        <time>2017-06-21T19:12:27Z</time>
      </trkpt>
      <trkpt lat="64.823810029774904" lon="11.307024015113711">
        <ele>16.48</ele>
        <time>2017-06-21T19:12:36Z</time>
      </trkpt>
      <trkpt lat="64.823209969326854" lon="11.302631981670856">
        <ele>13.6</ele>
        <time>2017-06-21T19:12:46Z</time>
      </trkpt>
      <trkpt lat="64.822394996881485" lon="11.296128965914249">
        <ele>6.39</ele>
        <time>2017-06-21T19:13:00Z</time>
      </trkpt>
      <trkpt lat="64.821826033294201" lon="11.29094903357327">
        <ele>8.789999999999999</ele>
        <time>2017-06-21T19:13:12Z</time>
      </trkpt>
      <trkpt lat="64.821149026975036" lon="11.287094028666615">
        <ele>7.83</ele>
        <time>2017-06-21T19:13:22Z</time>
      </trkpt>
      <trkpt lat="64.821089012548327" lon="11.286824969574809">
        <ele>7.35</ele>
        <time>2017-06-21T19:13:23Z</time>
      </trkpt>
      <trkpt lat="64.821020029485226" lon="11.286584995687008">
        <ele>6.87</ele>
        <time>2017-06-21T19:13:24Z</time>
      </trkpt>
      <trkpt lat="64.82092397287488" lon="11.286360025405884">
        <ele>5.42</ele>
        <time>2017-06-21T19:13:25Z</time>
      </trkpt>
      <trkpt lat="64.820363977923989" lon="11.285159988328815">
        <ele>2.54</ele>
        <time>2017-06-21T19:13:30Z</time>
      </trkpt>
      <trkpt lat="64.820282002910972" lon="11.284880032762885">
        <ele>3.02</ele>
        <time>2017-06-21T19:13:31Z</time>
      </trkpt>
      <trkpt lat="64.820225005969405" lon="11.28459102474153">
        <ele>3.02</ele>
        <time>2017-06-21T19:13:32Z</time>
      </trkpt>
      <trkpt lat="64.820190975442529" lon="11.284287013113499">
        <ele>3.5</ele>
        <time>2017-06-21T19:13:33Z</time>
      </trkpt>
      <trkpt lat="64.820178989320993" lon="11.283971015363932">
        <ele>4.46</ele>
        <time>2017-06-21T19:13:34Z</time>
      </trkpt>
      <trkpt lat="64.820183012634516" lon="11.283650994300842">
        <ele>4.94</ele>
        <time>2017-06-21T19:13:35Z</time>
      </trkpt>
      <trkpt lat="64.820202039554715" lon="11.283327033743262">
        <ele>5.91</ele>
        <time>2017-06-21T19:13:36Z</time>
      </trkpt>
      <trkpt lat="64.820229029282928" lon="11.283012041822076">
        <ele>6.39</ele>
        <time>2017-06-21T19:13:37Z</time>
      </trkpt>
      <trkpt lat="64.820271022617817" lon="11.282709036022425">
        <ele>7.83</ele>
        <time>2017-06-21T19:13:38Z</time>
      </trkpt>
      <trkpt lat="64.820306980982423" lon="11.282423967495561">
        <ele>8.789999999999999</ele>
        <time>2017-06-21T19:13:39Z</time>
      </trkpt>
      <trkpt lat="64.820453999564052" lon="11.281326021999121">
        <ele>10.23</ele>
        <time>2017-06-21T19:13:43Z</time>
      </trkpt>
      <trkpt lat="64.82047202065587" lon="11.281021004542708">
        <ele>9.75</ele>
        <time>2017-06-21T19:13:44Z</time>
      </trkpt>
      <trkpt lat="64.820470008999109" lon="11.280706012621522">
        <ele>9.27</ele>
        <time>2017-06-21T19:13:45Z</time>
      </trkpt>
      <trkpt lat="64.820445030927658" lon="11.280394038185477">
        <ele>8.789999999999999</ele>
        <time>2017-06-21T19:13:46Z</time>
      </trkpt>
      <trkpt lat="64.820404965430498" lon="11.280104024335742">
        <ele>8.310000000000001</ele>
        <time>2017-06-21T19:13:47Z</time>
      </trkpt>
      <trkpt lat="64.820346962660551" lon="11.279835971072316">
        <ele>7.83</ele>
        <time>2017-06-21T19:13:48Z</time>
      </trkpt>
      <trkpt lat="64.820266999304295" lon="11.279586022719741">
        <ele>7.83</ele>
        <time>2017-06-21T19:13:49Z</time>
      </trkpt>
      <trkpt lat="64.820169014856219" lon="11.279364991933107">
        <ele>7.35</ele>
        <time>2017-06-21T19:13:50Z</time>
      </trkpt>
      <trkpt lat="64.820066001266241" lon="11.279162988066673">
        <ele>7.35</ele>
        <time>2017-06-21T19:13:51Z</time>
      </trkpt>
      <trkpt lat="64.819964999333024" lon="11.278988979756832">
        <ele>7.35</ele>
        <time>2017-06-21T19:13:52Z</time>
      </trkpt>
      <trkpt lat="64.819881012663245" lon="11.27885302528739">
        <ele>7.83</ele>
        <time>2017-06-21T19:13:53Z</time>
      </trkpt>
      <trkpt lat="64.819801971316338" lon="11.278781024739146">
        <ele>7.83</ele>
        <time>2017-06-21T19:13:54Z</time>
      </trkpt>
      <trkpt lat="64.819725025445223" lon="11.278773983940482">
        <ele>8.310000000000001</ele>
        <time>2017-06-21T19:13:55Z</time>
      </trkpt>
      <trkpt lat="64.819655036553741" lon="11.278827041387558">
        <ele>8.789999999999999</ele>
        <time>2017-06-21T19:13:56Z</time>
      </trkpt>
      <trkpt lat="64.819584963843226" lon="11.278926031664014">
        <ele>8.789999999999999</ele>
        <time>2017-06-21T19:13:57Z</time>
      </trkpt>
      <trkpt lat="64.819512041285634" lon="11.279057962819934">
        <ele>9.27</ele>
        <time>2017-06-21T19:13:58Z</time>
      </trkpt>
      <trkpt lat="64.81922697275877" lon="11.279488960281014">
        <ele>9.75</ele>
        <time>2017-06-21T19:14:01Z</time>
      </trkpt>
      <trkpt lat="64.818548960611224" lon="11.280022971332073">
        <ele>7.83</ele>
        <time>2017-06-21T19:14:06Z</time>
      </trkpt>
      <trkpt lat="64.818388028070331" lon="11.280041998252273">
        <ele>7.35</ele>
        <time>2017-06-21T19:14:07Z</time>
      </trkpt>
      <trkpt lat="64.818221982568502" lon="11.280017020180821">
        <ele>6.39</ele>
        <time>2017-06-21T19:14:08Z</time>
      </trkpt>
      <trkpt lat="64.816722040995955" lon="11.279218979179859">
        <ele>6.39</ele>
        <time>2017-06-21T19:14:17Z</time>
      </trkpt>
      <trkpt lat="64.816587008535862" lon="11.279058968648314">
        <ele>6.87</ele>
        <time>2017-06-21T19:14:18Z</time>
      </trkpt>
      <trkpt lat="64.816461028531194" lon="11.278846990317106">
        <ele>6.87</ele>
        <time>2017-06-21T19:14:19Z</time>
      </trkpt>
      <trkpt lat="64.816347034648061" lon="11.278593018651009">
        <ele>6.87</ele>
        <time>2017-06-21T19:14:20Z</time>
      </trkpt>
      <trkpt lat="64.816236980259418" lon="11.27831800840795">
        <ele>6.87</ele>
        <time>2017-06-21T19:14:21Z</time>
      </trkpt>
      <trkpt lat="64.81600102968514" lon="11.277783997356892">
        <ele>5.42</ele>
        <time>2017-06-21T19:14:23Z</time>
      </trkpt>
      <trkpt lat="64.815867003053427" lon="11.277559027075768">
        <ele>4.94</ele>
        <time>2017-06-21T19:14:24Z</time>
      </trkpt>
      <trkpt lat="64.815719984471798" lon="11.277368003502488">
        <ele>3.98</ele>
        <time>2017-06-21T19:14:25Z</time>
      </trkpt>
      <trkpt lat="64.815560979768634" lon="11.277211010456085">
        <ele>3.5</ele>
        <time>2017-06-21T19:14:26Z</time>
      </trkpt>
      <trkpt lat="64.815394012257457" lon="11.277087964117527">
        <ele>3.02</ele>
        <time>2017-06-21T19:14:27Z</time>
      </trkpt>
      <trkpt lat="64.815217992290854" lon="11.276990985497832">
        <ele>2.54</ele>
        <time>2017-06-21T19:14:28Z</time>
      </trkpt>
      <trkpt lat="64.815039960667491" lon="11.276924014091492">
        <ele>3.02</ele>
        <time>2017-06-21T19:14:29Z</time>
      </trkpt>
      <trkpt lat="64.814868969842792" lon="11.276871962472796">
        <ele>3.5</ele>
        <time>2017-06-21T19:14:30Z</time>
      </trkpt>
      <trkpt lat="64.814222976565361" lon="11.276684962213039">
        <ele>3.98</ele>
        <time>2017-06-21T19:14:34Z</time>
      </trkpt>
      <trkpt lat="64.814071012660861" lon="11.276566023007035">
        <ele>3.5</ele>
        <time>2017-06-21T19:14:35Z</time>
      </trkpt>
      <trkpt lat="64.813926005735993" lon="11.276396038010716">
        <ele>3.02</ele>
        <time>2017-06-21T19:14:36Z</time>
      </trkpt>
      <trkpt lat="64.813788961619139" lon="11.276179030537605">
        <ele>3.02</ele>
        <time>2017-06-21T19:14:37Z</time>
      </trkpt>
      <trkpt lat="64.813656024634838" lon="11.275934027507901">
        <ele>2.54</ele>
        <time>2017-06-21T19:14:38Z</time>
      </trkpt>
      <trkpt lat="64.813242964446545" lon="11.275291973724961">
        <ele>2.06</ele>
        <time>2017-06-21T19:14:41Z</time>
      </trkpt>
      <trkpt lat="64.813085971400142" lon="11.27513699233532">
        <ele>1.58</ele>
        <time>2017-06-21T19:14:42Z</time>
      </trkpt>
      <trkpt lat="64.812917998060584" lon="11.27500900067389">
        <ele>1.58</ele>
        <time>2017-06-21T19:14:43Z</time>
      </trkpt>
      <trkpt lat="64.811496008187532" lon="11.274325037375093">
        <ele>0.14</ele>
        <time>2017-06-21T19:14:51Z</time>
      </trkpt>
      <trkpt lat="64.81131998822093" lon="11.274322019889951">
        <ele>0.62</ele>
        <time>2017-06-21T19:14:52Z</time>
      </trkpt>
      <trkpt lat="64.811152014881372" lon="11.274368958547711">
        <ele>1.58</ele>
        <time>2017-06-21T19:14:53Z</time>
      </trkpt>
      <trkpt lat="64.810990998521447" lon="11.274460991844535">
        <ele>2.06</ele>
        <time>2017-06-21T19:14:54Z</time>
      </trkpt>
      <trkpt lat="64.810836017131805" lon="11.274592000991106">
        <ele>3.02</ele>
        <time>2017-06-21T19:14:55Z</time>
      </trkpt>
      <trkpt lat="64.810687992721796" lon="11.274752011522651">
        <ele>3.98</ele>
        <time>2017-06-21T19:14:56Z</time>
      </trkpt>
      <trkpt lat="64.808887979015708" lon="11.276294030249119">
        <ele>3.5</ele>
        <time>2017-06-21T19:15:07Z</time>
      </trkpt>
      <trkpt lat="64.807000961154699" lon="11.277491971850395">
        <ele>1.1</ele>
        <time>2017-06-21T19:15:17Z</time>
      </trkpt>
      <trkpt lat="64.805706962943077" lon="11.278121033683419">
        <ele>0.62</ele>
        <time>2017-06-21T19:15:24Z</time>
      </trkpt>
      <trkpt lat="64.803853975608945" lon="11.277979966253042">
        <ele>1.58</ele>
        <time>2017-06-21T19:15:34Z</time>
      </trkpt>
      <trkpt lat="64.803701005876064" lon="11.277858009561896">
        <ele>1.58</ele>
        <time>2017-06-21T19:15:35Z</time>
      </trkpt>
      <trkpt lat="64.803559016436338" lon="11.277689030393958">
        <ele>2.06</ele>
        <time>2017-06-21T19:15:36Z</time>
      </trkpt>
      <trkpt lat="64.803423983976245" lon="11.277478979900479">
        <ele>2.54</ele>
        <time>2017-06-21T19:15:37Z</time>
      </trkpt>
      <trkpt lat="64.803294986486435" lon="11.277226014062762">
        <ele>3.02</ele>
        <time>2017-06-21T19:15:38Z</time>
      </trkpt>
      <trkpt lat="64.803173029795289" lon="11.276957960799336">
        <ele>3.02</ele>
        <time>2017-06-21T19:15:39Z</time>
      </trkpt>
      <trkpt lat="64.802612029016018" lon="11.275806035846472">
        <ele>1.58</ele>
        <time>2017-06-21T19:15:44Z</time>
      </trkpt>
      <trkpt lat="64.802501974627376" lon="11.275672009214759">
        <ele>1.58</ele>
        <time>2017-06-21T19:15:45Z</time>
      </trkpt>
      <trkpt lat="64.802385969087481" lon="11.275576958432794">
        <ele>2.06</ele>
        <time>2017-06-21T19:15:46Z</time>
      </trkpt>
      <trkpt lat="64.802260994911194" lon="11.275531025603414">
        <ele>2.54</ele>
        <time>2017-06-21T19:15:47Z</time>
      </trkpt>
      <trkpt lat="64.802129985764623" lon="11.275543011724949">
        <ele>3.5</ele>
        <time>2017-06-21T19:15:48Z</time>
      </trkpt>
      <trkpt lat="64.802002999931574" lon="11.275599002838135">
        <ele>4.46</ele>
        <time>2017-06-21T19:15:49Z</time>
      </trkpt>
      <trkpt lat="64.801881965249777" lon="11.275710985064507">
        <ele>5.42</ele>
        <time>2017-06-21T19:15:50Z</time>
      </trkpt>
      <trkpt lat="64.801762020215392" lon="11.275863032788038">
        <ele>6.39</ele>
        <time>2017-06-21T19:15:51Z</time>
      </trkpt>
      <trkpt lat="64.801648026332259" lon="11.276041986420751">
        <ele>7.83</ele>
        <time>2017-06-21T19:15:52Z</time>
      </trkpt>
      <trkpt lat="64.801535960286856" lon="11.276238961145282">
        <ele>8.789999999999999</ele>
        <time>2017-06-21T19:15:53Z</time>
      </trkpt>
      <trkpt lat="64.800217989832163" lon="11.278665019199252">
        <ele>7.35</ele>
        <time>2017-06-21T19:16:05Z</time>
      </trkpt>
      <trkpt lat="64.80012696236372" lon="11.278925025835633">
        <ele>6.39</ele>
        <time>2017-06-21T19:16:06Z</time>
      </trkpt>
      <trkpt lat="64.800050016492605" lon="11.279210010543466">
        <ele>5.42</ele>
        <time>2017-06-21T19:16:07Z</time>
      </trkpt>
      <trkpt lat="64.799984972923994" lon="11.279503041878343">
        <ele>4.94</ele>
        <time>2017-06-21T19:16:08Z</time>
      </trkpt>
      <trkpt lat="64.799937028437853" lon="11.2798229791224">
        <ele>4.46</ele>
        <time>2017-06-21T19:16:09Z</time>
      </trkpt>
      <trkpt lat="64.799900986254215" lon="11.280164960771799">
        <ele>4.46</ele>
        <time>2017-06-21T19:16:10Z</time>
      </trkpt>
      <trkpt lat="64.799876008182764" lon="11.280515994876623">
        <ele>3.98</ele>
        <time>2017-06-21T19:16:11Z</time>
      </trkpt>
      <trkpt lat="64.799864022061229" lon="11.280883038416505">
        <ele>3.98</ele>
        <time>2017-06-21T19:16:12Z</time>
      </trkpt>
      <trkpt lat="64.799858992919326" lon="11.281254021450877">
        <ele>3.98</ele>
        <time>2017-06-21T19:16:13Z</time>
      </trkpt>
      <trkpt lat="64.799901992082596" lon="11.285683019086719">
        <ele>9.75</ele>
        <time>2017-06-21T19:16:25Z</time>
      </trkpt>
      <trkpt lat="64.799872990697622" lon="11.289068972691894">
        <ele>10.23</ele>
        <time>2017-06-21T19:16:37Z</time>
      </trkpt>
      <trkpt lat="64.799898974597454" lon="11.293163029477">
        <ele>12.15</ele>
        <time>2017-06-21T19:16:50Z</time>
      </trkpt>
      <trkpt lat="64.799709962680936" lon="11.296084960922599">
        <ele>11.67</ele>
        <time>2017-06-21T19:16:59Z</time>
      </trkpt>
      <trkpt lat="64.799528997391462" lon="11.297551039606333">
        <ele>12.630000000000001</ele>
        <time>2017-06-21T19:17:04Z</time>
      </trkpt>
      <trkpt lat="64.799464037641883" lon="11.297782966867089">
        <ele>12.630000000000001</ele>
        <time>2017-06-21T19:17:05Z</time>
      </trkpt>
      <trkpt lat="64.799380972981453" lon="11.297986982390285">
        <ele>12.15</ele>
        <time>2017-06-21T19:17:06Z</time>
      </trkpt>
      <trkpt lat="64.799277037382126" lon="11.298163002356887">
        <ele>11.67</ele>
        <time>2017-06-21T19:17:07Z</time>
      </trkpt>
      <trkpt lat="64.799162959679961" lon="11.298311026766896">
        <ele>11.67</ele>
        <time>2017-06-21T19:17:08Z</time>
      </trkpt>
      <trkpt lat="64.799038991332054" lon="11.298443041741848">
        <ele>11.19</ele>
        <time>2017-06-21T19:17:09Z</time>
      </trkpt>
      <trkpt lat="64.798903958871961" lon="11.298562986776233">
        <ele>10.710000000000001</ele>
        <time>2017-06-21T19:17:10Z</time>
      </trkpt>
      <trkpt lat="64.797771982848644" lon="11.299497988075018">
        <ele>10.710000000000001</ele>
        <time>2017-06-21T19:17:19Z</time>
      </trkpt>
      <trkpt lat="64.797683972865343" lon="11.299660010263324">
        <ele>10.710000000000001</ele>
        <time>2017-06-21T19:17:20Z</time>
      </trkpt>
      <trkpt lat="64.79761297814548" lon="11.299838041886687">
        <ele>10.710000000000001</ele>
        <time>2017-06-21T19:17:21Z</time>
      </trkpt>
      <trkpt lat="64.797552041709423" lon="11.300028981640935">
        <ele>10.23</ele>
        <time>2017-06-21T19:17:22Z</time>
      </trkpt>
      <trkpt lat="64.797502001747489" lon="11.300241965800524">
        <ele>10.23</ele>
        <time>2017-06-21T19:17:23Z</time>
      </trkpt>
      <trkpt lat="64.797454979270697" lon="11.300485040992498">
        <ele>9.27</ele>
        <time>2017-06-21T19:17:24Z</time>
      </trkpt>
      <trkpt lat="64.797409968450665" lon="11.300752004608512">
        <ele>8.789999999999999</ele>
        <time>2017-06-21T19:17:25Z</time>
      </trkpt>
    </trkseg>
  </trk>

  <trk>
    <name>Track vom: 21 JUN 2017 21:20</name>
    <extensions>
      <gpxx:TrackExtension>
        <gpxx:DisplayColor>DarkGray</gpxx:DisplayColor>
      </gpxx:TrackExtension>
    </extensions>
    <trkseg>
      <trkpt lat="64.796596001833677" lon="11.304232003167272">
        <ele>5.42</ele>
        <time>2017-06-21T19:20:09Z</time>
      </trkpt>
      <trkpt lat="64.796569012105465" lon="11.304300986230373">
        <ele>5.42</ele>
        <time>2017-06-21T19:20:37Z</time>
      </trkpt>
      <trkpt lat="64.796572029590607" lon="11.30433602258563">
        <ele>5.42</ele>
        <time>2017-06-21T19:20:38Z</time>
      </trkpt>
      <trkpt lat="64.796585021540523" lon="11.304345997050405">
        <ele>5.42</ele>
        <time>2017-06-21T19:20:39Z</time>
      </trkpt>
      <trkpt lat="64.79660103097558" lon="11.304339962080121">
        <ele>4.94</ele>
        <time>2017-06-21T19:20:40Z</time>
      </trkpt>
      <trkpt lat="64.796621985733509" lon="11.304296040907502">
        <ele>4.94</ele>
        <time>2017-06-21T19:20:41Z</time>
      </trkpt>
      <trkpt lat="64.796649981290102" lon="11.304216999560595">
        <ele>4.46</ele>
        <time>2017-06-21T19:20:42Z</time>
      </trkpt>
      <trkpt lat="64.796919040381908" lon="11.303447037935257">
        <ele>4.94</ele>
        <time>2017-06-21T19:20:47Z</time>
      </trkpt>
      <trkpt lat="64.797344002872705" lon="11.301342006772757">
        <ele>7.35</ele>
        <time>2017-06-21T19:20:54Z</time>
      </trkpt>
      <trkpt lat="64.797580037266016" lon="11.300020013004541">
        <ele>11.19</ele>
        <time>2017-06-21T19:20:58Z</time>
      </trkpt>
      <trkpt lat="64.797650026157498" lon="11.299770986661315">
        <ele>11.67</ele>
        <time>2017-06-21T19:20:59Z</time>
      </trkpt>
      <trkpt lat="64.797726972028613" lon="11.29956697113812">
        <ele>12.15</ele>
        <time>2017-06-21T19:21:00Z</time>
      </trkpt>
      <trkpt lat="64.797806013375521" lon="11.299403021112084">
        <ele>12.630000000000001</ele>
        <time>2017-06-21T19:21:01Z</time>
      </trkpt>
      <trkpt lat="64.797897962853312" lon="11.299264971166849">
        <ele>13.119999999999999</ele>
        <time>2017-06-21T19:21:02Z</time>
      </trkpt>
      <trkpt lat="64.798013968393207" lon="11.299132034182549">
        <ele>13.119999999999999</ele>
        <time>2017-06-21T19:21:03Z</time>
      </trkpt>
      <trkpt lat="64.798138020560145" lon="11.299014016985893">
        <ele>12.630000000000001</ele>
        <time>2017-06-21T19:21:04Z</time>
      </trkpt>
      <trkpt lat="64.799437969923019" lon="11.297823032364249">
        <ele>15.52</ele>
        <time>2017-06-21T19:21:13Z</time>
      </trkpt>
      <trkpt lat="64.799535032361746" lon="11.297617005184293">
        <ele>15.52</ele>
        <time>2017-06-21T19:21:14Z</time>
      </trkpt>
      <trkpt lat="64.799604015424848" lon="11.297382982447743">
        <ele>16</ele>
        <time>2017-06-21T19:21:15Z</time>
      </trkpt>
      <trkpt lat="64.799647014588118" lon="11.297118030488491">
        <ele>16</ele>
        <time>2017-06-21T19:21:16Z</time>
      </trkpt>
      <trkpt lat="64.799677021801472" lon="11.296828016638756">
        <ele>15.52</ele>
        <time>2017-06-21T19:21:17Z</time>
      </trkpt>
      <trkpt lat="64.799705017358065" lon="11.29651403054595">
        <ele>15.039999999999999</ele>
        <time>2017-06-21T19:21:18Z</time>
      </trkpt>
      <trkpt lat="64.799937028437853" lon="11.292848037555814">
        <ele>13.119999999999999</ele>
        <time>2017-06-21T19:21:28Z</time>
      </trkpt>
      <trkpt lat="64.799880031496286" lon="11.28968495875597">
        <ele>10.23</ele>
        <time>2017-06-21T19:21:37Z</time>
      </trkpt>
      <trkpt lat="64.799939962103963" lon="11.285080024972558">
        <ele>7.83</ele>
        <time>2017-06-21T19:21:51Z</time>
      </trkpt>
      <trkpt lat="64.799925964325666" lon="11.282246019691229">
        <ele>3.98</ele>
        <time>2017-06-21T19:22:02Z</time>
      </trkpt>
      <trkpt lat="64.799924958497286" lon="11.281611006706953">
        <ele>3.02</ele>
        <time>2017-06-21T19:22:09Z</time>
      </trkpt>
      <trkpt lat="64.799919007346034" lon="11.281054029241204">
        <ele>2.54</ele>
        <time>2017-06-21T19:23:19Z</time>
      </trkpt>
      <trkpt lat="64.799996959045529" lon="11.279704039916396">
        <ele>3.5</ele>
        <time>2017-06-21T19:23:24Z</time>
      </trkpt>
      <trkpt lat="64.800048004835844" lon="11.279405979439616">
        <ele>3.98</ele>
        <time>2017-06-21T19:23:25Z</time>
      </trkpt>
      <trkpt lat="64.800115982070565" lon="11.27909098751843">
        <ele>4.94</ele>
        <time>2017-06-21T19:23:26Z</time>
      </trkpt>
      <trkpt lat="64.800199968740344" lon="11.278783036395907">
        <ele>5.91</ele>
        <time>2017-06-21T19:23:27Z</time>
      </trkpt>
      <trkpt lat="64.800299964845181" lon="11.278492016717792">
        <ele>6.87</ele>
        <time>2017-06-21T19:23:28Z</time>
      </trkpt>
      <trkpt lat="64.800413958728313" lon="11.278222035616636">
        <ele>8.310000000000001</ele>
        <time>2017-06-21T19:23:29Z</time>
      </trkpt>
      <trkpt lat="64.800541028380394" lon="11.27797401510179">
        <ele>10.23</ele>
        <time>2017-06-21T19:23:30Z</time>
      </trkpt>
      <trkpt lat="64.800671031698585" lon="11.277751978486776">
        <ele>11.19</ele>
        <time>2017-06-21T19:23:31Z</time>
      </trkpt>
      <trkpt lat="64.801966035738587" lon="11.275646025314927">
        <ele>7.83</ele>
        <time>2017-06-21T19:23:42Z</time>
      </trkpt>
      <trkpt lat="64.80208296328783" lon="11.275542005896568">
        <ele>6.87</ele>
        <time>2017-06-21T19:23:43Z</time>
      </trkpt>
      <trkpt lat="64.802198968827724" lon="11.275475034490228">
        <ele>6.39</ele>
        <time>2017-06-21T19:23:44Z</time>
      </trkpt>
      <trkpt lat="64.802312962710857" lon="11.275466987863183">
        <ele>5.91</ele>
        <time>2017-06-21T19:23:45Z</time>
      </trkpt>
      <trkpt lat="64.802430979907513" lon="11.275507975369692">
        <ele>5.91</ele>
        <time>2017-06-21T19:23:46Z</time>
      </trkpt>
      <trkpt lat="64.802551008760929" lon="11.275601014494896">
        <ele>5.42</ele>
        <time>2017-06-21T19:23:47Z</time>
      </trkpt>
      <trkpt lat="64.802674977108836" lon="11.275748033076525">
        <ele>5.42</ele>
        <time>2017-06-21T19:23:48Z</time>
      </trkpt>
      <trkpt lat="64.802800035104156" lon="11.275948025286198">
        <ele>5.42</ele>
        <time>2017-06-21T19:23:49Z</time>
      </trkpt>
      <trkpt lat="64.802928026765585" lon="11.276179030537605">
        <ele>5.91</ele>
        <time>2017-06-21T19:23:50Z</time>
      </trkpt>
      <trkpt lat="64.803051995113492" lon="11.276439959183335">
        <ele>6.39</ele>
        <time>2017-06-21T19:23:51Z</time>
      </trkpt>
      <trkpt lat="64.803663035854697" lon="11.277729012072086">
        <ele>5.91</ele>
        <time>2017-06-21T19:23:56Z</time>
      </trkpt>
      <trkpt lat="64.803797984495759" lon="11.277901008725166">
        <ele>5.42</ele>
        <time>2017-06-21T19:23:57Z</time>
      </trkpt>
      <trkpt lat="64.803945003077388" lon="11.278021037578583">
        <ele>4.94</ele>
        <time>2017-06-21T19:23:58Z</time>
      </trkpt>
      <trkpt lat="64.804095961153507" lon="11.278092032298446">
        <ele>4.94</ele>
        <time>2017-06-21T19:23:59Z</time>
      </trkpt>
      <trkpt lat="64.804257983341813" lon="11.27812497317791">
        <ele>4.94</ele>
        <time>2017-06-21T19:24:00Z</time>
      </trkpt>
      <trkpt lat="64.804426040500402" lon="11.278127990663052">
        <ele>4.46</ele>
        <time>2017-06-21T19:24:01Z</time>
      </trkpt>
      <trkpt lat="64.806473990902305" lon="11.277988012880087">
        <ele>3.98</ele>
        <time>2017-06-21T19:24:12Z</time>
      </trkpt>
      <trkpt lat="64.806655962020159" lon="11.277872007340193">
        <ele>3.5</ele>
        <time>2017-06-21T19:24:13Z</time>
      </trkpt>
      <trkpt lat="64.806838016957045" lon="11.277723982930183">
        <ele>3.5</ele>
        <time>2017-06-21T19:24:14Z</time>
      </trkpt>
      <trkpt lat="64.808786977082491" lon="11.27631900832057">
        <ele>6.39</ele>
        <time>2017-06-21T19:24:24Z</time>
      </trkpt>
      <trkpt lat="64.81031097471714" lon="11.275293985381722">
        <ele>7.83</ele>
        <time>2017-06-21T19:24:32Z</time>
      </trkpt>
      <trkpt lat="64.811200965195894" lon="11.274425033479929">
        <ele>3.98</ele>
        <time>2017-06-21T19:24:37Z</time>
      </trkpt>
      <trkpt lat="64.811380002647638" lon="11.274349009618163">
        <ele>3.5</ele>
        <time>2017-06-21T19:24:38Z</time>
      </trkpt>
      <trkpt lat="64.811562979593873" lon="11.274333000183105">
        <ele>3.5</ele>
        <time>2017-06-21T19:24:39Z</time>
      </trkpt>
      <trkpt lat="64.811746962368488" lon="11.274360995739698">
        <ele>3.5</ele>
        <time>2017-06-21T19:24:40Z</time>
      </trkpt>
      <trkpt lat="64.811934968456626" lon="11.27442897297442">
        <ele>3.5</ele>
        <time>2017-06-21T19:24:41Z</time>
      </trkpt>
      <trkpt lat="64.812125992029905" lon="11.27451497130096">
        <ele>3.5</ele>
        <time>2017-06-21T19:24:42Z</time>
      </trkpt>
      <trkpt lat="64.813355030491948" lon="11.275348970666528">
        <ele>5.42</ele>
        <time>2017-06-21T19:24:49Z</time>
      </trkpt>
      <trkpt lat="64.813500037416816" lon="11.275562960654497">
        <ele>5.91</ele>
        <time>2017-06-21T19:24:50Z</time>
      </trkpt>
      <trkpt lat="64.8136390093714" lon="11.275800000876188">
        <ele>5.91</ele>
        <time>2017-06-21T19:24:51Z</time>
      </trkpt>
      <trkpt lat="64.814032036811113" lon="11.276510031893849">
        <ele>6.87</ele>
        <time>2017-06-21T19:24:54Z</time>
      </trkpt>
      <trkpt lat="64.814166985452175" lon="11.276672976091504">
        <ele>7.35</ele>
        <time>2017-06-21T19:24:55Z</time>
      </trkpt>
      <trkpt lat="64.814317021518946" lon="11.276784958317876">
        <ele>8.310000000000001</ele>
        <time>2017-06-21T19:24:56Z</time>
      </trkpt>
      <trkpt lat="64.81447703205049" lon="11.276856958866119">
        <ele>8.789999999999999</ele>
        <time>2017-06-21T19:24:57Z</time>
      </trkpt>
      <trkpt lat="64.814647017046809" lon="11.276905992999673">
        <ele>8.789999999999999</ele>
        <time>2017-06-21T19:24:58Z</time>
      </trkpt>
      <trkpt lat="64.815741023048759" lon="11.277448972687125">
        <ele>7.83</ele>
        <time>2017-06-21T19:25:04Z</time>
      </trkpt>
      <trkpt lat="64.815903967246413" lon="11.277639996260405">
        <ele>8.789999999999999</ele>
        <time>2017-06-21T19:25:05Z</time>
      </trkpt>
      <trkpt lat="64.816051991656423" lon="11.277863960713148">
        <ele>9.27</ele>
        <time>2017-06-21T19:25:06Z</time>
      </trkpt>
      <trkpt lat="64.816186018288136" lon="11.278130002319813">
        <ele>10.23</ele>
        <time>2017-06-21T19:25:07Z</time>
      </trkpt>
      <trkpt lat="64.816309986636043" lon="11.27842403948307">
        <ele>10.710000000000001</ele>
        <time>2017-06-21T19:25:08Z</time>
      </trkpt>
      <trkpt lat="64.816426998004317" lon="11.278718998655677">
        <ele>11.19</ele>
        <time>2017-06-21T19:25:09Z</time>
      </trkpt>
      <trkpt lat="64.816543003544211" lon="11.278975987806916">
        <ele>11.19</ele>
        <time>2017-06-21T19:25:10Z</time>
      </trkpt>
      <trkpt lat="64.816651968285441" lon="11.279175980016589">
        <ele>11.19</ele>
        <time>2017-06-21T19:25:11Z</time>
      </trkpt>
      <trkpt lat="64.81675498187542" lon="11.279322998598218">
        <ele>11.19</ele>
        <time>2017-06-21T19:25:12Z</time>
      </trkpt>
      <trkpt lat="64.816871993243694" lon="11.279421988874674">
        <ele>10.710000000000001</ele>
        <time>2017-06-21T19:25:13Z</time>
      </trkpt>
      <trkpt lat="64.817011971026659" lon="11.279491977766156">
        <ele>10.23</ele>
        <time>2017-06-21T19:25:14Z</time>
      </trkpt>
      <trkpt lat="64.817164018750191" lon="11.27956498414278">
        <ele>9.27</ele>
        <time>2017-06-21T19:25:15Z</time>
      </trkpt>
      <trkpt lat="64.818365983664989" lon="11.280137971043587">
        <ele>10.710000000000001</ele>
        <time>2017-06-21T19:25:22Z</time>
      </trkpt>
      <trkpt lat="64.818534040823579" lon="11.280139982700348">
        <ele>11.67</ele>
        <time>2017-06-21T19:25:23Z</time>
      </trkpt>
      <trkpt lat="64.818696985021234" lon="11.280107041820884">
        <ele>12.15</ele>
        <time>2017-06-21T19:25:24Z</time>
      </trkpt>
      <trkpt lat="64.818856995552778" lon="11.280032023787498">
        <ele>12.630000000000001</ele>
        <time>2017-06-21T19:25:25Z</time>
      </trkpt>
      <trkpt lat="64.819008037447929" lon="11.279919035732746">
        <ele>13.119999999999999</ele>
        <time>2017-06-21T19:25:26Z</time>
      </trkpt>
      <trkpt lat="64.819155978038907" lon="11.279766988009214">
        <ele>13.6</ele>
        <time>2017-06-21T19:25:27Z</time>
      </trkpt>
      <trkpt lat="64.819295033812523" lon="11.279593985527754">
        <ele>13.6</ele>
        <time>2017-06-21T19:25:28Z</time>
      </trkpt>
      <trkpt lat="64.819425037130713" lon="11.279411008581519">
        <ele>13.6</ele>
        <time>2017-06-21T19:25:29Z</time>
      </trkpt>
      <trkpt lat="64.819713039323688" lon="11.278993003070354">
        <ele>13.119999999999999</ele>
        <time>2017-06-21T19:25:32Z</time>
      </trkpt>
      <trkpt lat="64.819789985194802" lon="11.278935000300407">
        <ele>12.630000000000001</ele>
        <time>2017-06-21T19:25:33Z</time>
      </trkpt>
      <trkpt lat="64.81986902654171" lon="11.278936006128788">
        <ele>12.630000000000001</ele>
        <time>2017-06-21T19:25:34Z</time>
      </trkpt>
      <trkpt lat="64.819948989897966" lon="11.278999960049987">
        <ele>12.630000000000001</ele>
        <time>2017-06-21T19:25:35Z</time>
      </trkpt>
      <trkpt lat="64.820025013759732" lon="11.27911202609539">
        <ele>12.15</ele>
        <time>2017-06-21T19:25:36Z</time>
      </trkpt>
      <trkpt lat="64.820098020136356" lon="11.279249992221594">
        <ele>12.15</ele>
        <time>2017-06-21T19:25:37Z</time>
      </trkpt>
      <trkpt lat="64.820174966007471" lon="11.2794120144099">
        <ele>12.15</ele>
        <time>2017-06-21T19:25:38Z</time>
      </trkpt>
      <trkpt lat="64.820249984040856" lon="11.279589962214231">
        <ele>12.15</ele>
        <time>2017-06-21T19:25:39Z</time>
      </trkpt>
      <trkpt lat="64.820317039266229" lon="11.279786014929414">
        <ele>12.15</ele>
        <time>2017-06-21T19:25:40Z</time>
      </trkpt>
      <trkpt lat="64.820374958217144" lon="11.280012996867299">
        <ele>12.630000000000001</ele>
        <time>2017-06-21T19:25:41Z</time>
      </trkpt>
      <trkpt lat="64.820424998179078" lon="11.280270991846919">
        <ele>12.630000000000001</ele>
        <time>2017-06-21T19:25:42Z</time>
      </trkpt>
      <trkpt lat="64.820462968200445" lon="11.280549019575119">
        <ele>13.119999999999999</ele>
        <time>2017-06-21T19:25:43Z</time>
      </trkpt>
      <trkpt lat="64.820486018434167" lon="11.280843978747725">
        <ele>13.6</ele>
        <time>2017-06-21T19:25:44Z</time>
      </trkpt>
      <trkpt lat="64.820490963757038" lon="11.281156037002802">
        <ele>14.56</ele>
        <time>2017-06-21T19:25:45Z</time>
      </trkpt>
      <trkpt lat="64.820476965978742" lon="11.281461976468563">
        <ele>15.039999999999999</ele>
        <time>2017-06-21T19:25:46Z</time>
      </trkpt>
      <trkpt lat="64.820449976250529" lon="11.281778980046511">
        <ele>15.039999999999999</ele>
        <time>2017-06-21T19:25:47Z</time>
      </trkpt>
      <trkpt lat="64.82040798291564" lon="11.282091038301587">
        <ele>14.56</ele>
        <time>2017-06-21T19:25:48Z</time>
      </trkpt>
      <trkpt lat="64.820360960438848" lon="11.282406030222774">
        <ele>14.08</ele>
        <time>2017-06-21T19:25:49Z</time>
      </trkpt>
      <trkpt lat="64.820212014019489" lon="11.284165978431702">
        <ele>7.35</ele>
        <time>2017-06-21T19:25:54Z</time>
      </trkpt>
      <trkpt lat="64.820218970999122" lon="11.284511983394623">
        <ele>5.91</ele>
        <time>2017-06-21T19:25:55Z</time>
      </trkpt>
      <trkpt lat="64.820247972384095" lon="11.284844996407628">
        <ele>4.94</ele>
        <time>2017-06-21T19:25:56Z</time>
      </trkpt>
      <trkpt lat="64.82029901817441" lon="11.285155965015292">
        <ele>4.94</ele>
        <time>2017-06-21T19:25:57Z</time>
      </trkpt>
      <trkpt lat="64.820374036207795" lon="11.285431981086731">
        <ele>4.46</ele>
        <time>2017-06-21T19:25:58Z</time>
      </trkpt>
      <trkpt lat="64.820467997342348" lon="11.285684024915099">
        <ele>4.46</ele>
        <time>2017-06-21T19:25:59Z</time>
      </trkpt>
      <trkpt lat="64.820576040074229" lon="11.285911006852984">
        <ele>4.94</ele>
        <time>2017-06-21T19:26:00Z</time>
      </trkpt>
      <trkpt lat="64.820690033957362" lon="11.286127008497715">
        <ele>4.94</ele>
        <time>2017-06-21T19:26:01Z</time>
      </trkpt>
      <trkpt lat="64.82100703753531" lon="11.286813989281654">
        <ele>7.83</ele>
        <time>2017-06-21T19:26:04Z</time>
      </trkpt>
      <trkpt lat="64.821083983406425" lon="11.2870810367167">
        <ele>8.789999999999999</ele>
        <time>2017-06-21T19:26:05Z</time>
      </trkpt>
      <trkpt lat="64.821153972297907" lon="11.287379013374448">
        <ele>9.27</ele>
        <time>2017-06-21T19:26:06Z</time>
      </trkpt>
      <trkpt lat="64.821767024695873" lon="11.290691960602999">
        <ele>8.789999999999999</ele>
        <time>2017-06-21T19:26:15Z</time>
      </trkpt>
      <trkpt lat="64.822257030755281" lon="11.294861035421491">
        <ele>7.83</ele>
        <time>2017-06-21T19:26:25Z</time>
      </trkpt>
      <trkpt lat="64.82296496629715" lon="11.301120975986123">
        <ele>12.15</ele>
        <time>2017-06-21T19:26:39Z</time>
      </trkpt>
      <trkpt lat="64.823769964277744" lon="11.306897029280663">
        <ele>16.960000000000001</ele>
        <time>2017-06-21T19:26:52Z</time>
      </trkpt>
      <trkpt lat="64.824161985889077" lon="11.309302970767021">
        <ele>18.399999999999999</ele>
        <time>2017-06-21T19:26:59Z</time>
      </trkpt>
      <trkpt lat="64.824491981416941" lon="11.312018036842346">
        <ele>18.399999999999999</ele>
        <time>2017-06-21T19:27:07Z</time>
      </trkpt>
      <trkpt lat="64.824450993910432" lon="11.315086986869574">
        <ele>18.399999999999999</ele>
        <time>2017-06-21T19:27:16Z</time>
      </trkpt>
      <trkpt lat="64.824315039440989" lon="11.317041981965303">
        <ele>20.32</ele>
        <time>2017-06-21T19:27:25Z</time>
      </trkpt>
      <trkpt lat="64.823996024206281" lon="11.319327978417277">
        <ele>16.48</ele>
        <time>2017-06-21T19:27:36Z</time>
      </trkpt>
      <trkpt lat="64.823927041143179" lon="11.31989099085331">
        <ele>15.52</ele>
        <time>2017-06-21T19:27:39Z</time>
      </trkpt>
      <trkpt lat="64.823602996766567" lon="11.321804998442531">
        <ele>14.56</ele>
        <time>2017-06-21T19:27:46Z</time>
      </trkpt>
      <trkpt lat="64.823446003720164" lon="11.32304904051125">
        <ele>13.6</ele>
        <time>2017-06-21T19:27:50Z</time>
      </trkpt>
      <trkpt lat="64.82343602925539" lon="11.323380963876843">
        <ele>13.119999999999999</ele>
        <time>2017-06-21T19:27:51Z</time>
      </trkpt>
      <trkpt lat="64.823443992063403" lon="11.323720011860132">
        <ele>13.119999999999999</ele>
        <time>2017-06-21T19:27:52Z</time>
      </trkpt>
      <trkpt lat="64.823466036468744" lon="11.324070962145925">
        <ele>12.630000000000001</ele>
        <time>2017-06-21T19:27:53Z</time>
      </trkpt>
      <trkpt lat="64.823495959863067" lon="11.324429037049413">
        <ele>12.15</ele>
        <time>2017-06-21T19:27:54Z</time>
      </trkpt>
      <trkpt lat="64.823890998959541" lon="11.328931041061878">
        <ele>11.19</ele>
        <time>2017-06-21T19:28:06Z</time>
      </trkpt>
      <trkpt lat="64.823912037536502" lon="11.329725980758667">
        <ele>11.19</ele>
        <time>2017-06-21T19:28:09Z</time>
      </trkpt>
      <trkpt lat="64.823898039758205" lon="11.329960003495216">
        <ele>11.19</ele>
        <time>2017-06-21T19:28:10Z</time>
      </trkpt>
      <trkpt lat="64.823874989524484" lon="11.330176005139947">
        <ele>11.19</ele>
        <time>2017-06-21T19:28:11Z</time>
      </trkpt>
      <trkpt lat="64.823838025331497" lon="11.330369962379336">
        <ele>10.710000000000001</ele>
        <time>2017-06-21T19:28:12Z</time>
      </trkpt>
      <trkpt lat="64.823789997026324" lon="11.330552017316222">
        <ele>10.710000000000001</ele>
        <time>2017-06-21T19:28:13Z</time>
      </trkpt>
      <trkpt lat="64.823730988427997" lon="11.33072099648416">
        <ele>10.23</ele>
        <time>2017-06-21T19:28:14Z</time>
      </trkpt>
      <trkpt lat="64.823653036728501" lon="11.330873966217041">
        <ele>9.75</ele>
        <time>2017-06-21T19:28:15Z</time>
      </trkpt>
      <trkpt lat="64.823559997603297" lon="11.331016039475799">
        <ele>8.789999999999999</ele>
        <time>2017-06-21T19:28:16Z</time>
      </trkpt>
      <trkpt lat="64.823453966528177" lon="11.331133972853422">
        <ele>8.310000000000001</ele>
        <time>2017-06-21T19:28:17Z</time>
      </trkpt>
      <trkpt lat="64.823338966816664" lon="11.331240003928542">
        <ele>7.35</ele>
        <time>2017-06-21T19:28:18Z</time>
      </trkpt>
      <trkpt lat="64.823217010125518" lon="11.33132298476994">
        <ele>7.35</ele>
        <time>2017-06-21T19:28:19Z</time>
      </trkpt>
      <trkpt lat="64.82309103012085" lon="11.331399008631706">
        <ele>7.35</ele>
        <time>2017-06-21T19:28:20Z</time>
      </trkpt>
      <trkpt lat="64.822967983782291" lon="11.331452988088131">
        <ele>6.87</ele>
        <time>2017-06-21T19:28:21Z</time>
      </trkpt>
      <trkpt lat="64.822842003777623" lon="11.33147201500833">
        <ele>7.83</ele>
        <time>2017-06-21T19:28:22Z</time>
      </trkpt>
      <trkpt lat="64.822715017944574" lon="11.331466985866427">
        <ele>8.310000000000001</ele>
        <time>2017-06-21T19:28:23Z</time>
      </trkpt>
      <trkpt lat="64.822592977434397" lon="11.33142901584506">
        <ele>9.27</ele>
        <time>2017-06-21T19:28:24Z</time>
      </trkpt>
      <trkpt lat="64.82247001491487" lon="11.331352991983294">
        <ele>9.75</ele>
        <time>2017-06-21T19:28:25Z</time>
      </trkpt>
      <trkpt lat="64.822345040738583" lon="11.331269005313516">
        <ele>10.710000000000001</ele>
        <time>2017-06-21T19:28:26Z</time>
      </trkpt>
      <trkpt lat="64.821285987272859" lon="11.330622006207705">
        <ele>12.630000000000001</ele>
        <time>2017-06-21T19:28:36Z</time>
      </trkpt>
      <trkpt lat="64.82113603502512" lon="11.33056802675128">
        <ele>12.15</ele>
        <time>2017-06-21T19:28:38Z</time>
      </trkpt>
      <trkpt lat="64.821044001728296" lon="11.330556962639093">
        <ele>11.67</ele>
        <time>2017-06-21T19:28:39Z</time>
      </trkpt>
      <trkpt lat="64.820946017280221" lon="11.330570038408041">
        <ele>11.67</ele>
        <time>2017-06-21T19:28:40Z</time>
      </trkpt>
      <trkpt lat="64.820848032832146" lon="11.330607002601027">
        <ele>11.19</ele>
        <time>2017-06-21T19:28:41Z</time>
      </trkpt>
      <trkpt lat="64.82075298205018" lon="11.33067799732089">
        <ele>10.710000000000001</ele>
        <time>2017-06-21T19:28:42Z</time>
      </trkpt>
      <trkpt lat="64.82066698372364" lon="11.330778999254107">
        <ele>10.710000000000001</ele>
        <time>2017-06-21T19:28:43Z</time>
      </trkpt>
      <trkpt lat="64.820590959861875" lon="11.330902967602015">
        <ele>10.23</ele>
        <time>2017-06-21T19:28:44Z</time>
      </trkpt>
      <trkpt lat="64.820527005940676" lon="11.331030037254095">
        <ele>9.75</ele>
        <time>2017-06-21T19:28:45Z</time>
      </trkpt>
      <trkpt lat="64.820474032312632" lon="11.331165991723537">
        <ele>9.75</ele>
        <time>2017-06-21T19:28:46Z</time>
      </trkpt>
      <trkpt lat="64.82042801566422" lon="11.33130001835525">
        <ele>9.27</ele>
        <time>2017-06-21T19:28:47Z</time>
      </trkpt>
      <trkpt lat="64.820391973480582" lon="11.331421975046396">
        <ele>9.27</ele>
        <time>2017-06-21T19:28:48Z</time>
      </trkpt>
      <trkpt lat="64.820264987647533" lon="11.331648034974933">
        <ele>8.789999999999999</ele>
        <time>2017-06-21T19:28:53Z</time>
      </trkpt>
      <trkpt lat="64.820240009576082" lon="11.331615010276437">
        <ele>8.789999999999999</ele>
        <time>2017-06-21T19:28:54Z</time>
      </trkpt>
      <trkpt lat="64.820210002362728" lon="11.331548960879445">
        <ele>8.789999999999999</ele>
        <time>2017-06-21T19:28:55Z</time>
      </trkpt>
      <trkpt lat="64.820176977664232" lon="11.331452988088131">
        <ele>8.310000000000001</ele>
        <time>2017-06-21T19:28:56Z</time>
      </trkpt>
      <trkpt lat="64.820142025128007" lon="11.331329019740224">
        <ele>8.310000000000001</ele>
        <time>2017-06-21T19:28:57Z</time>
      </trkpt>
      <trkpt lat="64.820104977115989" lon="11.331197004765272">
        <ele>8.310000000000001</ele>
        <time>2017-06-21T19:28:58Z</time>
      </trkpt>
    </trkseg>
  </trk>

</gpx>